<?xml version='1.0' encoding='UTF-8'?><gpx version="1.1" creator="JPX - https://github.com/jenetics/jpx" xmlns="http://www.topografix.com/GPX/1/1"><trk><trkseg><trkpt lat="43.13678243444322" lon="11.48187905999883"><ele>147.0</ele><time>2026-04-11T02:00:44Z</time></trkpt><trkpt lat="43.136698458182764" lon="11.481872509020999"><ele>147.0</ele><time>2026-04-11T02:00:49Z</time></trkpt><trkpt lat="43.136660629658266" lon="11.481802435787081"><ele>147.0</ele><time>2026-04-11T02:00:51Z</time></trkpt><trkpt lat="43.1366576462748" lon="11.481697639687676"><ele>147.0</ele><time>2026-04-11T02:00:53Z</time></trkpt><trkpt lat="43.13663784995153" lon="11.481582467360768"><ele>147.0</ele><time>2026-04-11T02:00:55Z</time></trkpt><trkpt lat="43.13661080259833" lon="11.481465566290987"><ele>147.0</ele><time>2026-04-11T02:00:57Z</time></trkpt><trkpt lat="43.136579870839206" lon="11.481352309994739"><ele>146.6</ele><time>2026-04-11T02:00:59Z</time></trkpt><trkpt lat="43.136547225575036" lon="11.481221232443103"><ele>146.2</ele><time>2026-04-11T02:01:01Z</time></trkpt><trkpt lat="43.13651692543647" lon="11.481082571466317"><ele>145.8</ele><time>2026-04-11T02:01:03Z</time></trkpt><trkpt lat="43.13647627299853" lon="11.48094781117363"><ele>145.4</ele><time>2026-04-11T02:01:05Z</time></trkpt><trkpt lat="43.136440904698894" lon="11.480812075616043"><ele>145.0</ele><time>2026-04-11T02:01:07Z</time></trkpt><trkpt lat="43.1364115219229" lon="11.480668949970187"><ele>145.0</ele><time>2026-04-11T02:01:09Z</time></trkpt><trkpt lat="43.136377121628136" lon="11.480517800651585"><ele>145.0</ele><time>2026-04-11T02:01:11Z</time></trkpt><trkpt lat="43.136333243337994" lon="11.48036661470559"><ele>145.0</ele><time>2026-04-11T02:01:13Z</time></trkpt><trkpt lat="43.13628429380461" lon="11.480213091029107"><ele>145.0</ele><time>2026-04-11T02:01:15Z</time></trkpt><trkpt lat="43.13624580467107" lon="11.480053076015643"><ele>144.83333333333334</ele><time>2026-04-11T02:01:17Z</time></trkpt><trkpt lat="43.13622516744799" lon="11.479971160055658"><ele>144.66666666666669</ele><time>2026-04-11T02:01:18Z</time></trkpt><trkpt lat="43.13618328214022" lon="11.479812020192357"><ele>144.5</ele><time>2026-04-11T02:01:20Z</time></trkpt><trkpt lat="43.13616787532814" lon="11.479723648405967"><ele>144.33333333333334</ele><time>2026-04-11T02:01:21Z</time></trkpt><trkpt lat="43.136152489516974" lon="11.479637376261515"><ele>144.16666666666666</ele><time>2026-04-11T02:01:22Z</time></trkpt><trkpt lat="43.13613068245229" lon="11.479547883181409"><ele>144.0</ele><time>2026-04-11T02:01:23Z</time></trkpt><trkpt lat="43.136107558898566" lon="11.479465727107232"><ele>144.00000000000003</ele><time>2026-04-11T02:01:24Z</time></trkpt><trkpt lat="43.13608559991122" lon="11.479382057014853"><ele>144.0</ele><time>2026-04-11T02:01:25Z</time></trkpt><trkpt lat="43.136062375677255" lon="11.479294542138787"><ele>144.0</ele><time>2026-04-11T02:01:26Z</time></trkpt><trkpt lat="43.13604072004813" lon="11.479213171986547"><ele>144.0</ele><time>2026-04-11T02:01:27Z</time></trkpt><trkpt lat="43.13602164907573" lon="11.479127043042098"><ele>144.0</ele><time>2026-04-11T02:01:28Z</time></trkpt><trkpt lat="43.136002103193974" lon="11.479041885918317"><ele>144.00000000000003</ele><time>2026-04-11T02:01:29Z</time></trkpt><trkpt lat="43.135981503024176" lon="11.478955782680027"><ele>144.0</ele><time>2026-04-11T02:01:30Z</time></trkpt><trkpt lat="43.13595999019666" lon="11.478869024564567"><ele>144.00000000000003</ele><time>2026-04-11T02:01:31Z</time></trkpt><trkpt lat="43.135938214663575" lon="11.478775487904471"><ele>144.0</ele><time>2026-04-11T02:01:32Z</time></trkpt><trkpt lat="43.135915816598" lon="11.478685505852333"><ele>144.0</ele><time>2026-04-11T02:01:33Z</time></trkpt><trkpt lat="43.13589870743199" lon="11.478586135618645"><ele>144.0</ele><time>2026-04-11T02:01:34Z</time></trkpt><trkpt lat="43.13587632091264" lon="11.478485884289965"><ele>144.0</ele><time>2026-04-11T02:01:35Z</time></trkpt><trkpt lat="43.13585725374086" lon="11.478381956803448"><ele>144.00000000000003</ele><time>2026-04-11T02:01:36Z</time></trkpt><trkpt lat="43.13583643986331" lon="11.478284771147756"><ele>144.0</ele><time>2026-04-11T02:01:37Z</time></trkpt><trkpt lat="43.13581779775575" lon="11.478182345066719"><ele>144.16666666666666</ele><time>2026-04-11T02:01:38Z</time></trkpt><trkpt lat="43.13579394698574" lon="11.478079140465297"><ele>144.33333333333334</ele><time>2026-04-11T02:01:39Z</time></trkpt><trkpt lat="43.135770931193484" lon="11.47797725131269"><ele>144.5</ele><time>2026-04-11T02:01:40Z</time></trkpt><trkpt lat="43.13574936057986" lon="11.47787282640442"><ele>144.66666666666669</ele><time>2026-04-11T02:01:41Z</time></trkpt><trkpt lat="43.135729233938626" lon="11.477768392619645"><ele>144.83333333333334</ele><time>2026-04-11T02:01:42Z</time></trkpt><trkpt lat="43.135707782245156" lon="11.477660156591657"><ele>145.0</ele><time>2026-04-11T02:01:43Z</time></trkpt><trkpt lat="43.1356831234099" lon="11.477549413191726"><ele>144.5</ele><time>2026-04-11T02:01:44Z</time></trkpt><trkpt lat="43.13566002484794" lon="11.477437573415143"><ele>144.0</ele><time>2026-04-11T02:01:45Z</time></trkpt><trkpt lat="43.13563508550267" lon="11.477326180545083"><ele>143.5</ele><time>2026-04-11T02:01:46Z</time></trkpt><trkpt lat="43.13561388849542" lon="11.477214844690597"><ele>143.0</ele><time>2026-04-11T02:01:47Z</time></trkpt><trkpt lat="43.13559035173567" lon="11.4771035029121"><ele>142.5</ele><time>2026-04-11T02:01:48Z</time></trkpt><trkpt lat="43.13556417143261" lon="11.476997369310963"><ele>142.0</ele><time>2026-04-11T02:01:49Z</time></trkpt><trkpt lat="43.13554013045427" lon="11.476887579403861"><ele>141.66666666666669</ele><time>2026-04-11T02:01:50Z</time></trkpt><trkpt lat="43.13551898572782" lon="11.476775876561655"><ele>141.33333333333334</ele><time>2026-04-11T02:01:51Z</time></trkpt><trkpt lat="43.135493615014674" lon="11.47667526965231"><ele>141.0</ele><time>2026-04-11T02:01:52Z</time></trkpt><trkpt lat="43.135471172007236" lon="11.47656873724486"><ele>140.66666666666666</ele><time>2026-04-11T02:01:53Z</time></trkpt><trkpt lat="43.13544973424341" lon="11.476462395427209"><ele>140.33333333333331</ele><time>2026-04-11T02:01:54Z</time></trkpt><trkpt lat="43.1354240192168" lon="11.476363947527055"><ele>140.0</ele><time>2026-04-11T02:01:55Z</time></trkpt><trkpt lat="43.135400501295464" lon="11.476262329932108"><ele>139.66666666666666</ele><time>2026-04-11T02:01:56Z</time></trkpt><trkpt lat="43.13537624786571" lon="11.476159483901238"><ele>139.33333333333331</ele><time>2026-04-11T02:01:57Z</time></trkpt><trkpt lat="43.1353460261448" lon="11.47606239938173"><ele>139.0</ele><time>2026-04-11T02:01:58Z</time></trkpt><trkpt lat="43.1353169195472" lon="11.475959186785255"><ele>138.66666666666666</ele><time>2026-04-11T02:01:59Z</time></trkpt><trkpt lat="43.1352894834118" lon="11.475858764460206"><ele>138.33333333333334</ele><time>2026-04-11T02:02:00Z</time></trkpt><trkpt lat="43.13526469828334" lon="11.475757625341705"><ele>138.0</ele><time>2026-04-11T02:02:01Z</time></trkpt><trkpt lat="43.13523945317163" lon="11.475652666084127"><ele>138.0</ele><time>2026-04-11T02:02:02Z</time></trkpt><trkpt lat="43.135213275228274" lon="11.47554706860187"><ele>138.0</ele><time>2026-04-11T02:02:03Z</time></trkpt><trkpt lat="43.135186531557494" lon="11.475443369154215"><ele>138.0</ele><time>2026-04-11T02:02:04Z</time></trkpt><trkpt lat="43.13516034853778" lon="11.475335879514716"><ele>138.0</ele><time>2026-04-11T02:02:05Z</time></trkpt><trkpt lat="43.13513441382606" lon="11.475223115100334"><ele>138.0</ele><time>2026-04-11T02:02:06Z</time></trkpt><trkpt lat="43.135107832595615" lon="11.475116679741028"><ele>138.0</ele><time>2026-04-11T02:02:07Z</time></trkpt><trkpt lat="43.13508627324216" lon="11.475004777010447"><ele>138.0</ele><time>2026-04-11T02:02:08Z</time></trkpt><trkpt lat="43.135067237359436" lon="11.474890189683505"><ele>138.0</ele><time>2026-04-11T02:02:09Z</time></trkpt><trkpt lat="43.13504890952411" lon="11.474776359879474"><ele>138.0</ele><time>2026-04-11T02:02:10Z</time></trkpt><trkpt lat="43.13502821661286" lon="11.474666003863202"><ele>138.0</ele><time>2026-04-11T02:02:11Z</time></trkpt><trkpt lat="43.135007556657435" lon="11.474555151521377"><ele>138.0</ele><time>2026-04-11T02:02:12Z</time></trkpt><trkpt lat="43.13498220488412" lon="11.474448349177027"><ele>138.0</ele><time>2026-04-11T02:02:13Z</time></trkpt><trkpt lat="43.13496146715348" lon="11.47433892141007"><ele>138.0</ele><time>2026-04-11T02:02:14Z</time></trkpt><trkpt lat="43.13493991279683" lon="11.474233651562074"><ele>138.0</ele><time>2026-04-11T02:02:15Z</time></trkpt><trkpt lat="43.134919088403585" lon="11.47412823370654"><ele>138.0</ele><time>2026-04-11T02:02:16Z</time></trkpt><trkpt lat="43.13490089286234" lon="11.474021018191564"><ele>138.0</ele><time>2026-04-11T02:02:17Z</time></trkpt><trkpt lat="43.1348819024271" lon="11.473914963316544"><ele>138.0</ele><time>2026-04-11T02:02:18Z</time></trkpt><trkpt lat="43.13486228484729" lon="11.473812328663485"><ele>138.0</ele><time>2026-04-11T02:02:19Z</time></trkpt><trkpt lat="43.13484575117308" lon="11.473706600711044"><ele>138.0</ele><time>2026-04-11T02:02:20Z</time></trkpt><trkpt lat="43.134827137991444" lon="11.473609321034939"><ele>138.0</ele><time>2026-04-11T02:02:21Z</time></trkpt><trkpt lat="43.13480944686822" lon="11.473501066392545"><ele>138.0</ele><time>2026-04-11T02:02:22Z</time></trkpt><trkpt lat="43.13478544291672" lon="11.473399635399694"><ele>138.0</ele><time>2026-04-11T02:02:23Z</time></trkpt><trkpt lat="43.13476341802895" lon="11.473300715805983"><ele>138.0</ele><time>2026-04-11T02:02:24Z</time></trkpt><trkpt lat="43.13474491544902" lon="11.47319681213955"><ele>138.0</ele><time>2026-04-11T02:02:25Z</time></trkpt><trkpt lat="43.13472854610065" lon="11.473092976605258"><ele>138.0</ele><time>2026-04-11T02:02:26Z</time></trkpt><trkpt lat="43.13470931033313" lon="11.472991858386097"><ele>138.0</ele><time>2026-04-11T02:02:27Z</time></trkpt><trkpt lat="43.13468947128758" lon="11.472891690263765"><ele>138.0</ele><time>2026-04-11T02:02:28Z</time></trkpt><trkpt lat="43.13467055305276" lon="11.472789530321778"><ele>138.0</ele><time>2026-04-11T02:02:29Z</time></trkpt><trkpt lat="43.13465073815438" lon="11.472686417005358"><ele>138.0</ele><time>2026-04-11T02:02:30Z</time></trkpt><trkpt lat="43.13463052377495" lon="11.472580940173769"><ele>138.0</ele><time>2026-04-11T02:02:31Z</time></trkpt><trkpt lat="43.13460882220206" lon="11.472481074446407"><ele>138.0</ele><time>2026-04-11T02:02:32Z</time></trkpt><trkpt lat="43.13458781655284" lon="11.472378126144672"><ele>138.0</ele><time>2026-04-11T02:02:33Z</time></trkpt><trkpt lat="43.13456785500938" lon="11.472275438893348"><ele>138.0</ele><time>2026-04-11T02:02:34Z</time></trkpt><trkpt lat="43.134546929628456" lon="11.47217608264534"><ele>138.0</ele><time>2026-04-11T02:02:35Z</time></trkpt><trkpt lat="43.13452696414765" lon="11.472072793834435"><ele>138.0</ele><time>2026-04-11T02:02:36Z</time></trkpt><trkpt lat="43.134507463868175" lon="11.471970073152335"><ele>138.0</ele><time>2026-04-11T02:02:37Z</time></trkpt><trkpt lat="43.13448509071961" lon="11.471868662816114"><ele>138.0</ele><time>2026-04-11T02:02:38Z</time></trkpt><trkpt lat="43.13446515951411" lon="11.471768573499757"><ele>138.0</ele><time>2026-04-11T02:02:39Z</time></trkpt><trkpt lat="43.13444471567146" lon="11.471669972943447"><ele>138.0</ele><time>2026-04-11T02:02:40Z</time></trkpt><trkpt lat="43.134426766637326" lon="11.47157035088239"><ele>138.0</ele><time>2026-04-11T02:02:41Z</time></trkpt><trkpt lat="43.13440607370129" lon="11.471478586184773"><ele>138.0</ele><time>2026-04-11T02:02:42Z</time></trkpt><trkpt lat="43.1343995353134" lon="11.47138376586662"><ele>138.0</ele><time>2026-04-11T02:02:43Z</time></trkpt><trkpt lat="43.13442164230521" lon="11.471295027716018"><ele>138.0</ele><time>2026-04-11T02:02:44Z</time></trkpt><trkpt lat="43.134563022613804" lon="11.471262720630948"><ele>138.28571428571428</ele><time>2026-04-11T02:02:46Z</time></trkpt><trkpt lat="43.13462447908164" lon="11.471229440916662"><ele>138.57142857142858</ele><time>2026-04-11T02:02:47Z</time></trkpt><trkpt lat="43.13468150835105" lon="11.471177022973128"><ele>138.85714285714286</ele><time>2026-04-11T02:02:48Z</time></trkpt><trkpt lat="43.134741230049094" lon="11.471146230176581"><ele>139.14285714285714</ele><time>2026-04-11T02:02:49Z</time></trkpt><trkpt lat="43.13480660224097" lon="11.4711210133818"><ele>139.42857142857144</ele><time>2026-04-11T02:02:50Z</time></trkpt><trkpt lat="43.13486460899882" lon="11.471076215776415"><ele>139.71428571428572</ele><time>2026-04-11T02:02:51Z</time></trkpt><trkpt lat="43.13493328843169" lon="11.471060615206685"><ele>140.0</ele><time>2026-04-11T02:02:52Z</time></trkpt><trkpt lat="43.13499384167969" lon="11.471026764172327"><ele>140.0</ele><time>2026-04-11T02:02:53Z</time></trkpt><trkpt lat="43.13504910504129" lon="11.470972454034415"><ele>140.0</ele><time>2026-04-11T02:02:54Z</time></trkpt><trkpt lat="43.135113638188244" lon="11.470948145384945"><ele>140.0</ele><time>2026-04-11T02:02:55Z</time></trkpt><trkpt lat="43.13517361016609" lon="11.470912326356295"><ele>140.0</ele><time>2026-04-11T02:02:56Z</time></trkpt><trkpt lat="43.135233600838035" lon="11.470876377663906"><ele>140.0</ele><time>2026-04-11T02:02:57Z</time></trkpt><trkpt lat="43.13529397934726" lon="11.47084466781287"><ele>140.0</ele><time>2026-04-11T02:02:58Z</time></trkpt><trkpt lat="43.13535302399477" lon="11.470811694398979"><ele>140.0</ele><time>2026-04-11T02:02:59Z</time></trkpt><trkpt lat="43.13541275379129" lon="11.470778515916814"><ele>140.0</ele><time>2026-04-11T02:03:00Z</time></trkpt><trkpt lat="43.13547350988202" lon="11.470744443568348"><ele>140.0</ele><time>2026-04-11T02:03:01Z</time></trkpt><trkpt lat="43.13553178272472" lon="11.470710751405454"><ele>140.0</ele><time>2026-04-11T02:03:02Z</time></trkpt><trkpt lat="43.13559082720812" lon="11.470675150379636"><ele>140.0</ele><time>2026-04-11T02:03:03Z</time></trkpt><trkpt lat="43.135707989036234" lon="11.470608348967"><ele>140.0</ele><time>2026-04-11T02:03:05Z</time></trkpt><trkpt lat="43.13576828598498" lon="11.470573500152621"><ele>140.0</ele><time>2026-04-11T02:03:06Z</time></trkpt><trkpt lat="43.135831072506505" lon="11.47053998943145"><ele>140.14285714285714</ele><time>2026-04-11T02:03:07Z</time></trkpt><trkpt lat="43.13589402171997" lon="11.47050204438887"><ele>140.28571428571428</ele><time>2026-04-11T02:03:08Z</time></trkpt><trkpt lat="43.13595887914889" lon="11.470472107336775"><ele>140.42857142857144</ele><time>2026-04-11T02:03:09Z</time></trkpt><trkpt lat="43.13602501632267" lon="11.470433728474179"><ele>140.57142857142856</ele><time>2026-04-11T02:03:10Z</time></trkpt><trkpt lat="43.13609210623384" lon="11.470397529807103"><ele>140.71428571428572</ele><time>2026-04-11T02:03:11Z</time></trkpt><trkpt lat="43.136159839298344" lon="11.47036126822803"><ele>140.85714285714286</ele><time>2026-04-11T02:03:12Z</time></trkpt><trkpt lat="43.13622634968681" lon="11.4703227204764"><ele>141.0</ele><time>2026-04-11T02:03:13Z</time></trkpt><trkpt lat="43.13629323011572" lon="11.470283612172414"><ele>141.0</ele><time>2026-04-11T02:03:14Z</time></trkpt><trkpt lat="43.136355584677624" lon="11.470239284116436"><ele>141.0</ele><time>2026-04-11T02:03:15Z</time></trkpt><trkpt lat="43.13642388220305" lon="11.470201336475212"><ele>141.0</ele><time>2026-04-11T02:03:16Z</time></trkpt><trkpt lat="43.136493194101114" lon="11.4701672830454"><ele>141.0</ele><time>2026-04-11T02:03:17Z</time></trkpt><trkpt lat="43.13655954149363" lon="11.47013718664638"><ele>141.0</ele><time>2026-04-11T02:03:18Z</time></trkpt><trkpt lat="43.13662796819592" lon="11.470098633036386"><ele>141.0</ele><time>2026-04-11T02:03:19Z</time></trkpt><trkpt lat="43.13669402719333" lon="11.470063100924612"><ele>141.0</ele><time>2026-04-11T02:03:20Z</time></trkpt><trkpt lat="43.136759778667354" lon="11.470019258835737"><ele>140.85714285714286</ele><time>2026-04-11T02:03:21Z</time></trkpt><trkpt lat="43.13683134295086" lon="11.46999916118353"><ele>140.71428571428572</ele><time>2026-04-11T02:03:22Z</time></trkpt><trkpt lat="43.13690040898046" lon="11.469960892469313"><ele>140.57142857142856</ele><time>2026-04-11T02:03:23Z</time></trkpt><trkpt lat="43.13696796214734" lon="11.469909296145534"><ele>140.42857142857144</ele><time>2026-04-11T02:03:24Z</time></trkpt><trkpt lat="43.13703603538236" lon="11.469885679525479"><ele>140.28571428571428</ele><time>2026-04-11T02:03:25Z</time></trkpt><trkpt lat="43.13709689855848" lon="11.469827850858854"><ele>140.14285714285714</ele><time>2026-04-11T02:03:26Z</time></trkpt><trkpt lat="43.13717153427043" lon="11.469802881083403"><ele>140.0</ele><time>2026-04-11T02:03:27Z</time></trkpt><trkpt lat="43.13723631370383" lon="11.469757385308903"><ele>140.0</ele><time>2026-04-11T02:03:28Z</time></trkpt><trkpt lat="43.1373005217133" lon="11.469709389545974"><ele>140.0</ele><time>2026-04-11T02:03:29Z</time></trkpt><trkpt lat="43.1373620618863" lon="11.4696595688331"><ele>140.0</ele><time>2026-04-11T02:03:30Z</time></trkpt><trkpt lat="43.13742645325905" lon="11.469615893884267"><ele>140.0</ele><time>2026-04-11T02:03:31Z</time></trkpt><trkpt lat="43.137484791752975" lon="11.469563645169101"><ele>140.0</ele><time>2026-04-11T02:03:32Z</time></trkpt><trkpt lat="43.137540683061964" lon="11.46950578055052"><ele>140.0</ele><time>2026-04-11T02:03:33Z</time></trkpt><trkpt lat="43.137600202199906" lon="11.46945722776445"><ele>140.0</ele><time>2026-04-11T02:03:34Z</time></trkpt><trkpt lat="43.137654216655115" lon="11.469399771023834"><ele>140.14285714285714</ele><time>2026-04-11T02:03:35Z</time></trkpt><trkpt lat="43.13770981357264" lon="11.469351960235688"><ele>140.28571428571428</ele><time>2026-04-11T02:03:36Z</time></trkpt><trkpt lat="43.13776592654907" lon="11.46929469394831"><ele>140.42857142857144</ele><time>2026-04-11T02:03:37Z</time></trkpt><trkpt lat="43.13782253977466" lon="11.469240001675235"><ele>140.57142857142856</ele><time>2026-04-11T02:03:38Z</time></trkpt><trkpt lat="43.13788065281621" lon="11.469184885251835"><ele>140.71428571428572</ele><time>2026-04-11T02:03:39Z</time></trkpt><trkpt lat="43.13793766027803" lon="11.469125515507288"><ele>140.85714285714286</ele><time>2026-04-11T02:03:40Z</time></trkpt><trkpt lat="43.137993550718825" lon="11.46906857170388"><ele>141.0</ele><time>2026-04-11T02:03:41Z</time></trkpt><trkpt lat="43.13804772938846" lon="11.46900705446841"><ele>141.0</ele><time>2026-04-11T02:03:42Z</time></trkpt><trkpt lat="43.13810440731271" lon="11.468949300138119"><ele>141.0</ele><time>2026-04-11T02:03:43Z</time></trkpt><trkpt lat="43.13816110326416" lon="11.468890269566916"><ele>141.0</ele><time>2026-04-11T02:03:44Z</time></trkpt><trkpt lat="43.138219085325794" lon="11.468830252754257"><ele>141.0</ele><time>2026-04-11T02:03:45Z</time></trkpt><trkpt lat="43.13827849222286" lon="11.468777891549454"><ele>141.0</ele><time>2026-04-11T02:03:46Z</time></trkpt><trkpt lat="43.1383340464795" lon="11.46871597207549"><ele>141.0</ele><time>2026-04-11T02:03:47Z</time></trkpt><trkpt lat="43.13839208203521" lon="11.468659155328282"><ele>141.0</ele><time>2026-04-11T02:03:48Z</time></trkpt><trkpt lat="43.138442487090494" lon="11.468589442639065"><ele>140.85714285714286</ele><time>2026-04-11T02:03:49Z</time></trkpt><trkpt lat="43.13850630114825" lon="11.468535589516158"><ele>140.71428571428572</ele><time>2026-04-11T02:03:50Z</time></trkpt><trkpt lat="43.13856270014205" lon="11.468473506057254"><ele>140.57142857142856</ele><time>2026-04-11T02:03:51Z</time></trkpt><trkpt lat="43.138620759915334" lon="11.468410882732053"><ele>140.42857142857144</ele><time>2026-04-11T02:03:52Z</time></trkpt><trkpt lat="43.1386790928165" lon="11.468347166376399"><ele>140.28571428571428</ele><time>2026-04-11T02:03:53Z</time></trkpt><trkpt lat="43.13874161084849" lon="11.468291552344951"><ele>140.14285714285714</ele><time>2026-04-11T02:03:54Z</time></trkpt><trkpt lat="43.13879687241602" lon="11.468222109043587"><ele>140.0</ele><time>2026-04-11T02:03:55Z</time></trkpt><trkpt lat="43.13885746378639" lon="11.468161709869813"><ele>140.0</ele><time>2026-04-11T02:03:56Z</time></trkpt><trkpt lat="43.138914037805456" lon="11.468095318743412"><ele>140.0</ele><time>2026-04-11T02:03:57Z</time></trkpt><trkpt lat="43.13897316828049" lon="11.46803177003825"><ele>140.0</ele><time>2026-04-11T02:03:58Z</time></trkpt><trkpt lat="43.13903023263447" lon="11.467970987935777"><ele>140.0</ele><time>2026-04-11T02:03:59Z</time></trkpt><trkpt lat="43.13908910613285" lon="11.46791277528153"><ele>140.0</ele><time>2026-04-11T02:04:00Z</time></trkpt><trkpt lat="43.139146177432885" lon="11.467852614233747"><ele>140.0</ele><time>2026-04-11T02:04:01Z</time></trkpt><trkpt lat="43.139207050297834" lon="11.467795978376367"><ele>140.0</ele><time>2026-04-11T02:04:02Z</time></trkpt><trkpt lat="43.139262027157514" lon="11.467730889864786"><ele>140.28571428571428</ele><time>2026-04-11T02:04:03Z</time></trkpt><trkpt lat="43.13931812177816" lon="11.467671844254863"><ele>140.57142857142856</ele><time>2026-04-11T02:04:04Z</time></trkpt><trkpt lat="43.139373979951735" lon="11.467612340584829"><ele>140.85714285714286</ele><time>2026-04-11T02:04:05Z</time></trkpt><trkpt lat="43.1394311850432" lon="11.467555003816303"><ele>141.14285714285714</ele><time>2026-04-11T02:04:06Z</time></trkpt><trkpt lat="43.139485824434125" lon="11.467494923328998"><ele>141.42857142857142</ele><time>2026-04-11T02:04:07Z</time></trkpt><trkpt lat="43.139543450678964" lon="11.467443208037878"><ele>141.71428571428572</ele><time>2026-04-11T02:04:08Z</time></trkpt><trkpt lat="43.13959921370773" lon="11.467383311504122"><ele>142.0</ele><time>2026-04-11T02:04:09Z</time></trkpt><trkpt lat="43.139652053340114" lon="11.467322244447471"><ele>142.0</ele><time>2026-04-11T02:04:10Z</time></trkpt><trkpt lat="43.13971017166404" lon="11.46726398684523"><ele>142.0</ele><time>2026-04-11T02:04:11Z</time></trkpt><trkpt lat="43.13976517230622" lon="11.467205093493597"><ele>142.0</ele><time>2026-04-11T02:04:12Z</time></trkpt><trkpt lat="43.139821883670336" lon="11.467148087132339"><ele>142.0</ele><time>2026-04-11T02:04:13Z</time></trkpt><trkpt lat="43.13987718732644" lon="11.467087774239129"><ele>142.0</ele><time>2026-04-11T02:04:14Z</time></trkpt><trkpt lat="43.13993343104474" lon="11.467029558026995"><ele>142.0</ele><time>2026-04-11T02:04:15Z</time></trkpt><trkpt lat="43.13998709790096" lon="11.466970414461352"><ele>142.0</ele><time>2026-04-11T02:04:16Z</time></trkpt><trkpt lat="43.14004410265721" lon="11.466913208798987"><ele>142.28571428571428</ele><time>2026-04-11T02:04:17Z</time></trkpt><trkpt lat="43.14010224286969" lon="11.466857752783172"><ele>142.57142857142856</ele><time>2026-04-11T02:04:18Z</time></trkpt><trkpt lat="43.140155871975146" lon="11.466795144275151"><ele>142.85714285714286</ele><time>2026-04-11T02:04:19Z</time></trkpt><trkpt lat="43.140209123184846" lon="11.466734561906494"><ele>143.14285714285714</ele><time>2026-04-11T02:04:20Z</time></trkpt><trkpt lat="43.140264044425074" lon="11.466676003544714"><ele>143.42857142857144</ele><time>2026-04-11T02:04:21Z</time></trkpt><trkpt lat="43.140320371145826" lon="11.466616038981734"><ele>143.71428571428572</ele><time>2026-04-11T02:04:22Z</time></trkpt><trkpt lat="43.14037478582412" lon="11.466558955798366"><ele>144.0</ele><time>2026-04-11T02:04:23Z</time></trkpt><trkpt lat="43.14043053978123" lon="11.466500394046653"><ele>144.00000000000003</ele><time>2026-04-11T02:04:24Z</time></trkpt><trkpt lat="43.14048704534692" lon="11.466442024380965"><ele>144.0</ele><time>2026-04-11T02:04:25Z</time></trkpt><trkpt lat="43.14054402818838" lon="11.46638133622102"><ele>144.0</ele><time>2026-04-11T02:04:26Z</time></trkpt><trkpt lat="43.14060149894751" lon="11.466321267979154"><ele>144.0</ele><time>2026-04-11T02:04:27Z</time></trkpt><trkpt lat="43.140660793794666" lon="11.466266194187941"><ele>144.0</ele><time>2026-04-11T02:04:28Z</time></trkpt><trkpt lat="43.14071568278245" lon="11.46619961685451"><ele>144.00000000000003</ele><time>2026-04-11T02:04:29Z</time></trkpt><trkpt lat="43.14077467046115" lon="11.466141499178788"><ele>144.0</ele><time>2026-04-11T02:04:30Z</time></trkpt><trkpt lat="43.140834492336445" lon="11.466086311085087"><ele>143.85714285714286</ele><time>2026-04-11T02:04:31Z</time></trkpt><trkpt lat="43.14088840232498" lon="11.466022695726798"><ele>143.71428571428572</ele><time>2026-04-11T02:04:32Z</time></trkpt><trkpt lat="43.1409451661958" lon="11.465964821026791"><ele>143.57142857142856</ele><time>2026-04-11T02:04:33Z</time></trkpt><trkpt lat="43.14099984382721" lon="11.465903890714062"><ele>143.42857142857144</ele><time>2026-04-11T02:04:34Z</time></trkpt><trkpt lat="43.14105486937871" lon="11.465842930149694"><ele>143.28571428571428</ele><time>2026-04-11T02:04:35Z</time></trkpt><trkpt lat="43.14111269811707" lon="11.46578567210187"><ele>143.14285714285714</ele><time>2026-04-11T02:04:36Z</time></trkpt><trkpt lat="43.141171732436504" lon="11.465725852103578"><ele>143.0</ele><time>2026-04-11T02:04:37Z</time></trkpt><trkpt lat="43.141229221962675" lon="11.465668772580939"><ele>142.99999999999997</ele><time>2026-04-11T02:04:38Z</time></trkpt><trkpt lat="43.14128613468294" lon="11.465607441311851"><ele>143.0</ele><time>2026-04-11T02:04:39Z</time></trkpt><trkpt lat="43.141346143557" lon="11.465547802738792"><ele>143.0</ele><time>2026-04-11T02:04:40Z</time></trkpt><trkpt lat="43.14140141318328" lon="11.465488476757166"><ele>143.0</ele><time>2026-04-11T02:04:41Z</time></trkpt><trkpt lat="43.141459529575926" lon="11.465428238896274"><ele>143.0</ele><time>2026-04-11T02:04:42Z</time></trkpt><trkpt lat="43.1415178479481" lon="11.465365433477864"><ele>142.99999999999997</ele><time>2026-04-11T02:04:43Z</time></trkpt><trkpt lat="43.1415762278322" lon="11.465304693698315"><ele>143.0</ele><time>2026-04-11T02:04:44Z</time></trkpt><trkpt lat="43.141639436213104" lon="11.465258103968765"><ele>143.28571428571428</ele><time>2026-04-11T02:04:45Z</time></trkpt><trkpt lat="43.141688452421896" lon="11.465182474475212"><ele>143.57142857142856</ele><time>2026-04-11T02:04:46Z</time></trkpt><trkpt lat="43.14174756830855" lon="11.46512665448584"><ele>143.85714285714286</ele><time>2026-04-11T02:04:47Z</time></trkpt><trkpt lat="43.141804671007364" lon="11.465064536250125"><ele>144.14285714285714</ele><time>2026-04-11T02:04:48Z</time></trkpt><trkpt lat="43.14186167636892" lon="11.464999131734439"><ele>144.42857142857144</ele><time>2026-04-11T02:04:49Z</time></trkpt><trkpt lat="43.14192039509745" lon="11.464940835809571"><ele>144.71428571428572</ele><time>2026-04-11T02:04:50Z</time></trkpt><trkpt lat="43.14198129139985" lon="11.46488391503653"><ele>145.0</ele><time>2026-04-11T02:04:51Z</time></trkpt><trkpt lat="43.142036626939316" lon="11.464822100296363"><ele>145.0</ele><time>2026-04-11T02:04:52Z</time></trkpt><trkpt lat="43.14209632539948" lon="11.46476694475595"><ele>145.0</ele><time>2026-04-11T02:04:53Z</time></trkpt><trkpt lat="43.14215306065635" lon="11.464705367045552"><ele>145.0</ele><time>2026-04-11T02:04:54Z</time></trkpt><trkpt lat="43.14221276521071" lon="11.464649135546376"><ele>145.0</ele><time>2026-04-11T02:04:55Z</time></trkpt><trkpt lat="43.14226854998216" lon="11.464591097376184"><ele>145.0</ele><time>2026-04-11T02:04:56Z</time></trkpt><trkpt lat="43.14232444773441" lon="11.464530130274563"><ele>145.0</ele><time>2026-04-11T02:04:57Z</time></trkpt><trkpt lat="43.142382606069084" lon="11.464471249581887"><ele>145.0</ele><time>2026-04-11T02:04:58Z</time></trkpt><trkpt lat="43.14243630788034" lon="11.464409959149627"><ele>145.14285714285714</ele><time>2026-04-11T02:04:59Z</time></trkpt><trkpt lat="43.14249972502243" lon="11.464363217027346"><ele>145.2857142857143</ele><time>2026-04-11T02:05:00Z</time></trkpt><trkpt lat="43.14255206511766" lon="11.464299176006719"><ele>145.42857142857144</ele><time>2026-04-11T02:05:01Z</time></trkpt><trkpt lat="43.14260269576458" lon="11.46422565208381"><ele>145.57142857142858</ele><time>2026-04-11T02:05:02Z</time></trkpt><trkpt lat="43.14263973459479" lon="11.464138840403006"><ele>145.71428571428572</ele><time>2026-04-11T02:05:03Z</time></trkpt><trkpt lat="43.14268182770227" lon="11.464059714480847"><ele>145.85714285714286</ele><time>2026-04-11T02:05:04Z</time></trkpt><trkpt lat="43.1427223589983" lon="11.463976723835602"><ele>146.0</ele><time>2026-04-11T02:05:05Z</time></trkpt><trkpt lat="43.14276338246321" lon="11.46389184821224"><ele>146.0</ele><time>2026-04-11T02:05:06Z</time></trkpt><trkpt lat="43.14280134513938" lon="11.463809008221807"><ele>146.0</ele><time>2026-04-11T02:05:07Z</time></trkpt><trkpt lat="43.14283645536218" lon="11.463725246318056"><ele>146.0</ele><time>2026-04-11T02:05:08Z</time></trkpt><trkpt lat="43.142872848997015" lon="11.463641441145013"><ele>146.0</ele><time>2026-04-11T02:05:09Z</time></trkpt><trkpt lat="43.142905383882365" lon="11.463558123074781"><ele>146.0</ele><time>2026-04-11T02:05:10Z</time></trkpt><trkpt lat="43.142940004887514" lon="11.463474499484255"><ele>146.0</ele><time>2026-04-11T02:05:11Z</time></trkpt><trkpt lat="43.14297436482631" lon="11.463397128719642"><ele>146.0</ele><time>2026-04-11T02:05:12Z</time></trkpt><trkpt lat="43.14301258275268" lon="11.463317778406429"><ele>146.14285714285714</ele><time>2026-04-11T02:05:13Z</time></trkpt><trkpt lat="43.1430423449599" lon="11.463236494023107"><ele>146.28571428571428</ele><time>2026-04-11T02:05:14Z</time></trkpt><trkpt lat="43.14307355212747" lon="11.463157709505852"><ele>146.42857142857144</ele><time>2026-04-11T02:05:15Z</time></trkpt><trkpt lat="43.14311611524801" lon="11.463088781722842"><ele>146.57142857142856</ele><time>2026-04-11T02:05:16Z</time></trkpt><trkpt lat="43.14314788887092" lon="11.463011626491419"><ele>146.71428571428572</ele><time>2026-04-11T02:05:17Z</time></trkpt><trkpt lat="43.143178904311235" lon="11.462936312332548"><ele>146.85714285714286</ele><time>2026-04-11T02:05:18Z</time></trkpt><trkpt lat="43.14321034913357" lon="11.462859955496043"><ele>147.0</ele><time>2026-04-11T02:05:19Z</time></trkpt><trkpt lat="43.14327179659743" lon="11.462708251443072"><ele>148.25</ele><time>2026-04-11T02:05:21Z</time></trkpt><trkpt lat="43.14333104824022" lon="11.462560655553162"><ele>149.5</ele><time>2026-04-11T02:05:23Z</time></trkpt><trkpt lat="43.14338983852863" lon="11.462415860044818"><ele>150.75</ele><time>2026-04-11T02:05:25Z</time></trkpt><trkpt lat="43.14345267985838" lon="11.462272781838305"><ele>152.0</ele><time>2026-04-11T02:05:27Z</time></trkpt><trkpt lat="43.14351952155884" lon="11.462138504258185"><ele>151.6</ele><time>2026-04-11T02:05:29Z</time></trkpt><trkpt lat="43.14358279075731" lon="11.462001670123325"><ele>151.2</ele><time>2026-04-11T02:05:31Z</time></trkpt><trkpt lat="43.14367460650326" lon="11.461917053283667"><ele>150.8</ele><time>2026-04-11T02:05:33Z</time></trkpt><trkpt lat="43.14376414472772" lon="11.461827506345042"><ele>150.4</ele><time>2026-04-11T02:05:35Z</time></trkpt><trkpt lat="43.14385562316912" lon="11.461746990948992"><ele>150.0</ele><time>2026-04-11T02:05:37Z</time></trkpt><trkpt lat="43.14394129807111" lon="11.461658720000091"><ele>150.0</ele><time>2026-04-11T02:05:39Z</time></trkpt><trkpt lat="43.14403506965835" lon="11.461593143067722"><ele>150.0</ele><time>2026-04-11T02:05:41Z</time></trkpt><trkpt lat="43.144132677952555" lon="11.461556055499553"><ele>150.0</ele><time>2026-04-11T02:05:43Z</time></trkpt><trkpt lat="43.144221482473434" lon="11.46148696799691"><ele>150.0</ele><time>2026-04-11T02:05:45Z</time></trkpt><trkpt lat="43.14431391487352" lon="11.461444202390172"><ele>150.0</ele><time>2026-04-11T02:05:47Z</time></trkpt><trkpt lat="43.14440066927744" lon="11.461396074252502"><ele>151.2</ele><time>2026-04-11T02:05:49Z</time></trkpt><trkpt lat="43.144485530032675" lon="11.46135030783827"><ele>152.4</ele><time>2026-04-11T02:05:51Z</time></trkpt><trkpt lat="43.14457427898465" lon="11.461303710265833"><ele>153.6</ele><time>2026-04-11T02:05:53Z</time></trkpt><trkpt lat="43.14466405831521" lon="11.461268257935043"><ele>154.8</ele><time>2026-04-11T02:05:55Z</time></trkpt><trkpt lat="43.144749576293485" lon="11.461235805458442"><ele>156.0</ele><time>2026-04-11T02:05:57Z</time></trkpt><trkpt lat="43.144830609922344" lon="11.461198898580943"><ele>157.0</ele><time>2026-04-11T02:05:59Z</time></trkpt><trkpt lat="43.14491066837966" lon="11.461150585704928"><ele>158.0</ele><time>2026-04-11T02:06:01Z</time></trkpt><trkpt lat="43.144983769238" lon="11.461090307640996"><ele>159.0</ele><time>2026-04-11T02:06:03Z</time></trkpt><trkpt lat="43.14506091614086" lon="11.461041054231865"><ele>160.0</ele><time>2026-04-11T02:06:05Z</time></trkpt><trkpt lat="43.14513750513141" lon="11.460976365481445"><ele>161.0</ele><time>2026-04-11T02:06:07Z</time></trkpt><trkpt lat="43.14521868379845" lon="11.46090280064469"><ele>162.0</ele><time>2026-04-11T02:06:09Z</time></trkpt><trkpt lat="43.145299062642216" lon="11.460857698491068"><ele>162.0</ele><time>2026-04-11T02:06:11Z</time></trkpt><trkpt lat="43.145393533453976" lon="11.460813430975548"><ele>162.0</ele><time>2026-04-11T02:06:13Z</time></trkpt><trkpt lat="43.145499837155405" lon="11.460802831517995"><ele>162.0</ele><time>2026-04-11T02:06:15Z</time></trkpt><trkpt lat="43.14560364308177" lon="11.46083443296418"><ele>162.0</ele><time>2026-04-11T02:06:17Z</time></trkpt><trkpt lat="43.145719310029484" lon="11.460804916337606"><ele>162.0</ele><time>2026-04-11T02:06:19Z</time></trkpt><trkpt lat="43.14583166253331" lon="11.46077250133215"><ele>162.16666666666666</ele><time>2026-04-11T02:06:21Z</time></trkpt><trkpt lat="43.14589794522888" lon="11.460729110278487"><ele>162.33333333333334</ele><time>2026-04-11T02:06:22Z</time></trkpt><trkpt lat="43.14601743485153" lon="11.460700064716846"><ele>162.5</ele><time>2026-04-11T02:06:24Z</time></trkpt><trkpt lat="43.146081647668794" lon="11.460673571543058"><ele>162.66666666666669</ele><time>2026-04-11T02:06:25Z</time></trkpt><trkpt lat="43.14615053315387" lon="11.460659304125903"><ele>162.83333333333334</ele><time>2026-04-11T02:06:26Z</time></trkpt><trkpt lat="43.14621720944172" lon="11.460643638937672"><ele>163.0</ele><time>2026-04-11T02:06:27Z</time></trkpt><trkpt lat="43.14628569236346" lon="11.460613456905591"><ele>163.0</ele><time>2026-04-11T02:06:28Z</time></trkpt><trkpt lat="43.14635148365113" lon="11.460597182860491"><ele>163.0</ele><time>2026-04-11T02:06:29Z</time></trkpt><trkpt lat="43.14642392002795" lon="11.460577444916005"><ele>163.0</ele><time>2026-04-11T02:06:30Z</time></trkpt><trkpt lat="43.14649375471744" lon="11.460549592019921"><ele>163.0</ele><time>2026-04-11T02:06:31Z</time></trkpt><trkpt lat="43.14656614084076" lon="11.460526929774442"><ele>163.0</ele><time>2026-04-11T02:06:32Z</time></trkpt><trkpt lat="43.14663611557768" lon="11.46049857973725"><ele>163.0</ele><time>2026-04-11T02:06:33Z</time></trkpt><trkpt lat="43.146709522843224" lon="11.460476191944908"><ele>163.0</ele><time>2026-04-11T02:06:34Z</time></trkpt><trkpt lat="43.14678382514923" lon="11.460447529442382"><ele>162.5</ele><time>2026-04-11T02:06:35Z</time></trkpt><trkpt lat="43.14686090453829" lon="11.460429992652934"><ele>162.0</ele><time>2026-04-11T02:06:36Z</time></trkpt><trkpt lat="43.146942133066915" lon="11.460409543268952"><ele>161.5</ele><time>2026-04-11T02:06:37Z</time></trkpt><trkpt lat="43.147021127774025" lon="11.460375368826"><ele>161.0</ele><time>2026-04-11T02:06:38Z</time></trkpt><trkpt lat="43.1471053386227" lon="11.460355062295742"><ele>160.5</ele><time>2026-04-11T02:06:39Z</time></trkpt><trkpt lat="43.14719051048768" lon="11.460329068808445"><ele>160.0</ele><time>2026-04-11T02:06:40Z</time></trkpt><trkpt lat="43.147277452559194" lon="11.460307952896022"><ele>160.0</ele><time>2026-04-11T02:06:41Z</time></trkpt><trkpt lat="43.14736902238742" lon="11.460288082877234"><ele>160.0</ele><time>2026-04-11T02:06:42Z</time></trkpt><trkpt lat="43.14745985703833" lon="11.46026687328337"><ele>160.0</ele><time>2026-04-11T02:06:43Z</time></trkpt><trkpt lat="43.147555294323226" lon="11.460256461281475"><ele>160.0</ele><time>2026-04-11T02:06:44Z</time></trkpt><trkpt lat="43.147653024610555" lon="11.460255757575101"><ele>160.0</ele><time>2026-04-11T02:06:45Z</time></trkpt><trkpt lat="43.14774663282171" lon="11.460254022263497"><ele>158.8</ele><time>2026-04-11T02:06:46Z</time></trkpt><trkpt lat="43.147847346387856" lon="11.460247231892478"><ele>157.6</ele><time>2026-04-11T02:06:47Z</time></trkpt><trkpt lat="43.14794337144025" lon="11.460287147549776"><ele>156.4</ele><time>2026-04-11T02:06:48Z</time></trkpt><trkpt lat="43.148036746111494" lon="11.460322804912721"><ele>155.2</ele><time>2026-04-11T02:06:49Z</time></trkpt><trkpt lat="43.14813131202314" lon="11.460365164685609"><ele>154.0</ele><time>2026-04-11T02:06:50Z</time></trkpt><trkpt lat="43.14821250199074" lon="11.460431380564549"><ele>153.6</ele><time>2026-04-11T02:06:51Z</time></trkpt><trkpt lat="43.14830170186862" lon="11.460505384160792"><ele>153.2</ele><time>2026-04-11T02:06:52Z</time></trkpt><trkpt lat="43.148386246056255" lon="11.460577887729391"><ele>152.79999999999998</ele><time>2026-04-11T02:06:53Z</time></trkpt><trkpt lat="43.148448406076845" lon="11.460676678663631"><ele>152.4</ele><time>2026-04-11T02:06:54Z</time></trkpt><trkpt lat="43.14850878913104" lon="11.460790162255739"><ele>152.0</ele><time>2026-04-11T02:06:55Z</time></trkpt><trkpt lat="43.1485530472653" lon="11.460922515682222"><ele>152.0</ele><time>2026-04-11T02:06:56Z</time></trkpt><trkpt lat="43.148614481940236" lon="11.461033014140547"><ele>152.0</ele><time>2026-04-11T02:06:57Z</time></trkpt><trkpt lat="43.14866188250932" lon="11.46116398357518"><ele>152.0</ele><time>2026-04-11T02:06:58Z</time></trkpt><trkpt lat="43.14871718728002" lon="11.461287988807742"><ele>152.0</ele><time>2026-04-11T02:06:59Z</time></trkpt><trkpt lat="43.148765800692836" lon="11.461418011040395"><ele>152.0</ele><time>2026-04-11T02:07:00Z</time></trkpt><trkpt lat="43.14882138104866" lon="11.461541436270883"><ele>151.6</ele><time>2026-04-11T02:07:01Z</time></trkpt><trkpt lat="43.14887433243144" lon="11.461668102680779"><ele>151.2</ele><time>2026-04-11T02:07:02Z</time></trkpt><trkpt lat="43.1489213143924" lon="11.46179407921288"><ele>150.8</ele><time>2026-04-11T02:07:03Z</time></trkpt><trkpt lat="43.14897175190264" lon="11.461918281156867"><ele>150.4</ele><time>2026-04-11T02:07:04Z</time></trkpt><trkpt lat="43.14902908614721" lon="11.462034756432004"><ele>150.0</ele><time>2026-04-11T02:07:05Z</time></trkpt><trkpt lat="43.14906708350629" lon="11.462165698350882"><ele>148.6</ele><time>2026-04-11T02:07:06Z</time></trkpt><trkpt lat="43.149118749777315" lon="11.462282671667523"><ele>147.2</ele><time>2026-04-11T02:07:07Z</time></trkpt><trkpt lat="43.149171315347836" lon="11.462399837681946"><ele>145.8</ele><time>2026-04-11T02:07:08Z</time></trkpt><trkpt lat="43.14922092551007" lon="11.462506868753682"><ele>144.4</ele><time>2026-04-11T02:07:09Z</time></trkpt><trkpt lat="43.14927808563952" lon="11.462615774289041"><ele>143.0</ele><time>2026-04-11T02:07:10Z</time></trkpt><trkpt lat="43.14933750249866" lon="11.462718391455095"><ele>143.0</ele><time>2026-04-11T02:07:11Z</time></trkpt><trkpt lat="43.149413991938104" lon="11.462801406120242"><ele>143.0</ele><time>2026-04-11T02:07:12Z</time></trkpt><trkpt lat="43.14947187645073" lon="11.462910251421366"><ele>143.0</ele><time>2026-04-11T02:07:13Z</time></trkpt><trkpt lat="43.14954643420011" lon="11.46299364998437"><ele>143.0</ele><time>2026-04-11T02:07:14Z</time></trkpt><trkpt lat="43.149635940208725" lon="11.463048796170494"><ele>143.0</ele><time>2026-04-11T02:07:15Z</time></trkpt><trkpt lat="43.14971699673237" lon="11.463122366236336"><ele>143.20000000000002</ele><time>2026-04-11T02:07:16Z</time></trkpt><trkpt lat="43.14980885908643" lon="11.463154257110475"><ele>143.4</ele><time>2026-04-11T02:07:17Z</time></trkpt><trkpt lat="43.149908798600976" lon="11.463151309774368"><ele>143.60000000000002</ele><time>2026-04-11T02:07:18Z</time></trkpt><trkpt lat="43.15000291218383" lon="11.463122844477912"><ele>143.8</ele><time>2026-04-11T02:07:19Z</time></trkpt><trkpt lat="43.15008953831422" lon="11.463080638544053"><ele>144.0</ele><time>2026-04-11T02:07:20Z</time></trkpt><trkpt lat="43.150170248255094" lon="11.46303853894343"><ele>144.0</ele><time>2026-04-11T02:07:21Z</time></trkpt><trkpt lat="43.15024825479676" lon="11.46299548809361"><ele>144.0</ele><time>2026-04-11T02:07:22Z</time></trkpt><trkpt lat="43.15032579732838" lon="11.462952629622277"><ele>144.0</ele><time>2026-04-11T02:07:23Z</time></trkpt><trkpt lat="43.150397417316185" lon="11.462898531623793"><ele>144.0</ele><time>2026-04-11T02:07:24Z</time></trkpt><trkpt lat="43.150474427445204" lon="11.462855382337331"><ele>144.0</ele><time>2026-04-11T02:07:25Z</time></trkpt><trkpt lat="43.15055188629158" lon="11.462812191828329"><ele>144.0</ele><time>2026-04-11T02:07:26Z</time></trkpt><trkpt lat="43.15062522354778" lon="11.46276739333075"><ele>144.0</ele><time>2026-04-11T02:07:27Z</time></trkpt><trkpt lat="43.15070700241055" lon="11.462731073067712"><ele>144.0</ele><time>2026-04-11T02:07:28Z</time></trkpt><trkpt lat="43.15077651662368" lon="11.462684267241771"><ele>144.0</ele><time>2026-04-11T02:07:29Z</time></trkpt><trkpt lat="43.150852042154334" lon="11.4626484524916"><ele>144.0</ele><time>2026-04-11T02:07:30Z</time></trkpt><trkpt lat="43.1509224448432" lon="11.46260549810783"><ele>144.0</ele><time>2026-04-11T02:07:31Z</time></trkpt><trkpt lat="43.15099233565688" lon="11.462566332534083"><ele>144.0</ele><time>2026-04-11T02:07:32Z</time></trkpt><trkpt lat="43.15106347126367" lon="11.462529587434013"><ele>144.0</ele><time>2026-04-11T02:07:33Z</time></trkpt><trkpt lat="43.151132013509375" lon="11.462487467708664"><ele>144.0</ele><time>2026-04-11T02:07:34Z</time></trkpt><trkpt lat="43.15120450470307" lon="11.462452810960931"><ele>144.0</ele><time>2026-04-11T02:07:35Z</time></trkpt><trkpt lat="43.15127367728839" lon="11.462407707678643"><ele>144.0</ele><time>2026-04-11T02:07:36Z</time></trkpt><trkpt lat="43.151345135592216" lon="11.462371950409711"><ele>144.0</ele><time>2026-04-11T02:07:37Z</time></trkpt><trkpt lat="43.15141588244512" lon="11.46233497646812"><ele>144.0</ele><time>2026-04-11T02:07:38Z</time></trkpt><trkpt lat="43.151485963046206" lon="11.462300888084675"><ele>144.16666666666666</ele><time>2026-04-11T02:07:39Z</time></trkpt><trkpt lat="43.15155745281222" lon="11.462265133861981"><ele>144.33333333333334</ele><time>2026-04-11T02:07:40Z</time></trkpt><trkpt lat="43.151626427248615" lon="11.462227739640724"><ele>144.5</ele><time>2026-04-11T02:07:41Z</time></trkpt><trkpt lat="43.151697409255156" lon="11.462189869550755"><ele>144.66666666666669</ele><time>2026-04-11T02:07:42Z</time></trkpt><trkpt lat="43.151765556844396" lon="11.46215472419553"><ele>144.83333333333334</ele><time>2026-04-11T02:07:43Z</time></trkpt><trkpt lat="43.15183538598773" lon="11.46211434233013"><ele>145.0</ele><time>2026-04-11T02:07:44Z</time></trkpt><trkpt lat="43.151907654376146" lon="11.462079795695107"><ele>144.66666666666669</ele><time>2026-04-11T02:07:45Z</time></trkpt><trkpt lat="43.151976798281105" lon="11.462039685281656"><ele>144.33333333333334</ele><time>2026-04-11T02:07:46Z</time></trkpt><trkpt lat="43.15204843454284" lon="11.461999594376287"><ele>144.0</ele><time>2026-04-11T02:07:47Z</time></trkpt><trkpt lat="43.15211821651119" lon="11.461959949104834"><ele>143.66666666666666</ele><time>2026-04-11T02:07:48Z</time></trkpt><trkpt lat="43.15219087320286" lon="11.461922979601926"><ele>143.33333333333331</ele><time>2026-04-11T02:07:49Z</time></trkpt><trkpt lat="43.15226223964591" lon="11.461885226985716"><ele>143.0</ele><time>2026-04-11T02:07:50Z</time></trkpt><trkpt lat="43.15233460157784" lon="11.461853458588765"><ele>143.33333333333331</ele><time>2026-04-11T02:07:51Z</time></trkpt><trkpt lat="43.152405660534335" lon="11.461813183445196"><ele>143.66666666666666</ele><time>2026-04-11T02:07:52Z</time></trkpt><trkpt lat="43.1524775053306" lon="11.461775537697845"><ele>144.0</ele><time>2026-04-11T02:07:53Z</time></trkpt><trkpt lat="43.15254873593116" lon="11.461739185627952"><ele>144.33333333333334</ele><time>2026-04-11T02:07:54Z</time></trkpt><trkpt lat="43.152619381462785" lon="11.461700141116308"><ele>144.66666666666669</ele><time>2026-04-11T02:07:55Z</time></trkpt><trkpt lat="43.15269197251115" lon="11.461666575876343"><ele>145.0</ele><time>2026-04-11T02:07:56Z</time></trkpt><trkpt lat="43.152762842102526" lon="11.461623874461605"><ele>145.0</ele><time>2026-04-11T02:07:57Z</time></trkpt><trkpt lat="43.15283394292144" lon="11.461590884596704"><ele>145.0</ele><time>2026-04-11T02:07:58Z</time></trkpt><trkpt lat="43.15290585557943" lon="11.461554184543655"><ele>145.0</ele><time>2026-04-11T02:07:59Z</time></trkpt><trkpt lat="43.152975208967106" lon="11.461517085303393"><ele>145.0</ele><time>2026-04-11T02:08:00Z</time></trkpt><trkpt lat="43.153042095874675" lon="11.461478156171415"><ele>145.0</ele><time>2026-04-11T02:08:01Z</time></trkpt><trkpt lat="43.153113979458624" lon="11.461444082511239"><ele>145.0</ele><time>2026-04-11T02:08:02Z</time></trkpt><trkpt lat="43.15318451150889" lon="11.461404901081117"><ele>144.85714285714286</ele><time>2026-04-11T02:08:03Z</time></trkpt><trkpt lat="43.153255557621385" lon="11.461368559598794"><ele>144.71428571428572</ele><time>2026-04-11T02:08:04Z</time></trkpt><trkpt lat="43.15332756165001" lon="11.461330208953077"><ele>144.57142857142858</ele><time>2026-04-11T02:08:05Z</time></trkpt><trkpt lat="43.153396114300016" lon="11.461293097647152"><ele>144.42857142857144</ele><time>2026-04-11T02:08:06Z</time></trkpt><trkpt lat="43.1534662030667" lon="11.461262988149521"><ele>144.28571428571428</ele><time>2026-04-11T02:08:07Z</time></trkpt><trkpt lat="43.153534599971024" lon="11.461222226762343"><ele>144.14285714285717</ele><time>2026-04-11T02:08:08Z</time></trkpt><trkpt lat="43.15360345977268" lon="11.46118277281083"><ele>144.0</ele><time>2026-04-11T02:08:09Z</time></trkpt><trkpt lat="43.15367312943037" lon="11.461147180261896"><ele>144.2857142857143</ele><time>2026-04-11T02:08:10Z</time></trkpt><trkpt lat="43.1537407774304" lon="11.461110923830311"><ele>144.57142857142858</ele><time>2026-04-11T02:08:11Z</time></trkpt><trkpt lat="43.15381279492141" lon="11.461083673288426"><ele>144.85714285714286</ele><time>2026-04-11T02:08:12Z</time></trkpt><trkpt lat="43.15387831146673" lon="11.461041940749134"><ele>145.14285714285717</ele><time>2026-04-11T02:08:13Z</time></trkpt><trkpt lat="43.15394726243996" lon="11.461008578998213"><ele>145.42857142857144</ele><time>2026-04-11T02:08:14Z</time></trkpt><trkpt lat="43.15401482078171" lon="11.460968519686658"><ele>145.71428571428572</ele><time>2026-04-11T02:08:15Z</time></trkpt><trkpt lat="43.15408231390712" lon="11.460932940433704"><ele>146.0</ele><time>2026-04-11T02:08:16Z</time></trkpt><trkpt lat="43.15414998562597" lon="11.46089595449445"><ele>146.0</ele><time>2026-04-11T02:08:17Z</time></trkpt><trkpt lat="43.15421980682086" lon="11.460863987025494"><ele>146.0</ele><time>2026-04-11T02:08:18Z</time></trkpt><trkpt lat="43.1542871069581" lon="11.46083194449766"><ele>146.0</ele><time>2026-04-11T02:08:19Z</time></trkpt><trkpt lat="43.15435726160456" lon="11.460790943896228"><ele>146.0</ele><time>2026-04-11T02:08:20Z</time></trkpt><trkpt lat="43.15442110088383" lon="11.460753352090617"><ele>146.0</ele><time>2026-04-11T02:08:21Z</time></trkpt><trkpt lat="43.15448773859423" lon="11.460718108575602"><ele>146.0</ele><time>2026-04-11T02:08:22Z</time></trkpt><trkpt lat="43.1545531815231" lon="11.460682721608672"><ele>146.0</ele><time>2026-04-11T02:08:23Z</time></trkpt><trkpt lat="43.1546181362833" lon="11.460650506191602"><ele>146.0</ele><time>2026-04-11T02:08:24Z</time></trkpt><trkpt lat="43.15468512344209" lon="11.460618076459491"><ele>146.0</ele><time>2026-04-11T02:08:25Z</time></trkpt><trkpt lat="43.154747422828045" lon="11.460587260800544"><ele>146.0</ele><time>2026-04-11T02:08:26Z</time></trkpt><trkpt lat="43.1548116326526" lon="11.460551471885102"><ele>146.0</ele><time>2026-04-11T02:08:27Z</time></trkpt><trkpt lat="43.15487805053215" lon="11.460517139217625"><ele>146.0</ele><time>2026-04-11T02:08:28Z</time></trkpt><trkpt lat="43.15493989866326" lon="11.460482180328997"><ele>146.0</ele><time>2026-04-11T02:08:29Z</time></trkpt><trkpt lat="43.155004461102486" lon="11.460445363668066"><ele>146.0</ele><time>2026-04-11T02:08:30Z</time></trkpt><trkpt lat="43.15507162233437" lon="11.460415889402634"><ele>146.0</ele><time>2026-04-11T02:08:31Z</time></trkpt><trkpt lat="43.15513302563561" lon="11.460372974657174"><ele>146.0</ele><time>2026-04-11T02:08:32Z</time></trkpt><trkpt lat="43.15519911718397" lon="11.460338071569227"><ele>146.0</ele><time>2026-04-11T02:08:33Z</time></trkpt><trkpt lat="43.15526395807443" lon="11.460304702314922"><ele>146.0</ele><time>2026-04-11T02:08:34Z</time></trkpt><trkpt lat="43.1553283519749" lon="11.460272714692525"><ele>146.0</ele><time>2026-04-11T02:08:35Z</time></trkpt><trkpt lat="43.15539570092846" lon="11.460232415875751"><ele>146.0</ele><time>2026-04-11T02:08:36Z</time></trkpt><trkpt lat="43.1554623340586" lon="11.46020620628595"><ele>146.0</ele><time>2026-04-11T02:08:37Z</time></trkpt><trkpt lat="43.15552737711462" lon="11.460171919944882"><ele>146.0</ele><time>2026-04-11T02:08:38Z</time></trkpt><trkpt lat="43.155590967260906" lon="11.460137127867318"><ele>146.0</ele><time>2026-04-11T02:08:39Z</time></trkpt><trkpt lat="43.155660342208726" lon="11.460107022631313"><ele>146.0</ele><time>2026-04-11T02:08:40Z</time></trkpt><trkpt lat="43.1557252503626" lon="11.46007235422122"><ele>146.0</ele><time>2026-04-11T02:08:41Z</time></trkpt><trkpt lat="43.15579162942128" lon="11.460037045345967"><ele>146.0</ele><time>2026-04-11T02:08:42Z</time></trkpt><trkpt lat="43.15585870264744" lon="11.460002621781994"><ele>146.0</ele><time>2026-04-11T02:08:43Z</time></trkpt><trkpt lat="43.15592480798149" lon="11.45996641105242"><ele>146.0</ele><time>2026-04-11T02:08:44Z</time></trkpt><trkpt lat="43.15599013198835" lon="11.459929920588054"><ele>146.0</ele><time>2026-04-11T02:08:45Z</time></trkpt><trkpt lat="43.1560567873591" lon="11.459894724319254"><ele>146.0</ele><time>2026-04-11T02:08:46Z</time></trkpt><trkpt lat="43.156123149772384" lon="11.459858927662296"><ele>146.0</ele><time>2026-04-11T02:08:47Z</time></trkpt><trkpt lat="43.15619154179961" lon="11.459824488213913"><ele>146.0</ele><time>2026-04-11T02:08:48Z</time></trkpt><trkpt lat="43.156258942525504" lon="11.459783580923682"><ele>146.0</ele><time>2026-04-11T02:08:49Z</time></trkpt><trkpt lat="43.156326649935444" lon="11.459748545868184"><ele>146.0</ele><time>2026-04-11T02:08:50Z</time></trkpt><trkpt lat="43.156394069178496" lon="11.459707288317919"><ele>146.0</ele><time>2026-04-11T02:08:51Z</time></trkpt><trkpt lat="43.15646234610631" lon="11.459675425712609"><ele>146.0</ele><time>2026-04-11T02:08:52Z</time></trkpt><trkpt lat="43.156531425130254" lon="11.459640618602247"><ele>146.0</ele><time>2026-04-11T02:08:53Z</time></trkpt><trkpt lat="43.156603155337095" lon="11.45960580057509"><ele>146.0</ele><time>2026-04-11T02:08:54Z</time></trkpt><trkpt lat="43.15666666916075" lon="11.459563918262377"><ele>146.0</ele><time>2026-04-11T02:08:55Z</time></trkpt><trkpt lat="43.15673677804656" lon="11.459525230525173"><ele>146.0</ele><time>2026-04-11T02:08:56Z</time></trkpt><trkpt lat="43.1568049559028" lon="11.459486107794744"><ele>146.0</ele><time>2026-04-11T02:08:57Z</time></trkpt><trkpt lat="43.15687659984505" lon="11.459450762292613"><ele>146.0</ele><time>2026-04-11T02:08:58Z</time></trkpt><trkpt lat="43.156944279590014" lon="11.459411759647097"><ele>146.0</ele><time>2026-04-11T02:08:59Z</time></trkpt><trkpt lat="43.157015529036784" lon="11.459373940406325"><ele>146.0</ele><time>2026-04-11T02:09:00Z</time></trkpt><trkpt lat="43.157088492112806" lon="11.459342905065007"><ele>146.0</ele><time>2026-04-11T02:09:01Z</time></trkpt><trkpt lat="43.15715924310337" lon="11.459306812323373"><ele>146.0</ele><time>2026-04-11T02:09:02Z</time></trkpt><trkpt lat="43.15723142771348" lon="11.459267098010752"><ele>146.0</ele><time>2026-04-11T02:09:03Z</time></trkpt><trkpt lat="43.157301426025505" lon="11.459227413862527"><ele>146.0</ele><time>2026-04-11T02:09:04Z</time></trkpt><trkpt lat="43.15737243627623" lon="11.45919096136804"><ele>146.0</ele><time>2026-04-11T02:09:05Z</time></trkpt><trkpt lat="43.1574434247477" lon="11.459153519126707"><ele>146.0</ele><time>2026-04-11T02:09:06Z</time></trkpt><trkpt lat="43.15751224545348" lon="11.459113344192344"><ele>146.0</ele><time>2026-04-11T02:09:07Z</time></trkpt><trkpt lat="43.1575848356549" lon="11.459076717463116"><ele>146.0</ele><time>2026-04-11T02:09:08Z</time></trkpt><trkpt lat="43.15765483570691" lon="11.459035153117064"><ele>146.0</ele><time>2026-04-11T02:09:09Z</time></trkpt><trkpt lat="43.157725934021116" lon="11.458993771658363"><ele>146.0</ele><time>2026-04-11T02:09:10Z</time></trkpt><trkpt lat="43.15779654959824" lon="11.458959292436095"><ele>146.0</ele><time>2026-04-11T02:09:11Z</time></trkpt><trkpt lat="43.15787017117799" lon="11.458933282064843"><ele>146.0</ele><time>2026-04-11T02:09:12Z</time></trkpt><trkpt lat="43.15793958839958" lon="11.458891233594056"><ele>146.0</ele><time>2026-04-11T02:09:13Z</time></trkpt><trkpt lat="43.158011996989394" lon="11.45885803029089"><ele>146.0</ele><time>2026-04-11T02:09:14Z</time></trkpt><trkpt lat="43.15808156951404" lon="11.458820650354472"><ele>146.0</ele><time>2026-04-11T02:09:15Z</time></trkpt><trkpt lat="43.15815202117286" lon="11.458780719587331"><ele>146.0</ele><time>2026-04-11T02:09:16Z</time></trkpt><trkpt lat="43.158223899891006" lon="11.458741823774586"><ele>145.83333333333331</ele><time>2026-04-11T02:09:17Z</time></trkpt><trkpt lat="43.158294057628595" lon="11.458703985866897"><ele>145.66666666666666</ele><time>2026-04-11T02:09:18Z</time></trkpt><trkpt lat="43.15836369547237" lon="11.458664113839724"><ele>145.5</ele><time>2026-04-11T02:09:19Z</time></trkpt><trkpt lat="43.15843182081571" lon="11.45862770687833"><ele>145.33333333333334</ele><time>2026-04-11T02:09:20Z</time></trkpt><trkpt lat="43.15849820101412" lon="11.45859158863379"><ele>145.16666666666669</ele><time>2026-04-11T02:09:21Z</time></trkpt><trkpt lat="43.158569489073855" lon="11.458550020801155"><ele>145.0</ele><time>2026-04-11T02:09:22Z</time></trkpt><trkpt lat="43.158640314741305" lon="11.458508798032183"><ele>145.0</ele><time>2026-04-11T02:09:23Z</time></trkpt><trkpt lat="43.1587192316607" lon="11.458489084380876"><ele>145.0</ele><time>2026-04-11T02:09:24Z</time></trkpt><trkpt lat="43.15878928515059" lon="11.458451801169113"><ele>145.0</ele><time>2026-04-11T02:09:25Z</time></trkpt><trkpt lat="43.15886001571734" lon="11.45841415759329"><ele>145.0</ele><time>2026-04-11T02:09:26Z</time></trkpt><trkpt lat="43.15893188591298" lon="11.458366442468146"><ele>145.0</ele><time>2026-04-11T02:09:27Z</time></trkpt><trkpt lat="43.15900367537167" lon="11.458332046670296"><ele>145.0</ele><time>2026-04-11T02:09:28Z</time></trkpt><trkpt lat="43.15907253366553" lon="11.458293519334934"><ele>145.14285714285714</ele><time>2026-04-11T02:09:29Z</time></trkpt><trkpt lat="43.15914414208221" lon="11.458251504266881"><ele>145.2857142857143</ele><time>2026-04-11T02:09:30Z</time></trkpt><trkpt lat="43.159211156816184" lon="11.458209861588443"><ele>145.42857142857144</ele><time>2026-04-11T02:09:31Z</time></trkpt><trkpt lat="43.159280156285675" lon="11.458174997381775"><ele>145.57142857142858</ele><time>2026-04-11T02:09:32Z</time></trkpt><trkpt lat="43.159350715036226" lon="11.458143170892658"><ele>145.71428571428572</ele><time>2026-04-11T02:09:33Z</time></trkpt><trkpt lat="43.15941862060768" lon="11.45810344082997"><ele>145.85714285714286</ele><time>2026-04-11T02:09:34Z</time></trkpt><trkpt lat="43.15948715459859" lon="11.458064522843012"><ele>146.0</ele><time>2026-04-11T02:09:35Z</time></trkpt><trkpt lat="43.15955619902511" lon="11.458026864738272"><ele>146.0</ele><time>2026-04-11T02:09:36Z</time></trkpt><trkpt lat="43.15962512013251" lon="11.457988739646828"><ele>146.0</ele><time>2026-04-11T02:09:37Z</time></trkpt><trkpt lat="43.159693626792716" lon="11.457953117832552"><ele>146.0</ele><time>2026-04-11T02:09:38Z</time></trkpt><trkpt lat="43.15976445768445" lon="11.45791716162293"><ele>146.0</ele><time>2026-04-11T02:09:39Z</time></trkpt><trkpt lat="43.159834222079894" lon="11.45788213041203"><ele>146.0</ele><time>2026-04-11T02:09:40Z</time></trkpt><trkpt lat="43.159901592243486" lon="11.457846352018766"><ele>146.0</ele><time>2026-04-11T02:09:41Z</time></trkpt><trkpt lat="43.159972190758836" lon="11.457807646108279"><ele>146.0</ele><time>2026-04-11T02:09:42Z</time></trkpt><trkpt lat="43.16003961038539" lon="11.45777147750776"><ele>146.0</ele><time>2026-04-11T02:09:43Z</time></trkpt><trkpt lat="43.160105974310746" lon="11.45772538391583"><ele>146.0</ele><time>2026-04-11T02:09:44Z</time></trkpt><trkpt lat="43.160178581869275" lon="11.457709981435945"><ele>146.0</ele><time>2026-04-11T02:09:45Z</time></trkpt><trkpt lat="43.160249515397304" lon="11.45766374206783"><ele>146.0</ele><time>2026-04-11T02:09:46Z</time></trkpt><trkpt lat="43.16031214600996" lon="11.4576071240123"><ele>146.0</ele><time>2026-04-11T02:09:47Z</time></trkpt><trkpt lat="43.16037022181237" lon="11.457539740554873"><ele>146.0</ele><time>2026-04-11T02:09:48Z</time></trkpt><trkpt lat="43.160413141620964" lon="11.457440573824263"><ele>146.0</ele><time>2026-04-11T02:09:49Z</time></trkpt><trkpt lat="43.16042100826384" lon="11.457322610526797"><ele>146.0</ele><time>2026-04-11T02:09:50Z</time></trkpt><trkpt lat="43.16043439755489" lon="11.457222363019262"><ele>146.0</ele><time>2026-04-11T02:09:51Z</time></trkpt><trkpt lat="43.160442616713894" lon="11.457123403476638"><ele>146.0</ele><time>2026-04-11T02:09:52Z</time></trkpt><trkpt lat="43.16047644414529" lon="11.457038077794577"><ele>146.0</ele><time>2026-04-11T02:09:53Z</time></trkpt><trkpt lat="43.16050419799167" lon="11.456959682076866"><ele>146.0</ele><time>2026-04-11T02:09:54Z</time></trkpt><trkpt lat="43.160576413148426" lon="11.45683881787047"><ele>146.33333333333331</ele><time>2026-04-11T02:09:56Z</time></trkpt><trkpt lat="43.16066989090374" lon="11.456803068401804"><ele>146.66666666666666</ele><time>2026-04-11T02:09:58Z</time></trkpt><trkpt lat="43.160770939420104" lon="11.456900867253326"><ele>147.0</ele><time>2026-04-11T02:10:00Z</time></trkpt><trkpt lat="43.160799994303154" lon="11.456995569192705"><ele>147.33333333333334</ele><time>2026-04-11T02:10:03Z</time></trkpt><trkpt lat="43.16082846908124" lon="11.457078425660471"><ele>147.66666666666669</ele><time>2026-04-11T02:10:05Z</time></trkpt><trkpt lat="43.16085541681175" lon="11.457179577867635"><ele>148.0</ele><time>2026-04-11T02:10:07Z</time></trkpt><trkpt lat="43.16089019997274" lon="11.457267177876744"><ele>148.0</ele><time>2026-04-11T02:10:09Z</time></trkpt><trkpt lat="43.16091989157464" lon="11.457371782452368"><ele>148.0</ele><time>2026-04-11T02:10:11Z</time></trkpt><trkpt lat="43.16096581826261" lon="11.457539278459933"><ele>148.0</ele><time>2026-04-11T02:10:13Z</time></trkpt><trkpt lat="43.16104720415263" lon="11.457771830222596"><ele>148.0</ele><time>2026-04-11T02:10:14Z</time></trkpt><trkpt lat="43.16106535382891" lon="11.457876287245803"><ele>147.8</ele><time>2026-04-11T02:10:15Z</time></trkpt><trkpt lat="43.16107917610049" lon="11.4579774912959"><ele>147.60000000000002</ele><time>2026-04-11T02:10:16Z</time></trkpt><trkpt lat="43.16109207824685" lon="11.458101742325029"><ele>147.39999999999998</ele><time>2026-04-11T02:10:17Z</time></trkpt><trkpt lat="43.161104390280634" lon="11.458242626791003"><ele>147.2</ele><time>2026-04-11T02:10:18Z</time></trkpt><trkpt lat="43.16114662070128" lon="11.458382276817918"><ele>147.0</ele><time>2026-04-11T02:10:19Z</time></trkpt><trkpt lat="43.16115096348879" lon="11.458521006506507"><ele>147.0</ele><time>2026-04-11T02:10:20Z</time></trkpt><trkpt lat="43.16113453200889" lon="11.458665926187159"><ele>147.0</ele><time>2026-04-11T02:10:21Z</time></trkpt><trkpt lat="43.16114525576343" lon="11.458813324645057"><ele>147.0</ele><time>2026-04-11T02:10:22Z</time></trkpt><trkpt lat="43.16115698405888" lon="11.45895896066414"><ele>147.0</ele><time>2026-04-11T02:10:23Z</time></trkpt><trkpt lat="43.16117059691073" lon="11.459097983986606"><ele>147.0</ele><time>2026-04-11T02:10:24Z</time></trkpt><trkpt lat="43.16118695643383" lon="11.459240652908676"><ele>146.79999999999998</ele><time>2026-04-11T02:10:25Z</time></trkpt><trkpt lat="43.16120395680436" lon="11.459375851720601"><ele>146.6</ele><time>2026-04-11T02:10:26Z</time></trkpt><trkpt lat="43.16122275303495" lon="11.459512561593684"><ele>146.39999999999998</ele><time>2026-04-11T02:10:27Z</time></trkpt><trkpt lat="43.161243335950225" lon="11.459643322792854"><ele>146.2</ele><time>2026-04-11T02:10:28Z</time></trkpt><trkpt lat="43.16126523613026" lon="11.459770357961425"><ele>146.0</ele><time>2026-04-11T02:10:29Z</time></trkpt><trkpt lat="43.16128845270279" lon="11.459898642713604"><ele>146.0</ele><time>2026-04-11T02:10:30Z</time></trkpt><trkpt lat="43.16131653140112" lon="11.460026660471605"><ele>146.0</ele><time>2026-04-11T02:10:31Z</time></trkpt><trkpt lat="43.161355750011595" lon="11.460149030373115"><ele>146.0</ele><time>2026-04-11T02:10:32Z</time></trkpt><trkpt lat="43.16139464926908" lon="11.460248849212922"><ele>146.0</ele><time>2026-04-11T02:10:33Z</time></trkpt><trkpt lat="43.161454598288074" lon="11.46035440239063"><ele>146.0</ele><time>2026-04-11T02:10:34Z</time></trkpt><trkpt lat="43.16152876527179" lon="11.46044073832874"><ele>145.8</ele><time>2026-04-11T02:10:35Z</time></trkpt><trkpt lat="43.16160623596307" lon="11.46051391096927"><ele>145.6</ele><time>2026-04-11T02:10:36Z</time></trkpt><trkpt lat="43.161683430329205" lon="11.46059205976427"><ele>145.4</ele><time>2026-04-11T02:10:37Z</time></trkpt><trkpt lat="43.16175801964039" lon="11.46066461528802"><ele>145.2</ele><time>2026-04-11T02:10:38Z</time></trkpt><trkpt lat="43.16183320966856" lon="11.460741250071525"><ele>145.0</ele><time>2026-04-11T02:10:39Z</time></trkpt><trkpt lat="43.16190692847808" lon="11.460816868456547"><ele>145.0</ele><time>2026-04-11T02:10:40Z</time></trkpt><trkpt lat="43.16197950389102" lon="11.460891613907037"><ele>145.0</ele><time>2026-04-11T02:10:41Z</time></trkpt><trkpt lat="43.16205153807745" lon="11.460965801763368"><ele>145.0</ele><time>2026-04-11T02:10:42Z</time></trkpt><trkpt lat="43.16213114556034" lon="11.46102355993876"><ele>145.0</ele><time>2026-04-11T02:10:43Z</time></trkpt><trkpt lat="43.16219840763841" lon="11.46110235497377"><ele>145.0</ele><time>2026-04-11T02:10:44Z</time></trkpt><trkpt lat="43.16226996772552" lon="11.461173165077906"><ele>145.0</ele><time>2026-04-11T02:10:45Z</time></trkpt><trkpt lat="43.162340227700255" lon="11.461247045803225"><ele>144.66666666666669</ele><time>2026-04-11T02:10:46Z</time></trkpt><trkpt lat="43.16240934592499" lon="11.461319098737418"><ele>144.33333333333334</ele><time>2026-04-11T02:10:47Z</time></trkpt><trkpt lat="43.16247768579214" lon="11.461395823543043"><ele>144.0</ele><time>2026-04-11T02:10:48Z</time></trkpt><trkpt lat="43.162547545038436" lon="11.46146384101898"><ele>143.66666666666666</ele><time>2026-04-11T02:10:49Z</time></trkpt><trkpt lat="43.162615724291115" lon="11.461534006593805"><ele>143.33333333333331</ele><time>2026-04-11T02:10:50Z</time></trkpt><trkpt lat="43.162684561293545" lon="11.46160539528275"><ele>143.0</ele><time>2026-04-11T02:10:51Z</time></trkpt><trkpt lat="43.16275272210955" lon="11.461680945753425"><ele>143.0</ele><time>2026-04-11T02:10:52Z</time></trkpt><trkpt lat="43.16282562584" lon="11.461749290196584"><ele>143.0</ele><time>2026-04-11T02:10:53Z</time></trkpt><trkpt lat="43.16289979880462" lon="11.461823542673477"><ele>143.0</ele><time>2026-04-11T02:10:54Z</time></trkpt><trkpt lat="43.16297411635488" lon="11.461894159085823"><ele>143.0</ele><time>2026-04-11T02:10:55Z</time></trkpt><trkpt lat="43.16305115670601" lon="11.461965305377495"><ele>143.0</ele><time>2026-04-11T02:10:56Z</time></trkpt><trkpt lat="43.163134552037725" lon="11.462025916503356"><ele>143.0</ele><time>2026-04-11T02:10:57Z</time></trkpt><trkpt lat="43.16321891677151" lon="11.462074606838229"><ele>143.0</ele><time>2026-04-11T02:10:58Z</time></trkpt><trkpt lat="43.16330546852921" lon="11.462125581348667"><ele>143.0</ele><time>2026-04-11T02:10:59Z</time></trkpt><trkpt lat="43.163389334633784" lon="11.462181571138041"><ele>143.0</ele><time>2026-04-11T02:11:00Z</time></trkpt><trkpt lat="43.16347195316434" lon="11.462237005880272"><ele>143.0</ele><time>2026-04-11T02:11:01Z</time></trkpt><trkpt lat="43.1635354394587" lon="11.462328598116063"><ele>143.0</ele><time>2026-04-11T02:11:02Z</time></trkpt><trkpt lat="43.163573307456865" lon="11.462429869276997"><ele>143.0</ele><time>2026-04-11T02:11:03Z</time></trkpt><trkpt lat="43.16361785419757" lon="11.462526488926411"><ele>143.0</ele><time>2026-04-11T02:11:04Z</time></trkpt><trkpt lat="43.16366939733353" lon="11.462619132774723"><ele>143.0</ele><time>2026-04-11T02:11:05Z</time></trkpt><trkpt lat="43.163719526711645" lon="11.462708875398148"><ele>143.0</ele><time>2026-04-11T02:11:06Z</time></trkpt><trkpt lat="43.16377818263894" lon="11.46278725591312"><ele>143.0</ele><time>2026-04-11T02:11:07Z</time></trkpt><trkpt lat="43.16385090679917" lon="11.462842454326674"><ele>142.99999999999997</ele><time>2026-04-11T02:11:08Z</time></trkpt><trkpt lat="43.16392146788234" lon="11.462885091197299"><ele>143.0</ele><time>2026-04-11T02:11:09Z</time></trkpt><trkpt lat="43.163989032033314" lon="11.462919101680741"><ele>143.0</ele><time>2026-04-11T02:11:10Z</time></trkpt><trkpt lat="43.16405585728802" lon="11.462946498299448"><ele>143.0</ele><time>2026-04-11T02:11:11Z</time></trkpt><trkpt lat="43.164119374845335" lon="11.462986601471265"><ele>143.0</ele><time>2026-04-11T02:11:12Z</time></trkpt><trkpt lat="43.16417932367552" lon="11.463031604114695"><ele>142.99999999999997</ele><time>2026-04-11T02:11:13Z</time></trkpt><trkpt lat="43.164239622030365" lon="11.463082932719502"><ele>143.0</ele><time>2026-04-11T02:11:14Z</time></trkpt><trkpt lat="43.164301462855086" lon="11.463131066765294"><ele>143.14285714285714</ele><time>2026-04-11T02:11:15Z</time></trkpt><trkpt lat="43.1643636252105" lon="11.463185592175572"><ele>143.28571428571428</ele><time>2026-04-11T02:11:16Z</time></trkpt><trkpt lat="43.16442292002088" lon="11.463240679134149"><ele>143.42857142857144</ele><time>2026-04-11T02:11:17Z</time></trkpt><trkpt lat="43.16448267163441" lon="11.463294276290867"><ele>143.57142857142856</ele><time>2026-04-11T02:11:18Z</time></trkpt><trkpt lat="43.16453797293975" lon="11.463360580451868"><ele>143.71428571428572</ele><time>2026-04-11T02:11:19Z</time></trkpt><trkpt lat="43.1645933593609" lon="11.463423331324528"><ele>143.85714285714286</ele><time>2026-04-11T02:11:20Z</time></trkpt><trkpt lat="43.16464563032925" lon="11.463482642150653"><ele>144.0</ele><time>2026-04-11T02:11:21Z</time></trkpt><trkpt lat="43.164695661216385" lon="11.463538184757038"><ele>144.00000000000003</ele><time>2026-04-11T02:11:22Z</time></trkpt><trkpt lat="43.16474955675532" lon="11.463595357297416"><ele>144.0</ele><time>2026-04-11T02:11:23Z</time></trkpt><trkpt lat="43.16480640684219" lon="11.46365909330137"><ele>144.0</ele><time>2026-04-11T02:11:24Z</time></trkpt><trkpt lat="43.16486705364327" lon="11.463724137523592"><ele>144.0</ele><time>2026-04-11T02:11:25Z</time></trkpt><trkpt lat="43.16492954268494" lon="11.46378726444234"><ele>144.0</ele><time>2026-04-11T02:11:26Z</time></trkpt><trkpt lat="43.16499086102792" lon="11.46384403479552"><ele>144.00000000000003</ele><time>2026-04-11T02:11:27Z</time></trkpt><trkpt lat="43.16505671512593" lon="11.463901167821472"><ele>144.0</ele><time>2026-04-11T02:11:28Z</time></trkpt><trkpt lat="43.16512962862243" lon="11.463953760938882"><ele>144.16666666666666</ele><time>2026-04-11T02:11:29Z</time></trkpt><trkpt lat="43.16519903377093" lon="11.46399556604823"><ele>144.33333333333334</ele><time>2026-04-11T02:11:30Z</time></trkpt><trkpt lat="43.16527063526414" lon="11.464039687082911"><ele>144.5</ele><time>2026-04-11T02:11:31Z</time></trkpt><trkpt lat="43.16533217416824" lon="11.464103003071376"><ele>144.66666666666669</ele><time>2026-04-11T02:11:32Z</time></trkpt><trkpt lat="43.165397335326624" lon="11.464149455381133"><ele>144.83333333333334</ele><time>2026-04-11T02:11:33Z</time></trkpt><trkpt lat="43.1654603008949" lon="11.464194342489035"><ele>145.0</ele><time>2026-04-11T02:11:34Z</time></trkpt><trkpt lat="43.165527857912956" lon="11.464242502767647"><ele>145.0</ele><time>2026-04-11T02:11:35Z</time></trkpt><trkpt lat="43.165591390818534" lon="11.464287907964573"><ele>145.0</ele><time>2026-04-11T02:11:36Z</time></trkpt><trkpt lat="43.16566268437527" lon="11.464317798043274"><ele>145.0</ele><time>2026-04-11T02:11:37Z</time></trkpt><trkpt lat="43.16572420179518" lon="11.464361037548446"><ele>145.0</ele><time>2026-04-11T02:11:38Z</time></trkpt><trkpt lat="43.16577744812711" lon="11.464418874875916"><ele>145.0</ele><time>2026-04-11T02:11:39Z</time></trkpt><trkpt lat="43.16583912756099" lon="11.464454947423416"><ele>145.0</ele><time>2026-04-11T02:11:40Z</time></trkpt><trkpt lat="43.16590470209847" lon="11.464487498985266"><ele>145.0</ele><time>2026-04-11T02:11:41Z</time></trkpt><trkpt lat="43.165971439840995" lon="11.464518852198239"><ele>145.16666666666669</ele><time>2026-04-11T02:11:42Z</time></trkpt><trkpt lat="43.166032191856594" lon="11.46454478091147"><ele>145.33333333333334</ele><time>2026-04-11T02:11:43Z</time></trkpt><trkpt lat="43.166122580131535" lon="11.464406740217912"><ele>145.5</ele><time>2026-04-11T02:11:44Z</time></trkpt><trkpt lat="43.16616052464255" lon="11.464318552323085"><ele>145.66666666666666</ele><time>2026-04-11T02:11:45Z</time></trkpt><trkpt lat="43.16619429159621" lon="11.464229117577869"><ele>145.83333333333331</ele><time>2026-04-11T02:11:46Z</time></trkpt><trkpt lat="43.16623171891678" lon="11.46415114662536"><ele>146.0</ele><time>2026-04-11T02:11:47Z</time></trkpt><trkpt lat="43.166267695152015" lon="11.464070233117457"><ele>146.0</ele><time>2026-04-11T02:11:48Z</time></trkpt><trkpt lat="43.166321271510995" lon="11.464009500174452"><ele>146.0</ele><time>2026-04-11T02:11:49Z</time></trkpt><trkpt lat="43.16636226272012" lon="11.46393696766813"><ele>146.0</ele><time>2026-04-11T02:11:50Z</time></trkpt><trkpt lat="43.16639757167669" lon="11.46384963125199"><ele>146.0</ele><time>2026-04-11T02:11:51Z</time></trkpt><trkpt lat="43.16645416468357" lon="11.463791398393878"><ele>146.0</ele><time>2026-04-11T02:11:52Z</time></trkpt><trkpt lat="43.166507519844664" lon="11.463732388595128"><ele>146.0</ele><time>2026-04-11T02:11:53Z</time></trkpt><trkpt lat="43.16656535459504" lon="11.463674461209733"><ele>146.0</ele><time>2026-04-11T02:11:54Z</time></trkpt><trkpt lat="43.166622046742994" lon="11.463622661927902"><ele>146.14285714285714</ele><time>2026-04-11T02:11:55Z</time></trkpt><trkpt lat="43.166684994507015" lon="11.463573954947448"><ele>146.28571428571428</ele><time>2026-04-11T02:11:56Z</time></trkpt><trkpt lat="43.166744288715144" lon="11.463525307457141"><ele>146.42857142857144</ele><time>2026-04-11T02:11:57Z</time></trkpt><trkpt lat="43.166807276538535" lon="11.463481136263802"><ele>146.57142857142856</ele><time>2026-04-11T02:11:58Z</time></trkpt><trkpt lat="43.16686822870987" lon="11.463435262859715"><ele>146.71428571428572</ele><time>2026-04-11T02:11:59Z</time></trkpt><trkpt lat="43.16692950262513" lon="11.4634113850904"><ele>146.85714285714286</ele><time>2026-04-11T02:12:00Z</time></trkpt><trkpt lat="43.167008815100615" lon="11.463363131000559"><ele>147.0</ele><time>2026-04-11T02:12:02Z</time></trkpt><trkpt lat="43.16706142597227" lon="11.46354094691952"><ele>147.0</ele><time>2026-04-11T02:12:03Z</time></trkpt><trkpt lat="43.16715289594863" lon="11.463633970442006"><ele>147.0</ele><time>2026-04-11T02:12:05Z</time></trkpt><trkpt lat="43.16725693256625" lon="11.463717815830714"><ele>147.0</ele><time>2026-04-11T02:12:07Z</time></trkpt><trkpt lat="43.16731949332993" lon="11.463753751389964"><ele>147.0</ele><time>2026-04-11T02:12:08Z</time></trkpt><trkpt lat="43.1673864283188" lon="11.463768624597488"><ele>147.0</ele><time>2026-04-11T02:12:09Z</time></trkpt><trkpt lat="43.16744679305356" lon="11.463804005664471"><ele>147.0</ele><time>2026-04-11T02:12:10Z</time></trkpt><trkpt lat="43.167508320593036" lon="11.463840037508998"><ele>147.14285714285714</ele><time>2026-04-11T02:12:11Z</time></trkpt><trkpt lat="43.16756536733718" lon="11.463895124505669"><ele>147.28571428571428</ele><time>2026-04-11T02:12:12Z</time></trkpt><trkpt lat="43.16763058122133" lon="11.463933317032495"><ele>147.42857142857144</ele><time>2026-04-11T02:12:13Z</time></trkpt><trkpt lat="43.167692988831035" lon="11.463969866064312"><ele>147.57142857142856</ele><time>2026-04-11T02:12:14Z</time></trkpt><trkpt lat="43.16775720698405" lon="11.464007156770277"><ele>147.71428571428572</ele><time>2026-04-11T02:12:15Z</time></trkpt><trkpt lat="43.1678229014208" lon="11.464044996761626"><ele>147.85714285714286</ele><time>2026-04-11T02:12:16Z</time></trkpt><trkpt lat="43.1678858958595" lon="11.464081281561914"><ele>148.0</ele><time>2026-04-11T02:12:17Z</time></trkpt><trkpt lat="43.16795034198125" lon="11.46411840253059"><ele>148.0</ele><time>2026-04-11T02:12:18Z</time></trkpt><trkpt lat="43.168013918392845" lon="11.464155022539561"><ele>148.0</ele><time>2026-04-11T02:12:19Z</time></trkpt><trkpt lat="43.16807562064874" lon="11.464191038602317"><ele>148.0</ele><time>2026-04-11T02:12:20Z</time></trkpt><trkpt lat="43.16817139094023" lon="11.4642661297917"><ele>148.0</ele><time>2026-04-11T02:12:22Z</time></trkpt><trkpt lat="43.168107979665365" lon="11.464410931594625"><ele>148.0</ele><time>2026-04-11T02:12:24Z</time></trkpt><trkpt lat="43.16808139181502" lon="11.464489562548707"><ele>148.0</ele><time>2026-04-11T02:12:25Z</time></trkpt><trkpt lat="43.16806445596386" lon="11.464574179685128"><ele>148.20000000000002</ele><time>2026-04-11T02:12:26Z</time></trkpt><trkpt lat="43.168006151545185" lon="11.464725115955307"><ele>148.4</ele><time>2026-04-11T02:12:28Z</time></trkpt><trkpt lat="43.16793826958978" lon="11.46487045287314"><ele>148.60000000000002</ele><time>2026-04-11T02:12:30Z</time></trkpt><trkpt lat="43.167841763382405" lon="11.464985483392276"><ele>148.8</ele><time>2026-04-11T02:12:32Z</time></trkpt><trkpt lat="43.16778051671346" lon="11.465024595503829"><ele>149.0</ele><time>2026-04-11T02:12:33Z</time></trkpt><trkpt lat="43.167717751137744" lon="11.465045259560686"><ele>149.0</ele><time>2026-04-11T02:12:34Z</time></trkpt><trkpt lat="43.167658497548366" lon="11.465079270933247"><ele>149.0</ele><time>2026-04-11T02:12:35Z</time></trkpt><trkpt lat="43.16758579342267" lon="11.46505070336467"><ele>149.0</ele><time>2026-04-11T02:12:36Z</time></trkpt><trkpt lat="43.16751903972856" lon="11.465035226866004"><ele>149.0</ele><time>2026-04-11T02:12:37Z</time></trkpt><trkpt lat="43.167450637408756" lon="11.465019279551102"><ele>149.0</ele><time>2026-04-11T02:12:38Z</time></trkpt><trkpt lat="43.16738411737601" lon="11.465007213696428"><ele>149.0</ele><time>2026-04-11T02:12:39Z</time></trkpt><trkpt lat="43.16731595825932" lon="11.464999187114715"><ele>149.0</ele><time>2026-04-11T02:12:40Z</time></trkpt><trkpt lat="43.16724759748427" lon="11.46500262093187"><ele>148.85714285714286</ele><time>2026-04-11T02:12:41Z</time></trkpt><trkpt lat="43.167179754907984" lon="11.46501511604845"><ele>148.7142857142857</ele><time>2026-04-11T02:12:42Z</time></trkpt><trkpt lat="43.16711194398796" lon="11.465024090121597"><ele>148.57142857142856</ele><time>2026-04-11T02:12:43Z</time></trkpt><trkpt lat="43.167046085463184" lon="11.465048081848652"><ele>148.42857142857142</ele><time>2026-04-11T02:12:44Z</time></trkpt><trkpt lat="43.16697819855057" lon="11.465074300708965"><ele>148.28571428571428</ele><time>2026-04-11T02:12:45Z</time></trkpt><trkpt lat="43.166910569650064" lon="11.465102015295555"><ele>148.14285714285714</ele><time>2026-04-11T02:12:46Z</time></trkpt><trkpt lat="43.16684405651646" lon="11.46513283489331"><ele>148.0</ele><time>2026-04-11T02:12:47Z</time></trkpt><trkpt lat="43.16677590059741" lon="11.465166713117936"><ele>148.0</ele><time>2026-04-11T02:12:48Z</time></trkpt><trkpt lat="43.16670572036618" lon="11.46520693390918"><ele>148.0</ele><time>2026-04-11T02:12:49Z</time></trkpt><trkpt lat="43.166643750194886" lon="11.465254113800134"><ele>148.0</ele><time>2026-04-11T02:12:50Z</time></trkpt><trkpt lat="43.16658255831804" lon="11.465309169308952"><ele>148.0</ele><time>2026-04-11T02:12:51Z</time></trkpt><trkpt lat="43.16652331329774" lon="11.465379389427278"><ele>148.0</ele><time>2026-04-11T02:12:52Z</time></trkpt><trkpt lat="43.166463194714396" lon="11.465433429274649"><ele>148.0</ele><time>2026-04-11T02:12:53Z</time></trkpt><trkpt lat="43.16640616403311" lon="11.465495889445847"><ele>148.0</ele><time>2026-04-11T02:12:54Z</time></trkpt><trkpt lat="43.16634669726223" lon="11.465560114703859"><ele>147.42857142857144</ele><time>2026-04-11T02:12:55Z</time></trkpt><trkpt lat="43.166291340581346" lon="11.465626652605136"><ele>146.85714285714286</ele><time>2026-04-11T02:12:56Z</time></trkpt><trkpt lat="43.16624191583134" lon="11.46569572091647"><ele>146.28571428571428</ele><time>2026-04-11T02:12:57Z</time></trkpt><trkpt lat="43.1661920386909" lon="11.465764345510324"><ele>145.71428571428572</ele><time>2026-04-11T02:12:58Z</time></trkpt><trkpt lat="43.16614449677702" lon="11.465829064672027"><ele>145.14285714285714</ele><time>2026-04-11T02:12:59Z</time></trkpt><trkpt lat="43.16609556012813" lon="11.465896037033984"><ele>144.57142857142858</ele><time>2026-04-11T02:13:00Z</time></trkpt><trkpt lat="43.16604623463922" lon="11.465963357031997"><ele>144.0</ele><time>2026-04-11T02:13:01Z</time></trkpt><trkpt lat="43.16599655529722" lon="11.466029257125662"><ele>144.0</ele><time>2026-04-11T02:13:02Z</time></trkpt><trkpt lat="43.16594729103088" lon="11.466098804296692"><ele>144.0</ele><time>2026-04-11T02:13:03Z</time></trkpt><trkpt lat="43.16590129789212" lon="11.466167508052454"><ele>144.0</ele><time>2026-04-11T02:13:04Z</time></trkpt><trkpt lat="43.1658482372758" lon="11.4662418609572"><ele>144.0</ele><time>2026-04-11T02:13:05Z</time></trkpt><trkpt lat="43.16578612309969" lon="11.466314314761567"><ele>144.0</ele><time>2026-04-11T02:13:06Z</time></trkpt><trkpt lat="43.16571862398222" lon="11.466381534875403"><ele>144.0</ele><time>2026-04-11T02:13:07Z</time></trkpt><trkpt lat="43.16563402171179" lon="11.466439910711316"><ele>144.8</ele><time>2026-04-11T02:13:08Z</time></trkpt><trkpt lat="43.16554131360224" lon="11.466484623091795"><ele>145.60000000000002</ele><time>2026-04-11T02:13:09Z</time></trkpt><trkpt lat="43.16545475100624" lon="11.466528162977307"><ele>146.4</ele><time>2026-04-11T02:13:10Z</time></trkpt><trkpt lat="43.16537171304202" lon="11.466567860067018"><ele>147.20000000000002</ele><time>2026-04-11T02:13:11Z</time></trkpt><trkpt lat="43.165292064678454" lon="11.466618101768574"><ele>148.0</ele><time>2026-04-11T02:13:12Z</time></trkpt><trkpt lat="43.16521256751206" lon="11.466672976386864"><ele>148.0</ele><time>2026-04-11T02:13:13Z</time></trkpt><trkpt lat="43.1651330231299" lon="11.46672471187469"><ele>148.0</ele><time>2026-04-11T02:13:14Z</time></trkpt><trkpt lat="43.165055010818634" lon="11.466775787634216"><ele>148.0</ele><time>2026-04-11T02:13:15Z</time></trkpt><trkpt lat="43.16498289346066" lon="11.466830030573577"><ele>148.0</ele><time>2026-04-11T02:13:16Z</time></trkpt><trkpt lat="43.16490707390023" lon="11.466881955984105"><ele>148.0</ele><time>2026-04-11T02:13:17Z</time></trkpt><trkpt lat="43.16483175619926" lon="11.466935099707513"><ele>148.0</ele><time>2026-04-11T02:13:18Z</time></trkpt><trkpt lat="43.16476053256732" lon="11.466989738753362"><ele>147.66666666666669</ele><time>2026-04-11T02:13:19Z</time></trkpt><trkpt lat="43.164689602383135" lon="11.467042399373003"><ele>147.33333333333334</ele><time>2026-04-11T02:13:20Z</time></trkpt><trkpt lat="43.164619745706275" lon="11.46709267299514"><ele>147.0</ele><time>2026-04-11T02:13:21Z</time></trkpt><trkpt lat="43.16454893317996" lon="11.467139210812249"><ele>146.66666666666666</ele><time>2026-04-11T02:13:22Z</time></trkpt><trkpt lat="43.16447511964817" lon="11.467186524214101"><ele>146.33333333333331</ele><time>2026-04-11T02:13:23Z</time></trkpt><trkpt lat="43.16440964856893" lon="11.467238142358578"><ele>146.0</ele><time>2026-04-11T02:13:24Z</time></trkpt><trkpt lat="43.164345119434245" lon="11.467290238424342"><ele>146.0</ele><time>2026-04-11T02:13:25Z</time></trkpt><trkpt lat="43.16427981965607" lon="11.467340282727971"><ele>146.0</ele><time>2026-04-11T02:13:26Z</time></trkpt><trkpt lat="43.16420485249136" lon="11.467368092979218"><ele>146.0</ele><time>2026-04-11T02:13:27Z</time></trkpt><trkpt lat="43.16413975334112" lon="11.467413706418778"><ele>146.0</ele><time>2026-04-11T02:13:28Z</time></trkpt><trkpt lat="43.16407679259888" lon="11.46745782152833"><ele>146.0</ele><time>2026-04-11T02:13:29Z</time></trkpt><trkpt lat="43.164014130121316" lon="11.467501727651698"><ele>146.0</ele><time>2026-04-11T02:13:30Z</time></trkpt><trkpt lat="43.163955000348786" lon="11.467543158492507"><ele>146.0</ele><time>2026-04-11T02:13:31Z</time></trkpt><trkpt lat="43.163860375406955" lon="11.467609459957602"><ele>146.0</ele><time>2026-04-11T02:13:33Z</time></trkpt><trkpt lat="43.1638851536431" lon="11.467900622645514"><ele>146.0</ele><time>2026-04-11T02:13:35Z</time></trkpt><trkpt lat="43.16394793851647" lon="11.468053148500605"><ele>146.0</ele><time>2026-04-11T02:13:37Z</time></trkpt><trkpt lat="43.163974733870916" lon="11.468135825196157"><ele>146.0</ele><time>2026-04-11T02:13:38Z</time></trkpt><trkpt lat="43.16400251317725" lon="11.46821911894193"><ele>146.0</ele><time>2026-04-11T02:13:39Z</time></trkpt><trkpt lat="43.164029839889324" lon="11.46830178438549"><ele>146.0</ele><time>2026-04-11T02:13:40Z</time></trkpt><trkpt lat="43.16405244186987" lon="11.468390455747109"><ele>146.0</ele><time>2026-04-11T02:13:41Z</time></trkpt><trkpt lat="43.164076940428444" lon="11.468470530185352"><ele>146.0</ele><time>2026-04-11T02:13:42Z</time></trkpt><trkpt lat="43.164099328290625" lon="11.46855965947148"><ele>146.0</ele><time>2026-04-11T02:13:43Z</time></trkpt><trkpt lat="43.164111713901455" lon="11.468651050918819"><ele>146.0</ele><time>2026-04-11T02:13:44Z</time></trkpt><trkpt lat="43.164111043684976" lon="11.46874252105815"><ele>146.0</ele><time>2026-04-11T02:13:45Z</time></trkpt><trkpt lat="43.164075999304806" lon="11.468826975283703"><ele>147.4</ele><time>2026-04-11T02:13:46Z</time></trkpt><trkpt lat="43.164006543741976" lon="11.468972695335557"><ele>148.8</ele><time>2026-04-11T02:13:48Z</time></trkpt><trkpt lat="43.16394359748272" lon="11.469009728207022"><ele>150.20000000000002</ele><time>2026-04-11T02:13:49Z</time></trkpt><trkpt lat="43.16382461582129" lon="11.469047979751151"><ele>151.6</ele><time>2026-04-11T02:13:51Z</time></trkpt><trkpt lat="43.16370081441229" lon="11.469072637124603"><ele>153.0</ele><time>2026-04-11T02:13:53Z</time></trkpt><trkpt lat="43.16358046251179" lon="11.46910795709582"><ele>153.0</ele><time>2026-04-11T02:13:55Z</time></trkpt><trkpt lat="43.16345921179878" lon="11.469138939708685"><ele>153.0</ele><time>2026-04-11T02:13:57Z</time></trkpt><trkpt lat="43.16334000003322" lon="11.469178527532348"><ele>153.0</ele><time>2026-04-11T02:13:59Z</time></trkpt><trkpt lat="43.16322537167159" lon="11.469227684306496"><ele>153.0</ele><time>2026-04-11T02:14:01Z</time></trkpt><trkpt lat="43.16312069971438" lon="11.469307208964631"><ele>152.8</ele><time>2026-04-11T02:14:03Z</time></trkpt><trkpt lat="43.16303273592688" lon="11.469393426128004"><ele>152.60000000000002</ele><time>2026-04-11T02:14:05Z</time></trkpt><trkpt lat="43.1629559571971" lon="11.469487950286927"><ele>152.39999999999998</ele><time>2026-04-11T02:14:07Z</time></trkpt><trkpt lat="43.16287965558564" lon="11.469575664480297"><ele>152.2</ele><time>2026-04-11T02:14:09Z</time></trkpt><trkpt lat="43.1628111535078" lon="11.4696808187384"><ele>152.0</ele><time>2026-04-11T02:14:11Z</time></trkpt><trkpt lat="43.16275983244926" lon="11.469782412115581"><ele>152.83333333333331</ele><time>2026-04-11T02:14:13Z</time></trkpt><trkpt lat="43.16272294703722" lon="11.469894717130524"><ele>153.66666666666666</ele><time>2026-04-11T02:14:15Z</time></trkpt><trkpt lat="43.162714480561284" lon="11.469985392532463"><ele>154.5</ele><time>2026-04-11T02:14:16Z</time></trkpt><trkpt lat="43.162676427518264" lon="11.470086835936714"><ele>155.33333333333334</ele><time>2026-04-11T02:14:18Z</time></trkpt><trkpt lat="43.16266867906461" lon="11.470199833672854"><ele>156.16666666666669</ele><time>2026-04-11T02:14:20Z</time></trkpt><trkpt lat="43.16265667806055" lon="11.470315606877126"><ele>157.0</ele><time>2026-04-11T02:14:22Z</time></trkpt><trkpt lat="43.162650951174975" lon="11.470431096631046"><ele>157.83333333333334</ele><time>2026-04-11T02:14:24Z</time></trkpt><trkpt lat="43.162641142639465" lon="11.470544596013557"><ele>158.66666666666669</ele><time>2026-04-11T02:14:26Z</time></trkpt><trkpt lat="43.162630919481906" lon="11.470656103961147"><ele>159.5</ele><time>2026-04-11T02:14:28Z</time></trkpt><trkpt lat="43.162624874248" lon="11.470765720782222"><ele>160.33333333333334</ele><time>2026-04-11T02:14:30Z</time></trkpt><trkpt lat="43.16262627428006" lon="11.470876089372208"><ele>161.16666666666666</ele><time>2026-04-11T02:14:32Z</time></trkpt><trkpt lat="43.16262419041644" lon="11.470975450346502"><ele>162.0</ele><time>2026-04-11T02:14:34Z</time></trkpt><trkpt lat="43.16262080253815" lon="11.471064955367622"><ele>162.0</ele><time>2026-04-11T02:14:36Z</time></trkpt><trkpt lat="43.162612121954446" lon="11.471184569519666"><ele>162.0</ele><time>2026-04-11T02:14:39Z</time></trkpt><trkpt lat="43.16260646952719" lon="11.47128248378469"><ele>162.0</ele><time>2026-04-11T02:14:42Z</time></trkpt><trkpt lat="43.16259427699746" lon="11.471377127213666"><ele>162.0</ele><time>2026-04-11T02:14:45Z</time></trkpt><trkpt lat="43.16259106363002" lon="11.471487702030377"><ele>162.0</ele><time>2026-04-11T02:14:48Z</time></trkpt><trkpt lat="43.16256693184815" lon="11.47156979694234"><ele>162.0</ele><time>2026-04-11T02:14:51Z</time></trkpt><trkpt lat="43.162541519410674" lon="11.471662898816172"><ele>162.0</ele><time>2026-04-11T02:14:54Z</time></trkpt><trkpt lat="43.16250592403863" lon="11.47176429125572"><ele>162.83333333333334</ele><time>2026-04-11T02:14:57Z</time></trkpt><trkpt lat="43.16246256003552" lon="11.47185171722554"><ele>163.66666666666666</ele><time>2026-04-11T02:15:00Z</time></trkpt><trkpt lat="43.16241876616222" lon="11.471941981589941"><ele>164.5</ele><time>2026-04-11T02:15:03Z</time></trkpt><trkpt lat="43.16237191117873" lon="11.472024114379275"><ele>165.33333333333331</ele><time>2026-04-11T02:15:06Z</time></trkpt><trkpt lat="43.16235150135165" lon="11.472136128895569"><ele>166.16666666666666</ele><time>2026-04-11T02:15:09Z</time></trkpt><trkpt lat="43.16230728674442" lon="11.472214871670557"><ele>167.0</ele><time>2026-04-11T02:15:12Z</time></trkpt><trkpt lat="43.16226049110457" lon="11.472289348393765"><ele>167.83333333333331</ele><time>2026-04-11T02:15:15Z</time></trkpt><trkpt lat="43.16220680074783" lon="11.472385105026673"><ele>168.66666666666666</ele><time>2026-04-11T02:15:18Z</time></trkpt><trkpt lat="43.16216077283878" lon="11.472475001943332"><ele>169.5</ele><time>2026-04-11T02:15:21Z</time></trkpt><trkpt lat="43.16211137923372" lon="11.472570510545438"><ele>170.33333333333334</ele><time>2026-04-11T02:15:24Z</time></trkpt><trkpt lat="43.16205528047371" lon="11.472670727166895"><ele>171.16666666666669</ele><time>2026-04-11T02:15:27Z</time></trkpt><trkpt lat="43.162006388496174" lon="11.472767010930907"><ele>172.0</ele><time>2026-04-11T02:15:30Z</time></trkpt><trkpt lat="43.161971629590596" lon="11.472877021916524"><ele>173.0</ele><time>2026-04-11T02:15:33Z</time></trkpt><trkpt lat="43.16192455937113" lon="11.472975191568889"><ele>174.0</ele><time>2026-04-11T02:15:36Z</time></trkpt><trkpt lat="43.16187688672121" lon="11.473073496471077"><ele>175.0</ele><time>2026-04-11T02:15:39Z</time></trkpt><trkpt lat="43.16189211411233" lon="11.47318648993957"><ele>176.0</ele><time>2026-04-11T02:15:41Z</time></trkpt><trkpt lat="43.1618534259509" lon="11.473289507556292"><ele>177.0</ele><time>2026-04-11T02:15:44Z</time></trkpt><trkpt lat="43.161828706530635" lon="11.473408021857317"><ele>178.0</ele><time>2026-04-11T02:15:47Z</time></trkpt><trkpt lat="43.16183381722519" lon="11.47351371408154"><ele>178.0</ele><time>2026-04-11T02:15:50Z</time></trkpt><trkpt lat="43.16185336139842" lon="11.473619146272693"><ele>178.0</ele><time>2026-04-11T02:15:53Z</time></trkpt><trkpt lat="43.161858457562836" lon="11.47371681243147"><ele>178.0</ele><time>2026-04-11T02:15:56Z</time></trkpt><trkpt lat="43.161888144299816" lon="11.473815667765534"><ele>178.0</ele><time>2026-04-11T02:15:59Z</time></trkpt><trkpt lat="43.16191939735157" lon="11.47391607979363"><ele>178.0</ele><time>2026-04-11T02:16:02Z</time></trkpt><trkpt lat="43.16194132570544" lon="11.474026223410636"><ele>178.0</ele><time>2026-04-11T02:16:05Z</time></trkpt><trkpt lat="43.16194473181394" lon="11.474132789152424"><ele>178.33333333333334</ele><time>2026-04-11T02:16:08Z</time></trkpt><trkpt lat="43.1619220230579" lon="11.474237829584368"><ele>178.66666666666669</ele><time>2026-04-11T02:16:11Z</time></trkpt><trkpt lat="43.16191976544082" lon="11.474334905762271"><ele>179.0</ele><time>2026-04-11T02:16:13Z</time></trkpt><trkpt lat="43.161927577899135" lon="11.474425837761933"><ele>179.33333333333334</ele><time>2026-04-11T02:16:15Z</time></trkpt><trkpt lat="43.16194565965886" lon="11.474513054123765"><ele>179.66666666666666</ele><time>2026-04-11T02:16:17Z</time></trkpt><trkpt lat="43.161968604161665" lon="11.474640818714294"><ele>180.0</ele><time>2026-04-11T02:16:20Z</time></trkpt><trkpt lat="43.16201451390585" lon="11.474720823632895"><ele>180.0</ele><time>2026-04-11T02:16:22Z</time></trkpt><trkpt lat="43.16206952465741" lon="11.47478127293936"><ele>180.0</ele><time>2026-04-11T02:16:24Z</time></trkpt><trkpt lat="43.16211780721305" lon="11.47484378721112"><ele>180.0</ele><time>2026-04-11T02:16:26Z</time></trkpt><trkpt lat="43.1621732587622" lon="11.47489647815074"><ele>180.0</ele><time>2026-04-11T02:16:28Z</time></trkpt><trkpt lat="43.16223104811097" lon="11.474945869729828"><ele>180.0</ele><time>2026-04-11T02:16:30Z</time></trkpt><trkpt lat="43.16229094999454" lon="11.474974645269782"><ele>180.0</ele><time>2026-04-11T02:16:32Z</time></trkpt><trkpt lat="43.16238052588712" lon="11.474979793317093"><ele>180.0</ele><time>2026-04-11T02:16:35Z</time></trkpt><trkpt lat="43.16246999595855" lon="11.47497170302752"><ele>181.66666666666666</ele><time>2026-04-11T02:16:38Z</time></trkpt><trkpt lat="43.16253504053484" lon="11.474985323063095"><ele>183.33333333333334</ele><time>2026-04-11T02:16:40Z</time></trkpt><trkpt lat="43.162626605221305" lon="11.475022315076455"><ele>185.0</ele><time>2026-04-11T02:16:43Z</time></trkpt><trkpt lat="43.162706541687214" lon="11.475067182204443"><ele>186.66666666666669</ele><time>2026-04-11T02:16:45Z</time></trkpt><trkpt lat="43.16277763159342" lon="11.475117859113666"><ele>188.33333333333334</ele><time>2026-04-11T02:16:47Z</time></trkpt><trkpt lat="43.162855209713264" lon="11.475188094238602"><ele>190.0</ele><time>2026-04-11T02:16:49Z</time></trkpt><trkpt lat="43.16294634305922" lon="11.47523412103314"><ele>190.0</ele><time>2026-04-11T02:16:51Z</time></trkpt><trkpt lat="43.16304828916607" lon="11.475274569898094"><ele>190.0</ele><time>2026-04-11T02:16:53Z</time></trkpt><trkpt lat="43.16311604636565" lon="11.475330410644835"><ele>190.0</ele><time>2026-04-11T02:16:54Z</time></trkpt><trkpt lat="43.16321125062069" lon="11.475402702494442"><ele>190.0</ele><time>2026-04-11T02:16:56Z</time></trkpt><trkpt lat="43.163317504489235" lon="11.475457522582701"><ele>190.0</ele><time>2026-04-11T02:16:58Z</time></trkpt><trkpt lat="43.16343630344566" lon="11.475517682473168"><ele>189.5</ele><time>2026-04-11T02:17:00Z</time></trkpt><trkpt lat="43.163495621178505" lon="11.475547720281261"><ele>189.0</ele><time>2026-04-11T02:17:01Z</time></trkpt><trkpt lat="43.16355633178218" lon="11.47557486092468"><ele>188.5</ele><time>2026-04-11T02:17:02Z</time></trkpt><trkpt lat="43.163622069734146" lon="11.475599942733734"><ele>188.0</ele><time>2026-04-11T02:17:03Z</time></trkpt><trkpt lat="43.163744476876744" lon="11.475623363860716"><ele>187.5</ele><time>2026-04-11T02:17:05Z</time></trkpt><trkpt lat="43.16380455840546" lon="11.475653607179945"><ele>187.0</ele><time>2026-04-11T02:17:06Z</time></trkpt><trkpt lat="43.16387220804513" lon="11.475709268965563"><ele>187.0</ele><time>2026-04-11T02:17:07Z</time></trkpt><trkpt lat="43.163928866059294" lon="11.475748523556925"><ele>187.0</ele><time>2026-04-11T02:17:08Z</time></trkpt><trkpt lat="43.16399912526511" lon="11.475787953311256"><ele>187.0</ele><time>2026-04-11T02:17:09Z</time></trkpt><trkpt lat="43.1640819658669" lon="11.47580548486654"><ele>187.0</ele><time>2026-04-11T02:17:10Z</time></trkpt><trkpt lat="43.16416577309344" lon="11.475846249692287"><ele>187.0</ele><time>2026-04-11T02:17:11Z</time></trkpt><trkpt lat="43.16425356393683" lon="11.475897345712212"><ele>187.0</ele><time>2026-04-11T02:17:12Z</time></trkpt><trkpt lat="43.16434169295463" lon="11.475934499240962"><ele>187.0</ele><time>2026-04-11T02:17:13Z</time></trkpt><trkpt lat="43.16441086597527" lon="11.476016007055073"><ele>187.0</ele><time>2026-04-11T02:17:14Z</time></trkpt><trkpt lat="43.164490688347904" lon="11.476055409580042"><ele>187.0</ele><time>2026-04-11T02:17:15Z</time></trkpt><trkpt lat="43.16456434571865" lon="11.476087722642257"><ele>187.0</ele><time>2026-04-11T02:17:16Z</time></trkpt><trkpt lat="43.164635913584355" lon="11.476115594912805"><ele>187.0</ele><time>2026-04-11T02:17:17Z</time></trkpt><trkpt lat="43.164718075921414" lon="11.476144286521363"><ele>187.0</ele><time>2026-04-11T02:17:18Z</time></trkpt><trkpt lat="43.1647938661482" lon="11.476170695542315"><ele>187.0</ele><time>2026-04-11T02:17:19Z</time></trkpt><trkpt lat="43.164870822406215" lon="11.476197288985922"><ele>187.0</ele><time>2026-04-11T02:17:20Z</time></trkpt><trkpt lat="43.164943270368084" lon="11.47622232451615"><ele>187.0</ele><time>2026-04-11T02:17:21Z</time></trkpt><trkpt lat="43.165009527107465" lon="11.47624514473994"><ele>187.0</ele><time>2026-04-11T02:17:22Z</time></trkpt><trkpt lat="43.16512044250366" lon="11.476279861759336"><ele>187.0</ele><time>2026-04-11T02:17:24Z</time></trkpt><trkpt lat="43.16521528785287" lon="11.47630697306781"><ele>187.0</ele><time>2026-04-11T02:17:26Z</time></trkpt><trkpt lat="43.165303861940984" lon="11.476333092297837"><ele>186.39999999999998</ele><time>2026-04-11T02:17:28Z</time></trkpt><trkpt lat="43.16541176053379" lon="11.47638117917623"><ele>185.79999999999998</ele><time>2026-04-11T02:17:30Z</time></trkpt><trkpt lat="43.165484799627414" lon="11.476428305328614"><ele>185.2</ele><time>2026-04-11T02:17:32Z</time></trkpt><trkpt lat="43.165579763956565" lon="11.476471847771409"><ele>184.6</ele><time>2026-04-11T02:17:34Z</time></trkpt><trkpt lat="43.165664605966356" lon="11.476551572540023"><ele>184.0</ele><time>2026-04-11T02:17:36Z</time></trkpt><trkpt lat="43.16575971660935" lon="11.476613882858363"><ele>185.39999999999998</ele><time>2026-04-11T02:17:38Z</time></trkpt><trkpt lat="43.16585585951602" lon="11.476674132252914"><ele>186.8</ele><time>2026-04-11T02:17:40Z</time></trkpt><trkpt lat="43.1659477181247" lon="11.476733295641118"><ele>188.2</ele><time>2026-04-11T02:17:42Z</time></trkpt><trkpt lat="43.166021501578584" lon="11.476783132331994"><ele>189.60000000000002</ele><time>2026-04-11T02:17:44Z</time></trkpt><trkpt lat="43.16610949292996" lon="11.476842565685162"><ele>191.0</ele><time>2026-04-11T02:17:46Z</time></trkpt><trkpt lat="43.16620067249632" lon="11.476879403655659"><ele>191.0</ele><time>2026-04-11T02:17:48Z</time></trkpt><trkpt lat="43.16626562587753" lon="11.47694886870828"><ele>191.0</ele><time>2026-04-11T02:17:50Z</time></trkpt><trkpt lat="43.166344079881426" lon="11.477003135402676"><ele>191.0</ele><time>2026-04-11T02:17:52Z</time></trkpt><trkpt lat="43.16642659456257" lon="11.477034131759483"><ele>191.0</ele><time>2026-04-11T02:17:54Z</time></trkpt><trkpt lat="43.166495871532064" lon="11.477095558912401"><ele>191.0</ele><time>2026-04-11T02:17:56Z</time></trkpt><trkpt lat="43.16656530820057" lon="11.477150679632114"><ele>191.0</ele><time>2026-04-11T02:17:58Z</time></trkpt><trkpt lat="43.16662402973141" lon="11.477230046273052"><ele>191.4</ele><time>2026-04-11T02:18:00Z</time></trkpt><trkpt lat="43.16670225548846" lon="11.477321671783262"><ele>191.8</ele><time>2026-04-11T02:18:02Z</time></trkpt><trkpt lat="43.166764519634214" lon="11.477375050243614"><ele>192.20000000000002</ele><time>2026-04-11T02:18:04Z</time></trkpt><trkpt lat="43.16684192432949" lon="11.477455064223511"><ele>192.60000000000002</ele><time>2026-04-11T02:18:06Z</time></trkpt><trkpt lat="43.166932283271485" lon="11.477545428315583"><ele>193.0</ele><time>2026-04-11T02:18:08Z</time></trkpt><trkpt lat="43.16703160671072" lon="11.477636383055072"><ele>193.00000000000003</ele><time>2026-04-11T02:18:10Z</time></trkpt><trkpt lat="43.16707472632674" lon="11.477715498342855"><ele>193.0</ele><time>2026-04-11T02:18:11Z</time></trkpt><trkpt lat="43.16714593370985" lon="11.477769237561526"><ele>193.0</ele><time>2026-04-11T02:18:12Z</time></trkpt><trkpt lat="43.16721587868771" lon="11.477800397792358"><ele>193.0</ele><time>2026-04-11T02:18:13Z</time></trkpt><trkpt lat="43.16728795175589" lon="11.477824059442664"><ele>193.0</ele><time>2026-04-11T02:18:14Z</time></trkpt><trkpt lat="43.167361296138864" lon="11.477840044449549"><ele>193.00000000000003</ele><time>2026-04-11T02:18:15Z</time></trkpt><trkpt lat="43.167433991623554" lon="11.477845225130233"><ele>193.0</ele><time>2026-04-11T02:18:16Z</time></trkpt><trkpt lat="43.167562194512314" lon="11.477830217219688"><ele>193.16666666666666</ele><time>2026-04-11T02:18:18Z</time></trkpt><trkpt lat="43.16766149935315" lon="11.477822462864372"><ele>193.33333333333331</ele><time>2026-04-11T02:18:20Z</time></trkpt><trkpt lat="43.16775326121678" lon="11.47782269648109"><ele>193.5</ele><time>2026-04-11T02:18:22Z</time></trkpt><trkpt lat="43.16786961563643" lon="11.47783852977295"><ele>193.66666666666669</ele><time>2026-04-11T02:18:25Z</time></trkpt><trkpt lat="43.16793820677917" lon="11.477836413293925"><ele>193.83333333333334</ele><time>2026-04-11T02:18:27Z</time></trkpt><trkpt lat="43.168008892915964" lon="11.477834232169915"><ele>194.0</ele><time>2026-04-11T02:18:29Z</time></trkpt><trkpt lat="43.16808188979819" lon="11.477833973519974"><ele>194.00000000000003</ele><time>2026-04-11T02:18:31Z</time></trkpt><trkpt lat="43.16815735457342" lon="11.477835600954016"><ele>194.0</ele><time>2026-04-11T02:18:33Z</time></trkpt><trkpt lat="43.16823925992367" lon="11.47784386277538"><ele>194.0</ele><time>2026-04-11T02:18:35Z</time></trkpt><trkpt lat="43.168323237678955" lon="11.477859647231522"><ele>194.0</ele><time>2026-04-11T02:18:37Z</time></trkpt><trkpt lat="43.168416979894666" lon="11.477854130173368"><ele>194.00000000000003</ele><time>2026-04-11T02:18:39Z</time></trkpt><trkpt lat="43.16850839117548" lon="11.47788433250152"><ele>194.0</ele><time>2026-04-11T02:18:41Z</time></trkpt><trkpt lat="43.16860289118586" lon="11.47790211095069"><ele>194.39999999999998</ele><time>2026-04-11T02:18:43Z</time></trkpt><trkpt lat="43.16869509696075" lon="11.477910967448906"><ele>194.8</ele><time>2026-04-11T02:18:45Z</time></trkpt><trkpt lat="43.16878218327992" lon="11.47794581532239"><ele>195.2</ele><time>2026-04-11T02:18:47Z</time></trkpt><trkpt lat="43.1689112259189" lon="11.47797667204088"><ele>195.60000000000002</ele><time>2026-04-11T02:18:50Z</time></trkpt><trkpt lat="43.168993658455335" lon="11.478011116601925"><ele>196.0</ele><time>2026-04-11T02:18:52Z</time></trkpt><trkpt lat="43.16907661766106" lon="11.478039121667678"><ele>195.99999999999997</ele><time>2026-04-11T02:18:54Z</time></trkpt><trkpt lat="43.16916047901958" lon="11.478078058715354"><ele>196.0</ele><time>2026-04-11T02:18:56Z</time></trkpt><trkpt lat="43.169243241387775" lon="11.478129072298234"><ele>196.0</ele><time>2026-04-11T02:18:58Z</time></trkpt><trkpt lat="43.169313280027716" lon="11.478200281176504"><ele>196.0</ele><time>2026-04-11T02:19:00Z</time></trkpt><trkpt lat="43.169378611372444" lon="11.478258589844897"><ele>195.99999999999997</ele><time>2026-04-11T02:19:02Z</time></trkpt><trkpt lat="43.16942959923741" lon="11.478369558131007"><ele>196.0</ele><time>2026-04-11T02:19:04Z</time></trkpt><trkpt lat="43.1694726153833" lon="11.478483248502624"><ele>195.99999999999997</ele><time>2026-04-11T02:19:06Z</time></trkpt><trkpt lat="43.1695215286833" lon="11.478579361976017"><ele>196.0</ele><time>2026-04-11T02:19:08Z</time></trkpt><trkpt lat="43.16956809243295" lon="11.478681785524428"><ele>196.0</ele><time>2026-04-11T02:19:10Z</time></trkpt><trkpt lat="43.169622512275346" lon="11.478775142537955"><ele>196.0</ele><time>2026-04-11T02:19:12Z</time></trkpt><trkpt lat="43.16967114699677" lon="11.478876640712235"><ele>195.99999999999997</ele><time>2026-04-11T02:19:14Z</time></trkpt><trkpt lat="43.169717549454084" lon="11.478979178998692"><ele>196.0</ele><time>2026-04-11T02:19:16Z</time></trkpt><trkpt lat="43.16977506629945" lon="11.479075983343995"><ele>196.83333333333331</ele><time>2026-04-11T02:19:18Z</time></trkpt><trkpt lat="43.16983897389349" lon="11.479165633903698"><ele>197.66666666666666</ele><time>2026-04-11T02:19:20Z</time></trkpt><trkpt lat="43.16990641107433" lon="11.479252327293132"><ele>198.5</ele><time>2026-04-11T02:19:22Z</time></trkpt><trkpt lat="43.16997768446193" lon="11.479317856388473"><ele>199.33333333333331</ele><time>2026-04-11T02:19:24Z</time></trkpt><trkpt lat="43.17005733643944" lon="11.47936126001851"><ele>200.16666666666666</ele><time>2026-04-11T02:19:26Z</time></trkpt><trkpt lat="43.170139878569046" lon="11.479413489164163"><ele>201.0</ele><time>2026-04-11T02:19:28Z</time></trkpt><trkpt lat="43.17022094920198" lon="11.479455553372505"><ele>201.0</ele><time>2026-04-11T02:19:30Z</time></trkpt><trkpt lat="43.17029677210784" lon="11.479494915929475"><ele>201.0</ele><time>2026-04-11T02:19:32Z</time></trkpt><trkpt lat="43.1703680955079" lon="11.479549938420128"><ele>201.0</ele><time>2026-04-11T02:19:34Z</time></trkpt><trkpt lat="43.17046929551149" lon="11.479570048731919"><ele>201.0</ele><time>2026-04-11T02:19:37Z</time></trkpt><trkpt lat="43.17056068401907" lon="11.479595372037048"><ele>201.0</ele><time>2026-04-11T02:19:39Z</time></trkpt><trkpt lat="43.170647056684004" lon="11.479652848496585"><ele>201.60000000000002</ele><time>2026-04-11T02:19:41Z</time></trkpt><trkpt lat="43.170737968257406" lon="11.479719172181335"><ele>202.2</ele><time>2026-04-11T02:19:43Z</time></trkpt><trkpt lat="43.1708081507893" lon="11.479792174279167"><ele>202.8</ele><time>2026-04-11T02:19:45Z</time></trkpt><trkpt lat="43.17086827594789" lon="11.479898439237353"><ele>203.39999999999998</ele><time>2026-04-11T02:19:47Z</time></trkpt><trkpt lat="43.17091861462248" lon="11.48001365124276"><ele>204.0</ele><time>2026-04-11T02:19:49Z</time></trkpt><trkpt lat="43.170971238483816" lon="11.480144955036629"><ele>204.0</ele><time>2026-04-11T02:19:51Z</time></trkpt><trkpt lat="43.17099397784474" lon="11.480300743897365"><ele>204.0</ele><time>2026-04-11T02:19:53Z</time></trkpt><trkpt lat="43.17102604646024" lon="11.480428215472969"><ele>204.0</ele><time>2026-04-11T02:19:55Z</time></trkpt><trkpt lat="43.17105324197474" lon="11.48056327579398"><ele>204.0</ele><time>2026-04-11T02:19:57Z</time></trkpt><trkpt lat="43.17107672231809" lon="11.480701253928753"><ele>204.0</ele><time>2026-04-11T02:19:59Z</time></trkpt><trkpt lat="43.171106549383104" lon="11.480830020493448"><ele>203.83333333333334</ele><time>2026-04-11T02:20:01Z</time></trkpt><trkpt lat="43.17112764343099" lon="11.480963285196513"><ele>203.66666666666669</ele><time>2026-04-11T02:20:03Z</time></trkpt><trkpt lat="43.17115353290763" lon="11.481076329607207"><ele>203.5</ele><time>2026-04-11T02:20:05Z</time></trkpt><trkpt lat="43.17116517041554" lon="11.481174175643234"><ele>203.33333333333334</ele><time>2026-04-11T02:20:07Z</time></trkpt><trkpt lat="43.17117850683701" lon="11.481287851239424"><ele>203.16666666666669</ele><time>2026-04-11T02:20:09Z</time></trkpt><trkpt lat="43.171198837020306" lon="11.481402882054883"><ele>203.0</ele><time>2026-04-11T02:20:11Z</time></trkpt><trkpt lat="43.171224244432494" lon="11.48150943248369"><ele>203.00000000000003</ele><time>2026-04-11T02:20:13Z</time></trkpt><trkpt lat="43.17123548495215" lon="11.481600052347549"><ele>203.0</ele><time>2026-04-11T02:20:16Z</time></trkpt><trkpt lat="43.171246401159834" lon="11.481693608630502"><ele>203.0</ele><time>2026-04-11T02:20:18Z</time></trkpt><trkpt lat="43.171256721648035" lon="11.481780335703688"><ele>203.0</ele><time>2026-04-11T02:20:21Z</time></trkpt><trkpt lat="43.17127101014651" lon="11.48190017149442"><ele>203.00000000000003</ele><time>2026-04-11T02:20:23Z</time></trkpt><trkpt lat="43.171288239523314" lon="11.482027215241112"><ele>203.0</ele><time>2026-04-11T02:20:26Z</time></trkpt><trkpt lat="43.17133537022019" lon="11.48214351027156"><ele>202.00000000000003</ele><time>2026-04-11T02:20:29Z</time></trkpt><trkpt lat="43.1713662869523" lon="11.482269591753933"><ele>201.0</ele><time>2026-04-11T02:20:32Z</time></trkpt><trkpt lat="43.17141732156066" lon="11.482379940114681"><ele>200.0</ele><time>2026-04-11T02:20:35Z</time></trkpt><trkpt lat="43.171461226088454" lon="11.482460664578774"><ele>199.0</ele><time>2026-04-11T02:20:37Z</time></trkpt><trkpt lat="43.17150922434046" lon="11.482550636901044"><ele>198.00000000000003</ele><time>2026-04-11T02:20:39Z</time></trkpt><trkpt lat="43.17155575597589" lon="11.48265444164958"><ele>197.0</ele><time>2026-04-11T02:20:41Z</time></trkpt><trkpt lat="43.1715964087108" lon="11.482761251007053"><ele>199.8</ele><time>2026-04-11T02:20:44Z</time></trkpt><trkpt lat="43.171636405412194" lon="11.482862232983749"><ele>202.6</ele><time>2026-04-11T02:20:46Z</time></trkpt><trkpt lat="43.171682639224414" lon="11.48295930690823"><ele>205.4</ele><time>2026-04-11T02:20:48Z</time></trkpt><trkpt lat="43.17174267298839" lon="11.483084932332915"><ele>208.20000000000002</ele><time>2026-04-11T02:20:50Z</time></trkpt><trkpt lat="43.17180821971578" lon="11.483166812861446"><ele>211.0</ele><time>2026-04-11T02:20:52Z</time></trkpt><trkpt lat="43.17190309326402" lon="11.483247364845612"><ele>210.99999999999997</ele><time>2026-04-11T02:20:54Z</time></trkpt><trkpt lat="43.171959823570575" lon="11.48331365224632"><ele>211.0</ele><time>2026-04-11T02:20:56Z</time></trkpt><trkpt lat="43.17203550530561" lon="11.483386851784871"><ele>211.0</ele><time>2026-04-11T02:20:58Z</time></trkpt><trkpt lat="43.1720923626346" lon="11.483459431933651"><ele>211.0</ele><time>2026-04-11T02:21:00Z</time></trkpt><trkpt lat="43.17216368878719" lon="11.483521164476056"><ele>210.99999999999997</ele><time>2026-04-11T02:21:02Z</time></trkpt><trkpt lat="43.17222982588173" lon="11.483582000615911"><ele>211.0</ele><time>2026-04-11T02:21:04Z</time></trkpt><trkpt lat="43.17227446270798" lon="11.483656698673691"><ele>210.99999999999997</ele><time>2026-04-11T02:21:06Z</time></trkpt><trkpt lat="43.1723407215617" lon="11.483696918631903"><ele>211.0</ele><time>2026-04-11T02:21:08Z</time></trkpt><trkpt lat="43.172390130491785" lon="11.483750467775643"><ele>211.0</ele><time>2026-04-11T02:21:10Z</time></trkpt><trkpt lat="43.17245953272378" lon="11.483786637862616"><ele>211.0</ele><time>2026-04-11T02:21:12Z</time></trkpt><trkpt lat="43.17255613489218" lon="11.483833294216813"><ele>210.99999999999997</ele><time>2026-04-11T02:21:15Z</time></trkpt><trkpt lat="43.17264555414839" lon="11.48385449889607"><ele>211.0</ele><time>2026-04-11T02:21:18Z</time></trkpt><trkpt lat="43.172712724848836" lon="11.48389099936724"><ele>213.8</ele><time>2026-04-11T02:21:20Z</time></trkpt><trkpt lat="43.172784817496684" lon="11.483889281549931"><ele>216.60000000000002</ele><time>2026-04-11T02:21:23Z</time></trkpt><trkpt lat="43.172916963134526" lon="11.483953312862539"><ele>219.4</ele><time>2026-04-11T02:21:27Z</time></trkpt><trkpt lat="43.1729920962314" lon="11.483991777738947"><ele>222.2</ele><time>2026-04-11T02:21:30Z</time></trkpt><trkpt lat="43.17308251318286" lon="11.484025014578222"><ele>225.0</ele><time>2026-04-11T02:21:33Z</time></trkpt><trkpt lat="43.17314887071125" lon="11.484053617444244"><ele>225.66666666666666</ele><time>2026-04-11T02:21:35Z</time></trkpt><trkpt lat="43.17321973886885" lon="11.484060783448886"><ele>226.33333333333331</ele><time>2026-04-11T02:21:37Z</time></trkpt><trkpt lat="43.17328965692748" lon="11.484085329804655"><ele>227.0</ele><time>2026-04-11T02:21:39Z</time></trkpt><trkpt lat="43.17337301076964" lon="11.484117527996014"><ele>227.66666666666666</ele><time>2026-04-11T02:21:41Z</time></trkpt><trkpt lat="43.173450857384026" lon="11.484136527203164"><ele>228.33333333333331</ele><time>2026-04-11T02:21:43Z</time></trkpt><trkpt lat="43.173537245000006" lon="11.48416202358696"><ele>229.0</ele><time>2026-04-11T02:21:45Z</time></trkpt><trkpt lat="43.17361083324088" lon="11.484148298772388"><ele>228.99999999999997</ele><time>2026-04-11T02:21:47Z</time></trkpt><trkpt lat="43.17370745207445" lon="11.484194355221458"><ele>229.0</ele><time>2026-04-11T02:21:49Z</time></trkpt><trkpt lat="43.173793119858125" lon="11.484231692066716"><ele>229.0</ele><time>2026-04-11T02:21:51Z</time></trkpt><trkpt lat="43.17388126471723" lon="11.484264865484777"><ele>229.0</ele><time>2026-04-11T02:21:53Z</time></trkpt><trkpt lat="43.17396416067622" lon="11.484309007881293"><ele>228.99999999999997</ele><time>2026-04-11T02:21:55Z</time></trkpt><trkpt lat="43.174038233354544" lon="11.484334696932816"><ele>229.0</ele><time>2026-04-11T02:21:57Z</time></trkpt><trkpt lat="43.17410893935357" lon="11.4843602349262"><ele>228.99999999999997</ele><time>2026-04-11T02:21:59Z</time></trkpt><trkpt lat="43.174186110371956" lon="11.484375617864272"><ele>229.0</ele><time>2026-04-11T02:22:01Z</time></trkpt><trkpt lat="43.17426480485576" lon="11.48439675103801"><ele>229.0</ele><time>2026-04-11T02:22:03Z</time></trkpt><trkpt lat="43.17432615561715" lon="11.484418058592123"><ele>229.0</ele><time>2026-04-11T02:22:05Z</time></trkpt><trkpt lat="43.17439665450767" lon="11.484439718924287"><ele>228.99999999999997</ele><time>2026-04-11T02:22:07Z</time></trkpt><trkpt lat="43.174488697469194" lon="11.484450773967696"><ele>229.0</ele><time>2026-04-11T02:22:11Z</time></trkpt><trkpt lat="43.174552504041614" lon="11.484485623710338"><ele>229.0</ele><time>2026-04-11T02:22:13Z</time></trkpt><trkpt lat="43.17461504141306" lon="11.484542032984752"><ele>228.99999999999997</ele><time>2026-04-11T02:22:14Z</time></trkpt><trkpt lat="43.17470725557229" lon="11.48460557777872"><ele>228.99999999999997</ele><time>2026-04-11T02:22:15Z</time></trkpt><trkpt lat="43.174770668787076" lon="11.484640351021053"><ele>229.0</ele><time>2026-04-11T02:22:16Z</time></trkpt><trkpt lat="43.1748759936422" lon="11.484702350931737"><ele>229.0</ele><time>2026-04-11T02:22:18Z</time></trkpt><trkpt lat="43.17498282098055" lon="11.484768235088216"><ele>229.0</ele><time>2026-04-11T02:22:20Z</time></trkpt><trkpt lat="43.17508630942453" lon="11.484830845297598"><ele>228.99999999999997</ele><time>2026-04-11T02:22:22Z</time></trkpt><trkpt lat="43.17518409701594" lon="11.484896713661334"><ele>228.99999999999997</ele><time>2026-04-11T02:22:24Z</time></trkpt><trkpt lat="43.175312088374824" lon="11.485008311937646"><ele>229.0</ele><time>2026-04-11T02:22:26Z</time></trkpt><trkpt lat="43.175368875687255" lon="11.485047460136727"><ele>229.0</ele><time>2026-04-11T02:22:27Z</time></trkpt><trkpt lat="43.17546551677945" lon="11.484931099570277"><ele>229.0</ele><time>2026-04-11T02:22:30Z</time></trkpt><trkpt lat="43.17550961352763" lon="11.484841038230057"><ele>229.0</ele><time>2026-04-11T02:22:31Z</time></trkpt><trkpt lat="43.17554779856865" lon="11.48476367977142"><ele>229.0</ele><time>2026-04-11T02:22:32Z</time></trkpt><trkpt lat="43.1755865277795" lon="11.484676951341385"><ele>229.0</ele><time>2026-04-11T02:22:33Z</time></trkpt><trkpt lat="43.17563274478852" lon="11.484586129655744"><ele>229.0</ele><time>2026-04-11T02:22:34Z</time></trkpt><trkpt lat="43.17567726855181" lon="11.484494807529428"><ele>229.0</ele><time>2026-04-11T02:22:35Z</time></trkpt><trkpt lat="43.17570946593407" lon="11.484418124262879"><ele>229.0</ele><time>2026-04-11T02:22:36Z</time></trkpt><trkpt lat="43.17577210389934" lon="11.4843028586297"><ele>228.99999999999997</ele><time>2026-04-11T02:22:37Z</time></trkpt><trkpt lat="43.175800052382954" lon="11.48420394611668"><ele>229.0</ele><time>2026-04-11T02:22:38Z</time></trkpt><trkpt lat="43.175824400350365" lon="11.484114131405319"><ele>229.0</ele><time>2026-04-11T02:22:39Z</time></trkpt><trkpt lat="43.1758200547302" lon="11.484000097400756"><ele>229.0</ele><time>2026-04-11T02:22:40Z</time></trkpt><trkpt lat="43.175802428823424" lon="11.483880068174079"><ele>228.99999999999997</ele><time>2026-04-11T02:22:41Z</time></trkpt><trkpt lat="43.1758010223511" lon="11.483745048822444"><ele>229.0</ele><time>2026-04-11T02:22:42Z</time></trkpt><trkpt lat="43.175781641133405" lon="11.483620500284625"><ele>227.39999999999998</ele><time>2026-04-11T02:22:43Z</time></trkpt><trkpt lat="43.17576777343976" lon="11.483475252677865"><ele>225.79999999999998</ele><time>2026-04-11T02:22:44Z</time></trkpt><trkpt lat="43.17579028108609" lon="11.4833291566853"><ele>224.20000000000002</ele><time>2026-04-11T02:22:45Z</time></trkpt><trkpt lat="43.17578037172933" lon="11.483182130538506"><ele>222.60000000000002</ele><time>2026-04-11T02:22:46Z</time></trkpt><trkpt lat="43.17577089231878" lon="11.483041483128952"><ele>221.0</ele><time>2026-04-11T02:22:47Z</time></trkpt><trkpt lat="43.17575822436612" lon="11.482914750066358"><ele>220.16666666666669</ele><time>2026-04-11T02:22:48Z</time></trkpt><trkpt lat="43.175745158872076" lon="11.482810064365873"><ele>219.33333333333334</ele><time>2026-04-11T02:22:49Z</time></trkpt><trkpt lat="43.175712078571294" lon="11.482731893338602"><ele>218.5</ele><time>2026-04-11T02:22:50Z</time></trkpt><trkpt lat="43.17562944360409" lon="11.48260536253166"><ele>217.66666666666669</ele><time>2026-04-11T02:22:52Z</time></trkpt><trkpt lat="43.17561626760866" lon="11.482514321620384"><ele>216.83333333333334</ele><time>2026-04-11T02:22:53Z</time></trkpt><trkpt lat="43.17563812267584" lon="11.482395964461546"><ele>216.0</ele><time>2026-04-11T02:22:54Z</time></trkpt><trkpt lat="43.17565351679119" lon="11.482270168474383"><ele>214.5</ele><time>2026-04-11T02:22:55Z</time></trkpt><trkpt lat="43.17567217597586" lon="11.482143912959469"><ele>213.0</ele><time>2026-04-11T02:22:56Z</time></trkpt><trkpt lat="43.175695175274065" lon="11.482027158041959"><ele>211.5</ele><time>2026-04-11T02:22:57Z</time></trkpt><trkpt lat="43.175720664261725" lon="11.481906232700027"><ele>210.0</ele><time>2026-04-11T02:22:58Z</time></trkpt><trkpt lat="43.17574279564303" lon="11.481819306549442"><ele>208.5</ele><time>2026-04-11T02:22:59Z</time></trkpt><trkpt lat="43.17578065435782" lon="11.481735380997181"><ele>207.0</ele><time>2026-04-11T02:23:00Z</time></trkpt><trkpt lat="43.17583233151046" lon="11.481658886561792"><ele>207.0</ele><time>2026-04-11T02:23:01Z</time></trkpt><trkpt lat="43.17589345500945" lon="11.481633861416109"><ele>207.0</ele><time>2026-04-11T02:23:02Z</time></trkpt><trkpt lat="43.175950533021336" lon="11.481574286616151"><ele>207.0</ele><time>2026-04-11T02:23:03Z</time></trkpt><trkpt lat="43.176011987817404" lon="11.481493840179228"><ele>207.0</ele><time>2026-04-11T02:23:04Z</time></trkpt><trkpt lat="43.17605761479163" lon="11.481381593157227"><ele>207.0</ele><time>2026-04-11T02:23:05Z</time></trkpt><trkpt lat="43.176088168773674" lon="11.481247579883211"><ele>207.0</ele><time>2026-04-11T02:23:06Z</time></trkpt><trkpt lat="43.17611462354483" lon="11.48111564741202"><ele>205.2</ele><time>2026-04-11T02:23:07Z</time></trkpt><trkpt lat="43.176134694597735" lon="11.480976142111713"><ele>203.39999999999998</ele><time>2026-04-11T02:23:08Z</time></trkpt><trkpt lat="43.17613290198209" lon="11.48085811162316"><ele>201.60000000000002</ele><time>2026-04-11T02:23:09Z</time></trkpt><trkpt lat="43.176146064526144" lon="11.480722026972881"><ele>199.8</ele><time>2026-04-11T02:23:10Z</time></trkpt><trkpt lat="43.17616059975222" lon="11.480597384781728"><ele>198.0</ele><time>2026-04-11T02:23:11Z</time></trkpt><trkpt lat="43.176189332608935" lon="11.48048904476883"><ele>197.2857142857143</ele><time>2026-04-11T02:23:12Z</time></trkpt><trkpt lat="43.17620305562808" lon="11.480384978414198"><ele>196.57142857142856</ele><time>2026-04-11T02:23:13Z</time></trkpt><trkpt lat="43.176218777080166" lon="11.480297055169178"><ele>195.85714285714286</ele><time>2026-04-11T02:23:14Z</time></trkpt><trkpt lat="43.17622342100092" lon="11.480203332935718"><ele>195.14285714285717</ele><time>2026-04-11T02:23:15Z</time></trkpt><trkpt lat="43.176286977899686" lon="11.480138627438036"><ele>194.42857142857144</ele><time>2026-04-11T02:23:16Z</time></trkpt><trkpt lat="43.17633358510463" lon="11.480071976802096"><ele>193.71428571428572</ele><time>2026-04-11T02:23:17Z</time></trkpt><trkpt lat="43.17639178807887" lon="11.479995811736927"><ele>193.0</ele><time>2026-04-11T02:23:18Z</time></trkpt><trkpt lat="43.17645972829125" lon="11.479910126038543"><ele>193.33333333333331</ele><time>2026-04-11T02:23:19Z</time></trkpt><trkpt lat="43.17652360225511" lon="11.479823221804583"><ele>193.66666666666666</ele><time>2026-04-11T02:23:20Z</time></trkpt><trkpt lat="43.176579480892805" lon="11.479735040265469"><ele>194.0</ele><time>2026-04-11T02:23:21Z</time></trkpt><trkpt lat="43.17662851672833" lon="11.479634274263688"><ele>194.33333333333331</ele><time>2026-04-11T02:23:22Z</time></trkpt><trkpt lat="43.1766725585002" lon="11.479525171909081"><ele>194.66666666666666</ele><time>2026-04-11T02:23:23Z</time></trkpt><trkpt lat="43.176690474767746" lon="11.479405777451412"><ele>195.0</ele><time>2026-04-11T02:23:24Z</time></trkpt><trkpt lat="43.17670444773872" lon="11.479289065328018"><ele>193.4</ele><time>2026-04-11T02:23:25Z</time></trkpt><trkpt lat="43.17672159007992" lon="11.479167654482326"><ele>191.8</ele><time>2026-04-11T02:23:26Z</time></trkpt><trkpt lat="43.17670097296777" lon="11.479042271791606"><ele>190.2</ele><time>2026-04-11T02:23:27Z</time></trkpt><trkpt lat="43.17669084888242" lon="11.478922214218278"><ele>188.6</ele><time>2026-04-11T02:23:28Z</time></trkpt><trkpt lat="43.17667230367896" lon="11.478802287945452"><ele>187.0</ele><time>2026-04-11T02:23:29Z</time></trkpt><trkpt lat="43.17666337531937" lon="11.47867715387275"><ele>185.39999999999998</ele><time>2026-04-11T02:23:30Z</time></trkpt><trkpt lat="43.17666140314276" lon="11.478542372509855"><ele>183.79999999999998</ele><time>2026-04-11T02:23:31Z</time></trkpt><trkpt lat="43.17666875113717" lon="11.478407669278612"><ele>182.2</ele><time>2026-04-11T02:23:32Z</time></trkpt><trkpt lat="43.17667526374955" lon="11.478263936382719"><ele>180.6</ele><time>2026-04-11T02:23:33Z</time></trkpt><trkpt lat="43.17668867522262" lon="11.478128057046447"><ele>179.0</ele><time>2026-04-11T02:23:34Z</time></trkpt><trkpt lat="43.17670451403659" lon="11.478007141682877"><ele>177.33333333333331</ele><time>2026-04-11T02:23:35Z</time></trkpt><trkpt lat="43.17673966514687" lon="11.477899978126247"><ele>175.66666666666666</ele><time>2026-04-11T02:23:36Z</time></trkpt><trkpt lat="43.17676142654395" lon="11.477798373069538"><ele>174.0</ele><time>2026-04-11T02:23:37Z</time></trkpt><trkpt lat="43.176793530294155" lon="11.477709453859982"><ele>172.33333333333334</ele><time>2026-04-11T02:23:38Z</time></trkpt><trkpt lat="43.176836335140216" lon="11.47761938881271"><ele>170.66666666666669</ele><time>2026-04-11T02:23:39Z</time></trkpt><trkpt lat="43.17690906767061" lon="11.477563363619284"><ele>169.0</ele><time>2026-04-11T02:23:40Z</time></trkpt><trkpt lat="43.176993086656765" lon="11.477543278000475"><ele>169.0</ele><time>2026-04-11T02:23:41Z</time></trkpt><trkpt lat="43.17709180970271" lon="11.477518541803382"><ele>169.0</ele><time>2026-04-11T02:23:42Z</time></trkpt><trkpt lat="43.17719296067689" lon="11.477497002293783"><ele>169.0</ele><time>2026-04-11T02:23:43Z</time></trkpt><trkpt lat="43.17729774824392" lon="11.477478554215741"><ele>169.0</ele><time>2026-04-11T02:23:44Z</time></trkpt><trkpt lat="43.17740921458693" lon="11.47745975436543"><ele>169.0</ele><time>2026-04-11T02:23:45Z</time></trkpt><trkpt lat="43.17752291725569" lon="11.477441511599675"><ele>167.0</ele><time>2026-04-11T02:23:46Z</time></trkpt><trkpt lat="43.1776431193363" lon="11.477424808525747"><ele>165.0</ele><time>2026-04-11T02:23:47Z</time></trkpt><trkpt lat="43.17775770365986" lon="11.477408886043444"><ele>163.0</ele><time>2026-04-11T02:23:48Z</time></trkpt><trkpt lat="43.17787457142489" lon="11.477392289382443"><ele>161.0</ele><time>2026-04-11T02:23:49Z</time></trkpt><trkpt lat="43.177990627145796" lon="11.477375485812459"><ele>161.0</ele><time>2026-04-11T02:23:50Z</time></trkpt><trkpt lat="43.178105683712964" lon="11.47733614047149"><ele>161.0</ele><time>2026-04-11T02:23:51Z</time></trkpt><trkpt lat="43.178218974143086" lon="11.477340763051872"><ele>161.0</ele><time>2026-04-11T02:23:52Z</time></trkpt><trkpt lat="43.178331949462695" lon="11.477320873472351"><ele>161.0</ele><time>2026-04-11T02:23:53Z</time></trkpt><trkpt lat="43.17844467941071" lon="11.47729695698869"><ele>160.20000000000002</ele><time>2026-04-11T02:23:54Z</time></trkpt><trkpt lat="43.17854697741385" lon="11.477254642600492"><ele>159.4</ele><time>2026-04-11T02:23:55Z</time></trkpt><trkpt lat="43.17865774839229" lon="11.477221213252086"><ele>158.6</ele><time>2026-04-11T02:23:56Z</time></trkpt><trkpt lat="43.17877044811501" lon="11.477205942440172"><ele>157.8</ele><time>2026-04-11T02:23:57Z</time></trkpt><trkpt lat="43.17887742421015" lon="11.477174914057672"><ele>157.0</ele><time>2026-04-11T02:23:58Z</time></trkpt><trkpt lat="43.17897687969695" lon="11.477125059914117"><ele>156.6</ele><time>2026-04-11T02:23:59Z</time></trkpt><trkpt lat="43.17908991763292" lon="11.477116867336287"><ele>156.2</ele><time>2026-04-11T02:24:00Z</time></trkpt><trkpt lat="43.17919560170313" lon="11.477091569853753"><ele>155.8</ele><time>2026-04-11T02:24:01Z</time></trkpt><trkpt lat="43.17928913640188" lon="11.47709141333344"><ele>155.4</ele><time>2026-04-11T02:24:02Z</time></trkpt><trkpt lat="43.179392272733025" lon="11.477095202233258"><ele>155.0</ele><time>2026-04-11T02:24:03Z</time></trkpt><trkpt lat="43.17948033171381" lon="11.477111622463031"><ele>155.0</ele><time>2026-04-11T02:24:04Z</time></trkpt><trkpt lat="43.1795794293213" lon="11.477132989741063"><ele>155.0</ele><time>2026-04-11T02:24:05Z</time></trkpt><trkpt lat="43.179673522629464" lon="11.477158256500177"><ele>155.0</ele><time>2026-04-11T02:24:06Z</time></trkpt><trkpt lat="43.17976105430319" lon="11.47718224269421"><ele>155.0</ele><time>2026-04-11T02:24:07Z</time></trkpt><trkpt lat="43.17984323365182" lon="11.477204762189205"><ele>155.0</ele><time>2026-04-11T02:24:08Z</time></trkpt><trkpt lat="43.179926591553844" lon="11.477228142292507"><ele>155.0</ele><time>2026-04-11T02:24:09Z</time></trkpt><trkpt lat="43.180008480100604" lon="11.477251718317515"><ele>155.0</ele><time>2026-04-11T02:24:10Z</time></trkpt><trkpt lat="43.18008552052634" lon="11.477273898668455"><ele>155.0</ele><time>2026-04-11T02:24:11Z</time></trkpt><trkpt lat="43.18016280554283" lon="11.477296149395878"><ele>155.0</ele><time>2026-04-11T02:24:12Z</time></trkpt><trkpt lat="43.180238859436386" lon="11.477316727376428"><ele>155.0</ele><time>2026-04-11T02:24:13Z</time></trkpt><trkpt lat="43.18031437502273" lon="11.477336736124704"><ele>155.0</ele><time>2026-04-11T02:24:14Z</time></trkpt><trkpt lat="43.1803904942815" lon="11.477355313226536"><ele>155.0</ele><time>2026-04-11T02:24:15Z</time></trkpt><trkpt lat="43.18046534417071" lon="11.4773718916732"><ele>155.0</ele><time>2026-04-11T02:24:16Z</time></trkpt><trkpt lat="43.18053885166505" lon="11.477388172779813"><ele>155.0</ele><time>2026-04-11T02:24:17Z</time></trkpt><trkpt lat="43.18061805945122" lon="11.47740483651339"><ele>155.0</ele><time>2026-04-11T02:24:18Z</time></trkpt><trkpt lat="43.18069671459473" lon="11.477420917138957"><ele>155.0</ele><time>2026-04-11T02:24:19Z</time></trkpt><trkpt lat="43.180772237766334" lon="11.477436357430888"><ele>155.0</ele><time>2026-04-11T02:24:20Z</time></trkpt><trkpt lat="43.180844651895335" lon="11.477451162083366"><ele>155.16666666666666</ele><time>2026-04-11T02:24:21Z</time></trkpt><trkpt lat="43.18091581339721" lon="11.477454546343276"><ele>155.33333333333331</ele><time>2026-04-11T02:24:22Z</time></trkpt><trkpt lat="43.1809862486212" lon="11.477467538984637"><ele>155.5</ele><time>2026-04-11T02:24:23Z</time></trkpt><trkpt lat="43.181062212384894" lon="11.477480832218303"><ele>155.66666666666666</ele><time>2026-04-11T02:24:24Z</time></trkpt><trkpt lat="43.181128724631215" lon="11.477515359715087"><ele>155.83333333333334</ele><time>2026-04-11T02:24:25Z</time></trkpt><trkpt lat="43.18126244711138" lon="11.477549767710727"><ele>156.0</ele><time>2026-04-11T02:24:27Z</time></trkpt><trkpt lat="43.181329559046596" lon="11.477567849417875"><ele>156.0</ele><time>2026-04-11T02:24:28Z</time></trkpt><trkpt lat="43.18140409579136" lon="11.477588908095429"><ele>156.0</ele><time>2026-04-11T02:24:29Z</time></trkpt><trkpt lat="43.181471797711744" lon="11.477608035713873"><ele>156.0</ele><time>2026-04-11T02:24:30Z</time></trkpt><trkpt lat="43.18153996183858" lon="11.477628304028856"><ele>156.0</ele><time>2026-04-11T02:24:31Z</time></trkpt><trkpt lat="43.18161087095324" lon="11.477649286375929"><ele>156.0</ele><time>2026-04-11T02:24:32Z</time></trkpt><trkpt lat="43.18167878070932" lon="11.477669381065347"><ele>156.0</ele><time>2026-04-11T02:24:33Z</time></trkpt><trkpt lat="43.18175067025929" lon="11.477690653498446"><ele>156.0</ele><time>2026-04-11T02:24:34Z</time></trkpt><trkpt lat="43.18181920820627" lon="11.477711042047684"><ele>156.0</ele><time>2026-04-11T02:24:35Z</time></trkpt><trkpt lat="43.181892710390194" lon="11.477734151261426"><ele>156.0</ele><time>2026-04-11T02:24:36Z</time></trkpt><trkpt lat="43.18195847953669" lon="11.477754829184715"><ele>156.0</ele><time>2026-04-11T02:24:37Z</time></trkpt><trkpt lat="43.182029025051605" lon="11.477777008730767"><ele>156.0</ele><time>2026-04-11T02:24:38Z</time></trkpt><trkpt lat="43.182097047619834" lon="11.477798057396479"><ele>156.0</ele><time>2026-04-11T02:24:39Z</time></trkpt><trkpt lat="43.18216483793929" lon="11.477817231764808"><ele>156.0</ele><time>2026-04-11T02:24:40Z</time></trkpt><trkpt lat="43.182233859008434" lon="11.477835917205486"><ele>156.0</ele><time>2026-04-11T02:24:41Z</time></trkpt><trkpt lat="43.18230403646533" lon="11.477849593073307"><ele>155.83333333333334</ele><time>2026-04-11T02:24:42Z</time></trkpt><trkpt lat="43.182379168404296" lon="11.477850553311034"><ele>155.66666666666666</ele><time>2026-04-11T02:24:43Z</time></trkpt><trkpt lat="43.18245746505071" lon="11.477818279784788"><ele>155.5</ele><time>2026-04-11T02:24:44Z</time></trkpt><trkpt lat="43.18252936910552" lon="11.477752877193085"><ele>155.33333333333331</ele><time>2026-04-11T02:24:45Z</time></trkpt><trkpt lat="43.182597800611994" lon="11.477691257008312"><ele>155.16666666666666</ele><time>2026-04-11T02:24:46Z</time></trkpt><trkpt lat="43.18266506622334" lon="11.477633589020995"><ele>155.0</ele><time>2026-04-11T02:24:47Z</time></trkpt><trkpt lat="43.18273272176866" lon="11.477575586876108"><ele>155.0</ele><time>2026-04-11T02:24:48Z</time></trkpt><trkpt lat="43.18279963675471" lon="11.477518221074769"><ele>155.0</ele><time>2026-04-11T02:24:49Z</time></trkpt><trkpt lat="43.18286631430683" lon="11.477461057418376"><ele>155.0</ele><time>2026-04-11T02:24:50Z</time></trkpt><trkpt lat="43.18293175493641" lon="11.47740495408131"><ele>155.0</ele><time>2026-04-11T02:24:51Z</time></trkpt><trkpt lat="43.182999121217705" lon="11.477347199833773"><ele>155.0</ele><time>2026-04-11T02:24:52Z</time></trkpt><trkpt lat="43.18305612030192" lon="11.477277841125058"><ele>155.0</ele><time>2026-04-11T02:24:53Z</time></trkpt><trkpt lat="43.18312163483662" lon="11.477226128543203"><ele>154.83333333333331</ele><time>2026-04-11T02:24:54Z</time></trkpt><trkpt lat="43.183188236852565" lon="11.477171225983488"><ele>154.66666666666666</ele><time>2026-04-11T02:24:55Z</time></trkpt><trkpt lat="43.18325478799471" lon="11.477108003655747"><ele>154.5</ele><time>2026-04-11T02:24:56Z</time></trkpt><trkpt lat="43.18332472461099" lon="11.477076757812211"><ele>154.33333333333334</ele><time>2026-04-11T02:24:57Z</time></trkpt><trkpt lat="43.183391663056454" lon="11.477022987138186"><ele>154.16666666666669</ele><time>2026-04-11T02:24:58Z</time></trkpt><trkpt lat="43.18344694665413" lon="11.476953865095334"><ele>154.0</ele><time>2026-04-11T02:24:59Z</time></trkpt><trkpt lat="43.183519070702786" lon="11.47692064223063"><ele>153.85714285714286</ele><time>2026-04-11T02:25:00Z</time></trkpt><trkpt lat="43.183583936823425" lon="11.47686853608265"><ele>153.71428571428572</ele><time>2026-04-11T02:25:01Z</time></trkpt><trkpt lat="43.18363873876375" lon="11.47680471975603"><ele>153.57142857142856</ele><time>2026-04-11T02:25:02Z</time></trkpt><trkpt lat="43.18370291406454" lon="11.47674754892459"><ele>153.42857142857144</ele><time>2026-04-11T02:25:03Z</time></trkpt><trkpt lat="43.18377349207173" lon="11.476716268953131"><ele>153.28571428571428</ele><time>2026-04-11T02:25:04Z</time></trkpt><trkpt lat="43.183827391528105" lon="11.47664902297034"><ele>153.14285714285714</ele><time>2026-04-11T02:25:05Z</time></trkpt><trkpt lat="43.18389206911551" lon="11.47660047164934"><ele>153.0</ele><time>2026-04-11T02:25:06Z</time></trkpt><trkpt lat="43.183978496144626" lon="11.476558102701771"><ele>153.16666666666666</ele><time>2026-04-11T02:25:07Z</time></trkpt><trkpt lat="43.18408460626726" lon="11.476454642280213"><ele>153.33333333333334</ele><time>2026-04-11T02:25:09Z</time></trkpt><trkpt lat="43.18414837605823" lon="11.476402442631327"><ele>153.5</ele><time>2026-04-11T02:25:10Z</time></trkpt><trkpt lat="43.1842093615476" lon="11.476351020437331"><ele>153.66666666666669</ele><time>2026-04-11T02:25:11Z</time></trkpt><trkpt lat="43.18427091275242" lon="11.476293750901243"><ele>153.83333333333334</ele><time>2026-04-11T02:25:12Z</time></trkpt><trkpt lat="43.184335009802886" lon="11.4762486323388"><ele>154.0</ele><time>2026-04-11T02:25:13Z</time></trkpt><trkpt lat="43.18439985030553" lon="11.476199584107722"><ele>154.0</ele><time>2026-04-11T02:25:14Z</time></trkpt><trkpt lat="43.184457545122804" lon="11.476145419544922"><ele>154.0</ele><time>2026-04-11T02:25:15Z</time></trkpt><trkpt lat="43.1845188464923" lon="11.47609691953037"><ele>154.0</ele><time>2026-04-11T02:25:16Z</time></trkpt><trkpt lat="43.18457991691296" lon="11.47605413390811"><ele>154.0</ele><time>2026-04-11T02:25:17Z</time></trkpt><trkpt lat="43.18463656354808" lon="11.475999980327714"><ele>154.0</ele><time>2026-04-11T02:25:18Z</time></trkpt><trkpt lat="43.18470075996243" lon="11.475951898904114"><ele>154.0</ele><time>2026-04-11T02:25:19Z</time></trkpt><trkpt lat="43.18475515080303" lon="11.475901123063768"><ele>154.0</ele><time>2026-04-11T02:25:20Z</time></trkpt><trkpt lat="43.1848133645207" lon="11.475851246701536"><ele>154.14285714285714</ele><time>2026-04-11T02:25:21Z</time></trkpt><trkpt lat="43.184872362749154" lon="11.475802679420465"><ele>154.28571428571428</ele><time>2026-04-11T02:25:22Z</time></trkpt><trkpt lat="43.18493024145657" lon="11.47575760468597"><ele>154.42857142857144</ele><time>2026-04-11T02:25:23Z</time></trkpt><trkpt lat="43.18498613216163" lon="11.475709281176709"><ele>154.57142857142856</ele><time>2026-04-11T02:25:24Z</time></trkpt><trkpt lat="43.18504037500127" lon="11.475659822570833"><ele>154.71428571428572</ele><time>2026-04-11T02:25:25Z</time></trkpt><trkpt lat="43.18510664315799" lon="11.475629519293834"><ele>154.85714285714286</ele><time>2026-04-11T02:25:26Z</time></trkpt><trkpt lat="43.18516312010754" lon="11.475582079084619"><ele>155.0</ele><time>2026-04-11T02:25:27Z</time></trkpt><trkpt lat="43.18521901664101" lon="11.475535126395204"><ele>155.0</ele><time>2026-04-11T02:25:28Z</time></trkpt><trkpt lat="43.1852665291434" lon="11.475471954086286"><ele>155.0</ele><time>2026-04-11T02:25:29Z</time></trkpt><trkpt lat="43.185329411954584" lon="11.475442394974438"><ele>155.0</ele><time>2026-04-11T02:25:30Z</time></trkpt><trkpt lat="43.18538532826912" lon="11.475395425672556"><ele>155.0</ele><time>2026-04-11T02:25:31Z</time></trkpt><trkpt lat="43.18543111805916" lon="11.475333213345019"><ele>155.0</ele><time>2026-04-11T02:25:32Z</time></trkpt><trkpt lat="43.185492845447286" lon="11.475288039468746"><ele>155.0</ele><time>2026-04-11T02:25:33Z</time></trkpt><trkpt lat="43.18555060866338" lon="11.475239714562898"><ele>155.0</ele><time>2026-04-11T02:25:34Z</time></trkpt><trkpt lat="43.18560836710236" lon="11.475190410817284"><ele>154.85714285714286</ele><time>2026-04-11T02:25:35Z</time></trkpt><trkpt lat="43.18566419792644" lon="11.47513548534148"><ele>154.71428571428572</ele><time>2026-04-11T02:25:36Z</time></trkpt><trkpt lat="43.18572382659915" lon="11.475087625839118"><ele>154.57142857142856</ele><time>2026-04-11T02:25:37Z</time></trkpt><trkpt lat="43.185784270865895" lon="11.475038373217382"><ele>154.42857142857144</ele><time>2026-04-11T02:25:38Z</time></trkpt><trkpt lat="43.185843424223656" lon="11.47500060769823"><ele>154.28571428571428</ele><time>2026-04-11T02:25:39Z</time></trkpt><trkpt lat="43.18590412054291" lon="11.474954235471357"><ele>154.14285714285714</ele><time>2026-04-11T02:25:40Z</time></trkpt><trkpt lat="43.18596621869336" lon="11.474916034369889"><ele>154.0</ele><time>2026-04-11T02:25:41Z</time></trkpt><trkpt lat="43.18602650153084" lon="11.474881769496477"><ele>154.0</ele><time>2026-04-11T02:25:42Z</time></trkpt><trkpt lat="43.186090761136846" lon="11.474859623093222"><ele>154.0</ele><time>2026-04-11T02:25:43Z</time></trkpt><trkpt lat="43.186160729198846" lon="11.474860843402842"><ele>154.0</ele><time>2026-04-11T02:25:44Z</time></trkpt><trkpt lat="43.18628581504817" lon="11.474849316528589"><ele>154.0</ele><time>2026-04-11T02:25:46Z</time></trkpt><trkpt lat="43.18641412161417" lon="11.4748501550812"><ele>154.0</ele><time>2026-04-11T02:25:48Z</time></trkpt><trkpt lat="43.18648142365972" lon="11.474848855082184"><ele>154.14285714285714</ele><time>2026-04-11T02:25:49Z</time></trkpt><trkpt lat="43.186549236255466" lon="11.474848855082133"><ele>154.28571428571428</ele><time>2026-04-11T02:25:50Z</time></trkpt><trkpt lat="43.186616457137255" lon="11.474826521343056"><ele>154.42857142857144</ele><time>2026-04-11T02:25:51Z</time></trkpt><trkpt lat="43.186681739243745" lon="11.4748190912491"><ele>154.57142857142856</ele><time>2026-04-11T02:25:52Z</time></trkpt><trkpt lat="43.18674751385755" lon="11.4748088958788"><ele>154.71428571428572</ele><time>2026-04-11T02:25:53Z</time></trkpt><trkpt lat="43.18681447365427" lon="11.474795758827195"><ele>154.85714285714286</ele><time>2026-04-11T02:25:54Z</time></trkpt><trkpt lat="43.18687826684556" lon="11.47480286288778"><ele>155.0</ele><time>2026-04-11T02:25:55Z</time></trkpt><trkpt lat="43.18694104895256" lon="11.474793429455985"><ele>155.0</ele><time>2026-04-11T02:25:56Z</time></trkpt><trkpt lat="43.187061096874785" lon="11.474780266707551"><ele>155.0</ele><time>2026-04-11T02:25:58Z</time></trkpt><trkpt lat="43.187171742643265" lon="11.474774194240686"><ele>155.0</ele><time>2026-04-11T02:26:00Z</time></trkpt><trkpt lat="43.18727834723467" lon="11.474787401201832"><ele>155.0</ele><time>2026-04-11T02:26:02Z</time></trkpt><trkpt lat="43.187379396617764" lon="11.474824291747295"><ele>155.0</ele><time>2026-04-11T02:26:04Z</time></trkpt><trkpt lat="43.187466589362494" lon="11.474873751067344"><ele>155.8</ele><time>2026-04-11T02:26:06Z</time></trkpt><trkpt lat="43.187540293050205" lon="11.474955483661427"><ele>156.6</ele><time>2026-04-11T02:26:08Z</time></trkpt><trkpt lat="43.18765393455462" lon="11.47497059843983"><ele>157.4</ele><time>2026-04-11T02:26:10Z</time></trkpt><trkpt lat="43.18776250506018" lon="11.47495349398177"><ele>158.2</ele><time>2026-04-11T02:26:12Z</time></trkpt><trkpt lat="43.187856465590365" lon="11.474881401235626"><ele>159.0</ele><time>2026-04-11T02:26:14Z</time></trkpt><trkpt lat="43.18790746597704" lon="11.474747572924002"><ele>159.0</ele><time>2026-04-11T02:26:16Z</time></trkpt><trkpt lat="43.18793162103657" lon="11.474599065411823"><ele>159.0</ele><time>2026-04-11T02:26:18Z</time></trkpt><trkpt lat="43.18798178828316" lon="11.474466117450927"><ele>159.0</ele><time>2026-04-11T02:26:20Z</time></trkpt><trkpt lat="43.18803583045815" lon="11.474418143522708"><ele>159.0</ele><time>2026-04-11T02:26:21Z</time></trkpt><trkpt lat="43.1881101953203" lon="11.474321958336418"><ele>159.0</ele><time>2026-04-11T02:26:23Z</time></trkpt><trkpt lat="43.188197671142404" lon="11.474262791915425"><ele>160.0</ele><time>2026-04-11T02:26:25Z</time></trkpt><trkpt lat="43.188271736487195" lon="11.47418171551201"><ele>161.0</ele><time>2026-04-11T02:26:27Z</time></trkpt><trkpt lat="43.188352795860396" lon="11.474127382940333"><ele>162.0</ele><time>2026-04-11T02:26:29Z</time></trkpt><trkpt lat="43.18839776800438" lon="11.474043348134485"><ele>163.0</ele><time>2026-04-11T02:26:31Z</time></trkpt><trkpt lat="43.18845365889249" lon="11.47399370854702"><ele>164.0</ele><time>2026-04-11T02:26:33Z</time></trkpt><trkpt lat="43.188498777734395" lon="11.473926329029771"><ele>165.0</ele><time>2026-04-11T02:26:35Z</time></trkpt><trkpt lat="43.188517508164935" lon="11.473822204830483"><ele>165.00000000000003</ele><time>2026-04-11T02:26:37Z</time></trkpt><trkpt lat="43.188547722975215" lon="11.473736377464693"><ele>165.0</ele><time>2026-04-11T02:26:39Z</time></trkpt><trkpt lat="43.188566589000764" lon="11.473649637869489"><ele>165.0</ele><time>2026-04-11T02:26:41Z</time></trkpt><trkpt lat="43.18859765167783" lon="11.473568812428896"><ele>165.0</ele><time>2026-04-11T02:26:43Z</time></trkpt><trkpt lat="43.188613353740045" lon="11.47348114344952"><ele>165.0</ele><time>2026-04-11T02:26:45Z</time></trkpt><trkpt lat="43.188641937786144" lon="11.47339422812523"><ele>165.00000000000003</ele><time>2026-04-11T02:26:47Z</time></trkpt><trkpt lat="43.18867019965231" lon="11.473312328103964"><ele>165.0</ele><time>2026-04-11T02:26:49Z</time></trkpt><trkpt lat="43.18869501876545" lon="11.473227371377723"><ele>165.0</ele><time>2026-04-11T02:26:51Z</time></trkpt><trkpt lat="43.18872512544955" lon="11.473146269661749"><ele>165.0</ele><time>2026-04-11T02:26:53Z</time></trkpt><trkpt lat="43.18875543712106" lon="11.473064284720444"><ele>165.0</ele><time>2026-04-11T02:26:55Z</time></trkpt><trkpt lat="43.18880200439562" lon="11.4729688451896"><ele>165.0</ele><time>2026-04-11T02:26:57Z</time></trkpt><trkpt lat="43.188856247588255" lon="11.472859884008729"><ele>165.0</ele><time>2026-04-11T02:26:59Z</time></trkpt><trkpt lat="43.18890978499028" lon="11.47273252899141"><ele>165.0</ele><time>2026-04-11T02:27:01Z</time></trkpt><trkpt lat="43.18895553723391" lon="11.47259169372066"><ele>165.4</ele><time>2026-04-11T02:27:03Z</time></trkpt><trkpt lat="43.18899437784964" lon="11.4724472834706"><ele>165.8</ele><time>2026-04-11T02:27:05Z</time></trkpt><trkpt lat="43.18903818429466" lon="11.472300821974784"><ele>166.2</ele><time>2026-04-11T02:27:07Z</time></trkpt><trkpt lat="43.18907187000445" lon="11.472145478973584"><ele>166.6</ele><time>2026-04-11T02:27:09Z</time></trkpt><trkpt lat="43.18912414549705" lon="11.472074325440182"><ele>167.0</ele><time>2026-04-11T02:27:10Z</time></trkpt><trkpt lat="43.189170651990395" lon="11.471926047938496"><ele>167.0</ele><time>2026-04-11T02:27:12Z</time></trkpt><trkpt lat="43.18919693138858" lon="11.471847524050036"><ele>167.0</ele><time>2026-04-11T02:27:13Z</time></trkpt><trkpt lat="43.189264186000045" lon="11.471698103501117"><ele>167.0</ele><time>2026-04-11T02:27:15Z</time></trkpt><trkpt lat="43.189354241543924" lon="11.471560630873096"><ele>167.0</ele><time>2026-04-11T02:27:17Z</time></trkpt><trkpt lat="43.18940818114108" lon="11.471489142315022"><ele>167.0</ele><time>2026-04-11T02:27:18Z</time></trkpt><trkpt lat="43.189465593177516" lon="11.471425549939418"><ele>167.0</ele><time>2026-04-11T02:27:19Z</time></trkpt><trkpt lat="43.18952584188322" lon="11.471368552197301"><ele>167.0</ele><time>2026-04-11T02:27:20Z</time></trkpt><trkpt lat="43.18959156311576" lon="11.471322497880259"><ele>167.0</ele><time>2026-04-11T02:27:21Z</time></trkpt><trkpt lat="43.18966446628754" lon="11.471278787444602"><ele>167.0</ele><time>2026-04-11T02:27:22Z</time></trkpt><trkpt lat="43.18973758404422" lon="11.471233882028692"><ele>167.0</ele><time>2026-04-11T02:27:23Z</time></trkpt><trkpt lat="43.189811045640006" lon="11.471190930470307"><ele>167.0</ele><time>2026-04-11T02:27:24Z</time></trkpt><trkpt lat="43.18988254248121" lon="11.471152668250577"><ele>166.66666666666666</ele><time>2026-04-11T02:27:25Z</time></trkpt><trkpt lat="43.189957315230444" lon="11.471113218246286"><ele>166.33333333333331</ele><time>2026-04-11T02:27:26Z</time></trkpt><trkpt lat="43.19003295030987" lon="11.471063669787227"><ele>166.0</ele><time>2026-04-11T02:27:27Z</time></trkpt><trkpt lat="43.19009465906785" lon="11.470993974029701"><ele>165.66666666666666</ele><time>2026-04-11T02:27:28Z</time></trkpt><trkpt lat="43.19015997900574" lon="11.470947059901944"><ele>165.33333333333334</ele><time>2026-04-11T02:27:29Z</time></trkpt><trkpt lat="43.190226857724866" lon="11.470875428364364"><ele>165.0</ele><time>2026-04-11T02:27:30Z</time></trkpt><trkpt lat="43.19029212938511" lon="11.47080550852179"><ele>165.0</ele><time>2026-04-11T02:27:31Z</time></trkpt><trkpt lat="43.190396966451324" lon="11.4706860630521"><ele>165.0</ele><time>2026-04-11T02:27:33Z</time></trkpt><trkpt lat="43.190453060191196" lon="11.470619161796366"><ele>165.0</ele><time>2026-04-11T02:27:34Z</time></trkpt><trkpt lat="43.190517775224684" lon="11.470561635786563"><ele>165.0</ele><time>2026-04-11T02:27:35Z</time></trkpt><trkpt lat="43.19057006323491" lon="11.470500710360307"><ele>165.0</ele><time>2026-04-11T02:27:36Z</time></trkpt><trkpt lat="43.190624812184055" lon="11.470439722592484"><ele>165.0</ele><time>2026-04-11T02:27:37Z</time></trkpt><trkpt lat="43.190685383625116" lon="11.470366210705064"><ele>164.5</ele><time>2026-04-11T02:27:38Z</time></trkpt><trkpt lat="43.190739319227696" lon="11.470285523117049"><ele>164.0</ele><time>2026-04-11T02:27:39Z</time></trkpt><trkpt lat="43.190778460614325" lon="11.470183535024965"><ele>163.5</ele><time>2026-04-11T02:27:40Z</time></trkpt><trkpt lat="43.190842737449444" lon="11.47010613605837"><ele>163.0</ele><time>2026-04-11T02:27:41Z</time></trkpt><trkpt lat="43.19089011517526" lon="11.4699974409304"><ele>162.5</ele><time>2026-04-11T02:27:42Z</time></trkpt><trkpt lat="43.19093864887361" lon="11.469896861593321"><ele>162.0</ele><time>2026-04-11T02:27:43Z</time></trkpt><trkpt lat="43.19098411737805" lon="11.469792000485914"><ele>162.0</ele><time>2026-04-11T02:27:44Z</time></trkpt><trkpt lat="43.191022091171455" lon="11.469696922092904"><ele>162.0</ele><time>2026-04-11T02:27:45Z</time></trkpt><trkpt lat="43.191063802744935" lon="11.469586065835042"><ele>162.0</ele><time>2026-04-11T02:27:46Z</time></trkpt><trkpt lat="43.19110748509688" lon="11.469469971829898"><ele>162.0</ele><time>2026-04-11T02:27:47Z</time></trkpt><trkpt lat="43.19114989473928" lon="11.469360349246667"><ele>162.0</ele><time>2026-04-11T02:27:48Z</time></trkpt><trkpt lat="43.191194939211925" lon="11.469256004018353"><ele>162.0</ele><time>2026-04-11T02:27:49Z</time></trkpt><trkpt lat="43.19124611920971" lon="11.469156803856196"><ele>161.83333333333334</ele><time>2026-04-11T02:27:50Z</time></trkpt><trkpt lat="43.191307631976635" lon="11.469066561051696"><ele>161.66666666666666</ele><time>2026-04-11T02:27:51Z</time></trkpt><trkpt lat="43.19137356436747" lon="11.468990279141625"><ele>161.5</ele><time>2026-04-11T02:27:52Z</time></trkpt><trkpt lat="43.191442372497384" lon="11.468918359287738"><ele>161.33333333333331</ele><time>2026-04-11T02:27:53Z</time></trkpt><trkpt lat="43.19151334557978" lon="11.468849121599638"><ele>161.16666666666666</ele><time>2026-04-11T02:27:54Z</time></trkpt><trkpt lat="43.191575507723115" lon="11.468768489968694"><ele>161.0</ele><time>2026-04-11T02:27:55Z</time></trkpt><trkpt lat="43.19164641591911" lon="11.46871318251257"><ele>160.66666666666666</ele><time>2026-04-11T02:27:56Z</time></trkpt><trkpt lat="43.1917112332328" lon="11.468640481503902"><ele>160.33333333333331</ele><time>2026-04-11T02:27:57Z</time></trkpt><trkpt lat="43.191778300686636" lon="11.468586667165358"><ele>160.0</ele><time>2026-04-11T02:27:58Z</time></trkpt><trkpt lat="43.191847095346716" lon="11.468540436931873"><ele>159.66666666666666</ele><time>2026-04-11T02:27:59Z</time></trkpt><trkpt lat="43.19189172271706" lon="11.468477051540251"><ele>159.33333333333334</ele><time>2026-04-11T02:28:00Z</time></trkpt><trkpt lat="43.19199444291249" lon="11.468388222705364"><ele>159.0</ele><time>2026-04-11T02:28:02Z</time></trkpt><trkpt lat="43.19206237253416" lon="11.468339126153452"><ele>159.0</ele><time>2026-04-11T02:28:03Z</time></trkpt><trkpt lat="43.192122562378415" lon="11.4682789367446"><ele>159.0</ele><time>2026-04-11T02:28:04Z</time></trkpt><trkpt lat="43.192184580832304" lon="11.468215601607438"><ele>159.0</ele><time>2026-04-11T02:28:05Z</time></trkpt><trkpt lat="43.19224797692497" lon="11.468150990665807"><ele>159.0</ele><time>2026-04-11T02:28:06Z</time></trkpt><trkpt lat="43.19230747580776" lon="11.468091007619124"><ele>159.0</ele><time>2026-04-11T02:28:07Z</time></trkpt><trkpt lat="43.192370376621845" lon="11.468027715911889"><ele>159.0</ele><time>2026-04-11T02:28:08Z</time></trkpt><trkpt lat="43.19243382593886" lon="11.46796387232318"><ele>158.5</ele><time>2026-04-11T02:28:09Z</time></trkpt><trkpt lat="43.19250017486575" lon="11.467897915980407"><ele>158.0</ele><time>2026-04-11T02:28:10Z</time></trkpt><trkpt lat="43.19256685619784" lon="11.4678323860979"><ele>157.5</ele><time>2026-04-11T02:28:11Z</time></trkpt><trkpt lat="43.19262972541103" lon="11.467770602512061"><ele>157.0</ele><time>2026-04-11T02:28:12Z</time></trkpt><trkpt lat="43.192697116856024" lon="11.467704374653165"><ele>156.5</ele><time>2026-04-11T02:28:13Z</time></trkpt><trkpt lat="43.192761936088196" lon="11.467640674681295"><ele>156.0</ele><time>2026-04-11T02:28:14Z</time></trkpt><trkpt lat="43.192825790201" lon="11.467577924640764"><ele>156.0</ele><time>2026-04-11T02:28:15Z</time></trkpt><trkpt lat="43.1928890124865" lon="11.467515794019347"><ele>156.0</ele><time>2026-04-11T02:28:16Z</time></trkpt><trkpt lat="43.192950631784726" lon="11.46745523868152"><ele>156.0</ele><time>2026-04-11T02:28:17Z</time></trkpt><trkpt lat="43.19301175553873" lon="11.467395170441637"><ele>156.0</ele><time>2026-04-11T02:28:18Z</time></trkpt><trkpt lat="43.193074526146425" lon="11.467333909361273"><ele>156.0</ele><time>2026-04-11T02:28:19Z</time></trkpt><trkpt lat="43.19313520442029" lon="11.467276375487293"><ele>156.0</ele><time>2026-04-11T02:28:20Z</time></trkpt><trkpt lat="43.19319664601819" lon="11.467218117837932"><ele>156.0</ele><time>2026-04-11T02:28:21Z</time></trkpt><trkpt lat="43.193256488775" lon="11.467163927081588"><ele>156.0</ele><time>2026-04-11T02:28:22Z</time></trkpt><trkpt lat="43.19331707921311" lon="11.467109462172047"><ele>156.0</ele><time>2026-04-11T02:28:23Z</time></trkpt><trkpt lat="43.19337993301517" lon="11.467052926301806"><ele>156.0</ele><time>2026-04-11T02:28:24Z</time></trkpt><trkpt lat="43.1934427182154" lon="11.46699545936242"><ele>156.0</ele><time>2026-04-11T02:28:25Z</time></trkpt><trkpt lat="43.19350904908093" lon="11.466934152076147"><ele>156.0</ele><time>2026-04-11T02:28:26Z</time></trkpt><trkpt lat="43.19357730271679" lon="11.466870801616773"><ele>156.0</ele><time>2026-04-11T02:28:27Z</time></trkpt><trkpt lat="43.193648118226804" lon="11.466805073340549"><ele>156.0</ele><time>2026-04-11T02:28:28Z</time></trkpt><trkpt lat="43.19372057727286" lon="11.466739949585145"><ele>156.0</ele><time>2026-04-11T02:28:29Z</time></trkpt><trkpt lat="43.193798891662105" lon="11.466672630911537"><ele>156.0</ele><time>2026-04-11T02:28:30Z</time></trkpt><trkpt lat="43.1938772775218" lon="11.46660525078191"><ele>156.0</ele><time>2026-04-11T02:28:31Z</time></trkpt><trkpt lat="43.19395346871571" lon="11.46653975703209"><ele>156.0</ele><time>2026-04-11T02:28:32Z</time></trkpt><trkpt lat="43.19402142957276" lon="11.466461293387493"><ele>156.16666666666666</ele><time>2026-04-11T02:28:33Z</time></trkpt><trkpt lat="43.1940941727073" lon="11.466395571330152"><ele>156.33333333333334</ele><time>2026-04-11T02:28:34Z</time></trkpt><trkpt lat="43.194158594923856" lon="11.466338112214796"><ele>156.5</ele><time>2026-04-11T02:28:35Z</time></trkpt><trkpt lat="43.19422436471604" lon="11.46628002450889"><ele>156.66666666666669</ele><time>2026-04-11T02:28:36Z</time></trkpt><trkpt lat="43.19428283897068" lon="11.466223682071607"><ele>156.83333333333334</ele><time>2026-04-11T02:28:37Z</time></trkpt><trkpt lat="43.19433642663315" lon="11.466141319737611"><ele>157.0</ele><time>2026-04-11T02:28:38Z</time></trkpt><trkpt lat="43.19443871988227" lon="11.466048304202404"><ele>156.6</ele><time>2026-04-11T02:28:40Z</time></trkpt><trkpt lat="43.19449304107798" lon="11.465997724717877"><ele>156.2</ele><time>2026-04-11T02:28:41Z</time></trkpt><trkpt lat="43.19455930131307" lon="11.465941945824019"><ele>155.8</ele><time>2026-04-11T02:28:42Z</time></trkpt><trkpt lat="43.194644873363664" lon="11.465876958983486"><ele>155.4</ele><time>2026-04-11T02:28:44Z</time></trkpt><trkpt lat="43.19473976308245" lon="11.465786284817684"><ele>155.0</ele><time>2026-04-11T02:28:46Z</time></trkpt><trkpt lat="43.19481653317821" lon="11.465692665145397"><ele>155.0</ele><time>2026-04-11T02:28:48Z</time></trkpt><trkpt lat="43.194879884703276" lon="11.46567623366279"><ele>155.0</ele><time>2026-04-11T02:28:50Z</time></trkpt><trkpt lat="43.194950329119145" lon="11.465857984973773"><ele>155.0</ele><time>2026-04-11T02:28:55Z</time></trkpt><trkpt lat="43.19501449365972" lon="11.46594747809648"><ele>155.0</ele><time>2026-04-11T02:28:57Z</time></trkpt><trkpt lat="43.19508973576667" lon="11.466021742979542"><ele>155.0</ele><time>2026-04-11T02:28:59Z</time></trkpt><trkpt lat="43.19515438727284" lon="11.466111829355293"><ele>155.0</ele><time>2026-04-11T02:29:01Z</time></trkpt><trkpt lat="43.19522317781769" lon="11.46619616278299"><ele>155.0</ele><time>2026-04-11T02:29:03Z</time></trkpt><trkpt lat="43.19529257918862" lon="11.466291547809648"><ele>155.0</ele><time>2026-04-11T02:29:05Z</time></trkpt><trkpt lat="43.195351412641706" lon="11.466411768394838"><ele>155.0</ele><time>2026-04-11T02:29:07Z</time></trkpt><trkpt lat="43.19538624933037" lon="11.466514532250637"><ele>155.0</ele><time>2026-04-11T02:29:09Z</time></trkpt><trkpt lat="43.19541182659996" lon="11.4666555638785"><ele>155.5</ele><time>2026-04-11T02:29:11Z</time></trkpt><trkpt lat="43.19543710839997" lon="11.466781911749694"><ele>156.0</ele><time>2026-04-11T02:29:13Z</time></trkpt><trkpt lat="43.195436474313524" lon="11.466891204021785"><ele>156.5</ele><time>2026-04-11T02:29:15Z</time></trkpt><trkpt lat="43.19544267844986" lon="11.46698445469164"><ele>157.0</ele><time>2026-04-11T02:29:17Z</time></trkpt><trkpt lat="43.195463500637985" lon="11.467110114185658"><ele>157.5</ele><time>2026-04-11T02:29:20Z</time></trkpt><trkpt lat="43.19547485058633" lon="11.467226887769527"><ele>158.0</ele><time>2026-04-11T02:29:23Z</time></trkpt><trkpt lat="43.19550144396892" lon="11.467346381366266"><ele>158.2857142857143</ele><time>2026-04-11T02:29:26Z</time></trkpt><trkpt lat="43.19553000513731" lon="11.467440945929203"><ele>158.57142857142858</ele><time>2026-04-11T02:29:29Z</time></trkpt><trkpt lat="43.1955797188781" lon="11.467522905331485"><ele>158.85714285714286</ele><time>2026-04-11T02:29:32Z</time></trkpt><trkpt lat="43.195642190704746" lon="11.467578760782986"><ele>159.14285714285717</ele><time>2026-04-11T02:29:35Z</time></trkpt><trkpt lat="43.195702601387865" lon="11.467622813632152"><ele>159.42857142857144</ele><time>2026-04-11T02:29:38Z</time></trkpt><trkpt lat="43.195776243279354" lon="11.467646611137651"><ele>159.71428571428572</ele><time>2026-04-11T02:29:41Z</time></trkpt><trkpt lat="43.19585094961184" lon="11.467676282154727"><ele>160.0</ele><time>2026-04-11T02:29:44Z</time></trkpt><trkpt lat="43.19593745561808" lon="11.467691516662912"><ele>160.71428571428572</ele><time>2026-04-11T02:29:48Z</time></trkpt><trkpt lat="43.19600937140383" lon="11.46772827978348"><ele>161.42857142857144</ele><time>2026-04-11T02:29:51Z</time></trkpt><trkpt lat="43.19608897942511" lon="11.467778025919023"><ele>162.14285714285717</ele><time>2026-04-11T02:29:55Z</time></trkpt><trkpt lat="43.19614749265992" lon="11.467825106328144"><ele>162.85714285714286</ele><time>2026-04-11T02:29:58Z</time></trkpt><trkpt lat="43.196200352221425" lon="11.467874828737019"><ele>163.57142857142858</ele><time>2026-04-11T02:30:01Z</time></trkpt><trkpt lat="43.196246602329445" lon="11.467935657392053"><ele>164.2857142857143</ele><time>2026-04-11T02:30:04Z</time></trkpt><trkpt lat="43.19629430220831" lon="11.468007054467654"><ele>165.0</ele><time>2026-04-11T02:30:07Z</time></trkpt><trkpt lat="43.19632868029656" lon="11.468085303219885"><ele>165.33333333333334</ele><time>2026-04-11T02:30:10Z</time></trkpt><trkpt lat="43.19637872589092" lon="11.46816415260005"><ele>165.66666666666666</ele><time>2026-04-11T02:30:13Z</time></trkpt><trkpt lat="43.19642452205875" lon="11.468224869173651"><ele>166.0</ele><time>2026-04-11T02:30:16Z</time></trkpt><trkpt lat="43.196466811030355" lon="11.468306464371393"><ele>166.33333333333331</ele><time>2026-04-11T02:30:19Z</time></trkpt><trkpt lat="43.196521968465966" lon="11.468386312985228"><ele>166.66666666666666</ele><time>2026-04-11T02:30:22Z</time></trkpt><trkpt lat="43.19656030907679" lon="11.46848359535636"><ele>167.0</ele><time>2026-04-11T02:30:25Z</time></trkpt><trkpt lat="43.19657738048913" lon="11.468602209196321"><ele>168.33333333333331</ele><time>2026-04-11T02:30:28Z</time></trkpt><trkpt lat="43.19659453465123" lon="11.468713426303731"><ele>169.66666666666666</ele><time>2026-04-11T02:30:31Z</time></trkpt><trkpt lat="43.19661137377714" lon="11.468815425187572"><ele>171.0</ele><time>2026-04-11T02:30:34Z</time></trkpt><trkpt lat="43.19664123847732" lon="11.468910663962491"><ele>172.33333333333334</ele><time>2026-04-11T02:30:37Z</time></trkpt><trkpt lat="43.19667641368777" lon="11.469001499624989"><ele>173.66666666666669</ele><time>2026-04-11T02:30:40Z</time></trkpt><trkpt lat="43.196720251505425" lon="11.469083859227117"><ele>175.0</ele><time>2026-04-11T02:30:43Z</time></trkpt><trkpt lat="43.1967826387135" lon="11.46915899344619"><ele>176.0</ele><time>2026-04-11T02:30:47Z</time></trkpt><trkpt lat="43.196837940323995" lon="11.469237797071372"><ele>177.0</ele><time>2026-04-11T02:30:51Z</time></trkpt><trkpt lat="43.1968915768212" lon="11.469323000285604"><ele>178.0</ele><time>2026-04-11T02:30:55Z</time></trkpt><trkpt lat="43.19693756915855" lon="11.469411503895419"><ele>179.0</ele><time>2026-04-11T02:30:59Z</time></trkpt><trkpt lat="43.19697930851328" lon="11.46950206215986"><ele>180.0</ele><time>2026-04-11T02:31:03Z</time></trkpt><trkpt lat="43.19702154061484" lon="11.469600203712437"><ele>181.0</ele><time>2026-04-11T02:31:07Z</time></trkpt><trkpt lat="43.197063492231926" lon="11.469698077616613"><ele>181.14285714285714</ele><time>2026-04-11T02:31:11Z</time></trkpt><trkpt lat="43.19710914204383" lon="11.469790625531283"><ele>181.28571428571428</ele><time>2026-04-11T02:31:15Z</time></trkpt><trkpt lat="43.19713540071087" lon="11.469892517237467"><ele>181.42857142857144</ele><time>2026-04-11T02:31:19Z</time></trkpt><trkpt lat="43.19716650952562" lon="11.469971430410782"><ele>181.57142857142856</ele><time>2026-04-11T02:31:22Z</time></trkpt><trkpt lat="43.19717934806793" lon="11.470067879867278"><ele>181.71428571428572</ele><time>2026-04-11T02:31:25Z</time></trkpt><trkpt lat="43.19721507030923" lon="11.470152110076835"><ele>181.85714285714286</ele><time>2026-04-11T02:31:28Z</time></trkpt><trkpt lat="43.19724432142901" lon="11.470254065403644"><ele>182.0</ele><time>2026-04-11T02:31:32Z</time></trkpt><trkpt lat="43.19729370954825" lon="11.470343053629664"><ele>183.39999999999998</ele><time>2026-04-11T02:31:37Z</time></trkpt><trkpt lat="43.19736157703231" lon="11.470427662239317"><ele>184.79999999999998</ele><time>2026-04-11T02:31:41Z</time></trkpt><trkpt lat="43.19741973971452" lon="11.47050963411762"><ele>186.2</ele><time>2026-04-11T02:31:44Z</time></trkpt><trkpt lat="43.197495918103606" lon="11.470551588283062"><ele>187.6</ele><time>2026-04-11T02:31:49Z</time></trkpt><trkpt lat="43.19757523418685" lon="11.470574040403328"><ele>189.0</ele><time>2026-04-11T02:31:53Z</time></trkpt><trkpt lat="43.19782258152628" lon="11.470604582261066"><ele>190.83333333333334</ele><time>2026-04-11T02:32:06Z</time></trkpt><trkpt lat="43.197889685214676" lon="11.470617711525035"><ele>192.66666666666669</ele><time>2026-04-11T02:32:10Z</time></trkpt><trkpt lat="43.19796156453806" lon="11.470666786708849"><ele>194.5</ele><time>2026-04-11T02:32:14Z</time></trkpt><trkpt lat="43.19803778869934" lon="11.470714115603402"><ele>196.33333333333334</ele><time>2026-04-11T02:32:18Z</time></trkpt><trkpt lat="43.19809770033679" lon="11.470786345541912"><ele>198.16666666666669</ele><time>2026-04-11T02:32:22Z</time></trkpt><trkpt lat="43.198155341528484" lon="11.47084286327727"><ele>200.0</ele><time>2026-04-11T02:32:25Z</time></trkpt><trkpt lat="43.19821889931686" lon="11.470927838967405"><ele>200.57142857142858</ele><time>2026-04-11T02:32:28Z</time></trkpt><trkpt lat="43.19826896028319" lon="11.471004943252062"><ele>201.14285714285714</ele><time>2026-04-11T02:32:32Z</time></trkpt><trkpt lat="43.198306921035176" lon="11.471081144370823"><ele>201.71428571428572</ele><time>2026-04-11T02:32:35Z</time></trkpt><trkpt lat="43.19835963697036" lon="11.47116846258021"><ele>202.28571428571428</ele><time>2026-04-11T02:32:39Z</time></trkpt><trkpt lat="43.1983874354868" lon="11.47124987775308"><ele>202.85714285714286</ele><time>2026-04-11T02:32:42Z</time></trkpt><trkpt lat="43.19841897212985" lon="11.471336138810488"><ele>203.42857142857144</ele><time>2026-04-11T02:32:45Z</time></trkpt><trkpt lat="43.19844504352823" lon="11.471420871245593"><ele>204.0</ele><time>2026-04-11T02:32:48Z</time></trkpt><trkpt lat="43.19845938415253" lon="11.471515221862838"><ele>204.85714285714286</ele><time>2026-04-11T02:32:52Z</time></trkpt><trkpt lat="43.19848391402174" lon="11.471613620958795"><ele>205.71428571428572</ele><time>2026-04-11T02:32:54Z</time></trkpt><trkpt lat="43.19851969091696" lon="11.471689413710822"><ele>206.57142857142856</ele><time>2026-04-11T02:32:56Z</time></trkpt><trkpt lat="43.19852555269091" lon="11.471776559579231"><ele>207.42857142857144</ele><time>2026-04-11T02:32:58Z</time></trkpt><trkpt lat="43.198527293381346" lon="11.47187426844978"><ele>208.28571428571428</ele><time>2026-04-11T02:33:00Z</time></trkpt><trkpt lat="43.198518768946684" lon="11.471965540123078"><ele>209.14285714285714</ele><time>2026-04-11T02:33:02Z</time></trkpt><trkpt lat="43.198518758381375" lon="11.472057576608913"><ele>210.0</ele><time>2026-04-11T02:33:04Z</time></trkpt><trkpt lat="43.19851002426408" lon="11.472149027347955"><ele>210.5</ele><time>2026-04-11T02:33:06Z</time></trkpt><trkpt lat="43.198503867428194" lon="11.472243709157153"><ele>211.0</ele><time>2026-04-11T02:33:08Z</time></trkpt><trkpt lat="43.19849446447241" lon="11.47234364081629"><ele>211.5</ele><time>2026-04-11T02:33:10Z</time></trkpt><trkpt lat="43.19848901205351" lon="11.472446510688412"><ele>212.0</ele><time>2026-04-11T02:33:12Z</time></trkpt><trkpt lat="43.19848251699738" lon="11.472568218846982"><ele>212.5</ele><time>2026-04-11T02:33:14Z</time></trkpt><trkpt lat="43.1984787855048" lon="11.472691462420455"><ele>213.0</ele><time>2026-04-11T02:33:16Z</time></trkpt><trkpt lat="43.19849187008989" lon="11.472820097371201"><ele>213.2</ele><time>2026-04-11T02:33:18Z</time></trkpt><trkpt lat="43.19854146600481" lon="11.47297639740566"><ele>213.4</ele><time>2026-04-11T02:33:20Z</time></trkpt><trkpt lat="43.19858595115315" lon="11.47304053696242"><ele>213.59999999999997</ele><time>2026-04-11T02:33:21Z</time></trkpt><trkpt lat="43.19863942624245" lon="11.473131843697947"><ele>213.79999999999998</ele><time>2026-04-11T02:33:23Z</time></trkpt><trkpt lat="43.198696271278735" lon="11.473279336656274"><ele>214.0</ele><time>2026-04-11T02:33:25Z</time></trkpt><trkpt lat="43.19876590963513" lon="11.473426946839451"><ele>214.00000000000003</ele><time>2026-04-11T02:33:27Z</time></trkpt><trkpt lat="43.19879904283548" lon="11.47350318247726"><ele>214.0</ele><time>2026-04-11T02:33:28Z</time></trkpt><trkpt lat="43.198831742968814" lon="11.473589884502283"><ele>214.0</ele><time>2026-04-11T02:33:29Z</time></trkpt><trkpt lat="43.19885403661577" lon="11.473686565571475"><ele>214.0</ele><time>2026-04-11T02:33:30Z</time></trkpt><trkpt lat="43.1988687401078" lon="11.47378485292427"><ele>214.0</ele><time>2026-04-11T02:33:31Z</time></trkpt><trkpt lat="43.198855573271565" lon="11.473892604729748"><ele>214.00000000000003</ele><time>2026-04-11T02:33:32Z</time></trkpt><trkpt lat="43.19884962976454" lon="11.473992062643127"><ele>214.0</ele><time>2026-04-11T02:33:33Z</time></trkpt><trkpt lat="43.19884692914411" lon="11.474096079262877"><ele>212.49999999999997</ele><time>2026-04-11T02:33:34Z</time></trkpt><trkpt lat="43.19885412212563" lon="11.474185976435374"><ele>211.0</ele><time>2026-04-11T02:33:35Z</time></trkpt><trkpt lat="43.19885645838133" lon="11.47429612106147"><ele>209.5</ele><time>2026-04-11T02:33:36Z</time></trkpt><trkpt lat="43.19888365136277" lon="11.474399468759225"><ele>208.0</ele><time>2026-04-11T02:33:37Z</time></trkpt><trkpt lat="43.198925459750825" lon="11.47450400283764"><ele>206.49999999999997</ele><time>2026-04-11T02:33:38Z</time></trkpt><trkpt lat="43.19896470114745" lon="11.47458585706035"><ele>205.0</ele><time>2026-04-11T02:33:39Z</time></trkpt><trkpt lat="43.19900854267735" lon="11.474664838227474"><ele>203.99999999999997</ele><time>2026-04-11T02:33:40Z</time></trkpt><trkpt lat="43.199053241029176" lon="11.474741735712128"><ele>203.0</ele><time>2026-04-11T02:33:41Z</time></trkpt><trkpt lat="43.19908410155665" lon="11.47482187781819"><ele>202.0</ele><time>2026-04-11T02:33:42Z</time></trkpt><trkpt lat="43.19912844530625" lon="11.474900459038258"><ele>201.0</ele><time>2026-04-11T02:33:43Z</time></trkpt><trkpt lat="43.19917459806513" lon="11.474982246225794"><ele>199.99999999999997</ele><time>2026-04-11T02:33:44Z</time></trkpt><trkpt lat="43.19922560832945" lon="11.475046270517632"><ele>199.0</ele><time>2026-04-11T02:33:45Z</time></trkpt><trkpt lat="43.199293197003215" lon="11.475186480741831"><ele>199.0</ele><time>2026-04-11T02:33:47Z</time></trkpt><trkpt lat="43.19936485459108" lon="11.475316516064797"><ele>199.0</ele><time>2026-04-11T02:33:49Z</time></trkpt><trkpt lat="43.19944163203292" lon="11.475427935779704"><ele>199.0</ele><time>2026-04-11T02:33:51Z</time></trkpt><trkpt lat="43.19951715944746" lon="11.475522929332515"><ele>199.0</ele><time>2026-04-11T02:33:53Z</time></trkpt><trkpt lat="43.19960013636869" lon="11.475610114386939"><ele>199.0</ele><time>2026-04-11T02:33:55Z</time></trkpt><trkpt lat="43.199666012727405" lon="11.47566011196577"><ele>200.16666666666666</ele><time>2026-04-11T02:33:57Z</time></trkpt><trkpt lat="43.19973642241836" lon="11.475712674784353"><ele>201.33333333333331</ele><time>2026-04-11T02:33:59Z</time></trkpt><trkpt lat="43.19980049171307" lon="11.475755836703895"><ele>202.5</ele><time>2026-04-11T02:34:01Z</time></trkpt><trkpt lat="43.19989777253123" lon="11.475791536225456"><ele>203.66666666666669</ele><time>2026-04-11T02:34:04Z</time></trkpt><trkpt lat="43.19995607677517" lon="11.475851942219455"><ele>204.83333333333334</ele><time>2026-04-11T02:34:06Z</time></trkpt><trkpt lat="43.20001161473467" lon="11.475912664666584"><ele>206.0</ele><time>2026-04-11T02:34:08Z</time></trkpt><trkpt lat="43.20006097099404" lon="11.475974492243"><ele>205.99999999999997</ele><time>2026-04-11T02:34:10Z</time></trkpt><trkpt lat="43.20011109937507" lon="11.476042498135172"><ele>206.0</ele><time>2026-04-11T02:34:12Z</time></trkpt><trkpt lat="43.20016245118613" lon="11.476106241450228"><ele>206.0</ele><time>2026-04-11T02:34:14Z</time></trkpt><trkpt lat="43.20021571720921" lon="11.476163120835244"><ele>206.0</ele><time>2026-04-11T02:34:16Z</time></trkpt><trkpt lat="43.20026681749425" lon="11.476227491273221"><ele>206.0</ele><time>2026-04-11T02:34:18Z</time></trkpt><trkpt lat="43.200327599954875" lon="11.476278135775344"><ele>205.99999999999997</ele><time>2026-04-11T02:34:20Z</time></trkpt><trkpt lat="43.20039243136583" lon="11.476335101522789"><ele>206.0</ele><time>2026-04-11T02:34:22Z</time></trkpt><trkpt lat="43.20045341760541" lon="11.47639513401546"><ele>206.66666666666669</ele><time>2026-04-11T02:34:24Z</time></trkpt><trkpt lat="43.20049237074377" lon="11.476475218564422"><ele>207.33333333333334</ele><time>2026-04-11T02:34:25Z</time></trkpt><trkpt lat="43.20055594047696" lon="11.476552707921421"><ele>208.0</ele><time>2026-04-11T02:34:27Z</time></trkpt><trkpt lat="43.20061566136283" lon="11.476618418465733"><ele>208.66666666666669</ele><time>2026-04-11T02:34:29Z</time></trkpt><trkpt lat="43.200681543267315" lon="11.476706071557127"><ele>209.33333333333334</ele><time>2026-04-11T02:34:31Z</time></trkpt><trkpt lat="43.20073459768042" lon="11.476806964669159"><ele>210.0</ele><time>2026-04-11T02:34:33Z</time></trkpt><trkpt lat="43.20079504830209" lon="11.476909807265985"><ele>210.0</ele><time>2026-04-11T02:34:35Z</time></trkpt><trkpt lat="43.200846523118955" lon="11.477020007047898"><ele>210.0</ele><time>2026-04-11T02:34:37Z</time></trkpt><trkpt lat="43.200891661121084" lon="11.47713549776205"><ele>210.0</ele><time>2026-04-11T02:34:39Z</time></trkpt><trkpt lat="43.20094563581578" lon="11.477254880630388"><ele>210.0</ele><time>2026-04-11T02:34:41Z</time></trkpt><trkpt lat="43.20098944444316" lon="11.477374997520327"><ele>210.0</ele><time>2026-04-11T02:34:43Z</time></trkpt><trkpt lat="43.20103238572768" lon="11.477497157185832"><ele>209.2</ele><time>2026-04-11T02:34:45Z</time></trkpt><trkpt lat="43.2010808656849" lon="11.477610119702879"><ele>208.4</ele><time>2026-04-11T02:34:47Z</time></trkpt><trkpt lat="43.20112537794675" lon="11.477719984050172"><ele>207.60000000000002</ele><time>2026-04-11T02:34:49Z</time></trkpt><trkpt lat="43.20115989921915" lon="11.477842076643451"><ele>206.8</ele><time>2026-04-11T02:34:51Z</time></trkpt><trkpt lat="43.201206978011896" lon="11.477953420731057"><ele>206.0</ele><time>2026-04-11T02:34:53Z</time></trkpt><trkpt lat="43.20124869722884" lon="11.478063030256573"><ele>205.0</ele><time>2026-04-11T02:34:55Z</time></trkpt><trkpt lat="43.201295107015156" lon="11.478170814564942"><ele>204.0</ele><time>2026-04-11T02:34:57Z</time></trkpt><trkpt lat="43.20134950217212" lon="11.478290194427744"><ele>203.0</ele><time>2026-04-11T02:34:59Z</time></trkpt><trkpt lat="43.201397144442716" lon="11.478391193950188"><ele>202.0</ele><time>2026-04-11T02:35:01Z</time></trkpt><trkpt lat="43.2014455707439" lon="11.478501791179053"><ele>201.0</ele><time>2026-04-11T02:35:03Z</time></trkpt><trkpt lat="43.20148053355216" lon="11.478609413375388"><ele>202.60000000000002</ele><time>2026-04-11T02:35:05Z</time></trkpt><trkpt lat="43.20152828483111" lon="11.478729334457991"><ele>204.2</ele><time>2026-04-11T02:35:07Z</time></trkpt><trkpt lat="43.20159097799637" lon="11.478862992165604"><ele>205.8</ele><time>2026-04-11T02:35:09Z</time></trkpt><trkpt lat="43.201624433092064" lon="11.479000899509387"><ele>207.39999999999998</ele><time>2026-04-11T02:35:11Z</time></trkpt><trkpt lat="43.201664704631575" lon="11.479137440288262"><ele>209.0</ele><time>2026-04-11T02:35:13Z</time></trkpt><trkpt lat="43.20169931510103" lon="11.47925681513319"><ele>209.6</ele><time>2026-04-11T02:35:15Z</time></trkpt><trkpt lat="43.20174269779076" lon="11.479394458556143"><ele>210.2</ele><time>2026-04-11T02:35:17Z</time></trkpt><trkpt lat="43.20177246609298" lon="11.479527409562117"><ele>210.79999999999998</ele><time>2026-04-11T02:35:19Z</time></trkpt><trkpt lat="43.20179899978819" lon="11.479641104248389"><ele>211.39999999999998</ele><time>2026-04-11T02:35:21Z</time></trkpt><trkpt lat="43.20183385159453" lon="11.479743512325975"><ele>212.0</ele><time>2026-04-11T02:35:23Z</time></trkpt><trkpt lat="43.20185723362427" lon="11.479836856721288"><ele>212.00000000000003</ele><time>2026-04-11T02:35:25Z</time></trkpt><trkpt lat="43.201880284495395" lon="11.479938249384043"><ele>212.0</ele><time>2026-04-11T02:35:27Z</time></trkpt><trkpt lat="43.20192112872094" lon="11.480030723343113"><ele>212.0</ele><time>2026-04-11T02:35:29Z</time></trkpt><trkpt lat="43.201955468558836" lon="11.480120819672816"><ele>212.0</ele><time>2026-04-11T02:35:31Z</time></trkpt><trkpt lat="43.20198894211098" lon="11.480225450810513"><ele>212.00000000000003</ele><time>2026-04-11T02:35:33Z</time></trkpt><trkpt lat="43.202023265036864" lon="11.480327889886073"><ele>212.0</ele><time>2026-04-11T02:35:35Z</time></trkpt><trkpt lat="43.202068530305034" lon="11.480426553258601"><ele>211.50000000000003</ele><time>2026-04-11T02:35:37Z</time></trkpt><trkpt lat="43.20210512968839" lon="11.480528538334816"><ele>211.0</ele><time>2026-04-11T02:35:39Z</time></trkpt><trkpt lat="43.202140537880766" lon="11.480628975781535"><ele>210.5</ele><time>2026-04-11T02:35:41Z</time></trkpt><trkpt lat="43.20217000686" lon="11.480721625136185"><ele>210.0</ele><time>2026-04-11T02:35:43Z</time></trkpt><trkpt lat="43.202201321326044" lon="11.480812986895243"><ele>209.50000000000003</ele><time>2026-04-11T02:35:45Z</time></trkpt><trkpt lat="43.202216596823575" lon="11.480900989611749"><ele>209.0</ele><time>2026-04-11T02:35:47Z</time></trkpt><trkpt lat="43.20223110497965" lon="11.481023554963038"><ele>209.00000000000003</ele><time>2026-04-11T02:35:50Z</time></trkpt><trkpt lat="43.20225100508228" lon="11.481130260075188"><ele>209.0</ele><time>2026-04-11T02:35:53Z</time></trkpt><trkpt lat="43.20225682093396" lon="11.481243710143623"><ele>209.0</ele><time>2026-04-11T02:35:57Z</time></trkpt><trkpt lat="43.20226145620848" lon="11.481340242606697"><ele>209.0</ele><time>2026-04-11T02:35:59Z</time></trkpt><trkpt lat="43.202277771520016" lon="11.481443355319229"><ele>209.00000000000003</ele><time>2026-04-11T02:36:02Z</time></trkpt><trkpt lat="43.202289953653974" lon="11.481548869948837"><ele>209.0</ele><time>2026-04-11T02:36:05Z</time></trkpt><trkpt lat="43.20230822720236" lon="11.48165196009042"><ele>209.83333333333334</ele><time>2026-04-11T02:36:08Z</time></trkpt><trkpt lat="43.20231468059244" lon="11.481755971605795"><ele>210.66666666666669</ele><time>2026-04-11T02:36:11Z</time></trkpt><trkpt lat="43.20230527077479" lon="11.481864013468678"><ele>211.5</ele><time>2026-04-11T02:36:14Z</time></trkpt><trkpt lat="43.20229359528628" lon="11.481987983374642"><ele>212.33333333333331</ele><time>2026-04-11T02:36:17Z</time></trkpt><trkpt lat="43.20227311053116" lon="11.482102525556641"><ele>213.16666666666666</ele><time>2026-04-11T02:36:20Z</time></trkpt><trkpt lat="43.20225451487024" lon="11.482210122359492"><ele>214.0</ele><time>2026-04-11T02:36:23Z</time></trkpt><trkpt lat="43.20223106263069" lon="11.482318204327779"><ele>215.49999999999997</ele><time>2026-04-11T02:36:26Z</time></trkpt><trkpt lat="43.202212753743574" lon="11.482423553411394"><ele>217.0</ele><time>2026-04-11T02:36:29Z</time></trkpt><trkpt lat="43.20219603376568" lon="11.482527760913879"><ele>218.5</ele><time>2026-04-11T02:36:32Z</time></trkpt><trkpt lat="43.20218496595622" lon="11.482631957194824"><ele>220.0</ele><time>2026-04-11T02:36:35Z</time></trkpt><trkpt lat="43.20219846467254" lon="11.482735994062866"><ele>221.49999999999997</ele><time>2026-04-11T02:36:38Z</time></trkpt><trkpt lat="43.20218686584107" lon="11.482840173296005"><ele>223.0</ele><time>2026-04-11T02:36:41Z</time></trkpt><trkpt lat="43.20219019482089" lon="11.482947117139487"><ele>225.33333333333331</ele><time>2026-04-11T02:36:44Z</time></trkpt><trkpt lat="43.20218693478081" lon="11.48305364423278"><ele>227.66666666666666</ele><time>2026-04-11T02:36:47Z</time></trkpt><trkpt lat="43.20217421000546" lon="11.483158699642836"><ele>230.0</ele><time>2026-04-11T02:36:50Z</time></trkpt><trkpt lat="43.20215169658219" lon="11.483256067757411"><ele>232.33333333333331</ele><time>2026-04-11T02:36:53Z</time></trkpt><trkpt lat="43.20211408124368" lon="11.483366192854072"><ele>234.66666666666666</ele><time>2026-04-11T02:36:56Z</time></trkpt><trkpt lat="43.2020833809339" lon="11.483447016490322"><ele>237.0</ele><time>2026-04-11T02:37:00Z</time></trkpt><trkpt lat="43.20202025189401" lon="11.483498662936032"><ele>236.99999999999997</ele><time>2026-04-11T02:37:03Z</time></trkpt><trkpt lat="43.201964432435446" lon="11.48358454131662"><ele>237.0</ele><time>2026-04-11T02:37:07Z</time></trkpt><trkpt lat="43.20192950101875" lon="11.48365786821398"><ele>236.99999999999997</ele><time>2026-04-11T02:37:10Z</time></trkpt><trkpt lat="43.201873298397466" lon="11.483736816056298"><ele>236.99999999999997</ele><time>2026-04-11T02:37:14Z</time></trkpt><trkpt lat="43.201835751256844" lon="11.483807439676355"><ele>237.0</ele><time>2026-04-11T02:37:17Z</time></trkpt><trkpt lat="43.20179724890576" lon="11.483897017704438"><ele>236.99999999999997</ele><time>2026-04-11T02:37:21Z</time></trkpt><trkpt lat="43.20177443075856" lon="11.484000079841065"><ele>236.99999999999997</ele><time>2026-04-11T02:37:25Z</time></trkpt><trkpt lat="43.201765338902625" lon="11.484102159431064"><ele>239.66666666666666</ele><time>2026-04-11T02:37:29Z</time></trkpt><trkpt lat="43.20179580344036" lon="11.484202417657187"><ele>242.33333333333331</ele><time>2026-04-11T02:37:33Z</time></trkpt><trkpt lat="43.20183625634479" lon="11.484291886920568"><ele>245.0</ele><time>2026-04-11T02:37:37Z</time></trkpt><trkpt lat="43.201877381435686" lon="11.48437405511207"><ele>247.66666666666666</ele><time>2026-04-11T02:37:41Z</time></trkpt><trkpt lat="43.20192535461607" lon="11.484463283064194"><ele>250.33333333333331</ele><time>2026-04-11T02:37:45Z</time></trkpt><trkpt lat="43.20197203656527" lon="11.484535235150942"><ele>253.0</ele><time>2026-04-11T02:37:47Z</time></trkpt><trkpt lat="43.201996314119214" lon="11.48463282777643"><ele>254.49999999999997</ele><time>2026-04-11T02:37:52Z</time></trkpt><trkpt lat="43.202004050885876" lon="11.484722251790455"><ele>256.0</ele><time>2026-04-11T02:37:55Z</time></trkpt><trkpt lat="43.20204831236391" lon="11.484809521481143"><ele>257.5</ele><time>2026-04-11T02:37:58Z</time></trkpt><trkpt lat="43.20206836361734" lon="11.484897154193044"><ele>259.0</ele><time>2026-04-11T02:38:02Z</time></trkpt><trkpt lat="43.20207174186459" lon="11.484995067917666"><ele>260.5</ele><time>2026-04-11T02:38:05Z</time></trkpt><trkpt lat="43.20208663581374" lon="11.485100247974202"><ele>262.0</ele><time>2026-04-11T02:38:08Z</time></trkpt><trkpt lat="43.20211995130391" lon="11.485233618963447"><ele>262.0</ele><time>2026-04-11T02:38:12Z</time></trkpt><trkpt lat="43.20213679449625" lon="11.48533129099102"><ele>262.0</ele><time>2026-04-11T02:38:15Z</time></trkpt><trkpt lat="43.20217236919888" lon="11.485452913370114"><ele>262.0</ele><time>2026-04-11T02:38:18Z</time></trkpt><trkpt lat="43.202197396229316" lon="11.485547371130245"><ele>262.0</ele><time>2026-04-11T02:38:20Z</time></trkpt><trkpt lat="43.20222636042346" lon="11.485674165266971"><ele>262.0</ele><time>2026-04-11T02:38:22Z</time></trkpt><trkpt lat="43.20226267799143" lon="11.485816825292632"><ele>262.0</ele><time>2026-04-11T02:38:24Z</time></trkpt><trkpt lat="43.20230983150896" lon="11.485965056447583"><ele>261.0</ele><time>2026-04-11T02:38:26Z</time></trkpt><trkpt lat="43.20234338994338" lon="11.486038466723956"><ele>260.0</ele><time>2026-04-11T02:38:27Z</time></trkpt><trkpt lat="43.20238242710871" lon="11.48610950309366"><ele>259.0</ele><time>2026-04-11T02:38:28Z</time></trkpt><trkpt lat="43.202421447572334" lon="11.486185472887792"><ele>258.0</ele><time>2026-04-11T02:38:29Z</time></trkpt><trkpt lat="43.20250304054396" lon="11.486314921264869"><ele>257.0</ele><time>2026-04-11T02:38:31Z</time></trkpt><trkpt lat="43.20255322535948" lon="11.48637567534898"><ele>256.0</ele><time>2026-04-11T02:38:32Z</time></trkpt><trkpt lat="43.202601621887084" lon="11.486447902388791"><ele>254.66666666666666</ele><time>2026-04-11T02:38:33Z</time></trkpt><trkpt lat="43.20265031406211" lon="11.486512300041063"><ele>253.33333333333331</ele><time>2026-04-11T02:38:34Z</time></trkpt><trkpt lat="43.202699897020054" lon="11.48660574633098"><ele>252.0</ele><time>2026-04-11T02:38:35Z</time></trkpt><trkpt lat="43.202794509756224" lon="11.486701706203219"><ele>250.66666666666669</ele><time>2026-04-11T02:38:37Z</time></trkpt><trkpt lat="43.202842403782874" lon="11.48676713149286"><ele>249.33333333333334</ele><time>2026-04-11T02:38:38Z</time></trkpt><trkpt lat="43.202900903187505" lon="11.486820997150764"><ele>248.0</ele><time>2026-04-11T02:38:39Z</time></trkpt><trkpt lat="43.20294843940988" lon="11.48689310456119"><ele>248.0</ele><time>2026-04-11T02:38:40Z</time></trkpt><trkpt lat="43.20298909157824" lon="11.486991065101655"><ele>248.0</ele><time>2026-04-11T02:38:41Z</time></trkpt><trkpt lat="43.2030423136696" lon="11.4870485983638"><ele>248.0</ele><time>2026-04-11T02:38:42Z</time></trkpt><trkpt lat="43.20315218404858" lon="11.487153389487975"><ele>248.0</ele><time>2026-04-11T02:38:44Z</time></trkpt><trkpt lat="43.20324811203454" lon="11.487259892065058"><ele>248.0</ele><time>2026-04-11T02:38:46Z</time></trkpt><trkpt lat="43.203336520200416" lon="11.487379149831161"><ele>248.2</ele><time>2026-04-11T02:38:48Z</time></trkpt><trkpt lat="43.203384348055884" lon="11.487438173280696"><ele>248.4</ele><time>2026-04-11T02:38:49Z</time></trkpt><trkpt lat="43.20347498129418" lon="11.487566899147316"><ele>248.59999999999997</ele><time>2026-04-11T02:38:51Z</time></trkpt><trkpt lat="43.20355786769388" lon="11.487655508449095"><ele>248.79999999999998</ele><time>2026-04-11T02:38:53Z</time></trkpt><trkpt lat="43.20360832080753" lon="11.48772894475256"><ele>249.0</ele><time>2026-04-11T02:38:54Z</time></trkpt><trkpt lat="43.203673255745514" lon="11.48782816290653"><ele>246.39999999999998</ele><time>2026-04-11T02:38:56Z</time></trkpt><trkpt lat="43.2037274490864" lon="11.487956758221443"><ele>243.79999999999998</ele><time>2026-04-11T02:38:58Z</time></trkpt><trkpt lat="43.203812122175286" lon="11.488080645368113"><ele>241.20000000000002</ele><time>2026-04-11T02:39:00Z</time></trkpt><trkpt lat="43.20385209693914" lon="11.488155810987324"><ele>238.60000000000002</ele><time>2026-04-11T02:39:01Z</time></trkpt><trkpt lat="43.20389556975235" lon="11.488234695984248"><ele>236.0</ele><time>2026-04-11T02:39:02Z</time></trkpt><trkpt lat="43.203947299735695" lon="11.488317318137693"><ele>236.0</ele><time>2026-04-11T02:39:03Z</time></trkpt><trkpt lat="43.203992815990546" lon="11.488401913044841"><ele>236.0</ele><time>2026-04-11T02:39:04Z</time></trkpt><trkpt lat="43.204037338362916" lon="11.488477802340128"><ele>236.0</ele><time>2026-04-11T02:39:05Z</time></trkpt><trkpt lat="43.2040863903569" lon="11.488551963331608"><ele>236.0</ele><time>2026-04-11T02:39:06Z</time></trkpt><trkpt lat="43.20413501769217" lon="11.488616116378706"><ele>236.0</ele><time>2026-04-11T02:39:07Z</time></trkpt><trkpt lat="43.2041811453474" lon="11.488693770308199"><ele>236.0</ele><time>2026-04-11T02:39:08Z</time></trkpt><trkpt lat="43.20422613364704" lon="11.488769665610741"><ele>236.0</ele><time>2026-04-11T02:39:09Z</time></trkpt><trkpt lat="43.204271753224866" lon="11.488850232861028"><ele>238.00000000000003</ele><time>2026-04-11T02:39:10Z</time></trkpt><trkpt lat="43.20432209753432" lon="11.488923867248246"><ele>240.0</ele><time>2026-04-11T02:39:11Z</time></trkpt><trkpt lat="43.20437676207307" lon="11.489000419593449"><ele>242.0</ele><time>2026-04-11T02:39:12Z</time></trkpt><trkpt lat="43.204425107549085" lon="11.489088357273928"><ele>244.0</ele><time>2026-04-11T02:39:13Z</time></trkpt><trkpt lat="43.20447317390025" lon="11.489183348568568"><ele>246.00000000000003</ele><time>2026-04-11T02:39:14Z</time></trkpt><trkpt lat="43.204515911099925" lon="11.489285363087843"><ele>248.0</ele><time>2026-04-11T02:39:15Z</time></trkpt><trkpt lat="43.204553218032025" lon="11.489389802578705"><ele>248.00000000000003</ele><time>2026-04-11T02:39:16Z</time></trkpt><trkpt lat="43.20459797302087" lon="11.489499316590411"><ele>248.0</ele><time>2026-04-11T02:39:17Z</time></trkpt><trkpt lat="43.204626451126934" lon="11.489605237897516"><ele>248.0</ele><time>2026-04-11T02:39:18Z</time></trkpt><trkpt lat="43.20465524395062" lon="11.48971805952878"><ele>248.0</ele><time>2026-04-11T02:39:19Z</time></trkpt><trkpt lat="43.20468195950167" lon="11.489831143427459"><ele>248.00000000000003</ele><time>2026-04-11T02:39:20Z</time></trkpt><trkpt lat="43.2047190712568" lon="11.489941722191865"><ele>248.0</ele><time>2026-04-11T02:39:21Z</time></trkpt><trkpt lat="43.20475202318001" lon="11.490048543510598"><ele>247.4</ele><time>2026-04-11T02:39:22Z</time></trkpt><trkpt lat="43.204789325020045" lon="11.490158734749201"><ele>246.8</ele><time>2026-04-11T02:39:23Z</time></trkpt><trkpt lat="43.20483292628679" lon="11.490265920617295"><ele>246.2</ele><time>2026-04-11T02:39:24Z</time></trkpt><trkpt lat="43.20489348068941" lon="11.490364446984042"><ele>245.6</ele><time>2026-04-11T02:39:25Z</time></trkpt><trkpt lat="43.20496142188697" lon="11.490457526899053"><ele>245.0</ele><time>2026-04-11T02:39:26Z</time></trkpt><trkpt lat="43.20502682602612" lon="11.490538834651668"><ele>245.00000000000003</ele><time>2026-04-11T02:39:27Z</time></trkpt><trkpt lat="43.20508731311547" lon="11.490614988963184"><ele>245.0</ele><time>2026-04-11T02:39:28Z</time></trkpt><trkpt lat="43.205143333525236" lon="11.49068115118158"><ele>245.0</ele><time>2026-04-11T02:39:29Z</time></trkpt><trkpt lat="43.20519908870193" lon="11.490743070848882"><ele>245.0</ele><time>2026-04-11T02:39:30Z</time></trkpt><trkpt lat="43.20525756553149" lon="11.490789766523958"><ele>245.00000000000003</ele><time>2026-04-11T02:39:31Z</time></trkpt><trkpt lat="43.2053648659046" lon="11.490850988026018"><ele>245.0</ele><time>2026-04-11T02:39:33Z</time></trkpt><trkpt lat="43.20546588275353" lon="11.490884831598299"><ele>245.00000000000003</ele><time>2026-04-11T02:39:35Z</time></trkpt><trkpt lat="43.20554870566653" lon="11.49092116411584"><ele>245.0</ele><time>2026-04-11T02:39:37Z</time></trkpt><trkpt lat="43.20562436988089" lon="11.4909285681373"><ele>245.0</ele><time>2026-04-11T02:39:39Z</time></trkpt><trkpt lat="43.20571327140303" lon="11.490924599460786"><ele>245.0</ele><time>2026-04-11T02:39:42Z</time></trkpt><trkpt lat="43.20578757519198" lon="11.490902579075849"><ele>245.00000000000003</ele><time>2026-04-11T02:39:45Z</time></trkpt><trkpt lat="43.20586225956019" lon="11.490868654699453"><ele>245.0</ele><time>2026-04-11T02:39:49Z</time></trkpt><trkpt lat="43.205942579710275" lon="11.490857887676563"><ele>247.16666666666669</ele><time>2026-04-11T02:39:52Z</time></trkpt><trkpt lat="43.20601037813902" lon="11.490851393360884"><ele>249.33333333333334</ele><time>2026-04-11T02:39:55Z</time></trkpt><trkpt lat="43.20608144348061" lon="11.490856795729743"><ele>251.5</ele><time>2026-04-11T02:39:58Z</time></trkpt><trkpt lat="43.206157468906724" lon="11.490851059338041"><ele>253.66666666666669</ele><time>2026-04-11T02:40:01Z</time></trkpt><trkpt lat="43.20623360404419" lon="11.490873391091936"><ele>255.83333333333334</ele><time>2026-04-11T02:40:04Z</time></trkpt><trkpt lat="43.206306196913246" lon="11.490893251160728"><ele>258.0</ele><time>2026-04-11T02:40:07Z</time></trkpt><trkpt lat="43.206391914414915" lon="11.490930933384254"><ele>258.0</ele><time>2026-04-11T02:40:10Z</time></trkpt><trkpt lat="43.20645568533921" lon="11.490961614848352"><ele>258.0</ele><time>2026-04-11T02:40:12Z</time></trkpt><trkpt lat="43.20653021790326" lon="11.491015565671301"><ele>258.0</ele><time>2026-04-11T02:40:14Z</time></trkpt><trkpt lat="43.20662622949591" lon="11.491117049919692"><ele>258.0</ele><time>2026-04-11T02:40:16Z</time></trkpt><trkpt lat="43.20666402615304" lon="11.491247295178326"><ele>258.0</ele><time>2026-04-11T02:40:18Z</time></trkpt><trkpt lat="43.20669951234432" lon="11.491325232484792"><ele>258.0</ele><time>2026-04-11T02:40:19Z</time></trkpt><trkpt lat="43.20675941046444" lon="11.491462085835655"><ele>257.0</ele><time>2026-04-11T02:40:21Z</time></trkpt><trkpt lat="43.20682172893624" lon="11.491603763430865"><ele>256.0</ele><time>2026-04-11T02:40:23Z</time></trkpt><trkpt lat="43.206899415631355" lon="11.491733613364675"><ele>255.0</ele><time>2026-04-11T02:40:25Z</time></trkpt><trkpt lat="43.20693778848376" lon="11.491817158646622"><ele>254.0</ele><time>2026-04-11T02:40:26Z</time></trkpt><trkpt lat="43.20697881937028" lon="11.491892427387185"><ele>253.0</ele><time>2026-04-11T02:40:27Z</time></trkpt><trkpt lat="43.207028437923945" lon="11.49196409001991"><ele>252.0</ele><time>2026-04-11T02:40:28Z</time></trkpt><trkpt lat="43.20713193393572" lon="11.492113685115982"><ele>251.0</ele><time>2026-04-11T02:40:30Z</time></trkpt><trkpt lat="43.207197996951344" lon="11.492182753220535"><ele>250.0</ele><time>2026-04-11T02:40:31Z</time></trkpt><trkpt lat="43.20727334256593" lon="11.49225824072329"><ele>249.0</ele><time>2026-04-11T02:40:32Z</time></trkpt><trkpt lat="43.2073431638639" lon="11.492328430413227"><ele>248.0</ele><time>2026-04-11T02:40:33Z</time></trkpt><trkpt lat="43.207418674194315" lon="11.492405383083305"><ele>248.00000000000003</ele><time>2026-04-11T02:40:34Z</time></trkpt><trkpt lat="43.20748881811802" lon="11.492476866765257"><ele>248.0</ele><time>2026-04-11T02:40:35Z</time></trkpt><trkpt lat="43.207560802535795" lon="11.49255022593634"><ele>248.0</ele><time>2026-04-11T02:40:36Z</time></trkpt><trkpt lat="43.207632895790205" lon="11.49262392563362"><ele>248.0</ele><time>2026-04-11T02:40:37Z</time></trkpt><trkpt lat="43.20770389948974" lon="11.492696525271723"><ele>248.00000000000003</ele><time>2026-04-11T02:40:38Z</time></trkpt><trkpt lat="43.207764091868405" lon="11.492732303934256"><ele>248.0</ele><time>2026-04-11T02:40:39Z</time></trkpt><trkpt lat="43.20783256650846" lon="11.492803741589833"><ele>248.00000000000003</ele><time>2026-04-11T02:40:40Z</time></trkpt><trkpt lat="43.2078916557837" lon="11.492891149012287"><ele>248.0</ele><time>2026-04-11T02:40:41Z</time></trkpt><trkpt lat="43.207970036681225" lon="11.492953730190179"><ele>248.0</ele><time>2026-04-11T02:40:42Z</time></trkpt><trkpt lat="43.208028647217816" lon="11.493024585978173"><ele>248.0</ele><time>2026-04-11T02:40:43Z</time></trkpt><trkpt lat="43.20810352404329" lon="11.49310284473026"><ele>248.00000000000003</ele><time>2026-04-11T02:40:44Z</time></trkpt><trkpt lat="43.20817885986793" lon="11.493158940066238"><ele>248.0</ele><time>2026-04-11T02:40:45Z</time></trkpt><trkpt lat="43.20823956643482" lon="11.493221027076572"><ele>248.33333333333334</ele><time>2026-04-11T02:40:46Z</time></trkpt><trkpt lat="43.208300267717014" lon="11.493285939609834"><ele>248.66666666666669</ele><time>2026-04-11T02:40:47Z</time></trkpt><trkpt lat="43.20835708834794" lon="11.493346694268295"><ele>249.0</ele><time>2026-04-11T02:40:48Z</time></trkpt><trkpt lat="43.20841538863267" lon="11.493400112588972"><ele>249.33333333333331</ele><time>2026-04-11T02:40:49Z</time></trkpt><trkpt lat="43.2084834356022" lon="11.493442197043175"><ele>249.66666666666666</ele><time>2026-04-11T02:40:50Z</time></trkpt><trkpt lat="43.2085410387987" lon="11.493490433481284"><ele>250.0</ele><time>2026-04-11T02:40:51Z</time></trkpt><trkpt lat="43.20865563005811" lon="11.49356437571127"><ele>250.0</ele><time>2026-04-11T02:40:53Z</time></trkpt><trkpt lat="43.20875544785554" lon="11.493678315231971"><ele>250.0</ele><time>2026-04-11T02:40:55Z</time></trkpt><trkpt lat="43.20881695136776" lon="11.493794973961874"><ele>250.0</ele><time>2026-04-11T02:40:57Z</time></trkpt><trkpt lat="43.208871739079825" lon="11.493895156631725"><ele>250.0</ele><time>2026-04-11T02:40:59Z</time></trkpt><trkpt lat="43.208911967497805" lon="11.493985452352083"><ele>250.0</ele><time>2026-04-11T02:41:01Z</time></trkpt><trkpt lat="43.208967349854646" lon="11.49408970506097"><ele>251.49999999999997</ele><time>2026-04-11T02:41:04Z</time></trkpt><trkpt lat="43.209008506009745" lon="11.494202819953129"><ele>253.0</ele><time>2026-04-11T02:41:07Z</time></trkpt><trkpt lat="43.20903502253471" lon="11.494283149563742"><ele>254.5</ele><time>2026-04-11T02:41:09Z</time></trkpt><trkpt lat="43.209062505684315" lon="11.494398356037225"><ele>256.0</ele><time>2026-04-11T02:41:12Z</time></trkpt><trkpt lat="43.209075296366585" lon="11.494501854455724"><ele>257.5</ele><time>2026-04-11T02:41:16Z</time></trkpt><trkpt lat="43.20911376301146" lon="11.4946227059361"><ele>259.0</ele><time>2026-04-11T02:41:20Z</time></trkpt><trkpt lat="43.20914759659205" lon="11.494753393078636"><ele>259.4</ele><time>2026-04-11T02:41:24Z</time></trkpt><trkpt lat="43.20917672899119" lon="11.494878868503577"><ele>259.79999999999995</ele><time>2026-04-11T02:41:27Z</time></trkpt><trkpt lat="43.209185598223144" lon="11.494969041430938"><ele>260.20000000000005</ele><time>2026-04-11T02:41:30Z</time></trkpt><trkpt lat="43.209201416398294" lon="11.495073451079183"><ele>260.6</ele><time>2026-04-11T02:41:33Z</time></trkpt><trkpt lat="43.20921347319027" lon="11.495162221312643"><ele>261.0</ele><time>2026-04-11T02:41:36Z</time></trkpt><trkpt lat="43.20831369920817" lon="11.504585879630444"><ele>249.5</ele><time>2026-04-11T02:44:19Z</time></trkpt><trkpt lat="43.208222729270084" lon="11.50459672638448"><ele>238.0</ele><time>2026-04-11T02:44:20Z</time></trkpt><trkpt lat="43.20813661629047" lon="11.504592517490774"><ele>226.5</ele><time>2026-04-11T02:44:21Z</time></trkpt><trkpt lat="43.208055465668814" lon="11.504584387677202"><ele>215.0</ele><time>2026-04-11T02:44:22Z</time></trkpt><trkpt lat="43.20797582457694" lon="11.504577413163664"><ele>203.5</ele><time>2026-04-11T02:44:23Z</time></trkpt><trkpt lat="43.20790812271711" lon="11.504557086722862"><ele>192.0</ele><time>2026-04-11T02:44:24Z</time></trkpt><trkpt lat="43.20779773430705" lon="11.504537011657758"><ele>190.0</ele><time>2026-04-11T02:44:26Z</time></trkpt><trkpt lat="43.20772079951748" lon="11.504600767565083"><ele>188.0</ele><time>2026-04-11T02:44:28Z</time></trkpt><trkpt lat="43.207826309633475" lon="11.504759278103764"><ele>186.0</ele><time>2026-04-11T02:44:32Z</time></trkpt><trkpt lat="43.207944463154256" lon="11.504808371709935"><ele>184.0</ele><time>2026-04-11T02:44:34Z</time></trkpt><trkpt lat="43.20800724920382" lon="11.504828740211705"><ele>182.0</ele><time>2026-04-11T02:44:35Z</time></trkpt><trkpt lat="43.20807327226167" lon="11.504855638735867"><ele>182.0</ele><time>2026-04-11T02:44:36Z</time></trkpt><trkpt lat="43.20813740712336" lon="11.50488953966722"><ele>182.0</ele><time>2026-04-11T02:44:37Z</time></trkpt><trkpt lat="43.20820607427536" lon="11.504924263562382"><ele>182.0</ele><time>2026-04-11T02:44:38Z</time></trkpt><trkpt lat="43.2082749222523" lon="11.50496072667664"><ele>182.0</ele><time>2026-04-11T02:44:39Z</time></trkpt><trkpt lat="43.208332334306064" lon="11.505001874211887"><ele>182.0</ele><time>2026-04-11T02:44:40Z</time></trkpt><trkpt lat="43.20839682431616" lon="11.505037618826734"><ele>182.0</ele><time>2026-04-11T02:44:41Z</time></trkpt><trkpt lat="43.20846361022429" lon="11.505064922714968"><ele>182.0</ele><time>2026-04-11T02:44:42Z</time></trkpt><trkpt lat="43.208541790562904" lon="11.505082292667115"><ele>182.75</ele><time>2026-04-11T02:44:43Z</time></trkpt><trkpt lat="43.208669036346016" lon="11.505100996990576"><ele>183.5</ele><time>2026-04-11T02:44:45Z</time></trkpt><trkpt lat="43.20873915592932" lon="11.50510861207977"><ele>184.25</ele><time>2026-04-11T02:44:46Z</time></trkpt><trkpt lat="43.208878040645004" lon="11.505132220054605"><ele>185.0</ele><time>2026-04-11T02:44:48Z</time></trkpt><trkpt lat="43.209003212664875" lon="11.505147612054044"><ele>185.0</ele><time>2026-04-11T02:44:50Z</time></trkpt><trkpt lat="43.20914149951909" lon="11.505098180465232"><ele>185.0</ele><time>2026-04-11T02:44:52Z</time></trkpt><trkpt lat="43.20920969637307" lon="11.505053559333419"><ele>185.0</ele><time>2026-04-11T02:44:53Z</time></trkpt><trkpt lat="43.209269672930816" lon="11.505002296823584"><ele>185.0</ele><time>2026-04-11T02:44:54Z</time></trkpt><trkpt lat="43.20937584327971" lon="11.504922773982678"><ele>185.0</ele><time>2026-04-11T02:44:56Z</time></trkpt><trkpt lat="43.209456665171324" lon="11.50490594267205"><ele>185.0</ele><time>2026-04-11T02:44:57Z</time></trkpt><trkpt lat="43.209522155457535" lon="11.5048846793185"><ele>185.0</ele><time>2026-04-11T02:44:58Z</time></trkpt><trkpt lat="43.209652871384364" lon="11.504907661309677"><ele>185.0</ele><time>2026-04-11T02:45:00Z</time></trkpt><trkpt lat="43.20974242544422" lon="11.50492919661819"><ele>185.0</ele><time>2026-04-11T02:45:01Z</time></trkpt><trkpt lat="43.209819204389966" lon="11.50496300852403"><ele>185.0</ele><time>2026-04-11T02:45:02Z</time></trkpt><trkpt lat="43.20988696723979" lon="11.505045768115307"><ele>183.66666666666666</ele><time>2026-04-11T02:45:03Z</time></trkpt><trkpt lat="43.20994470549889" lon="11.505122956680287"><ele>182.33333333333331</ele><time>2026-04-11T02:45:04Z</time></trkpt><trkpt lat="43.21000213654711" lon="11.505193651628227"><ele>181.0</ele><time>2026-04-11T02:45:05Z</time></trkpt><trkpt lat="43.2100691694962" lon="11.505267587578567"><ele>179.66666666666666</ele><time>2026-04-11T02:45:06Z</time></trkpt><trkpt lat="43.210140923794704" lon="11.505320196064677"><ele>178.33333333333334</ele><time>2026-04-11T02:45:07Z</time></trkpt><trkpt lat="43.21020843445631" lon="11.505362293620982"><ele>177.0</ele><time>2026-04-11T02:45:08Z</time></trkpt><trkpt lat="43.210276460591444" lon="11.50539009894687"><ele>177.0</ele><time>2026-04-11T02:45:09Z</time></trkpt><trkpt lat="43.21034588295568" lon="11.5054090397025"><ele>177.0</ele><time>2026-04-11T02:45:10Z</time></trkpt><trkpt lat="43.210413648247425" lon="11.505414877843027"><ele>177.0</ele><time>2026-04-11T02:45:11Z</time></trkpt><trkpt lat="43.21055028530688" lon="11.505434687214468"><ele>177.0</ele><time>2026-04-11T02:45:13Z</time></trkpt><trkpt lat="43.21063434863197" lon="11.505445156973558"><ele>177.0</ele><time>2026-04-11T02:45:14Z</time></trkpt><trkpt lat="43.21071696836666" lon="11.505440354502376"><ele>177.0</ele><time>2026-04-11T02:45:15Z</time></trkpt><trkpt lat="43.2108059413897" lon="11.505414707157033"><ele>176.39999999999998</ele><time>2026-04-11T02:45:16Z</time></trkpt><trkpt lat="43.21089101211923" lon="11.505378548437736"><ele>175.79999999999998</ele><time>2026-04-11T02:45:17Z</time></trkpt><trkpt lat="43.21097690894312" lon="11.505357715590389"><ele>175.2</ele><time>2026-04-11T02:45:18Z</time></trkpt><trkpt lat="43.211049896804504" lon="11.505344286920637"><ele>174.6</ele><time>2026-04-11T02:45:19Z</time></trkpt><trkpt lat="43.2111779578129" lon="11.505346201003375"><ele>174.0</ele><time>2026-04-11T02:45:21Z</time></trkpt><trkpt lat="43.21124679060864" lon="11.505379099843255"><ele>172.33333333333334</ele><time>2026-04-11T02:45:22Z</time></trkpt><trkpt lat="43.21131888614442" lon="11.505436233267943"><ele>170.66666666666666</ele><time>2026-04-11T02:45:23Z</time></trkpt><trkpt lat="43.2113653089006" lon="11.505510820414033"><ele>169.0</ele><time>2026-04-11T02:45:24Z</time></trkpt><trkpt lat="43.211406397098564" lon="11.505604194991474"><ele>167.33333333333331</ele><time>2026-04-11T02:45:25Z</time></trkpt><trkpt lat="43.21143146643635" lon="11.505711467814951"><ele>165.66666666666666</ele><time>2026-04-11T02:45:26Z</time></trkpt><trkpt lat="43.211457100485845" lon="11.505799064197136"><ele>164.0</ele><time>2026-04-11T02:45:27Z</time></trkpt><trkpt lat="43.21148344213634" lon="11.50590538355009"><ele>164.16666666666666</ele><time>2026-04-11T02:45:28Z</time></trkpt><trkpt lat="43.2115063135106" lon="11.506000089383432"><ele>164.33333333333331</ele><time>2026-04-11T02:45:29Z</time></trkpt><trkpt lat="43.2115225194875" lon="11.506084406550327"><ele>164.5</ele><time>2026-04-11T02:45:30Z</time></trkpt><trkpt lat="43.211549450876795" lon="11.506192506694076"><ele>164.66666666666666</ele><time>2026-04-11T02:45:31Z</time></trkpt><trkpt lat="43.21157431870703" lon="11.506282338333003"><ele>164.83333333333334</ele><time>2026-04-11T02:45:32Z</time></trkpt><trkpt lat="43.21163244039706" lon="11.506460608742369"><ele>165.0</ele><time>2026-04-11T02:45:34Z</time></trkpt><trkpt lat="43.21165772057401" lon="11.506551977877034"><ele>165.00000000000003</ele><time>2026-04-11T02:45:35Z</time></trkpt><trkpt lat="43.21168210503883" lon="11.506650671083715"><ele>165.0</ele><time>2026-04-11T02:45:36Z</time></trkpt><trkpt lat="43.211705077615555" lon="11.506743106436776"><ele>165.0</ele><time>2026-04-11T02:45:37Z</time></trkpt><trkpt lat="43.211724799439345" lon="11.506831547975287"><ele>165.0</ele><time>2026-04-11T02:45:38Z</time></trkpt><trkpt lat="43.211751954698464" lon="11.50691103493801"><ele>165.0</ele><time>2026-04-11T02:45:39Z</time></trkpt><trkpt lat="43.211779410281984" lon="11.506995524251392"><ele>165.00000000000003</ele><time>2026-04-11T02:45:40Z</time></trkpt><trkpt lat="43.21181014243579" lon="11.507081789141628"><ele>165.0</ele><time>2026-04-11T02:45:41Z</time></trkpt><trkpt lat="43.21183383479005" lon="11.507167684388385"><ele>164.85714285714286</ele><time>2026-04-11T02:45:42Z</time></trkpt><trkpt lat="43.211860915620946" lon="11.50725451646172"><ele>164.71428571428572</ele><time>2026-04-11T02:45:43Z</time></trkpt><trkpt lat="43.21188694780245" lon="11.507341890855036"><ele>164.57142857142856</ele><time>2026-04-11T02:45:44Z</time></trkpt><trkpt lat="43.211914451492184" lon="11.50742531290557"><ele>164.42857142857144</ele><time>2026-04-11T02:45:45Z</time></trkpt><trkpt lat="43.211944301074396" lon="11.507511426532593"><ele>164.28571428571428</ele><time>2026-04-11T02:45:46Z</time></trkpt><trkpt lat="43.21199970543652" lon="11.507589933060231"><ele>164.14285714285714</ele><time>2026-04-11T02:45:47Z</time></trkpt><trkpt lat="43.21205096029642" lon="11.507659802128748"><ele>164.0</ele><time>2026-04-11T02:45:48Z</time></trkpt><trkpt lat="43.212108673593846" lon="11.507723868777004"><ele>164.0</ele><time>2026-04-11T02:45:49Z</time></trkpt><trkpt lat="43.21218118400224" lon="11.50777581143219"><ele>164.0</ele><time>2026-04-11T02:45:50Z</time></trkpt><trkpt lat="43.212252615391414" lon="11.507820285951665"><ele>164.0</ele><time>2026-04-11T02:45:51Z</time></trkpt><trkpt lat="43.21232326884845" lon="11.507848643495556"><ele>164.0</ele><time>2026-04-11T02:45:52Z</time></trkpt><trkpt lat="43.21240333530393" lon="11.507904900799833"><ele>164.0</ele><time>2026-04-11T02:45:53Z</time></trkpt><trkpt lat="43.212534465419296" lon="11.508016259308212"><ele>163.66666666666666</ele><time>2026-04-11T02:45:55Z</time></trkpt><trkpt lat="43.212587438061036" lon="11.508094016284337"><ele>163.33333333333331</ele><time>2026-04-11T02:45:56Z</time></trkpt><trkpt lat="43.21263388698635" lon="11.508185408435633"><ele>163.0</ele><time>2026-04-11T02:45:57Z</time></trkpt><trkpt lat="43.212662659898626" lon="11.508280397557733"><ele>162.66666666666666</ele><time>2026-04-11T02:45:58Z</time></trkpt><trkpt lat="43.21269324275537" lon="11.5083730194005"><ele>162.33333333333334</ele><time>2026-04-11T02:45:59Z</time></trkpt><trkpt lat="43.21272689497731" lon="11.508460474244384"><ele>162.0</ele><time>2026-04-11T02:46:00Z</time></trkpt><trkpt lat="43.212760556458065" lon="11.508544333652408"><ele>162.0</ele><time>2026-04-11T02:46:01Z</time></trkpt><trkpt lat="43.212801716643305" lon="11.508628762436274"><ele>162.0</ele><time>2026-04-11T02:46:02Z</time></trkpt><trkpt lat="43.212860992188446" lon="11.508701080837714"><ele>162.0</ele><time>2026-04-11T02:46:03Z</time></trkpt><trkpt lat="43.21290295964507" lon="11.50878474467258"><ele>162.0</ele><time>2026-04-11T02:46:04Z</time></trkpt><trkpt lat="43.21294029517373" lon="11.508868639863538"><ele>162.0</ele><time>2026-04-11T02:46:05Z</time></trkpt><trkpt lat="43.212983258082396" lon="11.508952086604383"><ele>162.0</ele><time>2026-04-11T02:46:06Z</time></trkpt><trkpt lat="43.21302474108223" lon="11.509031084048816"><ele>162.0</ele><time>2026-04-11T02:46:07Z</time></trkpt><trkpt lat="43.213063889288534" lon="11.509109867379397"><ele>161.8</ele><time>2026-04-11T02:46:08Z</time></trkpt><trkpt lat="43.213095980611335" lon="11.509193449568171"><ele>161.6</ele><time>2026-04-11T02:46:09Z</time></trkpt><trkpt lat="43.213129299219446" lon="11.509271509057113"><ele>161.4</ele><time>2026-04-11T02:46:10Z</time></trkpt><trkpt lat="43.21320883833602" lon="11.509416322341117"><ele>161.20000000000002</ele><time>2026-04-11T02:46:12Z</time></trkpt><trkpt lat="43.21324843031886" lon="11.509488348211264"><ele>161.0</ele><time>2026-04-11T02:46:13Z</time></trkpt><trkpt lat="43.21333137876108" lon="11.509607176373855"><ele>161.5</ele><time>2026-04-11T02:46:15Z</time></trkpt><trkpt lat="43.21347950347448" lon="11.509816769014789"><ele>162.0</ele><time>2026-04-11T02:46:18Z</time></trkpt><trkpt lat="43.213581481724425" lon="11.509893072613306"><ele>162.5</ele><time>2026-04-11T02:46:20Z</time></trkpt><trkpt lat="43.21363327960178" lon="11.509951262789293"><ele>163.0</ele><time>2026-04-11T02:46:21Z</time></trkpt><trkpt lat="43.21367757708764" lon="11.51001647519859"><ele>163.0</ele><time>2026-04-11T02:46:22Z</time></trkpt><trkpt lat="43.21375863947285" lon="11.510136921713801"><ele>163.0</ele><time>2026-04-11T02:46:24Z</time></trkpt><trkpt lat="43.2138074019793" lon="11.510198159789837"><ele>163.0</ele><time>2026-04-11T02:46:25Z</time></trkpt><trkpt lat="43.21385041042375" lon="11.510263190875953"><ele>163.0</ele><time>2026-04-11T02:46:26Z</time></trkpt><trkpt lat="43.21388774006752" lon="11.510334797203413"><ele>163.0</ele><time>2026-04-11T02:46:27Z</time></trkpt><trkpt lat="43.21395293015095" lon="11.510453818653492"><ele>163.0</ele><time>2026-04-11T02:46:29Z</time></trkpt><trkpt lat="43.21402169539735" lon="11.510560269104985"><ele>163.25</ele><time>2026-04-11T02:46:31Z</time></trkpt><trkpt lat="43.21406156145972" lon="11.510641661034459"><ele>163.5</ele><time>2026-04-11T02:46:32Z</time></trkpt><trkpt lat="43.21412228804774" lon="11.510747839869476"><ele>163.75</ele><time>2026-04-11T02:46:34Z</time></trkpt><trkpt lat="43.21418389763083" lon="11.510877877402338"><ele>164.0</ele><time>2026-04-11T02:46:36Z</time></trkpt><trkpt lat="43.214258414465874" lon="11.51116306891243"><ele>164.39999999999998</ele><time>2026-04-11T02:46:40Z</time></trkpt><trkpt lat="43.21425373486277" lon="11.511323403919327"><ele>164.8</ele><time>2026-04-11T02:46:42Z</time></trkpt><trkpt lat="43.21422631042685" lon="11.511464662364519"><ele>165.2</ele><time>2026-04-11T02:46:44Z</time></trkpt><trkpt lat="43.214213065275615" lon="11.511591628065993"><ele>165.60000000000002</ele><time>2026-04-11T02:46:46Z</time></trkpt><trkpt lat="43.214194344545405" lon="11.511701675502641"><ele>166.0</ele><time>2026-04-11T02:46:48Z</time></trkpt><trkpt lat="43.21419803284947" lon="11.5117906988642"><ele>166.0</ele><time>2026-04-11T02:46:50Z</time></trkpt><trkpt lat="43.214197193858" lon="11.511877995982902"><ele>166.0</ele><time>2026-04-11T02:46:52Z</time></trkpt><trkpt lat="43.21422072470844" lon="11.511968928614682"><ele>166.0</ele><time>2026-04-11T02:46:54Z</time></trkpt><trkpt lat="43.21425266890004" lon="11.512054544972589"><ele>166.0</ele><time>2026-04-11T02:46:56Z</time></trkpt><trkpt lat="43.21429731443722" lon="11.51216598857955"><ele>166.0</ele><time>2026-04-11T02:46:59Z</time></trkpt><trkpt lat="43.21442595558785" lon="11.512339375229244"><ele>166.33333333333334</ele><time>2026-04-11T02:47:05Z</time></trkpt><trkpt lat="43.214504636923785" lon="11.512394328533619"><ele>166.66666666666669</ele><time>2026-04-11T02:47:08Z</time></trkpt><trkpt lat="43.21456675025216" lon="11.51246744011292"><ele>167.0</ele><time>2026-04-11T02:47:11Z</time></trkpt><trkpt lat="43.214642634806374" lon="11.512524351358161"><ele>167.33333333333334</ele><time>2026-04-11T02:47:14Z</time></trkpt><trkpt lat="43.21470866192992" lon="11.512596411023665"><ele>167.66666666666666</ele><time>2026-04-11T02:47:17Z</time></trkpt><trkpt lat="43.21476986949259" lon="11.512674679996111"><ele>168.0</ele><time>2026-04-11T02:47:20Z</time></trkpt><trkpt lat="43.214884952878684" lon="11.512780359553332"><ele>169.66666666666666</ele><time>2026-04-11T02:47:25Z</time></trkpt><trkpt lat="43.21494738178058" lon="11.512835440277387"><ele>171.33333333333334</ele><time>2026-04-11T02:47:28Z</time></trkpt><trkpt lat="43.21501563205611" lon="11.512900522861743"><ele>173.0</ele><time>2026-04-11T02:47:31Z</time></trkpt><trkpt lat="43.215075250686404" lon="11.512964453939805"><ele>174.66666666666669</ele><time>2026-04-11T02:47:34Z</time></trkpt><trkpt lat="43.21515309399667" lon="11.513045611002847"><ele>176.33333333333334</ele><time>2026-04-11T02:47:37Z</time></trkpt><trkpt lat="43.215204678913494" lon="11.513117488599086"><ele>178.0</ele><time>2026-04-11T02:47:40Z</time></trkpt><trkpt lat="43.21525078167151" lon="11.513176737761937"><ele>178.4</ele><time>2026-04-11T02:47:42Z</time></trkpt><trkpt lat="43.215347301594974" lon="11.513333805940013"><ele>178.8</ele><time>2026-04-11T02:47:48Z</time></trkpt><trkpt lat="43.215394434012445" lon="11.513429382264242"><ele>179.2</ele><time>2026-04-11T02:47:51Z</time></trkpt><trkpt lat="43.2154315181357" lon="11.513523763782576"><ele>179.6</ele><time>2026-04-11T02:47:54Z</time></trkpt><trkpt lat="43.21546178153684" lon="11.513633496247564"><ele>180.0</ele><time>2026-04-11T02:47:57Z</time></trkpt><trkpt lat="43.215479555782046" lon="11.513722186374336"><ele>180.4</ele><time>2026-04-11T02:47:59Z</time></trkpt><trkpt lat="43.21549596844618" lon="11.513808133292674"><ele>180.8</ele><time>2026-04-11T02:48:01Z</time></trkpt><trkpt lat="43.215485583006924" lon="11.513907471409144"><ele>181.2</ele><time>2026-04-11T02:48:03Z</time></trkpt><trkpt lat="43.21555694519118" lon="11.514155292649068"><ele>181.6</ele><time>2026-04-11T02:48:07Z</time></trkpt><trkpt lat="43.21558256570973" lon="11.51424016183667"><ele>182.0</ele><time>2026-04-11T02:48:08Z</time></trkpt><trkpt lat="43.21560204202476" lon="11.51434842413518"><ele>182.39999999999998</ele><time>2026-04-11T02:48:09Z</time></trkpt><trkpt lat="43.215654443458966" lon="11.514453082261763"><ele>182.79999999999998</ele><time>2026-04-11T02:48:10Z</time></trkpt><trkpt lat="43.215701656549605" lon="11.514548997621397"><ele>183.2</ele><time>2026-04-11T02:48:11Z</time></trkpt><trkpt lat="43.215737887565474" lon="11.514660883118205"><ele>183.6</ele><time>2026-04-11T02:48:12Z</time></trkpt><trkpt lat="43.215773123166926" lon="11.514783165869996"><ele>184.0</ele><time>2026-04-11T02:48:13Z</time></trkpt><trkpt lat="43.215810539112304" lon="11.514902930933532"><ele>182.0</ele><time>2026-04-11T02:48:14Z</time></trkpt><trkpt lat="43.21585389760688" lon="11.51502412060078"><ele>180.0</ele><time>2026-04-11T02:48:15Z</time></trkpt><trkpt lat="43.21589589783871" lon="11.515147471825601"><ele>178.0</ele><time>2026-04-11T02:48:16Z</time></trkpt><trkpt lat="43.215939523377116" lon="11.515274979483943"><ele>176.0</ele><time>2026-04-11T02:48:17Z</time></trkpt><trkpt lat="43.21598539583238" lon="11.515410076519885"><ele>174.0</ele><time>2026-04-11T02:48:18Z</time></trkpt><trkpt lat="43.216017024956436" lon="11.51553085551461"><ele>172.79999999999998</ele><time>2026-04-11T02:48:19Z</time></trkpt><trkpt lat="43.21605385575735" lon="11.515654188322406"><ele>171.6</ele><time>2026-04-11T02:48:20Z</time></trkpt><trkpt lat="43.21612383037602" lon="11.515777810512988"><ele>170.4</ele><time>2026-04-11T02:48:21Z</time></trkpt><trkpt lat="43.216184379183915" lon="11.515894157851571"><ele>169.2</ele><time>2026-04-11T02:48:22Z</time></trkpt><trkpt lat="43.21624264569603" lon="11.516006785531316"><ele>168.0</ele><time>2026-04-11T02:48:23Z</time></trkpt><trkpt lat="43.21630013933123" lon="11.516119120405572"><ele>168.25</ele><time>2026-04-11T02:48:24Z</time></trkpt><trkpt lat="43.216406087220314" lon="11.51632613418248"><ele>168.5</ele><time>2026-04-11T02:48:26Z</time></trkpt><trkpt lat="43.21649003657422" lon="11.516421514603998"><ele>168.75</ele><time>2026-04-11T02:48:27Z</time></trkpt><trkpt lat="43.21652531352494" lon="11.516522203307828"><ele>169.0</ele><time>2026-04-11T02:48:28Z</time></trkpt><trkpt lat="43.21657265078982" lon="11.516620924213509"><ele>169.0</ele><time>2026-04-11T02:48:29Z</time></trkpt><trkpt lat="43.21662030468311" lon="11.516714929703983"><ele>169.0</ele><time>2026-04-11T02:48:30Z</time></trkpt><trkpt lat="43.216664687159806" lon="11.516805828102475"><ele>169.0</ele><time>2026-04-11T02:48:31Z</time></trkpt><trkpt lat="43.216708755304644" lon="11.516895848210785"><ele>169.0</ele><time>2026-04-11T02:48:32Z</time></trkpt><trkpt lat="43.21674996491029" lon="11.516982551603986"><ele>169.0</ele><time>2026-04-11T02:48:33Z</time></trkpt><trkpt lat="43.216787024471344" lon="11.517073182368163"><ele>169.0</ele><time>2026-04-11T02:48:34Z</time></trkpt><trkpt lat="43.21683630833816" lon="11.517165245207787"><ele>169.2</ele><time>2026-04-11T02:48:35Z</time></trkpt><trkpt lat="43.216877588253006" lon="11.517238271347578"><ele>169.39999999999998</ele><time>2026-04-11T02:48:36Z</time></trkpt><trkpt lat="43.21691794731014" lon="11.517366049372134"><ele>169.6</ele><time>2026-04-11T02:48:38Z</time></trkpt><trkpt lat="43.21696061604121" lon="11.517482566057748"><ele>169.8</ele><time>2026-04-11T02:48:40Z</time></trkpt><trkpt lat="43.21701884867368" lon="11.517600202842923"><ele>170.0</ele><time>2026-04-11T02:48:42Z</time></trkpt><trkpt lat="43.21705956523137" lon="11.517703056667491"><ele>170.0</ele><time>2026-04-11T02:48:44Z</time></trkpt><trkpt lat="43.21709542880243" lon="11.517825289170052"><ele>170.0</ele><time>2026-04-11T02:48:46Z</time></trkpt><trkpt lat="43.21716699025959" lon="11.518053314860639"><ele>170.0</ele><time>2026-04-11T02:48:50Z</time></trkpt><trkpt lat="43.21721812750826" lon="11.5181551620726"><ele>170.0</ele><time>2026-04-11T02:48:52Z</time></trkpt><trkpt lat="43.21725778631362" lon="11.518262826626975"><ele>169.8</ele><time>2026-04-11T02:48:54Z</time></trkpt><trkpt lat="43.21730735659793" lon="11.518374054151234"><ele>169.6</ele><time>2026-04-11T02:48:56Z</time></trkpt><trkpt lat="43.21734818098833" lon="11.518506299797208"><ele>169.39999999999998</ele><time>2026-04-11T02:48:58Z</time></trkpt><trkpt lat="43.21739456505189" lon="11.518662254603639"><ele>169.2</ele><time>2026-04-11T02:49:00Z</time></trkpt><trkpt lat="43.21741861037363" lon="11.518747124134018"><ele>169.0</ele><time>2026-04-11T02:49:01Z</time></trkpt><trkpt lat="43.217445970059984" lon="11.518846207968336"><ele>169.83333333333334</ele><time>2026-04-11T02:49:02Z</time></trkpt><trkpt lat="43.21746303503072" lon="11.518931364995174"><ele>170.66666666666669</ele><time>2026-04-11T02:49:03Z</time></trkpt><trkpt lat="43.217473007575784" lon="11.51902702167783"><ele>171.5</ele><time>2026-04-11T02:49:04Z</time></trkpt><trkpt lat="43.21747142303238" lon="11.519122957683514"><ele>172.33333333333334</ele><time>2026-04-11T02:49:05Z</time></trkpt><trkpt lat="43.21746716101883" lon="11.519216461006419"><ele>173.16666666666666</ele><time>2026-04-11T02:49:06Z</time></trkpt><trkpt lat="43.217463306729705" lon="11.519304437252256"><ele>174.0</ele><time>2026-04-11T02:49:07Z</time></trkpt><trkpt lat="43.21744096752758" lon="11.519587109184576"><ele>175.0</ele><time>2026-04-11T02:49:11Z</time></trkpt><trkpt lat="43.21743107583662" lon="11.519697164067189"><ele>176.0</ele><time>2026-04-11T02:49:13Z</time></trkpt><trkpt lat="43.217426400119436" lon="11.519788501898386"><ele>177.0</ele><time>2026-04-11T02:49:15Z</time></trkpt><trkpt lat="43.21741973129784" lon="11.519914218017513"><ele>178.0</ele><time>2026-04-11T02:49:18Z</time></trkpt><trkpt lat="43.21742078061613" lon="11.520035630679443"><ele>179.0</ele><time>2026-04-11T02:49:21Z</time></trkpt><trkpt lat="43.21741968869012" lon="11.520122809255964"><ele>180.0</ele><time>2026-04-11T02:49:23Z</time></trkpt><trkpt lat="43.217409716491886" lon="11.52023618830483"><ele>180.0</ele><time>2026-04-11T02:49:26Z</time></trkpt><trkpt lat="43.21740240557964" lon="11.520353261938256"><ele>180.0</ele><time>2026-04-11T02:49:29Z</time></trkpt><trkpt lat="43.217396768187974" lon="11.52056153662074"><ele>180.0</ele><time>2026-04-11T02:49:35Z</time></trkpt><trkpt lat="43.21739345304804" lon="11.52066455253278"><ele>180.0</ele><time>2026-04-11T02:49:38Z</time></trkpt><trkpt lat="43.21739888797915" lon="11.520769638002983"><ele>180.0</ele><time>2026-04-11T02:49:41Z</time></trkpt><trkpt lat="43.21742272535179" lon="11.520887802102038"><ele>179.8</ele><time>2026-04-11T02:49:44Z</time></trkpt><trkpt lat="43.21746240287818" lon="11.521006564084285"><ele>179.6</ele><time>2026-04-11T02:49:47Z</time></trkpt><trkpt lat="43.217525495089546" lon="11.521116138951585"><ele>179.39999999999998</ele><time>2026-04-11T02:49:50Z</time></trkpt><trkpt lat="43.21762603830158" lon="11.521275749760159"><ele>179.2</ele><time>2026-04-11T02:49:54Z</time></trkpt><trkpt lat="43.21770142043128" lon="11.521361351401678"><ele>179.0</ele><time>2026-04-11T02:49:56Z</time></trkpt><trkpt lat="43.21780195123037" lon="11.521424567243827"><ele>179.0</ele><time>2026-04-11T02:49:58Z</time></trkpt><trkpt lat="43.21790920811653" lon="11.521491414926562"><ele>179.0</ele><time>2026-04-11T02:50:00Z</time></trkpt><trkpt lat="43.218022321348506" lon="11.521570792603764"><ele>179.0</ele><time>2026-04-11T02:50:02Z</time></trkpt><trkpt lat="43.218073533537215" lon="11.521623659930222"><ele>179.0</ele><time>2026-04-11T02:50:03Z</time></trkpt><trkpt lat="43.21812721348308" lon="11.52168821649477"><ele>179.0</ele><time>2026-04-11T02:50:04Z</time></trkpt><trkpt lat="43.218153589905405" lon="11.52178010206321"><ele>179.14285714285717</ele><time>2026-04-11T02:50:05Z</time></trkpt><trkpt lat="43.21817276661912" lon="11.521864163354374"><ele>179.28571428571428</ele><time>2026-04-11T02:50:06Z</time></trkpt><trkpt lat="43.21817468782883" lon="11.521962198629499"><ele>179.42857142857144</ele><time>2026-04-11T02:50:07Z</time></trkpt><trkpt lat="43.21817705188881" lon="11.522060419123676"><ele>179.57142857142858</ele><time>2026-04-11T02:50:08Z</time></trkpt><trkpt lat="43.21817826262976" lon="11.5221633843499"><ele>179.71428571428572</ele><time>2026-04-11T02:50:09Z</time></trkpt><trkpt lat="43.21818713301936" lon="11.522256696828595"><ele>179.85714285714286</ele><time>2026-04-11T02:50:10Z</time></trkpt><trkpt lat="43.21820687362141" lon="11.522347258503098"><ele>180.0</ele><time>2026-04-11T02:50:11Z</time></trkpt><trkpt lat="43.21827209426295" lon="11.522557344187755"><ele>180.0</ele><time>2026-04-11T02:50:13Z</time></trkpt><trkpt lat="43.21830583185568" lon="11.522660920364489"><ele>180.0</ele><time>2026-04-11T02:50:14Z</time></trkpt><trkpt lat="43.218340163763656" lon="11.522765105971777"><ele>180.0</ele><time>2026-04-11T02:50:15Z</time></trkpt><trkpt lat="43.21837679186287" lon="11.52287171432601"><ele>180.0</ele><time>2026-04-11T02:50:16Z</time></trkpt><trkpt lat="43.21841348725068" lon="11.522976447894303"><ele>180.0</ele><time>2026-04-11T02:50:17Z</time></trkpt><trkpt lat="43.21845200858637" lon="11.523084329261243"><ele>180.0</ele><time>2026-04-11T02:50:18Z</time></trkpt><trkpt lat="43.2184908733872" lon="11.523184158944096"><ele>178.4</ele><time>2026-04-11T02:50:19Z</time></trkpt><trkpt lat="43.21853512944728" lon="11.523284832730749"><ele>176.8</ele><time>2026-04-11T02:50:20Z</time></trkpt><trkpt lat="43.21858649508354" lon="11.523385339799566"><ele>175.2</ele><time>2026-04-11T02:50:21Z</time></trkpt><trkpt lat="43.21864202853112" lon="11.523482054231632"><ele>173.6</ele><time>2026-04-11T02:50:22Z</time></trkpt><trkpt lat="43.21869963143034" lon="11.523580276933851"><ele>172.0</ele><time>2026-04-11T02:50:23Z</time></trkpt><trkpt lat="43.21877143137391" lon="11.52370289765326"><ele>172.0</ele><time>2026-04-11T02:50:24Z</time></trkpt><trkpt lat="43.21883093696782" lon="11.523802964876296"><ele>172.0</ele><time>2026-04-11T02:50:25Z</time></trkpt><trkpt lat="43.21887629970566" lon="11.523888725140301"><ele>172.0</ele><time>2026-04-11T02:50:26Z</time></trkpt><trkpt lat="43.21893003040123" lon="11.523994054070624"><ele>172.0</ele><time>2026-04-11T02:50:27Z</time></trkpt><trkpt lat="43.21899158321419" lon="11.524098558071842"><ele>172.0</ele><time>2026-04-11T02:50:28Z</time></trkpt><trkpt lat="43.219052721603816" lon="11.524199667062339"><ele>172.0</ele><time>2026-04-11T02:50:29Z</time></trkpt><trkpt lat="43.2191168892741" lon="11.524306867476877"><ele>172.0</ele><time>2026-04-11T02:50:30Z</time></trkpt><trkpt lat="43.21918090340081" lon="11.524404484859632"><ele>172.0</ele><time>2026-04-11T02:50:31Z</time></trkpt><trkpt lat="43.219240432416015" lon="11.524479680718283"><ele>172.0</ele><time>2026-04-11T02:50:32Z</time></trkpt><trkpt lat="43.21935651978682" lon="11.524680786248993"><ele>171.16666666666669</ele><time>2026-04-11T02:50:34Z</time></trkpt><trkpt lat="43.21941285501292" lon="11.524772455989096"><ele>170.33333333333334</ele><time>2026-04-11T02:50:35Z</time></trkpt><trkpt lat="43.21947242144212" lon="11.524845068027014"><ele>169.5</ele><time>2026-04-11T02:50:36Z</time></trkpt><trkpt lat="43.219531958365195" lon="11.524906194255726"><ele>168.66666666666666</ele><time>2026-04-11T02:50:37Z</time></trkpt><trkpt lat="43.21959663624224" lon="11.524950046981457"><ele>167.83333333333331</ele><time>2026-04-11T02:50:38Z</time></trkpt><trkpt lat="43.219719438298355" lon="11.525013764206502"><ele>167.0</ele><time>2026-04-11T02:50:40Z</time></trkpt><trkpt lat="43.21981439020152" lon="11.525004251914167"><ele>168.2</ele><time>2026-04-11T02:50:42Z</time></trkpt><trkpt lat="43.219920674266156" lon="11.524997070133635"><ele>169.39999999999998</ele><time>2026-04-11T02:50:44Z</time></trkpt><trkpt lat="43.2200243212473" lon="11.524931820552066"><ele>170.60000000000002</ele><time>2026-04-11T02:50:46Z</time></trkpt><trkpt lat="43.22011941030783" lon="11.524890281094121"><ele>171.8</ele><time>2026-04-11T02:50:48Z</time></trkpt><trkpt lat="43.220181784707655" lon="11.524841579263011"><ele>173.0</ele><time>2026-04-11T02:50:49Z</time></trkpt><trkpt lat="43.22026822527831" lon="11.524851768934923"><ele>173.0</ele><time>2026-04-11T02:50:51Z</time></trkpt><trkpt lat="43.2203756337197" lon="11.524837524859063"><ele>173.0</ele><time>2026-04-11T02:50:53Z</time></trkpt><trkpt lat="43.22056736355312" lon="11.524893789638025"><ele>173.0</ele><time>2026-04-11T02:50:56Z</time></trkpt><trkpt lat="43.2206234388619" lon="11.524939809099193"><ele>173.0</ele><time>2026-04-11T02:50:57Z</time></trkpt><trkpt lat="43.220692023924485" lon="11.525004850264738"><ele>173.83333333333331</ele><time>2026-04-11T02:50:58Z</time></trkpt><trkpt lat="43.22079554121453" lon="11.52509791202814"><ele>174.66666666666666</ele><time>2026-04-11T02:51:00Z</time></trkpt><trkpt lat="43.22085218747126" lon="11.525140466692875"><ele>175.5</ele><time>2026-04-11T02:51:01Z</time></trkpt><trkpt lat="43.22091601495828" lon="11.525182155974884"><ele>176.33333333333334</ele><time>2026-04-11T02:51:02Z</time></trkpt><trkpt lat="43.22097950787874" lon="11.525216825895582"><ele>177.16666666666669</ele><time>2026-04-11T02:51:03Z</time></trkpt><trkpt lat="43.221046775013484" lon="11.5252386609413"><ele>178.0</ele><time>2026-04-11T02:51:04Z</time></trkpt><trkpt lat="43.22112344712047" lon="11.525270168324822"><ele>177.99999999999997</ele><time>2026-04-11T02:51:05Z</time></trkpt><trkpt lat="43.221190414683036" lon="11.525286020520133"><ele>178.0</ele><time>2026-04-11T02:51:06Z</time></trkpt><trkpt lat="43.22126280269689" lon="11.52528523150381"><ele>178.0</ele><time>2026-04-11T02:51:07Z</time></trkpt><trkpt lat="43.22132639244602" lon="11.525307309505074"><ele>178.0</ele><time>2026-04-11T02:51:08Z</time></trkpt><trkpt lat="43.221393495769746" lon="11.525311264065994"><ele>178.0</ele><time>2026-04-11T02:51:09Z</time></trkpt><trkpt lat="43.22146565189695" lon="11.52532370571891"><ele>177.99999999999997</ele><time>2026-04-11T02:51:10Z</time></trkpt><trkpt lat="43.22152973045241" lon="11.52533978373127"><ele>178.0</ele><time>2026-04-11T02:51:11Z</time></trkpt><trkpt lat="43.22159934142015" lon="11.52535857445238"><ele>179.2</ele><time>2026-04-11T02:51:12Z</time></trkpt><trkpt lat="43.221683480407684" lon="11.525398331523812"><ele>180.4</ele><time>2026-04-11T02:51:13Z</time></trkpt><trkpt lat="43.22179332489379" lon="11.525391150000402"><ele>181.6</ele><time>2026-04-11T02:51:15Z</time></trkpt><trkpt lat="43.22192150810342" lon="11.525409968535431"><ele>182.79999999999998</ele><time>2026-04-11T02:51:17Z</time></trkpt><trkpt lat="43.222029647454335" lon="11.52542768740331"><ele>184.0</ele><time>2026-04-11T02:51:19Z</time></trkpt><trkpt lat="43.22213736678052" lon="11.525439012812482"><ele>181.39999999999998</ele><time>2026-04-11T02:51:21Z</time></trkpt><trkpt lat="43.22224298464928" lon="11.525464057595281"><ele>178.8</ele><time>2026-04-11T02:51:23Z</time></trkpt><trkpt lat="43.22235547887139" lon="11.525471566503729"><ele>176.2</ele><time>2026-04-11T02:51:25Z</time></trkpt><trkpt lat="43.222474395071686" lon="11.525476786265603"><ele>173.60000000000002</ele><time>2026-04-11T02:51:27Z</time></trkpt><trkpt lat="43.22254204037778" lon="11.525485110260812"><ele>171.0</ele><time>2026-04-11T02:51:28Z</time></trkpt><trkpt lat="43.22267179393811" lon="11.52550715156935"><ele>170.66666666666666</ele><time>2026-04-11T02:51:30Z</time></trkpt><trkpt lat="43.22274012443528" lon="11.52553268949095"><ele>170.33333333333334</ele><time>2026-04-11T02:51:31Z</time></trkpt><trkpt lat="43.22279788131128" lon="11.525585110670612"><ele>170.0</ele><time>2026-04-11T02:51:32Z</time></trkpt><trkpt lat="43.22285528918013" lon="11.525637427178038"><ele>169.66666666666669</ele><time>2026-04-11T02:51:33Z</time></trkpt><trkpt lat="43.222907303753374" lon="11.525697135646944"><ele>169.33333333333334</ele><time>2026-04-11T02:51:34Z</time></trkpt><trkpt lat="43.22299616757256" lon="11.52579748958549"><ele>169.0</ele><time>2026-04-11T02:51:36Z</time></trkpt><trkpt lat="43.223165881337884" lon="11.525919151961538"><ele>170.39999999999998</ele><time>2026-04-11T02:51:40Z</time></trkpt><trkpt lat="43.223255690164095" lon="11.525953823647678"><ele>171.8</ele><time>2026-04-11T02:51:42Z</time></trkpt><trkpt lat="43.22335298587976" lon="11.525980027564836"><ele>173.2</ele><time>2026-04-11T02:51:44Z</time></trkpt><trkpt lat="43.2234576033967" lon="11.525972744496745"><ele>174.60000000000002</ele><time>2026-04-11T02:51:46Z</time></trkpt><trkpt lat="43.22357157932986" lon="11.5259691128896"><ele>176.0</ele><time>2026-04-11T02:51:48Z</time></trkpt><trkpt lat="43.22368510042498" lon="11.52596786635066"><ele>176.0</ele><time>2026-04-11T02:51:50Z</time></trkpt><trkpt lat="43.22379912506534" lon="11.525971640241917"><ele>176.0</ele><time>2026-04-11T02:51:52Z</time></trkpt><trkpt lat="43.22392199784052" lon="11.52595610960097"><ele>176.0</ele><time>2026-04-11T02:51:54Z</time></trkpt><trkpt lat="43.22398995626864" lon="11.525945230109645"><ele>176.0</ele><time>2026-04-11T02:51:55Z</time></trkpt><trkpt lat="43.224061001185724" lon="11.52593170235595"><ele>176.0</ele><time>2026-04-11T02:51:56Z</time></trkpt><trkpt lat="43.224135367986975" lon="11.525917957739443"><ele>176.20000000000002</ele><time>2026-04-11T02:51:57Z</time></trkpt><trkpt lat="43.22429573082162" lon="11.525903726628215"><ele>176.4</ele><time>2026-04-11T02:51:59Z</time></trkpt><trkpt lat="43.22437439042408" lon="11.525915177155046"><ele>176.6</ele><time>2026-04-11T02:52:00Z</time></trkpt><trkpt lat="43.22445363784208" lon="11.52593178023001"><ele>176.8</ele><time>2026-04-11T02:52:01Z</time></trkpt><trkpt lat="43.224531509688546" lon="11.52594865994058"><ele>177.0</ele><time>2026-04-11T02:52:02Z</time></trkpt><trkpt lat="43.22460752870593" lon="11.525972746003493"><ele>177.0</ele><time>2026-04-11T02:52:03Z</time></trkpt><trkpt lat="43.224681714079495" lon="11.525993679071004"><ele>177.0</ele><time>2026-04-11T02:52:04Z</time></trkpt><trkpt lat="43.22475014111155" lon="11.526012489116011"><ele>177.0</ele><time>2026-04-11T02:52:05Z</time></trkpt><trkpt lat="43.22481885009855" lon="11.526034105674544"><ele>177.0</ele><time>2026-04-11T02:52:06Z</time></trkpt><trkpt lat="43.22488754983806" lon="11.526052901624723"><ele>177.0</ele><time>2026-04-11T02:52:07Z</time></trkpt><trkpt lat="43.22495433530894" lon="11.52606717729903"><ele>177.0</ele><time>2026-04-11T02:52:08Z</time></trkpt><trkpt lat="43.22501725051394" lon="11.52608018439877"><ele>177.0</ele><time>2026-04-11T02:52:09Z</time></trkpt><trkpt lat="43.225082368173794" lon="11.526104799475304"><ele>177.6</ele><time>2026-04-11T02:52:10Z</time></trkpt><trkpt lat="43.225146973666014" lon="11.526123346769284"><ele>178.2</ele><time>2026-04-11T02:52:11Z</time></trkpt><trkpt lat="43.22521504504238" lon="11.52613124420428"><ele>178.8</ele><time>2026-04-11T02:52:12Z</time></trkpt><trkpt lat="43.22533089848685" lon="11.52617683291617"><ele>179.4</ele><time>2026-04-11T02:52:14Z</time></trkpt><trkpt lat="43.22545345889321" lon="11.52620329049834"><ele>180.0</ele><time>2026-04-11T02:52:16Z</time></trkpt><trkpt lat="43.225569448723476" lon="11.526242842945038"><ele>179.0</ele><time>2026-04-11T02:52:18Z</time></trkpt><trkpt lat="43.225769858262815" lon="11.52632337601754"><ele>178.0</ele><time>2026-04-11T02:52:22Z</time></trkpt><trkpt lat="43.22584653500854" lon="11.526350678209745"><ele>177.0</ele><time>2026-04-11T02:52:24Z</time></trkpt><trkpt lat="43.225915090610364" lon="11.526378261025895"><ele>176.0</ele><time>2026-04-11T02:52:26Z</time></trkpt><trkpt lat="43.22599548516475" lon="11.52640041367139"><ele>175.0</ele><time>2026-04-11T02:52:28Z</time></trkpt><trkpt lat="43.22606527479144" lon="11.52639820713"><ele>175.0</ele><time>2026-04-11T02:52:30Z</time></trkpt><trkpt lat="43.226152381494735" lon="11.526390263581465"><ele>175.0</ele><time>2026-04-11T02:52:32Z</time></trkpt><trkpt lat="43.22624538933367" lon="11.526378038987316"><ele>175.0</ele><time>2026-04-11T02:52:34Z</time></trkpt><trkpt lat="43.22634094969407" lon="11.526380542557073"><ele>175.0</ele><time>2026-04-11T02:52:36Z</time></trkpt><trkpt lat="43.226442142595246" lon="11.526368509070132"><ele>175.0</ele><time>2026-04-11T02:52:38Z</time></trkpt><trkpt lat="43.226554979012214" lon="11.526366591616348"><ele>175.4</ele><time>2026-04-11T02:52:40Z</time></trkpt><trkpt lat="43.22673247593797" lon="11.526339651057647"><ele>175.8</ele><time>2026-04-11T02:52:43Z</time></trkpt><trkpt lat="43.226806533127" lon="11.52635606185919"><ele>176.2</ele><time>2026-04-11T02:52:44Z</time></trkpt><trkpt lat="43.22687560607502" lon="11.526351853187633"><ele>176.6</ele><time>2026-04-11T02:52:45Z</time></trkpt><trkpt lat="43.22695006051192" lon="11.526347487738125"><ele>177.0</ele><time>2026-04-11T02:52:46Z</time></trkpt><trkpt lat="43.227023570839584" lon="11.526351259171697"><ele>177.0</ele><time>2026-04-11T02:52:47Z</time></trkpt><trkpt lat="43.22709617199205" lon="11.526371417526551"><ele>177.0</ele><time>2026-04-11T02:52:48Z</time></trkpt><trkpt lat="43.22716366157942" lon="11.526393428829667"><ele>177.0</ele><time>2026-04-11T02:52:49Z</time></trkpt><trkpt lat="43.22722851271352" lon="11.52642532808184"><ele>177.0</ele><time>2026-04-11T02:52:50Z</time></trkpt><trkpt lat="43.22729306746677" lon="11.526466885413972"><ele>177.0</ele><time>2026-04-11T02:52:51Z</time></trkpt><trkpt lat="43.227361378247544" lon="11.526515611305179"><ele>177.0</ele><time>2026-04-11T02:52:52Z</time></trkpt><trkpt lat="43.22741838650386" lon="11.52658666092897"><ele>177.0</ele><time>2026-04-11T02:52:53Z</time></trkpt><trkpt lat="43.22747997790843" lon="11.526650666055701"><ele>176.33333333333334</ele><time>2026-04-11T02:52:54Z</time></trkpt><trkpt lat="43.22755038052786" lon="11.526721180171714"><ele>175.66666666666666</ele><time>2026-04-11T02:52:55Z</time></trkpt><trkpt lat="43.2276205852056" lon="11.526790418833198"><ele>175.0</ele><time>2026-04-11T02:52:56Z</time></trkpt><trkpt lat="43.22768635662796" lon="11.52686322185855"><ele>174.33333333333331</ele><time>2026-04-11T02:52:57Z</time></trkpt><trkpt lat="43.2277508707924" lon="11.526937199582862"><ele>173.66666666666666</ele><time>2026-04-11T02:52:58Z</time></trkpt><trkpt lat="43.22781554130505" lon="11.527016481075146"><ele>173.0</ele><time>2026-04-11T02:52:59Z</time></trkpt><trkpt lat="43.22789823502708" lon="11.527076073311232"><ele>172.8</ele><time>2026-04-11T02:53:00Z</time></trkpt><trkpt lat="43.22797110953451" lon="11.527138744437963"><ele>172.60000000000002</ele><time>2026-04-11T02:53:01Z</time></trkpt><trkpt lat="43.22812952996417" lon="11.52723113077478"><ele>172.39999999999998</ele><time>2026-04-11T02:53:03Z</time></trkpt><trkpt lat="43.22821343671605" lon="11.527276354572068"><ele>172.2</ele><time>2026-04-11T02:53:04Z</time></trkpt><trkpt lat="43.22829748268781" lon="11.527317716232258"><ele>172.0</ele><time>2026-04-11T02:53:05Z</time></trkpt><trkpt lat="43.22838232493379" lon="11.527354794785223"><ele>171.33333333333334</ele><time>2026-04-11T02:53:06Z</time></trkpt><trkpt lat="43.22846419184517" lon="11.52739267043737"><ele>170.66666666666669</ele><time>2026-04-11T02:53:07Z</time></trkpt><trkpt lat="43.228544388462524" lon="11.52743218574538"><ele>170.0</ele><time>2026-04-11T02:53:08Z</time></trkpt><trkpt lat="43.228624907112554" lon="11.527476707023258"><ele>169.33333333333334</ele><time>2026-04-11T02:53:09Z</time></trkpt><trkpt lat="43.22869779597595" lon="11.527526662677166"><ele>168.66666666666666</ele><time>2026-04-11T02:53:10Z</time></trkpt><trkpt lat="43.22876958337831" lon="11.527587901722411"><ele>168.0</ele><time>2026-04-11T02:53:11Z</time></trkpt><trkpt lat="43.22883168360392" lon="11.52765436419697"><ele>168.0</ele><time>2026-04-11T02:53:12Z</time></trkpt><trkpt lat="43.22889227483962" lon="11.527730286683425"><ele>168.0</ele><time>2026-04-11T02:53:13Z</time></trkpt><trkpt lat="43.228950363998365" lon="11.52779629995027"><ele>168.0</ele><time>2026-04-11T02:53:14Z</time></trkpt><trkpt lat="43.229005095677906" lon="11.527855188868454"><ele>168.0</ele><time>2026-04-11T02:53:15Z</time></trkpt><trkpt lat="43.229055615239325" lon="11.527911737740752"><ele>168.0</ele><time>2026-04-11T02:53:16Z</time></trkpt><trkpt lat="43.229143208674664" lon="11.528023047834209"><ele>168.0</ele><time>2026-04-11T02:53:18Z</time></trkpt><trkpt lat="43.22921418541065" lon="11.528107803218484"><ele>169.0</ele><time>2026-04-11T02:53:20Z</time></trkpt><trkpt lat="43.22927272553913" lon="11.528189769540596"><ele>170.0</ele><time>2026-04-11T02:53:22Z</time></trkpt><trkpt lat="43.229385720023444" lon="11.52832555372008"><ele>171.0</ele><time>2026-04-11T02:53:26Z</time></trkpt><trkpt lat="43.22944244446844" lon="11.528390247374935"><ele>172.0</ele><time>2026-04-11T02:53:28Z</time></trkpt><trkpt lat="43.229493685398154" lon="11.528453912187649"><ele>173.0</ele><time>2026-04-11T02:53:30Z</time></trkpt><trkpt lat="43.22954382680693" lon="11.528513738426799"><ele>174.0</ele><time>2026-04-11T02:53:32Z</time></trkpt><trkpt lat="43.22959315629306" lon="11.528567450639668"><ele>174.0</ele><time>2026-04-11T02:53:34Z</time></trkpt><trkpt lat="43.22964726427928" lon="11.528620153153275"><ele>174.0</ele><time>2026-04-11T02:53:36Z</time></trkpt><trkpt lat="43.22972226463362" lon="11.528701286189888"><ele>174.0</ele><time>2026-04-11T02:53:39Z</time></trkpt><trkpt lat="43.2297798841445" lon="11.528740050889299"><ele>174.0</ele><time>2026-04-11T02:53:41Z</time></trkpt><trkpt lat="43.22986848786914" lon="11.52877886452867"><ele>174.0</ele><time>2026-04-11T02:53:44Z</time></trkpt><trkpt lat="43.23002642222012" lon="11.52896365042014"><ele>174.33333333333334</ele><time>2026-04-11T02:53:48Z</time></trkpt><trkpt lat="43.230118014186566" lon="11.52909311781063"><ele>174.66666666666666</ele><time>2026-04-11T02:53:50Z</time></trkpt><trkpt lat="43.2301665958605" lon="11.529162871647864"><ele>175.0</ele><time>2026-04-11T02:53:51Z</time></trkpt><trkpt lat="43.230216145292424" lon="11.52924108846112"><ele>175.33333333333331</ele><time>2026-04-11T02:53:52Z</time></trkpt><trkpt lat="43.230270041021946" lon="11.529319468500237"><ele>175.66666666666666</ele><time>2026-04-11T02:53:53Z</time></trkpt><trkpt lat="43.230325689020574" lon="11.52939681628583"><ele>176.0</ele><time>2026-04-11T02:53:54Z</time></trkpt><trkpt lat="43.23038722222271" lon="11.52947297288652"><ele>176.0</ele><time>2026-04-11T02:53:55Z</time></trkpt><trkpt lat="43.230452038947845" lon="11.52955734324729"><ele>176.0</ele><time>2026-04-11T02:53:56Z</time></trkpt><trkpt lat="43.23051156901375" lon="11.529635733226709"><ele>176.0</ele><time>2026-04-11T02:53:57Z</time></trkpt><trkpt lat="43.23057338406158" lon="11.529719614082047"><ele>176.0</ele><time>2026-04-11T02:53:58Z</time></trkpt><trkpt lat="43.23063513583547" lon="11.52980121016775"><ele>176.0</ele><time>2026-04-11T02:53:59Z</time></trkpt><trkpt lat="43.23069872479554" lon="11.529883659819482"><ele>176.0</ele><time>2026-04-11T02:54:00Z</time></trkpt><trkpt lat="43.23075976895881" lon="11.529968786207773"><ele>175.20000000000002</ele><time>2026-04-11T02:54:01Z</time></trkpt><trkpt lat="43.23082384476532" lon="11.530050185611097"><ele>174.4</ele><time>2026-04-11T02:54:02Z</time></trkpt><trkpt lat="43.23088775936458" lon="11.530134180830279"><ele>173.6</ele><time>2026-04-11T02:54:03Z</time></trkpt><trkpt lat="43.23095180839913" lon="11.530217807889706"><ele>172.8</ele><time>2026-04-11T02:54:04Z</time></trkpt><trkpt lat="43.23101522345577" lon="11.530304892967994"><ele>172.0</ele><time>2026-04-11T02:54:05Z</time></trkpt><trkpt lat="43.231138161831694" lon="11.53047339418526"><ele>171.5</ele><time>2026-04-11T02:54:07Z</time></trkpt><trkpt lat="43.23119501154501" lon="11.53056587467926"><ele>171.0</ele><time>2026-04-11T02:54:08Z</time></trkpt><trkpt lat="43.23124688370248" lon="11.530661464395553"><ele>170.5</ele><time>2026-04-11T02:54:09Z</time></trkpt><trkpt lat="43.23129136631831" lon="11.530765431018544"><ele>170.0</ele><time>2026-04-11T02:54:10Z</time></trkpt><trkpt lat="43.23133416593917" lon="11.53087129403476"><ele>169.5</ele><time>2026-04-11T02:54:11Z</time></trkpt><trkpt lat="43.23137433372462" lon="11.530981026450378"><ele>169.0</ele><time>2026-04-11T02:54:12Z</time></trkpt><trkpt lat="43.23141016801613" lon="11.531094683550263"><ele>169.0</ele><time>2026-04-11T02:54:13Z</time></trkpt><trkpt lat="43.23144013484887" lon="11.531206680704269"><ele>169.0</ele><time>2026-04-11T02:54:14Z</time></trkpt><trkpt lat="43.23146589090745" lon="11.531324135964843"><ele>169.0</ele><time>2026-04-11T02:54:15Z</time></trkpt><trkpt lat="43.231487280132875" lon="11.531437325969124"><ele>169.0</ele><time>2026-04-11T02:54:16Z</time></trkpt><trkpt lat="43.23150631665313" lon="11.531544094336887"><ele>169.0</ele><time>2026-04-11T02:54:17Z</time></trkpt><trkpt lat="43.23152460172813" lon="11.53165044528221"><ele>169.0</ele><time>2026-04-11T02:54:18Z</time></trkpt><trkpt lat="43.23154837023901" lon="11.53175573481122"><ele>169.14285714285714</ele><time>2026-04-11T02:54:19Z</time></trkpt><trkpt lat="43.23156540040277" lon="11.53185190303128"><ele>169.28571428571428</ele><time>2026-04-11T02:54:20Z</time></trkpt><trkpt lat="43.23158332389987" lon="11.531951275112412"><ele>169.42857142857144</ele><time>2026-04-11T02:54:21Z</time></trkpt><trkpt lat="43.23160245461642" lon="11.532053024033596"><ele>169.57142857142856</ele><time>2026-04-11T02:54:22Z</time></trkpt><trkpt lat="43.23162569425359" lon="11.532151429467094"><ele>169.7142857142857</ele><time>2026-04-11T02:54:23Z</time></trkpt><trkpt lat="43.23164687843338" lon="11.532245221128473"><ele>169.85714285714286</ele><time>2026-04-11T02:54:24Z</time></trkpt><trkpt lat="43.23166445380003" lon="11.532337699827028"><ele>170.0</ele><time>2026-04-11T02:54:25Z</time></trkpt><trkpt lat="43.2316817993762" lon="11.532428868254202"><ele>170.0</ele><time>2026-04-11T02:54:26Z</time></trkpt><trkpt lat="43.23171507891859" lon="11.532605684834921"><ele>170.0</ele><time>2026-04-11T02:54:28Z</time></trkpt><trkpt lat="43.231732398880126" lon="11.532690971448538"><ele>170.0</ele><time>2026-04-11T02:54:29Z</time></trkpt><trkpt lat="43.23175080873625" lon="11.532775185113074"><ele>170.0</ele><time>2026-04-11T02:54:30Z</time></trkpt><trkpt lat="43.23176782046069" lon="11.532859224125081"><ele>170.0</ele><time>2026-04-11T02:54:31Z</time></trkpt><trkpt lat="43.231800424949206" lon="11.5330242344735"><ele>170.0</ele><time>2026-04-11T02:54:33Z</time></trkpt><trkpt lat="43.231830623313535" lon="11.533192162349145"><ele>170.0</ele><time>2026-04-11T02:54:35Z</time></trkpt><trkpt lat="43.23186848979709" lon="11.533355121168393"><ele>170.0</ele><time>2026-04-11T02:54:37Z</time></trkpt><trkpt lat="43.231895798652864" lon="11.533512440691737"><ele>170.0</ele><time>2026-04-11T02:54:39Z</time></trkpt><trkpt lat="43.23192510084759" lon="11.533679272283432"><ele>169.6</ele><time>2026-04-11T02:54:41Z</time></trkpt><trkpt lat="43.23195646345379" lon="11.533763298919483"><ele>169.2</ele><time>2026-04-11T02:54:42Z</time></trkpt><trkpt lat="43.23199732169169" lon="11.533919257207023"><ele>168.8</ele><time>2026-04-11T02:54:44Z</time></trkpt><trkpt lat="43.23206003071703" lon="11.534051873226332"><ele>168.4</ele><time>2026-04-11T02:54:46Z</time></trkpt><trkpt lat="43.232101392506515" lon="11.534118657633682"><ele>168.0</ele><time>2026-04-11T02:54:47Z</time></trkpt><trkpt lat="43.23225108428819" lon="11.534310450384893"><ele>168.5</ele><time>2026-04-11T02:54:50Z</time></trkpt><trkpt lat="43.23234670696741" lon="11.534396285943833"><ele>169.0</ele><time>2026-04-11T02:54:52Z</time></trkpt><trkpt lat="43.232446129411024" lon="11.53448335277846"><ele>169.5</ele><time>2026-04-11T02:54:54Z</time></trkpt><trkpt lat="43.23255006858926" lon="11.534566889029776"><ele>170.0</ele><time>2026-04-11T02:54:56Z</time></trkpt><trkpt lat="43.2326514155989" lon="11.534635521696618"><ele>170.0</ele><time>2026-04-11T02:54:58Z</time></trkpt><trkpt lat="43.232750004026755" lon="11.534715057616546"><ele>170.0</ele><time>2026-04-11T02:55:00Z</time></trkpt><trkpt lat="43.23285236720509" lon="11.53479102894731"><ele>170.0</ele><time>2026-04-11T02:55:02Z</time></trkpt><trkpt lat="43.23295503858489" lon="11.534870481137245"><ele>170.0</ele><time>2026-04-11T02:55:04Z</time></trkpt><trkpt lat="43.233060712821704" lon="11.534946386742028"><ele>170.8</ele><time>2026-04-11T02:55:06Z</time></trkpt><trkpt lat="43.23316447150514" lon="11.535028435368593"><ele>171.6</ele><time>2026-04-11T02:55:08Z</time></trkpt><trkpt lat="43.23331754585393" lon="11.535179406124012"><ele>172.39999999999998</ele><time>2026-04-11T02:55:11Z</time></trkpt><trkpt lat="43.233377525351735" lon="11.53523208436015"><ele>173.2</ele><time>2026-04-11T02:55:12Z</time></trkpt><trkpt lat="43.23343450400394" lon="11.535274436680282"><ele>174.0</ele><time>2026-04-11T02:55:13Z</time></trkpt><trkpt lat="43.233529646755926" lon="11.535387126209613"><ele>173.16666666666666</ele><time>2026-04-11T02:55:15Z</time></trkpt><trkpt lat="43.23357647227639" lon="11.535449560050626"><ele>172.33333333333334</ele><time>2026-04-11T02:55:16Z</time></trkpt><trkpt lat="43.23362903372652" lon="11.535513863857823"><ele>171.5</ele><time>2026-04-11T02:55:17Z</time></trkpt><trkpt lat="43.23368641916009" lon="11.535590124532176"><ele>170.66666666666669</ele><time>2026-04-11T02:55:18Z</time></trkpt><trkpt lat="43.23374696667235" lon="11.535719230661014"><ele>169.83333333333334</ele><time>2026-04-11T02:55:20Z</time></trkpt><trkpt lat="43.23378335349619" lon="11.535795185677772"><ele>169.0</ele><time>2026-04-11T02:55:21Z</time></trkpt><trkpt lat="43.23382157374124" lon="11.535866722458433"><ele>169.0</ele><time>2026-04-11T02:55:22Z</time></trkpt><trkpt lat="43.2338604967234" lon="11.535936886797263"><ele>169.0</ele><time>2026-04-11T02:55:23Z</time></trkpt><trkpt lat="43.233936370849186" lon="11.536078566383209"><ele>169.0</ele><time>2026-04-11T02:55:25Z</time></trkpt><trkpt lat="43.233975280238965" lon="11.536148395848855"><ele>169.0</ele><time>2026-04-11T02:55:26Z</time></trkpt><trkpt lat="43.234013146616164" lon="11.536220961903414"><ele>169.0</ele><time>2026-04-11T02:55:27Z</time></trkpt><trkpt lat="43.23404998827199" lon="11.536294520504706"><ele>169.0</ele><time>2026-04-11T02:55:28Z</time></trkpt><trkpt lat="43.23408709860029" lon="11.536370924592823"><ele>169.5</ele><time>2026-04-11T02:55:29Z</time></trkpt><trkpt lat="43.234168272382554" lon="11.53652037900197"><ele>170.0</ele><time>2026-04-11T02:55:31Z</time></trkpt><trkpt lat="43.23420824650569" lon="11.536593627293158"><ele>170.5</ele><time>2026-04-11T02:55:32Z</time></trkpt><trkpt lat="43.23424619558691" lon="11.536666350527186"><ele>171.0</ele><time>2026-04-11T02:55:33Z</time></trkpt><trkpt lat="43.23428670434066" lon="11.536735246597086"><ele>171.5</ele><time>2026-04-11T02:55:34Z</time></trkpt><trkpt lat="43.234324923804614" lon="11.5368053034471"><ele>172.0</ele><time>2026-04-11T02:55:35Z</time></trkpt><trkpt lat="43.234363821162916" lon="11.53687562303646"><ele>172.00000000000003</ele><time>2026-04-11T02:55:36Z</time></trkpt><trkpt lat="43.23440175502124" lon="11.536949416963939"><ele>172.0</ele><time>2026-04-11T02:55:37Z</time></trkpt><trkpt lat="43.23443872823881" lon="11.537022998966531"><ele>172.0</ele><time>2026-04-11T02:55:38Z</time></trkpt><trkpt lat="43.23447614194065" lon="11.537094008469316"><ele>172.0</ele><time>2026-04-11T02:55:39Z</time></trkpt><trkpt lat="43.234514619156975" lon="11.537164071121797"><ele>172.0</ele><time>2026-04-11T02:55:40Z</time></trkpt><trkpt lat="43.2345517971506" lon="11.537235618044502"><ele>172.00000000000003</ele><time>2026-04-11T02:55:41Z</time></trkpt><trkpt lat="43.234590151298576" lon="11.537308825928594"><ele>172.0</ele><time>2026-04-11T02:55:42Z</time></trkpt><trkpt lat="43.23462804227439" lon="11.537379569417203"><ele>172.00000000000003</ele><time>2026-04-11T02:55:43Z</time></trkpt><trkpt lat="43.234668328985734" lon="11.537451850975074"><ele>172.0</ele><time>2026-04-11T02:55:44Z</time></trkpt><trkpt lat="43.234706292079856" lon="11.537524755156781"><ele>172.0</ele><time>2026-04-11T02:55:45Z</time></trkpt><trkpt lat="43.2347468563199" lon="11.5376011684801"><ele>172.0</ele><time>2026-04-11T02:55:46Z</time></trkpt><trkpt lat="43.23478634191526" lon="11.53767231649746"><ele>172.0</ele><time>2026-04-11T02:55:47Z</time></trkpt><trkpt lat="43.23482758844421" lon="11.537744299009805"><ele>172.00000000000003</ele><time>2026-04-11T02:55:48Z</time></trkpt><trkpt lat="43.23486711111007" lon="11.537821389547204"><ele>172.0</ele><time>2026-04-11T02:55:49Z</time></trkpt><trkpt lat="43.23490843005223" lon="11.537897721337355"><ele>172.33333333333334</ele><time>2026-04-11T02:55:50Z</time></trkpt><trkpt lat="43.234985964472294" lon="11.53804359144452"><ele>172.66666666666669</ele><time>2026-04-11T02:55:52Z</time></trkpt><trkpt lat="43.235027815903294" lon="11.5381183071739"><ele>173.0</ele><time>2026-04-11T02:55:53Z</time></trkpt><trkpt lat="43.235068439008245" lon="11.538190895089585"><ele>173.33333333333334</ele><time>2026-04-11T02:55:54Z</time></trkpt><trkpt lat="43.235109058990446" lon="11.538271787554141"><ele>173.66666666666666</ele><time>2026-04-11T02:55:55Z</time></trkpt><trkpt lat="43.23515132072973" lon="11.538350180475435"><ele>174.0</ele><time>2026-04-11T02:55:56Z</time></trkpt><trkpt lat="43.23519386415242" lon="11.538431639746939"><ele>174.0</ele><time>2026-04-11T02:55:57Z</time></trkpt><trkpt lat="43.235234346987255" lon="11.538509617778379"><ele>174.0</ele><time>2026-04-11T02:55:58Z</time></trkpt><trkpt lat="43.23528434669404" lon="11.538588226587159"><ele>174.0</ele><time>2026-04-11T02:55:59Z</time></trkpt><trkpt lat="43.23532735642089" lon="11.538670643204503"><ele>174.0</ele><time>2026-04-11T02:56:00Z</time></trkpt><trkpt lat="43.235371320327296" lon="11.538752317595254"><ele>174.0</ele><time>2026-04-11T02:56:01Z</time></trkpt><trkpt lat="43.235415493889356" lon="11.538837369718204"><ele>174.0</ele><time>2026-04-11T02:56:02Z</time></trkpt><trkpt lat="43.23545945399739" lon="11.538919238071989"><ele>174.0</ele><time>2026-04-11T02:56:03Z</time></trkpt><trkpt lat="43.23550466197265" lon="11.539004660438437"><ele>173.83333333333334</ele><time>2026-04-11T02:56:04Z</time></trkpt><trkpt lat="43.23554771064619" lon="11.539085266036821"><ele>173.66666666666666</ele><time>2026-04-11T02:56:05Z</time></trkpt><trkpt lat="43.23559594877394" lon="11.539168501294077"><ele>173.5</ele><time>2026-04-11T02:56:06Z</time></trkpt><trkpt lat="43.2356424214303" lon="11.539254623861153"><ele>173.33333333333331</ele><time>2026-04-11T02:56:07Z</time></trkpt><trkpt lat="43.23568674769149" lon="11.539336599782512"><ele>173.16666666666666</ele><time>2026-04-11T02:56:08Z</time></trkpt><trkpt lat="43.23573321378743" lon="11.539421645241712"><ele>173.0</ele><time>2026-04-11T02:56:09Z</time></trkpt><trkpt lat="43.23577675739973" lon="11.539513093404311"><ele>173.4</ele><time>2026-04-11T02:56:10Z</time></trkpt><trkpt lat="43.23581792240986" lon="11.539602759558347"><ele>173.8</ele><time>2026-04-11T02:56:11Z</time></trkpt><trkpt lat="43.23586799284756" lon="11.539806282044756"><ele>174.2</ele><time>2026-04-11T02:56:13Z</time></trkpt><trkpt lat="43.23587908709624" lon="11.53991317119723"><ele>174.6</ele><time>2026-04-11T02:56:14Z</time></trkpt><trkpt lat="43.23587807641872" lon="11.540018581956248"><ele>175.0</ele><time>2026-04-11T02:56:15Z</time></trkpt><trkpt lat="43.23587424027571" lon="11.540120737778688"><ele>175.0</ele><time>2026-04-11T02:56:16Z</time></trkpt><trkpt lat="43.235868925646834" lon="11.540225428502461"><ele>175.0</ele><time>2026-04-11T02:56:17Z</time></trkpt><trkpt lat="43.23586159195675" lon="11.540329402769467"><ele>175.0</ele><time>2026-04-11T02:56:18Z</time></trkpt><trkpt lat="43.23585580787479" lon="11.540434179114623"><ele>175.0</ele><time>2026-04-11T02:56:19Z</time></trkpt><trkpt lat="43.235853425308" lon="11.540534161537492"><ele>175.0</ele><time>2026-04-11T02:56:20Z</time></trkpt><trkpt lat="43.235843737263046" lon="11.540638987646549"><ele>175.0</ele><time>2026-04-11T02:56:21Z</time></trkpt><trkpt lat="43.23584184402945" lon="11.54074115848638"><ele>175.0</ele><time>2026-04-11T02:56:22Z</time></trkpt><trkpt lat="43.23583994577096" lon="11.540841146272262"><ele>175.0</ele><time>2026-04-11T02:56:23Z</time></trkpt><trkpt lat="43.23583534539625" lon="11.540938938279172"><ele>175.0</ele><time>2026-04-11T02:56:24Z</time></trkpt><trkpt lat="43.23582957712024" lon="11.541039084324053"><ele>175.0</ele><time>2026-04-11T02:56:25Z</time></trkpt><trkpt lat="43.235823435938585" lon="11.541139443902768"><ele>175.0</ele><time>2026-04-11T02:56:26Z</time></trkpt><trkpt lat="43.23581628096469" lon="11.541238642820337"><ele>175.0</ele><time>2026-04-11T02:56:27Z</time></trkpt><trkpt lat="43.23581518061738" lon="11.54133711258578"><ele>175.0</ele><time>2026-04-11T02:56:28Z</time></trkpt><trkpt lat="43.23581114532254" lon="11.541435953646499"><ele>175.66666666666669</ele><time>2026-04-11T02:56:29Z</time></trkpt><trkpt lat="43.235806363447615" lon="11.541527464798898"><ele>176.33333333333334</ele><time>2026-04-11T02:56:30Z</time></trkpt><trkpt lat="43.23580328500551" lon="11.541619861744532"><ele>177.0</ele><time>2026-04-11T02:56:31Z</time></trkpt><trkpt lat="43.2358042482614" lon="11.541714592271136"><ele>177.66666666666666</ele><time>2026-04-11T02:56:32Z</time></trkpt><trkpt lat="43.23579424362783" lon="11.541901894968971"><ele>178.33333333333331</ele><time>2026-04-11T02:56:34Z</time></trkpt><trkpt lat="43.235790298455186" lon="11.541996224883324"><ele>179.0</ele><time>2026-04-11T02:56:35Z</time></trkpt><trkpt lat="43.235781470297624" lon="11.5420835355018"><ele>179.00000000000003</ele><time>2026-04-11T02:56:36Z</time></trkpt><trkpt lat="43.235777541038175" lon="11.542178755674659"><ele>179.0</ele><time>2026-04-11T02:56:37Z</time></trkpt><trkpt lat="43.23577468448323" lon="11.542268556578646"><ele>179.0</ele><time>2026-04-11T02:56:38Z</time></trkpt><trkpt lat="43.23577338916596" lon="11.542362512097451"><ele>179.0</ele><time>2026-04-11T02:56:39Z</time></trkpt><trkpt lat="43.23576991814643" lon="11.54245408146462"><ele>179.0</ele><time>2026-04-11T02:56:40Z</time></trkpt><trkpt lat="43.2357633315148" lon="11.542544182699926"><ele>179.00000000000003</ele><time>2026-04-11T02:56:41Z</time></trkpt><trkpt lat="43.23575864662404" lon="11.542634252174869"><ele>179.0</ele><time>2026-04-11T02:56:42Z</time></trkpt><trkpt lat="43.2357536016051" lon="11.54272266370901"><ele>179.00000000000003</ele><time>2026-04-11T02:56:43Z</time></trkpt><trkpt lat="43.23574906434183" lon="11.5428140465262"><ele>179.0</ele><time>2026-04-11T02:56:44Z</time></trkpt><trkpt lat="43.235747115876045" lon="11.542903476337765"><ele>179.0</ele><time>2026-04-11T02:56:45Z</time></trkpt><trkpt lat="43.23574299538698" lon="11.542993089292548"><ele>179.0</ele><time>2026-04-11T02:56:46Z</time></trkpt><trkpt lat="43.235743321567924" lon="11.54308749418231"><ele>179.0</ele><time>2026-04-11T02:56:47Z</time></trkpt><trkpt lat="43.23573700713474" lon="11.543177045645939"><ele>179.00000000000003</ele><time>2026-04-11T02:56:48Z</time></trkpt><trkpt lat="43.235734622441974" lon="11.54326665144397"><ele>179.0</ele><time>2026-04-11T02:56:49Z</time></trkpt><trkpt lat="43.23573391419629" lon="11.54335642498329"><ele>178.83333333333331</ele><time>2026-04-11T02:56:50Z</time></trkpt><trkpt lat="43.23572791920566" lon="11.54344837414209"><ele>178.66666666666666</ele><time>2026-04-11T02:56:51Z</time></trkpt><trkpt lat="43.235730762695255" lon="11.543537721838339"><ele>178.5</ele><time>2026-04-11T02:56:52Z</time></trkpt><trkpt lat="43.23572261448713" lon="11.543624867143082"><ele>178.33333333333334</ele><time>2026-04-11T02:56:53Z</time></trkpt><trkpt lat="43.23572340134045" lon="11.54381361721445"><ele>178.16666666666669</ele><time>2026-04-11T02:56:55Z</time></trkpt><trkpt lat="43.23572082273433" lon="11.543908586975496"><ele>178.0</ele><time>2026-04-11T02:56:56Z</time></trkpt><trkpt lat="43.235722748252776" lon="11.543999305869352"><ele>177.83333333333334</ele><time>2026-04-11T02:56:57Z</time></trkpt><trkpt lat="43.235714386698334" lon="11.544092423956169"><ele>177.66666666666669</ele><time>2026-04-11T02:56:58Z</time></trkpt><trkpt lat="43.23570975567725" lon="11.54418587892548"><ele>177.5</ele><time>2026-04-11T02:56:59Z</time></trkpt><trkpt lat="43.23570303451992" lon="11.544374770904598"><ele>177.33333333333334</ele><time>2026-04-11T02:57:01Z</time></trkpt><trkpt lat="43.23570847070877" lon="11.54447260155395"><ele>177.16666666666666</ele><time>2026-04-11T02:57:02Z</time></trkpt><trkpt lat="43.235689591092076" lon="11.544579527560863"><ele>177.0</ele><time>2026-04-11T02:57:03Z</time></trkpt><trkpt lat="43.235694999273235" lon="11.544669159281547"><ele>176.85714285714286</ele><time>2026-04-11T02:57:04Z</time></trkpt><trkpt lat="43.23568760680161" lon="11.544761964460916"><ele>176.7142857142857</ele><time>2026-04-11T02:57:05Z</time></trkpt><trkpt lat="43.23569447013105" lon="11.544850726217586"><ele>176.57142857142856</ele><time>2026-04-11T02:57:06Z</time></trkpt><trkpt lat="43.235720307202115" lon="11.54495336057659"><ele>176.42857142857144</ele><time>2026-04-11T02:57:07Z</time></trkpt><trkpt lat="43.23571861196985" lon="11.545055369144075"><ele>176.28571428571428</ele><time>2026-04-11T02:57:08Z</time></trkpt><trkpt lat="43.235738843944745" lon="11.545149932143882"><ele>176.14285714285714</ele><time>2026-04-11T02:57:09Z</time></trkpt><trkpt lat="43.23576329994139" lon="11.54524501505829"><ele>176.0</ele><time>2026-04-11T02:57:10Z</time></trkpt><trkpt lat="43.235786771400534" lon="11.545338570695199"><ele>176.0</ele><time>2026-04-11T02:57:11Z</time></trkpt><trkpt lat="43.23581230362156" lon="11.545430097457185"><ele>176.0</ele><time>2026-04-11T02:57:12Z</time></trkpt><trkpt lat="43.23583455298342" lon="11.545520851564428"><ele>176.0</ele><time>2026-04-11T02:57:13Z</time></trkpt><trkpt lat="43.235865094306455" lon="11.545606374630854"><ele>176.0</ele><time>2026-04-11T02:57:14Z</time></trkpt><trkpt lat="43.235931577051325" lon="11.545784239673397"><ele>176.0</ele><time>2026-04-11T02:57:16Z</time></trkpt><trkpt lat="43.23595856939022" lon="11.545870095907238"><ele>176.0</ele><time>2026-04-11T02:57:17Z</time></trkpt><trkpt lat="43.23598881296627" lon="11.54595273917988"><ele>176.0</ele><time>2026-04-11T02:57:18Z</time></trkpt><trkpt lat="43.23602750149564" lon="11.546033154971607"><ele>176.0</ele><time>2026-04-11T02:57:19Z</time></trkpt><trkpt lat="43.23606661422942" lon="11.546109604848745"><ele>176.0</ele><time>2026-04-11T02:57:20Z</time></trkpt><trkpt lat="43.23611126334876" lon="11.546187729595019"><ele>176.0</ele><time>2026-04-11T02:57:21Z</time></trkpt><trkpt lat="43.23615750788522" lon="11.546262091224268"><ele>176.0</ele><time>2026-04-11T02:57:22Z</time></trkpt><trkpt lat="43.23619380590499" lon="11.546333256997748"><ele>176.0</ele><time>2026-04-11T02:57:23Z</time></trkpt><trkpt lat="43.23623681455642" lon="11.546406976126404"><ele>176.0</ele><time>2026-04-11T02:57:24Z</time></trkpt><trkpt lat="43.23628597179168" lon="11.546478594136273"><ele>176.28571428571428</ele><time>2026-04-11T02:57:25Z</time></trkpt><trkpt lat="43.23633303579053" lon="11.546554854145835"><ele>176.57142857142856</ele><time>2026-04-11T02:57:26Z</time></trkpt><trkpt lat="43.23637772112605" lon="11.54662177645611"><ele>176.85714285714283</ele><time>2026-04-11T02:57:27Z</time></trkpt><trkpt lat="43.23642507128592" lon="11.546693205313007"><ele>177.14285714285714</ele><time>2026-04-11T02:57:28Z</time></trkpt><trkpt lat="43.236475121019566" lon="11.546760964489543"><ele>177.42857142857142</ele><time>2026-04-11T02:57:29Z</time></trkpt><trkpt lat="43.23651748387252" lon="11.546826387812645"><ele>177.7142857142857</ele><time>2026-04-11T02:57:30Z</time></trkpt><trkpt lat="43.236561445578715" lon="11.54689989412706"><ele>178.0</ele><time>2026-04-11T02:57:31Z</time></trkpt><trkpt lat="43.23660828001352" lon="11.546968815125929"><ele>177.33333333333334</ele><time>2026-04-11T02:57:32Z</time></trkpt><trkpt lat="43.2366429017393" lon="11.547044592353394"><ele>176.66666666666669</ele><time>2026-04-11T02:57:33Z</time></trkpt><trkpt lat="43.23668428596757" lon="11.547126048407922"><ele>176.0</ele><time>2026-04-11T02:57:34Z</time></trkpt><trkpt lat="43.236745473825295" lon="11.547181823317711"><ele>175.33333333333334</ele><time>2026-04-11T02:57:35Z</time></trkpt><trkpt lat="43.23684823457516" lon="11.547304579919574"><ele>174.66666666666666</ele><time>2026-04-11T02:57:37Z</time></trkpt><trkpt lat="43.23689773145923" lon="11.547366866502337"><ele>174.0</ele><time>2026-04-11T02:57:38Z</time></trkpt><trkpt lat="43.23695321392759" lon="11.547422479695548"><ele>174.0</ele><time>2026-04-11T02:57:39Z</time></trkpt><trkpt lat="43.23701277580039" lon="11.547476435024867"><ele>174.0</ele><time>2026-04-11T02:57:40Z</time></trkpt><trkpt lat="43.23707819340507" lon="11.547528725220669"><ele>174.0</ele><time>2026-04-11T02:57:41Z</time></trkpt><trkpt lat="43.23716749345417" lon="11.547664205545532"><ele>174.0</ele><time>2026-04-11T02:57:43Z</time></trkpt><trkpt lat="43.23722304246667" lon="11.547723154196825"><ele>174.0</ele><time>2026-04-11T02:57:44Z</time></trkpt><trkpt lat="43.23727792107485" lon="11.54778892558713"><ele>174.0</ele><time>2026-04-11T02:57:45Z</time></trkpt><trkpt lat="43.23732836876204" lon="11.547847385439066"><ele>174.28571428571428</ele><time>2026-04-11T02:57:46Z</time></trkpt><trkpt lat="43.23738547265379" lon="11.547905811548146"><ele>174.57142857142858</ele><time>2026-04-11T02:57:47Z</time></trkpt><trkpt lat="43.23744053052822" lon="11.547973309429972"><ele>174.85714285714286</ele><time>2026-04-11T02:57:48Z</time></trkpt><trkpt lat="43.23749253313736" lon="11.548036591552282"><ele>175.14285714285714</ele><time>2026-04-11T02:57:49Z</time></trkpt><trkpt lat="43.23754742206952" lon="11.548096266284889"><ele>175.42857142857142</ele><time>2026-04-11T02:57:50Z</time></trkpt><trkpt lat="43.237605433832634" lon="11.548156748657009"><ele>175.71428571428572</ele><time>2026-04-11T02:57:51Z</time></trkpt><trkpt lat="43.23766313146871" lon="11.548213865163635"><ele>176.0</ele><time>2026-04-11T02:57:52Z</time></trkpt><trkpt lat="43.23771974726136" lon="11.548275652586396"><ele>176.0</ele><time>2026-04-11T02:57:53Z</time></trkpt><trkpt lat="43.237775633770596" lon="11.548340670235804"><ele>176.0</ele><time>2026-04-11T02:57:54Z</time></trkpt><trkpt lat="43.23783605327897" lon="11.548403148508372"><ele>176.0</ele><time>2026-04-11T02:57:55Z</time></trkpt><trkpt lat="43.237892507978906" lon="11.548460527553576"><ele>176.0</ele><time>2026-04-11T02:57:56Z</time></trkpt><trkpt lat="43.23801223347299" lon="11.548576212258412"><ele>176.0</ele><time>2026-04-11T02:57:58Z</time></trkpt><trkpt lat="43.23807351360382" lon="11.548635178774994"><ele>176.0</ele><time>2026-04-11T02:57:59Z</time></trkpt><trkpt lat="43.238130250089554" lon="11.548693711812202"><ele>176.0</ele><time>2026-04-11T02:58:00Z</time></trkpt><trkpt lat="43.238191969621674" lon="11.548754400703396"><ele>176.0</ele><time>2026-04-11T02:58:01Z</time></trkpt><trkpt lat="43.2382538048298" lon="11.54880962581105"><ele>176.0</ele><time>2026-04-11T02:58:02Z</time></trkpt><trkpt lat="43.23831322173849" lon="11.548862826225937"><ele>176.0</ele><time>2026-04-11T02:58:03Z</time></trkpt><trkpt lat="43.23837534344906" lon="11.548919542363986"><ele>176.0</ele><time>2026-04-11T02:58:04Z</time></trkpt><trkpt lat="43.238434333024706" lon="11.548972142539034"><ele>176.0</ele><time>2026-04-11T02:58:05Z</time></trkpt><trkpt lat="43.238496706566764" lon="11.549025710584639"><ele>176.0</ele><time>2026-04-11T02:58:06Z</time></trkpt><trkpt lat="43.23855890277551" lon="11.54907508015387"><ele>176.0</ele><time>2026-04-11T02:58:07Z</time></trkpt><trkpt lat="43.23862145385075" lon="11.549122585172025"><ele>176.0</ele><time>2026-04-11T02:58:08Z</time></trkpt><trkpt lat="43.23868714979508" lon="11.549169599582699"><ele>176.0</ele><time>2026-04-11T02:58:09Z</time></trkpt><trkpt lat="43.23875348621192" lon="11.549215102444718"><ele>176.0</ele><time>2026-04-11T02:58:10Z</time></trkpt><trkpt lat="43.238814878403964" lon="11.549259865370962"><ele>176.0</ele><time>2026-04-11T02:58:11Z</time></trkpt><trkpt lat="43.2388806383377" lon="11.549311847911374"><ele>176.0</ele><time>2026-04-11T02:58:12Z</time></trkpt><trkpt lat="43.23894445367129" lon="11.549360883569864"><ele>176.0</ele><time>2026-04-11T02:58:13Z</time></trkpt><trkpt lat="43.23900688716773" lon="11.549406189051957"><ele>175.83333333333331</ele><time>2026-04-11T02:58:14Z</time></trkpt><trkpt lat="43.239074871022304" lon="11.549456633503159"><ele>175.66666666666666</ele><time>2026-04-11T02:58:15Z</time></trkpt><trkpt lat="43.23913815417571" lon="11.549500392587115"><ele>175.5</ele><time>2026-04-11T02:58:16Z</time></trkpt><trkpt lat="43.23920185701528" lon="11.549556402981679"><ele>175.33333333333334</ele><time>2026-04-11T02:58:17Z</time></trkpt><trkpt lat="43.239313954299845" lon="11.549683323159048"><ele>175.16666666666669</ele><time>2026-04-11T02:58:19Z</time></trkpt><trkpt lat="43.239374193095195" lon="11.549752860045398"><ele>175.0</ele><time>2026-04-11T02:58:20Z</time></trkpt><trkpt lat="43.23943418835435" lon="11.54982000974555"><ele>175.0</ele><time>2026-04-11T02:58:21Z</time></trkpt><trkpt lat="43.23949169227891" lon="11.549890262378723"><ele>175.0</ele><time>2026-04-11T02:58:22Z</time></trkpt><trkpt lat="43.23954971695664" lon="11.549962340935817"><ele>175.0</ele><time>2026-04-11T02:58:23Z</time></trkpt><trkpt lat="43.239600715720556" lon="11.550040138024686"><ele>175.0</ele><time>2026-04-11T02:58:24Z</time></trkpt><trkpt lat="43.239654136423646" lon="11.5501192848691"><ele>175.0</ele><time>2026-04-11T02:58:25Z</time></trkpt><trkpt lat="43.23971160536397" lon="11.550190509357858"><ele>175.0</ele><time>2026-04-11T02:58:26Z</time></trkpt><trkpt lat="43.239769476741365" lon="11.550264081315175"><ele>174.66666666666669</ele><time>2026-04-11T02:58:27Z</time></trkpt><trkpt lat="43.23982548402529" lon="11.550342412593087"><ele>174.33333333333334</ele><time>2026-04-11T02:58:28Z</time></trkpt><trkpt lat="43.23987980462483" lon="11.550424677241887"><ele>174.0</ele><time>2026-04-11T02:58:29Z</time></trkpt><trkpt lat="43.23993297437279" lon="11.550510882579667"><ele>173.66666666666666</ele><time>2026-04-11T02:58:30Z</time></trkpt><trkpt lat="43.23998985192821" lon="11.550589229544132"><ele>173.33333333333331</ele><time>2026-04-11T02:58:31Z</time></trkpt><trkpt lat="43.24004772163393" lon="11.550666497244835"><ele>173.0</ele><time>2026-04-11T02:58:32Z</time></trkpt><trkpt lat="43.24010789180695" lon="11.550747139651406"><ele>173.0</ele><time>2026-04-11T02:58:33Z</time></trkpt><trkpt lat="43.24016541128529" lon="11.550828613966955"><ele>173.0</ele><time>2026-04-11T02:58:34Z</time></trkpt><trkpt lat="43.24022541601627" lon="11.550909125012216"><ele>173.0</ele><time>2026-04-11T02:58:35Z</time></trkpt><trkpt lat="43.24028634235107" lon="11.550989896696624"><ele>173.0</ele><time>2026-04-11T02:58:36Z</time></trkpt><trkpt lat="43.2403478376509" lon="11.551070811849048"><ele>173.0</ele><time>2026-04-11T02:58:37Z</time></trkpt><trkpt lat="43.240407041410265" lon="11.551155934924784"><ele>173.0</ele><time>2026-04-11T02:58:38Z</time></trkpt><trkpt lat="43.240532247344476" lon="11.551310820372828"><ele>172.66666666666666</ele><time>2026-04-11T02:58:40Z</time></trkpt><trkpt lat="43.24059316022195" lon="11.551391331996532"><ele>172.33333333333331</ele><time>2026-04-11T02:58:41Z</time></trkpt><trkpt lat="43.240651535843845" lon="11.55147468343422"><ele>172.0</ele><time>2026-04-11T02:58:42Z</time></trkpt><trkpt lat="43.24070970805711" lon="11.551558833118737"><ele>171.66666666666666</ele><time>2026-04-11T02:58:43Z</time></trkpt><trkpt lat="43.240763599808425" lon="11.551644623751782"><ele>171.33333333333334</ele><time>2026-04-11T02:58:44Z</time></trkpt><trkpt lat="43.24080923361503" lon="11.551737042217395"><ele>171.0</ele><time>2026-04-11T02:58:45Z</time></trkpt><trkpt lat="43.240828875786214" lon="11.551845946412616"><ele>171.16666666666666</ele><time>2026-04-11T02:58:46Z</time></trkpt><trkpt lat="43.24081586393502" lon="11.55196093170528"><ele>171.33333333333334</ele><time>2026-04-11T02:58:47Z</time></trkpt><trkpt lat="43.24078061187311" lon="11.552063972253148"><ele>171.5</ele><time>2026-04-11T02:58:48Z</time></trkpt><trkpt lat="43.24072816567401" lon="11.55215104832551"><ele>171.66666666666669</ele><time>2026-04-11T02:58:49Z</time></trkpt><trkpt lat="43.24067989156078" lon="11.552233684151826"><ele>171.83333333333334</ele><time>2026-04-11T02:58:50Z</time></trkpt><trkpt lat="43.240637286907834" lon="11.552319884170336"><ele>172.0</ele><time>2026-04-11T02:58:51Z</time></trkpt><trkpt lat="43.24060055224489" lon="11.552406596722742"><ele>172.00000000000003</ele><time>2026-04-11T02:58:52Z</time></trkpt><trkpt lat="43.24056954452287" lon="11.552495717032714"><ele>172.0</ele><time>2026-04-11T02:58:53Z</time></trkpt><trkpt lat="43.24053823703817" lon="11.552581485521593"><ele>172.0</ele><time>2026-04-11T02:58:54Z</time></trkpt><trkpt lat="43.240498720611576" lon="11.552663857594878"><ele>172.0</ele><time>2026-04-11T02:58:55Z</time></trkpt><trkpt lat="43.24045933934466" lon="11.552743891929094"><ele>172.0</ele><time>2026-04-11T02:58:56Z</time></trkpt><trkpt lat="43.24042249547736" lon="11.55282121360507"><ele>172.00000000000003</ele><time>2026-04-11T02:58:57Z</time></trkpt><trkpt lat="43.24038489154856" lon="11.552891451547996"><ele>172.0</ele><time>2026-04-11T02:58:58Z</time></trkpt><trkpt lat="43.240342024944894" lon="11.553034838002464"><ele>172.25</ele><time>2026-04-11T02:59:00Z</time></trkpt><trkpt lat="43.24048256591219" lon="11.553181013057054"><ele>172.5</ele><time>2026-04-11T02:59:03Z</time></trkpt><trkpt lat="43.240588816116905" lon="11.55323690344801"><ele>172.75</ele><time>2026-04-11T02:59:05Z</time></trkpt><trkpt lat="43.240684239123574" lon="11.553298850882111"><ele>173.0</ele><time>2026-04-11T02:59:07Z</time></trkpt><trkpt lat="43.24078249859041" lon="11.553359112142171"><ele>173.0</ele><time>2026-04-11T02:59:09Z</time></trkpt><trkpt lat="43.24086837244643" lon="11.553421434226772"><ele>173.0</ele><time>2026-04-11T02:59:11Z</time></trkpt><trkpt lat="43.24095106623694" lon="11.553484965232238"><ele>173.0</ele><time>2026-04-11T02:59:13Z</time></trkpt><trkpt lat="43.24101947994158" lon="11.553558962931676"><ele>173.0</ele><time>2026-04-11T02:59:15Z</time></trkpt><trkpt lat="43.24108799434132" lon="11.55361305108904"><ele>173.0</ele><time>2026-04-11T02:59:17Z</time></trkpt><trkpt lat="43.24115623910735" lon="11.553663509158138"><ele>173.0</ele><time>2026-04-11T02:59:19Z</time></trkpt><trkpt lat="43.241226999256675" lon="11.553705566697701"><ele>173.0</ele><time>2026-04-11T02:59:21Z</time></trkpt><trkpt lat="43.24136257062217" lon="11.553786589875461"><ele>173.0</ele><time>2026-04-11T02:59:25Z</time></trkpt><trkpt lat="43.241427797439115" lon="11.553817217265605"><ele>173.0</ele><time>2026-04-11T02:59:27Z</time></trkpt><trkpt lat="43.24149424005035" lon="11.553825726832649"><ele>173.0</ele><time>2026-04-11T02:59:29Z</time></trkpt><trkpt lat="43.24158020673451" lon="11.553830428844469"><ele>173.0</ele><time>2026-04-11T02:59:32Z</time></trkpt><trkpt lat="43.241667491855935" lon="11.553817061400046"><ele>174.0</ele><time>2026-04-11T02:59:35Z</time></trkpt><trkpt lat="43.24174438222749" lon="11.553804198572404"><ele>175.0</ele><time>2026-04-11T02:59:38Z</time></trkpt><trkpt lat="43.24182051735504" lon="11.553813040843753"><ele>176.0</ele><time>2026-04-11T02:59:41Z</time></trkpt><trkpt lat="43.24189938082414" lon="11.553832662756026"><ele>177.0</ele><time>2026-04-11T02:59:44Z</time></trkpt><trkpt lat="43.24203865351135" lon="11.55390855934493"><ele>178.0</ele><time>2026-04-11T02:59:50Z</time></trkpt><trkpt lat="43.24210893632" lon="11.553956986657969"><ele>178.0</ele><time>2026-04-11T02:59:53Z</time></trkpt><trkpt lat="43.24217387042111" lon="11.55401331399739"><ele>178.0</ele><time>2026-04-11T02:59:56Z</time></trkpt><trkpt lat="43.242243152584514" lon="11.554063449497365"><ele>178.0</ele><time>2026-04-11T02:59:59Z</time></trkpt><trkpt lat="43.24230920107338" lon="11.554111318745797"><ele>178.0</ele><time>2026-04-11T03:00:02Z</time></trkpt><trkpt lat="43.24237657938528" lon="11.554162632491717"><ele>178.0</ele><time>2026-04-11T03:00:05Z</time></trkpt><trkpt lat="43.242506710188074" lon="11.554262558672406"><ele>180.28571428571428</ele><time>2026-04-11T03:00:11Z</time></trkpt><trkpt lat="43.24258132701064" lon="11.554305621693084"><ele>182.57142857142856</ele><time>2026-04-11T03:00:14Z</time></trkpt><trkpt lat="43.24263510761988" lon="11.55436219409187"><ele>184.85714285714283</ele><time>2026-04-11T03:00:17Z</time></trkpt><trkpt lat="43.242688573024914" lon="11.554411638476484"><ele>187.14285714285714</ele><time>2026-04-11T03:00:19Z</time></trkpt><trkpt lat="43.24275350768528" lon="11.55444449893579"><ele>189.42857142857144</ele><time>2026-04-11T03:00:22Z</time></trkpt><trkpt lat="43.24282613098247" lon="11.554491553633218"><ele>191.7142857142857</ele><time>2026-04-11T03:00:25Z</time></trkpt><trkpt lat="43.24290576959274" lon="11.55450925381826"><ele>194.0</ele><time>2026-04-11T03:00:28Z</time></trkpt><trkpt lat="43.24299306229689" lon="11.55452152886447"><ele>195.5</ele><time>2026-04-11T03:00:31Z</time></trkpt><trkpt lat="43.24320638054064" lon="11.554533417897076"><ele>197.0</ele><time>2026-04-11T03:00:37Z</time></trkpt><trkpt lat="43.24329668674592" lon="11.55451927789669"><ele>198.5</ele><time>2026-04-11T03:00:39Z</time></trkpt><trkpt lat="43.24340268080357" lon="11.554509323527203"><ele>200.0</ele><time>2026-04-11T03:00:41Z</time></trkpt><trkpt lat="43.24352326156745" lon="11.554482945931472"><ele>200.0</ele><time>2026-04-11T03:00:43Z</time></trkpt><trkpt lat="43.24365198244736" lon="11.554470457017443"><ele>200.0</ele><time>2026-04-11T03:00:45Z</time></trkpt><trkpt lat="43.24372670412748" lon="11.554462792090048"><ele>200.0</ele><time>2026-04-11T03:00:46Z</time></trkpt><trkpt lat="43.24380589609432" lon="11.55445109034943"><ele>200.0</ele><time>2026-04-11T03:00:47Z</time></trkpt><trkpt lat="43.24388856172809" lon="11.554436244897845"><ele>200.0</ele><time>2026-04-11T03:00:48Z</time></trkpt><trkpt lat="43.24397590245652" lon="11.554424242615022"><ele>198.0</ele><time>2026-04-11T03:00:49Z</time></trkpt><trkpt lat="43.24406335235699" lon="11.554408543119074"><ele>196.0</ele><time>2026-04-11T03:00:50Z</time></trkpt><trkpt lat="43.24415491939354" lon="11.554397990377334"><ele>194.0</ele><time>2026-04-11T03:00:51Z</time></trkpt><trkpt lat="43.244248743939714" lon="11.55438603311297"><ele>192.0</ele><time>2026-04-11T03:00:52Z</time></trkpt><trkpt lat="43.24434541942931" lon="11.5543685746944"><ele>190.0</ele><time>2026-04-11T03:00:53Z</time></trkpt><trkpt lat="43.24454733112871" lon="11.554347362280597"><ele>190.0</ele><time>2026-04-11T03:00:55Z</time></trkpt><trkpt lat="43.24465014174157" lon="11.554335758505726"><ele>190.0</ele><time>2026-04-11T03:00:56Z</time></trkpt><trkpt lat="43.24475163974694" lon="11.554326734810225"><ele>190.0</ele><time>2026-04-11T03:00:57Z</time></trkpt><trkpt lat="43.24484837794807" lon="11.554319893041136"><ele>190.0</ele><time>2026-04-11T03:00:58Z</time></trkpt><trkpt lat="43.244942691628125" lon="11.554312780618492"><ele>190.0</ele><time>2026-04-11T03:00:59Z</time></trkpt><trkpt lat="43.24503778314896" lon="11.554296455046664"><ele>189.2</ele><time>2026-04-11T03:01:00Z</time></trkpt><trkpt lat="43.245134740281856" lon="11.554277206310237"><ele>188.4</ele><time>2026-04-11T03:01:01Z</time></trkpt><trkpt lat="43.245238146015154" lon="11.554262046218975"><ele>187.60000000000002</ele><time>2026-04-11T03:01:02Z</time></trkpt><trkpt lat="43.24534433385338" lon="11.554247529047048"><ele>186.8</ele><time>2026-04-11T03:01:03Z</time></trkpt><trkpt lat="43.24544981440915" lon="11.554230044130742"><ele>186.0</ele><time>2026-04-11T03:01:04Z</time></trkpt><trkpt lat="43.24555658544791" lon="11.554215522119884"><ele>184.20000000000002</ele><time>2026-04-11T03:01:05Z</time></trkpt><trkpt lat="43.245667276319864" lon="11.554197937484206"><ele>182.4</ele><time>2026-04-11T03:01:06Z</time></trkpt><trkpt lat="43.245777472313" lon="11.554180619516814"><ele>180.6</ele><time>2026-04-11T03:01:07Z</time></trkpt><trkpt lat="43.24588900718909" lon="11.554167699093735"><ele>178.8</ele><time>2026-04-11T03:01:08Z</time></trkpt><trkpt lat="43.24599979929538" lon="11.554153618267627"><ele>177.0</ele><time>2026-04-11T03:01:09Z</time></trkpt><trkpt lat="43.24610948677418" lon="11.554141907195694"><ele>177.0</ele><time>2026-04-11T03:01:10Z</time></trkpt><trkpt lat="43.246219422166114" lon="11.554123292725812"><ele>177.0</ele><time>2026-04-11T03:01:11Z</time></trkpt><trkpt lat="43.24633345993676" lon="11.554109243657939"><ele>177.0</ele><time>2026-04-11T03:01:12Z</time></trkpt><trkpt lat="43.24644479744123" lon="11.554107511064062"><ele>177.0</ele><time>2026-04-11T03:01:13Z</time></trkpt><trkpt lat="43.24655539372728" lon="11.554118339191268"><ele>177.0</ele><time>2026-04-11T03:01:14Z</time></trkpt><trkpt lat="43.24675732972589" lon="11.554174186077972"><ele>176.16666666666666</ele><time>2026-04-11T03:01:16Z</time></trkpt><trkpt lat="43.24684541087978" lon="11.554226268184342"><ele>175.33333333333334</ele><time>2026-04-11T03:01:17Z</time></trkpt><trkpt lat="43.24692864245968" lon="11.55429255324604"><ele>174.5</ele><time>2026-04-11T03:01:18Z</time></trkpt><trkpt lat="43.24700752403294" lon="11.554356949459835"><ele>173.66666666666669</ele><time>2026-04-11T03:01:19Z</time></trkpt><trkpt lat="43.24708532211799" lon="11.554404899600897"><ele>172.83333333333334</ele><time>2026-04-11T03:01:20Z</time></trkpt><trkpt lat="43.2471517446024" lon="11.554455784226697"><ele>172.0</ele><time>2026-04-11T03:01:21Z</time></trkpt><trkpt lat="43.24721363778452" lon="11.554503875151871"><ele>173.16666666666669</ele><time>2026-04-11T03:01:22Z</time></trkpt><trkpt lat="43.24731844592" lon="11.554580508503086"><ele>174.33333333333334</ele><time>2026-04-11T03:01:24Z</time></trkpt><trkpt lat="43.2474026085705" lon="11.55464389682312"><ele>175.5</ele><time>2026-04-11T03:01:26Z</time></trkpt><trkpt lat="43.24746691800907" lon="11.55468889376224"><ele>176.66666666666666</ele><time>2026-04-11T03:01:28Z</time></trkpt><trkpt lat="43.24753429790352" lon="11.554743110026743"><ele>177.83333333333331</ele><time>2026-04-11T03:01:31Z</time></trkpt><trkpt lat="43.247607803481635" lon="11.554788814105475"><ele>179.0</ele><time>2026-04-11T03:01:34Z</time></trkpt><trkpt lat="43.24767244137342" lon="11.554836124388475"><ele>179.0</ele><time>2026-04-11T03:01:37Z</time></trkpt><trkpt lat="43.247803474085764" lon="11.55495127820943"><ele>179.0</ele><time>2026-04-11T03:01:44Z</time></trkpt><trkpt lat="43.24785432056536" lon="11.555022685995542"><ele>179.0</ele><time>2026-04-11T03:01:47Z</time></trkpt><trkpt lat="43.2478975357593" lon="11.555100385022604"><ele>179.0</ele><time>2026-04-11T03:01:50Z</time></trkpt><trkpt lat="43.24794260413732" lon="11.555199590426469"><ele>179.0</ele><time>2026-04-11T03:01:53Z</time></trkpt><trkpt lat="43.24799202836237" lon="11.555295618946182"><ele>178.2</ele><time>2026-04-11T03:01:56Z</time></trkpt><trkpt lat="43.24805118201205" lon="11.555378847698808"><ele>177.39999999999998</ele><time>2026-04-11T03:01:59Z</time></trkpt><trkpt lat="43.248164520194706" lon="11.555527085012333"><ele>176.6</ele><time>2026-04-11T03:02:04Z</time></trkpt><trkpt lat="43.24822075552624" lon="11.555587176022717"><ele>175.8</ele><time>2026-04-11T03:02:06Z</time></trkpt><trkpt lat="43.24828401268213" lon="11.555644311106217"><ele>175.0</ele><time>2026-04-11T03:02:08Z</time></trkpt><trkpt lat="43.24834722365897" lon="11.555695735308491"><ele>177.4</ele><time>2026-04-11T03:02:10Z</time></trkpt><trkpt lat="43.24841333755041" lon="11.555749790604152"><ele>179.8</ele><time>2026-04-11T03:02:12Z</time></trkpt><trkpt lat="43.24848198132735" lon="11.55580939696176"><ele>182.2</ele><time>2026-04-11T03:02:14Z</time></trkpt><trkpt lat="43.248559930698825" lon="11.55587091176126"><ele>184.6</ele><time>2026-04-11T03:02:16Z</time></trkpt><trkpt lat="43.24865179511408" lon="11.555936795193233"><ele>187.0</ele><time>2026-04-11T03:02:18Z</time></trkpt><trkpt lat="43.24875446735056" lon="11.556006113699983"><ele>190.0</ele><time>2026-04-11T03:02:20Z</time></trkpt><trkpt lat="43.24898476287716" lon="11.55607752636682"><ele>193.0</ele><time>2026-04-11T03:02:24Z</time></trkpt><trkpt lat="43.249095946347126" lon="11.556073897120351"><ele>196.0</ele><time>2026-04-11T03:02:26Z</time></trkpt><trkpt lat="43.249196191886526" lon="11.556045239574177"><ele>196.0</ele><time>2026-04-11T03:02:28Z</time></trkpt><trkpt lat="43.249293870555036" lon="11.556021913613995"><ele>196.0</ele><time>2026-04-11T03:02:30Z</time></trkpt><trkpt lat="43.249390188556845" lon="11.556001270817454"><ele>196.0</ele><time>2026-04-11T03:02:32Z</time></trkpt><trkpt lat="43.249484090232585" lon="11.555990065231077"><ele>196.0</ele><time>2026-04-11T03:02:34Z</time></trkpt><trkpt lat="43.249589805169535" lon="11.555979970086987"><ele>196.0</ele><time>2026-04-11T03:02:36Z</time></trkpt><trkpt lat="43.249695851845054" lon="11.555977574078337"><ele>196.75</ele><time>2026-04-11T03:02:38Z</time></trkpt><trkpt lat="43.24980696020025" lon="11.555971049833545"><ele>197.5</ele><time>2026-04-11T03:02:40Z</time></trkpt><trkpt lat="43.24992214860936" lon="11.555953433023845"><ele>198.25</ele><time>2026-04-11T03:02:42Z</time></trkpt><trkpt lat="43.25010675578268" lon="11.555865261349522"><ele>199.0</ele><time>2026-04-11T03:02:46Z</time></trkpt><trkpt lat="43.250166052917564" lon="11.555824503141539"><ele>199.0</ele><time>2026-04-11T03:02:48Z</time></trkpt><trkpt lat="43.25033544360552" lon="11.555675927850428"><ele>199.0</ele><time>2026-04-11T03:02:56Z</time></trkpt><trkpt lat="43.25038841390884" lon="11.555595195014494"><ele>199.0</ele><time>2026-04-11T03:03:00Z</time></trkpt><trkpt lat="43.250436893836444" lon="11.5555371159023"><ele>199.0</ele><time>2026-04-11T03:03:03Z</time></trkpt><trkpt lat="43.25054388372907" lon="11.555413767544918"><ele>201.66666666666666</ele><time>2026-04-11T03:03:11Z</time></trkpt><trkpt lat="43.250610451362526" lon="11.555334414695452"><ele>204.33333333333331</ele><time>2026-04-11T03:03:16Z</time></trkpt><trkpt lat="43.25067257308006" lon="11.555279634368226"><ele>207.0</ele><time>2026-04-11T03:03:20Z</time></trkpt><trkpt lat="43.250734926879986" lon="11.555227718762456"><ele>209.66666666666669</ele><time>2026-04-11T03:03:24Z</time></trkpt><trkpt lat="43.25082973870152" lon="11.555092732807749"><ele>212.33333333333334</ele><time>2026-04-11T03:03:32Z</time></trkpt><trkpt lat="43.25088655724637" lon="11.555038359004694"><ele>215.0</ele><time>2026-04-11T03:03:36Z</time></trkpt><trkpt lat="43.25095790074584" lon="11.554999229053822"><ele>215.00000000000003</ele><time>2026-04-11T03:03:40Z</time></trkpt><trkpt lat="43.251028409263185" lon="11.55495727684224"><ele>215.0</ele><time>2026-04-11T03:03:44Z</time></trkpt><trkpt lat="43.25109861400108" lon="11.554913896375966"><ele>215.0</ele><time>2026-04-11T03:03:48Z</time></trkpt><trkpt lat="43.25123720593891" lon="11.554869168873525"><ele>215.0</ele><time>2026-04-11T03:03:55Z</time></trkpt><trkpt lat="43.25130370879228" lon="11.554825917225497"><ele>215.00000000000003</ele><time>2026-04-11T03:03:59Z</time></trkpt><trkpt lat="43.25137101674395" lon="11.554797233108014"><ele>215.0</ele><time>2026-04-11T03:04:02Z</time></trkpt><trkpt lat="43.251450898374756" lon="11.55477253344619"><ele>214.6</ele><time>2026-04-11T03:04:05Z</time></trkpt><trkpt lat="43.251538253030034" lon="11.554727164458479"><ele>214.2</ele><time>2026-04-11T03:04:09Z</time></trkpt><trkpt lat="43.25167133834704" lon="11.55468905561693"><ele>213.8</ele><time>2026-04-11T03:04:15Z</time></trkpt><trkpt lat="43.25174384858573" lon="11.554653259884434"><ele>213.4</ele><time>2026-04-11T03:04:19Z</time></trkpt><trkpt lat="43.251817010342556" lon="11.554638775793537"><ele>213.0</ele><time>2026-04-11T03:04:23Z</time></trkpt><trkpt lat="43.251885332151865" lon="11.554623214516955"><ele>213.0</ele><time>2026-04-11T03:04:27Z</time></trkpt><trkpt lat="43.251963818854456" lon="11.554610742465353"><ele>213.0</ele><time>2026-04-11T03:04:31Z</time></trkpt><trkpt lat="43.252127351259254" lon="11.554601980166264"><ele>213.0</ele><time>2026-04-11T03:04:37Z</time></trkpt><trkpt lat="43.25221062864481" lon="11.55461245590437"><ele>213.0</ele><time>2026-04-11T03:04:39Z</time></trkpt><trkpt lat="43.25230265058563" lon="11.554643733391272"><ele>213.0</ele><time>2026-04-11T03:04:41Z</time></trkpt><trkpt lat="43.25239989179735" lon="11.554674671414956"><ele>213.2</ele><time>2026-04-11T03:04:43Z</time></trkpt><trkpt lat="43.25249406105783" lon="11.554706556801095"><ele>213.4</ele><time>2026-04-11T03:04:45Z</time></trkpt><trkpt lat="43.25258265988509" lon="11.554718532496254"><ele>213.59999999999997</ele><time>2026-04-11T03:04:47Z</time></trkpt><trkpt lat="43.25264957843357" lon="11.554718562709496"><ele>213.79999999999998</ele><time>2026-04-11T03:04:49Z</time></trkpt><trkpt lat="43.252721332927514" lon="11.5547311742172"><ele>214.0</ele><time>2026-04-11T03:04:52Z</time></trkpt><trkpt lat="43.25285199675802" lon="11.554700150173062"><ele>213.99999999999997</ele><time>2026-04-11T03:04:59Z</time></trkpt><trkpt lat="43.252918393678804" lon="11.55469156619118"><ele>214.0</ele><time>2026-04-11T03:05:03Z</time></trkpt><trkpt lat="43.25298357812074" lon="11.554683884895143"><ele>214.0</ele><time>2026-04-11T03:05:06Z</time></trkpt><trkpt lat="43.25305435129804" lon="11.554654842407352"><ele>214.0</ele><time>2026-04-11T03:05:10Z</time></trkpt><trkpt lat="43.25312633392264" lon="11.554640326088963"><ele>213.99999999999997</ele><time>2026-04-11T03:05:14Z</time></trkpt><trkpt lat="43.25325414531011" lon="11.554577392429177"><ele>214.0</ele><time>2026-04-11T03:05:22Z</time></trkpt><trkpt lat="43.25331455269275" lon="11.554544932858144"><ele>216.99999999999997</ele><time>2026-04-11T03:05:26Z</time></trkpt><trkpt lat="43.2533759998158" lon="11.554505243601582"><ele>220.0</ele><time>2026-04-11T03:05:30Z</time></trkpt><trkpt lat="43.253427712082654" lon="11.554449828387185"><ele>223.0</ele><time>2026-04-11T03:05:34Z</time></trkpt><trkpt lat="43.2534928202502" lon="11.554416428628185"><ele>226.0</ele><time>2026-04-11T03:05:38Z</time></trkpt><trkpt lat="43.25360724467528" lon="11.55432701964342"><ele>228.99999999999997</ele><time>2026-04-11T03:05:46Z</time></trkpt><trkpt lat="43.25367975314343" lon="11.554277894134623"><ele>232.0</ele><time>2026-04-11T03:05:50Z</time></trkpt><trkpt lat="43.253740868964606" lon="11.55422555465862"><ele>232.0</ele><time>2026-04-11T03:05:53Z</time></trkpt><trkpt lat="43.25381343481524" lon="11.554161014911065"><ele>232.0</ele><time>2026-04-11T03:05:56Z</time></trkpt><trkpt lat="43.253879193178214" lon="11.55408064489482"><ele>232.0</ele><time>2026-04-11T03:05:59Z</time></trkpt><trkpt lat="43.253977240991894" lon="11.55389771969755"><ele>232.0</ele><time>2026-04-11T03:06:05Z</time></trkpt><trkpt lat="43.25401343540151" lon="11.553820802069609"><ele>232.0</ele><time>2026-04-11T03:06:08Z</time></trkpt><trkpt lat="43.25403107860309" lon="11.553728154607784"><ele>234.16666666666666</ele><time>2026-04-11T03:06:12Z</time></trkpt><trkpt lat="43.254037211043325" lon="11.553638410827444"><ele>236.33333333333331</ele><time>2026-04-11T03:06:16Z</time></trkpt><trkpt lat="43.25404565294384" lon="11.553548021568025"><ele>238.5</ele><time>2026-04-11T03:06:20Z</time></trkpt><trkpt lat="43.25405448667404" lon="11.553370569138917"><ele>240.66666666666669</ele><time>2026-04-11T03:06:28Z</time></trkpt><trkpt lat="43.254054101687686" lon="11.553275834513515"><ele>242.83333333333334</ele><time>2026-04-11T03:06:32Z</time></trkpt><trkpt lat="43.254080139473274" lon="11.553182661356264"><ele>245.0</ele><time>2026-04-11T03:06:36Z</time></trkpt><trkpt lat="43.25411820942601" lon="11.553100307542724"><ele>245.0</ele><time>2026-04-11T03:06:40Z</time></trkpt><trkpt lat="43.25417487344455" lon="11.553032802828522"><ele>245.0</ele><time>2026-04-11T03:06:44Z</time></trkpt><trkpt lat="43.254303344292445" lon="11.552934948708616"><ele>245.0</ele><time>2026-04-11T03:06:52Z</time></trkpt><trkpt lat="43.254383650479916" lon="11.552920185951473"><ele>245.0</ele><time>2026-04-11T03:06:56Z</time></trkpt><trkpt lat="43.25445537158519" lon="11.552926240962362"><ele>245.0</ele><time>2026-04-11T03:06:59Z</time></trkpt><trkpt lat="43.25453952673938" lon="11.55293480429911"><ele>245.0</ele><time>2026-04-11T03:07:02Z</time></trkpt><trkpt lat="43.25460331715177" lon="11.55293682735816"><ele>245.0</ele><time>2026-04-11T03:07:04Z</time></trkpt><trkpt lat="43.254671279668216" lon="11.5529276358725"><ele>245.0</ele><time>2026-04-11T03:07:06Z</time></trkpt><trkpt lat="43.25482422519179" lon="11.552916055901845"><ele>245.0</ele><time>2026-04-11T03:07:10Z</time></trkpt><trkpt lat="43.25491016943006" lon="11.552915350535965"><ele>245.0</ele><time>2026-04-11T03:07:12Z</time></trkpt><trkpt lat="43.25499511396251" lon="11.55290525125988"><ele>245.50000000000003</ele><time>2026-04-11T03:07:14Z</time></trkpt><trkpt lat="43.255076129870574" lon="11.552903656795209"><ele>246.0</ele><time>2026-04-11T03:07:16Z</time></trkpt><trkpt lat="43.25515768177902" lon="11.55290976361286"><ele>246.5</ele><time>2026-04-11T03:07:18Z</time></trkpt><trkpt lat="43.2552425387636" lon="11.55290984055375"><ele>247.0</ele><time>2026-04-11T03:07:20Z</time></trkpt><trkpt lat="43.25532581923245" lon="11.55290681911339"><ele>247.50000000000003</ele><time>2026-04-11T03:07:22Z</time></trkpt><trkpt lat="43.25542056828758" lon="11.552903995054836"><ele>248.0</ele><time>2026-04-11T03:07:24Z</time></trkpt><trkpt lat="43.2555229273417" lon="11.552920205650556"><ele>249.0</ele><time>2026-04-11T03:07:26Z</time></trkpt><trkpt lat="43.25563085559538" lon="11.552960262661275"><ele>250.0</ele><time>2026-04-11T03:07:28Z</time></trkpt><trkpt lat="43.25584369845423" lon="11.55308168056658"><ele>251.0</ele><time>2026-04-11T03:07:32Z</time></trkpt><trkpt lat="43.25590092713774" lon="11.553117824535883"><ele>252.0</ele><time>2026-04-11T03:07:33Z</time></trkpt><trkpt lat="43.256016770958205" lon="11.553187919544929"><ele>252.0</ele><time>2026-04-11T03:07:35Z</time></trkpt><trkpt lat="43.25607467831146" lon="11.55322961831345"><ele>252.0</ele><time>2026-04-11T03:07:36Z</time></trkpt><trkpt lat="43.256136476935374" lon="11.553266763081103"><ele>252.0</ele><time>2026-04-11T03:07:37Z</time></trkpt><trkpt lat="43.256197085025896" lon="11.553302121670828"><ele>252.0</ele><time>2026-04-11T03:07:38Z</time></trkpt><trkpt lat="43.256257551974365" lon="11.553343811994747"><ele>252.0</ele><time>2026-04-11T03:07:39Z</time></trkpt><trkpt lat="43.25631828592685" lon="11.55338296419563"><ele>252.0</ele><time>2026-04-11T03:07:40Z</time></trkpt><trkpt lat="43.256379145811714" lon="11.553427022370434"><ele>252.0</ele><time>2026-04-11T03:07:41Z</time></trkpt><trkpt lat="43.256438754213164" lon="11.553471625903411"><ele>251.85714285714286</ele><time>2026-04-11T03:07:42Z</time></trkpt><trkpt lat="43.25649870648653" lon="11.553514902373479"><ele>251.71428571428572</ele><time>2026-04-11T03:07:43Z</time></trkpt><trkpt lat="43.25655654795701" lon="11.553552583011426"><ele>251.57142857142856</ele><time>2026-04-11T03:07:44Z</time></trkpt><trkpt lat="43.256616059596396" lon="11.553588741026605"><ele>251.42857142857142</ele><time>2026-04-11T03:07:45Z</time></trkpt><trkpt lat="43.25667551973766" lon="11.553625243358207"><ele>251.28571428571428</ele><time>2026-04-11T03:07:46Z</time></trkpt><trkpt lat="43.25673738454749" lon="11.553657460756462"><ele>251.1428571428571</ele><time>2026-04-11T03:07:47Z</time></trkpt><trkpt lat="43.256798494076946" lon="11.553684051801174"><ele>250.99999999999997</ele><time>2026-04-11T03:07:48Z</time></trkpt><trkpt lat="43.256863096630966" lon="11.553699083570285"><ele>251.0</ele><time>2026-04-11T03:07:49Z</time></trkpt><trkpt lat="43.25699344146674" lon="11.553704622900616"><ele>251.00000000000003</ele><time>2026-04-11T03:07:51Z</time></trkpt><trkpt lat="43.257057252483754" lon="11.553696843946565"><ele>251.00000000000003</ele><time>2026-04-11T03:07:52Z</time></trkpt><trkpt lat="43.25717764148446" lon="11.553669399852627"><ele>251.0</ele><time>2026-04-11T03:07:54Z</time></trkpt><trkpt lat="43.25729355457013" lon="11.553636532711517"><ele>251.0</ele><time>2026-04-11T03:07:56Z</time></trkpt><trkpt lat="43.25740827786255" lon="11.553602954736471"><ele>251.16666666666669</ele><time>2026-04-11T03:07:58Z</time></trkpt><trkpt lat="43.257527962386334" lon="11.55356264588589"><ele>251.33333333333334</ele><time>2026-04-11T03:08:00Z</time></trkpt><trkpt lat="43.2575857971461" lon="11.553527096337305"><ele>251.5</ele><time>2026-04-11T03:08:01Z</time></trkpt><trkpt lat="43.257648187272764" lon="11.553502438649383"><ele>251.66666666666669</ele><time>2026-04-11T03:08:02Z</time></trkpt><trkpt lat="43.257767771913976" lon="11.553447522179477"><ele>251.83333333333334</ele><time>2026-04-11T03:08:04Z</time></trkpt><trkpt lat="43.25782778868655" lon="11.553414563683564"><ele>252.0</ele><time>2026-04-11T03:08:05Z</time></trkpt><trkpt lat="43.257886110621584" lon="11.553380212795313"><ele>252.0</ele><time>2026-04-11T03:08:06Z</time></trkpt><trkpt lat="43.25800424156702" lon="11.553319173686475"><ele>252.0</ele><time>2026-04-11T03:08:08Z</time></trkpt><trkpt lat="43.258063996928946" lon="11.553291130710589"><ele>252.0</ele><time>2026-04-11T03:08:09Z</time></trkpt><trkpt lat="43.258129291193335" lon="11.553265262388825"><ele>252.0</ele><time>2026-04-11T03:08:10Z</time></trkpt><trkpt lat="43.25826924142854" lon="11.553242705945019"><ele>252.0</ele><time>2026-04-11T03:08:12Z</time></trkpt><trkpt lat="43.25834533707297" lon="11.553217232757396"><ele>252.0</ele><time>2026-04-11T03:08:13Z</time></trkpt><trkpt lat="43.258427657406905" lon="11.553197277983223"><ele>252.0</ele><time>2026-04-11T03:08:14Z</time></trkpt><trkpt lat="43.2585146091792" lon="11.553173027780973"><ele>252.0</ele><time>2026-04-11T03:08:15Z</time></trkpt><trkpt lat="43.25860557992496" lon="11.553149075491111"><ele>252.0</ele><time>2026-04-11T03:08:16Z</time></trkpt><trkpt lat="43.258699219788184" lon="11.55312329928776"><ele>252.0</ele><time>2026-04-11T03:08:17Z</time></trkpt><trkpt lat="43.258793952107716" lon="11.553094791461541"><ele>252.0</ele><time>2026-04-11T03:08:18Z</time></trkpt><trkpt lat="43.258892483680235" lon="11.553056573815105"><ele>252.0</ele><time>2026-04-11T03:08:19Z</time></trkpt><trkpt lat="43.25898563288641" lon="11.553006480392538"><ele>252.0</ele><time>2026-04-11T03:08:20Z</time></trkpt><trkpt lat="43.259070947597" lon="11.552938760151553"><ele>252.0</ele><time>2026-04-11T03:08:21Z</time></trkpt><trkpt lat="43.25914236001333" lon="11.552860881913114"><ele>252.0</ele><time>2026-04-11T03:08:22Z</time></trkpt><trkpt lat="43.25920518341188" lon="11.552780754284722"><ele>251.0</ele><time>2026-04-11T03:08:23Z</time></trkpt><trkpt lat="43.25926621219843" lon="11.552703518958376"><ele>250.0</ele><time>2026-04-11T03:08:24Z</time></trkpt><trkpt lat="43.25932719592226" lon="11.552629089935031"><ele>249.0</ele><time>2026-04-11T03:08:25Z</time></trkpt><trkpt lat="43.2593851279565" lon="11.552552046827511"><ele>248.0</ele><time>2026-04-11T03:08:26Z</time></trkpt><trkpt lat="43.25943493459565" lon="11.55246607212744"><ele>247.0</ele><time>2026-04-11T03:08:27Z</time></trkpt><trkpt lat="43.25947240560877" lon="11.55238019885148"><ele>246.0</ele><time>2026-04-11T03:08:28Z</time></trkpt><trkpt lat="43.25950352114481" lon="11.552290170380626"><ele>246.0</ele><time>2026-04-11T03:08:29Z</time></trkpt><trkpt lat="43.25952861916989" lon="11.552204287757496"><ele>246.00000000000003</ele><time>2026-04-11T03:08:30Z</time></trkpt><trkpt lat="43.25954644225113" lon="11.552117659974943"><ele>246.00000000000003</ele><time>2026-04-11T03:08:31Z</time></trkpt><trkpt lat="43.25960872076319" lon="11.55185481876637"><ele>246.0</ele><time>2026-04-11T03:08:35Z</time></trkpt><trkpt lat="43.25963365688552" lon="11.551747050527847"><ele>246.0</ele><time>2026-04-11T03:08:37Z</time></trkpt><trkpt lat="43.25965722009417" lon="11.551648267807384"><ele>246.0</ele><time>2026-04-11T03:08:39Z</time></trkpt><trkpt lat="43.25968444911517" lon="11.551547605926894"><ele>246.0</ele><time>2026-04-11T03:08:41Z</time></trkpt><trkpt lat="43.259697651794596" lon="11.551460347967975"><ele>246.0</ele><time>2026-04-11T03:08:43Z</time></trkpt><trkpt lat="43.25972157762657" lon="11.551348695751047"><ele>246.0</ele><time>2026-04-11T03:08:45Z</time></trkpt><trkpt lat="43.25976156265454" lon="11.551199481624428"><ele>246.0</ele><time>2026-04-11T03:08:47Z</time></trkpt><trkpt lat="43.25979077348425" lon="11.55110503396715"><ele>246.0</ele><time>2026-04-11T03:08:48Z</time></trkpt><trkpt lat="43.25982529195574" lon="11.551012922227684"><ele>246.4</ele><time>2026-04-11T03:08:49Z</time></trkpt><trkpt lat="43.25986797886616" lon="11.550915192435722"><ele>246.8</ele><time>2026-04-11T03:08:50Z</time></trkpt><trkpt lat="43.25991413494738" lon="11.550830586738662"><ele>247.20000000000002</ele><time>2026-04-11T03:08:51Z</time></trkpt><trkpt lat="43.25996296393868" lon="11.550748293431266"><ele>247.60000000000002</ele><time>2026-04-11T03:08:52Z</time></trkpt><trkpt lat="43.2600819044058" lon="11.550549285789545"><ele>248.0</ele><time>2026-04-11T03:08:54Z</time></trkpt><trkpt lat="43.260150234523195" lon="11.550443087043718"><ele>246.60000000000002</ele><time>2026-04-11T03:08:55Z</time></trkpt><trkpt lat="43.26022051234157" lon="11.550337487560821"><ele>245.20000000000002</ele><time>2026-04-11T03:08:56Z</time></trkpt><trkpt lat="43.26029310881027" lon="11.550236842477364"><ele>243.8</ele><time>2026-04-11T03:08:57Z</time></trkpt><trkpt lat="43.26037108254894" lon="11.550147254739375"><ele>242.4</ele><time>2026-04-11T03:08:58Z</time></trkpt><trkpt lat="43.26045993302165" lon="11.550074086353723"><ele>241.0</ele><time>2026-04-11T03:08:59Z</time></trkpt><trkpt lat="43.26056235802724" lon="11.550012379573602"><ele>239.4</ele><time>2026-04-11T03:09:00Z</time></trkpt><trkpt lat="43.26067141891329" lon="11.549958483533269"><ele>237.8</ele><time>2026-04-11T03:09:01Z</time></trkpt><trkpt lat="43.26078393518218" lon="11.549920798760198"><ele>236.20000000000002</ele><time>2026-04-11T03:09:02Z</time></trkpt><trkpt lat="43.260891003057814" lon="11.549905445666765"><ele>234.60000000000002</ele><time>2026-04-11T03:09:03Z</time></trkpt><trkpt lat="43.2609936295968" lon="11.549908239217393"><ele>233.0</ele><time>2026-04-11T03:09:04Z</time></trkpt><trkpt lat="43.261085658529545" lon="11.549921847210339"><ele>233.00000000000003</ele><time>2026-04-11T03:09:05Z</time></trkpt><trkpt lat="43.26116543741229" lon="11.549942231609496"><ele>233.0</ele><time>2026-04-11T03:09:06Z</time></trkpt><trkpt lat="43.261236587559345" lon="11.549967467751827"><ele>233.0</ele><time>2026-04-11T03:09:07Z</time></trkpt><trkpt lat="43.26130778170416" lon="11.549973158486745"><ele>233.0</ele><time>2026-04-11T03:09:08Z</time></trkpt><trkpt lat="43.261377243223905" lon="11.549963864195968"><ele>233.00000000000003</ele><time>2026-04-11T03:09:09Z</time></trkpt><trkpt lat="43.261443799325455" lon="11.549948870598469"><ele>233.0</ele><time>2026-04-11T03:09:10Z</time></trkpt><trkpt lat="43.261557886523704" lon="11.549919018941512"><ele>233.4</ele><time>2026-04-11T03:09:12Z</time></trkpt><trkpt lat="43.26165228554229" lon="11.549889660219868"><ele>233.8</ele><time>2026-04-11T03:09:14Z</time></trkpt><trkpt lat="43.2618063617709" lon="11.549798985211893"><ele>234.2</ele><time>2026-04-11T03:09:18Z</time></trkpt><trkpt lat="43.261875501583205" lon="11.549751112204671"><ele>234.6</ele><time>2026-04-11T03:09:20Z</time></trkpt><trkpt lat="43.26194610080909" lon="11.54970289054647"><ele>235.0</ele><time>2026-04-11T03:09:22Z</time></trkpt><trkpt lat="43.262017020076684" lon="11.549645768697385"><ele>234.99999999999997</ele><time>2026-04-11T03:09:24Z</time></trkpt><trkpt lat="43.26208557003222" lon="11.54957743707373"><ele>235.0</ele><time>2026-04-11T03:09:26Z</time></trkpt><trkpt lat="43.26214713250581" lon="11.549501364166078"><ele>235.0</ele><time>2026-04-11T03:09:28Z</time></trkpt><trkpt lat="43.26221255705699" lon="11.549424344640743"><ele>235.0</ele><time>2026-04-11T03:09:30Z</time></trkpt><trkpt lat="43.26227381024396" lon="11.549352642736853"><ele>234.99999999999997</ele><time>2026-04-11T03:09:32Z</time></trkpt><trkpt lat="43.26232901746855" lon="11.549285277128263"><ele>235.0</ele><time>2026-04-11T03:09:34Z</time></trkpt><trkpt lat="43.26239960804761" lon="11.549205076761645"><ele>236.83333333333331</ele><time>2026-04-11T03:09:37Z</time></trkpt><trkpt lat="43.26250216115378" lon="11.54903826316953"><ele>238.66666666666666</ele><time>2026-04-11T03:09:43Z</time></trkpt><trkpt lat="43.26254876334185" lon="11.54896904175789"><ele>240.5</ele><time>2026-04-11T03:09:46Z</time></trkpt><trkpt lat="43.262591923986626" lon="11.54889771675358"><ele>242.33333333333331</ele><time>2026-04-11T03:09:49Z</time></trkpt><trkpt lat="43.26262985945467" lon="11.548816661151612"><ele>244.16666666666666</ele><time>2026-04-11T03:09:52Z</time></trkpt><trkpt lat="43.26267095014827" lon="11.548742581959026"><ele>246.0</ele><time>2026-04-11T03:09:55Z</time></trkpt><trkpt lat="43.26270303544942" lon="11.548666426020734"><ele>247.33333333333334</ele><time>2026-04-11T03:09:58Z</time></trkpt><trkpt lat="43.262789253870444" lon="11.548501927563011"><ele>248.66666666666669</ele><time>2026-04-11T03:10:05Z</time></trkpt><trkpt lat="43.26283178228312" lon="11.548417157492986"><ele>250.0</ele><time>2026-04-11T03:10:09Z</time></trkpt><trkpt lat="43.26288019110918" lon="11.548347661325733"><ele>251.33333333333334</ele><time>2026-04-11T03:10:13Z</time></trkpt><trkpt lat="43.26293012584002" lon="11.548284861808343"><ele>252.66666666666669</ele><time>2026-04-11T03:10:17Z</time></trkpt><trkpt lat="43.262973745541935" lon="11.548212380249291"><ele>254.0</ele><time>2026-04-11T03:10:21Z</time></trkpt><trkpt lat="43.263037048489544" lon="11.548045682871923"><ele>254.00000000000003</ele><time>2026-04-11T03:10:29Z</time></trkpt><trkpt lat="43.263069067752454" lon="11.547965480820206"><ele>254.0</ele><time>2026-04-11T03:10:33Z</time></trkpt><trkpt lat="43.263094562307735" lon="11.54787828669174"><ele>254.0</ele><time>2026-04-11T03:10:37Z</time></trkpt><trkpt lat="43.26312457206433" lon="11.547794897578507"><ele>254.0</ele><time>2026-04-11T03:10:41Z</time></trkpt><trkpt lat="43.26315840710007" lon="11.547707427852247"><ele>254.00000000000003</ele><time>2026-04-11T03:10:45Z</time></trkpt><trkpt lat="43.26322916795849" lon="11.54753787102636"><ele>254.0</ele><time>2026-04-11T03:10:52Z</time></trkpt><trkpt lat="43.263281583308334" lon="11.547465448479286"><ele>256.0</ele><time>2026-04-11T03:10:55Z</time></trkpt><trkpt lat="43.26332344303306" lon="11.547376431850735"><ele>258.0</ele><time>2026-04-11T03:10:58Z</time></trkpt><trkpt lat="43.26337893027498" lon="11.54731205917287"><ele>260.0</ele><time>2026-04-11T03:11:01Z</time></trkpt><trkpt lat="43.26344297742432" lon="11.547252373764781"><ele>262.0</ele><time>2026-04-11T03:11:04Z</time></trkpt><trkpt lat="43.263498893311656" lon="11.54717688375765"><ele>264.0</ele><time>2026-04-11T03:11:07Z</time></trkpt><trkpt lat="43.26363952745605" lon="11.547056983880777"><ele>264.0</ele><time>2026-04-11T03:11:11Z</time></trkpt><trkpt lat="43.263732378059736" lon="11.546970484501333"><ele>264.0</ele><time>2026-04-11T03:11:13Z</time></trkpt><trkpt lat="43.26378506032128" lon="11.546914962971435"><ele>264.0</ele><time>2026-04-11T03:11:14Z</time></trkpt><trkpt lat="43.26384249226293" lon="11.54686423957342"><ele>264.0</ele><time>2026-04-11T03:11:15Z</time></trkpt><trkpt lat="43.26389990524405" lon="11.546806869575372"><ele>264.0</ele><time>2026-04-11T03:11:16Z</time></trkpt><trkpt lat="43.26395887649162" lon="11.546746152018372"><ele>264.0</ele><time>2026-04-11T03:11:17Z</time></trkpt><trkpt lat="43.26402303471018" lon="11.546677669344112"><ele>264.0</ele><time>2026-04-11T03:11:18Z</time></trkpt><trkpt lat="43.26408459952867" lon="11.546619191854896"><ele>264.0</ele><time>2026-04-11T03:11:19Z</time></trkpt><trkpt lat="43.26414469399885" lon="11.546552536052284"><ele>264.0</ele><time>2026-04-11T03:11:20Z</time></trkpt><trkpt lat="43.264203296196314" lon="11.546485126354257"><ele>264.0</ele><time>2026-04-11T03:11:21Z</time></trkpt><trkpt lat="43.26426051023413" lon="11.546413977604555"><ele>264.0</ele><time>2026-04-11T03:11:22Z</time></trkpt><trkpt lat="43.26431087771526" lon="11.54634382301247"><ele>264.0</ele><time>2026-04-11T03:11:23Z</time></trkpt><trkpt lat="43.264355922867146" lon="11.546262174988353"><ele>266.4</ele><time>2026-04-11T03:11:24Z</time></trkpt><trkpt lat="43.264397218470066" lon="11.546183229296389"><ele>268.79999999999995</ele><time>2026-04-11T03:11:25Z</time></trkpt><trkpt lat="43.26443160846026" lon="11.546097126015686"><ele>271.20000000000005</ele><time>2026-04-11T03:11:26Z</time></trkpt><trkpt lat="43.26446074108005" lon="11.546010978973761"><ele>273.6</ele><time>2026-04-11T03:11:27Z</time></trkpt><trkpt lat="43.26448349642035" lon="11.545921121546032"><ele>276.0</ele><time>2026-04-11T03:11:28Z</time></trkpt><trkpt lat="43.26453684512929" lon="11.545669720213304"><ele>276.0</ele><time>2026-04-11T03:11:31Z</time></trkpt><trkpt lat="43.264559074669336" lon="11.545513872510513"><ele>276.0</ele><time>2026-04-11T03:11:33Z</time></trkpt><trkpt lat="43.264583773524386" lon="11.545359315016189"><ele>276.0</ele><time>2026-04-11T03:11:35Z</time></trkpt><trkpt lat="43.264610551554846" lon="11.545199976630895"><ele>276.0</ele><time>2026-04-11T03:11:37Z</time></trkpt><trkpt lat="43.2646344468773" lon="11.545032219875646"><ele>276.1666666666667</ele><time>2026-04-11T03:11:39Z</time></trkpt><trkpt lat="43.264642319611724" lon="11.54493589829005"><ele>276.3333333333333</ele><time>2026-04-11T03:11:40Z</time></trkpt><trkpt lat="43.26465327508338" lon="11.54483323970763"><ele>276.5</ele><time>2026-04-11T03:11:41Z</time></trkpt><trkpt lat="43.26466585985653" lon="11.544724608491364"><ele>276.66666666666663</ele><time>2026-04-11T03:11:42Z</time></trkpt><trkpt lat="43.26468920651426" lon="11.544620166075248"><ele>276.8333333333333</ele><time>2026-04-11T03:11:43Z</time></trkpt><trkpt lat="43.26472199235403" lon="11.544525996494935"><ele>277.0</ele><time>2026-04-11T03:11:44Z</time></trkpt><trkpt lat="43.264761953354835" lon="11.544444414993258"><ele>272.2</ele><time>2026-04-11T03:11:45Z</time></trkpt><trkpt lat="43.264809482139725" lon="11.544362445283658"><ele>267.4</ele><time>2026-04-11T03:11:46Z</time></trkpt><trkpt lat="43.264861670301514" lon="11.54428450328666"><ele>262.6</ele><time>2026-04-11T03:11:47Z</time></trkpt><trkpt lat="43.26491406255825" lon="11.54420615752549"><ele>257.8</ele><time>2026-04-11T03:11:48Z</time></trkpt><trkpt lat="43.26495693598752" lon="11.544113908324386"><ele>253.0</ele><time>2026-04-11T03:11:49Z</time></trkpt><trkpt lat="43.265042379316704" lon="11.543904800498934"><ele>252.99999999999997</ele><time>2026-04-11T03:11:51Z</time></trkpt><trkpt lat="43.265083041199105" lon="11.543798355273957"><ele>253.0</ele><time>2026-04-11T03:11:52Z</time></trkpt><trkpt lat="43.26512383428932" lon="11.543698685093963"><ele>253.0</ele><time>2026-04-11T03:11:53Z</time></trkpt><trkpt lat="43.26515488779465" lon="11.54359561124991"><ele>253.0</ele><time>2026-04-11T03:11:54Z</time></trkpt><trkpt lat="43.26518479577929" lon="11.543478042479515"><ele>252.99999999999997</ele><time>2026-04-11T03:11:55Z</time></trkpt><trkpt lat="43.265211648842055" lon="11.543349403426395"><ele>253.0</ele><time>2026-04-11T03:11:56Z</time></trkpt><trkpt lat="43.26522066173363" lon="11.543198156256935"><ele>251.2</ele><time>2026-04-11T03:11:57Z</time></trkpt><trkpt lat="43.26522277481194" lon="11.543045938934407"><ele>249.4</ele><time>2026-04-11T03:11:58Z</time></trkpt><trkpt lat="43.26521168320139" lon="11.542892865754684"><ele>247.59999999999997</ele><time>2026-04-11T03:11:59Z</time></trkpt><trkpt lat="43.265196012752156" lon="11.542742060394282"><ele>245.79999999999998</ele><time>2026-04-11T03:12:00Z</time></trkpt><trkpt lat="43.26518909768329" lon="11.542594050089818"><ele>244.0</ele><time>2026-04-11T03:12:01Z</time></trkpt><trkpt lat="43.26519877989482" lon="11.542455780996546"><ele>242.83333333333331</ele><time>2026-04-11T03:12:02Z</time></trkpt><trkpt lat="43.26522572124596" lon="11.542333886495925"><ele>241.66666666666666</ele><time>2026-04-11T03:12:03Z</time></trkpt><trkpt lat="43.26526323218407" lon="11.542222597758283"><ele>240.5</ele><time>2026-04-11T03:12:04Z</time></trkpt><trkpt lat="43.265306208228985" lon="11.542129310831642"><ele>239.33333333333331</ele><time>2026-04-11T03:12:05Z</time></trkpt><trkpt lat="43.26534606213096" lon="11.542035364718927"><ele>238.16666666666666</ele><time>2026-04-11T03:12:06Z</time></trkpt><trkpt lat="43.26537969000085" lon="11.541939852639455"><ele>237.0</ele><time>2026-04-11T03:12:07Z</time></trkpt><trkpt lat="43.26540968324513" lon="11.541840837644935"><ele>237.2</ele><time>2026-04-11T03:12:08Z</time></trkpt><trkpt lat="43.26543586655489" lon="11.541744964907968"><ele>237.39999999999998</ele><time>2026-04-11T03:12:09Z</time></trkpt><trkpt lat="43.26545721910207" lon="11.54164919558458"><ele>237.60000000000002</ele><time>2026-04-11T03:12:10Z</time></trkpt><trkpt lat="43.26548527844317" lon="11.541465664225287"><ele>237.8</ele><time>2026-04-11T03:12:12Z</time></trkpt><trkpt lat="43.265515100804315" lon="11.541309388460089"><ele>238.0</ele><time>2026-04-11T03:12:14Z</time></trkpt><trkpt lat="43.26552901400682" lon="11.5411706831431"><ele>238.0</ele><time>2026-04-11T03:12:16Z</time></trkpt><trkpt lat="43.26553977694806" lon="11.541037521682906"><ele>238.0</ele><time>2026-04-11T03:12:18Z</time></trkpt><trkpt lat="43.26554689855717" lon="11.540898290999316"><ele>238.0</ele><time>2026-04-11T03:12:20Z</time></trkpt><trkpt lat="43.26555694337676" lon="11.540767268397888"><ele>238.0</ele><time>2026-04-11T03:12:22Z</time></trkpt><trkpt lat="43.26558651556682" lon="11.540633618717136"><ele>238.0</ele><time>2026-04-11T03:12:24Z</time></trkpt><trkpt lat="43.26563908666269" lon="11.540517151173658"><ele>239.25</ele><time>2026-04-11T03:12:26Z</time></trkpt><trkpt lat="43.265700001862065" lon="11.540422029343311"><ele>240.5</ele><time>2026-04-11T03:12:28Z</time></trkpt><trkpt lat="43.26576700783245" lon="11.540322127668993"><ele>241.75</ele><time>2026-04-11T03:12:30Z</time></trkpt><trkpt lat="43.26586275637404" lon="11.540196232887892"><ele>243.0</ele><time>2026-04-11T03:12:32Z</time></trkpt><trkpt lat="43.26596146068603" lon="11.540033730427641"><ele>243.66666666666666</ele><time>2026-04-11T03:12:34Z</time></trkpt><trkpt lat="43.2660158866365" lon="11.539947260712735"><ele>244.33333333333331</ele><time>2026-04-11T03:12:35Z</time></trkpt><trkpt lat="43.266075821189865" lon="11.539861890044307"><ele>245.0</ele><time>2026-04-11T03:12:36Z</time></trkpt><trkpt lat="43.26613993961689" lon="11.539770165912264"><ele>245.66666666666666</ele><time>2026-04-11T03:12:37Z</time></trkpt><trkpt lat="43.26620314316727" lon="11.539676682976673"><ele>246.33333333333331</ele><time>2026-04-11T03:12:38Z</time></trkpt><trkpt lat="43.266260260787035" lon="11.539577222954293"><ele>247.0</ele><time>2026-04-11T03:12:39Z</time></trkpt><trkpt lat="43.266321688091374" lon="11.539480990020943"><ele>248.0</ele><time>2026-04-11T03:12:40Z</time></trkpt><trkpt lat="43.266377433273206" lon="11.539363265554305"><ele>249.0</ele><time>2026-04-11T03:12:41Z</time></trkpt><trkpt lat="43.266430650106585" lon="11.539250743292618"><ele>250.0</ele><time>2026-04-11T03:12:42Z</time></trkpt><trkpt lat="43.26648409546666" lon="11.539155585324421"><ele>251.0</ele><time>2026-04-11T03:12:43Z</time></trkpt><trkpt lat="43.26654726946054" lon="11.53908397455581"><ele>252.0</ele><time>2026-04-11T03:12:44Z</time></trkpt><trkpt lat="43.26661711728042" lon="11.539027515454144"><ele>249.66666666666666</ele><time>2026-04-11T03:12:45Z</time></trkpt><trkpt lat="43.26668536073527" lon="11.538989955048159"><ele>247.33333333333331</ele><time>2026-04-11T03:12:46Z</time></trkpt><trkpt lat="43.266760334884204" lon="11.538963724399071"><ele>245.0</ele><time>2026-04-11T03:12:47Z</time></trkpt><trkpt lat="43.26683879017978" lon="11.538929017717875"><ele>242.66666666666666</ele><time>2026-04-11T03:12:48Z</time></trkpt><trkpt lat="43.26692100268393" lon="11.538879456202245"><ele>240.33333333333331</ele><time>2026-04-11T03:12:49Z</time></trkpt><trkpt lat="43.2670070692293" lon="11.538832116696625"><ele>238.0</ele><time>2026-04-11T03:12:50Z</time></trkpt><trkpt lat="43.26709396381752" lon="11.538771595501158"><ele>236.75</ele><time>2026-04-11T03:12:51Z</time></trkpt><trkpt lat="43.26718103819319" lon="11.53871196255739"><ele>235.5</ele><time>2026-04-11T03:12:52Z</time></trkpt><trkpt lat="43.26726935176592" lon="11.538661327817369"><ele>234.25</ele><time>2026-04-11T03:12:53Z</time></trkpt><trkpt lat="43.26743895414007" lon="11.538548097523256"><ele>233.0</ele><time>2026-04-11T03:12:55Z</time></trkpt><trkpt lat="43.267523105293364" lon="11.538491210199194"><ele>233.00000000000003</ele><time>2026-04-11T03:12:56Z</time></trkpt><trkpt lat="43.26760213546203" lon="11.53843280653136"><ele>233.0</ele><time>2026-04-11T03:12:57Z</time></trkpt><trkpt lat="43.267678214307" lon="11.538380194253378"><ele>233.0</ele><time>2026-04-11T03:12:58Z</time></trkpt><trkpt lat="43.26775217752828" lon="11.538326371516552"><ele>233.0</ele><time>2026-04-11T03:12:59Z</time></trkpt><trkpt lat="43.267827943417494" lon="11.538266822129296"><ele>233.00000000000003</ele><time>2026-04-11T03:13:00Z</time></trkpt><trkpt lat="43.26790726454265" lon="11.53820553142153"><ele>233.0</ele><time>2026-04-11T03:13:01Z</time></trkpt><trkpt lat="43.26799050296916" lon="11.538145162416415"><ele>233.0</ele><time>2026-04-11T03:13:02Z</time></trkpt><trkpt lat="43.268076403810994" lon="11.538083062589324"><ele>233.0</ele><time>2026-04-11T03:13:03Z</time></trkpt><trkpt lat="43.268167655557725" lon="11.538021832906576"><ele>233.0</ele><time>2026-04-11T03:13:04Z</time></trkpt><trkpt lat="43.26825857023955" lon="11.537960459534585"><ele>233.0</ele><time>2026-04-11T03:13:05Z</time></trkpt><trkpt lat="43.26834098349239" lon="11.537903837306724"><ele>233.0</ele><time>2026-04-11T03:13:06Z</time></trkpt><trkpt lat="43.26842171812045" lon="11.537850374606688"><ele>229.8</ele><time>2026-04-11T03:13:07Z</time></trkpt><trkpt lat="43.26849809523349" lon="11.537794629772636"><ele>226.60000000000002</ele><time>2026-04-11T03:13:08Z</time></trkpt><trkpt lat="43.26858016257223" lon="11.537737925700949"><ele>223.39999999999998</ele><time>2026-04-11T03:13:09Z</time></trkpt><trkpt lat="43.268663646328406" lon="11.537694576106647"><ele>220.2</ele><time>2026-04-11T03:13:10Z</time></trkpt><trkpt lat="43.26875401341921" lon="11.537678405233168"><ele>217.0</ele><time>2026-04-11T03:13:11Z</time></trkpt><trkpt lat="43.268854450588606" lon="11.537691572220686"><ele>214.2</ele><time>2026-04-11T03:13:12Z</time></trkpt><trkpt lat="43.26895148588087" lon="11.537731672393452"><ele>211.39999999999998</ele><time>2026-04-11T03:13:13Z</time></trkpt><trkpt lat="43.26903636786953" lon="11.537769573102423"><ele>208.60000000000002</ele><time>2026-04-11T03:13:14Z</time></trkpt><trkpt lat="43.26917346787093" lon="11.53782326671398"><ele>205.8</ele><time>2026-04-11T03:13:16Z</time></trkpt><trkpt lat="43.26925035501661" lon="11.537838782177698"><ele>203.0</ele><time>2026-04-11T03:13:17Z</time></trkpt><trkpt lat="43.26933689593229" lon="11.537839231885677"><ele>203.00000000000003</ele><time>2026-04-11T03:13:18Z</time></trkpt><trkpt lat="43.269422941934636" lon="11.537819422173364"><ele>203.0</ele><time>2026-04-11T03:13:19Z</time></trkpt><trkpt lat="43.2695033419726" lon="11.537798801225275"><ele>203.0</ele><time>2026-04-11T03:13:20Z</time></trkpt><trkpt lat="43.26958401619114" lon="11.537771848102437"><ele>203.0</ele><time>2026-04-11T03:13:21Z</time></trkpt><trkpt lat="43.2696672631027" lon="11.537730177248676"><ele>203.00000000000003</ele><time>2026-04-11T03:13:22Z</time></trkpt><trkpt lat="43.26975000991696" lon="11.537680705070139"><ele>203.0</ele><time>2026-04-11T03:13:23Z</time></trkpt><trkpt lat="43.26983320990016" lon="11.537627481199294"><ele>200.4</ele><time>2026-04-11T03:13:24Z</time></trkpt><trkpt lat="43.26991386706451" lon="11.537590794044087"><ele>197.8</ele><time>2026-04-11T03:13:25Z</time></trkpt><trkpt lat="43.270004336455735" lon="11.537553849088834"><ele>195.2</ele><time>2026-04-11T03:13:26Z</time></trkpt><trkpt lat="43.270103950448636" lon="11.537545409513617"><ele>192.6</ele><time>2026-04-11T03:13:27Z</time></trkpt><trkpt lat="43.27020271014613" lon="11.537560741870276"><ele>190.0</ele><time>2026-04-11T03:13:28Z</time></trkpt><trkpt lat="43.27029922001398" lon="11.537608730141859"><ele>190.0</ele><time>2026-04-11T03:13:29Z</time></trkpt><trkpt lat="43.27039259775756" lon="11.537657095932108"><ele>190.0</ele><time>2026-04-11T03:13:30Z</time></trkpt><trkpt lat="43.27048927624996" lon="11.537698266302375"><ele>190.0</ele><time>2026-04-11T03:13:31Z</time></trkpt><trkpt lat="43.27057919048442" lon="11.53771812553824"><ele>190.0</ele><time>2026-04-11T03:13:32Z</time></trkpt><trkpt lat="43.27065885923766" lon="11.537734595881183"><ele>190.0</ele><time>2026-04-11T03:13:33Z</time></trkpt><trkpt lat="43.27074522848249" lon="11.53776628701554"><ele>188.75</ele><time>2026-04-11T03:13:34Z</time></trkpt><trkpt lat="43.27083206781685" lon="11.537801759099342"><ele>187.5</ele><time>2026-04-11T03:13:35Z</time></trkpt><trkpt lat="43.27101169467203" lon="11.537967201695274"><ele>186.25</ele><time>2026-04-11T03:13:37Z</time></trkpt><trkpt lat="43.271083726848545" lon="11.538052723579993"><ele>185.0</ele><time>2026-04-11T03:13:38Z</time></trkpt><trkpt lat="43.27114639960837" lon="11.538147405673996"><ele>184.66666666666666</ele><time>2026-04-11T03:13:39Z</time></trkpt><trkpt lat="43.27120416128772" lon="11.538249184541067"><ele>184.33333333333331</ele><time>2026-04-11T03:13:40Z</time></trkpt><trkpt lat="43.27125511296193" lon="11.538350126073093"><ele>184.0</ele><time>2026-04-11T03:13:41Z</time></trkpt><trkpt lat="43.27129873481258" lon="11.538455364622228"><ele>183.66666666666666</ele><time>2026-04-11T03:13:42Z</time></trkpt><trkpt lat="43.27133055710947" lon="11.538548807605054"><ele>183.33333333333334</ele><time>2026-04-11T03:13:43Z</time></trkpt><trkpt lat="43.27136625943552" lon="11.538636356650843"><ele>183.0</ele><time>2026-04-11T03:13:44Z</time></trkpt><trkpt lat="43.27140160177323" lon="11.538714023390098"><ele>183.8</ele><time>2026-04-11T03:13:45Z</time></trkpt><trkpt lat="43.27146313355215" lon="11.538854889384963"><ele>184.60000000000002</ele><time>2026-04-11T03:13:47Z</time></trkpt><trkpt lat="43.271517480689205" lon="11.538970692532768"><ele>185.39999999999998</ele><time>2026-04-11T03:13:49Z</time></trkpt><trkpt lat="43.27156316842558" lon="11.5390785404256"><ele>186.2</ele><time>2026-04-11T03:13:51Z</time></trkpt><trkpt lat="43.27159812964277" lon="11.539180244414831"><ele>187.0</ele><time>2026-04-11T03:13:53Z</time></trkpt><trkpt lat="43.27163947012495" lon="11.539267626909078"><ele>187.0</ele><time>2026-04-11T03:13:55Z</time></trkpt><trkpt lat="43.271671768546206" lon="11.539361666182716"><ele>187.0</ele><time>2026-04-11T03:13:57Z</time></trkpt><trkpt lat="43.27173228449062" lon="11.539548772156719"><ele>187.0</ele><time>2026-04-11T03:14:01Z</time></trkpt><trkpt lat="43.271771070106084" lon="11.539634277884716"><ele>187.0</ele><time>2026-04-11T03:14:03Z</time></trkpt><trkpt lat="43.27181218299297" lon="11.539725304549034"><ele>187.0</ele><time>2026-04-11T03:14:05Z</time></trkpt><trkpt lat="43.27185121642559" lon="11.539813356114085"><ele>187.33333333333334</ele><time>2026-04-11T03:14:07Z</time></trkpt><trkpt lat="43.27188949857105" lon="11.539906263192375"><ele>187.66666666666669</ele><time>2026-04-11T03:14:09Z</time></trkpt><trkpt lat="43.271921789724026" lon="11.539999624880696"><ele>188.0</ele><time>2026-04-11T03:14:11Z</time></trkpt><trkpt lat="43.27196472860256" lon="11.540096236222665"><ele>188.33333333333334</ele><time>2026-04-11T03:14:13Z</time></trkpt><trkpt lat="43.2720042103642" lon="11.54019043066407"><ele>188.66666666666666</ele><time>2026-04-11T03:14:15Z</time></trkpt><trkpt lat="43.272039143951595" lon="11.540282825466804"><ele>189.0</ele><time>2026-04-11T03:14:17Z</time></trkpt><trkpt lat="43.27207490000814" lon="11.540371810558094"><ele>189.39999999999998</ele><time>2026-04-11T03:14:19Z</time></trkpt><trkpt lat="43.27214601439175" lon="11.540551067985206"><ele>189.8</ele><time>2026-04-11T03:14:23Z</time></trkpt><trkpt lat="43.2721804845042" lon="11.540650346297184"><ele>190.2</ele><time>2026-04-11T03:14:25Z</time></trkpt><trkpt lat="43.27221669009787" lon="11.54074098469595"><ele>190.60000000000002</ele><time>2026-04-11T03:14:27Z</time></trkpt><trkpt lat="43.27225533494097" lon="11.540833881006009"><ele>191.0</ele><time>2026-04-11T03:14:29Z</time></trkpt><trkpt lat="43.2722849164503" lon="11.540924194685635"><ele>192.0</ele><time>2026-04-11T03:14:31Z</time></trkpt><trkpt lat="43.27231629589883" lon="11.541015249691636"><ele>193.0</ele><time>2026-04-11T03:14:33Z</time></trkpt><trkpt lat="43.272347987716834" lon="11.541103100562"><ele>194.0</ele><time>2026-04-11T03:14:35Z</time></trkpt><trkpt lat="43.27238373232636" lon="11.541222344126485"><ele>195.0</ele><time>2026-04-11T03:14:38Z</time></trkpt><trkpt lat="43.27240756037049" lon="11.541323126251742"><ele>196.0</ele><time>2026-04-11T03:14:41Z</time></trkpt><trkpt lat="43.27244338775492" lon="11.541513083799362"><ele>197.4</ele><time>2026-04-11T03:14:48Z</time></trkpt><trkpt lat="43.27246009671114" lon="11.541612449458503"><ele>198.8</ele><time>2026-04-11T03:14:52Z</time></trkpt><trkpt lat="43.27247531260968" lon="11.541710523117413"><ele>200.20000000000002</ele><time>2026-04-11T03:14:56Z</time></trkpt><trkpt lat="43.2724836610807" lon="11.541813752516278"><ele>201.60000000000002</ele><time>2026-04-11T03:15:00Z</time></trkpt><trkpt lat="43.27249440051921" lon="11.541919739189602"><ele>203.0</ele><time>2026-04-11T03:15:04Z</time></trkpt><trkpt lat="43.2725121099344" lon="11.542124545556751"><ele>204.33333333333334</ele><time>2026-04-11T03:15:12Z</time></trkpt><trkpt lat="43.27252045571747" lon="11.542225925733574"><ele>205.66666666666669</ele><time>2026-04-11T03:15:16Z</time></trkpt><trkpt lat="43.272532677965174" lon="11.54233060510039"><ele>207.0</ele><time>2026-04-11T03:15:20Z</time></trkpt><trkpt lat="43.27254981047392" lon="11.542427315380664"><ele>208.33333333333331</ele><time>2026-04-11T03:15:24Z</time></trkpt><trkpt lat="43.272565002050506" lon="11.542523637453687"><ele>209.66666666666666</ele><time>2026-04-11T03:15:28Z</time></trkpt><trkpt lat="43.27260454931956" lon="11.542709525075022"><ele>211.0</ele><time>2026-04-11T03:15:36Z</time></trkpt><trkpt lat="43.27263632023945" lon="11.542810181600728"><ele>211.0</ele><time>2026-04-11T03:15:41Z</time></trkpt><trkpt lat="43.272694173867706" lon="11.54289655439194"><ele>211.0</ele><time>2026-04-11T03:15:46Z</time></trkpt><trkpt lat="43.27275980120276" lon="11.542943955103262"><ele>211.0</ele><time>2026-04-11T03:15:50Z</time></trkpt><trkpt lat="43.27290742274384" lon="11.542909831929567"><ele>211.0</ele><time>2026-04-11T03:15:58Z</time></trkpt><trkpt lat="43.272974296781314" lon="11.542880172762757"><ele>211.0</ele><time>2026-04-11T03:16:02Z</time></trkpt><trkpt lat="43.273049470250314" lon="11.542874923647476"><ele>215.20000000000002</ele><time>2026-04-11T03:16:06Z</time></trkpt><trkpt lat="43.273133449589515" lon="11.542896475753354"><ele>219.4</ele><time>2026-04-11T03:16:11Z</time></trkpt><trkpt lat="43.27326970503113" lon="11.542978274950633"><ele>223.6</ele><time>2026-04-11T03:16:20Z</time></trkpt><trkpt lat="43.2733338535381" lon="11.543026879221776"><ele>227.8</ele><time>2026-04-11T03:16:24Z</time></trkpt><trkpt lat="43.273390468727456" lon="11.543096760149105"><ele>232.0</ele><time>2026-04-11T03:16:28Z</time></trkpt><trkpt lat="43.27345765653598" lon="11.543150873527578"><ele>231.99999999999997</ele><time>2026-04-11T03:16:32Z</time></trkpt><trkpt lat="43.27356559151317" lon="11.543290294290365"><ele>232.0</ele><time>2026-04-11T03:16:40Z</time></trkpt><trkpt lat="43.27360715155251" lon="11.543367208657092"><ele>232.0</ele><time>2026-04-11T03:16:44Z</time></trkpt><trkpt lat="43.27363056894367" lon="11.543472820283801"><ele>232.0</ele><time>2026-04-11T03:16:48Z</time></trkpt><trkpt lat="43.273634096508935" lon="11.543572716832953"><ele>231.99999999999997</ele><time>2026-04-11T03:16:52Z</time></trkpt><trkpt lat="43.27362145453821" lon="11.543676971625622"><ele>232.0</ele><time>2026-04-11T03:16:56Z</time></trkpt><trkpt lat="43.27353235117037" lon="11.543861579419952"><ele>233.33333333333331</ele><time>2026-04-11T03:17:03Z</time></trkpt><trkpt lat="43.27349115615055" lon="11.543939092152941"><ele>234.66666666666666</ele><time>2026-04-11T03:17:07Z</time></trkpt><trkpt lat="43.27343806772027" lon="11.544016979081656"><ele>236.0</ele><time>2026-04-11T03:17:12Z</time></trkpt><trkpt lat="43.273387170421024" lon="11.54408267501212"><ele>237.33333333333331</ele><time>2026-04-11T03:17:16Z</time></trkpt><trkpt lat="43.273337377796" lon="11.544150163019005"><ele>238.66666666666666</ele><time>2026-04-11T03:17:20Z</time></trkpt><trkpt lat="43.273250141510864" lon="11.544308118663759"><ele>240.0</ele><time>2026-04-11T03:17:27Z</time></trkpt><trkpt lat="43.273214696210715" lon="11.544383536942084"><ele>240.0</ele><time>2026-04-11T03:17:30Z</time></trkpt><trkpt lat="43.27319732130655" lon="11.544466803156844"><ele>240.0</ele><time>2026-04-11T03:17:33Z</time></trkpt><trkpt lat="43.27317869542009" lon="11.54455434256874"><ele>240.0</ele><time>2026-04-11T03:17:36Z</time></trkpt><trkpt lat="43.27317179331396" lon="11.544666989692598"><ele>240.0</ele><time>2026-04-11T03:17:40Z</time></trkpt><trkpt lat="43.27316951165638" lon="11.54475834993418"><ele>240.0</ele><time>2026-04-11T03:17:43Z</time></trkpt><trkpt lat="43.27316268070327" lon="11.544973317335023"><ele>240.0</ele><time>2026-04-11T03:17:49Z</time></trkpt><trkpt lat="43.27316277235118" lon="11.545087635291011"><ele>241.0</ele><time>2026-04-11T03:17:52Z</time></trkpt><trkpt lat="43.273162814537216" lon="11.545199690582598"><ele>242.0</ele><time>2026-04-11T03:17:55Z</time></trkpt><trkpt lat="43.27315392853831" lon="11.54530345774636"><ele>243.0</ele><time>2026-04-11T03:17:58Z</time></trkpt><trkpt lat="43.27315730436577" lon="11.545420857996977"><ele>244.0</ele><time>2026-04-11T03:18:01Z</time></trkpt><trkpt lat="43.273155586629684" lon="11.545542256003413"><ele>245.0</ele><time>2026-04-11T03:18:04Z</time></trkpt><trkpt lat="43.27314550268912" lon="11.545726734722129"><ele>246.16666666666669</ele><time>2026-04-11T03:18:08Z</time></trkpt><trkpt lat="43.27315914040227" lon="11.545814011654459"><ele>247.33333333333334</ele><time>2026-04-11T03:18:10Z</time></trkpt><trkpt lat="43.27317210363268" lon="11.545898941300196"><ele>248.5</ele><time>2026-04-11T03:18:12Z</time></trkpt><trkpt lat="43.27319639344676" lon="11.546018034136122"><ele>249.66666666666669</ele><time>2026-04-11T03:18:15Z</time></trkpt><trkpt lat="43.27322078925629" lon="11.546142023469594"><ele>250.83333333333334</ele><time>2026-04-11T03:18:18Z</time></trkpt><trkpt lat="43.27325177471266" lon="11.546256036058242"><ele>252.0</ele><time>2026-04-11T03:18:21Z</time></trkpt><trkpt lat="43.27329229414421" lon="11.546348904234117"><ele>253.5</ele><time>2026-04-11T03:18:24Z</time></trkpt><trkpt lat="43.27332066221153" lon="11.54644443555753"><ele>255.0</ele><time>2026-04-11T03:18:27Z</time></trkpt><trkpt lat="43.27338233585604" lon="11.546630290393013"><ele>256.5</ele><time>2026-04-11T03:18:33Z</time></trkpt><trkpt lat="43.27340646139144" lon="11.546742112955846"><ele>258.0</ele><time>2026-04-11T03:18:37Z</time></trkpt><trkpt lat="43.273456404724165" lon="11.546803929563845"><ele>259.5</ele><time>2026-04-11T03:18:40Z</time></trkpt><trkpt lat="43.273497302127986" lon="11.546870514564956"><ele>261.0</ele><time>2026-04-11T03:18:43Z</time></trkpt><trkpt lat="43.27355028755824" lon="11.546922387184281"><ele>261.0</ele><time>2026-04-11T03:18:45Z</time></trkpt><trkpt lat="43.27360280466388" lon="11.546984485841756"><ele>261.0</ele><time>2026-04-11T03:18:48Z</time></trkpt><trkpt lat="43.27374889414476" lon="11.547065018124576"><ele>261.0</ele><time>2026-04-11T03:18:54Z</time></trkpt><trkpt lat="43.27381675193081" lon="11.547090881543237"><ele>261.0</ele><time>2026-04-11T03:18:57Z</time></trkpt><trkpt lat="43.273896083259785" lon="11.547109590878755"><ele>261.0</ele><time>2026-04-11T03:19:01Z</time></trkpt><trkpt lat="43.273976931555325" lon="11.547100080596799"><ele>264.0</ele><time>2026-04-11T03:19:05Z</time></trkpt><trkpt lat="43.27405645539755" lon="11.547096948560347"><ele>267.0</ele><time>2026-04-11T03:19:09Z</time></trkpt><trkpt lat="43.27418333313055" lon="11.547094248424418"><ele>270.0</ele><time>2026-04-11T03:19:15Z</time></trkpt><trkpt lat="43.27426520228652" lon="11.54709850070837"><ele>273.0</ele><time>2026-04-11T03:19:19Z</time></trkpt><trkpt lat="43.27434283644135" lon="11.547081606817732"><ele>276.0</ele><time>2026-04-11T03:19:23Z</time></trkpt><trkpt lat="43.27442328106267" lon="11.547072008141146"><ele>279.0</ele><time>2026-04-11T03:19:27Z</time></trkpt><trkpt lat="43.274500695992515" lon="11.547061507064257"><ele>279.0</ele><time>2026-04-11T03:19:31Z</time></trkpt><trkpt lat="43.27464147226899" lon="11.54709494962044"><ele>279.0</ele><time>2026-04-11T03:19:39Z</time></trkpt><trkpt lat="43.274704730163414" lon="11.547139023054665"><ele>279.0</ele><time>2026-04-11T03:19:43Z</time></trkpt><trkpt lat="43.2747627420828" lon="11.547196724788684"><ele>279.0</ele><time>2026-04-11T03:19:47Z</time></trkpt><trkpt lat="43.274821160066466" lon="11.547246208828042"><ele>279.0</ele><time>2026-04-11T03:19:51Z</time></trkpt><trkpt lat="43.27489272076889" lon="11.547295762795928"><ele>279.0</ele><time>2026-04-11T03:19:56Z</time></trkpt><trkpt lat="43.275011677986974" lon="11.547396348239742"><ele>280.1666666666667</ele><time>2026-04-11T03:20:05Z</time></trkpt><trkpt lat="43.2750801986354" lon="11.547445592176864"><ele>281.3333333333333</ele><time>2026-04-11T03:20:10Z</time></trkpt><trkpt lat="43.275140872811626" lon="11.5474991435052"><ele>282.5</ele><time>2026-04-11T03:20:15Z</time></trkpt><trkpt lat="43.27520121656392" lon="11.54753814744405"><ele>283.66666666666663</ele><time>2026-04-11T03:20:19Z</time></trkpt><trkpt lat="43.27532342798337" lon="11.547644230267279"><ele>284.8333333333333</ele><time>2026-04-11T03:20:28Z</time></trkpt><trkpt lat="43.27537301530059" lon="11.547703293940566"><ele>286.0</ele><time>2026-04-11T03:20:32Z</time></trkpt><trkpt lat="43.275440843839526" lon="11.547760053874297"><ele>286.0</ele><time>2026-04-11T03:20:36Z</time></trkpt><trkpt lat="43.275505240699545" lon="11.547824630187371"><ele>286.0</ele><time>2026-04-11T03:20:40Z</time></trkpt><trkpt lat="43.275644620076676" lon="11.547922905411736"><ele>286.0</ele><time>2026-04-11T03:20:47Z</time></trkpt><trkpt lat="43.27571228476885" lon="11.547963604145059"><ele>286.0</ele><time>2026-04-11T03:20:50Z</time></trkpt><trkpt lat="43.27578026284229" lon="11.548003978231506"><ele>286.0</ele><time>2026-04-11T03:20:53Z</time></trkpt><trkpt lat="43.2758585079686" lon="11.54804072202442"><ele>288.5</ele><time>2026-04-11T03:20:56Z</time></trkpt><trkpt lat="43.27593824011457" lon="11.548073483395974"><ele>291.0</ele><time>2026-04-11T03:20:59Z</time></trkpt><trkpt lat="43.275999203853345" lon="11.548101177155392"><ele>293.5</ele><time>2026-04-11T03:21:01Z</time></trkpt><trkpt lat="43.27612230154237" lon="11.548151621770332"><ele>296.0</ele><time>2026-04-11T03:21:05Z</time></trkpt><trkpt lat="43.276185239771785" lon="11.548175106653563"><ele>298.5</ele><time>2026-04-11T03:21:07Z</time></trkpt><trkpt lat="43.2762686205986" lon="11.548197285441278"><ele>301.0</ele><time>2026-04-11T03:21:10Z</time></trkpt><trkpt lat="43.276354857946195" lon="11.548236309233644"><ele>301.0</ele><time>2026-04-11T03:21:13Z</time></trkpt><trkpt lat="43.2764170246857" lon="11.5482558283339"><ele>301.0</ele><time>2026-04-11T03:21:15Z</time></trkpt><trkpt lat="43.2764877375423" lon="11.548283971937533"><ele>301.0</ele><time>2026-04-11T03:21:17Z</time></trkpt><trkpt lat="43.27657806808524" lon="11.548330697854478"><ele>301.0</ele><time>2026-04-11T03:21:19Z</time></trkpt><trkpt lat="43.276678294892754" lon="11.548391364059755"><ele>301.0</ele><time>2026-04-11T03:21:21Z</time></trkpt><trkpt lat="43.276784323959326" lon="11.548481187740345"><ele>301.40000000000003</ele><time>2026-04-11T03:21:23Z</time></trkpt><trkpt lat="43.276898297698686" lon="11.548595483763577"><ele>301.8</ele><time>2026-04-11T03:21:25Z</time></trkpt><trkpt lat="43.27696209789818" lon="11.548656479713237"><ele>302.20000000000005</ele><time>2026-04-11T03:21:26Z</time></trkpt><trkpt lat="43.27701989313207" lon="11.548717751746489"><ele>302.6</ele><time>2026-04-11T03:21:27Z</time></trkpt><trkpt lat="43.277082198521285" lon="11.548788298966421"><ele>303.0</ele><time>2026-04-11T03:21:28Z</time></trkpt><trkpt lat="43.277149108783945" lon="11.548852192464498"><ele>303.0</ele><time>2026-04-11T03:21:29Z</time></trkpt><trkpt lat="43.27721676680353" lon="11.548903396058044"><ele>303.0</ele><time>2026-04-11T03:21:30Z</time></trkpt><trkpt lat="43.27728500983708" lon="11.548958387636667"><ele>303.0</ele><time>2026-04-11T03:21:31Z</time></trkpt><trkpt lat="43.27735429492906" lon="11.54901378506917"><ele>303.0</ele><time>2026-04-11T03:21:32Z</time></trkpt><trkpt lat="43.27742645737441" lon="11.549064018129053"><ele>303.0</ele><time>2026-04-11T03:21:33Z</time></trkpt><trkpt lat="43.27750163124348" lon="11.549123496021641"><ele>303.0</ele><time>2026-04-11T03:21:34Z</time></trkpt><trkpt lat="43.277573360870605" lon="11.549185369749111"><ele>300.6666666666667</ele><time>2026-04-11T03:21:35Z</time></trkpt><trkpt lat="43.27764032473173" lon="11.549248599167777"><ele>298.3333333333333</ele><time>2026-04-11T03:21:36Z</time></trkpt><trkpt lat="43.277711481549744" lon="11.549305621674904"><ele>296.0</ele><time>2026-04-11T03:21:37Z</time></trkpt><trkpt lat="43.27778504679196" lon="11.549357163967144"><ele>293.66666666666663</ele><time>2026-04-11T03:21:38Z</time></trkpt><trkpt lat="43.277863068118805" lon="11.54939892874907"><ele>291.3333333333333</ele><time>2026-04-11T03:21:39Z</time></trkpt><trkpt lat="43.277951893790174" lon="11.549423792331229"><ele>289.0</ele><time>2026-04-11T03:21:40Z</time></trkpt><trkpt lat="43.27804505809944" lon="11.549426712171455"><ele>285.25</ele><time>2026-04-11T03:21:41Z</time></trkpt><trkpt lat="43.27813706536749" lon="11.549428919135183"><ele>281.5</ele><time>2026-04-11T03:21:42Z</time></trkpt><trkpt lat="43.27822922637948" lon="11.54942817102351"><ele>277.75</ele><time>2026-04-11T03:21:43Z</time></trkpt><trkpt lat="43.27832440735282" lon="11.549426610681028"><ele>274.0</ele><time>2026-04-11T03:21:44Z</time></trkpt><trkpt lat="43.27852176408372" lon="11.549427650565551"><ele>274.0</ele><time>2026-04-11T03:21:46Z</time></trkpt><trkpt lat="43.27862626841364" lon="11.549433713102685"><ele>274.0</ele><time>2026-04-11T03:21:47Z</time></trkpt><trkpt lat="43.27872965817714" lon="11.549439845270458"><ele>274.0</ele><time>2026-04-11T03:21:48Z</time></trkpt><trkpt lat="43.278826351991015" lon="11.549458902412528"><ele>274.0</ele><time>2026-04-11T03:21:49Z</time></trkpt><trkpt lat="43.278917915763785" lon="11.549496046409521"><ele>274.0</ele><time>2026-04-11T03:21:50Z</time></trkpt><trkpt lat="43.27900649025263" lon="11.549548744985222"><ele>273.59999999999997</ele><time>2026-04-11T03:21:51Z</time></trkpt><trkpt lat="43.2790935508963" lon="11.549610757946038"><ele>273.2</ele><time>2026-04-11T03:21:52Z</time></trkpt><trkpt lat="43.27917744041853" lon="11.549672171544037"><ele>272.79999999999995</ele><time>2026-04-11T03:21:53Z</time></trkpt><trkpt lat="43.27926971189403" lon="11.549731489594562"><ele>272.4</ele><time>2026-04-11T03:21:54Z</time></trkpt><trkpt lat="43.27936710711451" lon="11.54980397495739"><ele>272.0</ele><time>2026-04-11T03:21:55Z</time></trkpt><trkpt lat="43.279466991508485" lon="11.54985830363217"><ele>272.0</ele><time>2026-04-11T03:21:56Z</time></trkpt><trkpt lat="43.27956796885432" lon="11.549899394036563"><ele>272.0</ele><time>2026-04-11T03:21:57Z</time></trkpt><trkpt lat="43.27967078581902" lon="11.549921879907968"><ele>272.0</ele><time>2026-04-11T03:21:58Z</time></trkpt><trkpt lat="43.27976817192382" lon="11.549927703789601"><ele>272.0</ele><time>2026-04-11T03:21:59Z</time></trkpt><trkpt lat="43.27985182124919" lon="11.549914833503715"><ele>272.0</ele><time>2026-04-11T03:22:00Z</time></trkpt><trkpt lat="43.27993135190084" lon="11.549897017762985"><ele>271.4</ele><time>2026-04-11T03:22:01Z</time></trkpt><trkpt lat="43.2800132576017" lon="11.549877619957291"><ele>270.79999999999995</ele><time>2026-04-11T03:22:02Z</time></trkpt><trkpt lat="43.280097861858124" lon="11.549849240572694"><ele>270.2</ele><time>2026-04-11T03:22:03Z</time></trkpt><trkpt lat="43.280180243189406" lon="11.549802704651166"><ele>269.59999999999997</ele><time>2026-04-11T03:22:04Z</time></trkpt><trkpt lat="43.280257399620716" lon="11.549755976099238"><ele>269.0</ele><time>2026-04-11T03:22:05Z</time></trkpt><trkpt lat="43.280387934144194" lon="11.549670324420328"><ele>269.0</ele><time>2026-04-11T03:22:07Z</time></trkpt><trkpt lat="43.280488515296476" lon="11.549602092055416"><ele>269.0</ele><time>2026-04-11T03:22:09Z</time></trkpt><trkpt lat="43.280566459961456" lon="11.5495427647821"><ele>269.0</ele><time>2026-04-11T03:22:11Z</time></trkpt><trkpt lat="43.28061992691958" lon="11.549488551336522"><ele>269.0</ele><time>2026-04-11T03:22:13Z</time></trkpt><trkpt lat="43.28066833627107" lon="11.549431125930468"><ele>269.0</ele><time>2026-04-11T03:22:15Z</time></trkpt><trkpt lat="43.28072406704243" lon="11.5493454675673"><ele>269.0</ele><time>2026-04-11T03:22:18Z</time></trkpt><trkpt lat="43.280776705410005" lon="11.549265500558105"><ele>271.0</ele><time>2026-04-11T03:22:22Z</time></trkpt><trkpt lat="43.28081113371412" lon="11.54918692663966"><ele>273.0</ele><time>2026-04-11T03:22:26Z</time></trkpt><trkpt lat="43.28089778728078" lon="11.549037758653238"><ele>275.0</ele><time>2026-04-11T03:22:34Z</time></trkpt><trkpt lat="43.28093400304126" lon="11.548964535923316"><ele>277.0</ele><time>2026-04-11T03:22:38Z</time></trkpt><trkpt lat="43.28097910116577" lon="11.54890255691861"><ele>279.0</ele><time>2026-04-11T03:22:42Z</time></trkpt><trkpt lat="43.28102807796325" lon="11.548835266721452"><ele>281.0</ele><time>2026-04-11T03:22:46Z</time></trkpt><trkpt lat="43.28108170294105" lon="11.548784247446592"><ele>280.83333333333337</ele><time>2026-04-11T03:22:50Z</time></trkpt><trkpt lat="43.28118130835463" lon="11.548645884084134"><ele>280.6666666666667</ele><time>2026-04-11T03:22:58Z</time></trkpt><trkpt lat="43.28124080909495" lon="11.548586127930507"><ele>280.5</ele><time>2026-04-11T03:23:02Z</time></trkpt><trkpt lat="43.28129329694793" lon="11.54852709207548"><ele>280.3333333333333</ele><time>2026-04-11T03:23:06Z</time></trkpt><trkpt lat="43.28135558577491" lon="11.548475851740456"><ele>280.16666666666663</ele><time>2026-04-11T03:23:10Z</time></trkpt><trkpt lat="43.28141222758098" lon="11.548405561645815"><ele>280.0</ele><time>2026-04-11T03:23:14Z</time></trkpt><trkpt lat="43.28153896274421" lon="11.548299429736147"><ele>284.2</ele><time>2026-04-11T03:23:22Z</time></trkpt><trkpt lat="43.28159975887112" lon="11.54824628946549"><ele>288.4</ele><time>2026-04-11T03:23:26Z</time></trkpt><trkpt lat="43.2816606789533" lon="11.548193011873405"><ele>292.6</ele><time>2026-04-11T03:23:30Z</time></trkpt><trkpt lat="43.281724774747374" lon="11.548138643904217"><ele>296.8</ele><time>2026-04-11T03:23:34Z</time></trkpt><trkpt lat="43.28180966356028" lon="11.548081398363967"><ele>301.0</ele><time>2026-04-11T03:23:39Z</time></trkpt><trkpt lat="43.28202411626571" lon="11.548105153899785"><ele>301.0</ele><time>2026-04-11T03:23:49Z</time></trkpt><trkpt lat="43.28211086839004" lon="11.5481203938364"><ele>301.0</ele><time>2026-04-11T03:23:52Z</time></trkpt><trkpt lat="43.28220648014571" lon="11.548092973301502"><ele>301.0</ele><time>2026-04-11T03:23:54Z</time></trkpt><trkpt lat="43.28229842648627" lon="11.54811044236149"><ele>301.0</ele><time>2026-04-11T03:23:56Z</time></trkpt><trkpt lat="43.28241717706601" lon="11.548124913107923"><ele>301.0</ele><time>2026-04-11T03:23:58Z</time></trkpt><trkpt lat="43.28254407955596" lon="11.548148560267315"><ele>302.16666666666663</ele><time>2026-04-11T03:24:00Z</time></trkpt><trkpt lat="43.282677061821985" lon="11.548178099252137"><ele>303.3333333333333</ele><time>2026-04-11T03:24:02Z</time></trkpt><trkpt lat="43.282745281586266" lon="11.548200470748581"><ele>304.5</ele><time>2026-04-11T03:24:03Z</time></trkpt><trkpt lat="43.282816287253766" lon="11.548235082980325"><ele>305.6666666666667</ele><time>2026-04-11T03:24:04Z</time></trkpt><trkpt lat="43.28288520662034" lon="11.548274236891453"><ele>306.83333333333337</ele><time>2026-04-11T03:24:05Z</time></trkpt><trkpt lat="43.2829515607005" lon="11.548317503990356"><ele>308.0</ele><time>2026-04-11T03:24:06Z</time></trkpt><trkpt lat="43.28301877429643" lon="11.548364292155366"><ele>308.0</ele><time>2026-04-11T03:24:07Z</time></trkpt><trkpt lat="43.2830764320592" lon="11.548437479536721"><ele>308.0</ele><time>2026-04-11T03:24:08Z</time></trkpt><trkpt lat="43.28313295248964" lon="11.548487825422367"><ele>308.0</ele><time>2026-04-11T03:24:09Z</time></trkpt><trkpt lat="43.28319917694735" lon="11.54853629307639"><ele>308.0</ele><time>2026-04-11T03:24:10Z</time></trkpt><trkpt lat="43.28326195271039" lon="11.548585114013653"><ele>308.0</ele><time>2026-04-11T03:24:11Z</time></trkpt><trkpt lat="43.28332492308637" lon="11.548623716772116"><ele>308.0</ele><time>2026-04-11T03:24:12Z</time></trkpt><trkpt lat="43.283390327012945" lon="11.548673108879159"><ele>308.0</ele><time>2026-04-11T03:24:13Z</time></trkpt><trkpt lat="43.283457417518015" lon="11.548710961949403"><ele>309.33333333333337</ele><time>2026-04-11T03:24:14Z</time></trkpt><trkpt lat="43.28352258341042" lon="11.54873500360261"><ele>310.6666666666667</ele><time>2026-04-11T03:24:15Z</time></trkpt><trkpt lat="43.283594081518686" lon="11.548773539035988"><ele>312.0</ele><time>2026-04-11T03:24:16Z</time></trkpt><trkpt lat="43.28366719628853" lon="11.548786400065328"><ele>313.3333333333333</ele><time>2026-04-11T03:24:17Z</time></trkpt><trkpt lat="43.28374283355908" lon="11.548797539689518"><ele>314.66666666666663</ele><time>2026-04-11T03:24:18Z</time></trkpt><trkpt lat="43.28382247686914" lon="11.548810727733285"><ele>316.0</ele><time>2026-04-11T03:24:19Z</time></trkpt><trkpt lat="43.2838988762029" lon="11.548824678282442"><ele>312.2</ele><time>2026-04-11T03:24:20Z</time></trkpt><trkpt lat="43.283983151792704" lon="11.548838187946851"><ele>308.40000000000003</ele><time>2026-04-11T03:24:21Z</time></trkpt><trkpt lat="43.28414446924339" lon="11.54880195747426"><ele>304.6</ele><time>2026-04-11T03:24:23Z</time></trkpt><trkpt lat="43.284214012841964" lon="11.548752407095717"><ele>300.8</ele><time>2026-04-11T03:24:24Z</time></trkpt><trkpt lat="43.28427716306474" lon="11.548687647198179"><ele>297.0</ele><time>2026-04-11T03:24:25Z</time></trkpt><trkpt lat="43.28433562011741" lon="11.548617408593813"><ele>296.7142857142857</ele><time>2026-04-11T03:24:26Z</time></trkpt><trkpt lat="43.2843845284674" lon="11.54853430347023"><ele>296.42857142857144</ele><time>2026-04-11T03:24:27Z</time></trkpt><trkpt lat="43.284417007300505" lon="11.548441421020076"><ele>296.14285714285717</ele><time>2026-04-11T03:24:28Z</time></trkpt><trkpt lat="43.28444689188197" lon="11.548343893489447"><ele>295.8571428571429</ele><time>2026-04-11T03:24:29Z</time></trkpt><trkpt lat="43.28448143590145" lon="11.548265661491762"><ele>295.57142857142856</ele><time>2026-04-11T03:24:30Z</time></trkpt><trkpt lat="43.28451308815878" lon="11.548182142810944"><ele>295.28571428571433</ele><time>2026-04-11T03:24:31Z</time></trkpt><trkpt lat="43.28454441180865" lon="11.548101623676654"><ele>295.0</ele><time>2026-04-11T03:24:32Z</time></trkpt><trkpt lat="43.28456945935741" lon="11.548021697081008"><ele>295.0</ele><time>2026-04-11T03:24:33Z</time></trkpt><trkpt lat="43.284621130443995" lon="11.547877992740021"><ele>295.0</ele><time>2026-04-11T03:24:35Z</time></trkpt><trkpt lat="43.28466296849193" lon="11.547746875391233"><ele>295.0</ele><time>2026-04-11T03:24:37Z</time></trkpt><trkpt lat="43.284694553174475" lon="11.547623329909776"><ele>295.0</ele><time>2026-04-11T03:24:39Z</time></trkpt><trkpt lat="43.28471847599237" lon="11.547509542456769"><ele>295.0</ele><time>2026-04-11T03:24:41Z</time></trkpt><trkpt lat="43.284733179823284" lon="11.547408158402432"><ele>293.0</ele><time>2026-04-11T03:24:43Z</time></trkpt><trkpt lat="43.284737572789496" lon="11.547195101925949"><ele>291.0</ele><time>2026-04-11T03:24:47Z</time></trkpt><trkpt lat="43.28475844399563" lon="11.547071495205715"><ele>289.0</ele><time>2026-04-11T03:24:50Z</time></trkpt><trkpt lat="43.284774237775736" lon="11.546973741265022"><ele>287.0</ele><time>2026-04-11T03:24:52Z</time></trkpt><trkpt lat="43.28483188662106" lon="11.546877849950734"><ele>285.0</ele><time>2026-04-11T03:24:55Z</time></trkpt><trkpt lat="43.28488864310796" lon="11.546788295142518"><ele>289.1666666666667</ele><time>2026-04-11T03:24:58Z</time></trkpt><trkpt lat="43.28494153315288" lon="11.54670261262096"><ele>293.3333333333333</ele><time>2026-04-11T03:25:02Z</time></trkpt><trkpt lat="43.285004103965186" lon="11.546665716693404"><ele>297.5</ele><time>2026-04-11T03:25:04Z</time></trkpt><trkpt lat="43.28514752114731" lon="11.546570311407553"><ele>301.66666666666663</ele><time>2026-04-11T03:25:10Z</time></trkpt><trkpt lat="43.28520679645507" lon="11.54653645457863"><ele>305.8333333333333</ele><time>2026-04-11T03:25:12Z</time></trkpt><trkpt lat="43.285269742312416" lon="11.54648861256859"><ele>310.0</ele><time>2026-04-11T03:25:15Z</time></trkpt><trkpt lat="43.2853467114017" lon="11.546468817880982"><ele>310.0</ele><time>2026-04-11T03:25:18Z</time></trkpt><trkpt lat="43.28542733761239" lon="11.546437485473277"><ele>310.0</ele><time>2026-04-11T03:25:21Z</time></trkpt><trkpt lat="43.28550792952955" lon="11.546410679728352"><ele>310.0</ele><time>2026-04-11T03:25:24Z</time></trkpt><trkpt lat="43.28559539922463" lon="11.546354544137738"><ele>310.0</ele><time>2026-04-11T03:25:27Z</time></trkpt><trkpt lat="43.285752720561696" lon="11.546259626508313"><ele>310.0</ele><time>2026-04-11T03:25:32Z</time></trkpt><trkpt lat="43.28581688297831" lon="11.54618797732927"><ele>310.8</ele><time>2026-04-11T03:25:34Z</time></trkpt><trkpt lat="43.28590260305809" lon="11.546115839701018"><ele>311.6</ele><time>2026-04-11T03:25:36Z</time></trkpt><trkpt lat="43.28599717057285" lon="11.546031556617342"><ele>312.4</ele><time>2026-04-11T03:25:38Z</time></trkpt><trkpt lat="43.28610147291338" lon="11.545940478409761"><ele>313.2</ele><time>2026-04-11T03:25:40Z</time></trkpt><trkpt lat="43.28615970808111" lon="11.545902348099695"><ele>314.0</ele><time>2026-04-11T03:25:41Z</time></trkpt><trkpt lat="43.2862241278204" lon="11.545871102392594"><ele>313.99999999999994</ele><time>2026-04-11T03:25:42Z</time></trkpt><trkpt lat="43.28629243262564" lon="11.54584885449592"><ele>314.0</ele><time>2026-04-11T03:25:43Z</time></trkpt><trkpt lat="43.286364471477306" lon="11.54584329842883"><ele>314.0</ele><time>2026-04-11T03:25:44Z</time></trkpt><trkpt lat="43.28643266577681" lon="11.545864757121997"><ele>314.0</ele><time>2026-04-11T03:25:45Z</time></trkpt><trkpt lat="43.28650224652724" lon="11.545912368595053"><ele>314.0</ele><time>2026-04-11T03:25:46Z</time></trkpt><trkpt lat="43.28657220054728" lon="11.54596865032066"><ele>313.99999999999994</ele><time>2026-04-11T03:25:47Z</time></trkpt><trkpt lat="43.28663474787963" lon="11.546014885706523"><ele>314.0</ele><time>2026-04-11T03:25:48Z</time></trkpt><trkpt lat="43.28675564806452" lon="11.546114390987368"><ele>313.6666666666667</ele><time>2026-04-11T03:25:50Z</time></trkpt><trkpt lat="43.28683410369376" lon="11.546147639124367"><ele>313.33333333333337</ele><time>2026-04-11T03:25:51Z</time></trkpt><trkpt lat="43.286913516582466" lon="11.546170041316897"><ele>313.0</ele><time>2026-04-11T03:25:52Z</time></trkpt><trkpt lat="43.286995911918446" lon="11.546165722098333"><ele>312.6666666666667</ele><time>2026-04-11T03:25:53Z</time></trkpt><trkpt lat="43.28707175671802" lon="11.546135629344459"><ele>312.3333333333333</ele><time>2026-04-11T03:25:54Z</time></trkpt><trkpt lat="43.28714546225489" lon="11.546090013653709"><ele>312.0</ele><time>2026-04-11T03:25:55Z</time></trkpt><trkpt lat="43.287199941967394" lon="11.54604380880123"><ele>312.0</ele><time>2026-04-11T03:25:56Z</time></trkpt><trkpt lat="43.2872415623776" lon="11.54596771042761"><ele>312.0</ele><time>2026-04-11T03:25:57Z</time></trkpt><trkpt lat="43.28727039566173" lon="11.545860682670384"><ele>312.0</ele><time>2026-04-11T03:25:58Z</time></trkpt><trkpt lat="43.287282578181916" lon="11.545740726361574"><ele>312.0</ele><time>2026-04-11T03:25:59Z</time></trkpt><trkpt lat="43.28729899806189" lon="11.545631108462908"><ele>312.0</ele><time>2026-04-11T03:26:00Z</time></trkpt><trkpt lat="43.28731222708768" lon="11.545519052660511"><ele>312.0</ele><time>2026-04-11T03:26:01Z</time></trkpt><trkpt lat="43.28732596078885" lon="11.545405305712853"><ele>310.1666666666667</ele><time>2026-04-11T03:26:02Z</time></trkpt><trkpt lat="43.287340722187196" lon="11.545296215320409"><ele>308.3333333333333</ele><time>2026-04-11T03:26:03Z</time></trkpt><trkpt lat="43.287352150584184" lon="11.545180023208088"><ele>306.5</ele><time>2026-04-11T03:26:04Z</time></trkpt><trkpt lat="43.28735910886999" lon="11.54506598084635"><ele>304.66666666666663</ele><time>2026-04-11T03:26:05Z</time></trkpt><trkpt lat="43.2873685744455" lon="11.544951011718657"><ele>302.8333333333333</ele><time>2026-04-11T03:26:06Z</time></trkpt><trkpt lat="43.287382072949704" lon="11.544837315600498"><ele>301.0</ele><time>2026-04-11T03:26:07Z</time></trkpt><trkpt lat="43.28739779880503" lon="11.544725926759957"><ele>301.0</ele><time>2026-04-11T03:26:08Z</time></trkpt><trkpt lat="43.28741352601171" lon="11.544614244205468"><ele>301.0</ele><time>2026-04-11T03:26:09Z</time></trkpt><trkpt lat="43.287465049886876" lon="11.5444069251954"><ele>301.0</ele><time>2026-04-11T03:26:11Z</time></trkpt><trkpt lat="43.28749681252411" lon="11.544291296761736"><ele>301.0</ele><time>2026-04-11T03:26:12Z</time></trkpt><trkpt lat="43.28753304128295" lon="11.544197505082177"><ele>301.0</ele><time>2026-04-11T03:26:13Z</time></trkpt><trkpt lat="43.28757198837133" lon="11.54410520709027"><ele>300.66666666666663</ele><time>2026-04-11T03:26:14Z</time></trkpt><trkpt lat="43.28760257387934" lon="11.544007477166314"><ele>300.3333333333333</ele><time>2026-04-11T03:26:15Z</time></trkpt><trkpt lat="43.28762031958817" lon="11.543905465438892"><ele>300.0</ele><time>2026-04-11T03:26:16Z</time></trkpt><trkpt lat="43.287627975498104" lon="11.543798311270923"><ele>299.6666666666667</ele><time>2026-04-11T03:26:17Z</time></trkpt><trkpt lat="43.28763473054227" lon="11.543687525287693"><ele>299.33333333333337</ele><time>2026-04-11T03:26:18Z</time></trkpt><trkpt lat="43.28762756534202" lon="11.543577803758879"><ele>299.0</ele><time>2026-04-11T03:26:19Z</time></trkpt><trkpt lat="43.28761901271702" lon="11.543467027811555"><ele>298.1666666666667</ele><time>2026-04-11T03:26:20Z</time></trkpt><trkpt lat="43.28762056485053" lon="11.543348009250764"><ele>297.33333333333337</ele><time>2026-04-11T03:26:21Z</time></trkpt><trkpt lat="43.28762885200736" lon="11.543230026217378"><ele>296.5</ele><time>2026-04-11T03:26:22Z</time></trkpt><trkpt lat="43.287652294421314" lon="11.543116999074847"><ele>295.6666666666667</ele><time>2026-04-11T03:26:23Z</time></trkpt><trkpt lat="43.28768001701065" lon="11.543017639536384"><ele>294.8333333333333</ele><time>2026-04-11T03:26:24Z</time></trkpt><trkpt lat="43.28770688762145" lon="11.542923861737647"><ele>294.0</ele><time>2026-04-11T03:26:25Z</time></trkpt><trkpt lat="43.28773163345081" lon="11.542836601544286"><ele>291.0</ele><time>2026-04-11T03:26:26Z</time></trkpt><trkpt lat="43.28777224038033" lon="11.54268497703763"><ele>288.0</ele><time>2026-04-11T03:26:28Z</time></trkpt><trkpt lat="43.28782038839172" lon="11.542558395800516"><ele>285.0</ele><time>2026-04-11T03:26:30Z</time></trkpt><trkpt lat="43.28794261643638" lon="11.542343109814649"><ele>282.0</ele><time>2026-04-11T03:26:34Z</time></trkpt><trkpt lat="43.28799117764155" lon="11.542250510441066"><ele>282.0</ele><time>2026-04-11T03:26:36Z</time></trkpt><trkpt lat="43.28807699921079" lon="11.542124908608287"><ele>282.0</ele><time>2026-04-11T03:26:39Z</time></trkpt><trkpt lat="43.288119515548445" lon="11.54203759040878"><ele>282.0</ele><time>2026-04-11T03:26:40Z</time></trkpt><trkpt lat="43.28816719050058" lon="11.54192275705806"><ele>282.0</ele><time>2026-04-11T03:26:42Z</time></trkpt><trkpt lat="43.28821283818429" lon="11.541798277988525"><ele>282.0</ele><time>2026-04-11T03:26:44Z</time></trkpt><trkpt lat="43.288252407470324" lon="11.54167238079358"><ele>287.0</ele><time>2026-04-11T03:26:46Z</time></trkpt><trkpt lat="43.28830311205824" lon="11.541552731322012"><ele>292.0</ele><time>2026-04-11T03:26:48Z</time></trkpt><trkpt lat="43.28836695457388" lon="11.541456315512884"><ele>297.0</ele><time>2026-04-11T03:26:50Z</time></trkpt><trkpt lat="43.28844021629185" lon="11.541369614276038"><ele>302.0</ele><time>2026-04-11T03:26:52Z</time></trkpt><trkpt lat="43.28861929225606" lon="11.54124817372417"><ele>302.0</ele><time>2026-04-11T03:26:56Z</time></trkpt><trkpt lat="43.2887171299672" lon="11.541216172333401"><ele>302.0</ele><time>2026-04-11T03:26:58Z</time></trkpt><trkpt lat="43.28881301012391" lon="11.541191900303827"><ele>302.0</ele><time>2026-04-11T03:27:00Z</time></trkpt><trkpt lat="43.28890242980087" lon="11.541164005169957"><ele>302.0</ele><time>2026-04-11T03:27:02Z</time></trkpt><trkpt lat="43.288986014098214" lon="11.541134580922899"><ele>302.0</ele><time>2026-04-11T03:27:04Z</time></trkpt><trkpt lat="43.28906589094057" lon="11.541116288347142"><ele>302.0</ele><time>2026-04-11T03:27:06Z</time></trkpt><trkpt lat="43.28914328009796" lon="11.541100711351854"><ele>302.0</ele><time>2026-04-11T03:27:08Z</time></trkpt><trkpt lat="43.28922128961547" lon="11.541085843674326"><ele>302.0</ele><time>2026-04-11T03:27:10Z</time></trkpt><trkpt lat="43.289294132805445" lon="11.541081812604537"><ele>302.0</ele><time>2026-04-11T03:27:12Z</time></trkpt><trkpt lat="43.28936903108793" lon="11.54108730265743"><ele>302.0</ele><time>2026-04-11T03:27:14Z</time></trkpt><trkpt lat="43.28951071312025" lon="11.541126308437144"><ele>302.0</ele><time>2026-04-11T03:27:18Z</time></trkpt><trkpt lat="43.28958431783473" lon="11.541154707404758"><ele>302.0</ele><time>2026-04-11T03:27:20Z</time></trkpt><trkpt lat="43.28965980202065" lon="11.541182502571525"><ele>302.0</ele><time>2026-04-11T03:27:22Z</time></trkpt><trkpt lat="43.2897347760556" lon="11.541198302410013"><ele>302.0</ele><time>2026-04-11T03:27:24Z</time></trkpt><trkpt lat="43.28980990160606" lon="11.541210948247619"><ele>302.0</ele><time>2026-04-11T03:27:26Z</time></trkpt><trkpt lat="43.28988358763623" lon="11.541212533545782"><ele>302.0</ele><time>2026-04-11T03:27:28Z</time></trkpt><trkpt lat="43.28995600176303" lon="11.541202398276784"><ele>302.0</ele><time>2026-04-11T03:27:30Z</time></trkpt><trkpt lat="43.29003218691565" lon="11.541192969162093"><ele>302.0</ele><time>2026-04-11T03:27:32Z</time></trkpt><trkpt lat="43.29011088506438" lon="11.541184889787385"><ele>302.0</ele><time>2026-04-11T03:27:34Z</time></trkpt><trkpt lat="43.29021306236673" lon="11.54120417103385"><ele>302.0</ele><time>2026-04-11T03:27:36Z</time></trkpt><trkpt lat="43.29042883866099" lon="11.541219560738275"><ele>302.0</ele><time>2026-04-11T03:27:40Z</time></trkpt><trkpt lat="43.2905467876255" lon="11.541262360524284"><ele>303.33333333333337</ele><time>2026-04-11T03:27:42Z</time></trkpt><trkpt lat="43.290611725378575" lon="11.541299236204924"><ele>304.6666666666667</ele><time>2026-04-11T03:27:43Z</time></trkpt><trkpt lat="43.29068098738314" lon="11.541331836513258"><ele>306.0</ele><time>2026-04-11T03:27:44Z</time></trkpt><trkpt lat="43.290755159296666" lon="11.541360688549105"><ele>307.3333333333333</ele><time>2026-04-11T03:27:45Z</time></trkpt><trkpt lat="43.290834144500174" lon="11.541376084268396"><ele>308.66666666666663</ele><time>2026-04-11T03:27:46Z</time></trkpt><trkpt lat="43.29091362571683" lon="11.541375287391716"><ele>310.0</ele><time>2026-04-11T03:27:47Z</time></trkpt><trkpt lat="43.290997674595666" lon="11.54135503903957"><ele>310.0</ele><time>2026-04-11T03:27:48Z</time></trkpt><trkpt lat="43.2910619648038" lon="11.54131588887988"><ele>310.0</ele><time>2026-04-11T03:27:49Z</time></trkpt><trkpt lat="43.29113027699156" lon="11.541269093376735"><ele>310.0</ele><time>2026-04-11T03:27:50Z</time></trkpt><trkpt lat="43.2911841729406" lon="11.54120374702013"><ele>310.0</ele><time>2026-04-11T03:27:51Z</time></trkpt><trkpt lat="43.291227532299295" lon="11.541125964274029"><ele>310.0</ele><time>2026-04-11T03:27:52Z</time></trkpt><trkpt lat="43.291270065968966" lon="11.5410561842607"><ele>310.0</ele><time>2026-04-11T03:27:53Z</time></trkpt><trkpt lat="43.29133430865706" lon="11.540920165296187"><ele>308.5</ele><time>2026-04-11T03:27:55Z</time></trkpt><trkpt lat="43.29133552032215" lon="11.540767672060722"><ele>307.0</ele><time>2026-04-11T03:27:57Z</time></trkpt><trkpt lat="43.29132010799903" lon="11.540488295162207"><ele>305.5</ele><time>2026-04-11T03:28:01Z</time></trkpt><trkpt lat="43.29129626713974" lon="11.540366143710578"><ele>304.0</ele><time>2026-04-11T03:28:03Z</time></trkpt><trkpt lat="43.291299602002105" lon="11.540246469583357"><ele>303.66666666666663</ele><time>2026-04-11T03:28:05Z</time></trkpt><trkpt lat="43.291311939653106" lon="11.540130181380098"><ele>303.3333333333333</ele><time>2026-04-11T03:28:07Z</time></trkpt><trkpt lat="43.29133302099679" lon="11.540016604962046"><ele>303.0</ele><time>2026-04-11T03:28:09Z</time></trkpt><trkpt lat="43.29136575616888" lon="11.539913381315005"><ele>302.6666666666667</ele><time>2026-04-11T03:28:11Z</time></trkpt><trkpt lat="43.29139756601048" lon="11.539803796568311"><ele>302.33333333333337</ele><time>2026-04-11T03:28:13Z</time></trkpt><trkpt lat="43.2914401686346" lon="11.539701784272646"><ele>302.0</ele><time>2026-04-11T03:28:15Z</time></trkpt><trkpt lat="43.29147759124569" lon="11.539594717036515"><ele>305.0</ele><time>2026-04-11T03:28:17Z</time></trkpt><trkpt lat="43.29151369173379" lon="11.539490996730262"><ele>308.0</ele><time>2026-04-11T03:28:19Z</time></trkpt><trkpt lat="43.29159037672249" lon="11.53929233489293"><ele>311.0</ele><time>2026-04-11T03:28:23Z</time></trkpt><trkpt lat="43.291630926235044" lon="11.539200701496306"><ele>314.0</ele><time>2026-04-11T03:28:25Z</time></trkpt><trkpt lat="43.29166799427475" lon="11.53911084628327"><ele>317.0</ele><time>2026-04-11T03:28:27Z</time></trkpt><trkpt lat="43.29170822419176" lon="11.53902585515589"><ele>317.0</ele><time>2026-04-11T03:28:29Z</time></trkpt><trkpt lat="43.29175037766202" lon="11.538937317513843"><ele>317.0</ele><time>2026-04-11T03:28:31Z</time></trkpt><trkpt lat="43.29180192778325" lon="11.538863972530555"><ele>317.0</ele><time>2026-04-11T03:28:33Z</time></trkpt><trkpt lat="43.29187036441916" lon="11.538821079957613"><ele>317.0</ele><time>2026-04-11T03:28:35Z</time></trkpt><trkpt lat="43.291943180663374" lon="11.53878986011444"><ele>317.0</ele><time>2026-04-11T03:28:37Z</time></trkpt><trkpt lat="43.29201187161297" lon="11.538772729262728"><ele>317.0</ele><time>2026-04-11T03:28:39Z</time></trkpt><trkpt lat="43.292082869190864" lon="11.538788946249083"><ele>317.0</ele><time>2026-04-11T03:28:41Z</time></trkpt><trkpt lat="43.29221956691277" lon="11.53883980194391"><ele>317.0</ele><time>2026-04-11T03:28:45Z</time></trkpt><trkpt lat="43.29228924896157" lon="11.538868354423808"><ele>317.0</ele><time>2026-04-11T03:28:47Z</time></trkpt><trkpt lat="43.29235759620804" lon="11.538892686481466"><ele>317.0</ele><time>2026-04-11T03:28:49Z</time></trkpt><trkpt lat="43.29242997958599" lon="11.53890938238399"><ele>317.0</ele><time>2026-04-11T03:28:51Z</time></trkpt><trkpt lat="43.29250266886098" lon="11.538919109461974"><ele>317.0</ele><time>2026-04-11T03:28:53Z</time></trkpt><trkpt lat="43.292579520236444" lon="11.538917468867925"><ele>317.0</ele><time>2026-04-11T03:28:55Z</time></trkpt><trkpt lat="43.29265176845244" lon="11.538901487415943"><ele>317.0</ele><time>2026-04-11T03:28:57Z</time></trkpt><trkpt lat="43.29272003258414" lon="11.538870100040315"><ele>317.0</ele><time>2026-04-11T03:28:59Z</time></trkpt><trkpt lat="43.292785861677416" lon="11.5388215869599"><ele>317.0</ele><time>2026-04-11T03:29:01Z</time></trkpt><trkpt lat="43.292849826008364" lon="11.538761420737414"><ele>317.0</ele><time>2026-04-11T03:29:03Z</time></trkpt><trkpt lat="43.29302559003233" lon="11.538587304270466"><ele>317.0</ele><time>2026-04-11T03:29:07Z</time></trkpt><trkpt lat="43.29307992646904" lon="11.538531437333008"><ele>317.0</ele><time>2026-04-11T03:29:08Z</time></trkpt><trkpt lat="43.29313537456516" lon="11.538480924857227"><ele>316.1666666666667</ele><time>2026-04-11T03:29:09Z</time></trkpt><trkpt lat="43.29319752502687" lon="11.538422610347473"><ele>315.33333333333337</ele><time>2026-04-11T03:29:10Z</time></trkpt><trkpt lat="43.29325990948352" lon="11.538365770654682"><ele>314.5</ele><time>2026-04-11T03:29:11Z</time></trkpt><trkpt lat="43.29332642697988" lon="11.538307118833792"><ele>313.6666666666667</ele><time>2026-04-11T03:29:12Z</time></trkpt><trkpt lat="43.293393233065935" lon="11.538238894837228"><ele>312.8333333333333</ele><time>2026-04-11T03:29:13Z</time></trkpt><trkpt lat="43.293469490246665" lon="11.538172286497879"><ele>312.0</ele><time>2026-04-11T03:29:14Z</time></trkpt><trkpt lat="43.29354647999223" lon="11.538095010320134"><ele>312.0</ele><time>2026-04-11T03:29:15Z</time></trkpt><trkpt lat="43.29363020951132" lon="11.538023899661"><ele>312.0</ele><time>2026-04-11T03:29:16Z</time></trkpt><trkpt lat="43.29370911984724" lon="11.537944307286148"><ele>312.0</ele><time>2026-04-11T03:29:17Z</time></trkpt><trkpt lat="43.2937915765301" lon="11.537869800155033"><ele>312.0</ele><time>2026-04-11T03:29:18Z</time></trkpt><trkpt lat="43.29387366364776" lon="11.537811642415742"><ele>312.0</ele><time>2026-04-11T03:29:19Z</time></trkpt><trkpt lat="43.29395094273288" lon="11.53774588786722"><ele>312.2</ele><time>2026-04-11T03:29:20Z</time></trkpt><trkpt lat="43.294018934989964" lon="11.53767142651969"><ele>312.4</ele><time>2026-04-11T03:29:21Z</time></trkpt><trkpt lat="43.29408617701521" lon="11.537596774914801"><ele>312.6</ele><time>2026-04-11T03:29:22Z</time></trkpt><trkpt lat="43.29415196693327" lon="11.537523169544563"><ele>312.8</ele><time>2026-04-11T03:29:23Z</time></trkpt><trkpt lat="43.29420968506116" lon="11.537448217402646"><ele>313.0</ele><time>2026-04-11T03:29:24Z</time></trkpt><trkpt lat="43.294307479507076" lon="11.537312583892003"><ele>313.0</ele><time>2026-04-11T03:29:26Z</time></trkpt><trkpt lat="43.294392872608505" lon="11.537207459805783"><ele>313.0</ele><time>2026-04-11T03:29:28Z</time></trkpt><trkpt lat="43.294470154429135" lon="11.537131294592994"><ele>313.0</ele><time>2026-04-11T03:29:30Z</time></trkpt><trkpt lat="43.29453774514794" lon="11.537061645894672"><ele>313.0</ele><time>2026-04-11T03:29:32Z</time></trkpt><trkpt lat="43.29461342367819" lon="11.537010527362549"><ele>313.0</ele><time>2026-04-11T03:29:34Z</time></trkpt><trkpt lat="43.29468919451571" lon="11.536975084721362"><ele>311.8</ele><time>2026-04-11T03:29:36Z</time></trkpt><trkpt lat="43.294759058734925" lon="11.536915166755827"><ele>310.6</ele><time>2026-04-11T03:29:38Z</time></trkpt><trkpt lat="43.29485693899901" lon="11.536864766015446"><ele>309.4</ele><time>2026-04-11T03:29:40Z</time></trkpt><trkpt lat="43.294975495332864" lon="11.53679809558314"><ele>308.2</ele><time>2026-04-11T03:29:42Z</time></trkpt><trkpt lat="43.29504294461052" lon="11.536770398958444"><ele>307.0</ele><time>2026-04-11T03:29:43Z</time></trkpt><trkpt lat="43.29512002362223" lon="11.536764903001234"><ele>307.0</ele><time>2026-04-11T03:29:44Z</time></trkpt><trkpt lat="43.29519718937069" lon="11.536760438437657"><ele>307.0</ele><time>2026-04-11T03:29:45Z</time></trkpt><trkpt lat="43.2953518403193" lon="11.536698374654922"><ele>307.0</ele><time>2026-04-11T03:29:47Z</time></trkpt><trkpt lat="43.295423601518685" lon="11.536631201026326"><ele>307.0</ele><time>2026-04-11T03:29:48Z</time></trkpt><trkpt lat="43.29548553082536" lon="11.536552201499616"><ele>307.0</ele><time>2026-04-11T03:29:49Z</time></trkpt><trkpt lat="43.29553302891477" lon="11.536463345926997"><ele>307.0</ele><time>2026-04-11T03:29:50Z</time></trkpt><trkpt lat="43.29556652680449" lon="11.536371802690148"><ele>307.0</ele><time>2026-04-11T03:29:51Z</time></trkpt><trkpt lat="43.29559795928012" lon="11.536283057859078"><ele>307.0</ele><time>2026-04-11T03:29:52Z</time></trkpt><trkpt lat="43.295625819365476" lon="11.53619752967595"><ele>307.0</ele><time>2026-04-11T03:29:53Z</time></trkpt><trkpt lat="43.29565529054353" lon="11.536119556487952"><ele>307.0</ele><time>2026-04-11T03:29:54Z</time></trkpt><trkpt lat="43.29570322208685" lon="11.535968552797312"><ele>307.0</ele><time>2026-04-11T03:29:56Z</time></trkpt><trkpt lat="43.29574742778203" lon="11.535834747450293"><ele>310.2</ele><time>2026-04-11T03:29:58Z</time></trkpt><trkpt lat="43.295776623656494" lon="11.535730965937368"><ele>313.4</ele><time>2026-04-11T03:30:00Z</time></trkpt><trkpt lat="43.29578723511914" lon="11.53564138745543"><ele>316.59999999999997</ele><time>2026-04-11T03:30:02Z</time></trkpt><trkpt lat="43.29579798452911" lon="11.535532860920023"><ele>319.79999999999995</ele><time>2026-04-11T03:30:05Z</time></trkpt><trkpt lat="43.295808408589444" lon="11.535430139652439"><ele>323.0</ele><time>2026-04-11T03:30:08Z</time></trkpt><trkpt lat="43.29582482453852" lon="11.535217988147487"><ele>323.6666666666667</ele><time>2026-04-11T03:30:14Z</time></trkpt><trkpt lat="43.29583262868527" lon="11.53511280988709"><ele>324.33333333333337</ele><time>2026-04-11T03:30:17Z</time></trkpt><trkpt lat="43.2958400329787" lon="11.535001454017344"><ele>325.0</ele><time>2026-04-11T03:30:20Z</time></trkpt><trkpt lat="43.29583877421591" lon="11.534894731920726"><ele>325.6666666666667</ele><time>2026-04-11T03:30:23Z</time></trkpt><trkpt lat="43.29581414997028" lon="11.534785435581608"><ele>326.3333333333333</ele><time>2026-04-11T03:30:26Z</time></trkpt><trkpt lat="43.29577178429335" lon="11.534682627254735"><ele>327.0</ele><time>2026-04-11T03:30:29Z</time></trkpt><trkpt lat="43.295625654419034" lon="11.534552934128017"><ele>327.5</ele><time>2026-04-11T03:30:35Z</time></trkpt><trkpt lat="43.29555911634546" lon="11.534500864310871"><ele>328.0</ele><time>2026-04-11T03:30:38Z</time></trkpt><trkpt lat="43.29549796122052" lon="11.534465411558328"><ele>328.5</ele><time>2026-04-11T03:30:41Z</time></trkpt><trkpt lat="43.29543054175764" lon="11.534405676439727"><ele>329.0</ele><time>2026-04-11T03:30:44Z</time></trkpt><trkpt lat="43.29536988045745" lon="11.53435258768888"><ele>329.5</ele><time>2026-04-11T03:30:47Z</time></trkpt><trkpt lat="43.29530999104568" lon="11.534290319784008"><ele>330.0</ele><time>2026-04-11T03:30:50Z</time></trkpt><trkpt lat="43.295189149554766" lon="11.534148300482302"><ele>330.0</ele><time>2026-04-11T03:30:55Z</time></trkpt><trkpt lat="43.29513068256057" lon="11.534065031276162"><ele>330.0</ele><time>2026-04-11T03:30:57Z</time></trkpt><trkpt lat="43.29504890852017" lon="11.533960327732963"><ele>330.0</ele><time>2026-04-11T03:30:59Z</time></trkpt><trkpt lat="43.29493394139865" lon="11.533883183823963"><ele>330.0</ele><time>2026-04-11T03:31:01Z</time></trkpt><trkpt lat="43.294870440427566" lon="11.53384900543619"><ele>330.0</ele><time>2026-04-11T03:31:02Z</time></trkpt><trkpt lat="43.294805220449796" lon="11.533814680315349"><ele>328.8333333333333</ele><time>2026-04-11T03:31:03Z</time></trkpt><trkpt lat="43.29473339850798" lon="11.533770912716243"><ele>327.6666666666667</ele><time>2026-04-11T03:31:04Z</time></trkpt><trkpt lat="43.29466718940962" lon="11.533747856055326"><ele>326.5</ele><time>2026-04-11T03:31:05Z</time></trkpt><trkpt lat="43.294599456467864" lon="11.533696782166656"><ele>325.33333333333337</ele><time>2026-04-11T03:31:06Z</time></trkpt><trkpt lat="43.2945371187166" lon="11.533639672601026"><ele>324.1666666666667</ele><time>2026-04-11T03:31:07Z</time></trkpt><trkpt lat="43.29448797407885" lon="11.53356176100875"><ele>323.0</ele><time>2026-04-11T03:31:08Z</time></trkpt><trkpt lat="43.29446431806925" lon="11.533458777029683"><ele>323.0</ele><time>2026-04-11T03:31:09Z</time></trkpt><trkpt lat="43.2944486630829" lon="11.533349948824293"><ele>323.0</ele><time>2026-04-11T03:31:10Z</time></trkpt><trkpt lat="43.294447737615606" lon="11.533235998302626"><ele>323.0</ele><time>2026-04-11T03:31:11Z</time></trkpt><trkpt lat="43.2944476221295" lon="11.533008627953674"><ele>323.0</ele><time>2026-04-11T03:31:13Z</time></trkpt><trkpt lat="43.294443445421244" lon="11.5328817881096"><ele>323.0</ele><time>2026-04-11T03:31:14Z</time></trkpt><trkpt lat="43.29444538991128" lon="11.532758880193875"><ele>323.4</ele><time>2026-04-11T03:31:15Z</time></trkpt><trkpt lat="43.294451101847464" lon="11.532632126541012"><ele>323.79999999999995</ele><time>2026-04-11T03:31:16Z</time></trkpt><trkpt lat="43.29446706920836" lon="11.53249792043487"><ele>324.2</ele><time>2026-04-11T03:31:17Z</time></trkpt><trkpt lat="43.2944926876069" lon="11.532366789659294"><ele>324.6</ele><time>2026-04-11T03:31:18Z</time></trkpt><trkpt lat="43.294534849403334" lon="11.532232294585413"><ele>325.0</ele><time>2026-04-11T03:31:19Z</time></trkpt><trkpt lat="43.29457440502233" lon="11.532100163372547"><ele>325.4</ele><time>2026-04-11T03:31:20Z</time></trkpt><trkpt lat="43.294623916218875" lon="11.531969033370219"><ele>325.8</ele><time>2026-04-11T03:31:21Z</time></trkpt><trkpt lat="43.29466916614553" lon="11.53183851435787"><ele>326.20000000000005</ele><time>2026-04-11T03:31:22Z</time></trkpt><trkpt lat="43.294730724031616" lon="11.53171043453598"><ele>326.6</ele><time>2026-04-11T03:31:23Z</time></trkpt><trkpt lat="43.29480289753187" lon="11.531591818547207"><ele>327.0</ele><time>2026-04-11T03:31:24Z</time></trkpt><trkpt lat="43.29486638658205" lon="11.531472145534364"><ele>325.6</ele><time>2026-04-11T03:31:25Z</time></trkpt><trkpt lat="43.29493238654361" lon="11.531345674349323"><ele>324.20000000000005</ele><time>2026-04-11T03:31:26Z</time></trkpt><trkpt lat="43.29499759345019" lon="11.531223198776622"><ele>322.8</ele><time>2026-04-11T03:31:27Z</time></trkpt><trkpt lat="43.295068602113865" lon="11.531111625171786"><ele>321.4</ele><time>2026-04-11T03:31:28Z</time></trkpt><trkpt lat="43.29514403375767" lon="11.53101677839839"><ele>320.0</ele><time>2026-04-11T03:31:29Z</time></trkpt><trkpt lat="43.29523096509549" lon="11.530930354654611"><ele>320.0</ele><time>2026-04-11T03:31:30Z</time></trkpt><trkpt lat="43.29532529467163" lon="11.53085067466041"><ele>320.0</ele><time>2026-04-11T03:31:31Z</time></trkpt><trkpt lat="43.295424970925716" lon="11.530771579461101"><ele>320.0</ele><time>2026-04-11T03:31:32Z</time></trkpt><trkpt lat="43.295615853569" lon="11.530643881340033"><ele>320.0</ele><time>2026-04-11T03:31:34Z</time></trkpt><trkpt lat="43.29572361184582" lon="11.530578664454339"><ele>317.6</ele><time>2026-04-11T03:31:35Z</time></trkpt><trkpt lat="43.29583212264646" lon="11.530535862314151"><ele>315.2</ele><time>2026-04-11T03:31:36Z</time></trkpt><trkpt lat="43.2959372584268" lon="11.53049253305008"><ele>312.8</ele><time>2026-04-11T03:31:37Z</time></trkpt><trkpt lat="43.2960402401798" lon="11.53044570115719"><ele>310.4</ele><time>2026-04-11T03:31:38Z</time></trkpt><trkpt lat="43.296142965165494" lon="11.530403470967382"><ele>308.0</ele><time>2026-04-11T03:31:39Z</time></trkpt><trkpt lat="43.296242165337524" lon="11.530360662530315"><ele>308.0</ele><time>2026-04-11T03:31:40Z</time></trkpt><trkpt lat="43.29633950104251" lon="11.530321193491488"><ele>308.0</ele><time>2026-04-11T03:31:41Z</time></trkpt><trkpt lat="43.29642836527209" lon="11.530278690700374"><ele>308.0</ele><time>2026-04-11T03:31:42Z</time></trkpt><trkpt lat="43.29650515459581" lon="11.53023667380578"><ele>308.0</ele><time>2026-04-11T03:31:43Z</time></trkpt><trkpt lat="43.29656485462819" lon="11.530194280888756"><ele>308.0</ele><time>2026-04-11T03:31:44Z</time></trkpt><trkpt lat="43.29663781433885" lon="11.530065746350385"><ele>308.0</ele><time>2026-04-11T03:31:46Z</time></trkpt><trkpt lat="43.29664147794764" lon="11.529969869535535"><ele>308.0</ele><time>2026-04-11T03:31:47Z</time></trkpt><trkpt lat="43.29661342662873" lon="11.529873702644288"><ele>308.0</ele><time>2026-04-11T03:31:48Z</time></trkpt><trkpt lat="43.29656054386398" lon="11.52980264547312"><ele>308.0</ele><time>2026-04-11T03:31:49Z</time></trkpt><trkpt lat="43.29649631521057" lon="11.52975358053535"><ele>308.0</ele><time>2026-04-11T03:31:50Z</time></trkpt><trkpt lat="43.296427512228256" lon="11.529718887898104"><ele>308.0</ele><time>2026-04-11T03:31:51Z</time></trkpt><trkpt lat="43.296351884084125" lon="11.529689106444582"><ele>308.0</ele><time>2026-04-11T03:31:52Z</time></trkpt><trkpt lat="43.29627164577376" lon="11.52966209451513"><ele>308.0</ele><time>2026-04-11T03:31:53Z</time></trkpt><trkpt lat="43.296108015584785" lon="11.529606311182274"><ele>308.0</ele><time>2026-04-11T03:31:55Z</time></trkpt><trkpt lat="43.296025401675585" lon="11.529594270261862"><ele>308.0</ele><time>2026-04-11T03:31:56Z</time></trkpt><trkpt lat="43.295935141492976" lon="11.529582218554646"><ele>308.0</ele><time>2026-04-11T03:31:57Z</time></trkpt><trkpt lat="43.29583689116564" lon="11.529554676002576"><ele>308.0</ele><time>2026-04-11T03:31:58Z</time></trkpt><trkpt lat="43.295762398981275" lon="11.529482139925165"><ele>306.1666666666667</ele><time>2026-04-11T03:31:59Z</time></trkpt><trkpt lat="43.29568518781263" lon="11.52941964248307"><ele>304.33333333333337</ele><time>2026-04-11T03:32:00Z</time></trkpt><trkpt lat="43.29560775975395" lon="11.529362012388587"><ele>302.5</ele><time>2026-04-11T03:32:01Z</time></trkpt><trkpt lat="43.29552882628557" lon="11.529319519137534"><ele>300.6666666666667</ele><time>2026-04-11T03:32:02Z</time></trkpt><trkpt lat="43.29544934264439" lon="11.529289473355247"><ele>298.8333333333333</ele><time>2026-04-11T03:32:03Z</time></trkpt><trkpt lat="43.29538660889299" lon="11.52926139276294"><ele>297.0</ele><time>2026-04-11T03:32:04Z</time></trkpt><trkpt lat="43.295334432644005" lon="11.529212172723591"><ele>297.0</ele><time>2026-04-11T03:32:05Z</time></trkpt><trkpt lat="43.29528975614342" lon="11.529135757778329"><ele>297.0</ele><time>2026-04-11T03:32:06Z</time></trkpt><trkpt lat="43.29527840973755" lon="11.529030963960128"><ele>297.0</ele><time>2026-04-11T03:32:07Z</time></trkpt><trkpt lat="43.29530286296829" lon="11.528926391693604"><ele>297.0</ele><time>2026-04-11T03:32:08Z</time></trkpt><trkpt lat="43.29534548020937" lon="11.528860562904203"><ele>297.0</ele><time>2026-04-11T03:32:09Z</time></trkpt><trkpt lat="43.295408495632834" lon="11.528841374506904"><ele>297.0</ele><time>2026-04-11T03:32:10Z</time></trkpt><trkpt lat="43.29547486534899" lon="11.528804068101024"><ele>297.0</ele><time>2026-04-11T03:32:11Z</time></trkpt><trkpt lat="43.29558093061608" lon="11.528735656719599"><ele>296.1666666666667</ele><time>2026-04-11T03:32:13Z</time></trkpt><trkpt lat="43.29564022595261" lon="11.528695388344786"><ele>295.3333333333333</ele><time>2026-04-11T03:32:14Z</time></trkpt><trkpt lat="43.295747134073146" lon="11.528589831388244"><ele>294.5</ele><time>2026-04-11T03:32:16Z</time></trkpt><trkpt lat="43.29579614334653" lon="11.528519591938071"><ele>293.66666666666663</ele><time>2026-04-11T03:32:17Z</time></trkpt><trkpt lat="43.29584312467763" lon="11.528443405297217"><ele>292.8333333333333</ele><time>2026-04-11T03:32:18Z</time></trkpt><trkpt lat="43.295878515947535" lon="11.52834976203037"><ele>292.0</ele><time>2026-04-11T03:32:19Z</time></trkpt><trkpt lat="43.29590108402052" lon="11.528240356317866"><ele>292.0</ele><time>2026-04-11T03:32:20Z</time></trkpt><trkpt lat="43.295913586563444" lon="11.528124913168448"><ele>292.0</ele><time>2026-04-11T03:32:21Z</time></trkpt><trkpt lat="43.295920548067" lon="11.528006327763523"><ele>292.0</ele><time>2026-04-11T03:32:22Z</time></trkpt><trkpt lat="43.295928799203296" lon="11.527888253453341"><ele>292.0</ele><time>2026-04-11T03:32:23Z</time></trkpt><trkpt lat="43.2959466774122" lon="11.527770596663306"><ele>292.0</ele><time>2026-04-11T03:32:24Z</time></trkpt><trkpt lat="43.29595821213105" lon="11.527655700494899"><ele>292.0</ele><time>2026-04-11T03:32:25Z</time></trkpt><trkpt lat="43.295967835696175" lon="11.52753679027463"><ele>292.0</ele><time>2026-04-11T03:32:26Z</time></trkpt><trkpt lat="43.29598703755378" lon="11.52742527665806"><ele>292.0</ele><time>2026-04-11T03:32:27Z</time></trkpt><trkpt lat="43.296002174102114" lon="11.527310184331427"><ele>292.0</ele><time>2026-04-11T03:32:28Z</time></trkpt><trkpt lat="43.29602373541129" lon="11.527194384866858"><ele>292.0</ele><time>2026-04-11T03:32:29Z</time></trkpt><trkpt lat="43.296059253470425" lon="11.52708655424214"><ele>292.0</ele><time>2026-04-11T03:32:30Z</time></trkpt><trkpt lat="43.296102539511" lon="11.526988605428572"><ele>292.0</ele><time>2026-04-11T03:32:31Z</time></trkpt><trkpt lat="43.2961533403837" lon="11.526901887992013"><ele>291.5</ele><time>2026-04-11T03:32:32Z</time></trkpt><trkpt lat="43.296197741988834" lon="11.526812830701813"><ele>291.0</ele><time>2026-04-11T03:32:33Z</time></trkpt><trkpt lat="43.29624595191415" lon="11.526732645383955"><ele>290.5</ele><time>2026-04-11T03:32:34Z</time></trkpt><trkpt lat="43.29629061690647" lon="11.526655709576639"><ele>290.0</ele><time>2026-04-11T03:32:35Z</time></trkpt><trkpt lat="43.29637933801066" lon="11.52650989999031"><ele>289.5</ele><time>2026-04-11T03:32:37Z</time></trkpt><trkpt lat="43.296427701563196" lon="11.52644400248906"><ele>289.0</ele><time>2026-04-11T03:32:38Z</time></trkpt><trkpt lat="43.296513925951835" lon="11.526312866714683"><ele>289.0</ele><time>2026-04-11T03:32:40Z</time></trkpt><trkpt lat="43.296562252167774" lon="11.526250902367275"><ele>289.0</ele><time>2026-04-11T03:32:41Z</time></trkpt><trkpt lat="43.29661080023201" lon="11.526191833301912"><ele>289.0</ele><time>2026-04-11T03:32:42Z</time></trkpt><trkpt lat="43.29666273002893" lon="11.526141222319497"><ele>289.0</ele><time>2026-04-11T03:32:43Z</time></trkpt><trkpt lat="43.29674493403255" lon="11.526015143270143"><ele>289.0</ele><time>2026-04-11T03:32:45Z</time></trkpt><trkpt lat="43.29676150872374" lon="11.525928140527041"><ele>289.0</ele><time>2026-04-11T03:32:46Z</time></trkpt><trkpt lat="43.29676738255211" lon="11.525765958498456"><ele>289.0</ele><time>2026-04-11T03:32:48Z</time></trkpt><trkpt lat="43.2967414529792" lon="11.525619468968607"><ele>289.0</ele><time>2026-04-11T03:32:50Z</time></trkpt><trkpt lat="43.29672933303223" lon="11.525461891465143"><ele>289.0</ele><time>2026-04-11T03:32:52Z</time></trkpt><trkpt lat="43.296733580474736" lon="11.525318586957459"><ele>289.0</ele><time>2026-04-11T03:32:54Z</time></trkpt><trkpt lat="43.29675221317148" lon="11.525174742717489"><ele>289.0</ele><time>2026-04-11T03:32:56Z</time></trkpt><trkpt lat="43.296736208811645" lon="11.524909578421205"><ele>289.59999999999997</ele><time>2026-04-11T03:33:00Z</time></trkpt><trkpt lat="43.29668864802072" lon="11.524785214525968"><ele>290.2</ele><time>2026-04-11T03:33:02Z</time></trkpt><trkpt lat="43.29664129483085" lon="11.524671083917571"><ele>290.79999999999995</ele><time>2026-04-11T03:33:04Z</time></trkpt><trkpt lat="43.2966063397274" lon="11.524562474851107"><ele>291.4</ele><time>2026-04-11T03:33:06Z</time></trkpt><trkpt lat="43.29656986277233" lon="11.524429370634657"><ele>292.0</ele><time>2026-04-11T03:33:08Z</time></trkpt><trkpt lat="43.29654903439953" lon="11.524314427403876"><ele>294.0</ele><time>2026-04-11T03:33:10Z</time></trkpt><trkpt lat="43.29653578016087" lon="11.524198677797672"><ele>296.0</ele><time>2026-04-11T03:33:12Z</time></trkpt><trkpt lat="43.29652508355918" lon="11.52409038602482"><ele>298.0</ele><time>2026-04-11T03:33:14Z</time></trkpt><trkpt lat="43.29650888461256" lon="11.523978548533055"><ele>300.0</ele><time>2026-04-11T03:33:16Z</time></trkpt><trkpt lat="43.296502511365276" lon="11.523882751461885"><ele>302.0</ele><time>2026-04-11T03:33:18Z</time></trkpt><trkpt lat="43.296480879362115" lon="11.523694216079297"><ele>302.83333333333337</ele><time>2026-04-11T03:33:22Z</time></trkpt><trkpt lat="43.29646455185346" lon="11.52359732123275"><ele>303.6666666666667</ele><time>2026-04-11T03:33:24Z</time></trkpt><trkpt lat="43.29645359942538" lon="11.523501716811367"><ele>304.5</ele><time>2026-04-11T03:33:26Z</time></trkpt><trkpt lat="43.29644714775355" lon="11.5234042434768"><ele>305.3333333333333</ele><time>2026-04-11T03:33:28Z</time></trkpt><trkpt lat="43.296434552903875" lon="11.523295355004466"><ele>306.16666666666663</ele><time>2026-04-11T03:33:30Z</time></trkpt><trkpt lat="43.29642573435648" lon="11.52318536390418"><ele>307.0</ele><time>2026-04-11T03:33:32Z</time></trkpt><trkpt lat="43.296424423883295" lon="11.52305974587508"><ele>306.75</ele><time>2026-04-11T03:33:34Z</time></trkpt><trkpt lat="43.296418543921774" lon="11.522918040116098"><ele>306.5</ele><time>2026-04-11T03:33:36Z</time></trkpt><trkpt lat="43.2964281161997" lon="11.522772991458057"><ele>306.25</ele><time>2026-04-11T03:33:38Z</time></trkpt><trkpt lat="43.29645859356616" lon="11.522610225617457"><ele>306.0</ele><time>2026-04-11T03:33:40Z</time></trkpt><trkpt lat="43.29655742545581" lon="11.52238508442822"><ele>306.0</ele><time>2026-04-11T03:33:43Z</time></trkpt><trkpt lat="43.29659595989737" lon="11.522305949275797"><ele>306.0</ele><time>2026-04-11T03:33:44Z</time></trkpt><trkpt lat="43.296634633647244" lon="11.522227952411516"><ele>306.0</ele><time>2026-04-11T03:33:45Z</time></trkpt><trkpt lat="43.296667814732146" lon="11.522145489315367"><ele>306.0</ele><time>2026-04-11T03:33:46Z</time></trkpt><trkpt lat="43.2966909861784" lon="11.522057598164016"><ele>306.0</ele><time>2026-04-11T03:33:47Z</time></trkpt><trkpt lat="43.29670393392841" lon="11.521961951000588"><ele>306.0</ele><time>2026-04-11T03:33:48Z</time></trkpt><trkpt lat="43.296713290348904" lon="11.521862534863171"><ele>306.0</ele><time>2026-04-11T03:33:49Z</time></trkpt><trkpt lat="43.29671822047762" lon="11.521735767197377"><ele>304.3333333333333</ele><time>2026-04-11T03:33:50Z</time></trkpt><trkpt lat="43.2968092151976" lon="11.521598036504205"><ele>302.6666666666667</ele><time>2026-04-11T03:33:52Z</time></trkpt><trkpt lat="43.296865129211646" lon="11.521529472571437"><ele>301.0</ele><time>2026-04-11T03:33:53Z</time></trkpt><trkpt lat="43.2969318064293" lon="11.521470660175124"><ele>299.33333333333337</ele><time>2026-04-11T03:33:54Z</time></trkpt><trkpt lat="43.297009853720716" lon="11.521474526031085"><ele>297.6666666666667</ele><time>2026-04-11T03:33:55Z</time></trkpt><trkpt lat="43.29707432342929" lon="11.521420088354795"><ele>296.0</ele><time>2026-04-11T03:33:56Z</time></trkpt><trkpt lat="43.29714537904497" lon="11.521387581503722"><ele>296.0</ele><time>2026-04-11T03:33:57Z</time></trkpt><trkpt lat="43.2972153460833" lon="11.52135119121621"><ele>296.0</ele><time>2026-04-11T03:33:58Z</time></trkpt><trkpt lat="43.29728552911731" lon="11.521347382259643"><ele>296.0</ele><time>2026-04-11T03:33:59Z</time></trkpt><trkpt lat="43.29735910588034" lon="11.521335410999209"><ele>296.0</ele><time>2026-04-11T03:34:00Z</time></trkpt><trkpt lat="43.297428431945185" lon="11.521320783463983"><ele>296.0</ele><time>2026-04-11T03:34:01Z</time></trkpt><trkpt lat="43.297590648293536" lon="11.521402025957599"><ele>297.33333333333337</ele><time>2026-04-11T03:34:03Z</time></trkpt><trkpt lat="43.297662501698426" lon="11.5214427529556"><ele>298.6666666666667</ele><time>2026-04-11T03:34:04Z</time></trkpt><trkpt lat="43.29773301034699" lon="11.521493908802825"><ele>300.0</ele><time>2026-04-11T03:34:05Z</time></trkpt><trkpt lat="43.29780159575307" lon="11.521562086659202"><ele>301.3333333333333</ele><time>2026-04-11T03:34:06Z</time></trkpt><trkpt lat="43.2978426078126" lon="11.521635886305885"><ele>302.66666666666663</ele><time>2026-04-11T03:34:07Z</time></trkpt><trkpt lat="43.2979006045815" lon="11.521701902220025"><ele>304.0</ele><time>2026-04-11T03:34:08Z</time></trkpt><trkpt lat="43.297955190449294" lon="11.52177284700636"><ele>304.0</ele><time>2026-04-11T03:34:09Z</time></trkpt><trkpt lat="43.29800442110942" lon="11.521852776804334"><ele>304.0</ele><time>2026-04-11T03:34:10Z</time></trkpt><trkpt lat="43.29804539563278" lon="11.521937425109877"><ele>304.0</ele><time>2026-04-11T03:34:11Z</time></trkpt><trkpt lat="43.29808399494418" lon="11.522026682315545"><ele>304.0</ele><time>2026-04-11T03:34:12Z</time></trkpt><trkpt lat="43.29812419939064" lon="11.522114948051325"><ele>304.0</ele><time>2026-04-11T03:34:13Z</time></trkpt><trkpt lat="43.29816690112428" lon="11.522199170027172"><ele>304.0</ele><time>2026-04-11T03:34:14Z</time></trkpt><trkpt lat="43.29822578878624" lon="11.522267836367723"><ele>304.16666666666663</ele><time>2026-04-11T03:34:15Z</time></trkpt><trkpt lat="43.29829950737746" lon="11.522300195544366"><ele>304.3333333333333</ele><time>2026-04-11T03:34:16Z</time></trkpt><trkpt lat="43.29837800496672" lon="11.522306485620918"><ele>304.5</ele><time>2026-04-11T03:34:17Z</time></trkpt><trkpt lat="43.29845809748022" lon="11.522283630203813"><ele>304.6666666666667</ele><time>2026-04-11T03:34:18Z</time></trkpt><trkpt lat="43.298530844636616" lon="11.522247833842439"><ele>304.83333333333337</ele><time>2026-04-11T03:34:19Z</time></trkpt><trkpt lat="43.298610385293145" lon="11.52224628360655"><ele>305.0</ele><time>2026-04-11T03:34:20Z</time></trkpt><trkpt lat="43.29869266219021" lon="11.522263765718547"><ele>305.0</ele><time>2026-04-11T03:34:21Z</time></trkpt><trkpt lat="43.29877224719853" lon="11.522313977567954"><ele>305.0</ele><time>2026-04-11T03:34:22Z</time></trkpt><trkpt lat="43.29891276899302" lon="11.522468777141606"><ele>305.0</ele><time>2026-04-11T03:34:24Z</time></trkpt><trkpt lat="43.29899362543673" lon="11.522509261825801"><ele>305.0</ele><time>2026-04-11T03:34:25Z</time></trkpt><trkpt lat="43.29908073850555" lon="11.522526228639938"><ele>305.0</ele><time>2026-04-11T03:34:26Z</time></trkpt><trkpt lat="43.29916628067851" lon="11.522523288955759"><ele>303.83333333333337</ele><time>2026-04-11T03:34:27Z</time></trkpt><trkpt lat="43.2992480078359" lon="11.522505090011274"><ele>302.6666666666667</ele><time>2026-04-11T03:34:28Z</time></trkpt><trkpt lat="43.2993313262062" lon="11.522486722571102"><ele>301.5</ele><time>2026-04-11T03:34:29Z</time></trkpt><trkpt lat="43.29940694348147" lon="11.522469711447743"><ele>300.3333333333333</ele><time>2026-04-11T03:34:30Z</time></trkpt><trkpt lat="43.299477155654124" lon="11.522439961730933"><ele>299.16666666666663</ele><time>2026-04-11T03:34:31Z</time></trkpt><trkpt lat="43.299534560254266" lon="11.52238778089507"><ele>298.0</ele><time>2026-04-11T03:34:32Z</time></trkpt><trkpt lat="43.29959441834125" lon="11.522342402260302"><ele>298.0</ele><time>2026-04-11T03:34:33Z</time></trkpt><trkpt lat="43.29966133982773" lon="11.522298178730752"><ele>298.0</ele><time>2026-04-11T03:34:34Z</time></trkpt><trkpt lat="43.299736628367256" lon="11.522247839836004"><ele>298.0</ele><time>2026-04-11T03:34:35Z</time></trkpt><trkpt lat="43.29982816358495" lon="11.52221371127385"><ele>298.0</ele><time>2026-04-11T03:34:36Z</time></trkpt><trkpt lat="43.299927667440784" lon="11.522197058457852"><ele>298.0</ele><time>2026-04-11T03:34:37Z</time></trkpt><trkpt lat="43.300028365862545" lon="11.522193546200088"><ele>298.2</ele><time>2026-04-11T03:34:38Z</time></trkpt><trkpt lat="43.30012766636802" lon="11.522202619982403"><ele>298.4</ele><time>2026-04-11T03:34:39Z</time></trkpt><trkpt lat="43.300221656880616" lon="11.52222761124545"><ele>298.59999999999997</ele><time>2026-04-11T03:34:40Z</time></trkpt><trkpt lat="43.300305489668226" lon="11.522262170030162"><ele>298.8</ele><time>2026-04-11T03:34:41Z</time></trkpt><trkpt lat="43.300370347371214" lon="11.522302082045227"><ele>299.0</ele><time>2026-04-11T03:34:42Z</time></trkpt><trkpt lat="43.300468250764304" lon="11.522371021153102"><ele>297.75</ele><time>2026-04-11T03:34:44Z</time></trkpt><trkpt lat="43.3006545937982" lon="11.522469861210881"><ele>296.5</ele><time>2026-04-11T03:34:48Z</time></trkpt><trkpt lat="43.30073662320313" lon="11.522489278655646"><ele>295.25</ele><time>2026-04-11T03:34:50Z</time></trkpt><trkpt lat="43.30081904792152" lon="11.52251142450582"><ele>294.0</ele><time>2026-04-11T03:34:52Z</time></trkpt><trkpt lat="43.30091409977723" lon="11.522532263224669"><ele>294.0</ele><time>2026-04-11T03:34:54Z</time></trkpt><trkpt lat="43.30100581944585" lon="11.522561694467981"><ele>294.0</ele><time>2026-04-11T03:34:56Z</time></trkpt><trkpt lat="43.30109004814617" lon="11.522597696175085"><ele>294.0</ele><time>2026-04-11T03:34:58Z</time></trkpt><trkpt lat="43.30116850273738" lon="11.522633484698433"><ele>294.0</ele><time>2026-04-11T03:35:00Z</time></trkpt><trkpt lat="43.30124043861258" lon="11.522675875304213"><ele>294.0</ele><time>2026-04-11T03:35:02Z</time></trkpt><trkpt lat="43.301313002285426" lon="11.522715781418386"><ele>294.0</ele><time>2026-04-11T03:35:04Z</time></trkpt><trkpt lat="43.30138211238035" lon="11.52276636991535"><ele>293.0</ele><time>2026-04-11T03:35:06Z</time></trkpt><trkpt lat="43.301537354277976" lon="11.522841263975751"><ele>292.0</ele><time>2026-04-11T03:35:10Z</time></trkpt><trkpt lat="43.301627549658335" lon="11.522860723333046"><ele>291.0</ele><time>2026-04-11T03:35:12Z</time></trkpt><trkpt lat="43.30172491309117" lon="11.522869400811475"><ele>290.0</ele><time>2026-04-11T03:35:14Z</time></trkpt><trkpt lat="43.301826291257406" lon="11.522890845789913"><ele>290.0</ele><time>2026-04-11T03:35:16Z</time></trkpt><trkpt lat="43.30193086936915" lon="11.522902298436511"><ele>290.0</ele><time>2026-04-11T03:35:18Z</time></trkpt><trkpt lat="43.30203610771937" lon="11.522913536486131"><ele>290.0</ele><time>2026-04-11T03:35:20Z</time></trkpt><trkpt lat="43.30214370827539" lon="11.522918201866377"><ele>290.0</ele><time>2026-04-11T03:35:22Z</time></trkpt><trkpt lat="43.30224306654196" lon="11.52289318599303"><ele>290.0</ele><time>2026-04-11T03:35:24Z</time></trkpt><trkpt lat="43.302352706990085" lon="11.522847019928033"><ele>290.5</ele><time>2026-04-11T03:35:26Z</time></trkpt><trkpt lat="43.30246594307867" lon="11.522795270391251"><ele>291.0</ele><time>2026-04-11T03:35:28Z</time></trkpt><trkpt lat="43.30265481564597" lon="11.522724752995146"><ele>291.5</ele><time>2026-04-11T03:35:31Z</time></trkpt><trkpt lat="43.302719891818114" lon="11.522699459397508"><ele>292.0</ele><time>2026-04-11T03:35:32Z</time></trkpt><trkpt lat="43.30279048187978" lon="11.522687374991039"><ele>292.0</ele><time>2026-04-11T03:35:33Z</time></trkpt><trkpt lat="43.302853806376426" lon="11.522679155464184"><ele>292.0</ele><time>2026-04-11T03:35:34Z</time></trkpt><trkpt lat="43.302922612692306" lon="11.522670457682738"><ele>292.0</ele><time>2026-04-11T03:35:35Z</time></trkpt><trkpt lat="43.30303508178071" lon="11.52266974352215"><ele>292.0</ele><time>2026-04-11T03:35:37Z</time></trkpt><trkpt lat="43.303100457051876" lon="11.522669635967057"><ele>292.0</ele><time>2026-04-11T03:35:38Z</time></trkpt><trkpt lat="43.303163217483394" lon="11.522683281161193"><ele>292.0</ele><time>2026-04-11T03:35:39Z</time></trkpt><trkpt lat="43.30328406485418" lon="11.522727539971704"><ele>291.4</ele><time>2026-04-11T03:35:41Z</time></trkpt><trkpt lat="43.303341046929305" lon="11.522765882418344"><ele>290.79999999999995</ele><time>2026-04-11T03:35:42Z</time></trkpt><trkpt lat="43.30342746594688" lon="11.522867916778265"><ele>290.2</ele><time>2026-04-11T03:35:44Z</time></trkpt><trkpt lat="43.30349975006587" lon="11.522966701030702"><ele>289.59999999999997</ele><time>2026-04-11T03:35:46Z</time></trkpt><trkpt lat="43.30357081780152" lon="11.523093827735147"><ele>289.0</ele><time>2026-04-11T03:35:48Z</time></trkpt><trkpt lat="43.303640130923874" lon="11.523220676508318"><ele>290.25</ele><time>2026-04-11T03:35:50Z</time></trkpt><trkpt lat="43.30376373361239" lon="11.523498379007252"><ele>291.5</ele><time>2026-04-11T03:35:54Z</time></trkpt><trkpt lat="43.30378605166816" lon="11.523586549419578"><ele>292.75</ele><time>2026-04-11T03:35:55Z</time></trkpt><trkpt lat="43.30386867179397" lon="11.523684460922029"><ele>294.0</ele><time>2026-04-11T03:35:57Z</time></trkpt><trkpt lat="43.30396544563148" lon="11.523775071785316"><ele>294.0</ele><time>2026-04-11T03:35:59Z</time></trkpt><trkpt lat="43.30403484246592" lon="11.523820324811318"><ele>294.0</ele><time>2026-04-11T03:36:00Z</time></trkpt><trkpt lat="43.30408945476036" lon="11.523866732377952"><ele>294.0</ele><time>2026-04-11T03:36:01Z</time></trkpt><trkpt lat="43.30415112961014" lon="11.523891569544592"><ele>294.0</ele><time>2026-04-11T03:36:02Z</time></trkpt><trkpt lat="43.30421515079281" lon="11.523879255658162"><ele>294.0</ele><time>2026-04-11T03:36:03Z</time></trkpt><trkpt lat="43.30432436341992" lon="11.523822571090362"><ele>294.0</ele><time>2026-04-11T03:36:05Z</time></trkpt><trkpt lat="43.30441110711332" lon="11.523752571595804"><ele>294.0</ele><time>2026-04-11T03:36:07Z</time></trkpt><trkpt lat="43.30446114711757" lon="11.523680207423576"><ele>294.0</ele><time>2026-04-11T03:36:09Z</time></trkpt><trkpt lat="43.30450363048579" lon="11.5236056888694"><ele>294.0</ele><time>2026-04-11T03:36:11Z</time></trkpt><trkpt lat="43.30457821560482" lon="11.523453786064485"><ele>294.0</ele><time>2026-04-11T03:36:15Z</time></trkpt><trkpt lat="43.30462346291596" lon="11.523390632820435"><ele>294.0</ele><time>2026-04-11T03:36:17Z</time></trkpt><trkpt lat="43.30468432302226" lon="11.523293475240584"><ele>294.0</ele><time>2026-04-11T03:36:20Z</time></trkpt><trkpt lat="43.30474919703281" lon="11.523254516076724"><ele>296.4</ele><time>2026-04-11T03:36:22Z</time></trkpt><trkpt lat="43.304819702809624" lon="11.523166718051792"><ele>298.79999999999995</ele><time>2026-04-11T03:36:25Z</time></trkpt><trkpt lat="43.30491699025674" lon="11.52312008109732"><ele>301.20000000000005</ele><time>2026-04-11T03:36:28Z</time></trkpt><trkpt lat="43.30497419925615" lon="11.523076439559583"><ele>303.6</ele><time>2026-04-11T03:36:30Z</time></trkpt><trkpt lat="43.30503093238323" lon="11.523023569497889"><ele>306.0</ele><time>2026-04-11T03:36:32Z</time></trkpt><trkpt lat="43.30520333405013" lon="11.522945939162511"><ele>306.0</ele><time>2026-04-11T03:36:37Z</time></trkpt><trkpt lat="43.30528685150471" lon="11.522905474857296"><ele>306.0</ele><time>2026-04-11T03:36:41Z</time></trkpt><trkpt lat="43.30535844643528" lon="11.522858964461381"><ele>306.0</ele><time>2026-04-11T03:36:44Z</time></trkpt><trkpt lat="43.30543588473551" lon="11.522847609484556"><ele>306.0</ele><time>2026-04-11T03:36:49Z</time></trkpt><trkpt lat="43.30552240412281" lon="11.522818064089787"><ele>306.0</ele><time>2026-04-11T03:36:54Z</time></trkpt><trkpt lat="43.305789771681866" lon="11.522800759807907"><ele>308.0</ele><time>2026-04-11T03:37:07Z</time></trkpt><trkpt lat="43.305861777933934" lon="11.522815507926785"><ele>310.0</ele><time>2026-04-11T03:37:10Z</time></trkpt><trkpt lat="43.30594043246349" lon="11.52284284133545"><ele>312.0</ele><time>2026-04-11T03:37:13Z</time></trkpt><trkpt lat="43.306154641487765" lon="11.52293188424626"><ele>314.0</ele><time>2026-04-11T03:37:22Z</time></trkpt><trkpt lat="43.30623742903869" lon="11.522962527586426"><ele>314.8</ele><time>2026-04-11T03:37:25Z</time></trkpt><trkpt lat="43.30630342240406" lon="11.522978430986495"><ele>315.59999999999997</ele><time>2026-04-11T03:37:28Z</time></trkpt><trkpt lat="43.30639080224782" lon="11.522995605581823"><ele>316.4</ele><time>2026-04-11T03:37:31Z</time></trkpt><trkpt lat="43.306443921824965" lon="11.523047028565932"><ele>317.2</ele><time>2026-04-11T03:37:34Z</time></trkpt><trkpt lat="43.30664123190984" lon="11.523039955362487"><ele>318.0</ele><time>2026-04-11T03:37:42Z</time></trkpt><trkpt lat="43.306814624099864" lon="11.523055376178107"><ele>320.3333333333333</ele><time>2026-04-11T03:37:49Z</time></trkpt><trkpt lat="43.30698423904231" lon="11.52306695195581"><ele>322.66666666666663</ele><time>2026-04-11T03:37:56Z</time></trkpt><trkpt lat="43.30715023324" lon="11.523061412649612"><ele>325.0</ele><time>2026-04-11T03:38:03Z</time></trkpt><trkpt lat="43.30729715734527" lon="11.523084082852975"><ele>325.16666666666663</ele><time>2026-04-11T03:38:08Z</time></trkpt><trkpt lat="43.30737203644632" lon="11.523105536590773"><ele>325.3333333333333</ele><time>2026-04-11T03:38:10Z</time></trkpt><trkpt lat="43.30746194281804" lon="11.523157203137181"><ele>325.5</ele><time>2026-04-11T03:38:13Z</time></trkpt><trkpt lat="43.30752866633943" lon="11.523207649559815"><ele>325.6666666666667</ele><time>2026-04-11T03:38:15Z</time></trkpt><trkpt lat="43.30758285435207" lon="11.52326695030945"><ele>325.83333333333337</ele><time>2026-04-11T03:38:17Z</time></trkpt><trkpt lat="43.30763229479936" lon="11.523332892194171"><ele>326.0</ele><time>2026-04-11T03:38:19Z</time></trkpt><trkpt lat="43.30769300778319" lon="11.523393958486523"><ele>326.0</ele><time>2026-04-11T03:38:21Z</time></trkpt><trkpt lat="43.30776648041485" lon="11.523455316667842"><ele>326.0</ele><time>2026-04-11T03:38:23Z</time></trkpt><trkpt lat="43.30784177096065" lon="11.523519341082979"><ele>326.0</ele><time>2026-04-11T03:38:25Z</time></trkpt><trkpt lat="43.30800499792714" lon="11.523645880955113"><ele>326.0</ele><time>2026-04-11T03:38:29Z</time></trkpt><trkpt lat="43.308090969822636" lon="11.523705931883065"><ele>326.0</ele><time>2026-04-11T03:38:31Z</time></trkpt><trkpt lat="43.30817115197924" lon="11.523762895568863"><ele>326.0</ele><time>2026-04-11T03:38:33Z</time></trkpt><trkpt lat="43.30825538936809" lon="11.523819355859878"><ele>326.0</ele><time>2026-04-11T03:38:35Z</time></trkpt><trkpt lat="43.308338799278346" lon="11.523881061489302"><ele>326.0</ele><time>2026-04-11T03:38:37Z</time></trkpt><trkpt lat="43.30841450367566" lon="11.523954092390376"><ele>326.0</ele><time>2026-04-11T03:38:39Z</time></trkpt><trkpt lat="43.30850607308427" lon="11.524046986405411"><ele>326.0</ele><time>2026-04-11T03:38:41Z</time></trkpt><trkpt lat="43.30858674236754" lon="11.524167917941949"><ele>326.0</ele><time>2026-04-11T03:38:43Z</time></trkpt><trkpt lat="43.30866105471106" lon="11.524292860671542"><ele>326.0</ele><time>2026-04-11T03:38:45Z</time></trkpt><trkpt lat="43.308753866066745" lon="11.524374793477357"><ele>326.0</ele><time>2026-04-11T03:38:47Z</time></trkpt><trkpt lat="43.308884573501075" lon="11.524232814548764"><ele>326.0</ele><time>2026-04-11T03:38:50Z</time></trkpt><trkpt lat="43.308891812265834" lon="11.52412303691628"><ele>326.0</ele><time>2026-04-11T03:38:51Z</time></trkpt><trkpt lat="43.30890202903036" lon="11.52402309838875"><ele>326.0</ele><time>2026-04-11T03:38:52Z</time></trkpt><trkpt lat="43.30890758640851" lon="11.523918883165596"><ele>326.0</ele><time>2026-04-11T03:38:53Z</time></trkpt><trkpt lat="43.30890912169607" lon="11.523814038205415"><ele>326.0</ele><time>2026-04-11T03:38:54Z</time></trkpt><trkpt lat="43.308895026986704" lon="11.523704249117593"><ele>326.0</ele><time>2026-04-11T03:38:55Z</time></trkpt><trkpt lat="43.3088786076649" lon="11.523603339521387"><ele>326.1666666666667</ele><time>2026-04-11T03:38:56Z</time></trkpt><trkpt lat="43.30885591335259" lon="11.523509158106398"><ele>326.33333333333337</ele><time>2026-04-11T03:38:57Z</time></trkpt><trkpt lat="43.30884683240439" lon="11.523405658425247"><ele>326.5</ele><time>2026-04-11T03:38:58Z</time></trkpt><trkpt lat="43.308854399487615" lon="11.5232993821628"><ele>326.6666666666667</ele><time>2026-04-11T03:38:59Z</time></trkpt><trkpt lat="43.30888879012227" lon="11.523188963201738"><ele>326.8333333333333</ele><time>2026-04-11T03:39:00Z</time></trkpt><trkpt lat="43.30893885949961" lon="11.523089085418311"><ele>327.0</ele><time>2026-04-11T03:39:01Z</time></trkpt><trkpt lat="43.3090005935789" lon="11.522998172947796"><ele>324.8</ele><time>2026-04-11T03:39:02Z</time></trkpt><trkpt lat="43.30907452578072" lon="11.522918586987828"><ele>322.6</ele><time>2026-04-11T03:39:03Z</time></trkpt><trkpt lat="43.3091537877612" lon="11.522842207181"><ele>320.40000000000003</ele><time>2026-04-11T03:39:04Z</time></trkpt><trkpt lat="43.309240025428345" lon="11.52276674261455"><ele>318.20000000000005</ele><time>2026-04-11T03:39:05Z</time></trkpt><trkpt lat="43.30933410851629" lon="11.522707654528798"><ele>316.0</ele><time>2026-04-11T03:39:06Z</time></trkpt><trkpt lat="43.30942649221553" lon="11.522649359960795"><ele>314.5</ele><time>2026-04-11T03:39:07Z</time></trkpt><trkpt lat="43.30952672129638" lon="11.522597300867941"><ele>313.0</ele><time>2026-04-11T03:39:08Z</time></trkpt><trkpt lat="43.30972586661238" lon="11.522445441245313"><ele>311.5</ele><time>2026-04-11T03:39:10Z</time></trkpt><trkpt lat="43.30975919248737" lon="11.522336568653234"><ele>310.0</ele><time>2026-04-11T03:39:11Z</time></trkpt><trkpt lat="43.30982036081388" lon="11.52222456923025"><ele>309.4</ele><time>2026-04-11T03:39:12Z</time></trkpt><trkpt lat="43.30985631464166" lon="11.52210538110234"><ele>308.8</ele><time>2026-04-11T03:39:13Z</time></trkpt><trkpt lat="43.3098712616325" lon="11.521984494262997"><ele>308.2</ele><time>2026-04-11T03:39:14Z</time></trkpt><trkpt lat="43.30987357164439" lon="11.521852885221813"><ele>307.6</ele><time>2026-04-11T03:39:15Z</time></trkpt><trkpt lat="43.309862651441605" lon="11.521720873407938"><ele>307.0</ele><time>2026-04-11T03:39:16Z</time></trkpt><trkpt lat="43.30983255847332" lon="11.521603094966473"><ele>306.6</ele><time>2026-04-11T03:39:17Z</time></trkpt><trkpt lat="43.309787368201356" lon="11.521477347084964"><ele>306.2</ele><time>2026-04-11T03:39:18Z</time></trkpt><trkpt lat="43.30974720647083" lon="11.521340697114237"><ele>305.8</ele><time>2026-04-11T03:39:19Z</time></trkpt><trkpt lat="43.309710543003554" lon="11.521239542087123"><ele>305.4</ele><time>2026-04-11T03:39:20Z</time></trkpt><trkpt lat="43.30968735487792" lon="11.521112892922147"><ele>305.0</ele><time>2026-04-11T03:39:21Z</time></trkpt><trkpt lat="43.30968813493516" lon="11.520963477768795"><ele>302.75</ele><time>2026-04-11T03:39:22Z</time></trkpt><trkpt lat="43.309695284227644" lon="11.520791828443235"><ele>300.5</ele><time>2026-04-11T03:39:23Z</time></trkpt><trkpt lat="43.30968651676687" lon="11.520642065663992"><ele>298.25</ele><time>2026-04-11T03:39:24Z</time></trkpt><trkpt lat="43.30967326140913" lon="11.520495201482936"><ele>296.0</ele><time>2026-04-11T03:39:25Z</time></trkpt><trkpt lat="43.30965646972641" lon="11.520340807861407"><ele>296.0</ele><time>2026-04-11T03:39:26Z</time></trkpt><trkpt lat="43.30965258294202" lon="11.520176811466781"><ele>296.0</ele><time>2026-04-11T03:39:27Z</time></trkpt><trkpt lat="43.309650090221346" lon="11.5200085908021"><ele>296.0</ele><time>2026-04-11T03:39:28Z</time></trkpt><trkpt lat="43.309647949949685" lon="11.519853141109515"><ele>296.0</ele><time>2026-04-11T03:39:29Z</time></trkpt><trkpt lat="43.30971523968753" lon="11.519547532244971"><ele>296.0</ele><time>2026-04-11T03:39:31Z</time></trkpt><trkpt lat="43.30975947350571" lon="11.519403308771768"><ele>296.0</ele><time>2026-04-11T03:39:32Z</time></trkpt><trkpt lat="43.309812214653945" lon="11.519261093044433"><ele>296.0</ele><time>2026-04-11T03:39:33Z</time></trkpt><trkpt lat="43.3098684817564" lon="11.519127633775874"><ele>296.0</ele><time>2026-04-11T03:39:34Z</time></trkpt><trkpt lat="43.30991181461053" lon="11.518993418130309"><ele>296.0</ele><time>2026-04-11T03:39:35Z</time></trkpt><trkpt lat="43.30994084833336" lon="11.518862808546022"><ele>295.8</ele><time>2026-04-11T03:39:36Z</time></trkpt><trkpt lat="43.30994429669989" lon="11.518715679712292"><ele>295.6</ele><time>2026-04-11T03:39:37Z</time></trkpt><trkpt lat="43.309924222557626" lon="11.518618331498581"><ele>295.4</ele><time>2026-04-11T03:39:38Z</time></trkpt><trkpt lat="43.30990510384618" lon="11.51849131017969"><ele>295.2</ele><time>2026-04-11T03:39:39Z</time></trkpt><trkpt lat="43.30987738644056" lon="11.518355921598646"><ele>295.0</ele><time>2026-04-11T03:39:40Z</time></trkpt><trkpt lat="43.30984496736911" lon="11.518225698050587"><ele>295.0</ele><time>2026-04-11T03:39:41Z</time></trkpt><trkpt lat="43.309807487468646" lon="11.518097508299409"><ele>295.0</ele><time>2026-04-11T03:39:42Z</time></trkpt><trkpt lat="43.30976964223955" lon="11.517975236252905"><ele>295.0</ele><time>2026-04-11T03:39:43Z</time></trkpt><trkpt lat="43.30971587524562" lon="11.517868371308968"><ele>295.0</ele><time>2026-04-11T03:39:44Z</time></trkpt><trkpt lat="43.309649614686435" lon="11.517764103256011"><ele>295.0</ele><time>2026-04-11T03:39:45Z</time></trkpt><trkpt lat="43.30957955378807" lon="11.51766770499635"><ele>294.0</ele><time>2026-04-11T03:39:46Z</time></trkpt><trkpt lat="43.30950973083958" lon="11.51757290071628"><ele>293.0</ele><time>2026-04-11T03:39:47Z</time></trkpt><trkpt lat="43.30943110293465" lon="11.517480143924578"><ele>292.0</ele><time>2026-04-11T03:39:48Z</time></trkpt><trkpt lat="43.30935353926829" lon="11.5173997767342"><ele>291.0</ele><time>2026-04-11T03:39:49Z</time></trkpt><trkpt lat="43.30929348403558" lon="11.517324159529926"><ele>290.0</ele><time>2026-04-11T03:39:50Z</time></trkpt><trkpt lat="43.309191111578045" lon="11.517079123141752"><ele>290.6666666666667</ele><time>2026-04-11T03:39:52Z</time></trkpt><trkpt lat="43.30916606093799" lon="11.516955109844915"><ele>291.33333333333337</ele><time>2026-04-11T03:39:53Z</time></trkpt><trkpt lat="43.30916927346022" lon="11.516835504190984"><ele>292.0</ele><time>2026-04-11T03:39:54Z</time></trkpt><trkpt lat="43.30918288679826" lon="11.51672087185947"><ele>292.6666666666667</ele><time>2026-04-11T03:39:55Z</time></trkpt><trkpt lat="43.309217934151214" lon="11.516609915827157"><ele>293.3333333333333</ele><time>2026-04-11T03:39:56Z</time></trkpt><trkpt lat="43.30927627376959" lon="11.516525533062339"><ele>294.0</ele><time>2026-04-11T03:39:57Z</time></trkpt><trkpt lat="43.30934231031882" lon="11.516462112022937"><ele>294.0</ele><time>2026-04-11T03:39:58Z</time></trkpt><trkpt lat="43.3094036451653" lon="11.516395466015986"><ele>294.0</ele><time>2026-04-11T03:39:59Z</time></trkpt><trkpt lat="43.309457335196996" lon="11.516318306882692"><ele>294.0</ele><time>2026-04-11T03:40:00Z</time></trkpt><trkpt lat="43.30950911322536" lon="11.516234011237476"><ele>294.0</ele><time>2026-04-11T03:40:01Z</time></trkpt><trkpt lat="43.309573091691725" lon="11.516152634661175"><ele>294.0</ele><time>2026-04-11T03:40:02Z</time></trkpt><trkpt lat="43.30963674691786" lon="11.516073792322233"><ele>294.0</ele><time>2026-04-11T03:40:03Z</time></trkpt><trkpt lat="43.30970634056172" lon="11.515995953444202"><ele>293.0</ele><time>2026-04-11T03:40:04Z</time></trkpt><trkpt lat="43.30977161523918" lon="11.515911036339189"><ele>292.0</ele><time>2026-04-11T03:40:05Z</time></trkpt><trkpt lat="43.30983706733928" lon="11.51581865788371"><ele>291.0</ele><time>2026-04-11T03:40:06Z</time></trkpt><trkpt lat="43.30990891267582" lon="11.515729392784143"><ele>290.0</ele><time>2026-04-11T03:40:07Z</time></trkpt><trkpt lat="43.309981701665485" lon="11.515644295710093"><ele>289.0</ele><time>2026-04-11T03:40:08Z</time></trkpt><trkpt lat="43.31005919570467" lon="11.51556421134696"><ele>289.0</ele><time>2026-04-11T03:40:09Z</time></trkpt><trkpt lat="43.31014561526637" lon="11.515493928137118"><ele>289.0</ele><time>2026-04-11T03:40:10Z</time></trkpt><trkpt lat="43.31023527252937" lon="11.515430446687812"><ele>289.0</ele><time>2026-04-11T03:40:11Z</time></trkpt><trkpt lat="43.31043813124768" lon="11.51533350008303"><ele>289.0</ele><time>2026-04-11T03:40:13Z</time></trkpt><trkpt lat="43.31053946875195" lon="11.515290027752833"><ele>287.8</ele><time>2026-04-11T03:40:14Z</time></trkpt><trkpt lat="43.310645272104274" lon="11.515255164202221"><ele>286.59999999999997</ele><time>2026-04-11T03:40:15Z</time></trkpt><trkpt lat="43.31074939608358" lon="11.515221125603464"><ele>285.4</ele><time>2026-04-11T03:40:16Z</time></trkpt><trkpt lat="43.31085273383744" lon="11.515192894806189"><ele>284.2</ele><time>2026-04-11T03:40:17Z</time></trkpt><trkpt lat="43.310960528857336" lon="11.515166857164388"><ele>283.0</ele><time>2026-04-11T03:40:18Z</time></trkpt><trkpt lat="43.31106158555011" lon="11.51515196130439"><ele>283.0</ele><time>2026-04-11T03:40:19Z</time></trkpt><trkpt lat="43.31115766872408" lon="11.515143746866025"><ele>283.0</ele><time>2026-04-11T03:40:20Z</time></trkpt><trkpt lat="43.31124947248986" lon="11.51514405018937"><ele>283.0</ele><time>2026-04-11T03:40:21Z</time></trkpt><trkpt lat="43.31133686905177" lon="11.515144237113324"><ele>283.0</ele><time>2026-04-11T03:40:22Z</time></trkpt><trkpt lat="43.311418363063076" lon="11.515149180756493"><ele>283.0</ele><time>2026-04-11T03:40:23Z</time></trkpt><trkpt lat="43.31150146218582" lon="11.515161319507131"><ele>283.0</ele><time>2026-04-11T03:40:24Z</time></trkpt><trkpt lat="43.311576248264316" lon="11.515159901886419"><ele>284.6</ele><time>2026-04-11T03:40:25Z</time></trkpt><trkpt lat="43.31164871296096" lon="11.515155569780772"><ele>286.20000000000005</ele><time>2026-04-11T03:40:26Z</time></trkpt><trkpt lat="43.31171915928352" lon="11.515155001905198"><ele>287.8</ele><time>2026-04-11T03:40:27Z</time></trkpt><trkpt lat="43.3118459440225" lon="11.515141680528856"><ele>289.40000000000003</ele><time>2026-04-11T03:40:29Z</time></trkpt><trkpt lat="43.31195611982239" lon="11.515075285725615"><ele>291.0</ele><time>2026-04-11T03:40:31Z</time></trkpt><trkpt lat="43.312046073716886" lon="11.514982907064024"><ele>291.0</ele><time>2026-04-11T03:40:33Z</time></trkpt><trkpt lat="43.312177952312275" lon="11.514764726535299"><ele>291.0</ele><time>2026-04-11T03:40:37Z</time></trkpt><trkpt lat="43.312222843837525" lon="11.514641385735697"><ele>291.0</ele><time>2026-04-11T03:40:39Z</time></trkpt><trkpt lat="43.31227464767748" lon="11.514529308310694"><ele>291.0</ele><time>2026-04-11T03:40:41Z</time></trkpt><trkpt lat="43.312333453273354" lon="11.514426767093262"><ele>292.2</ele><time>2026-04-11T03:40:43Z</time></trkpt><trkpt lat="43.31239977345625" lon="11.514335278152263"><ele>293.40000000000003</ele><time>2026-04-11T03:40:45Z</time></trkpt><trkpt lat="43.31246154142116" lon="11.514240931333786"><ele>294.6</ele><time>2026-04-11T03:40:47Z</time></trkpt><trkpt lat="43.312536068515044" lon="11.51416818675929"><ele>295.8</ele><time>2026-04-11T03:40:49Z</time></trkpt><trkpt lat="43.312616247059466" lon="11.514098769264189"><ele>297.0</ele><time>2026-04-11T03:40:51Z</time></trkpt><trkpt lat="43.31269901583855" lon="11.51401941523863"><ele>297.0</ele><time>2026-04-11T03:40:53Z</time></trkpt><trkpt lat="43.31279329914188" lon="11.513959205400322"><ele>297.0</ele><time>2026-04-11T03:40:55Z</time></trkpt><trkpt lat="43.31298084219867" lon="11.513874318666222"><ele>297.0</ele><time>2026-04-11T03:40:59Z</time></trkpt><trkpt lat="43.31306692800132" lon="11.513851144988514"><ele>297.0</ele><time>2026-04-11T03:41:01Z</time></trkpt><trkpt lat="43.313139035481996" lon="11.513850807123674"><ele>297.2857142857143</ele><time>2026-04-11T03:41:03Z</time></trkpt><trkpt lat="43.31320899941631" lon="11.513861624672625"><ele>297.5714285714286</ele><time>2026-04-11T03:41:05Z</time></trkpt><trkpt lat="43.313278337272564" lon="11.513887591638566"><ele>297.8571428571429</ele><time>2026-04-11T03:41:07Z</time></trkpt><trkpt lat="43.31334418494376" lon="11.513904922923025"><ele>298.14285714285717</ele><time>2026-04-11T03:41:09Z</time></trkpt><trkpt lat="43.31341061642923" lon="11.513930923537686"><ele>298.42857142857144</ele><time>2026-04-11T03:41:11Z</time></trkpt><trkpt lat="43.31347213653956" lon="11.513975591294104"><ele>298.7142857142857</ele><time>2026-04-11T03:41:13Z</time></trkpt><trkpt lat="43.31353389933766" lon="11.514025934831563"><ele>299.0</ele><time>2026-04-11T03:41:15Z</time></trkpt><trkpt lat="43.31359471321822" lon="11.514069060996395"><ele>299.0</ele><time>2026-04-11T03:41:17Z</time></trkpt><trkpt lat="43.31371817046893" lon="11.51415955804323"><ele>299.0</ele><time>2026-04-11T03:41:21Z</time></trkpt><trkpt lat="43.313774747692484" lon="11.514224609132928"><ele>299.0</ele><time>2026-04-11T03:41:23Z</time></trkpt><trkpt lat="43.313837961610204" lon="11.514286421861216"><ele>299.0</ele><time>2026-04-11T03:41:25Z</time></trkpt><trkpt lat="43.31389850892191" lon="11.514357745388459"><ele>299.0</ele><time>2026-04-11T03:41:27Z</time></trkpt><trkpt lat="43.31396330598873" lon="11.514435586918433"><ele>299.0</ele><time>2026-04-11T03:41:29Z</time></trkpt><trkpt lat="43.31403244305184" lon="11.514522391698627"><ele>299.0</ele><time>2026-04-11T03:41:31Z</time></trkpt><trkpt lat="43.31411375701362" lon="11.514602444500364"><ele>299.0</ele><time>2026-04-11T03:41:33Z</time></trkpt><trkpt lat="43.314215200244654" lon="11.514658854227571"><ele>299.0</ele><time>2026-04-11T03:41:35Z</time></trkpt><trkpt lat="43.314319734278236" lon="11.514666001448429"><ele>299.0</ele><time>2026-04-11T03:41:37Z</time></trkpt><trkpt lat="43.31442216437455" lon="11.51460890601571"><ele>299.2</ele><time>2026-04-11T03:41:39Z</time></trkpt><trkpt lat="43.314599485797885" lon="11.514382484415572"><ele>299.4</ele><time>2026-04-11T03:41:43Z</time></trkpt><trkpt lat="43.31463613095449" lon="11.514307230779528"><ele>299.6</ele><time>2026-04-11T03:41:44Z</time></trkpt><trkpt lat="43.31466514681862" lon="11.514227363309683"><ele>299.8</ele><time>2026-04-11T03:41:45Z</time></trkpt><trkpt lat="43.31470052718131" lon="11.5141475005461"><ele>300.0</ele><time>2026-04-11T03:41:46Z</time></trkpt><trkpt lat="43.314745501926026" lon="11.514070657100772"><ele>300.6666666666667</ele><time>2026-04-11T03:41:47Z</time></trkpt><trkpt lat="43.31480033468171" lon="11.513997766001243"><ele>301.3333333333333</ele><time>2026-04-11T03:41:48Z</time></trkpt><trkpt lat="43.31487138502639" lon="11.513938121707913"><ele>302.0</ele><time>2026-04-11T03:41:49Z</time></trkpt><trkpt lat="43.31495517637352" lon="11.513896362106413"><ele>302.66666666666663</ele><time>2026-04-11T03:41:50Z</time></trkpt><trkpt lat="43.315047526036" lon="11.513882829897625"><ele>303.3333333333333</ele><time>2026-04-11T03:41:51Z</time></trkpt><trkpt lat="43.31514259651715" lon="11.51388118361186"><ele>304.0</ele><time>2026-04-11T03:41:52Z</time></trkpt><trkpt lat="43.31524043221954" lon="11.513882242533349"><ele>304.0</ele><time>2026-04-11T03:41:53Z</time></trkpt><trkpt lat="43.31533292995934" lon="11.51388367057721"><ele>304.0</ele><time>2026-04-11T03:41:54Z</time></trkpt><trkpt lat="43.31541826256854" lon="11.51390873174813"><ele>304.0</ele><time>2026-04-11T03:41:55Z</time></trkpt><trkpt lat="43.315492242806805" lon="11.513959303683485"><ele>304.0</ele><time>2026-04-11T03:41:56Z</time></trkpt><trkpt lat="43.31554625304163" lon="11.514042413311575"><ele>304.0</ele><time>2026-04-11T03:41:57Z</time></trkpt><trkpt lat="43.31557196383638" lon="11.514146227302044"><ele>304.0</ele><time>2026-04-11T03:41:58Z</time></trkpt><trkpt lat="43.31557547825014" lon="11.514256254411816"><ele>304.0</ele><time>2026-04-11T03:41:59Z</time></trkpt><trkpt lat="43.315566811827274" lon="11.514347517541694"><ele>304.0</ele><time>2026-04-11T03:42:00Z</time></trkpt><trkpt lat="43.31557809633875" lon="11.514522607686743"><ele>304.0</ele><time>2026-04-11T03:42:02Z</time></trkpt><trkpt lat="43.31559403224055" lon="11.51460809706709"><ele>304.0</ele><time>2026-04-11T03:42:03Z</time></trkpt><trkpt lat="43.315611240586506" lon="11.514693672302917"><ele>304.0</ele><time>2026-04-11T03:42:04Z</time></trkpt><trkpt lat="43.315636681666966" lon="11.514778965483004"><ele>304.0</ele><time>2026-04-11T03:42:05Z</time></trkpt><trkpt lat="43.315669001793495" lon="11.514857866620943"><ele>303.2857142857143</ele><time>2026-04-11T03:42:06Z</time></trkpt><trkpt lat="43.31570521760967" lon="11.514937316495832"><ele>302.5714285714286</ele><time>2026-04-11T03:42:07Z</time></trkpt><trkpt lat="43.31574336144426" lon="11.515010525337527"><ele>301.8571428571429</ele><time>2026-04-11T03:42:08Z</time></trkpt><trkpt lat="43.315786046242614" lon="11.515077970214668"><ele>301.1428571428571</ele><time>2026-04-11T03:42:09Z</time></trkpt><trkpt lat="43.315833302844844" lon="11.515139792632144"><ele>300.42857142857144</ele><time>2026-04-11T03:42:10Z</time></trkpt><trkpt lat="43.31588499159298" lon="11.515192461292814"><ele>299.7142857142857</ele><time>2026-04-11T03:42:11Z</time></trkpt><trkpt lat="43.3159451861264" lon="11.515234636434688"><ele>299.0</ele><time>2026-04-11T03:42:12Z</time></trkpt><trkpt lat="43.316004681462495" lon="11.515268800615646"><ele>299.0</ele><time>2026-04-11T03:42:13Z</time></trkpt><trkpt lat="43.316067669992584" lon="11.515286217913765"><ele>299.0</ele><time>2026-04-11T03:42:14Z</time></trkpt><trkpt lat="43.31613326752643" lon="11.515297364874485"><ele>299.0</ele><time>2026-04-11T03:42:15Z</time></trkpt><trkpt lat="43.316249314290495" lon="11.515271304156572"><ele>299.0</ele><time>2026-04-11T03:42:17Z</time></trkpt><trkpt lat="43.31631601023627" lon="11.515255051044598"><ele>299.0</ele><time>2026-04-11T03:42:18Z</time></trkpt><trkpt lat="43.31638268501075" lon="11.515246003883702"><ele>299.0</ele><time>2026-04-11T03:42:19Z</time></trkpt><trkpt lat="43.316501824657756" lon="11.515203125687092"><ele>299.33333333333337</ele><time>2026-04-11T03:42:21Z</time></trkpt><trkpt lat="43.31674057186138" lon="11.515101399808243"><ele>299.6666666666667</ele><time>2026-04-11T03:42:25Z</time></trkpt><trkpt lat="43.31685417937823" lon="11.515042096349308"><ele>300.0</ele><time>2026-04-11T03:42:27Z</time></trkpt><trkpt lat="43.31697014912374" lon="11.514993682468726"><ele>300.0</ele><time>2026-04-11T03:42:29Z</time></trkpt><trkpt lat="43.31708055950868" lon="11.514942062907918"><ele>300.0</ele><time>2026-04-11T03:42:31Z</time></trkpt><trkpt lat="43.31719364992727" lon="11.514897498168212"><ele>300.0</ele><time>2026-04-11T03:42:33Z</time></trkpt><trkpt lat="43.31730500097172" lon="11.514850240364106"><ele>300.0</ele><time>2026-04-11T03:42:35Z</time></trkpt><trkpt lat="43.31740754766879" lon="11.514778838877112"><ele>300.25</ele><time>2026-04-11T03:42:37Z</time></trkpt><trkpt lat="43.31748217898179" lon="11.514665803975028"><ele>300.5</ele><time>2026-04-11T03:42:39Z</time></trkpt><trkpt lat="43.317552142415806" lon="11.514530973741072"><ele>300.75</ele><time>2026-04-11T03:42:41Z</time></trkpt><trkpt lat="43.31757481763371" lon="11.514449019472313"><ele>301.0</ele><time>2026-04-11T03:42:42Z</time></trkpt><trkpt lat="43.317651500763056" lon="11.514205744203757"><ele>301.0</ele><time>2026-04-11T03:42:45Z</time></trkpt><trkpt lat="43.3176724991497" lon="11.514113208482112"><ele>301.0</ele><time>2026-04-11T03:42:46Z</time></trkpt><trkpt lat="43.31768755225314" lon="11.514020721280767"><ele>301.0</ele><time>2026-04-11T03:42:47Z</time></trkpt><trkpt lat="43.31770078393719" lon="11.513923348313426"><ele>301.0</ele><time>2026-04-11T03:42:48Z</time></trkpt><trkpt lat="43.31772134296581" lon="11.513830420527167"><ele>301.0</ele><time>2026-04-11T03:42:49Z</time></trkpt><trkpt lat="43.31774577217339" lon="11.513733786644844"><ele>301.0</ele><time>2026-04-11T03:42:50Z</time></trkpt><trkpt lat="43.31777957429447" lon="11.513648036056594"><ele>301.0</ele><time>2026-04-11T03:42:51Z</time></trkpt><trkpt lat="43.3178325417534" lon="11.513572127145602"><ele>300.5</ele><time>2026-04-11T03:42:52Z</time></trkpt><trkpt lat="43.31789530211132" lon="11.51350754664838"><ele>300.0</ele><time>2026-04-11T03:42:53Z</time></trkpt><trkpt lat="43.31795837025464" lon="11.513452846793328"><ele>299.5</ele><time>2026-04-11T03:42:54Z</time></trkpt><trkpt lat="43.31803377094051" lon="11.513421447246097"><ele>299.0</ele><time>2026-04-11T03:42:55Z</time></trkpt><trkpt lat="43.31811570327883" lon="11.513406229709487"><ele>298.5</ele><time>2026-04-11T03:42:56Z</time></trkpt><trkpt lat="43.31819462894385" lon="11.513385666280046"><ele>298.0</ele><time>2026-04-11T03:42:57Z</time></trkpt><trkpt lat="43.31827631447657" lon="11.513372955356154"><ele>298.0</ele><time>2026-04-11T03:42:58Z</time></trkpt><trkpt lat="43.318355646487674" lon="11.513376185538421"><ele>298.0</ele><time>2026-04-11T03:42:59Z</time></trkpt><trkpt lat="43.31843036841712" lon="11.513391665657624"><ele>298.0</ele><time>2026-04-11T03:43:00Z</time></trkpt><trkpt lat="43.31850801015565" lon="11.513427673863598"><ele>298.0</ele><time>2026-04-11T03:43:01Z</time></trkpt><trkpt lat="43.318580344213096" lon="11.513477828075212"><ele>298.0</ele><time>2026-04-11T03:43:02Z</time></trkpt><trkpt lat="43.31864143233866" lon="11.513542198394386"><ele>298.0</ele><time>2026-04-11T03:43:03Z</time></trkpt><trkpt lat="43.318724919392295" lon="11.513718518090503"><ele>298.3333333333333</ele><time>2026-04-11T03:43:05Z</time></trkpt><trkpt lat="43.3187487654862" lon="11.51381463453498"><ele>298.66666666666663</ele><time>2026-04-11T03:43:06Z</time></trkpt><trkpt lat="43.318755769878244" lon="11.513926390519774"><ele>299.0</ele><time>2026-04-11T03:43:07Z</time></trkpt><trkpt lat="43.3187499059501" lon="11.514024004255031"><ele>299.3333333333333</ele><time>2026-04-11T03:43:08Z</time></trkpt><trkpt lat="43.31873454745181" lon="11.51412768981043"><ele>299.6666666666667</ele><time>2026-04-11T03:43:09Z</time></trkpt><trkpt lat="43.318708673266755" lon="11.514231573205075"><ele>300.0</ele><time>2026-04-11T03:43:10Z</time></trkpt><trkpt lat="43.318664727105336" lon="11.51432366689563"><ele>299.99999999999994</ele><time>2026-04-11T03:43:11Z</time></trkpt><trkpt lat="43.318614669440606" lon="11.514404753095677"><ele>300.0</ele><time>2026-04-11T03:43:12Z</time></trkpt><trkpt lat="43.31855467499804" lon="11.514471524846735"><ele>300.0</ele><time>2026-04-11T03:43:13Z</time></trkpt><trkpt lat="43.31849364871965" lon="11.514529615063946"><ele>300.0</ele><time>2026-04-11T03:43:14Z</time></trkpt><trkpt lat="43.31843650987042" lon="11.514590163088513"><ele>300.0</ele><time>2026-04-11T03:43:15Z</time></trkpt><trkpt lat="43.31838177059197" lon="11.514656820703378"><ele>299.99999999999994</ele><time>2026-04-11T03:43:16Z</time></trkpt><trkpt lat="43.31834371082858" lon="11.514742603934126"><ele>300.0</ele><time>2026-04-11T03:43:17Z</time></trkpt><trkpt lat="43.31832438828737" lon="11.514829879196713"><ele>299.6666666666667</ele><time>2026-04-11T03:43:18Z</time></trkpt><trkpt lat="43.3183352809001" lon="11.514915942841366"><ele>299.3333333333333</ele><time>2026-04-11T03:43:19Z</time></trkpt><trkpt lat="43.31842131790496" lon="11.515011860962632"><ele>299.0</ele><time>2026-04-11T03:43:21Z</time></trkpt><trkpt lat="43.318488822892" lon="11.514994847845701"><ele>298.66666666666663</ele><time>2026-04-11T03:43:22Z</time></trkpt><trkpt lat="43.31854420156668" lon="11.514932364173438"><ele>298.3333333333333</ele><time>2026-04-11T03:43:23Z</time></trkpt><trkpt lat="43.3185916983081" lon="11.514871521483798"><ele>298.0</ele><time>2026-04-11T03:43:24Z</time></trkpt><trkpt lat="43.31866670903985" lon="11.514720109217585"><ele>298.0</ele><time>2026-04-11T03:43:26Z</time></trkpt><trkpt lat="43.31871156179662" lon="11.514646021979964"><ele>298.0</ele><time>2026-04-11T03:43:27Z</time></trkpt><trkpt lat="43.31876501583129" lon="11.514575442352797"><ele>298.0</ele><time>2026-04-11T03:43:28Z</time></trkpt><trkpt lat="43.31880964318463" lon="11.514501835442486"><ele>298.0</ele><time>2026-04-11T03:43:29Z</time></trkpt><trkpt lat="43.31885884708407" lon="11.514431812558046"><ele>298.0</ele><time>2026-04-11T03:43:30Z</time></trkpt><trkpt lat="43.31890221630903" lon="11.514359076746043"><ele>298.0</ele><time>2026-04-11T03:43:31Z</time></trkpt><trkpt lat="43.318945788901196" lon="11.514285846541263"><ele>298.0</ele><time>2026-04-11T03:43:32Z</time></trkpt><trkpt lat="43.31897828899999" lon="11.514198932405126"><ele>297.16666666666663</ele><time>2026-04-11T03:43:33Z</time></trkpt><trkpt lat="43.31899178819661" lon="11.51410090826674"><ele>296.3333333333333</ele><time>2026-04-11T03:43:34Z</time></trkpt><trkpt lat="43.31899424698423" lon="11.513997900684885"><ele>295.5</ele><time>2026-04-11T03:43:35Z</time></trkpt><trkpt lat="43.318990327133584" lon="11.513892666050246"><ele>294.6666666666667</ele><time>2026-04-11T03:43:36Z</time></trkpt><trkpt lat="43.31898876306185" lon="11.51379197506525"><ele>293.83333333333337</ele><time>2026-04-11T03:43:37Z</time></trkpt><trkpt lat="43.31898391222897" lon="11.513683865214954"><ele>293.0</ele><time>2026-04-11T03:43:38Z</time></trkpt><trkpt lat="43.318977184121344" lon="11.513574450792323"><ele>292.4</ele><time>2026-04-11T03:43:39Z</time></trkpt><trkpt lat="43.3189796697259" lon="11.513455824629764"><ele>291.8</ele><time>2026-04-11T03:43:40Z</time></trkpt><trkpt lat="43.31899634087684" lon="11.51333492674194"><ele>291.2</ele><time>2026-04-11T03:43:41Z</time></trkpt><trkpt lat="43.319032216893376" lon="11.513221239713385"><ele>290.6</ele><time>2026-04-11T03:43:42Z</time></trkpt><trkpt lat="43.31907855211533" lon="11.513109469755411"><ele>290.0</ele><time>2026-04-11T03:43:43Z</time></trkpt><trkpt lat="43.319132412177986" lon="11.513001566818017"><ele>287.75</ele><time>2026-04-11T03:43:44Z</time></trkpt><trkpt lat="43.31918618915612" lon="11.512896459194112"><ele>285.5</ele><time>2026-04-11T03:43:45Z</time></trkpt><trkpt lat="43.31923896209394" lon="11.51263939395616"><ele>283.25</ele><time>2026-04-11T03:43:47Z</time></trkpt><trkpt lat="43.319243197514865" lon="11.512475135728623"><ele>281.0</ele><time>2026-04-11T03:43:48Z</time></trkpt><trkpt lat="43.31924930412809" lon="11.512302922969134"><ele>281.0</ele><time>2026-04-11T03:43:49Z</time></trkpt><trkpt lat="43.31923905925132" lon="11.512125277732526"><ele>281.0</ele><time>2026-04-11T03:43:50Z</time></trkpt><trkpt lat="43.31922452243787" lon="11.511963683243481"><ele>281.0</ele><time>2026-04-11T03:43:51Z</time></trkpt><trkpt lat="43.31919895975195" lon="11.511803805478033"><ele>281.0</ele><time>2026-04-11T03:43:52Z</time></trkpt><trkpt lat="43.319175798099785" lon="11.51164648905035"><ele>279.0</ele><time>2026-04-11T03:43:53Z</time></trkpt><trkpt lat="43.31915220219486" lon="11.511495963516776"><ele>277.0</ele><time>2026-04-11T03:43:54Z</time></trkpt><trkpt lat="43.3191216760021" lon="11.511344386974491"><ele>275.0</ele><time>2026-04-11T03:43:55Z</time></trkpt><trkpt lat="43.31910885013501" lon="11.51118325733328"><ele>273.0</ele><time>2026-04-11T03:43:56Z</time></trkpt><trkpt lat="43.319105387630835" lon="11.511016221015561"><ele>270.75</ele><time>2026-04-11T03:43:57Z</time></trkpt><trkpt lat="43.3191144479183" lon="11.51084550545734"><ele>268.5</ele><time>2026-04-11T03:43:58Z</time></trkpt><trkpt lat="43.31914115323428" lon="11.510692807370912"><ele>266.25</ele><time>2026-04-11T03:43:59Z</time></trkpt><trkpt lat="43.31918495641175" lon="11.510554388223548"><ele>264.0</ele><time>2026-04-11T03:44:00Z</time></trkpt><trkpt lat="43.31924102939826" lon="11.510430459798886"><ele>261.5</ele><time>2026-04-11T03:44:01Z</time></trkpt><trkpt lat="43.31931794592402" lon="11.510313274371239"><ele>259.0</ele><time>2026-04-11T03:44:02Z</time></trkpt><trkpt lat="43.319402148952044" lon="11.510191819955601"><ele>256.5</ele><time>2026-04-11T03:44:03Z</time></trkpt><trkpt lat="43.3194773050806" lon="11.510067641263996"><ele>254.0</ele><time>2026-04-11T03:44:04Z</time></trkpt><trkpt lat="43.31955116703831" lon="11.509943927935483"><ele>254.0</ele><time>2026-04-11T03:44:05Z</time></trkpt><trkpt lat="43.31961620155959" lon="11.509823749673092"><ele>254.0</ele><time>2026-04-11T03:44:06Z</time></trkpt><trkpt lat="43.319724694057925" lon="11.509571642885906"><ele>254.0</ele><time>2026-04-11T03:44:08Z</time></trkpt><trkpt lat="43.31976518339168" lon="11.509411503698063"><ele>254.0</ele><time>2026-04-11T03:44:09Z</time></trkpt><trkpt lat="43.319795468992645" lon="11.509262812631185"><ele>252.25</ele><time>2026-04-11T03:44:10Z</time></trkpt><trkpt lat="43.319818542179604" lon="11.509111739035067"><ele>250.5</ele><time>2026-04-11T03:44:11Z</time></trkpt><trkpt lat="43.31983138423835" lon="11.508961040386689"><ele>248.75</ele><time>2026-04-11T03:44:12Z</time></trkpt><trkpt lat="43.319845626530174" lon="11.508797515904835"><ele>247.0</ele><time>2026-04-11T03:44:13Z</time></trkpt><trkpt lat="43.31985081048589" lon="11.508629237752066"><ele>247.0</ele><time>2026-04-11T03:44:14Z</time></trkpt><trkpt lat="43.31984379582804" lon="11.508464451217346"><ele>247.0</ele><time>2026-04-11T03:44:15Z</time></trkpt><trkpt lat="43.319826201622355" lon="11.508305578045295"><ele>247.0</ele><time>2026-04-11T03:44:16Z</time></trkpt><trkpt lat="43.31980502903408" lon="11.508155073593155"><ele>247.0</ele><time>2026-04-11T03:44:17Z</time></trkpt><trkpt lat="43.319786282695986" lon="11.508006341655104"><ele>246.6</ele><time>2026-04-11T03:44:18Z</time></trkpt><trkpt lat="43.31977363531968" lon="11.507854797061135"><ele>246.2</ele><time>2026-04-11T03:44:19Z</time></trkpt><trkpt lat="43.31975685587157" lon="11.50770018692465"><ele>245.8</ele><time>2026-04-11T03:44:20Z</time></trkpt><trkpt lat="43.31974687492987" lon="11.507554235320624"><ele>245.4</ele><time>2026-04-11T03:44:21Z</time></trkpt><trkpt lat="43.319734990840075" lon="11.50741843344107"><ele>245.0</ele><time>2026-04-11T03:44:22Z</time></trkpt><trkpt lat="43.31972590586658" lon="11.507280290607493"><ele>247.8</ele><time>2026-04-11T03:44:23Z</time></trkpt><trkpt lat="43.319717579048444" lon="11.507141613148812"><ele>250.6</ele><time>2026-04-11T03:44:24Z</time></trkpt><trkpt lat="43.31971485281443" lon="11.507010718058918"><ele>253.39999999999998</ele><time>2026-04-11T03:44:25Z</time></trkpt><trkpt lat="43.31970391658616" lon="11.50687809149209"><ele>256.2</ele><time>2026-04-11T03:44:26Z</time></trkpt><trkpt lat="43.31969111310711" lon="11.50675407950378"><ele>259.0</ele><time>2026-04-11T03:44:27Z</time></trkpt><trkpt lat="43.319672890574566" lon="11.506530325839382"><ele>259.0</ele><time>2026-04-11T03:44:29Z</time></trkpt><trkpt lat="43.31967216887098" lon="11.506423205846321"><ele>259.0</ele><time>2026-04-11T03:44:30Z</time></trkpt><trkpt lat="43.31968295583728" lon="11.50632754310659"><ele>259.0</ele><time>2026-04-11T03:44:31Z</time></trkpt><trkpt lat="43.3197088035602" lon="11.506238224038578"><ele>259.0</ele><time>2026-04-11T03:44:32Z</time></trkpt><trkpt lat="43.31975038102921" lon="11.50616237570043"><ele>259.0</ele><time>2026-04-11T03:44:33Z</time></trkpt><trkpt lat="43.31979872259676" lon="11.506098956678816"><ele>259.0</ele><time>2026-04-11T03:44:34Z</time></trkpt><trkpt lat="43.31990456672858" lon="11.506030027840907"><ele>256.0</ele><time>2026-04-11T03:44:36Z</time></trkpt><trkpt lat="43.320009570677556" lon="11.505989305928855"><ele>252.99999999999997</ele><time>2026-04-11T03:44:38Z</time></trkpt><trkpt lat="43.320112079818045" lon="11.50595592684474"><ele>249.99999999999997</ele><time>2026-04-11T03:44:40Z</time></trkpt><trkpt lat="43.320213822286746" lon="11.505924145197833"><ele>247.0</ele><time>2026-04-11T03:44:42Z</time></trkpt><trkpt lat="43.320318557451344" lon="11.5058889251319"><ele>244.0</ele><time>2026-04-11T03:44:44Z</time></trkpt><trkpt lat="43.32042300585687" lon="11.505844812889809"><ele>244.0</ele><time>2026-04-11T03:44:46Z</time></trkpt><trkpt lat="43.32053622615131" lon="11.505804195799028"><ele>244.0</ele><time>2026-04-11T03:44:48Z</time></trkpt><trkpt lat="43.32076894905066" lon="11.505716517954436"><ele>244.0</ele><time>2026-04-11T03:44:52Z</time></trkpt><trkpt lat="43.32089013058089" lon="11.50569061379348"><ele>244.6</ele><time>2026-04-11T03:44:54Z</time></trkpt><trkpt lat="43.32100704647603" lon="11.505682112813556"><ele>245.2</ele><time>2026-04-11T03:44:56Z</time></trkpt><trkpt lat="43.32112156323632" lon="11.50569454649299"><ele>245.79999999999998</ele><time>2026-04-11T03:44:58Z</time></trkpt><trkpt lat="43.32122935585148" lon="11.505738488998935"><ele>246.39999999999998</ele><time>2026-04-11T03:45:00Z</time></trkpt><trkpt lat="43.321320767486284" lon="11.505785315466758"><ele>247.0</ele><time>2026-04-11T03:45:02Z</time></trkpt><trkpt lat="43.32139674331437" lon="11.505853780021473"><ele>248.33333333333331</ele><time>2026-04-11T03:45:04Z</time></trkpt><trkpt lat="43.32145442184872" lon="11.505910683302947"><ele>249.66666666666666</ele><time>2026-04-11T03:45:06Z</time></trkpt><trkpt lat="43.32151154596057" lon="11.50597847799968"><ele>251.0</ele><time>2026-04-11T03:45:08Z</time></trkpt><trkpt lat="43.321558157455726" lon="11.50604139750712"><ele>252.33333333333331</ele><time>2026-04-11T03:45:10Z</time></trkpt><trkpt lat="43.32165372397833" lon="11.50617535671584"><ele>253.66666666666666</ele><time>2026-04-11T03:45:14Z</time></trkpt><trkpt lat="43.32169993461661" lon="11.50623860162335"><ele>255.0</ele><time>2026-04-11T03:45:16Z</time></trkpt><trkpt lat="43.32174469281465" lon="11.506302361514754"><ele>255.0</ele><time>2026-04-11T03:45:18Z</time></trkpt><trkpt lat="43.321791559785986" lon="11.50637049230185"><ele>255.00000000000003</ele><time>2026-04-11T03:45:20Z</time></trkpt><trkpt lat="43.321836362136835" lon="11.506445534145053"><ele>255.0</ele><time>2026-04-11T03:45:22Z</time></trkpt><trkpt lat="43.321891586299216" lon="11.506543238438253"><ele>255.0</ele><time>2026-04-11T03:45:25Z</time></trkpt><trkpt lat="43.3219463541696" lon="11.50659835509673"><ele>255.00000000000003</ele><time>2026-04-11T03:45:27Z</time></trkpt><trkpt lat="43.32199103353001" lon="11.50666110880988"><ele>255.0</ele><time>2026-04-11T03:45:29Z</time></trkpt><trkpt lat="43.32203950507987" lon="11.506716592457499"><ele>255.0</ele><time>2026-04-11T03:45:31Z</time></trkpt><trkpt lat="43.32214444124173" lon="11.506880640351023"><ele>255.0</ele><time>2026-04-11T03:45:36Z</time></trkpt><trkpt lat="43.322208446001" lon="11.50694868102539"><ele>255.0</ele><time>2026-04-11T03:45:39Z</time></trkpt><trkpt lat="43.32224919524192" lon="11.50701523033173"><ele>255.0</ele><time>2026-04-11T03:45:41Z</time></trkpt><trkpt lat="43.322290971315645" lon="11.507080707083507"><ele>255.0</ele><time>2026-04-11T03:45:43Z</time></trkpt><trkpt lat="43.322365044924844" lon="11.507163822445637"><ele>255.0</ele><time>2026-04-11T03:45:46Z</time></trkpt><trkpt lat="43.322416147079885" lon="11.507270717450265"><ele>255.0</ele><time>2026-04-11T03:45:49Z</time></trkpt><trkpt lat="43.322476280559826" lon="11.507358001982508"><ele>257.8</ele><time>2026-04-11T03:45:52Z</time></trkpt><trkpt lat="43.32259632126579" lon="11.507512440950915"><ele>260.6</ele><time>2026-04-11T03:45:58Z</time></trkpt><trkpt lat="43.322664980853595" lon="11.507563619882731"><ele>263.4</ele><time>2026-04-11T03:46:01Z</time></trkpt><trkpt lat="43.3227402138308" lon="11.507605151658534"><ele>266.2</ele><time>2026-04-11T03:46:04Z</time></trkpt><trkpt lat="43.32281445107802" lon="11.507637256776336"><ele>269.0</ele><time>2026-04-11T03:46:07Z</time></trkpt><trkpt lat="43.32289226944931" lon="11.50766550851001"><ele>269.0</ele><time>2026-04-11T03:46:10Z</time></trkpt><trkpt lat="43.32297112731994" lon="11.50767471143115"><ele>269.0</ele><time>2026-04-11T03:46:13Z</time></trkpt><trkpt lat="43.323080734097" lon="11.507678404883585"><ele>269.0</ele><time>2026-04-11T03:46:17Z</time></trkpt><trkpt lat="43.32323666380007" lon="11.507677829183065"><ele>269.0</ele><time>2026-04-11T03:46:23Z</time></trkpt><trkpt lat="43.323315877806955" lon="11.507673242635345"><ele>269.0</ele><time>2026-04-11T03:46:26Z</time></trkpt><trkpt lat="43.32339969360424" lon="11.507674155008615"><ele>270.2</ele><time>2026-04-11T03:46:29Z</time></trkpt><trkpt lat="43.32348330464552" lon="11.507683195541658"><ele>271.4</ele><time>2026-04-11T03:46:32Z</time></trkpt><trkpt lat="43.32356120077882" lon="11.50768546968271"><ele>272.6</ele><time>2026-04-11T03:46:35Z</time></trkpt><trkpt lat="43.32364026510488" lon="11.507715046267721"><ele>273.8</ele><time>2026-04-11T03:46:38Z</time></trkpt><trkpt lat="43.3237985523818" lon="11.507792702927224"><ele>275.0</ele><time>2026-04-11T03:46:44Z</time></trkpt><trkpt lat="43.32386637326168" lon="11.507828927934764"><ele>274.6</ele><time>2026-04-11T03:46:47Z</time></trkpt><trkpt lat="43.32392214564707" lon="11.507899971253822"><ele>274.2</ele><time>2026-04-11T03:46:50Z</time></trkpt><trkpt lat="43.323986809485" lon="11.507969467104594"><ele>273.8</ele><time>2026-04-11T03:46:53Z</time></trkpt><trkpt lat="43.32404143424586" lon="11.508045768038416"><ele>273.4</ele><time>2026-04-11T03:46:56Z</time></trkpt><trkpt lat="43.324095986179074" lon="11.508134552718362"><ele>273.0</ele><time>2026-04-11T03:46:59Z</time></trkpt><trkpt lat="43.32417715098559" lon="11.508347716213603"><ele>274.57142857142856</ele><time>2026-04-11T03:47:05Z</time></trkpt><trkpt lat="43.32422194175225" lon="11.50845731989507"><ele>276.1428571428571</ele><time>2026-04-11T03:47:08Z</time></trkpt><trkpt lat="43.32425098052262" lon="11.508534344962987"><ele>277.7142857142857</ele><time>2026-04-11T03:47:10Z</time></trkpt><trkpt lat="43.3242846743599" lon="11.508608953555006"><ele>279.2857142857143</ele><time>2026-04-11T03:47:12Z</time></trkpt><trkpt lat="43.32431693652546" lon="11.508692580235513"><ele>280.85714285714283</ele><time>2026-04-11T03:47:14Z</time></trkpt><trkpt lat="43.32434571933379" lon="11.508778253696498"><ele>282.42857142857144</ele><time>2026-04-11T03:47:16Z</time></trkpt><trkpt lat="43.324379147939325" lon="11.508855356172853"><ele>284.0</ele><time>2026-04-11T03:47:18Z</time></trkpt><trkpt lat="43.32441180908066" lon="11.50893717834012"><ele>285.33333333333337</ele><time>2026-04-11T03:47:20Z</time></trkpt><trkpt lat="43.32448146473131" lon="11.509098092839373"><ele>286.6666666666667</ele><time>2026-04-11T03:47:24Z</time></trkpt><trkpt lat="43.3245247033461" lon="11.50917040983659"><ele>288.0</ele><time>2026-04-11T03:47:26Z</time></trkpt><trkpt lat="43.32456203661381" lon="11.50924838864584"><ele>289.3333333333333</ele><time>2026-04-11T03:47:28Z</time></trkpt><trkpt lat="43.32460646492098" lon="11.509319581484387"><ele>290.66666666666663</ele><time>2026-04-11T03:47:30Z</time></trkpt><trkpt lat="43.32466167808393" lon="11.509384035270841"><ele>292.0</ele><time>2026-04-11T03:47:32Z</time></trkpt><trkpt lat="43.32472254374727" lon="11.509439784547745"><ele>291.4</ele><time>2026-04-11T03:47:34Z</time></trkpt><trkpt lat="43.324787562858496" lon="11.509483565838305"><ele>290.79999999999995</ele><time>2026-04-11T03:47:36Z</time></trkpt><trkpt lat="43.32485728489115" lon="11.50951116933057"><ele>290.2</ele><time>2026-04-11T03:47:38Z</time></trkpt><trkpt lat="43.32492664464172" lon="11.509526765423312"><ele>289.59999999999997</ele><time>2026-04-11T03:47:40Z</time></trkpt><trkpt lat="43.32506849856006" lon="11.509528778506072"><ele>289.0</ele><time>2026-04-11T03:47:44Z</time></trkpt><trkpt lat="43.32521002754372" lon="11.509488497661096"><ele>289.0</ele><time>2026-04-11T03:47:48Z</time></trkpt><trkpt lat="43.32528115942595" lon="11.509467033795993"><ele>289.0</ele><time>2026-04-11T03:47:50Z</time></trkpt><trkpt lat="43.32535659654128" lon="11.509441062063164"><ele>289.0</ele><time>2026-04-11T03:47:52Z</time></trkpt><trkpt lat="43.32543687746267" lon="11.509409686216019"><ele>289.0</ele><time>2026-04-11T03:47:54Z</time></trkpt><trkpt lat="43.32552023909348" lon="11.509371102875411"><ele>289.0</ele><time>2026-04-11T03:47:56Z</time></trkpt><trkpt lat="43.3256038764136" lon="11.509331456392506"><ele>289.0</ele><time>2026-04-11T03:47:58Z</time></trkpt><trkpt lat="43.32568777521553" lon="11.509294646895391"><ele>289.25</ele><time>2026-04-11T03:48:00Z</time></trkpt><trkpt lat="43.325773787253745" lon="11.509254668048131"><ele>289.5</ele><time>2026-04-11T03:48:02Z</time></trkpt><trkpt lat="43.32585990874119" lon="11.50921690211116"><ele>289.75</ele><time>2026-04-11T03:48:04Z</time></trkpt><trkpt lat="43.32594630074574" lon="11.509179388180366"><ele>290.0</ele><time>2026-04-11T03:48:06Z</time></trkpt><trkpt lat="43.326128146140924" lon="11.5090984678392"><ele>290.0</ele><time>2026-04-11T03:48:10Z</time></trkpt><trkpt lat="43.326224904723816" lon="11.509063837204872"><ele>290.0</ele><time>2026-04-11T03:48:12Z</time></trkpt><trkpt lat="43.32632096944568" lon="11.509017849486339"><ele>290.0</ele><time>2026-04-11T03:48:14Z</time></trkpt><trkpt lat="43.32641752306605" lon="11.508964941204667"><ele>290.0</ele><time>2026-04-11T03:48:16Z</time></trkpt><trkpt lat="43.32651759687475" lon="11.508913556145323"><ele>290.0</ele><time>2026-04-11T03:48:18Z</time></trkpt><trkpt lat="43.32661786673884" lon="11.508858812291415"><ele>290.6</ele><time>2026-04-11T03:48:20Z</time></trkpt><trkpt lat="43.32671638942467" lon="11.508806340830567"><ele>291.2</ele><time>2026-04-11T03:48:22Z</time></trkpt><trkpt lat="43.32681517769188" lon="11.508752398845921"><ele>291.8</ele><time>2026-04-11T03:48:24Z</time></trkpt><trkpt lat="43.326912356408144" lon="11.508697713777371"><ele>292.4</ele><time>2026-04-11T03:48:26Z</time></trkpt><trkpt lat="43.32700573541498" lon="11.508638100241138"><ele>293.0</ele><time>2026-04-11T03:48:28Z</time></trkpt><trkpt lat="43.32719084959099" lon="11.508519103002302"><ele>294.2</ele><time>2026-04-11T03:48:32Z</time></trkpt><trkpt lat="43.32727808279414" lon="11.508458461040467"><ele>295.4</ele><time>2026-04-11T03:48:34Z</time></trkpt><trkpt lat="43.327369850799684" lon="11.508405071477926"><ele>296.59999999999997</ele><time>2026-04-11T03:48:36Z</time></trkpt><trkpt lat="43.32745586571" lon="11.508345790022139"><ele>297.8</ele><time>2026-04-11T03:48:38Z</time></trkpt><trkpt lat="43.327544030505045" lon="11.50829337783241"><ele>299.0</ele><time>2026-04-11T03:48:40Z</time></trkpt><trkpt lat="43.327630056372904" lon="11.508240805744444"><ele>299.0</ele><time>2026-04-11T03:48:42Z</time></trkpt><trkpt lat="43.32771551970863" lon="11.508190781983547"><ele>299.0</ele><time>2026-04-11T03:48:44Z</time></trkpt><trkpt lat="43.32780233654382" lon="11.508132536897346"><ele>299.0</ele><time>2026-04-11T03:48:46Z</time></trkpt><trkpt lat="43.3278882294353" lon="11.50807229999843"><ele>299.0</ele><time>2026-04-11T03:48:48Z</time></trkpt><trkpt lat="43.32796959577895" lon="11.508003496289003"><ele>299.0</ele><time>2026-04-11T03:48:50Z</time></trkpt><trkpt lat="43.32814477821705" lon="11.507908773230989"><ele>299.8</ele><time>2026-04-11T03:48:54Z</time></trkpt><trkpt lat="43.328223941164346" lon="11.507851910156216"><ele>300.59999999999997</ele><time>2026-04-11T03:48:56Z</time></trkpt><trkpt lat="43.32831051158008" lon="11.50779543192652"><ele>301.4</ele><time>2026-04-11T03:48:58Z</time></trkpt><trkpt lat="43.328398794730376" lon="11.507745993018602"><ele>302.2</ele><time>2026-04-11T03:49:00Z</time></trkpt><trkpt lat="43.32848506292075" lon="11.507695008437684"><ele>303.0</ele><time>2026-04-11T03:49:02Z</time></trkpt><trkpt lat="43.32856879075498" lon="11.507636829771625"><ele>303.0</ele><time>2026-04-11T03:49:04Z</time></trkpt><trkpt lat="43.328654958902014" lon="11.507583746673157"><ele>303.0</ele><time>2026-04-11T03:49:06Z</time></trkpt><trkpt lat="43.328736039214476" lon="11.507531185883163"><ele>303.0</ele><time>2026-04-11T03:49:08Z</time></trkpt><trkpt lat="43.32881983032443" lon="11.507476523588375"><ele>303.0</ele><time>2026-04-11T03:49:10Z</time></trkpt><trkpt lat="43.32890266519807" lon="11.507424481261005"><ele>303.0</ele><time>2026-04-11T03:49:12Z</time></trkpt><trkpt lat="43.32907251134213" lon="11.507348982485588"><ele>303.6666666666667</ele><time>2026-04-11T03:49:16Z</time></trkpt><trkpt lat="43.329150781395846" lon="11.507303041371138"><ele>304.3333333333333</ele><time>2026-04-11T03:49:18Z</time></trkpt><trkpt lat="43.32923623075322" lon="11.507272971075901"><ele>305.0</ele><time>2026-04-11T03:49:20Z</time></trkpt><trkpt lat="43.32932304367085" lon="11.507239975282332"><ele>305.66666666666663</ele><time>2026-04-11T03:49:22Z</time></trkpt><trkpt lat="43.32940731625684" lon="11.507212192847446"><ele>306.3333333333333</ele><time>2026-04-11T03:49:24Z</time></trkpt><trkpt lat="43.32949706664881" lon="11.50717523256049"><ele>307.0</ele><time>2026-04-11T03:49:26Z</time></trkpt><trkpt lat="43.32958354134529" lon="11.507163424572445"><ele>307.0</ele><time>2026-04-11T03:49:28Z</time></trkpt><trkpt lat="43.32967490622876" lon="11.507146472481983"><ele>307.0</ele><time>2026-04-11T03:49:30Z</time></trkpt><trkpt lat="43.32976464166798" lon="11.507128557303874"><ele>307.0</ele><time>2026-04-11T03:49:32Z</time></trkpt><trkpt lat="43.329854495917374" lon="11.507113047674727"><ele>307.0</ele><time>2026-04-11T03:49:34Z</time></trkpt><trkpt lat="43.330040158390446" lon="11.507083441872204"><ele>307.0</ele><time>2026-04-11T03:49:38Z</time></trkpt><trkpt lat="43.330128350176494" lon="11.507062688217731"><ele>307.0</ele><time>2026-04-11T03:49:40Z</time></trkpt><trkpt lat="43.33021953883532" lon="11.50704565554774"><ele>307.0</ele><time>2026-04-11T03:49:42Z</time></trkpt><trkpt lat="43.33031590588176" lon="11.50703098173964"><ele>307.0</ele><time>2026-04-11T03:49:44Z</time></trkpt><trkpt lat="43.33040728619154" lon="11.507012437165795"><ele>307.0</ele><time>2026-04-11T03:49:46Z</time></trkpt><trkpt lat="43.33050094426188" lon="11.506992032132022"><ele>307.8</ele><time>2026-04-11T03:49:48Z</time></trkpt><trkpt lat="43.33059701827204" lon="11.506977040359708"><ele>308.6</ele><time>2026-04-11T03:49:50Z</time></trkpt><trkpt lat="43.330696854215454" lon="11.506956972083483"><ele>309.40000000000003</ele><time>2026-04-11T03:49:52Z</time></trkpt><trkpt lat="43.3307926386588" lon="11.506934760425576"><ele>310.2</ele><time>2026-04-11T03:49:54Z</time></trkpt><trkpt lat="43.330895408475165" lon="11.50692027865119"><ele>311.0</ele><time>2026-04-11T03:49:56Z</time></trkpt><trkpt lat="43.33109260801424" lon="11.5068675896119"><ele>311.0</ele><time>2026-04-11T03:50:00Z</time></trkpt><trkpt lat="43.33118885844961" lon="11.50684473584853"><ele>311.0</ele><time>2026-04-11T03:50:02Z</time></trkpt><trkpt lat="43.331282666927265" lon="11.506806944511876"><ele>311.0</ele><time>2026-04-11T03:50:04Z</time></trkpt><trkpt lat="43.33137184125314" lon="11.506764380063252"><ele>311.0</ele><time>2026-04-11T03:50:06Z</time></trkpt><trkpt lat="43.33146335983159" lon="11.506717945816641"><ele>311.0</ele><time>2026-04-11T03:50:08Z</time></trkpt><trkpt lat="43.33155166133208" lon="11.506664789904068"><ele>311.6</ele><time>2026-04-11T03:50:10Z</time></trkpt><trkpt lat="43.33163689195464" lon="11.506607080449681"><ele>312.20000000000005</ele><time>2026-04-11T03:50:12Z</time></trkpt><trkpt lat="43.3317267143026" lon="11.506551514706869"><ele>312.79999999999995</ele><time>2026-04-11T03:50:14Z</time></trkpt><trkpt lat="43.331814249178294" lon="11.506489449060599"><ele>313.4</ele><time>2026-04-11T03:50:16Z</time></trkpt><trkpt lat="43.33189821891289" lon="11.506433873353997"><ele>314.0</ele><time>2026-04-11T03:50:18Z</time></trkpt><trkpt lat="43.332065053452276" lon="11.506324184684027"><ele>314.0</ele><time>2026-04-11T03:50:22Z</time></trkpt><trkpt lat="43.33214800216174" lon="11.506266871535"><ele>314.0</ele><time>2026-04-11T03:50:24Z</time></trkpt><trkpt lat="43.33222924093885" lon="11.506205528901216"><ele>314.0</ele><time>2026-04-11T03:50:26Z</time></trkpt><trkpt lat="43.33231436797983" lon="11.506153602309324"><ele>314.0</ele><time>2026-04-11T03:50:28Z</time></trkpt><trkpt lat="43.33240033991312" lon="11.506098208996669"><ele>314.0</ele><time>2026-04-11T03:50:30Z</time></trkpt><trkpt lat="43.33249222884202" lon="11.506050496949001"><ele>314.4</ele><time>2026-04-11T03:50:32Z</time></trkpt><trkpt lat="43.33257774508594" lon="11.50599749718676"><ele>314.79999999999995</ele><time>2026-04-11T03:50:34Z</time></trkpt><trkpt lat="43.33266890918206" lon="11.505948830909155"><ele>315.20000000000005</ele><time>2026-04-11T03:50:36Z</time></trkpt><trkpt lat="43.33276668563069" lon="11.505906556893997"><ele>315.6</ele><time>2026-04-11T03:50:38Z</time></trkpt><trkpt lat="43.3328721025252" lon="11.505873639197125"><ele>316.0</ele><time>2026-04-11T03:50:40Z</time></trkpt><trkpt lat="43.33308821185585" lon="11.505822308743564"><ele>316.0</ele><time>2026-04-11T03:50:44Z</time></trkpt><trkpt lat="43.333197710267456" lon="11.505792947389441"><ele>316.0</ele><time>2026-04-11T03:50:46Z</time></trkpt><trkpt lat="43.33330857590826" lon="11.505774336024277"><ele>316.0</ele><time>2026-04-11T03:50:48Z</time></trkpt><trkpt lat="43.333417564848936" lon="11.505755712472588"><ele>316.0</ele><time>2026-04-11T03:50:50Z</time></trkpt><trkpt lat="43.33352525089185" lon="11.505731415409732"><ele>316.0</ele><time>2026-04-11T03:50:52Z</time></trkpt><trkpt lat="43.33364094453289" lon="11.505709978904793"><ele>316.0</ele><time>2026-04-11T03:50:54Z</time></trkpt><trkpt lat="43.33375028546642" lon="11.505689367463196"><ele>316.0</ele><time>2026-04-11T03:50:56Z</time></trkpt><trkpt lat="43.333865709387354" lon="11.505667326939061"><ele>316.0</ele><time>2026-04-11T03:50:58Z</time></trkpt><trkpt lat="43.333985463010016" lon="11.505647300591674"><ele>316.0</ele><time>2026-04-11T03:51:00Z</time></trkpt><trkpt lat="43.334101824257296" lon="11.505624352287004"><ele>315.75</ele><time>2026-04-11T03:51:02Z</time></trkpt><trkpt lat="43.33433635441834" lon="11.505571112271912"><ele>315.5</ele><time>2026-04-11T03:51:06Z</time></trkpt><trkpt lat="43.33444989122991" lon="11.505551459233049"><ele>315.25</ele><time>2026-04-11T03:51:08Z</time></trkpt><trkpt lat="43.334512880300345" lon="11.505553037291904"><ele>315.0</ele><time>2026-04-11T03:51:09Z</time></trkpt><trkpt lat="43.33461826155984" lon="11.50552379602266"><ele>314.75</ele><time>2026-04-11T03:51:11Z</time></trkpt><trkpt lat="43.33473343826169" lon="11.505500923125737"><ele>314.5</ele><time>2026-04-11T03:51:13Z</time></trkpt><trkpt lat="43.334847236102654" lon="11.505477082974851"><ele>314.25</ele><time>2026-04-11T03:51:15Z</time></trkpt><trkpt lat="43.33495719108763" lon="11.505454001366955"><ele>314.0</ele><time>2026-04-11T03:51:17Z</time></trkpt><trkpt lat="43.33507002757312" lon="11.505430637392761"><ele>316.33333333333337</ele><time>2026-04-11T03:51:19Z</time></trkpt><trkpt lat="43.335184757361965" lon="11.50540788752628"><ele>318.6666666666667</ele><time>2026-04-11T03:51:21Z</time></trkpt><trkpt lat="43.33529718959518" lon="11.505384587585489"><ele>321.0</ele><time>2026-04-11T03:51:23Z</time></trkpt><trkpt lat="43.335522622048785" lon="11.505338146895605"><ele>320.40000000000003</ele><time>2026-04-11T03:51:27Z</time></trkpt><trkpt lat="43.33563546170674" lon="11.505316918731952"><ele>319.8</ele><time>2026-04-11T03:51:29Z</time></trkpt><trkpt lat="43.33574709872587" lon="11.505294932182029"><ele>319.20000000000005</ele><time>2026-04-11T03:51:31Z</time></trkpt><trkpt lat="43.33585498908476" lon="11.505269290416463"><ele>318.6</ele><time>2026-04-11T03:51:33Z</time></trkpt><trkpt lat="43.33596127815481" lon="11.505246299055631"><ele>318.0</ele><time>2026-04-11T03:51:35Z</time></trkpt><trkpt lat="43.33607091770211" lon="11.505226933473377"><ele>318.0</ele><time>2026-04-11T03:51:37Z</time></trkpt><trkpt lat="43.336173826597786" lon="11.505204263189375"><ele>318.0</ele><time>2026-04-11T03:51:39Z</time></trkpt><trkpt lat="43.336274238814696" lon="11.505183648078521"><ele>318.0</ele><time>2026-04-11T03:51:41Z</time></trkpt><trkpt lat="43.33637439462671" lon="11.505161418984176"><ele>318.0</ele><time>2026-04-11T03:51:43Z</time></trkpt><trkpt lat="43.33647454534232" lon="11.505147637450154"><ele>318.0</ele><time>2026-04-11T03:51:45Z</time></trkpt><trkpt lat="43.33667285106434" lon="11.505115831273315"><ele>319.2</ele><time>2026-04-11T03:51:49Z</time></trkpt><trkpt lat="43.33677034076672" lon="11.505104506089145"><ele>320.4</ele><time>2026-04-11T03:51:51Z</time></trkpt><trkpt lat="43.33686620568443" lon="11.505108587190911"><ele>321.59999999999997</ele><time>2026-04-11T03:51:53Z</time></trkpt><trkpt lat="43.33696137189293" lon="11.505111278114732"><ele>322.8</ele><time>2026-04-11T03:51:55Z</time></trkpt><trkpt lat="43.337052459092746" lon="11.505128262288382"><ele>324.0</ele><time>2026-04-11T03:51:57Z</time></trkpt><trkpt lat="43.33714807630156" lon="11.505152987018384"><ele>324.2</ele><time>2026-04-11T03:51:59Z</time></trkpt><trkpt lat="43.33723777778942" lon="11.505180268584583"><ele>324.4</ele><time>2026-04-11T03:52:01Z</time></trkpt><trkpt lat="43.33732005598922" lon="11.505222604626262"><ele>324.6</ele><time>2026-04-11T03:52:03Z</time></trkpt><trkpt lat="43.33741235105678" lon="11.505261161956112"><ele>324.8</ele><time>2026-04-11T03:52:05Z</time></trkpt><trkpt lat="43.3375006786578" lon="11.505311790216687"><ele>325.0</ele><time>2026-04-11T03:52:07Z</time></trkpt><trkpt lat="43.33767345813714" lon="11.505423238131307"><ele>325.8</ele><time>2026-04-11T03:52:11Z</time></trkpt><trkpt lat="43.33775776914539" lon="11.505479733532031"><ele>326.6</ele><time>2026-04-11T03:52:13Z</time></trkpt><trkpt lat="43.33783816449376" lon="11.505532504308091"><ele>327.4</ele><time>2026-04-11T03:52:15Z</time></trkpt><trkpt lat="43.337919203359675" lon="11.505586478479952"><ele>328.2</ele><time>2026-04-11T03:52:17Z</time></trkpt><trkpt lat="43.33799974473476" lon="11.505638826975451"><ele>329.0</ele><time>2026-04-11T03:52:19Z</time></trkpt><trkpt lat="43.33808415086081" lon="11.50569281100426"><ele>329.6</ele><time>2026-04-11T03:52:21Z</time></trkpt><trkpt lat="43.338160660779415" lon="11.505739854400566"><ele>330.2</ele><time>2026-04-11T03:52:23Z</time></trkpt><trkpt lat="43.338240784034454" lon="11.505785100981196"><ele>330.8</ele><time>2026-04-11T03:52:25Z</time></trkpt><trkpt lat="43.33832188240526" lon="11.505828785411348"><ele>331.40000000000003</ele><time>2026-04-11T03:52:27Z</time></trkpt><trkpt lat="43.338396929225304" lon="11.505864327082454"><ele>332.0</ele><time>2026-04-11T03:52:29Z</time></trkpt><trkpt lat="43.338550980832814" lon="11.505902097972548"><ele>332.0</ele><time>2026-04-11T03:52:33Z</time></trkpt><trkpt lat="43.338628206609606" lon="11.505914983647815"><ele>332.0</ele><time>2026-04-11T03:52:35Z</time></trkpt><trkpt lat="43.33870677382006" lon="11.505918234505614"><ele>332.0</ele><time>2026-04-11T03:52:37Z</time></trkpt><trkpt lat="43.33878725486372" lon="11.505917063730376"><ele>332.0</ele><time>2026-04-11T03:52:39Z</time></trkpt><trkpt lat="43.338868247606904" lon="11.505916752712354"><ele>332.0</ele><time>2026-04-11T03:52:41Z</time></trkpt><trkpt lat="43.338946531519454" lon="11.505912474413819"><ele>332.0</ele><time>2026-04-11T03:52:43Z</time></trkpt><trkpt lat="43.33902565019755" lon="11.50589494024358"><ele>333.0</ele><time>2026-04-11T03:52:45Z</time></trkpt><trkpt lat="43.339106915832936" lon="11.505870181895412"><ele>334.0</ele><time>2026-04-11T03:52:47Z</time></trkpt><trkpt lat="43.33918835848646" lon="11.505845550754595"><ele>335.0</ele><time>2026-04-11T03:52:49Z</time></trkpt><trkpt lat="43.339275502845396" lon="11.505817932039527"><ele>336.0</ele><time>2026-04-11T03:52:51Z</time></trkpt><trkpt lat="43.33944491276666" lon="11.505751053478098"><ele>337.0</ele><time>2026-04-11T03:52:55Z</time></trkpt><trkpt lat="43.33952439743132" lon="11.505719114455681"><ele>337.0</ele><time>2026-04-11T03:52:57Z</time></trkpt><trkpt lat="43.33961304426428" lon="11.50568803175432"><ele>337.0</ele><time>2026-04-11T03:52:59Z</time></trkpt><trkpt lat="43.33970668004401" lon="11.505656130968696"><ele>337.0</ele><time>2026-04-11T03:53:01Z</time></trkpt><trkpt lat="43.33980067580387" lon="11.505621233188116"><ele>337.0</ele><time>2026-04-11T03:53:03Z</time></trkpt><trkpt lat="43.33989956038888" lon="11.50558397596779"><ele>337.0</ele><time>2026-04-11T03:53:05Z</time></trkpt><trkpt lat="43.34000442182353" lon="11.505547530891654"><ele>336.75</ele><time>2026-04-11T03:53:07Z</time></trkpt><trkpt lat="43.34010870737095" lon="11.505511680516811"><ele>336.5</ele><time>2026-04-11T03:53:09Z</time></trkpt><trkpt lat="43.34021358273603" lon="11.505469406745005"><ele>336.25</ele><time>2026-04-11T03:53:11Z</time></trkpt><trkpt lat="43.3403310175981" lon="11.505427142433982"><ele>336.0</ele><time>2026-04-11T03:53:13Z</time></trkpt><trkpt lat="43.34057409098254" lon="11.505367874889469"><ele>335.8333333333333</ele><time>2026-04-11T03:53:17Z</time></trkpt><trkpt lat="43.34063882460943" lon="11.505381972217432"><ele>335.6666666666667</ele><time>2026-04-11T03:53:18Z</time></trkpt><trkpt lat="43.34075869061871" lon="11.505411859203688"><ele>335.5</ele><time>2026-04-11T03:53:20Z</time></trkpt><trkpt lat="43.340825644432854" lon="11.505399545572434"><ele>335.33333333333337</ele><time>2026-04-11T03:53:21Z</time></trkpt><trkpt lat="43.34088814621119" lon="11.505355413745697"><ele>335.1666666666667</ele><time>2026-04-11T03:53:22Z</time></trkpt><trkpt lat="43.34094199112689" lon="11.505285230451275"><ele>335.0</ele><time>2026-04-11T03:53:23Z</time></trkpt><trkpt lat="43.3409974141887" lon="11.505228795508247"><ele>335.0</ele><time>2026-04-11T03:53:24Z</time></trkpt><trkpt lat="43.34106295386909" lon="11.505195115626922"><ele>335.0</ele><time>2026-04-11T03:53:25Z</time></trkpt><trkpt lat="43.34113163313406" lon="11.50516871030465"><ele>335.0</ele><time>2026-04-11T03:53:26Z</time></trkpt><trkpt lat="43.34119781360113" lon="11.505145636912708"><ele>335.0</ele><time>2026-04-11T03:53:27Z</time></trkpt><trkpt lat="43.34126113741331" lon="11.50512086745294"><ele>335.0</ele><time>2026-04-11T03:53:28Z</time></trkpt><trkpt lat="43.34138373024951" lon="11.505084724227038"><ele>335.0</ele><time>2026-04-11T03:53:30Z</time></trkpt><trkpt lat="43.34150260040775" lon="11.505042050182052"><ele>335.0</ele><time>2026-04-11T03:53:32Z</time></trkpt><trkpt lat="43.341618465667736" lon="11.505021156808354"><ele>335.0</ele><time>2026-04-11T03:53:34Z</time></trkpt><trkpt lat="43.3418019916296" lon="11.504984813267397"><ele>335.0</ele><time>2026-04-11T03:53:37Z</time></trkpt><trkpt lat="43.34186537316956" lon="11.50497030238375"><ele>335.0</ele><time>2026-04-11T03:53:38Z</time></trkpt><trkpt lat="43.34198169965187" lon="11.50494628965389"><ele>335.0</ele><time>2026-04-11T03:53:40Z</time></trkpt><trkpt lat="43.342100561244116" lon="11.504917131284532"><ele>335.0</ele><time>2026-04-11T03:53:42Z</time></trkpt><trkpt lat="43.34221725726231" lon="11.504898414618635"><ele>335.0</ele><time>2026-04-11T03:53:44Z</time></trkpt><trkpt lat="43.34232871650096" lon="11.504877655480227"><ele>335.0</ele><time>2026-04-11T03:53:46Z</time></trkpt><trkpt lat="43.34244352356449" lon="11.504855099766415"><ele>335.75</ele><time>2026-04-11T03:53:48Z</time></trkpt><trkpt lat="43.34255908621981" lon="11.504833144554135"><ele>336.5</ele><time>2026-04-11T03:53:50Z</time></trkpt><trkpt lat="43.34267990098913" lon="11.504824237249219"><ele>337.25</ele><time>2026-04-11T03:53:52Z</time></trkpt><trkpt lat="43.34280073368513" lon="11.504804849498827"><ele>338.0</ele><time>2026-04-11T03:53:54Z</time></trkpt><trkpt lat="43.342924611826525" lon="11.504780455377361"><ele>338.0</ele><time>2026-04-11T03:53:56Z</time></trkpt><trkpt lat="43.34316577274201" lon="11.504735752075419"><ele>338.0</ele><time>2026-04-11T03:54:00Z</time></trkpt><trkpt lat="43.343234977461805" lon="11.504734948079292"><ele>338.0</ele><time>2026-04-11T03:54:01Z</time></trkpt><trkpt lat="43.34330106672782" lon="11.504718208932209"><ele>338.0</ele><time>2026-04-11T03:54:02Z</time></trkpt><trkpt lat="43.34341232736635" lon="11.504688182011524"><ele>338.0</ele><time>2026-04-11T03:54:04Z</time></trkpt><trkpt lat="43.343477134917535" lon="11.504686990664938"><ele>338.0</ele><time>2026-04-11T03:54:05Z</time></trkpt><trkpt lat="43.343539469186936" lon="11.504671704134038"><ele>338.0</ele><time>2026-04-11T03:54:06Z</time></trkpt><trkpt lat="43.34360495799163" lon="11.50465965450834"><ele>338.0</ele><time>2026-04-11T03:54:07Z</time></trkpt><trkpt lat="43.34367435907501" lon="11.504630492893542"><ele>338.0</ele><time>2026-04-11T03:54:08Z</time></trkpt><trkpt lat="43.343790516458114" lon="11.504609313121328"><ele>338.0</ele><time>2026-04-11T03:54:10Z</time></trkpt><trkpt lat="43.34391793751524" lon="11.504575862161973"><ele>338.0</ele><time>2026-04-11T03:54:12Z</time></trkpt><trkpt lat="43.34400985947631" lon="11.504586856832399"><ele>338.0</ele><time>2026-04-11T03:54:13Z</time></trkpt><trkpt lat="43.34409675630403" lon="11.50456916308663"><ele>338.0</ele><time>2026-04-11T03:54:14Z</time></trkpt><trkpt lat="43.34419022274752" lon="11.504574808029863"><ele>338.0</ele><time>2026-04-11T03:54:16Z</time></trkpt><trkpt lat="43.344323510387596" lon="11.504553177428054"><ele>338.0</ele><time>2026-04-11T03:54:18Z</time></trkpt><trkpt lat="43.34445997042984" lon="11.504533852976733"><ele>337.6666666666667</ele><time>2026-04-11T03:54:20Z</time></trkpt><trkpt lat="43.34453077926263" lon="11.504521771983999"><ele>337.33333333333337</ele><time>2026-04-11T03:54:21Z</time></trkpt><trkpt lat="43.34459887287939" lon="11.504483717489894"><ele>337.0</ele><time>2026-04-11T03:54:22Z</time></trkpt><trkpt lat="43.34466401180502" lon="11.504456804707829"><ele>336.6666666666667</ele><time>2026-04-11T03:54:23Z</time></trkpt><trkpt lat="43.344773819092616" lon="11.504334089763695"><ele>336.3333333333333</ele><time>2026-04-11T03:54:25Z</time></trkpt><trkpt lat="43.34481530658301" lon="11.504242825038597"><ele>336.0</ele><time>2026-04-11T03:54:26Z</time></trkpt><trkpt lat="43.34485105972192" lon="11.504162515887277"><ele>337.1666666666667</ele><time>2026-04-11T03:54:27Z</time></trkpt><trkpt lat="43.34489138124395" lon="11.504086774198678"><ele>338.3333333333333</ele><time>2026-04-11T03:54:28Z</time></trkpt><trkpt lat="43.34492978325785" lon="11.504011065340705"><ele>339.5</ele><time>2026-04-11T03:54:29Z</time></trkpt><trkpt lat="43.3449590399274" lon="11.50393249177377"><ele>340.66666666666663</ele><time>2026-04-11T03:54:30Z</time></trkpt><trkpt lat="43.34500570268698" lon="11.503781499561866"><ele>341.8333333333333</ele><time>2026-04-11T03:54:32Z</time></trkpt><trkpt lat="43.34501251171114" lon="11.503686605521228"><ele>343.0</ele><time>2026-04-11T03:54:33Z</time></trkpt><trkpt lat="43.344996868663834" lon="11.50352318961785"><ele>343.0</ele><time>2026-04-11T03:54:35Z</time></trkpt><trkpt lat="43.34496764658037" lon="11.503440587480249"><ele>343.0</ele><time>2026-04-11T03:54:36Z</time></trkpt><trkpt lat="43.344940691356065" lon="11.50329311708022"><ele>343.0</ele><time>2026-04-11T03:54:38Z</time></trkpt><trkpt lat="43.3449121717331" lon="11.503128577585672"><ele>343.0</ele><time>2026-04-11T03:54:40Z</time></trkpt><trkpt lat="43.344890966160214" lon="11.502888108246372"><ele>343.16666666666663</ele><time>2026-04-11T03:54:43Z</time></trkpt><trkpt lat="43.34491598040769" lon="11.50271059988409"><ele>343.3333333333333</ele><time>2026-04-11T03:54:45Z</time></trkpt><trkpt lat="43.34494583356187" lon="11.502616671541263"><ele>343.5</ele><time>2026-04-11T03:54:46Z</time></trkpt><trkpt lat="43.344959062446556" lon="11.502499962190349"><ele>343.6666666666667</ele><time>2026-04-11T03:54:47Z</time></trkpt><trkpt lat="43.34500763754647" lon="11.502410975651703"><ele>343.83333333333337</ele><time>2026-04-11T03:54:48Z</time></trkpt><trkpt lat="43.34504915187702" lon="11.502331352350689"><ele>344.0</ele><time>2026-04-11T03:54:49Z</time></trkpt><trkpt lat="43.345089182890334" lon="11.50223369247288"><ele>344.0</ele><time>2026-04-11T03:54:50Z</time></trkpt><trkpt lat="43.345121338989635" lon="11.502121622634888"><ele>344.0</ele><time>2026-04-11T03:54:51Z</time></trkpt><trkpt lat="43.34514612208959" lon="11.502008497313737"><ele>344.0</ele><time>2026-04-11T03:54:52Z</time></trkpt><trkpt lat="43.34519148518763" lon="11.501902695270632"><ele>344.0</ele><time>2026-04-11T03:54:53Z</time></trkpt><trkpt lat="43.345208443886534" lon="11.501787983545537"><ele>344.0</ele><time>2026-04-11T03:54:54Z</time></trkpt><trkpt lat="43.345222076854576" lon="11.50167351624129"><ele>344.0</ele><time>2026-04-11T03:54:55Z</time></trkpt><trkpt lat="43.345219815952234" lon="11.501562952829596"><ele>342.6666666666667</ele><time>2026-04-11T03:54:56Z</time></trkpt><trkpt lat="43.34519664557383" lon="11.501452297353072"><ele>341.33333333333337</ele><time>2026-04-11T03:54:57Z</time></trkpt><trkpt lat="43.34516818646274" lon="11.50135418518088"><ele>340.0</ele><time>2026-04-11T03:54:58Z</time></trkpt><trkpt lat="43.3451323677565" lon="11.50125809540737"><ele>338.6666666666667</ele><time>2026-04-11T03:54:59Z</time></trkpt><trkpt lat="43.34509927457091" lon="11.50116737061356"><ele>337.3333333333333</ele><time>2026-04-11T03:55:00Z</time></trkpt><trkpt lat="43.34506203126514" lon="11.501081010573142"><ele>336.0</ele><time>2026-04-11T03:55:01Z</time></trkpt><trkpt lat="43.34495327201348" lon="11.50087807902783"><ele>335.8</ele><time>2026-04-11T03:55:04Z</time></trkpt><trkpt lat="43.34493932436004" lon="11.500736471095488"><ele>335.6</ele><time>2026-04-11T03:55:06Z</time></trkpt><trkpt lat="43.345007464813406" lon="11.500613794563542"><ele>335.4</ele><time>2026-04-11T03:55:08Z</time></trkpt><trkpt lat="43.34504978492921" lon="11.50052342152424"><ele>335.2</ele><time>2026-04-11T03:55:10Z</time></trkpt><trkpt lat="43.34501490873253" lon="11.500403229252727"><ele>335.0</ele><time>2026-04-11T03:55:12Z</time></trkpt><trkpt lat="43.34496547779047" lon="11.500280411351556"><ele>335.0</ele><time>2026-04-11T03:55:14Z</time></trkpt><trkpt lat="43.34492754518633" lon="11.500124563000805"><ele>335.0</ele><time>2026-04-11T03:55:16Z</time></trkpt><trkpt lat="43.344892959156766" lon="11.500045033921783"><ele>335.0</ele><time>2026-04-11T03:55:17Z</time></trkpt><trkpt lat="43.34486287087792" lon="11.499963780871516"><ele>335.0</ele><time>2026-04-11T03:55:18Z</time></trkpt><trkpt lat="43.344830653792584" lon="11.499882844006526"><ele>335.0</ele><time>2026-04-11T03:55:19Z</time></trkpt><trkpt lat="43.34479728914405" lon="11.499797521003975"><ele>335.0</ele><time>2026-04-11T03:55:20Z</time></trkpt><trkpt lat="43.34475951451453" lon="11.499712211729443"><ele>335.0</ele><time>2026-04-11T03:55:21Z</time></trkpt><trkpt lat="43.34472837842457" lon="11.499623654330298"><ele>335.0</ele><time>2026-04-11T03:55:22Z</time></trkpt><trkpt lat="43.34466067050766" lon="11.499442039015952"><ele>335.0</ele><time>2026-04-11T03:55:24Z</time></trkpt><trkpt lat="43.344623504261044" lon="11.499355089341117"><ele>335.0</ele><time>2026-04-11T03:55:25Z</time></trkpt><trkpt lat="43.34458847573086" lon="11.499264018758328"><ele>335.0</ele><time>2026-04-11T03:55:26Z</time></trkpt><trkpt lat="43.34455387615897" lon="11.499172520499522"><ele>335.0</ele><time>2026-04-11T03:55:27Z</time></trkpt><trkpt lat="43.34452002643244" lon="11.499077991857217"><ele>335.1666666666667</ele><time>2026-04-11T03:55:28Z</time></trkpt><trkpt lat="43.34449025494949" lon="11.498981556224392"><ele>335.33333333333337</ele><time>2026-04-11T03:55:29Z</time></trkpt><trkpt lat="43.34445872354097" lon="11.498883306533948"><ele>335.5</ele><time>2026-04-11T03:55:30Z</time></trkpt><trkpt lat="43.344421365191934" lon="11.498790929380014"><ele>335.6666666666667</ele><time>2026-04-11T03:55:31Z</time></trkpt><trkpt lat="43.344389069478105" lon="11.498693814429256"><ele>335.8333333333333</ele><time>2026-04-11T03:55:32Z</time></trkpt><trkpt lat="43.344359893319066" lon="11.498600024441645"><ele>336.0</ele><time>2026-04-11T03:55:33Z</time></trkpt><trkpt lat="43.34433350765289" lon="11.498496570797451"><ele>336.14285714285717</ele><time>2026-04-11T03:55:34Z</time></trkpt><trkpt lat="43.344308791919985" lon="11.498400805940452"><ele>336.2857142857143</ele><time>2026-04-11T03:55:35Z</time></trkpt><trkpt lat="43.34427497911095" lon="11.498311575986312"><ele>336.42857142857144</ele><time>2026-04-11T03:55:36Z</time></trkpt><trkpt lat="43.3442451553671" lon="11.498219071690933"><ele>336.57142857142856</ele><time>2026-04-11T03:55:37Z</time></trkpt><trkpt lat="43.34421309594259" lon="11.498128989397284"><ele>336.7142857142857</ele><time>2026-04-11T03:55:38Z</time></trkpt><trkpt lat="43.34418422611199" lon="11.498036087597638"><ele>336.8571428571429</ele><time>2026-04-11T03:55:39Z</time></trkpt><trkpt lat="43.34415064848167" lon="11.497943290340455"><ele>337.0</ele><time>2026-04-11T03:55:40Z</time></trkpt><trkpt lat="43.344114226191266" lon="11.497850637334103"><ele>337.0</ele><time>2026-04-11T03:55:41Z</time></trkpt><trkpt lat="43.34407851490708" lon="11.497761071707181"><ele>337.0</ele><time>2026-04-11T03:55:42Z</time></trkpt><trkpt lat="43.344046844454" lon="11.497668774856777"><ele>337.0</ele><time>2026-04-11T03:55:43Z</time></trkpt><trkpt lat="43.343977983700626" lon="11.497488110855176"><ele>337.0</ele><time>2026-04-11T03:55:45Z</time></trkpt><trkpt lat="43.34394123997721" lon="11.497400916551175"><ele>337.0</ele><time>2026-04-11T03:55:46Z</time></trkpt><trkpt lat="43.34391524281375" lon="11.49731464009068"><ele>337.0</ele><time>2026-04-11T03:55:47Z</time></trkpt><trkpt lat="43.34388124955849" lon="11.497232768289063"><ele>336.5714285714286</ele><time>2026-04-11T03:55:48Z</time></trkpt><trkpt lat="43.343850121320095" lon="11.497143722820546"><ele>336.14285714285717</ele><time>2026-04-11T03:55:49Z</time></trkpt><trkpt lat="43.343810284121666" lon="11.497072013868902"><ele>335.7142857142857</ele><time>2026-04-11T03:55:50Z</time></trkpt><trkpt lat="43.34376290197609" lon="11.497007705222927"><ele>335.28571428571433</ele><time>2026-04-11T03:55:51Z</time></trkpt><trkpt lat="43.34371677535521" lon="11.496943193561995"><ele>334.8571428571429</ele><time>2026-04-11T03:55:52Z</time></trkpt><trkpt lat="43.34367076252664" lon="11.4968755549676"><ele>334.42857142857144</ele><time>2026-04-11T03:55:53Z</time></trkpt><trkpt lat="43.343622041872976" lon="11.496818844359511"><ele>334.0</ele><time>2026-04-11T03:55:54Z</time></trkpt><trkpt lat="43.34352805840283" lon="11.496693579710467"><ele>334.0</ele><time>2026-04-11T03:55:56Z</time></trkpt><trkpt lat="43.343476461822696" lon="11.496627163819872"><ele>334.0</ele><time>2026-04-11T03:55:57Z</time></trkpt><trkpt lat="43.343424333232434" lon="11.496559338435391"><ele>334.0</ele><time>2026-04-11T03:55:58Z</time></trkpt><trkpt lat="43.343371820067325" lon="11.496490485750673"><ele>334.0</ele><time>2026-04-11T03:55:59Z</time></trkpt><trkpt lat="43.343319314143855" lon="11.496420952199003"><ele>334.0</ele><time>2026-04-11T03:56:00Z</time></trkpt><trkpt lat="43.343261440418885" lon="11.496357463752208"><ele>334.0</ele><time>2026-04-11T03:56:01Z</time></trkpt><trkpt lat="43.34320635256173" lon="11.496294787317689"><ele>334.0</ele><time>2026-04-11T03:56:02Z</time></trkpt><trkpt lat="43.34315323323329" lon="11.496228794143658"><ele>333.4</ele><time>2026-04-11T03:56:03Z</time></trkpt><trkpt lat="43.34309248642556" lon="11.4961591855275"><ele>332.79999999999995</ele><time>2026-04-11T03:56:04Z</time></trkpt><trkpt lat="43.34298044121316" lon="11.496024200761354"><ele>332.20000000000005</ele><time>2026-04-11T03:56:06Z</time></trkpt><trkpt lat="43.34292841199837" lon="11.495953014320728"><ele>331.6</ele><time>2026-04-11T03:56:07Z</time></trkpt><trkpt lat="43.34286811662724" lon="11.495883015930712"><ele>331.0</ele><time>2026-04-11T03:56:08Z</time></trkpt><trkpt lat="43.34281028818734" lon="11.495805082623374"><ele>331.0</ele><time>2026-04-11T03:56:09Z</time></trkpt><trkpt lat="43.34274636318167" lon="11.495728683752567"><ele>331.0</ele><time>2026-04-11T03:56:10Z</time></trkpt><trkpt lat="43.34268007282532" lon="11.49564927529517"><ele>331.0</ele><time>2026-04-11T03:56:11Z</time></trkpt><trkpt lat="43.34261114357136" lon="11.495568126037728"><ele>331.0</ele><time>2026-04-11T03:56:12Z</time></trkpt><trkpt lat="43.342540209822104" lon="11.495478914481623"><ele>331.0</ele><time>2026-04-11T03:56:13Z</time></trkpt><trkpt lat="43.34246240537411" lon="11.495391075230996"><ele>329.4</ele><time>2026-04-11T03:56:14Z</time></trkpt><trkpt lat="43.3423889655995" lon="11.495288554122304"><ele>327.8</ele><time>2026-04-11T03:56:15Z</time></trkpt><trkpt lat="43.34231123522411" lon="11.495197995651884"><ele>326.2</ele><time>2026-04-11T03:56:16Z</time></trkpt><trkpt lat="43.342225431884806" lon="11.495098398727242"><ele>324.59999999999997</ele><time>2026-04-11T03:56:17Z</time></trkpt><trkpt lat="43.34213804777864" lon="11.494997984558736"><ele>323.0</ele><time>2026-04-11T03:56:18Z</time></trkpt><trkpt lat="43.3420514933309" lon="11.494898268933726"><ele>321.25</ele><time>2026-04-11T03:56:19Z</time></trkpt><trkpt lat="43.341961024550415" lon="11.494795701076532"><ele>319.5</ele><time>2026-04-11T03:56:20Z</time></trkpt><trkpt lat="43.34186857383039" lon="11.494693666735852"><ele>317.75</ele><time>2026-04-11T03:56:21Z</time></trkpt><trkpt lat="43.34177816367325" lon="11.494591860253967"><ele>316.0</ele><time>2026-04-11T03:56:22Z</time></trkpt><trkpt lat="43.34168942720108" lon="11.494483257796892"><ele>315.0</ele><time>2026-04-11T03:56:23Z</time></trkpt><trkpt lat="43.34160280387537" lon="11.494371775831908"><ele>314.0</ele><time>2026-04-11T03:56:24Z</time></trkpt><trkpt lat="43.34150986063728" lon="11.494266096692943"><ele>313.0</ele><time>2026-04-11T03:56:25Z</time></trkpt><trkpt lat="43.34133450039652" lon="11.494060908849463"><ele>312.25</ele><time>2026-04-11T03:56:27Z</time></trkpt><trkpt lat="43.341242929327194" lon="11.493961559935654"><ele>311.5</ele><time>2026-04-11T03:56:28Z</time></trkpt><trkpt lat="43.341158520248776" lon="11.493856970773912"><ele>310.75</ele><time>2026-04-11T03:56:29Z</time></trkpt><trkpt lat="43.341069466214016" lon="11.493749013926777"><ele>310.0</ele><time>2026-04-11T03:56:30Z</time></trkpt><trkpt lat="43.34098307134" lon="11.493645175814345"><ele>310.0</ele><time>2026-04-11T03:56:31Z</time></trkpt><trkpt lat="43.340897480534885" lon="11.493544669632406"><ele>310.0</ele><time>2026-04-11T03:56:32Z</time></trkpt><trkpt lat="43.34081450150922" lon="11.493442354679326"><ele>310.0</ele><time>2026-04-11T03:56:33Z</time></trkpt><trkpt lat="43.34072970069533" lon="11.493345542023444"><ele>310.0</ele><time>2026-04-11T03:56:34Z</time></trkpt><trkpt lat="43.34064914949505" lon="11.493247464663792"><ele>310.0</ele><time>2026-04-11T03:56:35Z</time></trkpt><trkpt lat="43.3405685302059" lon="11.493154262864255"><ele>310.0</ele><time>2026-04-11T03:56:36Z</time></trkpt><trkpt lat="43.340488957355134" lon="11.493057331342404"><ele>310.0</ele><time>2026-04-11T03:56:37Z</time></trkpt><trkpt lat="43.34040503109778" lon="11.492954886221307"><ele>310.0</ele><time>2026-04-11T03:56:38Z</time></trkpt><trkpt lat="43.34032486896477" lon="11.492845181781993"><ele>310.0</ele><time>2026-04-11T03:56:39Z</time></trkpt><trkpt lat="43.34024569706731" lon="11.492731055069862"><ele>310.0</ele><time>2026-04-11T03:56:40Z</time></trkpt><trkpt lat="43.34016283753478" lon="11.49262280328616"><ele>310.2</ele><time>2026-04-11T03:56:41Z</time></trkpt><trkpt lat="43.34008183770888" lon="11.49251226839384"><ele>310.4</ele><time>2026-04-11T03:56:42Z</time></trkpt><trkpt lat="43.340004718157495" lon="11.492402524310236"><ele>310.6</ele><time>2026-04-11T03:56:43Z</time></trkpt><trkpt lat="43.33993571979499" lon="11.492289487604507"><ele>310.8</ele><time>2026-04-11T03:56:44Z</time></trkpt><trkpt lat="43.339860335614894" lon="11.49218452256148"><ele>311.0</ele><time>2026-04-11T03:56:45Z</time></trkpt><trkpt lat="43.3397814725371" lon="11.492070307800773"><ele>309.6666666666667</ele><time>2026-04-11T03:56:46Z</time></trkpt><trkpt lat="43.33962755532625" lon="11.49182793196734"><ele>308.3333333333333</ele><time>2026-04-11T03:56:48Z</time></trkpt><trkpt lat="43.339549127255204" lon="11.491711017903244"><ele>307.0</ele><time>2026-04-11T03:56:49Z</time></trkpt><trkpt lat="43.33947192320544" lon="11.4915967000876"><ele>307.0</ele><time>2026-04-11T03:56:50Z</time></trkpt><trkpt lat="43.33939748967963" lon="11.491479891190608"><ele>307.0</ele><time>2026-04-11T03:56:51Z</time></trkpt><trkpt lat="43.33932350932946" lon="11.491361756867715"><ele>307.0</ele><time>2026-04-11T03:56:52Z</time></trkpt><trkpt lat="43.33924774340408" lon="11.491240800357508"><ele>307.0</ele><time>2026-04-11T03:56:53Z</time></trkpt><trkpt lat="43.33917085878111" lon="11.491129812771396"><ele>306.8</ele><time>2026-04-11T03:56:54Z</time></trkpt><trkpt lat="43.33909063985737" lon="11.49102488949843"><ele>306.6</ele><time>2026-04-11T03:56:55Z</time></trkpt><trkpt lat="43.33901116224801" lon="11.490924671795717"><ele>306.40000000000003</ele><time>2026-04-11T03:56:56Z</time></trkpt><trkpt lat="43.338922552360884" lon="11.490824489889452"><ele>306.2</ele><time>2026-04-11T03:56:57Z</time></trkpt><trkpt lat="43.338835310115556" lon="11.49072993501065"><ele>306.0</ele><time>2026-04-11T03:56:58Z</time></trkpt><trkpt lat="43.33874982959542" lon="11.490638393811313"><ele>305.40000000000003</ele><time>2026-04-11T03:56:59Z</time></trkpt><trkpt lat="43.33866347767827" lon="11.490550807941124"><ele>304.8</ele><time>2026-04-11T03:57:00Z</time></trkpt><trkpt lat="43.33857652742267" lon="11.490466200087516"><ele>304.20000000000005</ele><time>2026-04-11T03:57:01Z</time></trkpt><trkpt lat="43.33849396369726" lon="11.490382688518935"><ele>303.6</ele><time>2026-04-11T03:57:02Z</time></trkpt><trkpt lat="43.3384086343651" lon="11.490302927023974"><ele>303.0</ele><time>2026-04-11T03:57:03Z</time></trkpt><trkpt lat="43.33832633429384" lon="11.49021534185925"><ele>303.0</ele><time>2026-04-11T03:57:04Z</time></trkpt><trkpt lat="43.33824681801793" lon="11.490121163792445"><ele>303.0</ele><time>2026-04-11T03:57:05Z</time></trkpt><trkpt lat="43.33815682535566" lon="11.490031179991654"><ele>303.0</ele><time>2026-04-11T03:57:06Z</time></trkpt><trkpt lat="43.3380712832" lon="11.489940699586317"><ele>303.0</ele><time>2026-04-11T03:57:07Z</time></trkpt><trkpt lat="43.33789110840211" lon="11.489761163417832"><ele>302.0</ele><time>2026-04-11T03:57:09Z</time></trkpt><trkpt lat="43.33780320845063" lon="11.489668894034974"><ele>301.0</ele><time>2026-04-11T03:57:10Z</time></trkpt><trkpt lat="43.33771281434599" lon="11.489574224932417"><ele>300.0</ele><time>2026-04-11T03:57:11Z</time></trkpt><trkpt lat="43.33762166791514" lon="11.489485654941198"><ele>299.0</ele><time>2026-04-11T03:57:12Z</time></trkpt><trkpt lat="43.33753300490965" lon="11.48939204427808"><ele>298.0</ele><time>2026-04-11T03:57:13Z</time></trkpt><trkpt lat="43.33744150015117" lon="11.48930265498238"><ele>297.8</ele><time>2026-04-11T03:57:14Z</time></trkpt><trkpt lat="43.33735540141585" lon="11.489209052649489"><ele>297.6</ele><time>2026-04-11T03:57:15Z</time></trkpt><trkpt lat="43.33726841396455" lon="11.489118138659213"><ele>297.4</ele><time>2026-04-11T03:57:16Z</time></trkpt><trkpt lat="43.33718431981812" lon="11.489033350506306"><ele>297.2</ele><time>2026-04-11T03:57:17Z</time></trkpt><trkpt lat="43.33709534841198" lon="11.488954948935081"><ele>297.0</ele><time>2026-04-11T03:57:18Z</time></trkpt><trkpt lat="43.337000036966224" lon="11.488886850449717"><ele>297.4</ele><time>2026-04-11T03:57:19Z</time></trkpt><trkpt lat="43.33689984313682" lon="11.488833846490584"><ele>297.79999999999995</ele><time>2026-04-11T03:57:20Z</time></trkpt><trkpt lat="43.33680136093499" lon="11.48878651649134"><ele>298.2</ele><time>2026-04-11T03:57:21Z</time></trkpt><trkpt lat="43.33669327633859" lon="11.488743059410682"><ele>298.59999999999997</ele><time>2026-04-11T03:57:22Z</time></trkpt><trkpt lat="43.336604177384814" lon="11.488670050399303"><ele>299.0</ele><time>2026-04-11T03:57:23Z</time></trkpt><trkpt lat="43.33651883755931" lon="11.488588147972079"><ele>299.0</ele><time>2026-04-11T03:57:24Z</time></trkpt><trkpt lat="43.33644237834766" lon="11.488492401813096"><ele>299.0</ele><time>2026-04-11T03:57:25Z</time></trkpt><trkpt lat="43.33637018159766" lon="11.488383885747869"><ele>299.0</ele><time>2026-04-11T03:57:26Z</time></trkpt><trkpt lat="43.33630989737675" lon="11.488269435150672"><ele>299.0</ele><time>2026-04-11T03:57:27Z</time></trkpt><trkpt lat="43.336250092365304" lon="11.488154711919481"><ele>299.0</ele><time>2026-04-11T03:57:28Z</time></trkpt><trkpt lat="43.33611115658407" lon="11.487941601462385"><ele>297.4</ele><time>2026-04-11T03:57:30Z</time></trkpt><trkpt lat="43.33602676581387" lon="11.48784907806673"><ele>295.79999999999995</ele><time>2026-04-11T03:57:31Z</time></trkpt><trkpt lat="43.33594781056492" lon="11.487753907212321"><ele>294.20000000000005</ele><time>2026-04-11T03:57:32Z</time></trkpt><trkpt lat="43.335864679718426" lon="11.487667858739503"><ele>292.6</ele><time>2026-04-11T03:57:33Z</time></trkpt><trkpt lat="43.33578258376525" lon="11.487576308073809"><ele>291.0</ele><time>2026-04-11T03:57:34Z</time></trkpt><trkpt lat="43.335707986327385" lon="11.487473571103724"><ele>291.0</ele><time>2026-04-11T03:57:35Z</time></trkpt><trkpt lat="43.33563571178536" lon="11.487365773049882"><ele>291.0</ele><time>2026-04-11T03:57:36Z</time></trkpt><trkpt lat="43.335578051632844" lon="11.487244203185215"><ele>291.0</ele><time>2026-04-11T03:57:37Z</time></trkpt><trkpt lat="43.33551644559583" lon="11.487122358431193"><ele>291.0</ele><time>2026-04-11T03:57:38Z</time></trkpt><trkpt lat="43.33546316828986" lon="11.486992338541324"><ele>291.0</ele><time>2026-04-11T03:57:39Z</time></trkpt><trkpt lat="43.33540142503985" lon="11.486865008486582"><ele>291.75</ele><time>2026-04-11T03:57:40Z</time></trkpt><trkpt lat="43.33534832030218" lon="11.486731712649481"><ele>292.5</ele><time>2026-04-11T03:57:41Z</time></trkpt><trkpt lat="43.33529180862079" lon="11.486594812382915"><ele>293.25</ele><time>2026-04-11T03:57:42Z</time></trkpt><trkpt lat="43.33523884016671" lon="11.486459990643771"><ele>294.0</ele><time>2026-04-11T03:57:43Z</time></trkpt><trkpt lat="43.33518005446034" lon="11.486323655843597"><ele>291.75</ele><time>2026-04-11T03:57:44Z</time></trkpt><trkpt lat="43.3351271473362" lon="11.486187338360528"><ele>289.5</ele><time>2026-04-11T03:57:45Z</time></trkpt><trkpt lat="43.33507219692657" lon="11.48605226562668"><ele>287.25</ele><time>2026-04-11T03:57:46Z</time></trkpt><trkpt lat="43.3350257004418" lon="11.48590607766263"><ele>285.0</ele><time>2026-04-11T03:57:47Z</time></trkpt><trkpt lat="43.33498451585203" lon="11.485755626906332"><ele>285.0</ele><time>2026-04-11T03:57:48Z</time></trkpt><trkpt lat="43.334952494618655" lon="11.485593970655506"><ele>285.0</ele><time>2026-04-11T03:57:49Z</time></trkpt><trkpt lat="43.33490468828497" lon="11.485270932339837"><ele>285.0</ele><time>2026-04-11T03:57:51Z</time></trkpt><trkpt lat="43.334879930470365" lon="11.485111209444293"><ele>283.5</ele><time>2026-04-11T03:57:52Z</time></trkpt><trkpt lat="43.33485898691346" lon="11.484949667695826"><ele>282.0</ele><time>2026-04-11T03:57:53Z</time></trkpt><trkpt lat="43.33483372944416" lon="11.48479462791478"><ele>280.5</ele><time>2026-04-11T03:57:54Z</time></trkpt><trkpt lat="43.33481278898372" lon="11.484627881043934"><ele>279.0</ele><time>2026-04-11T03:57:55Z</time></trkpt><trkpt lat="43.33479324582441" lon="11.484469314112115"><ele>278.0</ele><time>2026-04-11T03:57:56Z</time></trkpt><trkpt lat="43.334781011092296" lon="11.48431088520183"><ele>277.0</ele><time>2026-04-11T03:57:57Z</time></trkpt><trkpt lat="43.33476530465066" lon="11.484154112245774"><ele>276.0</ele><time>2026-04-11T03:57:58Z</time></trkpt><trkpt lat="43.33474875824783" lon="11.484001136424457"><ele>275.0</ele><time>2026-04-11T03:57:59Z</time></trkpt><trkpt lat="43.334737625171826" lon="11.483847426700494"><ele>274.8</ele><time>2026-04-11T03:58:00Z</time></trkpt><trkpt lat="43.3347299732617" lon="11.48369456099819"><ele>274.6</ele><time>2026-04-11T03:58:01Z</time></trkpt><trkpt lat="43.3347223017851" lon="11.483545053663264"><ele>274.4</ele><time>2026-04-11T03:58:02Z</time></trkpt><trkpt lat="43.334712036441005" lon="11.483396874900409"><ele>274.2</ele><time>2026-04-11T03:58:03Z</time></trkpt><trkpt lat="43.334701349152255" lon="11.483246216034104"><ele>274.0</ele><time>2026-04-11T03:58:04Z</time></trkpt><trkpt lat="43.33468799994553" lon="11.48309383883637"><ele>275.4</ele><time>2026-04-11T03:58:05Z</time></trkpt><trkpt lat="43.33466924604568" lon="11.482950302968652"><ele>276.79999999999995</ele><time>2026-04-11T03:58:06Z</time></trkpt><trkpt lat="43.33464898101681" lon="11.482802077403298"><ele>278.20000000000005</ele><time>2026-04-11T03:58:07Z</time></trkpt><trkpt lat="43.33462230903562" lon="11.482659574462454"><ele>279.6</ele><time>2026-04-11T03:58:08Z</time></trkpt><trkpt lat="43.334606676083936" lon="11.482514680398365"><ele>281.0</ele><time>2026-04-11T03:58:09Z</time></trkpt><trkpt lat="43.33459188855029" lon="11.482385469343134"><ele>281.0</ele><time>2026-04-11T03:58:10Z</time></trkpt><trkpt lat="43.33459503955685" lon="11.482125216779169"><ele>281.0</ele><time>2026-04-11T03:58:12Z</time></trkpt><trkpt lat="43.33462525337327" lon="11.481999571531041"><ele>281.0</ele><time>2026-04-11T03:58:13Z</time></trkpt><trkpt lat="43.3346679702018" lon="11.481886384222422"><ele>281.0</ele><time>2026-04-11T03:58:14Z</time></trkpt><trkpt lat="43.3347199601446" lon="11.48178185982664"><ele>280.6666666666667</ele><time>2026-04-11T03:58:15Z</time></trkpt><trkpt lat="43.334776166038914" lon="11.481679779652955"><ele>280.33333333333337</ele><time>2026-04-11T03:58:16Z</time></trkpt><trkpt lat="43.33483123331385" lon="11.481582248982564"><ele>280.0</ele><time>2026-04-11T03:58:17Z</time></trkpt><trkpt lat="43.334882368486454" lon="11.481488580227282"><ele>279.6666666666667</ele><time>2026-04-11T03:58:18Z</time></trkpt><trkpt lat="43.33493532497655" lon="11.481394337502373"><ele>279.3333333333333</ele><time>2026-04-11T03:58:19Z</time></trkpt><trkpt lat="43.33498211285606" lon="11.481302601310718"><ele>279.0</ele><time>2026-04-11T03:58:20Z</time></trkpt><trkpt lat="43.33503510806591" lon="11.481209935967506"><ele>279.0</ele><time>2026-04-11T03:58:21Z</time></trkpt><trkpt lat="43.3350908883637" lon="11.481120628557631"><ele>279.0</ele><time>2026-04-11T03:58:22Z</time></trkpt><trkpt lat="43.33514337886242" lon="11.481031070765956"><ele>279.0</ele><time>2026-04-11T03:58:23Z</time></trkpt><trkpt lat="43.33519278753639" lon="11.480941071939705"><ele>279.0</ele><time>2026-04-11T03:58:24Z</time></trkpt><trkpt lat="43.33524425599662" lon="11.480848721988785"><ele>279.0</ele><time>2026-04-11T03:58:25Z</time></trkpt><trkpt lat="43.33529274392701" lon="11.480759607165634"><ele>279.0</ele><time>2026-04-11T03:58:26Z</time></trkpt><trkpt lat="43.3353287599275" lon="11.480661275503918"><ele>279.0</ele><time>2026-04-11T03:58:27Z</time></trkpt><trkpt lat="43.335367276092484" lon="11.480573657891844"><ele>279.0</ele><time>2026-04-11T03:58:28Z</time></trkpt><trkpt lat="43.33539361721607" lon="11.480484729804688"><ele>279.0</ele><time>2026-04-11T03:58:29Z</time></trkpt><trkpt lat="43.33542103411258" lon="11.480322454307048"><ele>279.0</ele><time>2026-04-11T03:58:31Z</time></trkpt><trkpt lat="43.335479023232246" lon="11.48001332069732"><ele>279.1666666666667</ele><time>2026-04-11T03:58:35Z</time></trkpt><trkpt lat="43.33551518170379" lon="11.479865580844791"><ele>279.3333333333333</ele><time>2026-04-11T03:58:37Z</time></trkpt><trkpt lat="43.335565148334084" lon="11.47970790029379"><ele>279.5</ele><time>2026-04-11T03:58:39Z</time></trkpt><trkpt lat="43.33559067576635" lon="11.479628781243122"><ele>279.66666666666663</ele><time>2026-04-11T03:58:40Z</time></trkpt><trkpt lat="43.33561782883034" lon="11.47954448236907"><ele>279.8333333333333</ele><time>2026-04-11T03:58:41Z</time></trkpt><trkpt lat="43.33564712539683" lon="11.479457130904745"><ele>280.0</ele><time>2026-04-11T03:58:42Z</time></trkpt><trkpt lat="43.335681756575426" lon="11.479371927836068"><ele>279.66666666666663</ele><time>2026-04-11T03:58:43Z</time></trkpt><trkpt lat="43.335716742522166" lon="11.479275951943155"><ele>279.3333333333333</ele><time>2026-04-11T03:58:44Z</time></trkpt><trkpt lat="43.33574821487129" lon="11.479177206726147"><ele>279.0</ele><time>2026-04-11T03:58:45Z</time></trkpt><trkpt lat="43.33577777250767" lon="11.479082972390449"><ele>278.6666666666667</ele><time>2026-04-11T03:58:46Z</time></trkpt><trkpt lat="43.33581399163067" lon="11.478991477021852"><ele>278.33333333333337</ele><time>2026-04-11T03:58:47Z</time></trkpt><trkpt lat="43.33583867384179" lon="11.478896187944056"><ele>278.0</ele><time>2026-04-11T03:58:48Z</time></trkpt><trkpt lat="43.33586918615874" lon="11.478803945881575"><ele>277.33333333333337</ele><time>2026-04-11T03:58:49Z</time></trkpt><trkpt lat="43.33589699807212" lon="11.478711441845375"><ele>276.6666666666667</ele><time>2026-04-11T03:58:50Z</time></trkpt><trkpt lat="43.33591987469502" lon="11.478618389139323"><ele>276.0</ele><time>2026-04-11T03:58:51Z</time></trkpt><trkpt lat="43.335952531843084" lon="11.478525304594534"><ele>275.3333333333333</ele><time>2026-04-11T03:58:52Z</time></trkpt><trkpt lat="43.33600068158628" lon="11.478335085622222"><ele>274.66666666666663</ele><time>2026-04-11T03:58:54Z</time></trkpt><trkpt lat="43.336016824339154" lon="11.478237218637492"><ele>274.0</ele><time>2026-04-11T03:58:55Z</time></trkpt><trkpt lat="43.336028931973864" lon="11.47813950864584"><ele>274.00000000000006</ele><time>2026-04-11T03:58:56Z</time></trkpt><trkpt lat="43.33603278608693" lon="11.478041555529447"><ele>274.0</ele><time>2026-04-11T03:58:57Z</time></trkpt><trkpt lat="43.33602563483232" lon="11.477942256208879"><ele>274.0</ele><time>2026-04-11T03:58:58Z</time></trkpt><trkpt lat="43.33601355413658" lon="11.477844635872934"><ele>274.0</ele><time>2026-04-11T03:58:59Z</time></trkpt><trkpt lat="43.335996774711425" lon="11.47775351549765"><ele>274.0</ele><time>2026-04-11T03:59:00Z</time></trkpt><trkpt lat="43.33597638567648" lon="11.477666063353428"><ele>274.00000000000006</ele><time>2026-04-11T03:59:01Z</time></trkpt><trkpt lat="43.335952572621174" lon="11.47758242420864"><ele>274.0</ele><time>2026-04-11T03:59:02Z</time></trkpt><trkpt lat="43.33593087617552" lon="11.477497749165922"><ele>274.0</ele><time>2026-04-11T03:59:03Z</time></trkpt><trkpt lat="43.335903135145706" lon="11.477414342107204"><ele>274.0</ele><time>2026-04-11T03:59:04Z</time></trkpt><trkpt lat="43.33588387216963" lon="11.477328321078296"><ele>274.0</ele><time>2026-04-11T03:59:05Z</time></trkpt><trkpt lat="43.33583944182148" lon="11.477164103786684"><ele>274.0</ele><time>2026-04-11T03:59:07Z</time></trkpt><trkpt lat="43.33578063958851" lon="11.47700405647906"><ele>274.0</ele><time>2026-04-11T03:59:09Z</time></trkpt><trkpt lat="43.335755653030304" lon="11.476920511367332"><ele>273.5</ele><time>2026-04-11T03:59:10Z</time></trkpt><trkpt lat="43.33570502331919" lon="11.476777166307356"><ele>273.0</ele><time>2026-04-11T03:59:12Z</time></trkpt><trkpt lat="43.33565456142882" lon="11.476650660621672"><ele>272.5</ele><time>2026-04-11T03:59:14Z</time></trkpt><trkpt lat="43.33557421077694" lon="11.476447508423217"><ele>272.0</ele><time>2026-04-11T03:59:18Z</time></trkpt><trkpt lat="43.33553720120078" lon="11.476348715108934"><ele>272.6</ele><time>2026-04-11T03:59:20Z</time></trkpt><trkpt lat="43.33548767453976" lon="11.476230513939285"><ele>273.2</ele><time>2026-04-11T03:59:22Z</time></trkpt><trkpt lat="43.33542993481988" lon="11.476091937677051"><ele>273.8</ele><time>2026-04-11T03:59:24Z</time></trkpt><trkpt lat="43.33537118930064" lon="11.475941402382219"><ele>274.4</ele><time>2026-04-11T03:59:26Z</time></trkpt><trkpt lat="43.335339069662936" lon="11.475862912424038"><ele>275.0</ele><time>2026-04-11T03:59:27Z</time></trkpt><trkpt lat="43.33530610770068" lon="11.475785710295547"><ele>275.0</ele><time>2026-04-11T03:59:28Z</time></trkpt><trkpt lat="43.33527429541712" lon="11.475705714459702"><ele>275.0</ele><time>2026-04-11T03:59:29Z</time></trkpt><trkpt lat="43.33524422357027" lon="11.475620801175534"><ele>275.0</ele><time>2026-04-11T03:59:30Z</time></trkpt><trkpt lat="43.335211956787774" lon="11.475539596299718"><ele>275.0</ele><time>2026-04-11T03:59:31Z</time></trkpt><trkpt lat="43.335175363862795" lon="11.475460313996338"><ele>275.0</ele><time>2026-04-11T03:59:32Z</time></trkpt><trkpt lat="43.33514099878198" lon="11.47537761109506"><ele>275.0</ele><time>2026-04-11T03:59:33Z</time></trkpt><trkpt lat="43.33511054412125" lon="11.47529108719733"><ele>275.0</ele><time>2026-04-11T03:59:34Z</time></trkpt><trkpt lat="43.33508533742012" lon="11.475201954140868"><ele>274.6666666666667</ele><time>2026-04-11T03:59:35Z</time></trkpt><trkpt lat="43.335036927175175" lon="11.475015792927952"><ele>274.33333333333337</ele><time>2026-04-11T03:59:37Z</time></trkpt><trkpt lat="43.335018752373664" lon="11.474920749420292"><ele>274.0</ele><time>2026-04-11T03:59:38Z</time></trkpt><trkpt lat="43.334994552691825" lon="11.474827130599655"><ele>273.6666666666667</ele><time>2026-04-11T03:59:39Z</time></trkpt><trkpt lat="43.334974760102355" lon="11.474734667437765"><ele>273.3333333333333</ele><time>2026-04-11T03:59:40Z</time></trkpt><trkpt lat="43.33496207687886" lon="11.474641678219852"><ele>273.0</ele><time>2026-04-11T03:59:41Z</time></trkpt><trkpt lat="43.33494594872041" lon="11.474547827273769"><ele>272.85714285714283</ele><time>2026-04-11T03:59:42Z</time></trkpt><trkpt lat="43.3349338675685" lon="11.474458320901148"><ele>272.7142857142857</ele><time>2026-04-11T03:59:43Z</time></trkpt><trkpt lat="43.33492483167503" lon="11.474370705874687"><ele>272.57142857142856</ele><time>2026-04-11T03:59:44Z</time></trkpt><trkpt lat="43.33491721841946" lon="11.4742744766721"><ele>272.42857142857144</ele><time>2026-04-11T03:59:45Z</time></trkpt><trkpt lat="43.33490529082205" lon="11.474184192365657"><ele>272.2857142857143</ele><time>2026-04-11T03:59:46Z</time></trkpt><trkpt lat="43.33489964324165" lon="11.474091376313586"><ele>272.1428571428571</ele><time>2026-04-11T03:59:47Z</time></trkpt><trkpt lat="43.33489040619093" lon="11.473998775882043"><ele>272.0</ele><time>2026-04-11T03:59:48Z</time></trkpt><trkpt lat="43.33487946784292" lon="11.473907661878618"><ele>272.0</ele><time>2026-04-11T03:59:49Z</time></trkpt><trkpt lat="43.334869930819586" lon="11.473806504302567"><ele>272.0</ele><time>2026-04-11T03:59:50Z</time></trkpt><trkpt lat="43.33486041546888" lon="11.473707740436172"><ele>272.0</ele><time>2026-04-11T03:59:51Z</time></trkpt><trkpt lat="43.334846630400655" lon="11.473528119336365"><ele>272.0</ele><time>2026-04-11T03:59:53Z</time></trkpt><trkpt lat="43.3348358642086" lon="11.473438468893635"><ele>272.0</ele><time>2026-04-11T03:59:54Z</time></trkpt><trkpt lat="43.33483195057082" lon="11.473340120215612"><ele>272.0</ele><time>2026-04-11T03:59:55Z</time></trkpt><trkpt lat="43.33482286174065" lon="11.473249047465423"><ele>271.8</ele><time>2026-04-11T03:59:56Z</time></trkpt><trkpt lat="43.33483774631147" lon="11.473051739605697"><ele>271.6</ele><time>2026-04-11T03:59:58Z</time></trkpt><trkpt lat="43.33485445982967" lon="11.472943159546855"><ele>271.40000000000003</ele><time>2026-04-11T03:59:59Z</time></trkpt><trkpt lat="43.33487360627973" lon="11.47283582439169"><ele>271.2</ele><time>2026-04-11T04:00:00Z</time></trkpt><trkpt lat="43.33489509846575" lon="11.472733003366953"><ele>271.0</ele><time>2026-04-11T04:00:01Z</time></trkpt><trkpt lat="43.334915614064265" lon="11.472630567098062"><ele>271.0</ele><time>2026-04-11T04:00:02Z</time></trkpt><trkpt lat="43.33493934629271" lon="11.472527740236952"><ele>271.0</ele><time>2026-04-11T04:00:03Z</time></trkpt><trkpt lat="43.33496600507586" lon="11.472434794169718"><ele>271.0</ele><time>2026-04-11T04:00:04Z</time></trkpt><trkpt lat="43.334992869764534" lon="11.472338525095639"><ele>271.0</ele><time>2026-04-11T04:00:05Z</time></trkpt><trkpt lat="43.3350265786574" lon="11.472241765805828"><ele>271.0</ele><time>2026-04-11T04:00:06Z</time></trkpt><trkpt lat="43.33506645461758" lon="11.47214338862816"><ele>271.0</ele><time>2026-04-11T04:00:07Z</time></trkpt><trkpt lat="43.335101679957475" lon="11.472043297909323"><ele>270.2</ele><time>2026-04-11T04:00:08Z</time></trkpt><trkpt lat="43.335135372272255" lon="11.471936261080568"><ele>269.40000000000003</ele><time>2026-04-11T04:00:09Z</time></trkpt><trkpt lat="43.33517485460867" lon="11.471827335207738"><ele>268.6</ele><time>2026-04-11T04:00:10Z</time></trkpt><trkpt lat="43.33521636764654" lon="11.471711473036866"><ele>267.8</ele><time>2026-04-11T04:00:11Z</time></trkpt><trkpt lat="43.33527065434141" lon="11.471588810080599"><ele>267.0</ele><time>2026-04-11T04:00:12Z</time></trkpt><trkpt lat="43.33533434972004" lon="11.471460630102898"><ele>267.0</ele><time>2026-04-11T04:00:13Z</time></trkpt><trkpt lat="43.335395555437664" lon="11.47132030327861"><ele>267.0</ele><time>2026-04-11T04:00:14Z</time></trkpt><trkpt lat="43.33546049681488" lon="11.471177524325403"><ele>267.0</ele><time>2026-04-11T04:00:15Z</time></trkpt><trkpt lat="43.33552270648463" lon="11.47101682476906"><ele>267.0</ele><time>2026-04-11T04:00:16Z</time></trkpt><trkpt lat="43.33558467790084" lon="11.470853037524897"><ele>265.3333333333333</ele><time>2026-04-11T04:00:17Z</time></trkpt><trkpt lat="43.33569723773261" lon="11.470568484454661"><ele>263.66666666666663</ele><time>2026-04-11T04:00:19Z</time></trkpt><trkpt lat="43.33574341279232" lon="11.47041334426172"><ele>262.0</ele><time>2026-04-11T04:00:20Z</time></trkpt><trkpt lat="43.33577776058673" lon="11.47026687221941"><ele>261.2</ele><time>2026-04-11T04:00:21Z</time></trkpt><trkpt lat="43.33577918541484" lon="11.47011297973856"><ele>260.4</ele><time>2026-04-11T04:00:22Z</time></trkpt><trkpt lat="43.33575498539133" lon="11.46997189393231"><ele>259.6</ele><time>2026-04-11T04:00:23Z</time></trkpt><trkpt lat="43.33573869339333" lon="11.469848704871605"><ele>258.8</ele><time>2026-04-11T04:00:24Z</time></trkpt><trkpt lat="43.33571667523551" lon="11.469734127176496"><ele>258.0</ele><time>2026-04-11T04:00:25Z</time></trkpt><trkpt lat="43.335690793021044" lon="11.469615672977238"><ele>258.0</ele><time>2026-04-11T04:00:26Z</time></trkpt><trkpt lat="43.33566781055887" lon="11.469502716483907"><ele>258.0</ele><time>2026-04-11T04:00:27Z</time></trkpt><trkpt lat="43.33563141053183" lon="11.469404825793777"><ele>258.0</ele><time>2026-04-11T04:00:28Z</time></trkpt><trkpt lat="43.33560362357687" lon="11.469309620445072"><ele>258.0</ele><time>2026-04-11T04:00:29Z</time></trkpt><trkpt lat="43.33556795904144" lon="11.469217705413444"><ele>258.0</ele><time>2026-04-11T04:00:30Z</time></trkpt><trkpt lat="43.335531996341366" lon="11.469125088516199"><ele>258.0</ele><time>2026-04-11T04:00:31Z</time></trkpt><trkpt lat="43.33549485335241" lon="11.469045085796099"><ele>257.6666666666667</ele><time>2026-04-11T04:00:32Z</time></trkpt><trkpt lat="43.33545194521463" lon="11.468962225014321"><ele>257.3333333333333</ele><time>2026-04-11T04:00:33Z</time></trkpt><trkpt lat="43.335406432092654" lon="11.468891950317163"><ele>257.0</ele><time>2026-04-11T04:00:34Z</time></trkpt><trkpt lat="43.33534290474949" lon="11.468825511857334"><ele>256.66666666666663</ele><time>2026-04-11T04:00:35Z</time></trkpt><trkpt lat="43.33529293037129" lon="11.468743371425592"><ele>256.3333333333333</ele><time>2026-04-11T04:00:36Z</time></trkpt><trkpt lat="43.33524411474902" lon="11.46864301180717"><ele>256.0</ele><time>2026-04-11T04:00:37Z</time></trkpt><trkpt lat="43.33518603497957" lon="11.468561825356037"><ele>256.0</ele><time>2026-04-11T04:00:38Z</time></trkpt><trkpt lat="43.33507565500649" lon="11.468402578888279"><ele>256.0</ele><time>2026-04-11T04:00:40Z</time></trkpt><trkpt lat="43.33502307640647" lon="11.468311394978585"><ele>256.0</ele><time>2026-04-11T04:00:41Z</time></trkpt><trkpt lat="43.33497655104604" lon="11.468213839822925"><ele>256.0</ele><time>2026-04-11T04:00:42Z</time></trkpt><trkpt lat="43.334939560448674" lon="11.46811331476428"><ele>256.0</ele><time>2026-04-11T04:00:43Z</time></trkpt><trkpt lat="43.334906065888376" lon="11.468028353200097"><ele>256.2</ele><time>2026-04-11T04:00:44Z</time></trkpt><trkpt lat="43.33485949008841" lon="11.467937806268939"><ele>256.40000000000003</ele><time>2026-04-11T04:00:45Z</time></trkpt><trkpt lat="43.33482236859984" lon="11.46781355094831"><ele>256.6</ele><time>2026-04-11T04:00:46Z</time></trkpt><trkpt lat="43.33479915203211" lon="11.467698831869958"><ele>256.8</ele><time>2026-04-11T04:00:47Z</time></trkpt><trkpt lat="43.334782613873564" lon="11.467571608352017"><ele>257.0</ele><time>2026-04-11T04:00:48Z</time></trkpt><trkpt lat="43.3347711938196" lon="11.467447497419514"><ele>257.0</ele><time>2026-04-11T04:00:49Z</time></trkpt><trkpt lat="43.33475765101329" lon="11.467320906359513"><ele>257.0</ele><time>2026-04-11T04:00:50Z</time></trkpt><trkpt lat="43.33474756628659" lon="11.46718650881331"><ele>257.0</ele><time>2026-04-11T04:00:51Z</time></trkpt><trkpt lat="43.33473226566002" lon="11.467048838863567"><ele>257.0</ele><time>2026-04-11T04:00:52Z</time></trkpt><trkpt lat="43.33472542569031" lon="11.466910163095223"><ele>257.0</ele><time>2026-04-11T04:00:53Z</time></trkpt><trkpt lat="43.33471891173339" lon="11.466774127077416"><ele>255.39999999999998</ele><time>2026-04-11T04:00:54Z</time></trkpt><trkpt lat="43.33471738716859" lon="11.466635227110906"><ele>253.79999999999998</ele><time>2026-04-11T04:00:55Z</time></trkpt><trkpt lat="43.33472342000932" lon="11.466487198524948"><ele>252.2</ele><time>2026-04-11T04:00:56Z</time></trkpt><trkpt lat="43.33473768718456" lon="11.466347296296332"><ele>250.6</ele><time>2026-04-11T04:00:57Z</time></trkpt><trkpt lat="43.334760134130704" lon="11.466211762652335"><ele>249.0</ele><time>2026-04-11T04:00:58Z</time></trkpt><trkpt lat="43.33479146868608" lon="11.46608217662793"><ele>248.25</ele><time>2026-04-11T04:00:59Z</time></trkpt><trkpt lat="43.334869007700036" lon="11.465822349817476"><ele>247.5</ele><time>2026-04-11T04:01:01Z</time></trkpt><trkpt lat="43.33490237405674" lon="11.465688541808229"><ele>246.75</ele><time>2026-04-11T04:01:02Z</time></trkpt><trkpt lat="43.33493846619278" lon="11.465560886138585"><ele>246.0</ele><time>2026-04-11T04:01:03Z</time></trkpt><trkpt lat="43.33497500950517" lon="11.465427222091424"><ele>245.8</ele><time>2026-04-11T04:01:04Z</time></trkpt><trkpt lat="43.33500765550085" lon="11.465291808893644"><ele>245.60000000000002</ele><time>2026-04-11T04:01:05Z</time></trkpt><trkpt lat="43.33504658329888" lon="11.465168226384325"><ele>245.4</ele><time>2026-04-11T04:01:06Z</time></trkpt><trkpt lat="43.33508075684022" lon="11.465039885211256"><ele>245.2</ele><time>2026-04-11T04:01:07Z</time></trkpt><trkpt lat="43.33511226088263" lon="11.464904744036474"><ele>245.0</ele><time>2026-04-11T04:01:08Z</time></trkpt><trkpt lat="43.33514802355613" lon="11.464782083170482"><ele>245.0</ele><time>2026-04-11T04:01:09Z</time></trkpt><trkpt lat="43.33518488748882" lon="11.464655566626632"><ele>245.0</ele><time>2026-04-11T04:01:10Z</time></trkpt><trkpt lat="43.3352120020679" lon="11.464516189405208"><ele>245.0</ele><time>2026-04-11T04:01:11Z</time></trkpt><trkpt lat="43.335248469865775" lon="11.464400784503246"><ele>245.0</ele><time>2026-04-11T04:01:12Z</time></trkpt><trkpt lat="43.33527963286937" lon="11.464281670280352"><ele>245.0</ele><time>2026-04-11T04:01:13Z</time></trkpt><trkpt lat="43.33530767181694" lon="11.464177014608515"><ele>244.33333333333334</ele><time>2026-04-11T04:01:14Z</time></trkpt><trkpt lat="43.335336315859884" lon="11.46405095794915"><ele>243.66666666666669</ele><time>2026-04-11T04:01:15Z</time></trkpt><trkpt lat="43.33537205801" lon="11.46394385632482"><ele>243.0</ele><time>2026-04-11T04:01:16Z</time></trkpt><trkpt lat="43.33540162157222" lon="11.463838267620426"><ele>242.33333333333331</ele><time>2026-04-11T04:01:17Z</time></trkpt><trkpt lat="43.33543025024195" lon="11.463732413942337"><ele>241.66666666666666</ele><time>2026-04-11T04:01:18Z</time></trkpt><trkpt lat="43.33546122638379" lon="11.463634858309364"><ele>241.0</ele><time>2026-04-11T04:01:19Z</time></trkpt><trkpt lat="43.33549460722683" lon="11.463541940128563"><ele>240.0</ele><time>2026-04-11T04:01:20Z</time></trkpt><trkpt lat="43.335562436650356" lon="11.463366171224981"><ele>239.00000000000003</ele><time>2026-04-11T04:01:22Z</time></trkpt><trkpt lat="43.33559554084563" lon="11.46328920932189"><ele>238.00000000000003</ele><time>2026-04-11T04:01:23Z</time></trkpt><trkpt lat="43.335630709668536" lon="11.463213412798433"><ele>237.0</ele><time>2026-04-11T04:01:24Z</time></trkpt><trkpt lat="43.335661226167616" lon="11.463135596986818"><ele>236.0</ele><time>2026-04-11T04:01:25Z</time></trkpt><trkpt lat="43.33571360248955" lon="11.462991084594867"><ele>238.20000000000002</ele><time>2026-04-11T04:01:27Z</time></trkpt><trkpt lat="43.335766208930394" lon="11.462855315530625"><ele>240.40000000000003</ele><time>2026-04-11T04:01:29Z</time></trkpt><trkpt lat="43.335802807854016" lon="11.46272379376624"><ele>242.6</ele><time>2026-04-11T04:01:31Z</time></trkpt><trkpt lat="43.33583715581291" lon="11.462619144726649"><ele>244.8</ele><time>2026-04-11T04:01:33Z</time></trkpt><trkpt lat="43.335868204419775" lon="11.462517796671305"><ele>247.0</ele><time>2026-04-11T04:01:35Z</time></trkpt><trkpt lat="43.33588377170606" lon="11.462417403908802"><ele>247.0</ele><time>2026-04-11T04:01:37Z</time></trkpt><trkpt lat="43.33588611478946" lon="11.462327291789995"><ele>247.0</ele><time>2026-04-11T04:01:39Z</time></trkpt><trkpt lat="43.33590197211415" lon="11.462217345130563"><ele>247.0</ele><time>2026-04-11T04:01:41Z</time></trkpt><trkpt lat="43.3359360749729" lon="11.461977322501603"><ele>247.0</ele><time>2026-04-11T04:01:44Z</time></trkpt><trkpt lat="43.335945389752474" lon="11.461878783066453"><ele>247.0</ele><time>2026-04-11T04:01:45Z</time></trkpt><trkpt lat="43.33595143606881" lon="11.461764838572345"><ele>247.33333333333331</ele><time>2026-04-11T04:01:46Z</time></trkpt><trkpt lat="43.33595504280435" lon="11.46165659721459"><ele>247.66666666666666</ele><time>2026-04-11T04:01:47Z</time></trkpt><trkpt lat="43.33595692728131" lon="11.461535202415503"><ele>248.0</ele><time>2026-04-11T04:01:48Z</time></trkpt><trkpt lat="43.335941338205586" lon="11.461433433612385"><ele>248.33333333333331</ele><time>2026-04-11T04:01:49Z</time></trkpt><trkpt lat="43.335941665414985" lon="11.461298830064626"><ele>248.66666666666666</ele><time>2026-04-11T04:01:50Z</time></trkpt><trkpt lat="43.33593556303983" lon="11.461186329724379"><ele>249.0</ele><time>2026-04-11T04:01:51Z</time></trkpt><trkpt lat="43.335950230023464" lon="11.461056553313258"><ele>248.33333333333334</ele><time>2026-04-11T04:01:52Z</time></trkpt><trkpt lat="43.33596455804188" lon="11.460940936169814"><ele>247.66666666666669</ele><time>2026-04-11T04:01:53Z</time></trkpt><trkpt lat="43.33597271213148" lon="11.46082924913916"><ele>247.0</ele><time>2026-04-11T04:01:54Z</time></trkpt><trkpt lat="43.33598692799905" lon="11.460713887500752"><ele>246.33333333333334</ele><time>2026-04-11T04:01:55Z</time></trkpt><trkpt lat="43.33599829248679" lon="11.46060423388858"><ele>245.66666666666669</ele><time>2026-04-11T04:01:56Z</time></trkpt><trkpt lat="43.33601975894521" lon="11.46049830311901"><ele>245.0</ele><time>2026-04-11T04:01:57Z</time></trkpt><trkpt lat="43.3360379879411" lon="11.460388231472615"><ele>244.4</ele><time>2026-04-11T04:01:58Z</time></trkpt><trkpt lat="43.33605351037887" lon="11.460270842373205"><ele>243.8</ele><time>2026-04-11T04:01:59Z</time></trkpt><trkpt lat="43.33606995009689" lon="11.460150824057415"><ele>243.2</ele><time>2026-04-11T04:02:00Z</time></trkpt><trkpt lat="43.33607990985912" lon="11.460028925597129"><ele>242.6</ele><time>2026-04-11T04:02:01Z</time></trkpt><trkpt lat="43.336094482494055" lon="11.459898628823423"><ele>242.0</ele><time>2026-04-11T04:02:02Z</time></trkpt><trkpt lat="43.33609634969255" lon="11.45964630827403"><ele>242.00000000000003</ele><time>2026-04-11T04:02:04Z</time></trkpt><trkpt lat="43.33609285160293" lon="11.459525274352888"><ele>242.0</ele><time>2026-04-11T04:02:05Z</time></trkpt><trkpt lat="43.336086005593955" lon="11.459406450075951"><ele>242.0</ele><time>2026-04-11T04:02:06Z</time></trkpt><trkpt lat="43.336066302901926" lon="11.459289545794531"><ele>242.0</ele><time>2026-04-11T04:02:07Z</time></trkpt><trkpt lat="43.336031130005075" lon="11.459191647816189"><ele>242.00000000000003</ele><time>2026-04-11T04:02:08Z</time></trkpt><trkpt lat="43.33600522627519" lon="11.459082014767898"><ele>242.0</ele><time>2026-04-11T04:02:09Z</time></trkpt><trkpt lat="43.33600418517024" lon="11.45893588413347"><ele>242.0</ele><time>2026-04-11T04:02:10Z</time></trkpt><trkpt lat="43.33599297131353" lon="11.458832663115862"><ele>242.0</ele><time>2026-04-11T04:02:11Z</time></trkpt><trkpt lat="43.33601925488241" lon="11.458737486251286"><ele>242.0</ele><time>2026-04-11T04:02:12Z</time></trkpt><trkpt lat="43.33606475927371" lon="11.458575696753167"><ele>242.0</ele><time>2026-04-11T04:02:14Z</time></trkpt><trkpt lat="43.336114548979026" lon="11.45847400109355"><ele>242.0</ele><time>2026-04-11T04:02:15Z</time></trkpt><trkpt lat="43.33615562969577" lon="11.458371388039254"><ele>242.00000000000003</ele><time>2026-04-11T04:02:16Z</time></trkpt><trkpt lat="43.33618247310045" lon="11.458268959607075"><ele>242.0</ele><time>2026-04-11T04:02:17Z</time></trkpt><trkpt lat="43.336205823007376" lon="11.45818485321055"><ele>242.0</ele><time>2026-04-11T04:02:18Z</time></trkpt><trkpt lat="43.336215426574185" lon="11.458087201065426"><ele>242.0</ele><time>2026-04-11T04:02:19Z</time></trkpt><trkpt lat="43.33621179449681" lon="11.457973875584054"><ele>242.00000000000003</ele><time>2026-04-11T04:02:20Z</time></trkpt><trkpt lat="43.336243140057526" lon="11.45780394855334"><ele>242.0</ele><time>2026-04-11T04:02:22Z</time></trkpt><trkpt lat="43.33625985670677" lon="11.457709282865364"><ele>242.0</ele><time>2026-04-11T04:02:23Z</time></trkpt><trkpt lat="43.33630311703455" lon="11.457494823333523"><ele>242.0</ele><time>2026-04-11T04:02:25Z</time></trkpt><trkpt lat="43.336319647896936" lon="11.457377331817383"><ele>242.0</ele><time>2026-04-11T04:02:26Z</time></trkpt><trkpt lat="43.33634101307321" lon="11.457286971649657"><ele>242.0</ele><time>2026-04-11T04:02:27Z</time></trkpt><trkpt lat="43.3363577039126" lon="11.457170444077866"><ele>242.0</ele><time>2026-04-11T04:02:28Z</time></trkpt><trkpt lat="43.33636253458217" lon="11.457056622918538"><ele>241.00000000000003</ele><time>2026-04-11T04:02:29Z</time></trkpt><trkpt lat="43.336355372788056" lon="11.456931842365853"><ele>240.0</ele><time>2026-04-11T04:02:30Z</time></trkpt><trkpt lat="43.336348362406895" lon="11.456809086803679"><ele>239.0</ele><time>2026-04-11T04:02:31Z</time></trkpt><trkpt lat="43.33633303880308" lon="11.456689019592597"><ele>238.0</ele><time>2026-04-11T04:02:32Z</time></trkpt><trkpt lat="43.33631696197785" lon="11.456569262488445"><ele>237.00000000000003</ele><time>2026-04-11T04:02:33Z</time></trkpt><trkpt lat="43.33628597290253" lon="11.456470464749223"><ele>236.0</ele><time>2026-04-11T04:02:34Z</time></trkpt><trkpt lat="43.33629971295475" lon="11.456343355922154"><ele>235.83333333333334</ele><time>2026-04-11T04:02:35Z</time></trkpt><trkpt lat="43.33632170106558" lon="11.456233508705996"><ele>235.66666666666669</ele><time>2026-04-11T04:02:36Z</time></trkpt><trkpt lat="43.33633283890405" lon="11.456113972740528"><ele>235.5</ele><time>2026-04-11T04:02:37Z</time></trkpt><trkpt lat="43.336362710879634" lon="11.456010295843859"><ele>235.33333333333331</ele><time>2026-04-11T04:02:38Z</time></trkpt><trkpt lat="43.33638845642504" lon="11.455890741017233"><ele>235.16666666666666</ele><time>2026-04-11T04:02:39Z</time></trkpt><trkpt lat="43.336433947941885" lon="11.45578866856379"><ele>235.0</ele><time>2026-04-11T04:02:40Z</time></trkpt><trkpt lat="43.336482493410976" lon="11.455670298305627"><ele>234.6</ele><time>2026-04-11T04:02:41Z</time></trkpt><trkpt lat="43.33651238750954" lon="11.455549843828235"><ele>234.2</ele><time>2026-04-11T04:02:42Z</time></trkpt><trkpt lat="43.33654941536499" lon="11.455465770678256"><ele>233.8</ele><time>2026-04-11T04:02:43Z</time></trkpt><trkpt lat="43.3365902173392" lon="11.455353031315221"><ele>233.4</ele><time>2026-04-11T04:02:44Z</time></trkpt><trkpt lat="43.336658745515614" lon="11.455122253014581"><ele>233.0</ele><time>2026-04-11T04:02:46Z</time></trkpt><trkpt lat="43.33669276643106" lon="11.455018053912472"><ele>232.66666666666669</ele><time>2026-04-11T04:02:47Z</time></trkpt><trkpt lat="43.33672867263102" lon="11.454914164264823"><ele>232.33333333333334</ele><time>2026-04-11T04:02:48Z</time></trkpt><trkpt lat="43.33675621267498" lon="11.45481012191095"><ele>232.0</ele><time>2026-04-11T04:02:49Z</time></trkpt><trkpt lat="43.3367791895318" lon="11.454706996765577"><ele>231.66666666666669</ele><time>2026-04-11T04:02:50Z</time></trkpt><trkpt lat="43.336793328034595" lon="11.45460266882045"><ele>231.33333333333334</ele><time>2026-04-11T04:02:51Z</time></trkpt><trkpt lat="43.33679935999586" lon="11.454502946617682"><ele>231.0</ele><time>2026-04-11T04:02:52Z</time></trkpt><trkpt lat="43.33680994182618" lon="11.45439831053742"><ele>231.0</ele><time>2026-04-11T04:02:53Z</time></trkpt><trkpt lat="43.33680477780342" lon="11.45430429387061"><ele>231.0</ele><time>2026-04-11T04:02:54Z</time></trkpt><trkpt lat="43.336809526805894" lon="11.454210906739311"><ele>231.0</ele><time>2026-04-11T04:02:55Z</time></trkpt><trkpt lat="43.336823717641465" lon="11.454114616885075"><ele>231.0</ele><time>2026-04-11T04:02:56Z</time></trkpt><trkpt lat="43.33683696876279" lon="11.45401846395605"><ele>231.0</ele><time>2026-04-11T04:02:57Z</time></trkpt><trkpt lat="43.33684957171484" lon="11.45392380835333"><ele>231.0</ele><time>2026-04-11T04:02:58Z</time></trkpt><trkpt lat="43.33685257628201" lon="11.453826517073583"><ele>231.0</ele><time>2026-04-11T04:02:59Z</time></trkpt><trkpt lat="43.336854018310184" lon="11.45372603301825"><ele>231.0</ele><time>2026-04-11T04:03:00Z</time></trkpt><trkpt lat="43.3368493288228" lon="11.453630821091572"><ele>231.0</ele><time>2026-04-11T04:03:01Z</time></trkpt><trkpt lat="43.336844340540345" lon="11.453528794944235"><ele>231.0</ele><time>2026-04-11T04:03:02Z</time></trkpt><trkpt lat="43.33683071246204" lon="11.453428078001494"><ele>231.0</ele><time>2026-04-11T04:03:03Z</time></trkpt><trkpt lat="43.33680444321966" lon="11.45332722504176"><ele>231.0</ele><time>2026-04-11T04:03:04Z</time></trkpt><trkpt lat="43.33677409275289" lon="11.453224397844647"><ele>231.0</ele><time>2026-04-11T04:03:05Z</time></trkpt><trkpt lat="43.33669901476973" lon="11.453003889825409"><ele>230.60000000000002</ele><time>2026-04-11T04:03:07Z</time></trkpt><trkpt lat="43.336656460623495" lon="11.452897244226934"><ele>230.20000000000002</ele><time>2026-04-11T04:03:08Z</time></trkpt><trkpt lat="43.33661808458911" lon="11.452788555395562"><ele>229.79999999999998</ele><time>2026-04-11T04:03:09Z</time></trkpt><trkpt lat="43.33656981000111" lon="11.452683583722704"><ele>229.39999999999998</ele><time>2026-04-11T04:03:10Z</time></trkpt><trkpt lat="43.33653188705161" lon="11.452565315065009"><ele>229.0</ele><time>2026-04-11T04:03:11Z</time></trkpt><trkpt lat="43.33648319926035" lon="11.452458700074933"><ele>229.0</ele><time>2026-04-11T04:03:12Z</time></trkpt><trkpt lat="43.33643484376311" lon="11.452347863001796"><ele>228.99999999999997</ele><time>2026-04-11T04:03:13Z</time></trkpt><trkpt lat="43.33639133922643" lon="11.452228029388205"><ele>228.99999999999997</ele><time>2026-04-11T04:03:14Z</time></trkpt><trkpt lat="43.336348602997774" lon="11.452102378903131"><ele>229.0</ele><time>2026-04-11T04:03:15Z</time></trkpt><trkpt lat="43.336297782537955" lon="11.451980008005146"><ele>229.0</ele><time>2026-04-11T04:03:16Z</time></trkpt><trkpt lat="43.33624864353545" lon="11.451849150124755"><ele>227.39999999999998</ele><time>2026-04-11T04:03:17Z</time></trkpt><trkpt lat="43.33619593204157" lon="11.451715392266285"><ele>225.79999999999998</ele><time>2026-04-11T04:03:18Z</time></trkpt><trkpt lat="43.3361456169099" lon="11.45158105295165"><ele>224.20000000000002</ele><time>2026-04-11T04:03:19Z</time></trkpt><trkpt lat="43.33608854701373" lon="11.45145784657764"><ele>222.60000000000002</ele><time>2026-04-11T04:03:20Z</time></trkpt><trkpt lat="43.33601907480384" lon="11.451339899318596"><ele>221.0</ele><time>2026-04-11T04:03:21Z</time></trkpt><trkpt lat="43.3359338302687" lon="11.451236192913749"><ele>220.8</ele><time>2026-04-11T04:03:22Z</time></trkpt><trkpt lat="43.33583841554743" lon="11.451147343841852"><ele>220.60000000000002</ele><time>2026-04-11T04:03:23Z</time></trkpt><trkpt lat="43.33573801422814" lon="11.451073983042804"><ele>220.4</ele><time>2026-04-11T04:03:24Z</time></trkpt><trkpt lat="43.33563642310584" lon="11.451016960202704"><ele>220.2</ele><time>2026-04-11T04:03:25Z</time></trkpt><trkpt lat="43.33555626098883" lon="11.450959928851809"><ele>220.0</ele><time>2026-04-11T04:03:26Z</time></trkpt><trkpt lat="43.33544028802183" lon="11.450811523877965"><ele>218.4</ele><time>2026-04-11T04:03:28Z</time></trkpt><trkpt lat="43.33541003880908" lon="11.450702370564969"><ele>216.8</ele><time>2026-04-11T04:03:29Z</time></trkpt><trkpt lat="43.335413052815944" lon="11.450587309722371"><ele>215.2</ele><time>2026-04-11T04:03:30Z</time></trkpt><trkpt lat="43.335465219038554" lon="11.450479096425111"><ele>213.6</ele><time>2026-04-11T04:03:31Z</time></trkpt><trkpt lat="43.335542334319044" lon="11.450389795033761"><ele>212.0</ele><time>2026-04-11T04:03:32Z</time></trkpt><trkpt lat="43.335608669401864" lon="11.45030571970428"><ele>212.0</ele><time>2026-04-11T04:03:33Z</time></trkpt><trkpt lat="43.33567621694576" lon="11.45020918009973"><ele>212.0</ele><time>2026-04-11T04:03:34Z</time></trkpt><trkpt lat="43.335738517315455" lon="11.450104542831356"><ele>212.0</ele><time>2026-04-11T04:03:35Z</time></trkpt><trkpt lat="43.3358086148808" lon="11.45000348564628"><ele>212.0</ele><time>2026-04-11T04:03:36Z</time></trkpt><trkpt lat="43.33589574688972" lon="11.44993764898128"><ele>212.0</ele><time>2026-04-11T04:03:37Z</time></trkpt><trkpt lat="43.33599009092396" lon="11.449897239081027"><ele>212.00000000000003</ele><time>2026-04-11T04:03:38Z</time></trkpt><trkpt lat="43.33608659358581" lon="11.449891770269762"><ele>212.0</ele><time>2026-04-11T04:03:39Z</time></trkpt><trkpt lat="43.33618541594126" lon="11.44990492601769"><ele>212.0</ele><time>2026-04-11T04:03:40Z</time></trkpt><trkpt lat="43.33627435184095" lon="11.449912603397015"><ele>212.0</ele><time>2026-04-11T04:03:41Z</time></trkpt><trkpt lat="43.336346384883704" lon="11.449881144659143"><ele>212.00000000000003</ele><time>2026-04-11T04:03:42Z</time></trkpt><trkpt lat="43.336404817035174" lon="11.449802028012483"><ele>212.0</ele><time>2026-04-11T04:03:43Z</time></trkpt><trkpt lat="43.33642465736962" lon="11.449693472308326"><ele>211.6</ele><time>2026-04-11T04:03:44Z</time></trkpt><trkpt lat="43.336445043708714" lon="11.44956575724122"><ele>211.2</ele><time>2026-04-11T04:03:45Z</time></trkpt><trkpt lat="43.336455859158555" lon="11.449450293748857"><ele>210.8</ele><time>2026-04-11T04:03:46Z</time></trkpt><trkpt lat="43.336472588458655" lon="11.449334791581236"><ele>210.4</ele><time>2026-04-11T04:03:47Z</time></trkpt><trkpt lat="43.336504347028416" lon="11.449103027702842"><ele>210.0</ele><time>2026-04-11T04:03:49Z</time></trkpt><trkpt lat="43.33649575714269" lon="11.448996791685497"><ele>210.0</ele><time>2026-04-11T04:03:50Z</time></trkpt><trkpt lat="43.33647503737167" lon="11.448886776015748"><ele>210.0</ele><time>2026-04-11T04:03:51Z</time></trkpt><trkpt lat="43.33644772956377" lon="11.448769159889602"><ele>210.0</ele><time>2026-04-11T04:03:52Z</time></trkpt><trkpt lat="43.336408123815424" lon="11.44866370639596"><ele>210.0</ele><time>2026-04-11T04:03:53Z</time></trkpt><trkpt lat="43.33636438648758" lon="11.448559437221236"><ele>210.0</ele><time>2026-04-11T04:03:54Z</time></trkpt><trkpt lat="43.33631684116823" lon="11.448461950621471"><ele>210.0</ele><time>2026-04-11T04:03:55Z</time></trkpt><trkpt lat="43.33627025255598" lon="11.448370135823952"><ele>209.57142857142858</ele><time>2026-04-11T04:03:56Z</time></trkpt><trkpt lat="43.33622793937932" lon="11.448289367457233"><ele>209.14285714285714</ele><time>2026-04-11T04:03:57Z</time></trkpt><trkpt lat="43.336192427647475" lon="11.44821055455511"><ele>208.71428571428572</ele><time>2026-04-11T04:03:58Z</time></trkpt><trkpt lat="43.33615158920196" lon="11.448133329216336"><ele>208.28571428571428</ele><time>2026-04-11T04:03:59Z</time></trkpt><trkpt lat="43.33612368694759" lon="11.448047035181954"><ele>207.85714285714286</ele><time>2026-04-11T04:04:00Z</time></trkpt><trkpt lat="43.33612524569968" lon="11.44793682542669"><ele>207.42857142857144</ele><time>2026-04-11T04:04:01Z</time></trkpt><trkpt lat="43.336157127370804" lon="11.447831450609074"><ele>207.0</ele><time>2026-04-11T04:04:02Z</time></trkpt><trkpt lat="43.336200101798035" lon="11.447737126669137"><ele>207.0</ele><time>2026-04-11T04:04:03Z</time></trkpt><trkpt lat="43.336244051927025" lon="11.447645164361086"><ele>207.0</ele><time>2026-04-11T04:04:04Z</time></trkpt><trkpt lat="43.33629036286584" lon="11.44755779976902"><ele>207.0</ele><time>2026-04-11T04:04:05Z</time></trkpt><trkpt lat="43.336336587976895" lon="11.447470902616386"><ele>207.0</ele><time>2026-04-11T04:04:06Z</time></trkpt><trkpt lat="43.336378311770765" lon="11.447380839420449"><ele>207.0</ele><time>2026-04-11T04:04:07Z</time></trkpt><trkpt lat="43.33641329414169" lon="11.447287241046782"><ele>207.0</ele><time>2026-04-11T04:04:08Z</time></trkpt><trkpt lat="43.33646048158856" lon="11.447091019088724"><ele>207.16666666666666</ele><time>2026-04-11T04:04:10Z</time></trkpt><trkpt lat="43.33647164350823" lon="11.446988545748061"><ele>207.33333333333331</ele><time>2026-04-11T04:04:11Z</time></trkpt><trkpt lat="43.33647383106191" lon="11.446882168397511"><ele>207.5</ele><time>2026-04-11T04:04:12Z</time></trkpt><trkpt lat="43.33646675198575" lon="11.446790065838032"><ele>207.66666666666666</ele><time>2026-04-11T04:04:13Z</time></trkpt><trkpt lat="43.33645615318582" lon="11.446696965437617"><ele>207.83333333333331</ele><time>2026-04-11T04:04:14Z</time></trkpt><trkpt lat="43.336416285783756" lon="11.446547738319516"><ele>208.0</ele><time>2026-04-11T04:04:16Z</time></trkpt><trkpt lat="43.33638035130983" lon="11.446416273843871"><ele>209.2</ele><time>2026-04-11T04:04:18Z</time></trkpt><trkpt lat="43.33634529031426" lon="11.446285841187889"><ele>210.4</ele><time>2026-04-11T04:04:20Z</time></trkpt><trkpt lat="43.33631542308845" lon="11.446155869226146"><ele>211.59999999999997</ele><time>2026-04-11T04:04:22Z</time></trkpt><trkpt lat="43.33628890260828" lon="11.446023915647825"><ele>212.79999999999998</ele><time>2026-04-11T04:04:24Z</time></trkpt><trkpt lat="43.33626577170824" lon="11.445906822573667"><ele>214.0</ele><time>2026-04-11T04:04:26Z</time></trkpt><trkpt lat="43.336243282661776" lon="11.445797735693025"><ele>214.0</ele><time>2026-04-11T04:04:28Z</time></trkpt><trkpt lat="43.33620937690865" lon="11.44569937999267"><ele>213.99999999999997</ele><time>2026-04-11T04:04:30Z</time></trkpt><trkpt lat="43.33614308453926" lon="11.44550783098766"><ele>213.99999999999997</ele><time>2026-04-11T04:04:34Z</time></trkpt><trkpt lat="43.33610270121834" lon="11.445416979003321"><ele>214.0</ele><time>2026-04-11T04:04:36Z</time></trkpt><trkpt lat="43.3360640740733" lon="11.445325398286162"><ele>214.0</ele><time>2026-04-11T04:04:38Z</time></trkpt><trkpt lat="43.3360301189716" lon="11.44524133573188"><ele>215.16666666666666</ele><time>2026-04-11T04:04:40Z</time></trkpt><trkpt lat="43.33598304680374" lon="11.445154699136914"><ele>216.33333333333331</ele><time>2026-04-11T04:04:42Z</time></trkpt><trkpt lat="43.33593958286881" lon="11.445064813633412"><ele>217.5</ele><time>2026-04-11T04:04:44Z</time></trkpt><trkpt lat="43.335897544511944" lon="11.444975912329927"><ele>218.66666666666669</ele><time>2026-04-11T04:04:46Z</time></trkpt><trkpt lat="43.33586192431034" lon="11.444876724356018"><ele>219.83333333333334</ele><time>2026-04-11T04:04:48Z</time></trkpt><trkpt lat="43.33580664206993" lon="11.4447875849068"><ele>221.0</ele><time>2026-04-11T04:04:50Z</time></trkpt><trkpt lat="43.335757790536846" lon="11.444695913247388"><ele>221.20000000000002</ele><time>2026-04-11T04:04:52Z</time></trkpt><trkpt lat="43.33566898463519" lon="11.444497951728351"><ele>221.40000000000003</ele><time>2026-04-11T04:04:56Z</time></trkpt><trkpt lat="43.335625135094986" lon="11.444409908156155"><ele>221.6</ele><time>2026-04-11T04:04:58Z</time></trkpt><trkpt lat="43.3355745850975" lon="11.444314421272516"><ele>221.8</ele><time>2026-04-11T04:05:00Z</time></trkpt><trkpt lat="43.33553095796542" lon="11.444234178320874"><ele>222.0</ele><time>2026-04-11T04:05:02Z</time></trkpt><trkpt lat="43.33548023577496" lon="11.444152025852958"><ele>222.0</ele><time>2026-04-11T04:05:04Z</time></trkpt><trkpt lat="43.33541990043592" lon="11.444035766023937"><ele>222.0</ele><time>2026-04-11T04:05:07Z</time></trkpt><trkpt lat="43.33537332945261" lon="11.443952542352077"><ele>222.0</ele><time>2026-04-11T04:05:09Z</time></trkpt><trkpt lat="43.33532852204237" lon="11.443874627453896"><ele>222.0</ele><time>2026-04-11T04:05:11Z</time></trkpt><trkpt lat="43.335287905801266" lon="11.443795354612586"><ele>222.0</ele><time>2026-04-11T04:05:13Z</time></trkpt><trkpt lat="43.33520929541413" lon="11.443631144928743"><ele>221.8</ele><time>2026-04-11T04:05:17Z</time></trkpt><trkpt lat="43.33516234092321" lon="11.443531240665799"><ele>221.6</ele><time>2026-04-11T04:05:19Z</time></trkpt><trkpt lat="43.335131079099185" lon="11.4434271746445"><ele>221.40000000000003</ele><time>2026-04-11T04:05:21Z</time></trkpt><trkpt lat="43.33510564264807" lon="11.443292249316709"><ele>221.20000000000002</ele><time>2026-04-11T04:05:23Z</time></trkpt><trkpt lat="43.33510048318307" lon="11.443116860157756"><ele>221.0</ele><time>2026-04-11T04:05:25Z</time></trkpt><trkpt lat="43.33510761882622" lon="11.443010890449449"><ele>219.20000000000002</ele><time>2026-04-11T04:05:26Z</time></trkpt><trkpt lat="43.33512323791751" lon="11.442894839961058"><ele>217.40000000000003</ele><time>2026-04-11T04:05:27Z</time></trkpt><trkpt lat="43.33515259392387" lon="11.442762135204463"><ele>215.6</ele><time>2026-04-11T04:05:28Z</time></trkpt><trkpt lat="43.33519257902544" lon="11.442624995501246"><ele>213.8</ele><time>2026-04-11T04:05:29Z</time></trkpt><trkpt lat="43.33521978570635" lon="11.442482397533405"><ele>212.0</ele><time>2026-04-11T04:05:30Z</time></trkpt><trkpt lat="43.335247933286446" lon="11.442315775570865"><ele>212.0</ele><time>2026-04-11T04:05:31Z</time></trkpt><trkpt lat="43.335296626042236" lon="11.442177880278699"><ele>212.0</ele><time>2026-04-11T04:05:32Z</time></trkpt><trkpt lat="43.335302992627525" lon="11.442040590274045"><ele>212.0</ele><time>2026-04-11T04:05:33Z</time></trkpt><trkpt lat="43.335308055906275" lon="11.441892949914811"><ele>212.0</ele><time>2026-04-11T04:05:34Z</time></trkpt><trkpt lat="43.33523701283905" lon="11.441647641165039"><ele>212.00000000000003</ele><time>2026-04-11T04:05:36Z</time></trkpt><trkpt lat="43.335180910793646" lon="11.441540318551743"><ele>212.0</ele><time>2026-04-11T04:05:37Z</time></trkpt><trkpt lat="43.335144319476065" lon="11.441430502781262"><ele>212.0</ele><time>2026-04-11T04:05:38Z</time></trkpt><trkpt lat="43.335119566282856" lon="11.441338867058336"><ele>212.0</ele><time>2026-04-11T04:05:39Z</time></trkpt><trkpt lat="43.33511242776232" lon="11.441214261159121"><ele>212.00000000000003</ele><time>2026-04-11T04:05:40Z</time></trkpt><trkpt lat="43.33511123153246" lon="11.441127233048533"><ele>212.0</ele><time>2026-04-11T04:05:41Z</time></trkpt><trkpt lat="43.335134122300545" lon="11.440969226781053"><ele>213.39999999999998</ele><time>2026-04-11T04:05:43Z</time></trkpt><trkpt lat="43.335141404737584" lon="11.440825379457229"><ele>214.79999999999998</ele><time>2026-04-11T04:05:45Z</time></trkpt><trkpt lat="43.335125690854994" lon="11.440685067431327"><ele>216.2</ele><time>2026-04-11T04:05:47Z</time></trkpt><trkpt lat="43.33510795264841" lon="11.440555813023202"><ele>217.6</ele><time>2026-04-11T04:05:49Z</time></trkpt><trkpt lat="43.33508133682722" lon="11.44045115922423"><ele>219.0</ele><time>2026-04-11T04:05:51Z</time></trkpt><trkpt lat="43.33506810341788" lon="11.440358597316926"><ele>220.2</ele><time>2026-04-11T04:05:53Z</time></trkpt><trkpt lat="43.33504879773497" lon="11.440246522788678"><ele>221.39999999999998</ele><time>2026-04-11T04:05:56Z</time></trkpt><trkpt lat="43.33498726232289" lon="11.440054271970325"><ele>222.6</ele><time>2026-04-11T04:06:02Z</time></trkpt><trkpt lat="43.33494819580186" lon="11.43995377879884"><ele>223.8</ele><time>2026-04-11T04:06:06Z</time></trkpt><trkpt lat="43.33492345871889" lon="11.439872476387935"><ele>225.0</ele><time>2026-04-11T04:06:09Z</time></trkpt><trkpt lat="43.33487575769349" lon="11.439763661624541"><ele>225.0</ele><time>2026-04-11T04:06:13Z</time></trkpt><trkpt lat="43.33484757911848" lon="11.439665946656698"><ele>225.0</ele><time>2026-04-11T04:06:16Z</time></trkpt><trkpt lat="43.33480182287992" lon="11.43959743973539"><ele>225.0</ele><time>2026-04-11T04:06:19Z</time></trkpt><trkpt lat="43.33473845160574" lon="11.43941839597705"><ele>225.0</ele><time>2026-04-11T04:06:25Z</time></trkpt><trkpt lat="43.334692799476045" lon="11.439328691224514"><ele>225.0</ele><time>2026-04-11T04:06:28Z</time></trkpt><trkpt lat="43.33463769520514" lon="11.439250194234075"><ele>225.0</ele><time>2026-04-11T04:06:31Z</time></trkpt><trkpt lat="43.33460583924765" lon="11.439159397310654"><ele>226.4</ele><time>2026-04-11T04:06:34Z</time></trkpt><trkpt lat="43.33456109661672" lon="11.439051965570517"><ele>227.8</ele><time>2026-04-11T04:06:37Z</time></trkpt><trkpt lat="43.3345143765691" lon="11.438971272444507"><ele>229.2</ele><time>2026-04-11T04:06:40Z</time></trkpt><trkpt lat="43.334385789760105" lon="11.43879699493145"><ele>230.6</ele><time>2026-04-11T04:06:46Z</time></trkpt><trkpt lat="43.33432467936565" lon="11.438731800348494"><ele>232.0</ele><time>2026-04-11T04:06:48Z</time></trkpt><trkpt lat="43.33426095132352" lon="11.438721668421506"><ele>231.99999999999997</ele><time>2026-04-11T04:06:50Z</time></trkpt><trkpt lat="43.33417143525383" lon="11.43869437992772"><ele>232.0</ele><time>2026-04-11T04:06:53Z</time></trkpt><trkpt lat="43.33410306838452" lon="11.438658043495364"><ele>232.0</ele><time>2026-04-11T04:06:55Z</time></trkpt><trkpt lat="43.334033607405466" lon="11.438624096190752"><ele>232.0</ele><time>2026-04-11T04:06:57Z</time></trkpt><trkpt lat="43.333971404202586" lon="11.43858014131879"><ele>231.99999999999997</ele><time>2026-04-11T04:06:59Z</time></trkpt><trkpt lat="43.33391951580149" lon="11.438526054954524"><ele>232.0</ele><time>2026-04-11T04:07:01Z</time></trkpt><trkpt lat="43.33379954012483" lon="11.438380074307554"><ele>232.5714285714286</ele><time>2026-04-11T04:07:06Z</time></trkpt><trkpt lat="43.333760314197995" lon="11.438305371404399"><ele>233.14285714285717</ele><time>2026-04-11T04:07:08Z</time></trkpt><trkpt lat="43.333729436896725" lon="11.438220585413234"><ele>233.71428571428572</ele><time>2026-04-11T04:07:10Z</time></trkpt><trkpt lat="43.333701110268834" lon="11.438134895071089"><ele>234.2857142857143</ele><time>2026-04-11T04:07:12Z</time></trkpt><trkpt lat="43.33368550543871" lon="11.438048572108974"><ele>234.8571428571429</ele><time>2026-04-11T04:07:14Z</time></trkpt><trkpt lat="43.33366842212724" lon="11.43792456696786"><ele>235.42857142857142</ele><time>2026-04-11T04:07:17Z</time></trkpt><trkpt lat="43.33365847418078" lon="11.43780920120147"><ele>236.0</ele><time>2026-04-11T04:07:20Z</time></trkpt><trkpt lat="43.33364761300125" lon="11.437692437948794"><ele>236.8</ele><time>2026-04-11T04:07:23Z</time></trkpt><trkpt lat="43.333643295566034" lon="11.437469834713191"><ele>237.60000000000002</ele><time>2026-04-11T04:07:29Z</time></trkpt><trkpt lat="43.3336338831319" lon="11.437361414595216"><ele>238.4</ele><time>2026-04-11T04:07:32Z</time></trkpt><trkpt lat="43.33363326679293" lon="11.437258152472483"><ele>239.2</ele><time>2026-04-11T04:07:35Z</time></trkpt><trkpt lat="43.33361735844886" lon="11.43713927004159"><ele>240.0</ele><time>2026-04-11T04:07:38Z</time></trkpt><trkpt lat="43.33360253353897" lon="11.437020233067674"><ele>240.6</ele><time>2026-04-11T04:07:41Z</time></trkpt><trkpt lat="43.333581829176055" lon="11.436898056012414"><ele>241.2</ele><time>2026-04-11T04:07:44Z</time></trkpt><trkpt lat="43.333552966740996" lon="11.43671279649992"><ele>241.8</ele><time>2026-04-11T04:07:48Z</time></trkpt><trkpt lat="43.33354149161207" lon="11.43660519504158"><ele>242.4</ele><time>2026-04-11T04:07:50Z</time></trkpt><trkpt lat="43.333532069748905" lon="11.436495395351184"><ele>243.0</ele><time>2026-04-11T04:07:52Z</time></trkpt><trkpt lat="43.3335235314752" lon="11.436378746293942"><ele>242.8</ele><time>2026-04-11T04:07:54Z</time></trkpt><trkpt lat="43.33351462915897" lon="11.436265339928571"><ele>242.60000000000002</ele><time>2026-04-11T04:07:56Z</time></trkpt><trkpt lat="43.333509377027205" lon="11.436139396476468"><ele>242.39999999999998</ele><time>2026-04-11T04:07:58Z</time></trkpt><trkpt lat="43.33349758061621" lon="11.436004443909066"><ele>242.2</ele><time>2026-04-11T04:08:00Z</time></trkpt><trkpt lat="43.3334852347801" lon="11.43586546534491"><ele>242.0</ele><time>2026-04-11T04:08:02Z</time></trkpt><trkpt lat="43.333485180783235" lon="11.43572686765063"><ele>242.0</ele><time>2026-04-11T04:08:04Z</time></trkpt><trkpt lat="43.33350312662257" lon="11.435590220246466"><ele>242.0</ele><time>2026-04-11T04:08:06Z</time></trkpt><trkpt lat="43.33360238663185" lon="11.43530113242614"><ele>242.0</ele><time>2026-04-11T04:08:10Z</time></trkpt><trkpt lat="43.33366246397692" lon="11.435167187126503"><ele>242.0</ele><time>2026-04-11T04:08:12Z</time></trkpt><trkpt lat="43.333720344548084" lon="11.435029895043515"><ele>242.2</ele><time>2026-04-11T04:08:14Z</time></trkpt><trkpt lat="43.33376308326142" lon="11.434891175559793"><ele>242.39999999999998</ele><time>2026-04-11T04:08:16Z</time></trkpt><trkpt lat="43.33378667064032" lon="11.434758767721286"><ele>242.60000000000002</ele><time>2026-04-11T04:08:18Z</time></trkpt><trkpt lat="43.33382407589345" lon="11.434641212133515"><ele>242.8</ele><time>2026-04-11T04:08:20Z</time></trkpt><trkpt lat="43.333845449215275" lon="11.434496371036818"><ele>243.0</ele><time>2026-04-11T04:08:22Z</time></trkpt><trkpt lat="43.33387105563329" lon="11.434370301189611"><ele>243.0</ele><time>2026-04-11T04:08:24Z</time></trkpt><trkpt lat="43.33388003489989" lon="11.434237404567456"><ele>243.0</ele><time>2026-04-11T04:08:26Z</time></trkpt><trkpt lat="43.33387793129865" lon="11.43410985352936"><ele>243.0</ele><time>2026-04-11T04:08:28Z</time></trkpt><trkpt lat="43.333805882141064" lon="11.433898967510652"><ele>243.0</ele><time>2026-04-11T04:08:32Z</time></trkpt><trkpt lat="43.33375546246932" lon="11.43381819360305"><ele>243.0</ele><time>2026-04-11T04:08:34Z</time></trkpt><trkpt lat="43.333711448551526" lon="11.433729012287094"><ele>244.0</ele><time>2026-04-11T04:08:36Z</time></trkpt><trkpt lat="43.33367519549387" lon="11.433644811095645"><ele>245.0</ele><time>2026-04-11T04:08:38Z</time></trkpt><trkpt lat="43.33362409419412" lon="11.4335683549831"><ele>246.0</ele><time>2026-04-11T04:08:40Z</time></trkpt><trkpt lat="43.333594365654676" lon="11.433476890733417"><ele>247.0</ele><time>2026-04-11T04:08:42Z</time></trkpt><trkpt lat="43.33356242567988" lon="11.433387968803995"><ele>248.0</ele><time>2026-04-11T04:08:44Z</time></trkpt><trkpt lat="43.33354605185559" lon="11.433299026951762"><ele>249.0</ele><time>2026-04-11T04:08:46Z</time></trkpt><trkpt lat="43.33360032837354" lon="11.433200689078816"><ele>250.0</ele><time>2026-04-11T04:08:48Z</time></trkpt><trkpt lat="43.333687919128224" lon="11.433169619755859"><ele>250.0</ele><time>2026-04-11T04:08:50Z</time></trkpt><trkpt lat="43.333869085141515" lon="11.433097305711186"><ele>250.0</ele><time>2026-04-11T04:08:54Z</time></trkpt><trkpt lat="43.33394625136856" lon="11.43303251886156"><ele>250.0</ele><time>2026-04-11T04:08:56Z</time></trkpt><trkpt lat="43.334038934845" lon="11.433010867615794"><ele>250.0</ele><time>2026-04-11T04:08:58Z</time></trkpt><trkpt lat="43.334126981546206" lon="11.432955913628968"><ele>250.2</ele><time>2026-04-11T04:09:00Z</time></trkpt><trkpt lat="43.33421046402709" lon="11.432915421292892"><ele>250.4</ele><time>2026-04-11T04:09:02Z</time></trkpt><trkpt lat="43.33430081306949" lon="11.432870277767014"><ele>250.60000000000002</ele><time>2026-04-11T04:09:04Z</time></trkpt><trkpt lat="43.33438916532257" lon="11.432824778469708"><ele>250.8</ele><time>2026-04-11T04:09:06Z</time></trkpt><trkpt lat="43.334478967770266" lon="11.43276926123791"><ele>251.0</ele><time>2026-04-11T04:09:08Z</time></trkpt><trkpt lat="43.3345825357118" lon="11.432726737819817"><ele>251.0</ele><time>2026-04-11T04:09:10Z</time></trkpt><trkpt lat="43.33469276188802" lon="11.43266605900719"><ele>251.0</ele><time>2026-04-11T04:09:12Z</time></trkpt><trkpt lat="43.334908516840166" lon="11.432550788415037"><ele>251.0</ele><time>2026-04-11T04:09:16Z</time></trkpt><trkpt lat="43.33501728519567" lon="11.432486596120626"><ele>251.20000000000002</ele><time>2026-04-11T04:09:18Z</time></trkpt><trkpt lat="43.3351215057852" lon="11.432429323487202"><ele>251.40000000000003</ele><time>2026-04-11T04:09:20Z</time></trkpt><trkpt lat="43.335221795856874" lon="11.432369066465599"><ele>251.6</ele><time>2026-04-11T04:09:22Z</time></trkpt><trkpt lat="43.33532477815575" lon="11.432310594608488"><ele>251.8</ele><time>2026-04-11T04:09:24Z</time></trkpt><trkpt lat="43.33542777333429" lon="11.432251721275822"><ele>252.0</ele><time>2026-04-11T04:09:26Z</time></trkpt><trkpt lat="43.33552852492356" lon="11.432199439390487"><ele>252.5</ele><time>2026-04-11T04:09:28Z</time></trkpt><trkpt lat="43.33562542945097" lon="11.432145494227592"><ele>253.0</ele><time>2026-04-11T04:09:30Z</time></trkpt><trkpt lat="43.33572597682447" lon="11.432092361262686"><ele>253.5</ele><time>2026-04-11T04:09:32Z</time></trkpt><trkpt lat="43.33582434360016" lon="11.432033389421116"><ele>254.0</ele><time>2026-04-11T04:09:34Z</time></trkpt><trkpt lat="43.33605037653362" lon="11.431908201562086"><ele>254.33333333333334</ele><time>2026-04-11T04:09:38Z</time></trkpt><trkpt lat="43.33611580028321" lon="11.431872985808695"><ele>254.66666666666669</ele><time>2026-04-11T04:09:39Z</time></trkpt><trkpt lat="43.336187212999285" lon="11.431834243387348"><ele>255.0</ele><time>2026-04-11T04:09:40Z</time></trkpt><trkpt lat="43.336254128579384" lon="11.431797467667911"><ele>255.33333333333331</ele><time>2026-04-11T04:09:41Z</time></trkpt><trkpt lat="43.33632644441632" lon="11.431757611631864"><ele>255.66666666666666</ele><time>2026-04-11T04:09:42Z</time></trkpt><trkpt lat="43.336397152331706" lon="11.431711956772382"><ele>256.0</ele><time>2026-04-11T04:09:43Z</time></trkpt><trkpt lat="43.33647370617005" lon="11.431675156708174"><ele>255.33333333333331</ele><time>2026-04-11T04:09:44Z</time></trkpt><trkpt lat="43.33655072862312" lon="11.431634223841952"><ele>254.66666666666666</ele><time>2026-04-11T04:09:45Z</time></trkpt><trkpt lat="43.336632983872" lon="11.43158704524915"><ele>254.0</ele><time>2026-04-11T04:09:46Z</time></trkpt><trkpt lat="43.33671230020575" lon="11.431540875466737"><ele>253.33333333333331</ele><time>2026-04-11T04:09:47Z</time></trkpt><trkpt lat="43.33678887666976" lon="11.431498453091793"><ele>252.66666666666666</ele><time>2026-04-11T04:09:48Z</time></trkpt><trkpt lat="43.336870550633066" lon="11.431466191567973"><ele>252.0</ele><time>2026-04-11T04:09:49Z</time></trkpt><trkpt lat="43.336952452246194" lon="11.431431846626285"><ele>252.0</ele><time>2026-04-11T04:09:50Z</time></trkpt><trkpt lat="43.33703044263616" lon="11.4314107121372"><ele>252.0</ele><time>2026-04-11T04:09:51Z</time></trkpt><trkpt lat="43.33711129858834" lon="11.431399011292461"><ele>252.0</ele><time>2026-04-11T04:09:52Z</time></trkpt><trkpt lat="43.33719048980315" lon="11.431392140069178"><ele>252.0</ele><time>2026-04-11T04:09:53Z</time></trkpt><trkpt lat="43.33726894683303" lon="11.43139822034372"><ele>252.0</ele><time>2026-04-11T04:09:54Z</time></trkpt><trkpt lat="43.337348996539745" lon="11.431408091725102"><ele>252.0</ele><time>2026-04-11T04:09:55Z</time></trkpt><trkpt lat="43.33750027722672" lon="11.431405298923108"><ele>251.42857142857144</ele><time>2026-04-11T04:09:57Z</time></trkpt><trkpt lat="43.337578593424446" lon="11.431411749037732"><ele>250.85714285714286</ele><time>2026-04-11T04:09:58Z</time></trkpt><trkpt lat="43.337651305453484" lon="11.431411642395844"><ele>250.28571428571428</ele><time>2026-04-11T04:09:59Z</time></trkpt><trkpt lat="43.33772576730985" lon="11.431415298554393"><ele>249.71428571428572</ele><time>2026-04-11T04:10:00Z</time></trkpt><trkpt lat="43.3377995501924" lon="11.431410862438014"><ele>249.14285714285717</ele><time>2026-04-11T04:10:01Z</time></trkpt><trkpt lat="43.33787369618153" lon="11.431416065082496"><ele>248.57142857142858</ele><time>2026-04-11T04:10:02Z</time></trkpt><trkpt lat="43.33794603424118" lon="11.431417729444638"><ele>248.0</ele><time>2026-04-11T04:10:03Z</time></trkpt><trkpt lat="43.33801471931124" lon="11.431416956661154"><ele>248.2857142857143</ele><time>2026-04-11T04:10:04Z</time></trkpt><trkpt lat="43.33808158575244" lon="11.431418755534128"><ele>248.5714285714286</ele><time>2026-04-11T04:10:05Z</time></trkpt><trkpt lat="43.33815506575631" lon="11.431429274023019"><ele>248.85714285714286</ele><time>2026-04-11T04:10:06Z</time></trkpt><trkpt lat="43.33822765738668" lon="11.43143941942855"><ele>249.14285714285717</ele><time>2026-04-11T04:10:07Z</time></trkpt><trkpt lat="43.33830078132525" lon="11.431459385343432"><ele>249.42857142857144</ele><time>2026-04-11T04:10:08Z</time></trkpt><trkpt lat="43.338368838011405" lon="11.431497479743326"><ele>249.71428571428572</ele><time>2026-04-11T04:10:09Z</time></trkpt><trkpt lat="43.3384345956844" lon="11.431541486367147"><ele>250.0</ele><time>2026-04-11T04:10:10Z</time></trkpt><trkpt lat="43.33849593316441" lon="11.431589494414492"><ele>249.99999999999997</ele><time>2026-04-11T04:10:11Z</time></trkpt><trkpt lat="43.33855603133404" lon="11.431643559775496"><ele>250.0</ele><time>2026-04-11T04:10:12Z</time></trkpt><trkpt lat="43.33861227657737" lon="11.431706586201381"><ele>250.0</ele><time>2026-04-11T04:10:13Z</time></trkpt><trkpt lat="43.33866605300145" lon="11.431762556188481"><ele>250.0</ele><time>2026-04-11T04:10:14Z</time></trkpt><trkpt lat="43.338721533825876" lon="11.431829323675684"><ele>249.99999999999997</ele><time>2026-04-11T04:10:15Z</time></trkpt><trkpt lat="43.3387752685996" lon="11.43188553494559"><ele>250.0</ele><time>2026-04-11T04:10:16Z</time></trkpt><trkpt lat="43.338887989777994" lon="11.432009161848091"><ele>250.0</ele><time>2026-04-11T04:10:18Z</time></trkpt><trkpt lat="43.338945050747384" lon="11.432063340271718"><ele>250.0</ele><time>2026-04-11T04:10:19Z</time></trkpt><trkpt lat="43.33899721789706" lon="11.432126166897104"><ele>250.0</ele><time>2026-04-11T04:10:20Z</time></trkpt><trkpt lat="43.339045219254814" lon="11.432189758844798"><ele>250.0</ele><time>2026-04-11T04:10:21Z</time></trkpt><trkpt lat="43.33909375375543" lon="11.432252325693108"><ele>250.0</ele><time>2026-04-11T04:10:22Z</time></trkpt><trkpt lat="43.33914449138849" lon="11.432316251291914"><ele>250.0</ele><time>2026-04-11T04:10:23Z</time></trkpt><trkpt lat="43.339192157400156" lon="11.432376237948056"><ele>250.0</ele><time>2026-04-11T04:10:24Z</time></trkpt><trkpt lat="43.33924145786514" lon="11.432444969589412"><ele>250.0</ele><time>2026-04-11T04:10:25Z</time></trkpt><trkpt lat="43.33929173476125" lon="11.432514493715313"><ele>250.0</ele><time>2026-04-11T04:10:26Z</time></trkpt><trkpt lat="43.339338872271014" lon="11.432588240057186"><ele>250.0</ele><time>2026-04-11T04:10:27Z</time></trkpt><trkpt lat="43.33938394344262" lon="11.432665522459354"><ele>250.0</ele><time>2026-04-11T04:10:28Z</time></trkpt><trkpt lat="43.33942571658803" lon="11.432754678508863"><ele>250.0</ele><time>2026-04-11T04:10:29Z</time></trkpt><trkpt lat="43.339467107417015" lon="11.432839870547602"><ele>250.0</ele><time>2026-04-11T04:10:30Z</time></trkpt><trkpt lat="43.33950714472989" lon="11.432928903450874"><ele>250.0</ele><time>2026-04-11T04:10:31Z</time></trkpt><trkpt lat="43.33954956628836" lon="11.433021583253694"><ele>249.83333333333331</ele><time>2026-04-11T04:10:32Z</time></trkpt><trkpt lat="43.3395899271216" lon="11.433111213004311"><ele>249.66666666666666</ele><time>2026-04-11T04:10:33Z</time></trkpt><trkpt lat="43.33962735425718" lon="11.433210700994504"><ele>249.5</ele><time>2026-04-11T04:10:34Z</time></trkpt><trkpt lat="43.33966839287627" lon="11.433307637247808"><ele>249.33333333333331</ele><time>2026-04-11T04:10:35Z</time></trkpt><trkpt lat="43.33971220509788" lon="11.433405345905253"><ele>249.16666666666666</ele><time>2026-04-11T04:10:36Z</time></trkpt><trkpt lat="43.339755355055615" lon="11.43350333846933"><ele>249.0</ele><time>2026-04-11T04:10:37Z</time></trkpt><trkpt lat="43.33983973759183" lon="11.43369595460443"><ele>249.0</ele><time>2026-04-11T04:10:39Z</time></trkpt><trkpt lat="43.33988024543848" lon="11.433799630081305"><ele>249.0</ele><time>2026-04-11T04:10:40Z</time></trkpt><trkpt lat="43.33992219070083" lon="11.43390410964544"><ele>249.0</ele><time>2026-04-11T04:10:41Z</time></trkpt><trkpt lat="43.339965445524456" lon="11.433998956561721"><ele>249.0</ele><time>2026-04-11T04:10:42Z</time></trkpt><trkpt lat="43.34000802979956" lon="11.43409948261885"><ele>249.0</ele><time>2026-04-11T04:10:43Z</time></trkpt><trkpt lat="43.3400536251566" lon="11.434196424024945"><ele>249.0</ele><time>2026-04-11T04:10:44Z</time></trkpt><trkpt lat="43.3401022669806" lon="11.434288954615141"><ele>249.0</ele><time>2026-04-11T04:10:45Z</time></trkpt><trkpt lat="43.34015474685494" lon="11.434374306035357"><ele>249.0</ele><time>2026-04-11T04:10:46Z</time></trkpt><trkpt lat="43.34020506074346" lon="11.434456809627019"><ele>249.0</ele><time>2026-04-11T04:10:47Z</time></trkpt><trkpt lat="43.34027882122827" lon="11.434524455071454"><ele>249.0</ele><time>2026-04-11T04:10:48Z</time></trkpt><trkpt lat="43.34035331674322" lon="11.434586413094408"><ele>249.0</ele><time>2026-04-11T04:10:49Z</time></trkpt><trkpt lat="43.34043845971042" lon="11.43462981989817"><ele>249.0</ele><time>2026-04-11T04:10:50Z</time></trkpt><trkpt lat="43.340532178450744" lon="11.43464844978977"><ele>248.39999999999998</ele><time>2026-04-11T04:10:51Z</time></trkpt><trkpt lat="43.340625366574045" lon="11.434638909317373"><ele>247.79999999999998</ele><time>2026-04-11T04:10:52Z</time></trkpt><trkpt lat="43.34072001185932" lon="11.434631716137329"><ele>247.20000000000002</ele><time>2026-04-11T04:10:53Z</time></trkpt><trkpt lat="43.34081295297631" lon="11.434601978834714"><ele>246.60000000000002</ele><time>2026-04-11T04:10:54Z</time></trkpt><trkpt lat="43.3409043688907" lon="11.434565669496626"><ele>246.0</ele><time>2026-04-11T04:10:55Z</time></trkpt><trkpt lat="43.340994354323946" lon="11.434532377498709"><ele>246.0</ele><time>2026-04-11T04:10:56Z</time></trkpt><trkpt lat="43.341085834662096" lon="11.4344994747361"><ele>246.0</ele><time>2026-04-11T04:10:57Z</time></trkpt><trkpt lat="43.34117521811828" lon="11.434468900610403"><ele>246.0</ele><time>2026-04-11T04:10:58Z</time></trkpt><trkpt lat="43.34135727298368" lon="11.434414616832882"><ele>246.0</ele><time>2026-04-11T04:11:00Z</time></trkpt><trkpt lat="43.34144762165639" lon="11.434387455889205"><ele>246.0</ele><time>2026-04-11T04:11:01Z</time></trkpt><trkpt lat="43.34153702203511" lon="11.434358615149547"><ele>246.0</ele><time>2026-04-11T04:11:02Z</time></trkpt><trkpt lat="43.341625187464466" lon="11.434328465711271"><ele>246.0</ele><time>2026-04-11T04:11:03Z</time></trkpt><trkpt lat="43.34171474914188" lon="11.43430082055358"><ele>246.0</ele><time>2026-04-11T04:11:04Z</time></trkpt><trkpt lat="43.3418004286963" lon="11.434274832976035"><ele>246.0</ele><time>2026-04-11T04:11:05Z</time></trkpt><trkpt lat="43.34188263371358" lon="11.43424384910011"><ele>246.0</ele><time>2026-04-11T04:11:06Z</time></trkpt><trkpt lat="43.3419606182506" lon="11.434215606427026"><ele>246.0</ele><time>2026-04-11T04:11:07Z</time></trkpt><trkpt lat="43.34204096738621" lon="11.434191590496445"><ele>246.0</ele><time>2026-04-11T04:11:08Z</time></trkpt><trkpt lat="43.34212164470236" lon="11.434166972955541"><ele>246.0</ele><time>2026-04-11T04:11:09Z</time></trkpt><trkpt lat="43.34219959708173" lon="11.434144150219135"><ele>246.0</ele><time>2026-04-11T04:11:10Z</time></trkpt><trkpt lat="43.34227766395159" lon="11.434120406938645"><ele>246.0</ele><time>2026-04-11T04:11:11Z</time></trkpt><trkpt lat="43.34235635620482" lon="11.434092570959507"><ele>246.0</ele><time>2026-04-11T04:11:12Z</time></trkpt><trkpt lat="43.342433657941946" lon="11.434066757330708"><ele>246.14285714285717</ele><time>2026-04-11T04:11:13Z</time></trkpt><trkpt lat="43.342510011009416" lon="11.43404139913745"><ele>246.28571428571428</ele><time>2026-04-11T04:11:14Z</time></trkpt><trkpt lat="43.342581450622745" lon="11.434014069246262"><ele>246.42857142857144</ele><time>2026-04-11T04:11:15Z</time></trkpt><trkpt lat="43.34265503567966" lon="11.433990940394771"><ele>246.57142857142858</ele><time>2026-04-11T04:11:16Z</time></trkpt><trkpt lat="43.34272355102093" lon="11.433967050736918"><ele>246.71428571428572</ele><time>2026-04-11T04:11:17Z</time></trkpt><trkpt lat="43.34279158150125" lon="11.433944611599916"><ele>246.85714285714286</ele><time>2026-04-11T04:11:18Z</time></trkpt><trkpt lat="43.342854977830896" lon="11.433923950183082"><ele>247.0</ele><time>2026-04-11T04:11:19Z</time></trkpt><trkpt lat="43.34308777084945" lon="11.433881810585714"><ele>248.0</ele><time>2026-04-11T04:11:23Z</time></trkpt><trkpt lat="43.34319674436064" lon="11.43390273889169"><ele>249.0</ele><time>2026-04-11T04:11:25Z</time></trkpt><trkpt lat="43.343292086135015" lon="11.433943535646048"><ele>250.0</ele><time>2026-04-11T04:11:27Z</time></trkpt><trkpt lat="43.343376046769066" lon="11.43400946006825"><ele>251.0</ele><time>2026-04-11T04:11:29Z</time></trkpt><trkpt lat="43.34344707979659" lon="11.434095760105883"><ele>252.0</ele><time>2026-04-11T04:11:31Z</time></trkpt><trkpt lat="43.34350912780252" lon="11.434181228896415"><ele>252.0</ele><time>2026-04-11T04:11:33Z</time></trkpt><trkpt lat="43.34356921731698" lon="11.434269059729639"><ele>252.0</ele><time>2026-04-11T04:11:35Z</time></trkpt><trkpt lat="43.34362942096896" lon="11.434362471180137"><ele>252.0</ele><time>2026-04-11T04:11:37Z</time></trkpt><trkpt lat="43.34369032114265" lon="11.434445497617412"><ele>252.0</ele><time>2026-04-11T04:11:39Z</time></trkpt><trkpt lat="43.343748948224444" lon="11.43453513090929"><ele>252.0</ele><time>2026-04-11T04:11:41Z</time></trkpt><trkpt lat="43.34386275315415" lon="11.434700134697815"><ele>253.0</ele><time>2026-04-11T04:11:45Z</time></trkpt><trkpt lat="43.34391243575033" lon="11.434781240172626"><ele>254.0</ele><time>2026-04-11T04:11:47Z</time></trkpt><trkpt lat="43.34397196278728" lon="11.434856488465583"><ele>255.0</ele><time>2026-04-11T04:11:49Z</time></trkpt><trkpt lat="43.34402542074587" lon="11.434937148955909"><ele>256.0</ele><time>2026-04-11T04:11:51Z</time></trkpt><trkpt lat="43.34408450390462" lon="11.435008938909972"><ele>257.0</ele><time>2026-04-11T04:11:53Z</time></trkpt><trkpt lat="43.344146499374524" lon="11.43508431807193"><ele>258.0</ele><time>2026-04-11T04:11:55Z</time></trkpt><trkpt lat="43.34421333882263" lon="11.435152708126283"><ele>258.0</ele><time>2026-04-11T04:11:57Z</time></trkpt><trkpt lat="43.344281436302104" lon="11.435223790663343"><ele>258.0</ele><time>2026-04-11T04:11:59Z</time></trkpt><trkpt lat="43.3443499602688" lon="11.435296208260247"><ele>258.0</ele><time>2026-04-11T04:12:01Z</time></trkpt><trkpt lat="43.34441773012824" lon="11.435364411111753"><ele>258.0</ele><time>2026-04-11T04:12:03Z</time></trkpt><trkpt lat="43.34456361709701" lon="11.435493884936673"><ele>258.0</ele><time>2026-04-11T04:12:07Z</time></trkpt><trkpt lat="43.34464090192233" lon="11.435540792644145"><ele>258.5</ele><time>2026-04-11T04:12:09Z</time></trkpt><trkpt lat="43.34472052067154" lon="11.435577444171118"><ele>259.0</ele><time>2026-04-11T04:12:11Z</time></trkpt><trkpt lat="43.34480200751796" lon="11.43560758606157"><ele>259.5</ele><time>2026-04-11T04:12:13Z</time></trkpt><trkpt lat="43.34488951369978" lon="11.43561843909672"><ele>260.0</ele><time>2026-04-11T04:12:15Z</time></trkpt><trkpt lat="43.34497840066324" lon="11.435625352710613"><ele>260.5</ele><time>2026-04-11T04:12:17Z</time></trkpt><trkpt lat="43.345069296035206" lon="11.4356274068135"><ele>261.0</ele><time>2026-04-11T04:12:19Z</time></trkpt><trkpt lat="43.34516076568084" lon="11.435629800580797"><ele>261.0</ele><time>2026-04-11T04:12:21Z</time></trkpt><trkpt lat="43.34525202360965" lon="11.435630053858196"><ele>261.0</ele><time>2026-04-11T04:12:23Z</time></trkpt><trkpt lat="43.34534533443188" lon="11.43563404096729"><ele>261.0</ele><time>2026-04-11T04:12:25Z</time></trkpt><trkpt lat="43.345534926793896" lon="11.435640096766095"><ele>261.0</ele><time>2026-04-11T04:12:29Z</time></trkpt><trkpt lat="43.345630608346255" lon="11.435639778944052"><ele>262.0</ele><time>2026-04-11T04:12:31Z</time></trkpt><trkpt lat="43.345722671709844" lon="11.435649570437203"><ele>263.0</ele><time>2026-04-11T04:12:33Z</time></trkpt><trkpt lat="43.34581743359633" lon="11.435684051413153"><ele>264.0</ele><time>2026-04-11T04:12:35Z</time></trkpt><trkpt lat="43.345906409694855" lon="11.435740934169758"><ele>265.0</ele><time>2026-04-11T04:12:37Z</time></trkpt><trkpt lat="43.345995299078346" lon="11.435820507152487"><ele>266.0</ele><time>2026-04-11T04:12:39Z</time></trkpt><trkpt lat="43.34609330788378" lon="11.43591132705566"><ele>266.0</ele><time>2026-04-11T04:12:41Z</time></trkpt><trkpt lat="43.34620193939867" lon="11.436003341582099"><ele>266.0</ele><time>2026-04-11T04:12:43Z</time></trkpt><trkpt lat="43.34625591173333" lon="11.436052423148087"><ele>266.0</ele><time>2026-04-11T04:12:44Z</time></trkpt><trkpt lat="43.34631413372561" lon="11.436101162292632"><ele>266.0</ele><time>2026-04-11T04:12:45Z</time></trkpt><trkpt lat="43.346372757752164" lon="11.436147565012353"><ele>266.0</ele><time>2026-04-11T04:12:46Z</time></trkpt><trkpt lat="43.346482967247915" lon="11.436245033114426"><ele>265.6666666666667</ele><time>2026-04-11T04:12:48Z</time></trkpt><trkpt lat="43.346590213370334" lon="11.4363516116495"><ele>265.33333333333337</ele><time>2026-04-11T04:12:50Z</time></trkpt><trkpt lat="43.34664621503055" lon="11.436415131640526"><ele>265.0</ele><time>2026-04-11T04:12:51Z</time></trkpt><trkpt lat="43.34670325891104" lon="11.436483236809089"><ele>264.6666666666667</ele><time>2026-04-11T04:12:52Z</time></trkpt><trkpt lat="43.34675426919541" lon="11.436555559485054"><ele>264.3333333333333</ele><time>2026-04-11T04:12:53Z</time></trkpt><trkpt lat="43.34680836902895" lon="11.436641482862491"><ele>264.0</ele><time>2026-04-11T04:12:54Z</time></trkpt><trkpt lat="43.34686206236864" lon="11.436735133317725"><ele>264.0</ele><time>2026-04-11T04:12:55Z</time></trkpt><trkpt lat="43.34691793495473" lon="11.436822415823427"><ele>264.0</ele><time>2026-04-11T04:12:56Z</time></trkpt><trkpt lat="43.34697394792204" lon="11.436917198173285"><ele>264.0</ele><time>2026-04-11T04:12:57Z</time></trkpt><trkpt lat="43.347022759244965" lon="11.437021803086443"><ele>264.0</ele><time>2026-04-11T04:12:58Z</time></trkpt><trkpt lat="43.34708045953567" lon="11.437112116648091"><ele>264.0</ele><time>2026-04-11T04:12:59Z</time></trkpt><trkpt lat="43.347134181553855" lon="11.437211688090114"><ele>264.0</ele><time>2026-04-11T04:13:00Z</time></trkpt><trkpt lat="43.347188968445" lon="11.437306904105649"><ele>263.1666666666667</ele><time>2026-04-11T04:13:01Z</time></trkpt><trkpt lat="43.34724940591069" lon="11.4373921632275"><ele>262.3333333333333</ele><time>2026-04-11T04:13:02Z</time></trkpt><trkpt lat="43.34729379971201" lon="11.437487123166152"><ele>261.5</ele><time>2026-04-11T04:13:03Z</time></trkpt><trkpt lat="43.34733112576045" lon="11.437596640092423"><ele>260.66666666666663</ele><time>2026-04-11T04:13:04Z</time></trkpt><trkpt lat="43.34739154293007" lon="11.437684135821408"><ele>259.8333333333333</ele><time>2026-04-11T04:13:05Z</time></trkpt><trkpt lat="43.34744469369493" lon="11.437774973815651"><ele>259.0</ele><time>2026-04-11T04:13:06Z</time></trkpt><trkpt lat="43.34750268699785" lon="11.437867636897991"><ele>259.0</ele><time>2026-04-11T04:13:07Z</time></trkpt><trkpt lat="43.34760601578183" lon="11.438041771706347"><ele>259.0</ele><time>2026-04-11T04:13:09Z</time></trkpt><trkpt lat="43.34766266230572" lon="11.438122925661936"><ele>259.0</ele><time>2026-04-11T04:13:10Z</time></trkpt><trkpt lat="43.347723921297565" lon="11.438201908190992"><ele>259.0</ele><time>2026-04-11T04:13:11Z</time></trkpt><trkpt lat="43.34780367653307" lon="11.438270113381579"><ele>259.0</ele><time>2026-04-11T04:13:12Z</time></trkpt><trkpt lat="43.34787026423127" lon="11.438336161845607"><ele>259.0</ele><time>2026-04-11T04:13:13Z</time></trkpt><trkpt lat="43.34794026728712" lon="11.438397783623975"><ele>259.0</ele><time>2026-04-11T04:13:14Z</time></trkpt><trkpt lat="43.34802177257587" lon="11.43843483838098"><ele>259.0</ele><time>2026-04-11T04:13:15Z</time></trkpt><trkpt lat="43.34810724562255" lon="11.438459975026152"><ele>259.0</ele><time>2026-04-11T04:13:16Z</time></trkpt><trkpt lat="43.34819333733148" lon="11.438476356504868"><ele>259.0</ele><time>2026-04-11T04:13:17Z</time></trkpt><trkpt lat="43.34827931864732" lon="11.438486099735234"><ele>259.0</ele><time>2026-04-11T04:13:18Z</time></trkpt><trkpt lat="43.34836624451489" lon="11.438491683335924"><ele>258.3333333333333</ele><time>2026-04-11T04:13:19Z</time></trkpt><trkpt lat="43.348450428516585" lon="11.438509590320011"><ele>257.66666666666663</ele><time>2026-04-11T04:13:20Z</time></trkpt><trkpt lat="43.34853360369592" lon="11.438520364676524"><ele>257.0</ele><time>2026-04-11T04:13:21Z</time></trkpt><trkpt lat="43.348617538058996" lon="11.438541077922045"><ele>256.3333333333333</ele><time>2026-04-11T04:13:22Z</time></trkpt><trkpt lat="43.348706832900675" lon="11.438552749989457"><ele>255.66666666666666</ele><time>2026-04-11T04:13:23Z</time></trkpt><trkpt lat="43.348793503128874" lon="11.438566642777392"><ele>255.0</ele><time>2026-04-11T04:13:24Z</time></trkpt><trkpt lat="43.348879981683055" lon="11.438582011691414"><ele>255.0</ele><time>2026-04-11T04:13:25Z</time></trkpt><trkpt lat="43.348965500601444" lon="11.438604942614438"><ele>255.0</ele><time>2026-04-11T04:13:26Z</time></trkpt><trkpt lat="43.349048082804245" lon="11.438617199509787"><ele>255.0</ele><time>2026-04-11T04:13:27Z</time></trkpt><trkpt lat="43.34912748716623" lon="11.438636109702783"><ele>255.0</ele><time>2026-04-11T04:13:28Z</time></trkpt><trkpt lat="43.349288472649015" lon="11.43868566081853"><ele>255.0</ele><time>2026-04-11T04:13:30Z</time></trkpt><trkpt lat="43.34936118290409" lon="11.438725655251782"><ele>255.0</ele><time>2026-04-11T04:13:31Z</time></trkpt><trkpt lat="43.3494319895003" lon="11.4387829811"><ele>255.0</ele><time>2026-04-11T04:13:32Z</time></trkpt><trkpt lat="43.34949992765241" lon="11.438854990517143"><ele>255.0</ele><time>2026-04-11T04:13:33Z</time></trkpt><trkpt lat="43.34955835507918" lon="11.438932624960788"><ele>255.0</ele><time>2026-04-11T04:13:34Z</time></trkpt><trkpt lat="43.349611626455676" lon="11.439026488500888"><ele>255.0</ele><time>2026-04-11T04:13:35Z</time></trkpt><trkpt lat="43.34965854556427" lon="11.439124377312634"><ele>255.0</ele><time>2026-04-11T04:13:36Z</time></trkpt><trkpt lat="43.349706804660926" lon="11.439223249905593"><ele>254.0</ele><time>2026-04-11T04:13:37Z</time></trkpt><trkpt lat="43.34975101232755" lon="11.43932894799737"><ele>253.0</ele><time>2026-04-11T04:13:38Z</time></trkpt><trkpt lat="43.3498016020888" lon="11.439434714035379"><ele>252.0</ele><time>2026-04-11T04:13:39Z</time></trkpt><trkpt lat="43.34985461431374" lon="11.439532004234167"><ele>251.0</ele><time>2026-04-11T04:13:40Z</time></trkpt><trkpt lat="43.34991575983167" lon="11.439629869616473"><ele>250.0</ele><time>2026-04-11T04:13:41Z</time></trkpt><trkpt lat="43.349982992086765" lon="11.439719127769836"><ele>249.4</ele><time>2026-04-11T04:13:42Z</time></trkpt><trkpt lat="43.35004732151832" lon="11.439797168193962"><ele>248.8</ele><time>2026-04-11T04:13:43Z</time></trkpt><trkpt lat="43.350129877691856" lon="11.439871517930637"><ele>248.2</ele><time>2026-04-11T04:13:44Z</time></trkpt><trkpt lat="43.35020563643807" lon="11.439938050388895"><ele>247.6</ele><time>2026-04-11T04:13:45Z</time></trkpt><trkpt lat="43.35028345802151" lon="11.440000494259095"><ele>247.0</ele><time>2026-04-11T04:13:46Z</time></trkpt><trkpt lat="43.35036747053383" lon="11.440056542592357"><ele>247.0</ele><time>2026-04-11T04:13:47Z</time></trkpt><trkpt lat="43.35045611738456" lon="11.440093904362039"><ele>247.0</ele><time>2026-04-11T04:13:48Z</time></trkpt><trkpt lat="43.35054343984459" lon="11.440116482101068"><ele>247.0</ele><time>2026-04-11T04:13:49Z</time></trkpt><trkpt lat="43.35072827143786" lon="11.440133888296671"><ele>247.0</ele><time>2026-04-11T04:13:51Z</time></trkpt><trkpt lat="43.350821014004374" lon="11.440126484767028"><ele>247.16666666666666</ele><time>2026-04-11T04:13:52Z</time></trkpt><trkpt lat="43.35090999380755" lon="11.440118103816875"><ele>247.33333333333331</ele><time>2026-04-11T04:13:53Z</time></trkpt><trkpt lat="43.35099636816354" lon="11.440094999842534"><ele>247.5</ele><time>2026-04-11T04:13:54Z</time></trkpt><trkpt lat="43.35107561228847" lon="11.44006263927123"><ele>247.66666666666669</ele><time>2026-04-11T04:13:55Z</time></trkpt><trkpt lat="43.35114809801433" lon="11.4400198950394"><ele>247.83333333333334</ele><time>2026-04-11T04:13:56Z</time></trkpt><trkpt lat="43.35121869238919" lon="11.439971980958397"><ele>248.0</ele><time>2026-04-11T04:13:57Z</time></trkpt><trkpt lat="43.351284428031995" lon="11.43991687074139"><ele>248.0</ele><time>2026-04-11T04:13:58Z</time></trkpt><trkpt lat="43.35134707106436" lon="11.439863868110349"><ele>248.00000000000003</ele><time>2026-04-11T04:13:59Z</time></trkpt><trkpt lat="43.35140893742028" lon="11.439817441655277"><ele>248.0</ele><time>2026-04-11T04:14:00Z</time></trkpt><trkpt lat="43.351468961267024" lon="11.439773238638058"><ele>248.0</ele><time>2026-04-11T04:14:01Z</time></trkpt><trkpt lat="43.35152753010565" lon="11.439727789882248"><ele>248.00000000000003</ele><time>2026-04-11T04:14:02Z</time></trkpt><trkpt lat="43.35158426864685" lon="11.439683526275717"><ele>248.0</ele><time>2026-04-11T04:14:03Z</time></trkpt><trkpt lat="43.35164141877473" lon="11.439642411488558"><ele>248.0</ele><time>2026-04-11T04:14:04Z</time></trkpt><trkpt lat="43.351749594974116" lon="11.439555052915674"><ele>248.75</ele><time>2026-04-11T04:14:06Z</time></trkpt><trkpt lat="43.351855503694395" lon="11.439489278517215"><ele>249.5</ele><time>2026-04-11T04:14:08Z</time></trkpt><trkpt lat="43.35196044676498" lon="11.43944415883831"><ele>250.25</ele><time>2026-04-11T04:14:10Z</time></trkpt><trkpt lat="43.35215218396755" lon="11.439394625978773"><ele>251.0</ele><time>2026-04-11T04:14:14Z</time></trkpt><trkpt lat="43.352247154645205" lon="11.439376784151905"><ele>252.4</ele><time>2026-04-11T04:14:16Z</time></trkpt><trkpt lat="43.352336709037125" lon="11.439325994592666"><ele>253.8</ele><time>2026-04-11T04:14:18Z</time></trkpt><trkpt lat="43.35241208421077" lon="11.4392556133399"><ele>255.20000000000002</ele><time>2026-04-11T04:14:20Z</time></trkpt><trkpt lat="43.35247543649684" lon="11.439168850007258"><ele>256.6</ele><time>2026-04-11T04:14:22Z</time></trkpt><trkpt lat="43.3525440964243" lon="11.439084056683402"><ele>258.0</ele><time>2026-04-11T04:14:24Z</time></trkpt><trkpt lat="43.352609723805735" lon="11.438991242898759"><ele>258.0</ele><time>2026-04-11T04:14:26Z</time></trkpt><trkpt lat="43.35268331281712" lon="11.438906641849234"><ele>258.0</ele><time>2026-04-11T04:14:28Z</time></trkpt><trkpt lat="43.352756177350145" lon="11.438835790272353"><ele>258.0</ele><time>2026-04-11T04:14:30Z</time></trkpt><trkpt lat="43.35283376204404" lon="11.43876743097018"><ele>258.0</ele><time>2026-04-11T04:14:32Z</time></trkpt><trkpt lat="43.35299768932508" lon="11.43862660704618"><ele>259.4</ele><time>2026-04-11T04:14:36Z</time></trkpt><trkpt lat="43.35308644173814" lon="11.43856389810723"><ele>260.8</ele><time>2026-04-11T04:14:38Z</time></trkpt><trkpt lat="43.35317036840847" lon="11.438502978880706"><ele>262.2</ele><time>2026-04-11T04:14:40Z</time></trkpt><trkpt lat="43.35325781891766" lon="11.438450226102118"><ele>263.6</ele><time>2026-04-11T04:14:42Z</time></trkpt><trkpt lat="43.35334862621703" lon="11.43841418860433"><ele>265.0</ele><time>2026-04-11T04:14:44Z</time></trkpt><trkpt lat="43.35344193764058" lon="11.438385209664089"><ele>265.0</ele><time>2026-04-11T04:14:46Z</time></trkpt><trkpt lat="43.35353282351765" lon="11.43836349020895"><ele>265.0</ele><time>2026-04-11T04:14:48Z</time></trkpt><trkpt lat="43.35362372237201" lon="11.438345643533346"><ele>265.0</ele><time>2026-04-11T04:14:50Z</time></trkpt><trkpt lat="43.353719636428856" lon="11.438334341332313"><ele>265.0</ele><time>2026-04-11T04:14:52Z</time></trkpt><trkpt lat="43.353817551292096" lon="11.438300635755992"><ele>265.0</ele><time>2026-04-11T04:14:54Z</time></trkpt><trkpt lat="43.353998640716874" lon="11.438256005208334"><ele>265.2</ele><time>2026-04-11T04:14:58Z</time></trkpt><trkpt lat="43.35409740806294" lon="11.438225578050368"><ele>265.4</ele><time>2026-04-11T04:15:00Z</time></trkpt><trkpt lat="43.35418785257827" lon="11.438199621932325"><ele>265.6</ele><time>2026-04-11T04:15:02Z</time></trkpt><trkpt lat="43.35427699940551" lon="11.438179000098618"><ele>265.8</ele><time>2026-04-11T04:15:04Z</time></trkpt><trkpt lat="43.354371023100605" lon="11.438161490567541"><ele>266.0</ele><time>2026-04-11T04:15:06Z</time></trkpt><trkpt lat="43.354462349444745" lon="11.43814707201109"><ele>266.0</ele><time>2026-04-11T04:15:08Z</time></trkpt><trkpt lat="43.35456256139642" lon="11.438151514883216"><ele>266.0</ele><time>2026-04-11T04:15:10Z</time></trkpt><trkpt lat="43.35466305447736" lon="11.43814811330705"><ele>266.0</ele><time>2026-04-11T04:15:12Z</time></trkpt><trkpt lat="43.35476681013484" lon="11.438153375262427"><ele>266.0</ele><time>2026-04-11T04:15:14Z</time></trkpt><trkpt lat="43.35487528246054" lon="11.438161939949627"><ele>266.0</ele><time>2026-04-11T04:15:16Z</time></trkpt><trkpt lat="43.35509809959286" lon="11.438209989063173"><ele>266.0</ele><time>2026-04-11T04:15:20Z</time></trkpt><trkpt lat="43.35522011293097" lon="11.438234667265297"><ele>266.0</ele><time>2026-04-11T04:15:22Z</time></trkpt><trkpt lat="43.35528507375779" lon="11.4382501661849"><ele>266.0</ele><time>2026-04-11T04:15:23Z</time></trkpt><trkpt lat="43.355348615202345" lon="11.438262923474046"><ele>266.0</ele><time>2026-04-11T04:15:24Z</time></trkpt><trkpt lat="43.35541836075528" lon="11.438276676631016"><ele>266.0</ele><time>2026-04-11T04:15:25Z</time></trkpt><trkpt lat="43.35548573481589" lon="11.438292775784443"><ele>266.0</ele><time>2026-04-11T04:15:26Z</time></trkpt><trkpt lat="43.355558733913" lon="11.438307152443684"><ele>266.0</ele><time>2026-04-11T04:15:27Z</time></trkpt><trkpt lat="43.355626570243224" lon="11.438325042122537"><ele>266.0</ele><time>2026-04-11T04:15:28Z</time></trkpt><trkpt lat="43.355696661905704" lon="11.43834139734218"><ele>266.0</ele><time>2026-04-11T04:15:29Z</time></trkpt><trkpt lat="43.35576917881788" lon="11.438360948717872"><ele>266.0</ele><time>2026-04-11T04:15:30Z</time></trkpt><trkpt lat="43.355849858184044" lon="11.438380853696"><ele>266.0</ele><time>2026-04-11T04:15:31Z</time></trkpt><trkpt lat="43.35591713314987" lon="11.438382522717019"><ele>266.0</ele><time>2026-04-11T04:15:32Z</time></trkpt><trkpt lat="43.35598918844035" lon="11.43839990607658"><ele>266.0</ele><time>2026-04-11T04:15:33Z</time></trkpt><trkpt lat="43.356057449350544" lon="11.438418937507995"><ele>266.0</ele><time>2026-04-11T04:15:34Z</time></trkpt><trkpt lat="43.356121241976" lon="11.438434977655353"><ele>266.0</ele><time>2026-04-11T04:15:35Z</time></trkpt><trkpt lat="43.35619324897972" lon="11.438460126327609"><ele>266.0</ele><time>2026-04-11T04:15:36Z</time></trkpt><trkpt lat="43.356263498790454" lon="11.438475350395183"><ele>266.0</ele><time>2026-04-11T04:15:37Z</time></trkpt><trkpt lat="43.35641036297788" lon="11.438506227284835"><ele>266.0</ele><time>2026-04-11T04:15:39Z</time></trkpt><trkpt lat="43.35648255058634" lon="11.438523077023"><ele>266.0</ele><time>2026-04-11T04:15:40Z</time></trkpt><trkpt lat="43.35655121457224" lon="11.438540840321236"><ele>265.85714285714283</ele><time>2026-04-11T04:15:41Z</time></trkpt><trkpt lat="43.35662123277428" lon="11.438557087523455"><ele>265.7142857142857</ele><time>2026-04-11T04:15:42Z</time></trkpt><trkpt lat="43.356689720291335" lon="11.4385702387108"><ele>265.57142857142856</ele><time>2026-04-11T04:15:43Z</time></trkpt><trkpt lat="43.3567582504022" lon="11.438583778227157"><ele>265.42857142857144</ele><time>2026-04-11T04:15:44Z</time></trkpt><trkpt lat="43.35682523595636" lon="11.438601670665498"><ele>265.2857142857143</ele><time>2026-04-11T04:15:45Z</time></trkpt><trkpt lat="43.356894072219475" lon="11.438614796440739"><ele>265.1428571428571</ele><time>2026-04-11T04:15:46Z</time></trkpt><trkpt lat="43.35695916005687" lon="11.438636316427585"><ele>265.0</ele><time>2026-04-11T04:15:47Z</time></trkpt><trkpt lat="43.35702763671355" lon="11.438633976678409"><ele>265.0</ele><time>2026-04-11T04:15:48Z</time></trkpt><trkpt lat="43.35709828799044" lon="11.438634703163912"><ele>265.0</ele><time>2026-04-11T04:15:49Z</time></trkpt><trkpt lat="43.357169088581955" lon="11.438624588157921"><ele>265.0</ele><time>2026-04-11T04:15:50Z</time></trkpt><trkpt lat="43.35727401232232" lon="11.438590675388815"><ele>265.0</ele><time>2026-04-11T04:15:52Z</time></trkpt><trkpt lat="43.35739936144187" lon="11.438559915947828"><ele>265.0</ele><time>2026-04-11T04:15:54Z</time></trkpt><trkpt lat="43.357462698495716" lon="11.438545395319405"><ele>265.0</ele><time>2026-04-11T04:15:55Z</time></trkpt><trkpt lat="43.357524198445546" lon="11.438524736078229"><ele>265.0</ele><time>2026-04-11T04:15:56Z</time></trkpt><trkpt lat="43.35759016243744" lon="11.438502621236212"><ele>265.0</ele><time>2026-04-11T04:15:57Z</time></trkpt><trkpt lat="43.35765326529521" lon="11.438487458983582"><ele>265.0</ele><time>2026-04-11T04:15:58Z</time></trkpt><trkpt lat="43.35783874617343" lon="11.438427574955561"><ele>265.0</ele><time>2026-04-11T04:16:01Z</time></trkpt><trkpt lat="43.35790062215634" lon="11.438408496347115"><ele>265.0</ele><time>2026-04-11T04:16:02Z</time></trkpt><trkpt lat="43.35796288796903" lon="11.438387077667468"><ele>265.0</ele><time>2026-04-11T04:16:03Z</time></trkpt><trkpt lat="43.35802410351585" lon="11.438363070910059"><ele>265.0</ele><time>2026-04-11T04:16:04Z</time></trkpt><trkpt lat="43.358137576002264" lon="11.438295517482345"><ele>265.0</ele><time>2026-04-11T04:16:06Z</time></trkpt><trkpt lat="43.35823930222906" lon="11.438189755402096"><ele>265.0</ele><time>2026-04-11T04:16:08Z</time></trkpt><trkpt lat="43.358278754229566" lon="11.438121571638918"><ele>265.0</ele><time>2026-04-11T04:16:09Z</time></trkpt><trkpt lat="43.358314801574174" lon="11.438044789350926"><ele>265.0</ele><time>2026-04-11T04:16:10Z</time></trkpt><trkpt lat="43.35834740624648" lon="11.437967748068885"><ele>266.0</ele><time>2026-04-11T04:16:11Z</time></trkpt><trkpt lat="43.35839394801791" lon="11.437812635574845"><ele>267.0</ele><time>2026-04-11T04:16:13Z</time></trkpt><trkpt lat="43.35843076798656" lon="11.437654043798554"><ele>268.0</ele><time>2026-04-11T04:16:15Z</time></trkpt><trkpt lat="43.358435844169755" lon="11.437488868748325"><ele>269.0</ele><time>2026-04-11T04:16:17Z</time></trkpt><trkpt lat="43.35842395108465" lon="11.437324087472263"><ele>269.0</ele><time>2026-04-11T04:16:19Z</time></trkpt><trkpt lat="43.35838833636146" lon="11.437012391287702"><ele>269.0</ele><time>2026-04-11T04:16:23Z</time></trkpt><trkpt lat="43.35837301869258" lon="11.436860956527342"><ele>269.0</ele><time>2026-04-11T04:16:25Z</time></trkpt><trkpt lat="43.35837244271604" lon="11.436697951859308"><ele>269.0</ele><time>2026-04-11T04:16:27Z</time></trkpt><trkpt lat="43.3583949192736" lon="11.43653347873299"><ele>269.0</ele><time>2026-04-11T04:16:29Z</time></trkpt><trkpt lat="43.358411213574186" lon="11.436445772200239"><ele>269.0</ele><time>2026-04-11T04:16:30Z</time></trkpt><trkpt lat="43.35844198744723" lon="11.43627429825429"><ele>269.0</ele><time>2026-04-11T04:16:32Z</time></trkpt><trkpt lat="43.35845766039043" lon="11.436185010067346"><ele>269.0</ele><time>2026-04-11T04:16:33Z</time></trkpt><trkpt lat="43.35847700951571" lon="11.436096130708492"><ele>269.0</ele><time>2026-04-11T04:16:34Z</time></trkpt><trkpt lat="43.358494015358836" lon="11.43600668046636"><ele>269.0</ele><time>2026-04-11T04:16:35Z</time></trkpt><trkpt lat="43.35851143496073" lon="11.435913262900034"><ele>269.0</ele><time>2026-04-11T04:16:36Z</time></trkpt><trkpt lat="43.35853111021995" lon="11.435820184286802"><ele>269.0</ele><time>2026-04-11T04:16:37Z</time></trkpt><trkpt lat="43.35854957328315" lon="11.43572586416778"><ele>269.0</ele><time>2026-04-11T04:16:38Z</time></trkpt><trkpt lat="43.35857011856104" lon="11.435629039960247"><ele>269.0</ele><time>2026-04-11T04:16:39Z</time></trkpt><trkpt lat="43.358595090579044" lon="11.435527653353038"><ele>269.0</ele><time>2026-04-11T04:16:40Z</time></trkpt><trkpt lat="43.35866931094847" lon="11.435339584139534"><ele>269.4</ele><time>2026-04-11T04:16:42Z</time></trkpt><trkpt lat="43.358707379544654" lon="11.435245073723493"><ele>269.79999999999995</ele><time>2026-04-11T04:16:43Z</time></trkpt><trkpt lat="43.35876100253148" lon="11.435087261905725"><ele>270.20000000000005</ele><time>2026-04-11T04:16:45Z</time></trkpt><trkpt lat="43.35881305508869" lon="11.434970687808757"><ele>270.6</ele><time>2026-04-11T04:16:46Z</time></trkpt><trkpt lat="43.358853636633974" lon="11.434869422907758"><ele>271.0</ele><time>2026-04-11T04:16:47Z</time></trkpt><trkpt lat="43.358886024376346" lon="11.434770006477919"><ele>269.66666666666663</ele><time>2026-04-11T04:16:48Z</time></trkpt><trkpt lat="43.358919238474044" lon="11.434667771724497"><ele>268.3333333333333</ele><time>2026-04-11T04:16:49Z</time></trkpt><trkpt lat="43.35894545125086" lon="11.434564276581415"><ele>267.0</ele><time>2026-04-11T04:16:50Z</time></trkpt><trkpt lat="43.358962818900274" lon="11.434457648896679"><ele>265.6666666666667</ele><time>2026-04-11T04:16:51Z</time></trkpt><trkpt lat="43.358977706896596" lon="11.434347364225724"><ele>264.33333333333337</ele><time>2026-04-11T04:16:52Z</time></trkpt><trkpt lat="43.358989714129606" lon="11.434233799872363"><ele>263.0</ele><time>2026-04-11T04:16:53Z</time></trkpt><trkpt lat="43.35899320887803" lon="11.43411906581637"><ele>263.0</ele><time>2026-04-11T04:16:54Z</time></trkpt><trkpt lat="43.35899123472719" lon="11.434003260182823"><ele>263.0</ele><time>2026-04-11T04:16:55Z</time></trkpt><trkpt lat="43.358992281649805" lon="11.433888061712098"><ele>263.0</ele><time>2026-04-11T04:16:56Z</time></trkpt><trkpt lat="43.3589770767857" lon="11.43377026213996"><ele>263.0</ele><time>2026-04-11T04:16:57Z</time></trkpt><trkpt lat="43.358959812968074" lon="11.433650511181918"><ele>263.0</ele><time>2026-04-11T04:16:58Z</time></trkpt><trkpt lat="43.358943123652" lon="11.433528314804457"><ele>263.0</ele><time>2026-04-11T04:16:59Z</time></trkpt><trkpt lat="43.35891778779588" lon="11.43340717003927"><ele>263.0</ele><time>2026-04-11T04:17:00Z</time></trkpt><trkpt lat="43.35889788707309" lon="11.433284950133462"><ele>263.0</ele><time>2026-04-11T04:17:01Z</time></trkpt><trkpt lat="43.35885698459645" lon="11.43303741278604"><ele>263.0</ele><time>2026-04-11T04:17:03Z</time></trkpt><trkpt lat="43.35885200996278" lon="11.432905837995163"><ele>263.0</ele><time>2026-04-11T04:17:04Z</time></trkpt><trkpt lat="43.35884403565858" lon="11.432765751977374"><ele>263.0</ele><time>2026-04-11T04:17:05Z</time></trkpt><trkpt lat="43.35884630661403" lon="11.43263558709398"><ele>263.0</ele><time>2026-04-11T04:17:06Z</time></trkpt><trkpt lat="43.35885381169165" lon="11.432499951258647"><ele>263.0</ele><time>2026-04-11T04:17:07Z</time></trkpt><trkpt lat="43.358851923534516" lon="11.432367665219948"><ele>263.0</ele><time>2026-04-11T04:17:08Z</time></trkpt><trkpt lat="43.35886988522467" lon="11.432236136997723"><ele>263.0</ele><time>2026-04-11T04:17:09Z</time></trkpt><trkpt lat="43.358891817132786" lon="11.432102427237856"><ele>262.6</ele><time>2026-04-11T04:17:10Z</time></trkpt><trkpt lat="43.35891798037922" lon="11.431974403656561"><ele>262.20000000000005</ele><time>2026-04-11T04:17:11Z</time></trkpt><trkpt lat="43.358949941287335" lon="11.43185328776298"><ele>261.8</ele><time>2026-04-11T04:17:12Z</time></trkpt><trkpt lat="43.3589751388888" lon="11.431730136238514"><ele>261.40000000000003</ele><time>2026-04-11T04:17:13Z</time></trkpt><trkpt lat="43.35899944691373" lon="11.431608939153088"><ele>261.0</ele><time>2026-04-11T04:17:14Z</time></trkpt><trkpt lat="43.359029735287756" lon="11.431493053816473"><ele>261.0</ele><time>2026-04-11T04:17:15Z</time></trkpt><trkpt lat="43.35905659167274" lon="11.431360301808335"><ele>261.0</ele><time>2026-04-11T04:17:16Z</time></trkpt><trkpt lat="43.35907759226919" lon="11.431237699575938"><ele>261.0</ele><time>2026-04-11T04:17:17Z</time></trkpt><trkpt lat="43.3591004642078" lon="11.431120818650612"><ele>261.0</ele><time>2026-04-11T04:17:18Z</time></trkpt><trkpt lat="43.359126405251295" lon="11.431001089590149"><ele>261.0</ele><time>2026-04-11T04:17:19Z</time></trkpt><trkpt lat="43.35914319195593" lon="11.430882930374837"><ele>261.75</ele><time>2026-04-11T04:17:20Z</time></trkpt><trkpt lat="43.359164874932304" lon="11.430761952967972"><ele>262.5</ele><time>2026-04-11T04:17:21Z</time></trkpt><trkpt lat="43.35920092906451" lon="11.430633833029594"><ele>263.25</ele><time>2026-04-11T04:17:22Z</time></trkpt><trkpt lat="43.35921576269368" lon="11.430373660960331"><ele>264.0</ele><time>2026-04-11T04:17:24Z</time></trkpt><trkpt lat="43.35921177556567" lon="11.430238143586475"><ele>264.2</ele><time>2026-04-11T04:17:25Z</time></trkpt><trkpt lat="43.359210657552076" lon="11.430106680900165"><ele>264.4</ele><time>2026-04-11T04:17:26Z</time></trkpt><trkpt lat="43.359205563944194" lon="11.429974848261935"><ele>264.6</ele><time>2026-04-11T04:17:27Z</time></trkpt><trkpt lat="43.35919181360661" lon="11.429832658776247"><ele>264.8</ele><time>2026-04-11T04:17:28Z</time></trkpt><trkpt lat="43.35917856090923" lon="11.42969265614982"><ele>265.0</ele><time>2026-04-11T04:17:29Z</time></trkpt><trkpt lat="43.359159107814214" lon="11.429555501855209"><ele>263.8</ele><time>2026-04-11T04:17:30Z</time></trkpt><trkpt lat="43.35913704853252" lon="11.42942006967339"><ele>262.6</ele><time>2026-04-11T04:17:31Z</time></trkpt><trkpt lat="43.359102625249406" lon="11.429284709568048"><ele>261.4</ele><time>2026-04-11T04:17:32Z</time></trkpt><trkpt lat="43.35906405516068" lon="11.42915545559813"><ele>260.2</ele><time>2026-04-11T04:17:33Z</time></trkpt><trkpt lat="43.35902324760096" lon="11.429029953437007"><ele>259.0</ele><time>2026-04-11T04:17:34Z</time></trkpt><trkpt lat="43.358981995714224" lon="11.428904389545995"><ele>257.8</ele><time>2026-04-11T04:17:35Z</time></trkpt><trkpt lat="43.358926476042136" lon="11.428787009534998"><ele>256.59999999999997</ele><time>2026-04-11T04:17:36Z</time></trkpt><trkpt lat="43.35885654559029" lon="11.428680495161819"><ele>255.4</ele><time>2026-04-11T04:17:37Z</time></trkpt><trkpt lat="43.35879118341939" lon="11.428575126632044"><ele>254.2</ele><time>2026-04-11T04:17:38Z</time></trkpt><trkpt lat="43.35872094646506" lon="11.428484473560665"><ele>253.0</ele><time>2026-04-11T04:17:39Z</time></trkpt><trkpt lat="43.358652726023855" lon="11.428391663521037"><ele>253.75</ele><time>2026-04-11T04:17:40Z</time></trkpt><trkpt lat="43.358586127211396" lon="11.428296438974707"><ele>254.5</ele><time>2026-04-11T04:17:41Z</time></trkpt><trkpt lat="43.35852291357536" lon="11.428205885471526"><ele>255.25</ele><time>2026-04-11T04:17:42Z</time></trkpt><trkpt lat="43.358459150267585" lon="11.428114449928765"><ele>256.0</ele><time>2026-04-11T04:17:43Z</time></trkpt><trkpt lat="43.358340997858754" lon="11.42792927315806"><ele>255.99999999999997</ele><time>2026-04-11T04:17:45Z</time></trkpt><trkpt lat="43.35829312972146" lon="11.427828482753142"><ele>256.0</ele><time>2026-04-11T04:17:46Z</time></trkpt><trkpt lat="43.35824697445167" lon="11.427735309768279"><ele>256.0</ele><time>2026-04-11T04:17:47Z</time></trkpt><trkpt lat="43.358204508874906" lon="11.42763619679401"><ele>256.0</ele><time>2026-04-11T04:17:48Z</time></trkpt><trkpt lat="43.35814978101862" lon="11.427549556268001"><ele>255.99999999999997</ele><time>2026-04-11T04:17:49Z</time></trkpt><trkpt lat="43.35809553218168" lon="11.427460808336065"><ele>256.0</ele><time>2026-04-11T04:17:50Z</time></trkpt><trkpt lat="43.358035449129865" lon="11.427375853692011"><ele>255.49999999999997</ele><time>2026-04-11T04:17:51Z</time></trkpt><trkpt lat="43.357972885992915" lon="11.427292841948539"><ele>255.0</ele><time>2026-04-11T04:17:52Z</time></trkpt><trkpt lat="43.357904287811664" lon="11.427219872203606"><ele>254.5</ele><time>2026-04-11T04:17:53Z</time></trkpt><trkpt lat="43.35783035263756" lon="11.427155508732183"><ele>254.0</ele><time>2026-04-11T04:17:54Z</time></trkpt><trkpt lat="43.357752076688506" lon="11.427095798131848"><ele>253.49999999999997</ele><time>2026-04-11T04:17:55Z</time></trkpt><trkpt lat="43.35767305336453" lon="11.427039683288106"><ele>253.0</ele><time>2026-04-11T04:17:56Z</time></trkpt><trkpt lat="43.35758623868176" lon="11.426991478430626"><ele>253.0</ele><time>2026-04-11T04:17:57Z</time></trkpt><trkpt lat="43.35749458827731" lon="11.426923035390633"><ele>253.0</ele><time>2026-04-11T04:17:58Z</time></trkpt><trkpt lat="43.357403929399325" lon="11.426864341852305"><ele>253.0</ele><time>2026-04-11T04:17:59Z</time></trkpt><trkpt lat="43.35731443879134" lon="11.426804296793687"><ele>253.0</ele><time>2026-04-11T04:18:00Z</time></trkpt><trkpt lat="43.35722389387473" lon="11.426748866115151"><ele>253.0</ele><time>2026-04-11T04:18:01Z</time></trkpt><trkpt lat="43.35712484603653" lon="11.426684438265166"><ele>253.75</ele><time>2026-04-11T04:18:02Z</time></trkpt><trkpt lat="43.357025158073384" lon="11.426622149347128"><ele>254.5</ele><time>2026-04-11T04:18:03Z</time></trkpt><trkpt lat="43.35692081664873" lon="11.426562189922528"><ele>255.25</ele><time>2026-04-11T04:18:04Z</time></trkpt><trkpt lat="43.35672245102346" lon="11.426414041078162"><ele>256.0</ele><time>2026-04-11T04:18:06Z</time></trkpt><trkpt lat="43.356620900272084" lon="11.426329244863618"><ele>253.5</ele><time>2026-04-11T04:18:07Z</time></trkpt><trkpt lat="43.356518400480134" lon="11.426232502419321"><ele>251.0</ele><time>2026-04-11T04:18:08Z</time></trkpt><trkpt lat="43.356426995426084" lon="11.426120950759387"><ele>248.5</ele><time>2026-04-11T04:18:09Z</time></trkpt><trkpt lat="43.35635219842564" lon="11.42599676952228"><ele>246.0</ele><time>2026-04-11T04:18:10Z</time></trkpt><trkpt lat="43.356269938520555" lon="11.425877698946081"><ele>246.0</ele><time>2026-04-11T04:18:11Z</time></trkpt><trkpt lat="43.356175944485834" lon="11.425746092828168"><ele>246.0</ele><time>2026-04-11T04:18:12Z</time></trkpt><trkpt lat="43.35606949766479" lon="11.425632512063693"><ele>246.0</ele><time>2026-04-11T04:18:13Z</time></trkpt><trkpt lat="43.35597867352035" lon="11.425509578353548"><ele>246.0</ele><time>2026-04-11T04:18:14Z</time></trkpt><trkpt lat="43.35588483042135" lon="11.425387109330305"><ele>244.5</ele><time>2026-04-11T04:18:15Z</time></trkpt><trkpt lat="43.35579433887299" lon="11.42526133618281"><ele>243.0</ele><time>2026-04-11T04:18:16Z</time></trkpt><trkpt lat="43.35570330593099" lon="11.42514290407887"><ele>241.5</ele><time>2026-04-11T04:18:17Z</time></trkpt><trkpt lat="43.35561219519524" lon="11.425019937650372"><ele>240.0</ele><time>2026-04-11T04:18:18Z</time></trkpt><trkpt lat="43.355523594408176" lon="11.42489803538321"><ele>240.0</ele><time>2026-04-11T04:18:19Z</time></trkpt><trkpt lat="43.35543501796339" lon="11.42477552180049"><ele>240.0</ele><time>2026-04-11T04:18:20Z</time></trkpt><trkpt lat="43.355353893842384" lon="11.42465536333552"><ele>240.0</ele><time>2026-04-11T04:18:21Z</time></trkpt><trkpt lat="43.35527256843226" lon="11.42453882244886"><ele>240.0</ele><time>2026-04-11T04:18:22Z</time></trkpt><trkpt lat="43.35518637448733" lon="11.424440587276383"><ele>239.0</ele><time>2026-04-11T04:18:23Z</time></trkpt><trkpt lat="43.35510666205097" lon="11.424343515444837"><ele>238.0</ele><time>2026-04-11T04:18:24Z</time></trkpt><trkpt lat="43.35504500504074" lon="11.424240317971464"><ele>237.0</ele><time>2026-04-11T04:18:25Z</time></trkpt><trkpt lat="43.35496560097681" lon="11.423983090905143"><ele>236.0</ele><time>2026-04-11T04:18:27Z</time></trkpt><trkpt lat="43.35497332727513" lon="11.423837045839186"><ele>235.20000000000002</ele><time>2026-04-11T04:18:28Z</time></trkpt><trkpt lat="43.35500246803181" lon="11.423693275307349"><ele>234.40000000000003</ele><time>2026-04-11T04:18:29Z</time></trkpt><trkpt lat="43.35503689798571" lon="11.423554198496161"><ele>233.6</ele><time>2026-04-11T04:18:30Z</time></trkpt><trkpt lat="43.3550754800642" lon="11.423410996421044"><ele>232.8</ele><time>2026-04-11T04:18:31Z</time></trkpt><trkpt lat="43.355114844175695" lon="11.423260469647738"><ele>232.0</ele><time>2026-04-11T04:18:32Z</time></trkpt><trkpt lat="43.3551542244874" lon="11.423108342656057"><ele>230.25</ele><time>2026-04-11T04:18:33Z</time></trkpt><trkpt lat="43.35518343486336" lon="11.422942039283063"><ele>228.5</ele><time>2026-04-11T04:18:34Z</time></trkpt><trkpt lat="43.35521555907573" lon="11.42278164826393"><ele>226.75</ele><time>2026-04-11T04:18:35Z</time></trkpt><trkpt lat="43.3552475608133" lon="11.422618381694413"><ele>225.0</ele><time>2026-04-11T04:18:36Z</time></trkpt><trkpt lat="43.35527707913213" lon="11.422454143529992"><ele>225.0</ele><time>2026-04-11T04:18:37Z</time></trkpt><trkpt lat="43.3552989610277" lon="11.42228813923525"><ele>225.0</ele><time>2026-04-11T04:18:38Z</time></trkpt><trkpt lat="43.35532081881639" lon="11.42211751205142"><ele>225.0</ele><time>2026-04-11T04:18:39Z</time></trkpt><trkpt lat="43.35533613882645" lon="11.42194589871235"><ele>225.0</ele><time>2026-04-11T04:18:40Z</time></trkpt><trkpt lat="43.35535522279725" lon="11.421768565350137"><ele>223.25</ele><time>2026-04-11T04:18:41Z</time></trkpt><trkpt lat="43.35536966619924" lon="11.421593666451376"><ele>221.5</ele><time>2026-04-11T04:18:42Z</time></trkpt><trkpt lat="43.35538444227039" lon="11.421421850899195"><ele>219.75</ele><time>2026-04-11T04:18:43Z</time></trkpt><trkpt lat="43.355406399747224" lon="11.421251684352125"><ele>218.0</ele><time>2026-04-11T04:18:44Z</time></trkpt><trkpt lat="43.35542938836404" lon="11.421083054577355"><ele>217.66666666666669</ele><time>2026-04-11T04:18:45Z</time></trkpt><trkpt lat="43.35545561944124" lon="11.420915576666268"><ele>217.33333333333331</ele><time>2026-04-11T04:18:46Z</time></trkpt><trkpt lat="43.35551972336038" lon="11.420594891343715"><ele>217.0</ele><time>2026-04-11T04:18:48Z</time></trkpt><trkpt lat="43.35554805967012" lon="11.420437033493409"><ele>217.0</ele><time>2026-04-11T04:18:49Z</time></trkpt><trkpt lat="43.35558267823595" lon="11.42028175460967"><ele>217.0</ele><time>2026-04-11T04:18:50Z</time></trkpt><trkpt lat="43.355606699166955" lon="11.420132250138575"><ele>217.0</ele><time>2026-04-11T04:18:51Z</time></trkpt><trkpt lat="43.355637490678596" lon="11.419983773621693"><ele>217.0</ele><time>2026-04-11T04:18:52Z</time></trkpt><trkpt lat="43.35567378729698" lon="11.419842113914616"><ele>217.0</ele><time>2026-04-11T04:18:53Z</time></trkpt><trkpt lat="43.35571581208711" lon="11.419701944252722"><ele>217.0</ele><time>2026-04-11T04:18:54Z</time></trkpt><trkpt lat="43.35575855072631" lon="11.41957145772923"><ele>217.0</ele><time>2026-04-11T04:18:55Z</time></trkpt><trkpt lat="43.355807187482114" lon="11.419444844092281"><ele>217.0</ele><time>2026-04-11T04:18:56Z</time></trkpt><trkpt lat="43.35586282579711" lon="11.419327093892964"><ele>217.0</ele><time>2026-04-11T04:18:57Z</time></trkpt><trkpt lat="43.3559136416614" lon="11.419210561055598"><ele>216.83333333333331</ele><time>2026-04-11T04:18:58Z</time></trkpt><trkpt lat="43.355965141585045" lon="11.419099589358476"><ele>216.66666666666666</ele><time>2026-04-11T04:18:59Z</time></trkpt><trkpt lat="43.356017852297924" lon="11.418992306638238"><ele>216.5</ele><time>2026-04-11T04:19:00Z</time></trkpt><trkpt lat="43.35607141309061" lon="11.418890570722423"><ele>216.33333333333331</ele><time>2026-04-11T04:19:01Z</time></trkpt><trkpt lat="43.35612107700185" lon="11.418791131389979"><ele>216.16666666666666</ele><time>2026-04-11T04:19:02Z</time></trkpt><trkpt lat="43.35616323062153" lon="11.418697908054979"><ele>216.0</ele><time>2026-04-11T04:19:03Z</time></trkpt><trkpt lat="43.356206622108736" lon="11.418602702072464"><ele>216.25</ele><time>2026-04-11T04:19:04Z</time></trkpt><trkpt lat="43.356251018577225" lon="11.418510479717462"><ele>216.5</ele><time>2026-04-11T04:19:05Z</time></trkpt><trkpt lat="43.35632004091484" lon="11.41843403412275"><ele>216.75</ele><time>2026-04-11T04:19:06Z</time></trkpt><trkpt lat="43.35637724413662" lon="11.418255003859656"><ele>217.0</ele><time>2026-04-11T04:19:08Z</time></trkpt><trkpt lat="43.35646193963793" lon="11.418048015222173"><ele>217.33333333333331</ele><time>2026-04-11T04:19:10Z</time></trkpt><trkpt lat="43.356502041588584" lon="11.417971767128353"><ele>217.66666666666666</ele><time>2026-04-11T04:19:11Z</time></trkpt><trkpt lat="43.356547230458986" lon="11.417892212372868"><ele>218.0</ele><time>2026-04-11T04:19:12Z</time></trkpt><trkpt lat="43.356591682828935" lon="11.417807543780247"><ele>218.33333333333331</ele><time>2026-04-11T04:19:13Z</time></trkpt><trkpt lat="43.35663217173404" lon="11.41773023110928"><ele>218.66666666666666</ele><time>2026-04-11T04:19:14Z</time></trkpt><trkpt lat="43.35667898457754" lon="11.41764341126093"><ele>219.0</ele><time>2026-04-11T04:19:15Z</time></trkpt><trkpt lat="43.35673331569164" lon="11.41753208236876"><ele>219.0</ele><time>2026-04-11T04:19:17Z</time></trkpt><trkpt lat="43.35678466925495" lon="11.417382158968989"><ele>218.99999999999997</ele><time>2026-04-11T04:19:19Z</time></trkpt><trkpt lat="43.35682889763645" lon="11.417235727868448"><ele>218.99999999999997</ele><time>2026-04-11T04:19:21Z</time></trkpt><trkpt lat="43.356861839785026" lon="11.417110645874443"><ele>219.0</ele><time>2026-04-11T04:19:23Z</time></trkpt><trkpt lat="43.35688121181874" lon="11.416984166600828"><ele>219.0</ele><time>2026-04-11T04:19:25Z</time></trkpt><trkpt lat="43.356894411784914" lon="11.41688753031364"><ele>219.0</ele><time>2026-04-11T04:19:27Z</time></trkpt><trkpt lat="43.35687968902752" lon="11.416776478322909"><ele>219.0</ele><time>2026-04-11T04:19:30Z</time></trkpt><trkpt lat="43.356814324733946" lon="11.416582840646182"><ele>219.0</ele><time>2026-04-11T04:19:34Z</time></trkpt><trkpt lat="43.356704614015655" lon="11.416337422118257"><ele>219.0</ele><time>2026-04-11T04:19:36Z</time></trkpt><trkpt lat="43.35663657344412" lon="11.416214588890117"><ele>219.39999999999998</ele><time>2026-04-11T04:19:38Z</time></trkpt><trkpt lat="43.35656035722591" lon="11.416103747930075"><ele>219.79999999999998</ele><time>2026-04-11T04:19:40Z</time></trkpt><trkpt lat="43.35649974554634" lon="11.415985038925532"><ele>220.20000000000002</ele><time>2026-04-11T04:19:42Z</time></trkpt><trkpt lat="43.35642806105416" lon="11.415877088693955"><ele>220.60000000000002</ele><time>2026-04-11T04:19:44Z</time></trkpt><trkpt lat="43.356374913154305" lon="11.415749484765227"><ele>221.0</ele><time>2026-04-11T04:19:46Z</time></trkpt><trkpt lat="43.35637057307615" lon="11.415604918971837"><ele>221.00000000000003</ele><time>2026-04-11T04:19:48Z</time></trkpt><trkpt lat="43.356386410681736" lon="11.415492708764111"><ele>221.0</ele><time>2026-04-11T04:19:50Z</time></trkpt><trkpt lat="43.356410783429816" lon="11.415387947986925"><ele>221.0</ele><time>2026-04-11T04:19:52Z</time></trkpt><trkpt lat="43.356438664376576" lon="11.415203692523887"><ele>221.0</ele><time>2026-04-11T04:19:56Z</time></trkpt><trkpt lat="43.356457755846385" lon="11.4150997543045"><ele>221.00000000000003</ele><time>2026-04-11T04:19:58Z</time></trkpt><trkpt lat="43.356472665802684" lon="11.415011493133647"><ele>221.0</ele><time>2026-04-11T04:20:00Z</time></trkpt><trkpt lat="43.35649642894959" lon="11.41491245026833"><ele>222.00000000000003</ele><time>2026-04-11T04:20:02Z</time></trkpt><trkpt lat="43.35651220364177" lon="11.414825693493354"><ele>223.0</ele><time>2026-04-11T04:20:05Z</time></trkpt><trkpt lat="43.35653389477802" lon="11.41468582537762"><ele>224.0</ele><time>2026-04-11T04:20:07Z</time></trkpt><trkpt lat="43.356559039668944" lon="11.414584458158643"><ele>225.0</ele><time>2026-04-11T04:20:09Z</time></trkpt><trkpt lat="43.35658523235883" lon="11.414488500449105"><ele>226.00000000000003</ele><time>2026-04-11T04:20:11Z</time></trkpt><trkpt lat="43.35661056664494" lon="11.414388409496596"><ele>227.0</ele><time>2026-04-11T04:20:13Z</time></trkpt><trkpt lat="43.356658676607886" lon="11.41420211909488"><ele>227.66666666666669</ele><time>2026-04-11T04:20:17Z</time></trkpt><trkpt lat="43.35668592945118" lon="11.41411048924344"><ele>228.33333333333334</ele><time>2026-04-11T04:20:19Z</time></trkpt><trkpt lat="43.35671809643055" lon="11.414017987800618"><ele>229.0</ele><time>2026-04-11T04:20:21Z</time></trkpt><trkpt lat="43.35673892913795" lon="11.413927066925108"><ele>229.66666666666669</ele><time>2026-04-11T04:20:23Z</time></trkpt><trkpt lat="43.35676618882417" lon="11.413796412290635"><ele>230.33333333333334</ele><time>2026-04-11T04:20:26Z</time></trkpt><trkpt lat="43.35678365856053" lon="11.413711991127728"><ele>231.0</ele><time>2026-04-11T04:20:28Z</time></trkpt><trkpt lat="43.35681919086945" lon="11.41359464841695"><ele>231.5</ele><time>2026-04-11T04:20:31Z</time></trkpt><trkpt lat="43.35684818106643" lon="11.413513692121992"><ele>232.0</ele><time>2026-04-11T04:20:33Z</time></trkpt><trkpt lat="43.356862726948876" lon="11.413425495586647"><ele>232.5</ele><time>2026-04-11T04:20:35Z</time></trkpt><trkpt lat="43.356927983436" lon="11.413229996134463"><ele>233.0</ele><time>2026-04-11T04:20:40Z</time></trkpt><trkpt lat="43.356960493043665" lon="11.413149121673847"><ele>233.5</ele><time>2026-04-11T04:20:42Z</time></trkpt><trkpt lat="43.3569726028059" lon="11.413059592716804"><ele>234.0</ele><time>2026-04-11T04:20:44Z</time></trkpt><trkpt lat="43.35701714035003" lon="11.412951121729673"><ele>234.6</ele><time>2026-04-11T04:20:47Z</time></trkpt><trkpt lat="43.357052354884246" lon="11.41287110893033"><ele>235.2</ele><time>2026-04-11T04:20:49Z</time></trkpt><trkpt lat="43.35709862552803" lon="11.412768251581749"><ele>235.79999999999998</ele><time>2026-04-11T04:20:52Z</time></trkpt><trkpt lat="43.35712224977663" lon="11.412682312681001"><ele>236.39999999999998</ele><time>2026-04-11T04:20:54Z</time></trkpt><trkpt lat="43.35718363268967" lon="11.412588838637438"><ele>237.0</ele><time>2026-04-11T04:20:57Z</time></trkpt><trkpt lat="43.35729852615668" lon="11.412452771133964"><ele>237.83333333333334</ele><time>2026-04-11T04:21:02Z</time></trkpt><trkpt lat="43.35734754535642" lon="11.41239528040271"><ele>238.66666666666669</ele><time>2026-04-11T04:21:04Z</time></trkpt><trkpt lat="43.3574302909994" lon="11.41235364843048"><ele>239.5</ele><time>2026-04-11T04:21:07Z</time></trkpt><trkpt lat="43.357491377246454" lon="11.412311242724511"><ele>240.33333333333334</ele><time>2026-04-11T04:21:09Z</time></trkpt><trkpt lat="43.35758471878437" lon="11.412291878070533"><ele>241.16666666666669</ele><time>2026-04-11T04:21:12Z</time></trkpt><trkpt lat="43.35767343808797" lon="11.41230040392205"><ele>242.0</ele><time>2026-04-11T04:21:15Z</time></trkpt><trkpt lat="43.35776627673427" lon="11.41232242407868"><ele>242.0</ele><time>2026-04-11T04:21:19Z</time></trkpt><trkpt lat="43.357923061530414" lon="11.412359366336025"><ele>242.0</ele><time>2026-04-11T04:21:26Z</time></trkpt><trkpt lat="43.35800470560216" lon="11.412381438142065"><ele>242.0</ele><time>2026-04-11T04:21:28Z</time></trkpt><trkpt lat="43.358080412237676" lon="11.412397333532862"><ele>242.0</ele><time>2026-04-11T04:21:30Z</time></trkpt><trkpt lat="43.35815443972922" lon="11.412408854621312"><ele>242.0</ele><time>2026-04-11T04:21:32Z</time></trkpt><trkpt lat="43.35824710994929" lon="11.412406366028574"><ele>243.0</ele><time>2026-04-11T04:21:35Z</time></trkpt><trkpt lat="43.358311441395706" lon="11.412412186397464"><ele>244.0</ele><time>2026-04-11T04:21:37Z</time></trkpt><trkpt lat="43.358406210233746" lon="11.412403864479167"><ele>245.0</ele><time>2026-04-11T04:21:40Z</time></trkpt><trkpt lat="43.35858409863194" lon="11.412387288756591"><ele>246.0</ele><time>2026-04-11T04:21:46Z</time></trkpt><trkpt lat="43.35864822498075" lon="11.412366082153607"><ele>247.0</ele><time>2026-04-11T04:21:48Z</time></trkpt><trkpt lat="43.358730626780655" lon="11.412339572981297"><ele>247.0</ele><time>2026-04-11T04:21:51Z</time></trkpt><trkpt lat="43.358812739206435" lon="11.412277862532001"><ele>247.0</ele><time>2026-04-11T04:21:54Z</time></trkpt><trkpt lat="43.358887856015066" lon="11.412232064654573"><ele>247.0</ele><time>2026-04-11T04:21:57Z</time></trkpt><trkpt lat="43.35894640076105" lon="11.412147748725243"><ele>247.0</ele><time>2026-04-11T04:22:00Z</time></trkpt><trkpt lat="43.358983630999525" lon="11.412043992617665"><ele>247.0</ele><time>2026-04-11T04:22:03Z</time></trkpt><trkpt lat="43.35898883904137" lon="11.411799256572598"><ele>248.83333333333331</ele><time>2026-04-11T04:22:09Z</time></trkpt><trkpt lat="43.358983099402884" lon="11.411683625961514"><ele>250.66666666666666</ele><time>2026-04-11T04:22:12Z</time></trkpt><trkpt lat="43.3589829203533" lon="11.411563325340085"><ele>252.5</ele><time>2026-04-11T04:22:15Z</time></trkpt><trkpt lat="43.358999361787944" lon="11.41144955875848"><ele>254.33333333333331</ele><time>2026-04-11T04:22:18Z</time></trkpt><trkpt lat="43.35901831446698" lon="11.411331675893878"><ele>256.1666666666667</ele><time>2026-04-11T04:22:21Z</time></trkpt><trkpt lat="43.35904416014266" lon="11.41121223990113"><ele>258.0</ele><time>2026-04-11T04:22:24Z</time></trkpt><trkpt lat="43.359121083038566" lon="11.411015519030265"><ele>259.0</ele><time>2026-04-11T04:22:30Z</time></trkpt><trkpt lat="43.35918807930837" lon="11.410944361059146"><ele>260.0</ele><time>2026-04-11T04:22:33Z</time></trkpt><trkpt lat="43.359264608671275" lon="11.410910824171085"><ele>261.0</ele><time>2026-04-11T04:22:36Z</time></trkpt><trkpt lat="43.35934567183827" lon="11.41093499956936"><ele>262.0</ele><time>2026-04-11T04:22:39Z</time></trkpt><trkpt lat="43.35942088283099" lon="11.410988387130509"><ele>263.0</ele><time>2026-04-11T04:22:42Z</time></trkpt><trkpt lat="43.35948650959176" lon="11.411076351781595"><ele>264.0</ele><time>2026-04-11T04:22:45Z</time></trkpt><trkpt lat="43.35957283793194" lon="11.411265469306416"><ele>263.1428571428571</ele><time>2026-04-11T04:22:50Z</time></trkpt><trkpt lat="43.359584918494015" lon="11.411357376110594"><ele>262.2857142857143</ele><time>2026-04-11T04:22:52Z</time></trkpt><trkpt lat="43.35960628429529" lon="11.411439995235211"><ele>261.42857142857144</ele><time>2026-04-11T04:22:54Z</time></trkpt><trkpt lat="43.359621154458395" lon="11.411563872365653"><ele>260.57142857142856</ele><time>2026-04-11T04:22:57Z</time></trkpt><trkpt lat="43.359636262572614" lon="11.411649747447665"><ele>259.7142857142857</ele><time>2026-04-11T04:22:59Z</time></trkpt><trkpt lat="43.35965053145569" lon="11.411758509008989"><ele>258.85714285714283</ele><time>2026-04-11T04:23:01Z</time></trkpt><trkpt lat="43.35967511272796" lon="11.411849567906152"><ele>258.0</ele><time>2026-04-11T04:23:03Z</time></trkpt><trkpt lat="43.35972080010341" lon="11.411925750715941"><ele>260.4</ele><time>2026-04-11T04:23:05Z</time></trkpt><trkpt lat="43.35976950513049" lon="11.411988100409499"><ele>262.8</ele><time>2026-04-11T04:23:07Z</time></trkpt><trkpt lat="43.35991232798604" lon="11.412035494644941"><ele>265.2</ele><time>2026-04-11T04:23:11Z</time></trkpt><trkpt lat="43.359975180767584" lon="11.411987157557606"><ele>267.6</ele><time>2026-04-11T04:23:13Z</time></trkpt><trkpt lat="43.359987140061364" lon="11.411860177725007"><ele>270.0</ele><time>2026-04-11T04:23:16Z</time></trkpt><trkpt lat="43.359966799642024" lon="11.411746493766996"><ele>270.0</ele><time>2026-04-11T04:23:19Z</time></trkpt><trkpt lat="43.35992753272525" lon="11.411644124869698"><ele>270.0</ele><time>2026-04-11T04:23:22Z</time></trkpt><trkpt lat="43.359931013679684" lon="11.411526054959825"><ele>270.0</ele><time>2026-04-11T04:23:25Z</time></trkpt><trkpt lat="43.35993626363443" lon="11.411410437495434"><ele>270.0</ele><time>2026-04-11T04:23:28Z</time></trkpt><trkpt lat="43.35999557200165" lon="11.41120104659493"><ele>270.0</ele><time>2026-04-11T04:23:34Z</time></trkpt><trkpt lat="43.36003836851859" lon="11.411116919421216"><ele>270.0</ele><time>2026-04-11T04:23:37Z</time></trkpt><trkpt lat="43.360094108632474" lon="11.411047134514503"><ele>270.0</ele><time>2026-04-11T04:23:40Z</time></trkpt><trkpt lat="43.36017137527472" lon="11.410995905755401"><ele>270.0</ele><time>2026-04-11T04:23:43Z</time></trkpt><trkpt lat="43.36024322308304" lon="11.410955192252878"><ele>270.0</ele><time>2026-04-11T04:23:46Z</time></trkpt><trkpt lat="43.360323276736466" lon="11.410922194269203"><ele>270.0</ele><time>2026-04-11T04:23:49Z</time></trkpt><trkpt lat="43.36046407980125" lon="11.410854480920017"><ele>271.3333333333333</ele><time>2026-04-11T04:23:55Z</time></trkpt><trkpt lat="43.36053954750008" lon="11.410820926428984"><ele>272.6666666666667</ele><time>2026-04-11T04:23:58Z</time></trkpt><trkpt lat="43.36061815792204" lon="11.410795099387858"><ele>274.0</ele><time>2026-04-11T04:24:01Z</time></trkpt><trkpt lat="43.36068627978193" lon="11.410752545997923"><ele>275.33333333333337</ele><time>2026-04-11T04:24:04Z</time></trkpt><trkpt lat="43.36074502664526" lon="11.410702998222847"><ele>276.6666666666667</ele><time>2026-04-11T04:24:07Z</time></trkpt><trkpt lat="43.360799738254464" lon="11.410622804164765"><ele>278.0</ele><time>2026-04-11T04:24:10Z</time></trkpt><trkpt lat="43.36087073838465" lon="11.410431533223628"><ele>278.5</ele><time>2026-04-11T04:24:16Z</time></trkpt><trkpt lat="43.360894052179056" lon="11.410309206396523"><ele>279.0</ele><time>2026-04-11T04:24:19Z</time></trkpt><trkpt lat="43.36089334490893" lon="11.410190184661598"><ele>279.5</ele><time>2026-04-11T04:24:22Z</time></trkpt><trkpt lat="43.36087484404728" lon="11.41007287774066"><ele>280.0</ele><time>2026-04-11T04:24:25Z</time></trkpt><trkpt lat="43.36084619166108" lon="11.409971047994684"><ele>280.5</ele><time>2026-04-11T04:24:28Z</time></trkpt><trkpt lat="43.360807067087464" lon="11.409873643086222"><ele>281.0</ele><time>2026-04-11T04:24:31Z</time></trkpt><trkpt lat="43.36074198070445" lon="11.409685737801375"><ele>280.83333333333337</ele><time>2026-04-11T04:24:37Z</time></trkpt><trkpt lat="43.36071486781018" lon="11.409603552616835"><ele>280.6666666666667</ele><time>2026-04-11T04:24:40Z</time></trkpt><trkpt lat="43.36067492659193" lon="11.409500930400585"><ele>280.5</ele><time>2026-04-11T04:24:42Z</time></trkpt><trkpt lat="43.360627383096855" lon="11.409400131442787"><ele>280.3333333333333</ele><time>2026-04-11T04:24:45Z</time></trkpt><trkpt lat="43.360579503330214" lon="11.409302053554772"><ele>280.16666666666663</ele><time>2026-04-11T04:24:48Z</time></trkpt><trkpt lat="43.36054514120711" lon="11.409224624984182"><ele>280.0</ele><time>2026-04-11T04:24:50Z</time></trkpt><trkpt lat="43.36049437354777" lon="11.409125625610672"><ele>280.0</ele><time>2026-04-11T04:24:53Z</time></trkpt><trkpt lat="43.36039402884202" lon="11.408947075575059"><ele>280.0</ele><time>2026-04-11T04:24:59Z</time></trkpt><trkpt lat="43.36032091122856" lon="11.408851348946682"><ele>280.0</ele><time>2026-04-11T04:25:03Z</time></trkpt><trkpt lat="43.360272889201696" lon="11.40878386486271"><ele>280.0</ele><time>2026-04-11T04:25:06Z</time></trkpt><trkpt lat="43.36021030249787" lon="11.408744829282162"><ele>280.0</ele><time>2026-04-11T04:25:08Z</time></trkpt><trkpt lat="43.360141439926906" lon="11.408670030939385"><ele>281.8</ele><time>2026-04-11T04:25:11Z</time></trkpt><trkpt lat="43.36005818149588" lon="11.408601962458578"><ele>283.6</ele><time>2026-04-11T04:25:13Z</time></trkpt><trkpt lat="43.35998891101771" lon="11.408552935414571"><ele>285.4</ele><time>2026-04-11T04:25:15Z</time></trkpt><trkpt lat="43.35986381294897" lon="11.40846353678965"><ele>287.2</ele><time>2026-04-11T04:25:19Z</time></trkpt><trkpt lat="43.3598014609249" lon="11.40842229917845"><ele>289.0</ele><time>2026-04-11T04:25:21Z</time></trkpt><trkpt lat="43.35973951073318" lon="11.408382032464983"><ele>289.0</ele><time>2026-04-11T04:25:23Z</time></trkpt><trkpt lat="43.35965897684728" lon="11.408319943793856"><ele>289.0</ele><time>2026-04-11T04:25:26Z</time></trkpt><trkpt lat="43.359603822059604" lon="11.408268530013547"><ele>289.0</ele><time>2026-04-11T04:25:28Z</time></trkpt><trkpt lat="43.359553944863286" lon="11.408208074931434"><ele>289.0</ele><time>2026-04-11T04:25:30Z</time></trkpt><trkpt lat="43.35950534750524" lon="11.408113143253077"><ele>289.0</ele><time>2026-04-11T04:25:33Z</time></trkpt><trkpt lat="43.359481397844405" lon="11.407998684046696"><ele>289.0</ele><time>2026-04-11T04:25:37Z</time></trkpt><trkpt lat="43.35950777671288" lon="11.407764885081518"><ele>290.2</ele><time>2026-04-11T04:25:45Z</time></trkpt><trkpt lat="43.35954291873998" lon="11.40766850109288"><ele>291.4</ele><time>2026-04-11T04:25:48Z</time></trkpt><trkpt lat="43.35958835825063" lon="11.407586728281334"><ele>292.6</ele><time>2026-04-11T04:25:51Z</time></trkpt><trkpt lat="43.35965970296199" lon="11.407517453931522"><ele>293.8</ele><time>2026-04-11T04:25:55Z</time></trkpt><trkpt lat="43.359734053064926" lon="11.407455412731778"><ele>295.0</ele><time>2026-04-11T04:25:58Z</time></trkpt><trkpt lat="43.35985589760641" lon="11.407411047694872"><ele>295.00000000000006</ele><time>2026-04-11T04:26:02Z</time></trkpt><trkpt lat="43.35994797731317" lon="11.407411474912454"><ele>295.0</ele><time>2026-04-11T04:26:05Z</time></trkpt><trkpt lat="43.36004048084311" lon="11.407428405865687"><ele>295.0</ele><time>2026-04-11T04:26:08Z</time></trkpt><trkpt lat="43.36010594453704" lon="11.407439716335334"><ele>295.0</ele><time>2026-04-11T04:26:10Z</time></trkpt><trkpt lat="43.360170025735925" lon="11.407448918008592"><ele>295.0</ele><time>2026-04-11T04:26:12Z</time></trkpt><trkpt lat="43.360234749201446" lon="11.407463206547922"><ele>295.00000000000006</ele><time>2026-04-11T04:26:14Z</time></trkpt><trkpt lat="43.36030103507619" lon="11.407466655449262"><ele>295.0</ele><time>2026-04-11T04:26:16Z</time></trkpt><trkpt lat="43.36036617964939" lon="11.407481598405452"><ele>295.0</ele><time>2026-04-11T04:26:18Z</time></trkpt><trkpt lat="43.360430282695454" lon="11.407489455765479"><ele>295.0</ele><time>2026-04-11T04:26:20Z</time></trkpt><trkpt lat="43.36056346851363" lon="11.407502773044447"><ele>295.0</ele><time>2026-04-11T04:26:24Z</time></trkpt><trkpt lat="43.36065923050494" lon="11.40752113615753"><ele>295.0</ele><time>2026-04-11T04:26:26Z</time></trkpt><trkpt lat="43.360729557063756" lon="11.407527207161818"><ele>295.0</ele><time>2026-04-11T04:26:28Z</time></trkpt><trkpt lat="43.360800808896485" lon="11.407532424301264"><ele>295.0</ele><time>2026-04-11T04:26:30Z</time></trkpt><trkpt lat="43.36087949992901" lon="11.407532160553576"><ele>295.6</ele><time>2026-04-11T04:26:33Z</time></trkpt><trkpt lat="43.3609457966074" lon="11.407536347588659"><ele>296.2</ele><time>2026-04-11T04:26:35Z</time></trkpt><trkpt lat="43.3610106019316" lon="11.407528321415333"><ele>296.8</ele><time>2026-04-11T04:26:38Z</time></trkpt><trkpt lat="43.36107401709803" lon="11.407526359176286"><ele>297.4</ele><time>2026-04-11T04:26:40Z</time></trkpt><trkpt lat="43.361160820318155" lon="11.407511986097877"><ele>298.0</ele><time>2026-04-11T04:26:43Z</time></trkpt><trkpt lat="43.3613422058129" lon="11.407488041183393"><ele>299.1428571428571</ele><time>2026-04-11T04:26:49Z</time></trkpt><trkpt lat="43.36142036784957" lon="11.407464811314629"><ele>300.2857142857143</ele><time>2026-04-11T04:26:51Z</time></trkpt><trkpt lat="43.361493491907055" lon="11.407454914191872"><ele>301.42857142857144</ele><time>2026-04-11T04:26:53Z</time></trkpt><trkpt lat="43.36155946498274" lon="11.407440698895707"><ele>302.57142857142856</ele><time>2026-04-11T04:26:55Z</time></trkpt><trkpt lat="43.36162370861549" lon="11.40742729389733"><ele>303.7142857142857</ele><time>2026-04-11T04:26:57Z</time></trkpt><trkpt lat="43.361686200731796" lon="11.407409731536376"><ele>304.85714285714283</ele><time>2026-04-11T04:26:59Z</time></trkpt><trkpt lat="43.36174934221208" lon="11.407391467251202"><ele>306.0</ele><time>2026-04-11T04:27:01Z</time></trkpt><trkpt lat="43.3618407305171" lon="11.407369299520756"><ele>306.0</ele><time>2026-04-11T04:27:04Z</time></trkpt><trkpt lat="43.36202233615672" lon="11.407348716917882"><ele>306.0</ele><time>2026-04-11T04:27:10Z</time></trkpt><trkpt lat="43.36210377739315" lon="11.40732336419566"><ele>306.0</ele><time>2026-04-11T04:27:13Z</time></trkpt><trkpt lat="43.362186974505825" lon="11.407292946054527"><ele>306.0</ele><time>2026-04-11T04:27:16Z</time></trkpt><trkpt lat="43.36226404492346" lon="11.40727201384691"><ele>306.0</ele><time>2026-04-11T04:27:19Z</time></trkpt><trkpt lat="43.362325100727055" lon="11.407237421369226"><ele>307.0</ele><time>2026-04-11T04:27:22Z</time></trkpt><trkpt lat="43.362400124608634" lon="11.407212024657735"><ele>308.0</ele><time>2026-04-11T04:27:25Z</time></trkpt><trkpt lat="43.36254885823765" lon="11.40717509897929"><ele>309.0</ele><time>2026-04-11T04:27:31Z</time></trkpt><trkpt lat="43.36262590874348" lon="11.40714264599367"><ele>310.0</ele><time>2026-04-11T04:27:34Z</time></trkpt><trkpt lat="43.36269975314764" lon="11.407115100013478"><ele>311.0</ele><time>2026-04-11T04:27:37Z</time></trkpt><trkpt lat="43.36276245556463" lon="11.4070684342248"><ele>311.0</ele><time>2026-04-11T04:27:41Z</time></trkpt><trkpt lat="43.3628343993792" lon="11.407019109077893"><ele>311.0</ele><time>2026-04-11T04:27:44Z</time></trkpt><trkpt lat="43.362919628677" lon="11.406997001572936"><ele>311.0</ele><time>2026-04-11T04:27:47Z</time></trkpt><trkpt lat="43.363085175321345" lon="11.406913285417604"><ele>311.0</ele><time>2026-04-11T04:27:54Z</time></trkpt><trkpt lat="43.363158419659136" lon="11.406865942628396"><ele>311.0</ele><time>2026-04-11T04:27:57Z</time></trkpt><trkpt lat="43.36323632296125" lon="11.406827582047248"><ele>312.6</ele><time>2026-04-11T04:28:00Z</time></trkpt><trkpt lat="43.36330684153912" lon="11.406775467773468"><ele>314.20000000000005</ele><time>2026-04-11T04:28:03Z</time></trkpt><trkpt lat="43.36338455741455" lon="11.406743558546335"><ele>315.79999999999995</ele><time>2026-04-11T04:28:06Z</time></trkpt><trkpt lat="43.363452847996065" lon="11.406694693295387"><ele>317.4</ele><time>2026-04-11T04:28:09Z</time></trkpt><trkpt lat="43.363594847952946" lon="11.406621797632285"><ele>319.0</ele><time>2026-04-11T04:28:15Z</time></trkpt><trkpt lat="43.3636606958801" lon="11.406570778332698"><ele>319.0</ele><time>2026-04-11T04:28:19Z</time></trkpt><trkpt lat="43.36372114612967" lon="11.406542110504132"><ele>319.0</ele><time>2026-04-11T04:28:21Z</time></trkpt><trkpt lat="43.363784770543575" lon="11.406484258983566"><ele>319.0</ele><time>2026-04-11T04:28:24Z</time></trkpt><trkpt lat="43.36385316132553" lon="11.40644293852512"><ele>319.0</ele><time>2026-04-11T04:28:27Z</time></trkpt><trkpt lat="43.36392346556372" lon="11.406394725408322"><ele>319.0</ele><time>2026-04-11T04:28:30Z</time></trkpt><trkpt lat="43.36406072906598" lon="11.406304432174277"><ele>319.0</ele><time>2026-04-11T04:28:36Z</time></trkpt><trkpt lat="43.36412215683995" lon="11.406253755133982"><ele>320.66666666666663</ele><time>2026-04-11T04:28:39Z</time></trkpt><trkpt lat="43.364183611937214" lon="11.406207682105716"><ele>322.3333333333333</ele><time>2026-04-11T04:28:42Z</time></trkpt><trkpt lat="43.364251549828026" lon="11.406170704462644"><ele>324.0</ele><time>2026-04-11T04:28:45Z</time></trkpt><trkpt lat="43.36431575670197" lon="11.406124315174305"><ele>325.6666666666667</ele><time>2026-04-11T04:28:48Z</time></trkpt><trkpt lat="43.36438410035461" lon="11.406081452362013"><ele>327.33333333333337</ele><time>2026-04-11T04:28:51Z</time></trkpt><trkpt lat="43.36452407216233" lon="11.406024854090438"><ele>329.0</ele><time>2026-04-11T04:28:57Z</time></trkpt><trkpt lat="43.364605220961195" lon="11.406017836551252"><ele>329.0</ele><time>2026-04-11T04:29:00Z</time></trkpt><trkpt lat="43.36467244232202" lon="11.406041576470576"><ele>329.0</ele><time>2026-04-11T04:29:03Z</time></trkpt><trkpt lat="43.364733819665815" lon="11.406109737500849"><ele>329.0</ele><time>2026-04-11T04:29:06Z</time></trkpt><trkpt lat="43.36478372264268" lon="11.406188548438534"><ele>329.0</ele><time>2026-04-11T04:29:09Z</time></trkpt><trkpt lat="43.3648403735436" lon="11.406264035564519"><ele>329.0</ele><time>2026-04-11T04:29:12Z</time></trkpt><trkpt lat="43.36494906801215" lon="11.406397035485263"><ele>329.0</ele><time>2026-04-11T04:29:18Z</time></trkpt><trkpt lat="43.36502665994073" lon="11.406438881262565"><ele>331.0</ele><time>2026-04-11T04:29:21Z</time></trkpt><trkpt lat="43.36510933529268" lon="11.406453793086289"><ele>333.0</ele><time>2026-04-11T04:29:24Z</time></trkpt><trkpt lat="43.365190645342814" lon="11.406448070462085"><ele>335.0</ele><time>2026-04-11T04:29:27Z</time></trkpt><trkpt lat="43.365279875589295" lon="11.406424631995334"><ele>337.0</ele><time>2026-04-11T04:29:31Z</time></trkpt><trkpt lat="43.36537407843323" lon="11.406379333111317"><ele>339.0</ele><time>2026-04-11T04:29:35Z</time></trkpt><trkpt lat="43.36551200286264" lon="11.40634512263582"><ele>339.8333333333333</ele><time>2026-04-11T04:29:41Z</time></trkpt><trkpt lat="43.36561448613402" lon="11.40630657648268"><ele>340.6666666666667</ele><time>2026-04-11T04:29:44Z</time></trkpt><trkpt lat="43.3656808526885" lon="11.406268143335318"><ele>341.5</ele><time>2026-04-11T04:29:47Z</time></trkpt><trkpt lat="43.36574536859503" lon="11.406235091419703"><ele>342.33333333333337</ele><time>2026-04-11T04:29:50Z</time></trkpt><trkpt lat="43.36580005028176" lon="11.406188461888295"><ele>343.1666666666667</ele><time>2026-04-11T04:29:52Z</time></trkpt><trkpt lat="43.36584998496033" lon="11.406131064830879"><ele>344.0</ele><time>2026-04-11T04:29:54Z</time></trkpt><trkpt lat="43.365899438145114" lon="11.406044825990604"><ele>344.0</ele><time>2026-04-11T04:29:56Z</time></trkpt><trkpt lat="43.366003823665345" lon="11.405857552485726"><ele>344.0</ele><time>2026-04-11T04:30:00Z</time></trkpt><trkpt lat="43.366055277982476" lon="11.405772162324444"><ele>344.0</ele><time>2026-04-11T04:30:02Z</time></trkpt><trkpt lat="43.36610376991896" lon="11.405687652304374"><ele>344.0</ele><time>2026-04-11T04:30:04Z</time></trkpt><trkpt lat="43.366140690201405" lon="11.405599673872466"><ele>344.0</ele><time>2026-04-11T04:30:06Z</time></trkpt><trkpt lat="43.36617111386198" lon="11.405513392756019"><ele>344.0</ele><time>2026-04-11T04:30:08Z</time></trkpt><trkpt lat="43.36620568899522" lon="11.405428923792336"><ele>344.0</ele><time>2026-04-11T04:30:10Z</time></trkpt><trkpt lat="43.36624392366869" lon="11.40534213604714"><ele>344.0</ele><time>2026-04-11T04:30:12Z</time></trkpt><trkpt lat="43.36628781260232" lon="11.405258246033679"><ele>344.0</ele><time>2026-04-11T04:30:14Z</time></trkpt><trkpt lat="43.36633047994241" lon="11.405178375921789"><ele>344.0</ele><time>2026-04-11T04:30:16Z</time></trkpt><trkpt lat="43.36635799339205" lon="11.405083097361642"><ele>344.0</ele><time>2026-04-11T04:30:19Z</time></trkpt><trkpt lat="43.36646203728458" lon="11.404865413705133"><ele>344.00000000000006</ele><time>2026-04-11T04:30:24Z</time></trkpt><trkpt lat="43.366513184074634" lon="11.40477938831869"><ele>344.0</ele><time>2026-04-11T04:30:26Z</time></trkpt><trkpt lat="43.36655182600749" lon="11.404708976708617"><ele>344.0</ele><time>2026-04-11T04:30:28Z</time></trkpt><trkpt lat="43.36659977781493" lon="11.404632976626656"><ele>344.0</ele><time>2026-04-11T04:30:30Z</time></trkpt><trkpt lat="43.366651646736074" lon="11.404561857203108"><ele>344.0</ele><time>2026-04-11T04:30:32Z</time></trkpt><trkpt lat="43.36671251937908" lon="11.404514378079567"><ele>344.00000000000006</ele><time>2026-04-11T04:30:34Z</time></trkpt><trkpt lat="43.36676988096454" lon="11.404460218460722"><ele>344.0</ele><time>2026-04-11T04:30:36Z</time></trkpt><trkpt lat="43.3668191208408" lon="11.404403957564117"><ele>344.83333333333337</ele><time>2026-04-11T04:30:38Z</time></trkpt><trkpt lat="43.36687869549383" lon="11.404368871338239"><ele>345.6666666666667</ele><time>2026-04-11T04:30:40Z</time></trkpt><trkpt lat="43.36703826751596" lon="11.404300073255094"><ele>346.5</ele><time>2026-04-11T04:30:47Z</time></trkpt><trkpt lat="43.367106067263734" lon="11.404289958699197"><ele>347.3333333333333</ele><time>2026-04-11T04:30:50Z</time></trkpt><trkpt lat="43.36717039014308" lon="11.404281263923442"><ele>348.16666666666663</ele><time>2026-04-11T04:30:52Z</time></trkpt><trkpt lat="43.36724455553672" lon="11.404277298181025"><ele>349.0</ele><time>2026-04-11T04:30:55Z</time></trkpt><trkpt lat="43.36734554715326" lon="11.404274003459932"><ele>349.0</ele><time>2026-04-11T04:30:58Z</time></trkpt><trkpt lat="43.3674165615173" lon="11.404287003808577"><ele>349.0</ele><time>2026-04-11T04:31:01Z</time></trkpt><trkpt lat="43.36756168770238" lon="11.404305110537422"><ele>349.0</ele><time>2026-04-11T04:31:05Z</time></trkpt><trkpt lat="43.367625406012934" lon="11.404324207222915"><ele>349.0</ele><time>2026-04-11T04:31:07Z</time></trkpt><trkpt lat="43.36769370220335" lon="11.404312049449814"><ele>349.0</ele><time>2026-04-11T04:31:10Z</time></trkpt><trkpt lat="43.36775647499266" lon="11.40432277942679"><ele>349.0</ele><time>2026-04-11T04:31:12Z</time></trkpt><trkpt lat="43.36783432013533" lon="11.404348491398586"><ele>349.0</ele><time>2026-04-11T04:31:14Z</time></trkpt><trkpt lat="43.36789713197744" lon="11.404359380944904"><ele>349.0</ele><time>2026-04-11T04:31:16Z</time></trkpt><trkpt lat="43.36795952430408" lon="11.404378272719843"><ele>349.0</ele><time>2026-04-11T04:31:18Z</time></trkpt><trkpt lat="43.3680354240783" lon="11.40438489226808"><ele>349.0</ele><time>2026-04-11T04:31:20Z</time></trkpt><trkpt lat="43.36812335128851" lon="11.404420811474981"><ele>349.0</ele><time>2026-04-11T04:31:22Z</time></trkpt><trkpt lat="43.36829162767233" lon="11.404490503060735"><ele>349.6</ele><time>2026-04-11T04:31:27Z</time></trkpt><trkpt lat="43.36837078531632" lon="11.404513696693517"><ele>350.2</ele><time>2026-04-11T04:31:29Z</time></trkpt><trkpt lat="43.368469668012736" lon="11.40453303195619"><ele>350.8</ele><time>2026-04-11T04:31:31Z</time></trkpt><trkpt lat="43.36861147826493" lon="11.404528794520516"><ele>351.40000000000003</ele><time>2026-04-11T04:31:34Z</time></trkpt><trkpt lat="43.368706061542746" lon="11.404521111460124"><ele>352.0</ele><time>2026-04-11T04:31:36Z</time></trkpt><trkpt lat="43.368810529407014" lon="11.40450789554551"><ele>353.0</ele><time>2026-04-11T04:31:38Z</time></trkpt><trkpt lat="43.36891173846413" lon="11.404495955807674"><ele>354.0</ele><time>2026-04-11T04:31:40Z</time></trkpt><trkpt lat="43.36901051352155" lon="11.404482449306467"><ele>355.0</ele><time>2026-04-11T04:31:42Z</time></trkpt><trkpt lat="43.36926148073503" lon="11.404473659677548"><ele>355.0</ele><time>2026-04-11T04:31:47Z</time></trkpt><trkpt lat="43.36943549528852" lon="11.404487181897244"><ele>355.0</ele><time>2026-04-11T04:31:50Z</time></trkpt><trkpt lat="43.36952417205014" lon="11.404491869067849"><ele>355.0</ele><time>2026-04-11T04:31:52Z</time></trkpt><trkpt lat="43.36961046120567" lon="11.40449158733367"><ele>355.0</ele><time>2026-04-11T04:31:54Z</time></trkpt><trkpt lat="43.36969169817161" lon="11.40449889622779"><ele>355.0</ele><time>2026-04-11T04:31:56Z</time></trkpt><trkpt lat="43.369768468327436" lon="11.404499175019668"><ele>356.0</ele><time>2026-04-11T04:31:58Z</time></trkpt><trkpt lat="43.36984402336086" lon="11.404503963779787"><ele>357.0</ele><time>2026-04-11T04:32:00Z</time></trkpt><trkpt lat="43.36992000315664" lon="11.40450679989825"><ele>358.0</ele><time>2026-04-11T04:32:02Z</time></trkpt><trkpt lat="43.36998759787294" lon="11.404497388521841"><ele>359.0</ele><time>2026-04-11T04:32:04Z</time></trkpt><trkpt lat="43.37005649788831" lon="11.404507289582224"><ele>360.0</ele><time>2026-04-11T04:32:06Z</time></trkpt><trkpt lat="43.37012549597838" lon="11.404505261352412"><ele>361.0</ele><time>2026-04-11T04:32:08Z</time></trkpt><trkpt lat="43.37025841426098" lon="11.404517731048381"><ele>361.0</ele><time>2026-04-11T04:32:13Z</time></trkpt><trkpt lat="43.37032810672722" lon="11.404520214336417"><ele>361.0</ele><time>2026-04-11T04:32:16Z</time></trkpt><trkpt lat="43.370403989497675" lon="11.404518260388526"><ele>361.0</ele><time>2026-04-11T04:32:19Z</time></trkpt><trkpt lat="43.370490499292764" lon="11.404503888155526"><ele>361.0</ele><time>2026-04-11T04:32:22Z</time></trkpt><trkpt lat="43.370575757865254" lon="11.404499391372875"><ele>361.0</ele><time>2026-04-11T04:32:24Z</time></trkpt><trkpt lat="43.370641331025446" lon="11.404481057893843"><ele>361.0</ele><time>2026-04-11T04:32:26Z</time></trkpt><trkpt lat="43.37070448326832" lon="11.404458427395056"><ele>362.0</ele><time>2026-04-11T04:32:28Z</time></trkpt><trkpt lat="43.37079397094761" lon="11.404423336677647"><ele>363.0</ele><time>2026-04-11T04:32:31Z</time></trkpt><trkpt lat="43.37094166534282" lon="11.404321282419126"><ele>364.0</ele><time>2026-04-11T04:32:37Z</time></trkpt><trkpt lat="43.37100039988394" lon="11.404239071725629"><ele>365.0</ele><time>2026-04-11T04:32:40Z</time></trkpt><trkpt lat="43.37105647112294" lon="11.404151229921775"><ele>366.0</ele><time>2026-04-11T04:32:43Z</time></trkpt><trkpt lat="43.37109905099873" lon="11.40405783126578"><ele>366.0</ele><time>2026-04-11T04:32:46Z</time></trkpt><trkpt lat="43.37113152202497" lon="11.403956077462425"><ele>366.0</ele><time>2026-04-11T04:32:49Z</time></trkpt><trkpt lat="43.37118378255841" lon="11.40386436137128"><ele>366.0</ele><time>2026-04-11T04:32:52Z</time></trkpt><trkpt lat="43.37125904821483" lon="11.403702110223605"><ele>366.0</ele><time>2026-04-11T04:32:57Z</time></trkpt><trkpt lat="43.37129827430741" lon="11.403599979133226"><ele>366.0</ele><time>2026-04-11T04:33:00Z</time></trkpt><trkpt lat="43.37133909285691" lon="11.403496792695002"><ele>367.20000000000005</ele><time>2026-04-11T04:33:03Z</time></trkpt><trkpt lat="43.371386513208684" lon="11.403399688135334"><ele>368.40000000000003</ele><time>2026-04-11T04:33:06Z</time></trkpt><trkpt lat="43.37142242420063" lon="11.403300196977224"><ele>369.6</ele><time>2026-04-11T04:33:09Z</time></trkpt><trkpt lat="43.37146354863234" lon="11.40320234195027"><ele>370.8</ele><time>2026-04-11T04:33:12Z</time></trkpt><trkpt lat="43.37150289680738" lon="11.40310981078201"><ele>372.0</ele><time>2026-04-11T04:33:15Z</time></trkpt><trkpt lat="43.37158683297445" lon="11.402926647809485"><ele>373.1666666666667</ele><time>2026-04-11T04:33:21Z</time></trkpt><trkpt lat="43.37162577334253" lon="11.402832864539766"><ele>374.3333333333333</ele><time>2026-04-11T04:33:24Z</time></trkpt><trkpt lat="43.37164504313256" lon="11.40273809411862"><ele>375.5</ele><time>2026-04-11T04:33:27Z</time></trkpt><trkpt lat="43.37169067699792" lon="11.402649036949592"><ele>376.66666666666663</ele><time>2026-04-11T04:33:30Z</time></trkpt><trkpt lat="43.371725792303636" lon="11.40255987215094"><ele>377.8333333333333</ele><time>2026-04-11T04:33:33Z</time></trkpt><trkpt lat="43.37176229452504" lon="11.402465812414658"><ele>379.0</ele><time>2026-04-11T04:33:36Z</time></trkpt><trkpt lat="43.3718321736271" lon="11.402281285562633"><ele>379.0</ele><time>2026-04-11T04:33:42Z</time></trkpt><trkpt lat="43.37184047112264" lon="11.402183709286119"><ele>379.0</ele><time>2026-04-11T04:33:46Z</time></trkpt><trkpt lat="43.37184861908085" lon="11.40208353464513"><ele>379.0</ele><time>2026-04-11T04:33:49Z</time></trkpt><trkpt lat="43.37184614668125" lon="11.40198083212847"><ele>379.0</ele><time>2026-04-11T04:33:52Z</time></trkpt><trkpt lat="43.37186387374292" lon="11.401894271400883"><ele>379.0</ele><time>2026-04-11T04:33:55Z</time></trkpt><trkpt lat="43.37188655697834" lon="11.401795841067484"><ele>379.0</ele><time>2026-04-11T04:33:58Z</time></trkpt><trkpt lat="43.37197432654963" lon="11.401608598053434"><ele>379.3333333333333</ele><time>2026-04-11T04:34:04Z</time></trkpt><trkpt lat="43.37204448013422" lon="11.401515374855506"><ele>379.66666666666663</ele><time>2026-04-11T04:34:08Z</time></trkpt><trkpt lat="43.37211140513685" lon="11.401449965115102"><ele>380.0</ele><time>2026-04-11T04:34:10Z</time></trkpt><trkpt lat="43.37217120118348" lon="11.401380326520627"><ele>380.3333333333333</ele><time>2026-04-11T04:34:12Z</time></trkpt><trkpt lat="43.37222495245633" lon="11.401317239459965"><ele>380.6666666666667</ele><time>2026-04-11T04:34:14Z</time></trkpt><trkpt lat="43.37228269520824" lon="11.401262340537711"><ele>381.0</ele><time>2026-04-11T04:34:16Z</time></trkpt><trkpt lat="43.37233541139279" lon="11.401205902588067"><ele>382.0</ele><time>2026-04-11T04:34:18Z</time></trkpt><trkpt lat="43.37238857703001" lon="11.401145774587613"><ele>383.0</ele><time>2026-04-11T04:34:20Z</time></trkpt><trkpt lat="43.37250738638114" lon="11.401021432897469"><ele>384.0</ele><time>2026-04-11T04:34:24Z</time></trkpt><trkpt lat="43.372575903156026" lon="11.400950288170499"><ele>385.0</ele><time>2026-04-11T04:34:26Z</time></trkpt><trkpt lat="43.372634179591884" lon="11.40087893912432"><ele>386.0</ele><time>2026-04-11T04:34:28Z</time></trkpt><trkpt lat="43.37269567508165" lon="11.400803478714662"><ele>386.0</ele><time>2026-04-11T04:34:30Z</time></trkpt><trkpt lat="43.372778765321456" lon="11.400725867348637"><ele>386.0</ele><time>2026-04-11T04:34:32Z</time></trkpt><trkpt lat="43.37284747506909" lon="11.40064280871475"><ele>386.0</ele><time>2026-04-11T04:34:34Z</time></trkpt><trkpt lat="43.37292429810959" lon="11.40056147610485"><ele>386.0</ele><time>2026-04-11T04:34:36Z</time></trkpt><trkpt lat="43.37300765623291" lon="11.4004802626075"><ele>386.0</ele><time>2026-04-11T04:34:38Z</time></trkpt><trkpt lat="43.373091323371746" lon="11.40039394471324"><ele>385.25</ele><time>2026-04-11T04:34:40Z</time></trkpt><trkpt lat="43.37315090318484" lon="11.400333569752547"><ele>384.5</ele><time>2026-04-11T04:34:42Z</time></trkpt><trkpt lat="43.373351150505975" lon="11.400179791470597"><ele>383.75</ele><time>2026-04-11T04:34:46Z</time></trkpt><trkpt lat="43.373442536946406" lon="11.400140683069665"><ele>383.0</ele><time>2026-04-11T04:34:48Z</time></trkpt><trkpt lat="43.373534081073885" lon="11.400108370441066"><ele>383.0</ele><time>2026-04-11T04:34:50Z</time></trkpt><trkpt lat="43.373630305762454" lon="11.400071490394408"><ele>383.0</ele><time>2026-04-11T04:34:52Z</time></trkpt><trkpt lat="43.37372867118377" lon="11.400028445817398"><ele>383.0</ele><time>2026-04-11T04:34:54Z</time></trkpt><trkpt lat="43.373836748019436" lon="11.399997298600672"><ele>383.0</ele><time>2026-04-11T04:34:56Z</time></trkpt><trkpt lat="43.37393691560231" lon="11.399950307419463"><ele>383.0</ele><time>2026-04-11T04:34:58Z</time></trkpt><trkpt lat="43.374032540370614" lon="11.399901168092162"><ele>383.0</ele><time>2026-04-11T04:35:00Z</time></trkpt><trkpt lat="43.37412564197924" lon="11.399850239339507"><ele>383.0</ele><time>2026-04-11T04:35:02Z</time></trkpt><trkpt lat="43.374198499447665" lon="11.399776087163316"><ele>383.0</ele><time>2026-04-11T04:35:05Z</time></trkpt><trkpt lat="43.37432347541629" lon="11.399635124653383"><ele>383.0</ele><time>2026-04-11T04:35:10Z</time></trkpt><trkpt lat="43.374405643424836" lon="11.399532456156752"><ele>382.83333333333337</ele><time>2026-04-11T04:35:12Z</time></trkpt><trkpt lat="43.37448890982016" lon="11.399445277204357"><ele>382.6666666666667</ele><time>2026-04-11T04:35:13Z</time></trkpt><trkpt lat="43.37456121818223" lon="11.399390143558213"><ele>382.5</ele><time>2026-04-11T04:35:14Z</time></trkpt><trkpt lat="43.3746131540411" lon="11.399336635022088"><ele>382.3333333333333</ele><time>2026-04-11T04:35:15Z</time></trkpt><trkpt lat="43.37466857257975" lon="11.399276310180172"><ele>382.16666666666663</ele><time>2026-04-11T04:35:16Z</time></trkpt><trkpt lat="43.37472400801393" lon="11.399219422137508"><ele>382.0</ele><time>2026-04-11T04:35:17Z</time></trkpt><trkpt lat="43.37477807841161" lon="11.399165303207587"><ele>382.0</ele><time>2026-04-11T04:35:18Z</time></trkpt><trkpt lat="43.374830096941444" lon="11.39910897690641"><ele>382.0</ele><time>2026-04-11T04:35:19Z</time></trkpt><trkpt lat="43.37488358732841" lon="11.399055762598095"><ele>382.0</ele><time>2026-04-11T04:35:20Z</time></trkpt><trkpt lat="43.37493931491863" lon="11.399004848420297"><ele>382.0</ele><time>2026-04-11T04:35:21Z</time></trkpt><trkpt lat="43.37499327485121" lon="11.398951740867268"><ele>382.0</ele><time>2026-04-11T04:35:22Z</time></trkpt><trkpt lat="43.37504534242826" lon="11.39889641271089"><ele>382.0</ele><time>2026-04-11T04:35:23Z</time></trkpt><trkpt lat="43.37510105715826" lon="11.398840043255694"><ele>382.0</ele><time>2026-04-11T04:35:24Z</time></trkpt><trkpt lat="43.37520464641652" lon="11.398727918077055"><ele>382.25</ele><time>2026-04-11T04:35:26Z</time></trkpt><trkpt lat="43.37541763437299" lon="11.39855819882955"><ele>382.5</ele><time>2026-04-11T04:35:30Z</time></trkpt><trkpt lat="43.37547716150376" lon="11.398522481286843"><ele>382.75</ele><time>2026-04-11T04:35:31Z</time></trkpt><trkpt lat="43.3755864060648" lon="11.398467365393875"><ele>383.0</ele><time>2026-04-11T04:35:33Z</time></trkpt><trkpt lat="43.375692865991745" lon="11.3984078507523"><ele>383.0</ele><time>2026-04-11T04:35:35Z</time></trkpt><trkpt lat="43.37580142418682" lon="11.398369020986626"><ele>383.0</ele><time>2026-04-11T04:35:37Z</time></trkpt><trkpt lat="43.375904819132785" lon="11.39832642353612"><ele>383.0</ele><time>2026-04-11T04:35:39Z</time></trkpt><trkpt lat="43.37601018845421" lon="11.398289601791099"><ele>383.0</ele><time>2026-04-11T04:35:41Z</time></trkpt><trkpt lat="43.37611581247727" lon="11.39825107733766"><ele>383.0</ele><time>2026-04-11T04:35:43Z</time></trkpt><trkpt lat="43.37621329178118" lon="11.398218628971643"><ele>383.0</ele><time>2026-04-11T04:35:45Z</time></trkpt><trkpt lat="43.376306388883656" lon="11.39818351340173"><ele>383.0</ele><time>2026-04-11T04:35:47Z</time></trkpt><trkpt lat="43.376483793356726" lon="11.39811355275352"><ele>383.0</ele><time>2026-04-11T04:35:51Z</time></trkpt><trkpt lat="43.37656459489125" lon="11.39806909423416"><ele>383.0</ele><time>2026-04-11T04:35:53Z</time></trkpt><trkpt lat="43.37664756859855" lon="11.398019695857585"><ele>383.79999999999995</ele><time>2026-04-11T04:35:55Z</time></trkpt><trkpt lat="43.37672087142215" lon="11.39795990530261"><ele>384.6</ele><time>2026-04-11T04:35:57Z</time></trkpt><trkpt lat="43.376788418427545" lon="11.397878534535666"><ele>385.4</ele><time>2026-04-11T04:35:59Z</time></trkpt><trkpt lat="43.37686024803525" lon="11.397808533278706"><ele>386.20000000000005</ele><time>2026-04-11T04:36:01Z</time></trkpt><trkpt lat="43.376936341175295" lon="11.397736371056597"><ele>387.0</ele><time>2026-04-11T04:36:03Z</time></trkpt><trkpt lat="43.3770116696106" lon="11.397656773973004"><ele>387.0</ele><time>2026-04-11T04:36:05Z</time></trkpt><trkpt lat="43.37709215563008" lon="11.397579673642879"><ele>387.0</ele><time>2026-04-11T04:36:07Z</time></trkpt><trkpt lat="43.37717617999626" lon="11.397495870838394"><ele>387.0</ele><time>2026-04-11T04:36:09Z</time></trkpt><trkpt lat="43.37734343033674" lon="11.397354695472034"><ele>387.0</ele><time>2026-04-11T04:36:13Z</time></trkpt><trkpt lat="43.37742748746984" lon="11.39728982992198"><ele>386.8333333333333</ele><time>2026-04-11T04:36:15Z</time></trkpt><trkpt lat="43.37751736484031" lon="11.397238894528785"><ele>386.66666666666663</ele><time>2026-04-11T04:36:17Z</time></trkpt><trkpt lat="43.3775992571344" lon="11.39719840107326"><ele>386.5</ele><time>2026-04-11T04:36:19Z</time></trkpt><trkpt lat="43.37767769165988" lon="11.397162631084894"><ele>386.3333333333333</ele><time>2026-04-11T04:36:21Z</time></trkpt><trkpt lat="43.37775712067598" lon="11.39714379306334"><ele>386.16666666666663</ele><time>2026-04-11T04:36:23Z</time></trkpt><trkpt lat="43.37783317569303" lon="11.39714340772867"><ele>386.0</ele><time>2026-04-11T04:36:25Z</time></trkpt><trkpt lat="43.37790903670008" lon="11.397134396514868"><ele>386.6</ele><time>2026-04-11T04:36:27Z</time></trkpt><trkpt lat="43.377980295608154" lon="11.397112092498144"><ele>387.20000000000005</ele><time>2026-04-11T04:36:29Z</time></trkpt><trkpt lat="43.37805522970634" lon="11.39709275652578"><ele>387.79999999999995</ele><time>2026-04-11T04:36:31Z</time></trkpt><trkpt lat="43.378204799456704" lon="11.397057176561349"><ele>388.4</ele><time>2026-04-11T04:36:35Z</time></trkpt><trkpt lat="43.37827734681065" lon="11.397037803610251"><ele>389.0</ele><time>2026-04-11T04:36:37Z</time></trkpt><trkpt lat="43.37834985071645" lon="11.397013029186985"><ele>389.7142857142857</ele><time>2026-04-11T04:36:39Z</time></trkpt><trkpt lat="43.37841748355011" lon="11.3969900985067"><ele>390.4285714285714</ele><time>2026-04-11T04:36:41Z</time></trkpt><trkpt lat="43.37848196182322" lon="11.39697117072454"><ele>391.1428571428571</ele><time>2026-04-11T04:36:43Z</time></trkpt><trkpt lat="43.37854555171254" lon="11.396947981023176"><ele>391.8571428571429</ele><time>2026-04-11T04:36:45Z</time></trkpt><trkpt lat="43.37860829907181" lon="11.396923847220963"><ele>392.57142857142856</ele><time>2026-04-11T04:36:47Z</time></trkpt><trkpt lat="43.378697559215645" lon="11.396894486768202"><ele>393.2857142857143</ele><time>2026-04-11T04:36:50Z</time></trkpt><trkpt lat="43.37875365252787" lon="11.396854212189131"><ele>394.0</ele><time>2026-04-11T04:36:52Z</time></trkpt><trkpt lat="43.378883399129194" lon="11.39681386981724"><ele>395.00000000000006</ele><time>2026-04-11T04:36:56Z</time></trkpt><trkpt lat="43.37894567098086" lon="11.396788902014526"><ele>396.0</ele><time>2026-04-11T04:36:58Z</time></trkpt><trkpt lat="43.37900860618386" lon="11.396784104819336"><ele>397.0</ele><time>2026-04-11T04:37:00Z</time></trkpt><trkpt lat="43.37907195899573" lon="11.39676999137827"><ele>398.0</ele><time>2026-04-11T04:37:02Z</time></trkpt><trkpt lat="43.37916100117036" lon="11.39673504421661"><ele>399.00000000000006</ele><time>2026-04-11T04:37:05Z</time></trkpt><trkpt lat="43.37924353162466" lon="11.396707934030621"><ele>400.0</ele><time>2026-04-11T04:37:08Z</time></trkpt><trkpt lat="43.379332705479435" lon="11.396677932815825"><ele>400.00000000000006</ele><time>2026-04-11T04:37:11Z</time></trkpt><trkpt lat="43.37939779436648" lon="11.396656325034941"><ele>400.0</ele><time>2026-04-11T04:37:13Z</time></trkpt><trkpt lat="43.37957534263611" lon="11.396610308266792"><ele>400.0</ele><time>2026-04-11T04:37:19Z</time></trkpt><trkpt lat="43.37963798104878" lon="11.39659603788424"><ele>400.0</ele><time>2026-04-11T04:37:21Z</time></trkpt><trkpt lat="43.379705261259126" lon="11.396571362974779"><ele>400.00000000000006</ele><time>2026-04-11T04:37:23Z</time></trkpt><trkpt lat="43.37976837047034" lon="11.396562035056766"><ele>400.0</ele><time>2026-04-11T04:37:25Z</time></trkpt><trkpt lat="43.37986247565259" lon="11.39653861858349"><ele>400.8</ele><time>2026-04-11T04:37:28Z</time></trkpt><trkpt lat="43.37992822014979" lon="11.39651945755031"><ele>401.6</ele><time>2026-04-11T04:37:30Z</time></trkpt><trkpt lat="43.380021464531076" lon="11.396492957707135"><ele>402.4</ele><time>2026-04-11T04:37:33Z</time></trkpt><trkpt lat="43.3800854052018" lon="11.396478633984529"><ele>403.2</ele><time>2026-04-11T04:37:35Z</time></trkpt><trkpt lat="43.38026937089752" lon="11.39643350587824"><ele>404.0</ele><time>2026-04-11T04:37:41Z</time></trkpt><trkpt lat="43.38033406277127" lon="11.396415032265798"><ele>403.99999999999994</ele><time>2026-04-11T04:37:43Z</time></trkpt><trkpt lat="43.380397175025664" lon="11.396403080611886"><ele>404.0</ele><time>2026-04-11T04:37:45Z</time></trkpt><trkpt lat="43.38048813417261" lon="11.396379975997485"><ele>404.0</ele><time>2026-04-11T04:37:48Z</time></trkpt><trkpt lat="43.38058253873833" lon="11.396360165206252"><ele>404.0</ele><time>2026-04-11T04:37:51Z</time></trkpt><trkpt lat="43.38067241092681" lon="11.396325664295041"><ele>403.99999999999994</ele><time>2026-04-11T04:37:54Z</time></trkpt><trkpt lat="43.38073999971627" lon="11.396318103203933"><ele>404.0</ele><time>2026-04-11T04:37:56Z</time></trkpt><trkpt lat="43.3808701116538" lon="11.396299271917764"><ele>404.57142857142856</ele><time>2026-04-11T04:38:00Z</time></trkpt><trkpt lat="43.38093981949142" lon="11.396292072551562"><ele>405.1428571428571</ele><time>2026-04-11T04:38:02Z</time></trkpt><trkpt lat="43.38100685338534" lon="11.39628263495892"><ele>405.7142857142857</ele><time>2026-04-11T04:38:04Z</time></trkpt><trkpt lat="43.38107601163064" lon="11.396287540731475"><ele>406.2857142857143</ele><time>2026-04-11T04:38:06Z</time></trkpt><trkpt lat="43.38114298979606" lon="11.396290684112909"><ele>406.8571428571429</ele><time>2026-04-11T04:38:08Z</time></trkpt><trkpt lat="43.38121138670484" lon="11.396294121982875"><ele>407.42857142857144</ele><time>2026-04-11T04:38:10Z</time></trkpt><trkpt lat="43.38127956326289" lon="11.396288419756708"><ele>408.0</ele><time>2026-04-11T04:38:12Z</time></trkpt><trkpt lat="43.38134863597633" lon="11.396288438004495"><ele>408.3333333333333</ele><time>2026-04-11T04:38:14Z</time></trkpt><trkpt lat="43.381416538366615" lon="11.3962830053409"><ele>408.66666666666663</ele><time>2026-04-11T04:38:16Z</time></trkpt><trkpt lat="43.38148350241488" lon="11.3962716107895"><ele>409.0</ele><time>2026-04-11T04:38:18Z</time></trkpt><trkpt lat="43.38162286622022" lon="11.396256156644805"><ele>409.3333333333333</ele><time>2026-04-11T04:38:22Z</time></trkpt><trkpt lat="43.38169124891666" lon="11.396236858629585"><ele>409.66666666666663</ele><time>2026-04-11T04:38:24Z</time></trkpt><trkpt lat="43.38176769151748" lon="11.396233373118516"><ele>410.0</ele><time>2026-04-11T04:38:26Z</time></trkpt><trkpt lat="43.38183609221361" lon="11.396213131264876"><ele>410.0</ele><time>2026-04-11T04:38:30Z</time></trkpt><trkpt lat="43.38192492823457" lon="11.396189053015062"><ele>410.0</ele><time>2026-04-11T04:38:33Z</time></trkpt><trkpt lat="43.3819958083129" lon="11.396174986044967"><ele>410.0</ele><time>2026-04-11T04:38:35Z</time></trkpt><trkpt lat="43.38206792664912" lon="11.396170369525043"><ele>410.0</ele><time>2026-04-11T04:38:37Z</time></trkpt><trkpt lat="43.38216954442187" lon="11.396159105744225"><ele>410.0</ele><time>2026-04-11T04:38:39Z</time></trkpt><trkpt lat="43.38233138939821" lon="11.396118834321529"><ele>410.66666666666663</ele><time>2026-04-11T04:38:43Z</time></trkpt><trkpt lat="43.382407629531016" lon="11.396112260688424"><ele>411.3333333333333</ele><time>2026-04-11T04:38:45Z</time></trkpt><trkpt lat="43.38248683377788" lon="11.396093309599827"><ele>412.0</ele><time>2026-04-11T04:38:47Z</time></trkpt><trkpt lat="43.38255864171539" lon="11.396069448746337"><ele>412.66666666666663</ele><time>2026-04-11T04:38:50Z</time></trkpt><trkpt lat="43.38262832270515" lon="11.39604367819374"><ele>413.3333333333333</ele><time>2026-04-11T04:38:53Z</time></trkpt><trkpt lat="43.38271679933583" lon="11.39601698073835"><ele>414.0</ele><time>2026-04-11T04:38:55Z</time></trkpt><trkpt lat="43.38281022835353" lon="11.395991030926785"><ele>414.0</ele><time>2026-04-11T04:38:57Z</time></trkpt><trkpt lat="43.38289554022551" lon="11.395969988213626"><ele>414.0</ele><time>2026-04-11T04:38:59Z</time></trkpt><trkpt lat="43.382983871001045" lon="11.395934442217735"><ele>414.0</ele><time>2026-04-11T04:39:01Z</time></trkpt><trkpt lat="43.383168326139156" lon="11.395868488404926"><ele>414.0</ele><time>2026-04-11T04:39:05Z</time></trkpt><trkpt lat="43.38325891534645" lon="11.395826861411555"><ele>414.79999999999995</ele><time>2026-04-11T04:39:07Z</time></trkpt><trkpt lat="43.3833515447015" lon="11.395795882424979"><ele>415.59999999999997</ele><time>2026-04-11T04:39:09Z</time></trkpt><trkpt lat="43.38344183800226" lon="11.395758058842924"><ele>416.4</ele><time>2026-04-11T04:39:11Z</time></trkpt><trkpt lat="43.38353481320769" lon="11.395719314618598"><ele>417.2</ele><time>2026-04-11T04:39:13Z</time></trkpt><trkpt lat="43.383621948951415" lon="11.39568399825651"><ele>418.0</ele><time>2026-04-11T04:39:15Z</time></trkpt><trkpt lat="43.38371495086671" lon="11.395654357037984"><ele>418.0</ele><time>2026-04-11T04:39:17Z</time></trkpt><trkpt lat="43.38380644036226" lon="11.395622565712175"><ele>418.0</ele><time>2026-04-11T04:39:19Z</time></trkpt><trkpt lat="43.38389667186637" lon="11.395585925674128"><ele>418.0</ele><time>2026-04-11T04:39:21Z</time></trkpt><trkpt lat="43.38396411391103" lon="11.395552406805152"><ele>418.0</ele><time>2026-04-11T04:39:24Z</time></trkpt><trkpt lat="43.38409719883739" lon="11.395494656623718"><ele>418.0</ele><time>2026-04-11T04:39:28Z</time></trkpt><trkpt lat="43.38417165769202" lon="11.395461301627106"><ele>417.6666666666667</ele><time>2026-04-11T04:39:29Z</time></trkpt><trkpt lat="43.38428171595402" lon="11.395432440176998"><ele>417.33333333333337</ele><time>2026-04-11T04:39:31Z</time></trkpt><trkpt lat="43.384382401355445" lon="11.395390328795795"><ele>417.0</ele><time>2026-04-11T04:39:33Z</time></trkpt><trkpt lat="43.38443846147212" lon="11.395350905626842"><ele>416.66666666666663</ele><time>2026-04-11T04:39:35Z</time></trkpt><trkpt lat="43.3844970118368" lon="11.395302919719706"><ele>416.3333333333333</ele><time>2026-04-11T04:39:37Z</time></trkpt><trkpt lat="43.38457850104241" lon="11.395241297862558"><ele>416.0</ele><time>2026-04-11T04:39:40Z</time></trkpt><trkpt lat="43.384630465657814" lon="11.395156360634592"><ele>416.0</ele><time>2026-04-11T04:39:42Z</time></trkpt><trkpt lat="43.38467519368547" lon="11.395087508077248"><ele>416.0</ele><time>2026-04-11T04:39:44Z</time></trkpt><trkpt lat="43.38478451509589" lon="11.39496775023142"><ele>416.0</ele><time>2026-04-11T04:39:46Z</time></trkpt><trkpt lat="43.3849318860523" lon="11.394775284338886"><ele>416.0</ele><time>2026-04-11T04:39:50Z</time></trkpt><trkpt lat="43.38501584290446" lon="11.394695409910208"><ele>417.49999999999994</ele><time>2026-04-11T04:39:52Z</time></trkpt><trkpt lat="43.385071095675" lon="11.394611532919257"><ele>419.0</ele><time>2026-04-11T04:39:54Z</time></trkpt><trkpt lat="43.385134981482786" lon="11.394528226175279"><ele>420.5</ele><time>2026-04-11T04:39:56Z</time></trkpt><trkpt lat="43.38517852714124" lon="11.394431171194427"><ele>422.0</ele><time>2026-04-11T04:39:58Z</time></trkpt><trkpt lat="43.38523295155299" lon="11.394350252765689"><ele>423.49999999999994</ele><time>2026-04-11T04:40:00Z</time></trkpt><trkpt lat="43.38528907766076" lon="11.394277275679592"><ele>425.0</ele><time>2026-04-11T04:40:02Z</time></trkpt><trkpt lat="43.385337879384764" lon="11.39418981949634"><ele>425.0</ele><time>2026-04-11T04:40:04Z</time></trkpt><trkpt lat="43.3853973189097" lon="11.394116825139163"><ele>425.0</ele><time>2026-04-11T04:40:06Z</time></trkpt><trkpt lat="43.38545063103262" lon="11.394040797914696"><ele>425.0</ele><time>2026-04-11T04:40:08Z</time></trkpt><trkpt lat="43.38555860259334" lon="11.393883204297087"><ele>425.0</ele><time>2026-04-11T04:40:12Z</time></trkpt><trkpt lat="43.38560252004707" lon="11.393798848888526"><ele>425.0</ele><time>2026-04-11T04:40:14Z</time></trkpt><trkpt lat="43.38566393794576" lon="11.393727274878042"><ele>425.49999999999994</ele><time>2026-04-11T04:40:16Z</time></trkpt><trkpt lat="43.385708948627524" lon="11.393646343450405"><ele>426.0</ele><time>2026-04-11T04:40:18Z</time></trkpt><trkpt lat="43.38576439495575" lon="11.393574288343196"><ele>426.5</ele><time>2026-04-11T04:40:20Z</time></trkpt><trkpt lat="43.38581472167839" lon="11.39350267052166"><ele>427.0</ele><time>2026-04-11T04:40:22Z</time></trkpt><trkpt lat="43.38588463807167" lon="11.393397362805047"><ele>427.49999999999994</ele><time>2026-04-11T04:40:25Z</time></trkpt><trkpt lat="43.385931041392666" lon="11.393324659181442"><ele>428.0</ele><time>2026-04-11T04:40:27Z</time></trkpt><trkpt lat="43.38598687008334" lon="11.393257267428838"><ele>427.99999999999994</ele><time>2026-04-11T04:40:29Z</time></trkpt><trkpt lat="43.38608056891045" lon="11.39311488013067"><ele>428.0</ele><time>2026-04-11T04:40:33Z</time></trkpt><trkpt lat="43.386106089800705" lon="11.39302856291225"><ele>428.0</ele><time>2026-04-11T04:40:35Z</time></trkpt><trkpt lat="43.386166269654" lon="11.392987641767752"><ele>428.0</ele><time>2026-04-11T04:40:37Z</time></trkpt><trkpt lat="43.386221500317234" lon="11.39291898554339"><ele>427.99999999999994</ele><time>2026-04-11T04:40:39Z</time></trkpt><trkpt lat="43.38627804463621" lon="11.3928265197156"><ele>428.0</ele><time>2026-04-11T04:40:42Z</time></trkpt><trkpt lat="43.38632800602507" lon="11.39277297667031"><ele>428.59999999999997</ele><time>2026-04-11T04:40:44Z</time></trkpt><trkpt lat="43.38637920921938" lon="11.392716783618889"><ele>429.19999999999993</ele><time>2026-04-11T04:40:46Z</time></trkpt><trkpt lat="43.38645748425501" lon="11.392644697799726"><ele>429.8</ele><time>2026-04-11T04:40:49Z</time></trkpt><trkpt lat="43.38653649653624" lon="11.392578741295827"><ele>430.4</ele><time>2026-04-11T04:40:52Z</time></trkpt><trkpt lat="43.38666235677205" lon="11.392449849129282"><ele>431.0</ele><time>2026-04-11T04:40:58Z</time></trkpt><trkpt lat="43.38671208450134" lon="11.39239605849524"><ele>430.99999999999994</ele><time>2026-04-11T04:41:00Z</time></trkpt><trkpt lat="43.38678420107965" lon="11.392328308337909"><ele>431.0</ele><time>2026-04-11T04:41:03Z</time></trkpt><trkpt lat="43.38685180068964" lon="11.392261316223546"><ele>431.0</ele><time>2026-04-11T04:41:06Z</time></trkpt><trkpt lat="43.386922875974605" lon="11.39218528028697"><ele>431.0</ele><time>2026-04-11T04:41:09Z</time></trkpt><trkpt lat="43.38697159079758" lon="11.392126419326333"><ele>430.99999999999994</ele><time>2026-04-11T04:41:11Z</time></trkpt><trkpt lat="43.38703237323984" lon="11.392038434670125"><ele>431.0</ele><time>2026-04-11T04:41:14Z</time></trkpt><trkpt lat="43.387127498361416" lon="11.391891083935112"><ele>431.49999999999994</ele><time>2026-04-11T04:41:18Z</time></trkpt><trkpt lat="43.38718347501978" lon="11.391809474246104"><ele>432.0</ele><time>2026-04-11T04:41:20Z</time></trkpt><trkpt lat="43.387238598876685" lon="11.391718430962408"><ele>432.5</ele><time>2026-04-11T04:41:22Z</time></trkpt><trkpt lat="43.38728910378893" lon="11.391637127015837"><ele>433.0</ele><time>2026-04-11T04:41:24Z</time></trkpt><trkpt lat="43.38735162840168" lon="11.391547598716626"><ele>433.49999999999994</ele><time>2026-04-11T04:41:26Z</time></trkpt><trkpt lat="43.38741732009927" lon="11.391456889519654"><ele>434.0</ele><time>2026-04-11T04:41:28Z</time></trkpt><trkpt lat="43.3874833300366" lon="11.391347321135921"><ele>434.5</ele><time>2026-04-11T04:41:30Z</time></trkpt><trkpt lat="43.38755557837529" lon="11.39123745719213"><ele>435.0</ele><time>2026-04-11T04:41:32Z</time></trkpt><trkpt lat="43.3876123479082" lon="11.391150027543825"><ele>435.5</ele><time>2026-04-11T04:41:34Z</time></trkpt><trkpt lat="43.387667233901894" lon="11.39103621136685"><ele>436.0</ele><time>2026-04-11T04:41:36Z</time></trkpt><trkpt lat="43.38780427881449" lon="11.390809687253892"><ele>436.0</ele><time>2026-04-11T04:41:40Z</time></trkpt><trkpt lat="43.387892895297654" lon="11.3907266730312"><ele>436.0</ele><time>2026-04-11T04:41:42Z</time></trkpt><trkpt lat="43.3879811509288" lon="11.390609162291335"><ele>436.0</ele><time>2026-04-11T04:41:44Z</time></trkpt><trkpt lat="43.38806188746689" lon="11.390490565903942"><ele>436.0</ele><time>2026-04-11T04:41:46Z</time></trkpt><trkpt lat="43.388099276273906" lon="11.390419283857664"><ele>436.0</ele><time>2026-04-11T04:41:47Z</time></trkpt><trkpt lat="43.38811541007443" lon="11.39030601292473"><ele>434.6666666666667</ele><time>2026-04-11T04:41:48Z</time></trkpt><trkpt lat="43.388126203860175" lon="11.390198929096245"><ele>433.33333333333337</ele><time>2026-04-11T04:41:49Z</time></trkpt><trkpt lat="43.38814220653994" lon="11.390095112022175"><ele>432.0</ele><time>2026-04-11T04:41:50Z</time></trkpt><trkpt lat="43.38815178158725" lon="11.389995039591893"><ele>430.66666666666663</ele><time>2026-04-11T04:41:51Z</time></trkpt><trkpt lat="43.38815551459084" lon="11.389857695322048"><ele>429.3333333333333</ele><time>2026-04-11T04:41:52Z</time></trkpt><trkpt lat="43.38818145328201" lon="11.389738385423106"><ele>428.0</ele><time>2026-04-11T04:41:53Z</time></trkpt><trkpt lat="43.3882068358433" lon="11.389607568849593"><ele>427.75</ele><time>2026-04-11T04:41:54Z</time></trkpt><trkpt lat="43.388256808875866" lon="11.389489190385826"><ele>427.5</ele><time>2026-04-11T04:41:55Z</time></trkpt><trkpt lat="43.388301289213956" lon="11.389372552616209"><ele>427.25</ele><time>2026-04-11T04:41:56Z</time></trkpt><trkpt lat="43.38835323660657" lon="11.389254166930234"><ele>427.0</ele><time>2026-04-11T04:41:57Z</time></trkpt><trkpt lat="43.3884614342889" lon="11.389016940771512"><ele>427.0</ele><time>2026-04-11T04:41:59Z</time></trkpt><trkpt lat="43.38852549347959" lon="11.388907864224599"><ele>427.00000000000006</ele><time>2026-04-11T04:42:00Z</time></trkpt><trkpt lat="43.38856128626992" lon="11.388797212013506"><ele>427.00000000000006</ele><time>2026-04-11T04:42:01Z</time></trkpt><trkpt lat="43.388611922785365" lon="11.388670216880683"><ele>427.0</ele><time>2026-04-11T04:42:02Z</time></trkpt><trkpt lat="43.38867796923041" lon="11.388544259751152"><ele>427.0</ele><time>2026-04-11T04:42:03Z</time></trkpt><trkpt lat="43.388734589767104" lon="11.388418349588722"><ele>427.40000000000003</ele><time>2026-04-11T04:42:04Z</time></trkpt><trkpt lat="43.38878825770137" lon="11.38828763646189"><ele>427.80000000000007</ele><time>2026-04-11T04:42:05Z</time></trkpt><trkpt lat="43.38884209234072" lon="11.388170870169649"><ele>428.2</ele><time>2026-04-11T04:42:06Z</time></trkpt><trkpt lat="43.38889435428" lon="11.388051646250734"><ele>428.6</ele><time>2026-04-11T04:42:07Z</time></trkpt><trkpt lat="43.38894697773815" lon="11.387931141625765"><ele>429.0</ele><time>2026-04-11T04:42:08Z</time></trkpt><trkpt lat="43.3889984699233" lon="11.38781164341843"><ele>427.6</ele><time>2026-04-11T04:42:09Z</time></trkpt><trkpt lat="43.38904918967608" lon="11.387691970817544"><ele>426.2</ele><time>2026-04-11T04:42:10Z</time></trkpt><trkpt lat="43.389088887826404" lon="11.387571650446006"><ele>424.8</ele><time>2026-04-11T04:42:11Z</time></trkpt><trkpt lat="43.38912668595167" lon="11.387449012802875"><ele>423.40000000000003</ele><time>2026-04-11T04:42:12Z</time></trkpt><trkpt lat="43.38918043558454" lon="11.387339519427634"><ele>422.0</ele><time>2026-04-11T04:42:13Z</time></trkpt><trkpt lat="43.38923348733766" lon="11.387232502748567"><ele>422.6</ele><time>2026-04-11T04:42:14Z</time></trkpt><trkpt lat="43.389289153328434" lon="11.387133356460724"><ele>423.20000000000005</ele><time>2026-04-11T04:42:15Z</time></trkpt><trkpt lat="43.38934510695555" lon="11.387036680659152"><ele>423.8</ele><time>2026-04-11T04:42:16Z</time></trkpt><trkpt lat="43.38939787454052" lon="11.386944849823884"><ele>424.4</ele><time>2026-04-11T04:42:17Z</time></trkpt><trkpt lat="43.38943563514876" lon="11.38684315382576"><ele>425.0</ele><time>2026-04-11T04:42:18Z</time></trkpt><trkpt lat="43.389521587013874" lon="11.386651251189628"><ele>424.99999999999994</ele><time>2026-04-11T04:42:20Z</time></trkpt><trkpt lat="43.38956726585326" lon="11.38655560586549"><ele>425.0</ele><time>2026-04-11T04:42:21Z</time></trkpt><trkpt lat="43.38961221774846" lon="11.386461082866141"><ele>425.0</ele><time>2026-04-11T04:42:22Z</time></trkpt><trkpt lat="43.38965412129676" lon="11.38636710079003"><ele>425.0</ele><time>2026-04-11T04:42:23Z</time></trkpt><trkpt lat="43.389692982637555" lon="11.386273267161833"><ele>424.99999999999994</ele><time>2026-04-11T04:42:24Z</time></trkpt><trkpt lat="43.389722835324086" lon="11.386172489559168"><ele>425.0</ele><time>2026-04-11T04:42:25Z</time></trkpt><trkpt lat="43.38975984309821" lon="11.386076982805621"><ele>424.49999999999994</ele><time>2026-04-11T04:42:26Z</time></trkpt><trkpt lat="43.38978884507501" lon="11.385975025911572"><ele>424.0</ele><time>2026-04-11T04:42:27Z</time></trkpt><trkpt lat="43.389824634009074" lon="11.385881027502801"><ele>423.5</ele><time>2026-04-11T04:42:28Z</time></trkpt><trkpt lat="43.38986097086754" lon="11.38579633356956"><ele>423.0</ele><time>2026-04-11T04:42:29Z</time></trkpt><trkpt lat="43.38993831148311" lon="11.385726132019231"><ele>422.49999999999994</ele><time>2026-04-11T04:42:30Z</time></trkpt><trkpt lat="43.39000802816008" lon="11.385667629381677"><ele>422.0</ele><time>2026-04-11T04:42:31Z</time></trkpt><trkpt lat="43.39011489595492" lon="11.385565104779117"><ele>422.0</ele><time>2026-04-11T04:42:33Z</time></trkpt><trkpt lat="43.39017501254474" lon="11.385523410502389"><ele>422.0</ele><time>2026-04-11T04:42:34Z</time></trkpt><trkpt lat="43.39023900102074" lon="11.385477122516088"><ele>422.0</ele><time>2026-04-11T04:42:35Z</time></trkpt><trkpt lat="43.390308634324946" lon="11.385435669030914"><ele>422.0</ele><time>2026-04-11T04:42:36Z</time></trkpt><trkpt lat="43.390377014218515" lon="11.385395530489971"><ele>422.0</ele><time>2026-04-11T04:42:37Z</time></trkpt><trkpt lat="43.390440796563496" lon="11.385351688984576"><ele>422.0</ele><time>2026-04-11T04:42:38Z</time></trkpt><trkpt lat="43.3905086321199" lon="11.385311960416313"><ele>422.0</ele><time>2026-04-11T04:42:39Z</time></trkpt><trkpt lat="43.39063740172849" lon="11.385210168162885"><ele>422.2857142857143</ele><time>2026-04-11T04:42:41Z</time></trkpt><trkpt lat="43.39069639386095" lon="11.385155332836337"><ele>422.57142857142856</ele><time>2026-04-11T04:42:42Z</time></trkpt><trkpt lat="43.390757512193005" lon="11.385100621252919"><ele>422.8571428571429</ele><time>2026-04-11T04:42:43Z</time></trkpt><trkpt lat="43.3908183404127" lon="11.385045701706282"><ele>423.1428571428571</ele><time>2026-04-11T04:42:44Z</time></trkpt><trkpt lat="43.390878766481755" lon="11.384997136568295"><ele>423.4285714285714</ele><time>2026-04-11T04:42:45Z</time></trkpt><trkpt lat="43.39094033626978" lon="11.38494757170615"><ele>423.7142857142857</ele><time>2026-04-11T04:42:46Z</time></trkpt><trkpt lat="43.3910012146473" lon="11.384896623220316"><ele>424.0</ele><time>2026-04-11T04:42:47Z</time></trkpt><trkpt lat="43.39106244719378" lon="11.384844186035279"><ele>424.0</ele><time>2026-04-11T04:42:48Z</time></trkpt><trkpt lat="43.39111928179175" lon="11.384790921594824"><ele>424.0</ele><time>2026-04-11T04:42:49Z</time></trkpt><trkpt lat="43.39117690794148" lon="11.384735895214588"><ele>424.0</ele><time>2026-04-11T04:42:50Z</time></trkpt><trkpt lat="43.39123344558823" lon="11.384683452588414"><ele>424.0</ele><time>2026-04-11T04:42:51Z</time></trkpt><trkpt lat="43.39128916265495" lon="11.384638260742934"><ele>424.0</ele><time>2026-04-11T04:42:52Z</time></trkpt><trkpt lat="43.391348423029775" lon="11.384589933225582"><ele>424.0</ele><time>2026-04-11T04:42:53Z</time></trkpt><trkpt lat="43.39140132148083" lon="11.384535810570867"><ele>424.0</ele><time>2026-04-11T04:42:54Z</time></trkpt><trkpt lat="43.39145248428775" lon="11.384481359631044"><ele>424.1666666666667</ele><time>2026-04-11T04:42:55Z</time></trkpt><trkpt lat="43.39150823214446" lon="11.384425246118749"><ele>424.33333333333337</ele><time>2026-04-11T04:42:56Z</time></trkpt><trkpt lat="43.391568468637054" lon="11.384375385327765"><ele>424.5</ele><time>2026-04-11T04:42:57Z</time></trkpt><trkpt lat="43.391627579950914" lon="11.384328537165018"><ele>424.66666666666663</ele><time>2026-04-11T04:42:58Z</time></trkpt><trkpt lat="43.39168307226287" lon="11.384274930295211"><ele>424.8333333333333</ele><time>2026-04-11T04:42:59Z</time></trkpt><trkpt lat="43.3917357681951" lon="11.384217279363051"><ele>425.0</ele><time>2026-04-11T04:43:00Z</time></trkpt><trkpt lat="43.39182891483819" lon="11.384084375274817"><ele>424.99999999999994</ele><time>2026-04-11T04:43:02Z</time></trkpt><trkpt lat="43.391877019356514" lon="11.384016636041245"><ele>425.0</ele><time>2026-04-11T04:43:03Z</time></trkpt><trkpt lat="43.391922468173355" lon="11.383935644662978"><ele>425.0</ele><time>2026-04-11T04:43:04Z</time></trkpt><trkpt lat="43.39195269844099" lon="11.383840769184571"><ele>425.0</ele><time>2026-04-11T04:43:05Z</time></trkpt><trkpt lat="43.39198062581046" lon="11.383684984901274"><ele>424.99999999999994</ele><time>2026-04-11T04:43:07Z</time></trkpt><trkpt lat="43.39199069631825" lon="11.383571467828894"><ele>425.0</ele><time>2026-04-11T04:43:08Z</time></trkpt><trkpt lat="43.39200004372524" lon="11.383484064415201"><ele>424.99999999999994</ele><time>2026-04-11T04:43:09Z</time></trkpt><trkpt lat="43.392005667612324" lon="11.383365932618513"><ele>425.0</ele><time>2026-04-11T04:43:10Z</time></trkpt><trkpt lat="43.392013517601555" lon="11.383263365173644"><ele>425.0</ele><time>2026-04-11T04:43:11Z</time></trkpt><trkpt lat="43.39202987275712" lon="11.38316421436959"><ele>425.0</ele><time>2026-04-11T04:43:12Z</time></trkpt><trkpt lat="43.392051541448815" lon="11.38306964220808"><ele>424.99999999999994</ele><time>2026-04-11T04:43:13Z</time></trkpt><trkpt lat="43.39207922838896" lon="11.382976552488616"><ele>425.0</ele><time>2026-04-11T04:43:14Z</time></trkpt><trkpt lat="43.39211732276794" lon="11.382878758558677"><ele>424.99999999999994</ele><time>2026-04-11T04:43:15Z</time></trkpt><trkpt lat="43.39215528456994" lon="11.382789441242492"><ele>425.0</ele><time>2026-04-11T04:43:16Z</time></trkpt><trkpt lat="43.392205037241176" lon="11.38271655345094"><ele>425.0</ele><time>2026-04-11T04:43:17Z</time></trkpt><trkpt lat="43.39225571453766" lon="11.382643715226068"><ele>425.0</ele><time>2026-04-11T04:43:18Z</time></trkpt><trkpt lat="43.39231706190669" lon="11.38258118598094"><ele>424.99999999999994</ele><time>2026-04-11T04:43:19Z</time></trkpt><trkpt lat="43.39239406827422" lon="11.38251886284043"><ele>425.0</ele><time>2026-04-11T04:43:20Z</time></trkpt><trkpt lat="43.392445336917184" lon="11.382460059737783"><ele>425.0</ele><time>2026-04-11T04:43:21Z</time></trkpt><trkpt lat="43.3925963190136" lon="11.38229727916663"><ele>425.0</ele><time>2026-04-11T04:43:24Z</time></trkpt><trkpt lat="43.392666877445784" lon="11.3822438688145"><ele>425.0</ele><time>2026-04-11T04:43:25Z</time></trkpt><trkpt lat="43.39273814589593" lon="11.382195483328026"><ele>425.0</ele><time>2026-04-11T04:43:26Z</time></trkpt><trkpt lat="43.39280755914611" lon="11.382147460363495"><ele>425.0</ele><time>2026-04-11T04:43:27Z</time></trkpt><trkpt lat="43.392860637259375" lon="11.382077912242954"><ele>425.16666666666663</ele><time>2026-04-11T04:43:28Z</time></trkpt><trkpt lat="43.39292240609179" lon="11.382037760058987"><ele>425.3333333333333</ele><time>2026-04-11T04:43:29Z</time></trkpt><trkpt lat="43.392987869829845" lon="11.381984294059027"><ele>425.5</ele><time>2026-04-11T04:43:30Z</time></trkpt><trkpt lat="43.393052990155496" lon="11.38192980754092"><ele>425.66666666666663</ele><time>2026-04-11T04:43:31Z</time></trkpt><trkpt lat="43.39311678237458" lon="11.38187697060204"><ele>425.8333333333333</ele><time>2026-04-11T04:43:32Z</time></trkpt><trkpt lat="43.39318152357538" lon="11.381824837079392"><ele>426.0</ele><time>2026-04-11T04:43:33Z</time></trkpt><trkpt lat="43.39325246404146" lon="11.381775296903745"><ele>425.0</ele><time>2026-04-11T04:43:34Z</time></trkpt><trkpt lat="43.393307574742245" lon="11.38170408287336"><ele>424.0</ele><time>2026-04-11T04:43:35Z</time></trkpt><trkpt lat="43.39337877927685" lon="11.381645741234745"><ele>423.0</ele><time>2026-04-11T04:43:36Z</time></trkpt><trkpt lat="43.39345109867603" lon="11.38158859954217"><ele>422.0</ele><time>2026-04-11T04:43:37Z</time></trkpt><trkpt lat="43.39358525502381" lon="11.38149506773921"><ele>421.0</ele><time>2026-04-11T04:43:39Z</time></trkpt><trkpt lat="43.393659693150404" lon="11.38145460144325"><ele>421.0</ele><time>2026-04-11T04:43:40Z</time></trkpt><trkpt lat="43.39373014823216" lon="11.381407711559945"><ele>421.0</ele><time>2026-04-11T04:43:41Z</time></trkpt><trkpt lat="43.39379817427484" lon="11.3813570477543"><ele>421.0</ele><time>2026-04-11T04:43:42Z</time></trkpt><trkpt lat="43.393938967066426" lon="11.381272564430207"><ele>421.0</ele><time>2026-04-11T04:43:44Z</time></trkpt><trkpt lat="43.39401080571271" lon="11.381234909388018"><ele>421.0</ele><time>2026-04-11T04:43:45Z</time></trkpt><trkpt lat="43.394087186782265" lon="11.381202574508709"><ele>420.00000000000006</ele><time>2026-04-11T04:43:46Z</time></trkpt><trkpt lat="43.39416402716658" lon="11.381171216993424"><ele>419.0</ele><time>2026-04-11T04:43:47Z</time></trkpt><trkpt lat="43.39424222219281" lon="11.381139297332874"><ele>418.0</ele><time>2026-04-11T04:43:48Z</time></trkpt><trkpt lat="43.394328035419996" lon="11.381106571006761"><ele>417.0</ele><time>2026-04-11T04:43:49Z</time></trkpt><trkpt lat="43.39441054437124" lon="11.381078319781013"><ele>416.00000000000006</ele><time>2026-04-11T04:43:50Z</time></trkpt><trkpt lat="43.39449638710473" lon="11.381054225615944"><ele>415.0</ele><time>2026-04-11T04:43:51Z</time></trkpt><trkpt lat="43.39457643972709" lon="11.381034600741769"><ele>415.00000000000006</ele><time>2026-04-11T04:43:52Z</time></trkpt><trkpt lat="43.39466411541243" lon="11.381012941601709"><ele>415.0</ele><time>2026-04-11T04:43:53Z</time></trkpt><trkpt lat="43.394748990273996" lon="11.380999111629581"><ele>415.0</ele><time>2026-04-11T04:43:54Z</time></trkpt><trkpt lat="43.39482872853061" lon="11.3809884528608"><ele>415.0</ele><time>2026-04-11T04:43:55Z</time></trkpt><trkpt lat="43.3949170430426" lon="11.380982007220187"><ele>415.00000000000006</ele><time>2026-04-11T04:43:56Z</time></trkpt><trkpt lat="43.39500535897798" lon="11.380980453452167"><ele>415.0</ele><time>2026-04-11T04:43:57Z</time></trkpt><trkpt lat="43.39508948665234" lon="11.380980339421074"><ele>415.1666666666667</ele><time>2026-04-11T04:43:58Z</time></trkpt><trkpt lat="43.39517634757597" lon="11.38098297748337"><ele>415.33333333333337</ele><time>2026-04-11T04:43:59Z</time></trkpt><trkpt lat="43.3952594814412" lon="11.380983339443505"><ele>415.5</ele><time>2026-04-11T04:44:00Z</time></trkpt><trkpt lat="43.3953443314057" lon="11.38098997904869"><ele>415.66666666666663</ele><time>2026-04-11T04:44:01Z</time></trkpt><trkpt lat="43.39542953434238" lon="11.38100549394178"><ele>415.8333333333333</ele><time>2026-04-11T04:44:02Z</time></trkpt><trkpt lat="43.395514344253" lon="11.381028946441944"><ele>416.0</ele><time>2026-04-11T04:44:03Z</time></trkpt><trkpt lat="43.39568829345786" lon="11.38105161165044"><ele>415.3333333333333</ele><time>2026-04-11T04:44:05Z</time></trkpt><trkpt lat="43.395774221639925" lon="11.3810598992904"><ele>414.66666666666663</ele><time>2026-04-11T04:44:06Z</time></trkpt><trkpt lat="43.39586062184849" lon="11.38106546653112"><ele>414.0</ele><time>2026-04-11T04:44:07Z</time></trkpt><trkpt lat="43.3959444461027" lon="11.381061598146188"><ele>413.33333333333337</ele><time>2026-04-11T04:44:08Z</time></trkpt><trkpt lat="43.39602484841624" lon="11.381049257879067"><ele>412.6666666666667</ele><time>2026-04-11T04:44:09Z</time></trkpt><trkpt lat="43.396103886784374" lon="11.381020536427446"><ele>412.0</ele><time>2026-04-11T04:44:10Z</time></trkpt><trkpt lat="43.39617895882779" lon="11.380982797134354"><ele>412.00000000000006</ele><time>2026-04-11T04:44:11Z</time></trkpt><trkpt lat="43.396251409286265" lon="11.380934616542902"><ele>412.0</ele><time>2026-04-11T04:44:12Z</time></trkpt><trkpt lat="43.39632038104046" lon="11.380882629149857"><ele>412.0</ele><time>2026-04-11T04:44:13Z</time></trkpt><trkpt lat="43.39638370229047" lon="11.380815502922346"><ele>412.0</ele><time>2026-04-11T04:44:14Z</time></trkpt><trkpt lat="43.39643842585664" lon="11.380735041187968"><ele>412.00000000000006</ele><time>2026-04-11T04:44:15Z</time></trkpt><trkpt lat="43.39648314672052" lon="11.380642058562835"><ele>412.0</ele><time>2026-04-11T04:44:16Z</time></trkpt><trkpt lat="43.39652264704732" lon="11.38054829759718"><ele>411.50000000000006</ele><time>2026-04-11T04:44:17Z</time></trkpt><trkpt lat="43.39655874374831" lon="11.380451673223757"><ele>411.0</ele><time>2026-04-11T04:44:18Z</time></trkpt><trkpt lat="43.39659324753031" lon="11.380352201812407"><ele>410.5</ele><time>2026-04-11T04:44:19Z</time></trkpt><trkpt lat="43.39661888875989" lon="11.380252599262574"><ele>410.0</ele><time>2026-04-11T04:44:20Z</time></trkpt><trkpt lat="43.396643296809074" lon="11.380154966507135"><ele>409.50000000000006</ele><time>2026-04-11T04:44:21Z</time></trkpt><trkpt lat="43.39666142199486" lon="11.380053889614528"><ele>409.0</ele><time>2026-04-11T04:44:22Z</time></trkpt><trkpt lat="43.39668086462634" lon="11.379957134467748"><ele>409.00000000000006</ele><time>2026-04-11T04:44:23Z</time></trkpt><trkpt lat="43.39669723389784" lon="11.379859059335505"><ele>409.0</ele><time>2026-04-11T04:44:24Z</time></trkpt><trkpt lat="43.39673463801887" lon="11.379673124650562"><ele>409.0</ele><time>2026-04-11T04:44:26Z</time></trkpt><trkpt lat="43.396751850577736" lon="11.37958116802779"><ele>409.0</ele><time>2026-04-11T04:44:27Z</time></trkpt><trkpt lat="43.39676779746949" lon="11.379494941581623"><ele>409.00000000000006</ele><time>2026-04-11T04:44:28Z</time></trkpt><trkpt lat="43.396774272583386" lon="11.379407829827196"><ele>409.0</ele><time>2026-04-11T04:44:29Z</time></trkpt><trkpt lat="43.39678790676406" lon="11.379322800996558"><ele>410.25</ele><time>2026-04-11T04:44:30Z</time></trkpt><trkpt lat="43.39681951269373" lon="11.379161062330416"><ele>411.5</ele><time>2026-04-11T04:44:32Z</time></trkpt><trkpt lat="43.3968534270297" lon="11.379006879402533"><ele>412.75</ele><time>2026-04-11T04:44:34Z</time></trkpt><trkpt lat="43.39688759961266" lon="11.378858449123538"><ele>414.0</ele><time>2026-04-11T04:44:36Z</time></trkpt><trkpt lat="43.39692860818437" lon="11.378722085948436"><ele>414.0</ele><time>2026-04-11T04:44:38Z</time></trkpt><trkpt lat="43.39698672401441" lon="11.378594091378934"><ele>414.0</ele><time>2026-04-11T04:44:40Z</time></trkpt><trkpt lat="43.39704403545572" lon="11.37848224414635"><ele>414.0</ele><time>2026-04-11T04:44:42Z</time></trkpt><trkpt lat="43.397100312652945" lon="11.378374851406281"><ele>414.0</ele><time>2026-04-11T04:44:44Z</time></trkpt><trkpt lat="43.39715350172555" lon="11.378276610253772"><ele>414.0</ele><time>2026-04-11T04:44:46Z</time></trkpt><trkpt lat="43.39727119682848" lon="11.37806298995436"><ele>415.0</ele><time>2026-04-11T04:44:50Z</time></trkpt><trkpt lat="43.39732145665416" lon="11.377951568190893"><ele>416.0</ele><time>2026-04-11T04:44:52Z</time></trkpt><trkpt lat="43.39738043342954" lon="11.377851865096686"><ele>417.0</ele><time>2026-04-11T04:44:54Z</time></trkpt><trkpt lat="43.39744235389665" lon="11.377748700104828"><ele>418.0</ele><time>2026-04-11T04:44:56Z</time></trkpt><trkpt lat="43.39749715911084" lon="11.37764791977527"><ele>419.0</ele><time>2026-04-11T04:44:58Z</time></trkpt><trkpt lat="43.3975598005845" lon="11.377560635497696"><ele>419.0</ele><time>2026-04-11T04:45:00Z</time></trkpt><trkpt lat="43.397609912808754" lon="11.3774969148874"><ele>419.0</ele><time>2026-04-11T04:45:01Z</time></trkpt><trkpt lat="43.39767115038923" lon="11.37740762657421"><ele>419.0</ele><time>2026-04-11T04:45:03Z</time></trkpt><trkpt lat="43.39773145200608" lon="11.377307039644966"><ele>419.0</ele><time>2026-04-11T04:45:05Z</time></trkpt><trkpt lat="43.397800534466604" lon="11.37720597421473"><ele>419.0</ele><time>2026-04-11T04:45:07Z</time></trkpt><trkpt lat="43.39794424223242" lon="11.37700750880596"><ele>419.3333333333333</ele><time>2026-04-11T04:45:11Z</time></trkpt><trkpt lat="43.39802487431348" lon="11.37688938774813"><ele>419.66666666666663</ele><time>2026-04-11T04:45:13Z</time></trkpt><trkpt lat="43.398107869140226" lon="11.376808496172004"><ele>420.0</ele><time>2026-04-11T04:45:15Z</time></trkpt><trkpt lat="43.39814986513928" lon="11.376733515707459"><ele>420.33333333333337</ele><time>2026-04-11T04:45:18Z</time></trkpt><trkpt lat="43.39819716003172" lon="11.376662692322984"><ele>420.6666666666667</ele><time>2026-04-11T04:45:20Z</time></trkpt><trkpt lat="43.39825220303769" lon="11.376586622922952"><ele>421.0</ele><time>2026-04-11T04:45:22Z</time></trkpt><trkpt lat="43.39830908458481" lon="11.376515425438619"><ele>421.0</ele><time>2026-04-11T04:45:24Z</time></trkpt><trkpt lat="43.39837900237317" lon="11.376438156853586"><ele>421.0</ele><time>2026-04-11T04:45:26Z</time></trkpt><trkpt lat="43.39844817873323" lon="11.376384420344062"><ele>421.0</ele><time>2026-04-11T04:45:27Z</time></trkpt><trkpt lat="43.39850981692292" lon="11.376345395074717"><ele>421.0</ele><time>2026-04-11T04:45:28Z</time></trkpt><trkpt lat="43.3986717804918" lon="11.376210036797517"><ele>421.0</ele><time>2026-04-11T04:45:33Z</time></trkpt><trkpt lat="43.39873166494256" lon="11.376166750220776"><ele>421.33333333333337</ele><time>2026-04-11T04:45:35Z</time></trkpt><trkpt lat="43.39879745444095" lon="11.376140249128898"><ele>421.6666666666667</ele><time>2026-04-11T04:45:37Z</time></trkpt><trkpt lat="43.39888891649569" lon="11.37611184980874"><ele>422.0</ele><time>2026-04-11T04:45:40Z</time></trkpt><trkpt lat="43.3989651188121" lon="11.376087787326336"><ele>422.33333333333337</ele><time>2026-04-11T04:45:42Z</time></trkpt><trkpt lat="43.39905157634633" lon="11.376063246826202"><ele>422.6666666666667</ele><time>2026-04-11T04:45:44Z</time></trkpt><trkpt lat="43.39914295638638" lon="11.376029674027272"><ele>423.0</ele><time>2026-04-11T04:45:46Z</time></trkpt><trkpt lat="43.399207747722606" lon="11.376009787288089"><ele>424.0</ele><time>2026-04-11T04:45:48Z</time></trkpt><trkpt lat="43.39927410122793" lon="11.375982416460722"><ele>425.0</ele><time>2026-04-11T04:45:50Z</time></trkpt><trkpt lat="43.39943895440581" lon="11.375904365490797"><ele>425.99999999999994</ele><time>2026-04-11T04:45:56Z</time></trkpt><trkpt lat="43.39950382913304" lon="11.37589984007686"><ele>427.0</ele><time>2026-04-11T04:45:58Z</time></trkpt><trkpt lat="43.39956543145891" lon="11.375806681642706"><ele>428.0</ele><time>2026-04-11T04:46:01Z</time></trkpt><trkpt lat="43.399629948607554" lon="11.37572537213828"><ele>429.0</ele><time>2026-04-11T04:46:04Z</time></trkpt><trkpt lat="43.39967973005295" lon="11.375643765540117"><ele>429.99999999999994</ele><time>2026-04-11T04:46:07Z</time></trkpt><trkpt lat="43.39973025849548" lon="11.375557513805603"><ele>430.99999999999994</ele><time>2026-04-11T04:46:10Z</time></trkpt><trkpt lat="43.3997609638372" lon="11.375459830733991"><ele>432.0</ele><time>2026-04-11T04:46:13Z</time></trkpt><trkpt lat="43.39987783982205" lon="11.37529158316889"><ele>433.0</ele><time>2026-04-11T04:46:19Z</time></trkpt><trkpt lat="43.399929647976876" lon="11.375207438613439"><ele>433.59999999999997</ele><time>2026-04-11T04:46:22Z</time></trkpt><trkpt lat="43.399986371854375" lon="11.375129024187844"><ele>434.19999999999993</ele><time>2026-04-11T04:46:25Z</time></trkpt><trkpt lat="43.40002934640087" lon="11.375037974528201"><ele>434.8</ele><time>2026-04-11T04:46:28Z</time></trkpt><trkpt lat="43.400082818539055" lon="11.374949071752932"><ele>435.4</ele><time>2026-04-11T04:46:31Z</time></trkpt><trkpt lat="43.40012772175934" lon="11.37487575128021"><ele>436.0</ele><time>2026-04-11T04:46:34Z</time></trkpt><trkpt lat="43.40023886919894" lon="11.374706175341558"><ele>436.0</ele><time>2026-04-11T04:46:40Z</time></trkpt><trkpt lat="43.40028641481039" lon="11.374628536281305"><ele>436.0</ele><time>2026-04-11T04:46:43Z</time></trkpt><trkpt lat="43.400323266686286" lon="11.374544381559465"><ele>436.0</ele><time>2026-04-11T04:46:46Z</time></trkpt><trkpt lat="43.40037461190668" lon="11.374481604743204"><ele>436.0</ele><time>2026-04-11T04:46:48Z</time></trkpt><trkpt lat="43.400410895016954" lon="11.37440659375549"><ele>436.0</ele><time>2026-04-11T04:46:51Z</time></trkpt><trkpt lat="43.40046401554797" lon="11.37432111323216"><ele>436.0</ele><time>2026-04-11T04:46:54Z</time></trkpt><trkpt lat="43.400495737905786" lon="11.374241648617332"><ele>436.0</ele><time>2026-04-11T04:46:57Z</time></trkpt><trkpt lat="43.40055987150902" lon="11.374063154640458"><ele>436.00000000000006</ele><time>2026-04-11T04:47:03Z</time></trkpt><trkpt lat="43.400593732267" lon="11.37396390857425"><ele>436.0</ele><time>2026-04-11T04:47:06Z</time></trkpt><trkpt lat="43.40061308057657" lon="11.373849467529032"><ele>436.0</ele><time>2026-04-11T04:47:09Z</time></trkpt><trkpt lat="43.40062785979219" lon="11.373759610266616"><ele>436.0</ele><time>2026-04-11T04:47:11Z</time></trkpt><trkpt lat="43.400643759389126" lon="11.373660677051591"><ele>436.00000000000006</ele><time>2026-04-11T04:47:13Z</time></trkpt><trkpt lat="43.40066347676005" lon="11.373544209888854"><ele>436.0</ele><time>2026-04-11T04:47:15Z</time></trkpt><trkpt lat="43.40069602955013" lon="11.373425744118883"><ele>436.0</ele><time>2026-04-11T04:47:17Z</time></trkpt><trkpt lat="43.40073578998083" lon="11.373304840325392"><ele>436.0</ele><time>2026-04-11T04:47:19Z</time></trkpt><trkpt lat="43.40087491172473" lon="11.373082635150617"><ele>436.0</ele><time>2026-04-11T04:47:23Z</time></trkpt><trkpt lat="43.40097671548424" lon="11.37297434455657"><ele>436.0</ele><time>2026-04-11T04:47:25Z</time></trkpt><trkpt lat="43.40102822594259" lon="11.372915579082592"><ele>436.0</ele><time>2026-04-11T04:47:26Z</time></trkpt><trkpt lat="43.401082233095025" lon="11.372855548515355"><ele>436.0</ele><time>2026-04-11T04:47:27Z</time></trkpt><trkpt lat="43.40113381066616" lon="11.372795361111212"><ele>436.0</ele><time>2026-04-11T04:47:28Z</time></trkpt><trkpt lat="43.40118226458975" lon="11.37272620871062"><ele>436.0</ele><time>2026-04-11T04:47:29Z</time></trkpt><trkpt lat="43.40122326260784" lon="11.372648774676675"><ele>436.0</ele><time>2026-04-11T04:47:30Z</time></trkpt><trkpt lat="43.40125698650614" lon="11.372562945478377"><ele>436.0</ele><time>2026-04-11T04:47:31Z</time></trkpt><trkpt lat="43.401285380574976" lon="11.37247125591067"><ele>436.0</ele><time>2026-04-11T04:47:32Z</time></trkpt><trkpt lat="43.40129865488776" lon="11.372376331105528"><ele>436.0</ele><time>2026-04-11T04:47:33Z</time></trkpt><trkpt lat="43.40130221711036" lon="11.372274578349215"><ele>436.0</ele><time>2026-04-11T04:47:34Z</time></trkpt><trkpt lat="43.40130508973093" lon="11.372174296327396"><ele>436.0</ele><time>2026-04-11T04:47:35Z</time></trkpt><trkpt lat="43.401309901902565" lon="11.372073367348543"><ele>436.0</ele><time>2026-04-11T04:47:36Z</time></trkpt><trkpt lat="43.40130946411781" lon="11.371970400348147"><ele>436.0</ele><time>2026-04-11T04:47:37Z</time></trkpt><trkpt lat="43.40130436963644" lon="11.37187039083918"><ele>436.0</ele><time>2026-04-11T04:47:38Z</time></trkpt><trkpt lat="43.40129469806575" lon="11.371762557295353"><ele>436.0</ele><time>2026-04-11T04:47:39Z</time></trkpt><trkpt lat="43.401289691358876" lon="11.371661359558063"><ele>435.6</ele><time>2026-04-11T04:47:40Z</time></trkpt><trkpt lat="43.40127891180443" lon="11.371449110400476"><ele>435.20000000000005</ele><time>2026-04-11T04:47:42Z</time></trkpt><trkpt lat="43.40127890424551" lon="11.3713370175783"><ele>434.79999999999995</ele><time>2026-04-11T04:47:43Z</time></trkpt><trkpt lat="43.40128117507489" lon="11.371223779496772"><ele>434.4</ele><time>2026-04-11T04:47:44Z</time></trkpt><trkpt lat="43.401286225318856" lon="11.371110127253196"><ele>434.0</ele><time>2026-04-11T04:47:45Z</time></trkpt><trkpt lat="43.40129265091881" lon="11.370992679466184"><ele>433.3333333333333</ele><time>2026-04-11T04:47:46Z</time></trkpt><trkpt lat="43.40130233529467" lon="11.370871924306542"><ele>432.66666666666663</ele><time>2026-04-11T04:47:47Z</time></trkpt><trkpt lat="43.401311687836696" lon="11.370757091988933"><ele>432.0</ele><time>2026-04-11T04:47:48Z</time></trkpt><trkpt lat="43.401348599441675" lon="11.370632493512185"><ele>431.33333333333337</ele><time>2026-04-11T04:47:49Z</time></trkpt><trkpt lat="43.40137530094704" lon="11.370525288915994"><ele>430.6666666666667</ele><time>2026-04-11T04:47:50Z</time></trkpt><trkpt lat="43.40141069063653" lon="11.370419148299131"><ele>430.0</ele><time>2026-04-11T04:47:51Z</time></trkpt><trkpt lat="43.40145347644841" lon="11.370318462048807"><ele>429.83333333333337</ele><time>2026-04-11T04:47:52Z</time></trkpt><trkpt lat="43.40149076897087" lon="11.370217089860512"><ele>429.6666666666667</ele><time>2026-04-11T04:47:53Z</time></trkpt><trkpt lat="43.40152096830757" lon="11.37011395035827"><ele>429.5</ele><time>2026-04-11T04:47:54Z</time></trkpt><trkpt lat="43.40155228436662" lon="11.37001615835439"><ele>429.33333333333337</ele><time>2026-04-11T04:47:55Z</time></trkpt><trkpt lat="43.40158671050639" lon="11.369914121209971"><ele>429.1666666666667</ele><time>2026-04-11T04:47:56Z</time></trkpt><trkpt lat="43.40161486250034" lon="11.369818089686765"><ele>429.0</ele><time>2026-04-11T04:47:57Z</time></trkpt><trkpt lat="43.401634514221165" lon="11.369716716404323"><ele>429.1666666666667</ele><time>2026-04-11T04:47:58Z</time></trkpt><trkpt lat="43.40165437023398" lon="11.369617700949489"><ele>429.33333333333337</ele><time>2026-04-11T04:47:59Z</time></trkpt><trkpt lat="43.40167197528011" lon="11.369523447591305"><ele>429.5</ele><time>2026-04-11T04:48:00Z</time></trkpt><trkpt lat="43.401684099624724" lon="11.369425453529917"><ele>429.6666666666667</ele><time>2026-04-11T04:48:01Z</time></trkpt><trkpt lat="43.4017150228665" lon="11.36923748764649"><ele>429.83333333333337</ele><time>2026-04-11T04:48:03Z</time></trkpt><trkpt lat="43.40172786146148" lon="11.369147359182577"><ele>430.0</ele><time>2026-04-11T04:48:04Z</time></trkpt><trkpt lat="43.40173794630981" lon="11.369053027124364"><ele>430.0</ele><time>2026-04-11T04:48:05Z</time></trkpt><trkpt lat="43.401750924003906" lon="11.368965533417388"><ele>430.0</ele><time>2026-04-11T04:48:06Z</time></trkpt><trkpt lat="43.40174910551477" lon="11.36887235769047"><ele>430.0</ele><time>2026-04-11T04:48:07Z</time></trkpt><trkpt lat="43.40174241322234" lon="11.368688235328877"><ele>430.0</ele><time>2026-04-11T04:48:09Z</time></trkpt><trkpt lat="43.40175573288469" lon="11.368588140012744"><ele>430.0</ele><time>2026-04-11T04:48:10Z</time></trkpt><trkpt lat="43.40172718974838" lon="11.368432118475948"><ele>430.4</ele><time>2026-04-11T04:48:12Z</time></trkpt><trkpt lat="43.40170679847315" lon="11.368273211167368"><ele>430.8</ele><time>2026-04-11T04:48:14Z</time></trkpt><trkpt lat="43.40169062589243" lon="11.368114781224039"><ele>431.20000000000005</ele><time>2026-04-11T04:48:16Z</time></trkpt><trkpt lat="43.40167322494457" lon="11.367967733926887"><ele>431.6</ele><time>2026-04-11T04:48:18Z</time></trkpt><trkpt lat="43.401660598432436" lon="11.367825629403367"><ele>432.0</ele><time>2026-04-11T04:48:20Z</time></trkpt><trkpt lat="43.401650143171295" lon="11.367686519818688"><ele>432.5</ele><time>2026-04-11T04:48:22Z</time></trkpt><trkpt lat="43.40162921287976" lon="11.36742192909152"><ele>433.0</ele><time>2026-04-11T04:48:26Z</time></trkpt><trkpt lat="43.40161735510953" lon="11.367292615562537"><ele>433.5</ele><time>2026-04-11T04:48:28Z</time></trkpt><trkpt lat="43.401593996649794" lon="11.36717297005409"><ele>434.0</ele><time>2026-04-11T04:48:30Z</time></trkpt><trkpt lat="43.40156567980232" lon="11.367068361394985"><ele>434.14285714285717</ele><time>2026-04-11T04:48:32Z</time></trkpt><trkpt lat="43.40153831124728" lon="11.36696830193792"><ele>434.2857142857143</ele><time>2026-04-11T04:48:34Z</time></trkpt><trkpt lat="43.401499816719976" lon="11.366880549000676"><ele>434.42857142857144</ele><time>2026-04-11T04:48:36Z</time></trkpt><trkpt lat="43.40146638324543" lon="11.36680048987423"><ele>434.57142857142856</ele><time>2026-04-11T04:48:38Z</time></trkpt><trkpt lat="43.40142944359099" lon="11.366723509555218"><ele>434.7142857142857</ele><time>2026-04-11T04:48:40Z</time></trkpt><trkpt lat="43.401397672108935" lon="11.366648212692198"><ele>434.8571428571429</ele><time>2026-04-11T04:48:42Z</time></trkpt><trkpt lat="43.40135373307004" lon="11.366536375609089"><ele>435.0</ele><time>2026-04-11T04:48:45Z</time></trkpt><trkpt lat="43.40128295896651" lon="11.366309186038704"><ele>435.8333333333333</ele><time>2026-04-11T04:48:51Z</time></trkpt><trkpt lat="43.40126777299991" lon="11.366186144864274"><ele>436.66666666666663</ele><time>2026-04-11T04:48:54Z</time></trkpt><trkpt lat="43.40124775906468" lon="11.366070578749936"><ele>437.5</ele><time>2026-04-11T04:48:57Z</time></trkpt><trkpt lat="43.401232242846014" lon="11.365966540786754"><ele>438.3333333333333</ele><time>2026-04-11T04:49:00Z</time></trkpt><trkpt lat="43.401218441102216" lon="11.365848513067007"><ele>439.16666666666663</ele><time>2026-04-11T04:49:03Z</time></trkpt><trkpt lat="43.40119481688451" lon="11.365736092235272"><ele>440.0</ele><time>2026-04-11T04:49:06Z</time></trkpt><trkpt lat="43.40116278053486" lon="11.365504597820197"><ele>439.99999999999994</ele><time>2026-04-11T04:49:12Z</time></trkpt><trkpt lat="43.40114557326537" lon="11.365386926052093"><ele>440.0</ele><time>2026-04-11T04:49:15Z</time></trkpt><trkpt lat="43.4011097709705" lon="11.36528326809296"><ele>440.0</ele><time>2026-04-11T04:49:18Z</time></trkpt><trkpt lat="43.401092337586576" lon="11.365175214389309"><ele>440.0</ele><time>2026-04-11T04:49:21Z</time></trkpt><trkpt lat="43.401091417781494" lon="11.365085195897551"><ele>439.99999999999994</ele><time>2026-04-11T04:49:23Z</time></trkpt><trkpt lat="43.40108566811698" lon="11.364979422663595"><ele>440.0</ele><time>2026-04-11T04:49:25Z</time></trkpt><trkpt lat="43.40107339096096" lon="11.364867301228294"><ele>440.4</ele><time>2026-04-11T04:49:27Z</time></trkpt><trkpt lat="43.40102037719411" lon="11.364631684184614"><ele>440.8</ele><time>2026-04-11T04:49:31Z</time></trkpt><trkpt lat="43.40097901182932" lon="11.364511927470588"><ele>441.20000000000005</ele><time>2026-04-11T04:49:33Z</time></trkpt><trkpt lat="43.40093214136612" lon="11.364403643384723"><ele>441.6</ele><time>2026-04-11T04:49:35Z</time></trkpt><trkpt lat="43.400888882706404" lon="11.36433217404298"><ele>442.0</ele><time>2026-04-11T04:49:37Z</time></trkpt><trkpt lat="43.40082819481061" lon="11.364198267894592"><ele>442.0</ele><time>2026-04-11T04:49:39Z</time></trkpt><trkpt lat="43.400812077854255" lon="11.364063522998963"><ele>442.00000000000006</ele><time>2026-04-11T04:49:41Z</time></trkpt><trkpt lat="43.40078897011903" lon="11.363921937236698"><ele>442.00000000000006</ele><time>2026-04-11T04:49:43Z</time></trkpt><trkpt lat="43.4007870833386" lon="11.363769981062646"><ele>442.0</ele><time>2026-04-11T04:49:45Z</time></trkpt><trkpt lat="43.400803143237475" lon="11.363613861214464"><ele>442.0</ele><time>2026-04-11T04:49:47Z</time></trkpt><trkpt lat="43.40085525735917" lon="11.363485625354175"><ele>441.5</ele><time>2026-04-11T04:49:49Z</time></trkpt><trkpt lat="43.40099622415624" lon="11.363258978180157"><ele>441.0</ele><time>2026-04-11T04:49:53Z</time></trkpt><trkpt lat="43.401057489887314" lon="11.363237639197413"><ele>440.5</ele><time>2026-04-11T04:49:54Z</time></trkpt><trkpt lat="43.40115966611492" lon="11.36319023650415"><ele>440.0</ele><time>2026-04-11T04:49:56Z</time></trkpt><trkpt lat="43.40125971807645" lon="11.363123512982247"><ele>441.8</ele><time>2026-04-11T04:49:58Z</time></trkpt><trkpt lat="43.401350376185945" lon="11.363031912413238"><ele>443.6</ele><time>2026-04-11T04:50:00Z</time></trkpt><trkpt lat="43.40141237130036" lon="11.362900697836546"><ele>445.4</ele><time>2026-04-11T04:50:02Z</time></trkpt><trkpt lat="43.40143177578183" lon="11.362747962903702"><ele>447.2</ele><time>2026-04-11T04:50:04Z</time></trkpt><trkpt lat="43.40143735266914" lon="11.362596675986484"><ele>449.0</ele><time>2026-04-11T04:50:06Z</time></trkpt><trkpt lat="43.401421531707626" lon="11.362445583479296"><ele>449.0</ele><time>2026-04-11T04:50:08Z</time></trkpt><trkpt lat="43.40138832382703" lon="11.36230703324362"><ele>449.0</ele><time>2026-04-11T04:50:10Z</time></trkpt><trkpt lat="43.40133837946887" lon="11.36201782582973"><ele>449.0</ele><time>2026-04-11T04:50:14Z</time></trkpt><trkpt lat="43.4013937438737" lon="11.361877549580493"><ele>449.0</ele><time>2026-04-11T04:50:16Z</time></trkpt><trkpt lat="43.40146844504734" lon="11.361788646127893"><ele>447.75</ele><time>2026-04-11T04:50:18Z</time></trkpt><trkpt lat="43.40156695680651" lon="11.361706360776376"><ele>446.5</ele><time>2026-04-11T04:50:20Z</time></trkpt><trkpt lat="43.40166017303849" lon="11.361619436834289"><ele>445.25</ele><time>2026-04-11T04:50:22Z</time></trkpt><trkpt lat="43.40174557232764" lon="11.361528180289588"><ele>444.0</ele><time>2026-04-11T04:50:24Z</time></trkpt><trkpt lat="43.40184022014469" lon="11.36143345730794"><ele>443.25</ele><time>2026-04-11T04:50:26Z</time></trkpt><trkpt lat="43.40191786001117" lon="11.361320001224614"><ele>442.5</ele><time>2026-04-11T04:50:28Z</time></trkpt><trkpt lat="43.40199170930552" lon="11.361210723299079"><ele>441.75</ele><time>2026-04-11T04:50:30Z</time></trkpt><trkpt lat="43.402089536748115" lon="11.361095635659467"><ele>441.0</ele><time>2026-04-11T04:50:32Z</time></trkpt><trkpt lat="43.40223482613649" lon="11.360979320134472"><ele>441.0</ele><time>2026-04-11T04:50:35Z</time></trkpt><trkpt lat="43.402334432025185" lon="11.360906572645378"><ele>441.0</ele><time>2026-04-11T04:50:37Z</time></trkpt><trkpt lat="43.40244707965744" lon="11.36088006815034"><ele>441.0</ele><time>2026-04-11T04:50:39Z</time></trkpt><trkpt lat="43.40255898507744" lon="11.360882105376414"><ele>441.0</ele><time>2026-04-11T04:50:41Z</time></trkpt><trkpt lat="43.402676682087346" lon="11.36090090569532"><ele>441.0</ele><time>2026-04-11T04:50:43Z</time></trkpt><trkpt lat="43.40274100719278" lon="11.360940826799343"><ele>441.0</ele><time>2026-04-11T04:50:44Z</time></trkpt><trkpt lat="43.40280440231474" lon="11.360946995858274"><ele>441.0</ele><time>2026-04-11T04:50:45Z</time></trkpt><trkpt lat="43.402895792873046" lon="11.360946126433522"><ele>441.0</ele><time>2026-04-11T04:50:47Z</time></trkpt><trkpt lat="43.40300892118416" lon="11.36093964263082"><ele>441.0</ele><time>2026-04-11T04:50:49Z</time></trkpt><trkpt lat="43.40311608501174" lon="11.360912396602263"><ele>441.0</ele><time>2026-04-11T04:50:51Z</time></trkpt><trkpt lat="43.4032167351958" lon="11.360876438093877"><ele>440.5</ele><time>2026-04-11T04:50:53Z</time></trkpt><trkpt lat="43.40340429477414" lon="11.360791696680028"><ele>440.0</ele><time>2026-04-11T04:50:57Z</time></trkpt><trkpt lat="43.403481077385216" lon="11.360714732338915"><ele>439.5</ele><time>2026-04-11T04:50:59Z</time></trkpt><trkpt lat="43.40353673505523" lon="11.360602149392236"><ele>439.0</ele><time>2026-04-11T04:51:01Z</time></trkpt><trkpt lat="43.4035549641451" lon="11.360468403459562"><ele>439.0</ele><time>2026-04-11T04:51:03Z</time></trkpt><trkpt lat="43.403529954344755" lon="11.36033330712084"><ele>439.0</ele><time>2026-04-11T04:51:05Z</time></trkpt><trkpt lat="43.4035211514769" lon="11.36019075940465"><ele>439.0</ele><time>2026-04-11T04:51:07Z</time></trkpt><trkpt lat="43.4035266089289" lon="11.360045492360578"><ele>439.0</ele><time>2026-04-11T04:51:09Z</time></trkpt><trkpt lat="43.403535730827414" lon="11.359895288527103"><ele>439.0</ele><time>2026-04-11T04:51:11Z</time></trkpt><trkpt lat="43.40356696252236" lon="11.359753180520295"><ele>440.5</ele><time>2026-04-11T04:51:13Z</time></trkpt><trkpt lat="43.403599163252295" lon="11.359606881170663"><ele>442.0</ele><time>2026-04-11T04:51:15Z</time></trkpt><trkpt lat="43.40360302180774" lon="11.359307084104817"><ele>443.5</ele><time>2026-04-11T04:51:19Z</time></trkpt><trkpt lat="43.403555796012455" lon="11.359169487488758"><ele>445.0</ele><time>2026-04-11T04:51:21Z</time></trkpt><trkpt lat="43.40347617986121" lon="11.359056296979183"><ele>445.0</ele><time>2026-04-11T04:51:23Z</time></trkpt><trkpt lat="43.40337923996134" lon="11.358985174912142"><ele>445.0</ele><time>2026-04-11T04:51:25Z</time></trkpt><trkpt lat="43.403273312127546" lon="11.358960812081223"><ele>445.0</ele><time>2026-04-11T04:51:27Z</time></trkpt><trkpt lat="43.40317160303544" lon="11.358926964321588"><ele>445.0</ele><time>2026-04-11T04:51:29Z</time></trkpt><trkpt lat="43.403103875715686" lon="11.358878156275214"><ele>445.0</ele><time>2026-04-11T04:51:33Z</time></trkpt><trkpt lat="43.40306933913631" lon="11.35877880079256"><ele>444.25</ele><time>2026-04-11T04:51:35Z</time></trkpt><trkpt lat="43.403041535747626" lon="11.358573030559347"><ele>443.5</ele><time>2026-04-11T04:51:38Z</time></trkpt><trkpt lat="43.40299021129951" lon="11.358369899415976"><ele>442.75</ele><time>2026-04-11T04:51:41Z</time></trkpt><trkpt lat="43.40294225932756" lon="11.358276631835798"><ele>442.0</ele><time>2026-04-11T04:51:42Z</time></trkpt><trkpt lat="43.402921862678774" lon="11.358184463005411"><ele>442.0</ele><time>2026-04-11T04:51:43Z</time></trkpt><trkpt lat="43.40288719399224" lon="11.35809515293636"><ele>442.0</ele><time>2026-04-11T04:51:44Z</time></trkpt><trkpt lat="43.40285483354969" lon="11.357939556085359"><ele>442.0</ele><time>2026-04-11T04:51:46Z</time></trkpt><trkpt lat="43.40281831585668" lon="11.357829923417386"><ele>442.0</ele><time>2026-04-11T04:51:49Z</time></trkpt><trkpt lat="43.402780614493736" lon="11.357471704033848"><ele>442.20000000000005</ele><time>2026-04-11T04:51:52Z</time></trkpt><trkpt lat="43.402831873198295" lon="11.35734017182982"><ele>442.40000000000003</ele><time>2026-04-11T04:51:54Z</time></trkpt><trkpt lat="43.4029131723609" lon="11.357233949780491"><ele>442.59999999999997</ele><time>2026-04-11T04:51:56Z</time></trkpt><trkpt lat="43.403005880985276" lon="11.357166769765584"><ele>442.79999999999995</ele><time>2026-04-11T04:51:58Z</time></trkpt><trkpt lat="43.403108733512056" lon="11.357127437380475"><ele>443.0</ele><time>2026-04-11T04:52:00Z</time></trkpt><trkpt lat="43.40331898735573" lon="11.357131233915391"><ele>443.79999999999995</ele><time>2026-04-11T04:52:04Z</time></trkpt><trkpt lat="43.403465746608504" lon="11.35712477634837"><ele>444.59999999999997</ele><time>2026-04-11T04:52:07Z</time></trkpt><trkpt lat="43.40356387335336" lon="11.35711969771889"><ele>445.40000000000003</ele><time>2026-04-11T04:52:09Z</time></trkpt><trkpt lat="43.403655304204406" lon="11.357092179489308"><ele>446.20000000000005</ele><time>2026-04-11T04:52:11Z</time></trkpt><trkpt lat="43.403753160239305" lon="11.357050095856424"><ele>447.0</ele><time>2026-04-11T04:52:13Z</time></trkpt><trkpt lat="43.40381942378164" lon="11.3569602964815"><ele>447.0</ele><time>2026-04-11T04:52:15Z</time></trkpt><trkpt lat="43.4038064615929" lon="11.356868417972352"><ele>447.00000000000006</ele><time>2026-04-11T04:52:18Z</time></trkpt><trkpt lat="43.40380697488959" lon="11.35676261859956"><ele>447.00000000000006</ele><time>2026-04-11T04:52:20Z</time></trkpt><trkpt lat="43.40374125615841" lon="11.356695535441562"><ele>447.0</ele><time>2026-04-11T04:52:23Z</time></trkpt><trkpt lat="43.40368072455464" lon="11.356426180057095"><ele>447.0</ele><time>2026-04-11T04:52:26Z</time></trkpt><trkpt lat="43.403659647174734" lon="11.35633731845049"><ele>446.8</ele><time>2026-04-11T04:52:28Z</time></trkpt><trkpt lat="43.40363352348146" lon="11.356182432721274"><ele>446.6</ele><time>2026-04-11T04:52:30Z</time></trkpt><trkpt lat="43.40365228050364" lon="11.356077135873212"><ele>446.40000000000003</ele><time>2026-04-11T04:52:32Z</time></trkpt><trkpt lat="43.40370928067483" lon="11.35600144662088"><ele>446.20000000000005</ele><time>2026-04-11T04:52:34Z</time></trkpt><trkpt lat="43.403766796138804" lon="11.355931414266491"><ele>446.0</ele><time>2026-04-11T04:52:36Z</time></trkpt><trkpt lat="43.40385433863207" lon="11.355827952617602"><ele>447.5</ele><time>2026-04-11T04:52:38Z</time></trkpt><trkpt lat="43.40395733817101" lon="11.355699131739089"><ele>449.0</ele><time>2026-04-11T04:52:39Z</time></trkpt><trkpt lat="43.404044606529034" lon="11.355642293955347"><ele>450.5</ele><time>2026-04-11T04:52:41Z</time></trkpt><trkpt lat="43.40413760823472" lon="11.35559743412292"><ele>452.0</ele><time>2026-04-11T04:52:43Z</time></trkpt><trkpt lat="43.404330622628976" lon="11.355600123129301"><ele>452.0</ele><time>2026-04-11T04:52:47Z</time></trkpt><trkpt lat="43.404421395581274" lon="11.355635012788321"><ele>452.0</ele><time>2026-04-11T04:52:49Z</time></trkpt><trkpt lat="43.40461068321462" lon="11.355699641724511"><ele>452.0</ele><time>2026-04-11T04:52:53Z</time></trkpt><trkpt lat="43.404693280393026" lon="11.355757264043257"><ele>452.0</ele><time>2026-04-11T04:52:55Z</time></trkpt><trkpt lat="43.40476725908122" lon="11.355853074469733"><ele>452.66666666666663</ele><time>2026-04-11T04:52:57Z</time></trkpt><trkpt lat="43.40484300317554" lon="11.355874647461686"><ele>453.3333333333333</ele><time>2026-04-11T04:53:00Z</time></trkpt><trkpt lat="43.404897090194666" lon="11.355980289474957"><ele>454.0</ele><time>2026-04-11T04:53:04Z</time></trkpt><trkpt lat="43.40496093630227" lon="11.355962858017088"><ele>454.66666666666663</ele><time>2026-04-11T04:53:05Z</time></trkpt><trkpt lat="43.405028765975096" lon="11.355991424081838"><ele>455.3333333333333</ele><time>2026-04-11T04:53:07Z</time></trkpt><trkpt lat="43.40514171180165" lon="11.355978075498035"><ele>456.0</ele><time>2026-04-11T04:53:10Z</time></trkpt><trkpt lat="43.405224124165784" lon="11.355849206773447"><ele>456.0</ele><time>2026-04-11T04:53:15Z</time></trkpt><trkpt lat="43.40523837943573" lon="11.355761343039163"><ele>456.0</ele><time>2026-04-11T04:53:17Z</time></trkpt><trkpt lat="43.40528721490572" lon="11.355675726882263"><ele>456.0</ele><time>2026-04-11T04:53:19Z</time></trkpt><trkpt lat="43.4053548994611" lon="11.355615418713004"><ele>456.0</ele><time>2026-04-11T04:53:21Z</time></trkpt><trkpt lat="43.40543335810475" lon="11.355556086635358"><ele>456.0</ele><time>2026-04-11T04:53:23Z</time></trkpt><trkpt lat="43.40552077763662" lon="11.355560913085212"><ele>456.0</ele><time>2026-04-11T04:53:25Z</time></trkpt><trkpt lat="43.405607636351576" lon="11.3555443153201"><ele>457.4</ele><time>2026-04-11T04:53:28Z</time></trkpt><trkpt lat="43.40567568339704" lon="11.355605486715975"><ele>458.8</ele><time>2026-04-11T04:53:30Z</time></trkpt><trkpt lat="43.405750578979486" lon="11.355639170207846"><ele>460.19999999999993</ele><time>2026-04-11T04:53:31Z</time></trkpt><trkpt lat="43.40593606690104" lon="11.355718882459323"><ele>461.59999999999997</ele><time>2026-04-11T04:53:34Z</time></trkpt><trkpt lat="43.40600255865059" lon="11.355743019229333"><ele>463.0</ele><time>2026-04-11T04:53:35Z</time></trkpt><trkpt lat="43.40609887773396" lon="11.355811937418185"><ele>463.0</ele><time>2026-04-11T04:53:37Z</time></trkpt><trkpt lat="43.40620852969299" lon="11.355873833542123"><ele>462.99999999999994</ele><time>2026-04-11T04:53:39Z</time></trkpt><trkpt lat="43.40629995828037" lon="11.35595218285681"><ele>462.99999999999994</ele><time>2026-04-11T04:53:41Z</time></trkpt><trkpt lat="43.406392721900914" lon="11.3560304652365"><ele>463.0</ele><time>2026-04-11T04:53:43Z</time></trkpt><trkpt lat="43.40647879334925" lon="11.356045580070562"><ele>463.0</ele><time>2026-04-11T04:53:47Z</time></trkpt><trkpt lat="43.406535155608964" lon="11.355975813879516"><ele>462.79999999999995</ele><time>2026-04-11T04:53:49Z</time></trkpt><trkpt lat="43.40656550882139" lon="11.355893329903974"><ele>462.59999999999997</ele><time>2026-04-11T04:53:52Z</time></trkpt><trkpt lat="43.406571637896555" lon="11.355689980555079"><ele>462.40000000000003</ele><time>2026-04-11T04:53:56Z</time></trkpt><trkpt lat="43.40656599620032" lon="11.355570576181297"><ele>462.20000000000005</ele><time>2026-04-11T04:53:59Z</time></trkpt><trkpt lat="43.406543075325466" lon="11.355379602805252"><ele>462.0</ele><time>2026-04-11T04:54:01Z</time></trkpt><trkpt lat="43.40654048979684" lon="11.355223937132314"><ele>462.0</ele><time>2026-04-11T04:54:03Z</time></trkpt><trkpt lat="43.40654713300023" lon="11.355066020713716"><ele>462.0</ele><time>2026-04-11T04:54:06Z</time></trkpt><trkpt lat="43.40658068012368" lon="11.354975659679251"><ele>462.0</ele><time>2026-04-11T04:54:08Z</time></trkpt><trkpt lat="43.40660157675275" lon="11.354876950542282"><ele>462.0</ele><time>2026-04-11T04:54:10Z</time></trkpt><trkpt lat="43.40664249092369" lon="11.354793217377281"><ele>462.0</ele><time>2026-04-11T04:54:11Z</time></trkpt><trkpt lat="43.40668958327621" lon="11.354733055717663"><ele>462.0</ele><time>2026-04-11T04:54:12Z</time></trkpt><trkpt lat="43.406782263223924" lon="11.354653995253514"><ele>462.6</ele><time>2026-04-11T04:54:14Z</time></trkpt><trkpt lat="43.406928837512936" lon="11.35452050593643"><ele>463.20000000000005</ele><time>2026-04-11T04:54:19Z</time></trkpt><trkpt lat="43.406987945340575" lon="11.354489939608449"><ele>463.8</ele><time>2026-04-11T04:54:21Z</time></trkpt><trkpt lat="43.40705360380099" lon="11.354464273201472"><ele>464.4</ele><time>2026-04-11T04:54:23Z</time></trkpt><trkpt lat="43.40710718184512" lon="11.354398955518766"><ele>465.0</ele><time>2026-04-11T04:54:25Z</time></trkpt><trkpt lat="43.40718411522819" lon="11.354418846139282"><ele>465.0</ele><time>2026-04-11T04:54:28Z</time></trkpt><trkpt lat="43.40726690764917" lon="11.354414964446779"><ele>465.0</ele><time>2026-04-11T04:54:30Z</time></trkpt><trkpt lat="43.40733960964689" lon="11.354350855179316"><ele>465.0</ele><time>2026-04-11T04:54:33Z</time></trkpt><trkpt lat="43.40740516084322" lon="11.354269138613624"><ele>465.0</ele><time>2026-04-11T04:54:36Z</time></trkpt><trkpt lat="43.40748297381928" lon="11.354091546966034"><ele>465.0</ele><time>2026-04-11T04:54:40Z</time></trkpt><trkpt lat="43.40753193465194" lon="11.354003495468612"><ele>465.0</ele><time>2026-04-11T04:54:41Z</time></trkpt><trkpt lat="43.40758080148256" lon="11.35394088116101"><ele>465.0</ele><time>2026-04-11T04:54:42Z</time></trkpt><trkpt lat="43.40768604452903" lon="11.353860187678876"><ele>465.0</ele><time>2026-04-11T04:54:44Z</time></trkpt><trkpt lat="43.40780259412214" lon="11.35380818032772"><ele>465.0</ele><time>2026-04-11T04:54:46Z</time></trkpt><trkpt lat="43.40786987995822" lon="11.353796146564514"><ele>465.0</ele><time>2026-04-11T04:54:47Z</time></trkpt><trkpt lat="43.4079368780273" lon="11.353807046977032"><ele>465.0</ele><time>2026-04-11T04:54:49Z</time></trkpt><trkpt lat="43.40800505186764" lon="11.353839709415777"><ele>466.4</ele><time>2026-04-11T04:54:51Z</time></trkpt><trkpt lat="43.40808259174386" lon="11.353895652940537"><ele>467.8</ele><time>2026-04-11T04:54:53Z</time></trkpt><trkpt lat="43.408151799963015" lon="11.353960557165959"><ele>469.20000000000005</ele><time>2026-04-11T04:54:56Z</time></trkpt><trkpt lat="43.40822510052739" lon="11.354005182017204"><ele>470.6</ele><time>2026-04-11T04:54:59Z</time></trkpt><trkpt lat="43.40838110983128" lon="11.354043111586448"><ele>472.0</ele><time>2026-04-11T04:55:03Z</time></trkpt><trkpt lat="43.40844831823903" lon="11.354003322713442"><ele>472.00000000000006</ele><time>2026-04-11T04:55:05Z</time></trkpt><trkpt lat="43.408504074681034" lon="11.353955104680736"><ele>472.0</ele><time>2026-04-11T04:55:07Z</time></trkpt><trkpt lat="43.40856757669191" lon="11.353853847137414"><ele>472.0</ele><time>2026-04-11T04:55:10Z</time></trkpt><trkpt lat="43.40863342229192" lon="11.353752407820407"><ele>472.0</ele><time>2026-04-11T04:55:13Z</time></trkpt><trkpt lat="43.40868232280874" lon="11.35363251102323"><ele>472.00000000000006</ele><time>2026-04-11T04:55:15Z</time></trkpt><trkpt lat="43.40871717077594" lon="11.353560212896806"><ele>472.0</ele><time>2026-04-11T04:55:17Z</time></trkpt><trkpt lat="43.40877418250863" lon="11.353466724150906"><ele>471.20000000000005</ele><time>2026-04-11T04:55:19Z</time></trkpt><trkpt lat="43.40883152399765" lon="11.353399744786252"><ele>470.40000000000003</ele><time>2026-04-11T04:55:22Z</time></trkpt><trkpt lat="43.40896920200715" lon="11.353311369839426"><ele>469.59999999999997</ele><time>2026-04-11T04:55:24Z</time></trkpt><trkpt lat="43.40903668975421" lon="11.353299766788247"><ele>468.79999999999995</ele><time>2026-04-11T04:55:25Z</time></trkpt><trkpt lat="43.40913980436304" lon="11.35329692669209"><ele>468.0</ele><time>2026-04-11T04:55:27Z</time></trkpt><trkpt lat="43.409234587230024" lon="11.353235525799285"><ele>468.0</ele><time>2026-04-11T04:55:29Z</time></trkpt><trkpt lat="43.40931112859902" lon="11.353223701022882"><ele>467.99999999999994</ele><time>2026-04-11T04:55:30Z</time></trkpt><trkpt lat="43.40939101175261" lon="11.353254357232625"><ele>467.99999999999994</ele><time>2026-04-11T04:55:32Z</time></trkpt><trkpt lat="43.40945259428745" lon="11.353278188923275"><ele>468.0</ele><time>2026-04-11T04:55:34Z</time></trkpt><trkpt lat="43.40955546880628" lon="11.353311862529122"><ele>468.0</ele><time>2026-04-11T04:55:37Z</time></trkpt><trkpt lat="43.40967667300974" lon="11.353297153316282"><ele>468.2</ele><time>2026-04-11T04:55:39Z</time></trkpt><trkpt lat="43.40973406759321" lon="11.353252640428519"><ele>468.4</ele><time>2026-04-11T04:55:41Z</time></trkpt><trkpt lat="43.40972709454827" lon="11.353148520709057"><ele>468.59999999999997</ele><time>2026-04-11T04:55:44Z</time></trkpt><trkpt lat="43.409787883456005" lon="11.352966711062392"><ele>468.79999999999995</ele><time>2026-04-11T04:55:48Z</time></trkpt><trkpt lat="43.40983625724566" lon="11.352872829014652"><ele>469.0</ele><time>2026-04-11T04:55:50Z</time></trkpt><trkpt lat="43.40988720706707" lon="11.352780126521255"><ele>469.0</ele><time>2026-04-11T04:55:51Z</time></trkpt><trkpt lat="43.40995937904941" lon="11.352718325217543"><ele>469.0</ele><time>2026-04-11T04:55:52Z</time></trkpt><trkpt lat="43.410029600126684" lon="11.352598917356499"><ele>469.0</ele><time>2026-04-11T04:55:54Z</time></trkpt><trkpt lat="43.41011578630119" lon="11.352499966906363"><ele>469.0</ele><time>2026-04-11T04:55:56Z</time></trkpt><trkpt lat="43.410160703249346" lon="11.35243647126527"><ele>469.0</ele><time>2026-04-11T04:55:59Z</time></trkpt><trkpt lat="43.41023860867923" lon="11.352364036300818"><ele>469.0</ele><time>2026-04-11T04:56:02Z</time></trkpt><trkpt lat="43.41031793525702" lon="11.352317215604593"><ele>469.0</ele><time>2026-04-11T04:56:05Z</time></trkpt><trkpt lat="43.41045109395278" lon="11.352231882436872"><ele>469.0</ele><time>2026-04-11T04:56:10Z</time></trkpt><trkpt lat="43.410525722757896" lon="11.352213954197982"><ele>469.0</ele><time>2026-04-11T04:56:12Z</time></trkpt><trkpt lat="43.41061853511943" lon="11.352194986402644"><ele>469.0</ele><time>2026-04-11T04:56:15Z</time></trkpt><trkpt lat="43.41073019046445" lon="11.352172144471849"><ele>469.4</ele><time>2026-04-11T04:56:18Z</time></trkpt><trkpt lat="43.41081559170519" lon="11.352158500691978"><ele>469.79999999999995</ele><time>2026-04-11T04:56:21Z</time></trkpt><trkpt lat="43.41092371942722" lon="11.352107629796128"><ele>470.20000000000005</ele><time>2026-04-11T04:56:23Z</time></trkpt><trkpt lat="43.41100482102559" lon="11.35208776101348"><ele>470.6</ele><time>2026-04-11T04:56:24Z</time></trkpt><trkpt lat="43.41107468225902" lon="11.352059393930976"><ele>471.0</ele><time>2026-04-11T04:56:25Z</time></trkpt><trkpt lat="43.41119330116349" lon="11.352048021645258"><ele>470.3333333333333</ele><time>2026-04-11T04:56:27Z</time></trkpt><trkpt lat="43.41134005734415" lon="11.352032399325932"><ele>469.66666666666663</ele><time>2026-04-11T04:56:29Z</time></trkpt><trkpt lat="43.41141637725283" lon="11.352027955530868"><ele>469.0</ele><time>2026-04-11T04:56:30Z</time></trkpt><trkpt lat="43.41150758347737" lon="11.352016970153153"><ele>468.3333333333333</ele><time>2026-04-11T04:56:31Z</time></trkpt><trkpt lat="43.41157373967864" lon="11.352004535195604"><ele>467.66666666666663</ele><time>2026-04-11T04:56:32Z</time></trkpt><trkpt lat="43.41164052824447" lon="11.351993685305796"><ele>467.0</ele><time>2026-04-11T04:56:33Z</time></trkpt><trkpt lat="43.41171140473177" lon="11.351979701934114"><ele>466.99999999999994</ele><time>2026-04-11T04:56:34Z</time></trkpt><trkpt lat="43.41179867624894" lon="11.351960496463743"><ele>467.0</ele><time>2026-04-11T04:56:37Z</time></trkpt><trkpt lat="43.41187244537403" lon="11.351932371605196"><ele>467.0</ele><time>2026-04-11T04:56:39Z</time></trkpt><trkpt lat="43.41196018834933" lon="11.351904567018588"><ele>467.0</ele><time>2026-04-11T04:56:40Z</time></trkpt><trkpt lat="43.41205189323631" lon="11.351863200749923"><ele>466.99999999999994</ele><time>2026-04-11T04:56:42Z</time></trkpt><trkpt lat="43.41211461405666" lon="11.35185210703995"><ele>467.0</ele><time>2026-04-11T04:56:44Z</time></trkpt><trkpt lat="43.41223803624983" lon="11.351809300107108"><ele>468.25</ele><time>2026-04-11T04:56:46Z</time></trkpt><trkpt lat="43.41233567717104" lon="11.351795604909002"><ele>469.5</ele><time>2026-04-11T04:56:48Z</time></trkpt><trkpt lat="43.41251620573564" lon="11.351753616263727"><ele>470.75</ele><time>2026-04-11T04:56:53Z</time></trkpt><trkpt lat="43.412599219654005" lon="11.351737905755602"><ele>472.0</ele><time>2026-04-11T04:56:55Z</time></trkpt><trkpt lat="43.41269068210937" lon="11.35169637539424"><ele>472.00000000000006</ele><time>2026-04-11T04:56:58Z</time></trkpt><trkpt lat="43.412750286463606" lon="11.351668488702728"><ele>472.0</ele><time>2026-04-11T04:57:00Z</time></trkpt><trkpt lat="43.41280858228835" lon="11.35162983175723"><ele>472.0</ele><time>2026-04-11T04:57:01Z</time></trkpt><trkpt lat="43.412895051557584" lon="11.351564619720813"><ele>472.0</ele><time>2026-04-11T04:57:03Z</time></trkpt><trkpt lat="43.412949417052495" lon="11.351494279508053"><ele>472.00000000000006</ele><time>2026-04-11T04:57:05Z</time></trkpt><trkpt lat="43.413008220403135" lon="11.351419879481915"><ele>472.0</ele><time>2026-04-11T04:57:07Z</time></trkpt><trkpt lat="43.4130688901151" lon="11.351351456761751"><ele>473.6</ele><time>2026-04-11T04:57:09Z</time></trkpt><trkpt lat="43.41318115272798" lon="11.351215274116473"><ele>475.20000000000005</ele><time>2026-04-11T04:57:13Z</time></trkpt><trkpt lat="43.413236129733896" lon="11.35114532742421"><ele>476.8</ele><time>2026-04-11T04:57:15Z</time></trkpt><trkpt lat="43.41330203968978" lon="11.351085551046264"><ele>478.4</ele><time>2026-04-11T04:57:17Z</time></trkpt><trkpt lat="43.41335728921293" lon="11.351010230125324"><ele>480.0</ele><time>2026-04-11T04:57:19Z</time></trkpt><trkpt lat="43.413410736617095" lon="11.350941383004203"><ele>480.0</ele><time>2026-04-11T04:57:21Z</time></trkpt><trkpt lat="43.41346159552998" lon="11.350866990386615"><ele>480.0</ele><time>2026-04-11T04:57:23Z</time></trkpt><trkpt lat="43.41351017695432" lon="11.350802362246473"><ele>480.0</ele><time>2026-04-11T04:57:25Z</time></trkpt><trkpt lat="43.41356440820338" lon="11.3507380552064"><ele>480.0</ele><time>2026-04-11T04:57:27Z</time></trkpt><trkpt lat="43.41361061271839" lon="11.3506709728711"><ele>480.0</ele><time>2026-04-11T04:57:29Z</time></trkpt><trkpt lat="43.41365951209655" lon="11.350604444531083"><ele>480.0</ele><time>2026-04-11T04:57:31Z</time></trkpt><trkpt lat="43.413762727490756" lon="11.350472411347289"><ele>482.0</ele><time>2026-04-11T04:57:35Z</time></trkpt><trkpt lat="43.41382700983311" lon="11.35043202225958"><ele>484.0</ele><time>2026-04-11T04:57:37Z</time></trkpt><trkpt lat="43.413879297407235" lon="11.3503785626895"><ele>486.0</ele><time>2026-04-11T04:57:39Z</time></trkpt><trkpt lat="43.41393780166551" lon="11.350339335178552"><ele>488.0</ele><time>2026-04-11T04:57:41Z</time></trkpt><trkpt lat="43.41401355676105" lon="11.350354889682851"><ele>490.0</ele><time>2026-04-11T04:57:43Z</time></trkpt><trkpt lat="43.41407665563764" lon="11.350364715171244"><ele>492.0</ele><time>2026-04-11T04:57:45Z</time></trkpt><trkpt lat="43.41414303722805" lon="11.350393909541406"><ele>494.0</ele><time>2026-04-11T04:57:47Z</time></trkpt><trkpt lat="43.41423062402491" lon="11.350429032827288"><ele>494.0</ele><time>2026-04-11T04:57:50Z</time></trkpt><trkpt lat="43.41429198273785" lon="11.350458634627994"><ele>494.0</ele><time>2026-04-11T04:57:52Z</time></trkpt><trkpt lat="43.41445235326592" lon="11.350530807865814"><ele>494.0</ele><time>2026-04-11T04:57:57Z</time></trkpt><trkpt lat="43.414529973807284" lon="11.350441365561016"><ele>494.0</ele><time>2026-04-11T04:58:00Z</time></trkpt><trkpt lat="43.41457447963527" lon="11.350369196646433"><ele>494.0</ele><time>2026-04-11T04:58:02Z</time></trkpt><trkpt lat="43.41461548787388" lon="11.350299186961946"><ele>493.99999999999994</ele><time>2026-04-11T04:58:04Z</time></trkpt><trkpt lat="43.41460452439596" lon="11.350179352227947"><ele>494.0</ele><time>2026-04-11T04:58:07Z</time></trkpt><trkpt lat="43.41463227684215" lon="11.350083518374664"><ele>494.0</ele><time>2026-04-11T04:58:09Z</time></trkpt><trkpt lat="43.41463685547397" lon="11.349987465146496"><ele>494.0</ele><time>2026-04-11T04:58:11Z</time></trkpt><trkpt lat="43.41463566076451" lon="11.349893974600437"><ele>493.99999999999994</ele><time>2026-04-11T04:58:13Z</time></trkpt><trkpt lat="43.414642597755126" lon="11.349698864801999"><ele>494.0</ele><time>2026-04-11T04:58:17Z</time></trkpt><trkpt lat="43.41464563686418" lon="11.349603518496238"><ele>493.49999999999994</ele><time>2026-04-11T04:58:19Z</time></trkpt><trkpt lat="43.414654513298004" lon="11.349504207764937"><ele>493.0</ele><time>2026-04-11T04:58:21Z</time></trkpt><trkpt lat="43.41467581486572" lon="11.349361125019032"><ele>492.5</ele><time>2026-04-11T04:58:24Z</time></trkpt><trkpt lat="43.4147224098347" lon="11.349291305600168"><ele>492.0</ele><time>2026-04-11T04:58:25Z</time></trkpt><trkpt lat="43.41475410662798" lon="11.349186649554024"><ele>491.49999999999994</ele><time>2026-04-11T04:58:28Z</time></trkpt><trkpt lat="43.414816888559606" lon="11.349103918404577"><ele>491.0</ele><time>2026-04-11T04:58:31Z</time></trkpt><trkpt lat="43.4148832393482" lon="11.349015697947427"><ele>491.0</ele><time>2026-04-11T04:58:34Z</time></trkpt><trkpt lat="43.41501968790867" lon="11.348925792344142"><ele>491.0</ele><time>2026-04-11T04:58:39Z</time></trkpt><trkpt lat="43.41508587518408" lon="11.348878344933413"><ele>491.0</ele><time>2026-04-11T04:58:41Z</time></trkpt><trkpt lat="43.41515924678548" lon="11.348840708623362"><ele>491.0</ele><time>2026-04-11T04:58:43Z</time></trkpt><trkpt lat="43.415240975651116" lon="11.348827980624424"><ele>491.0</ele><time>2026-04-11T04:58:45Z</time></trkpt><trkpt lat="43.415317072397" lon="11.348843491189863"><ele>490.99999999999994</ele><time>2026-04-11T04:58:47Z</time></trkpt><trkpt lat="43.41538796313945" lon="11.348874441784366"><ele>491.0</ele><time>2026-04-11T04:58:49Z</time></trkpt><trkpt lat="43.41548248370329" lon="11.348889510441591"><ele>491.0</ele><time>2026-04-11T04:58:52Z</time></trkpt><trkpt lat="43.41554403976002" lon="11.34891019438302"><ele>491.0</ele><time>2026-04-11T04:58:54Z</time></trkpt><trkpt lat="43.415609533047714" lon="11.34893307788916"><ele>490.99999999999994</ele><time>2026-04-11T04:58:56Z</time></trkpt><trkpt lat="43.41575398486435" lon="11.348955270720701"><ele>491.0</ele><time>2026-04-11T04:59:00Z</time></trkpt><trkpt lat="43.415830295111434" lon="11.348940124138423"><ele>490.8333333333333</ele><time>2026-04-11T04:59:03Z</time></trkpt><trkpt lat="43.415904877557054" lon="11.348924148606466"><ele>490.66666666666663</ele><time>2026-04-11T04:59:05Z</time></trkpt><trkpt lat="43.41597510072017" lon="11.348906565510601"><ele>490.5</ele><time>2026-04-11T04:59:07Z</time></trkpt><trkpt lat="43.416052537840926" lon="11.34888866347835"><ele>490.33333333333337</ele><time>2026-04-11T04:59:09Z</time></trkpt><trkpt lat="43.41613029177349" lon="11.34888151362896"><ele>490.1666666666667</ele><time>2026-04-11T04:59:11Z</time></trkpt><trkpt lat="43.41620609916565" lon="11.348866436191015"><ele>490.0</ele><time>2026-04-11T04:59:13Z</time></trkpt><trkpt lat="43.41627510089842" lon="11.348817568193258"><ele>493.0</ele><time>2026-04-11T04:59:15Z</time></trkpt><trkpt lat="43.41635529857728" lon="11.348815718920141"><ele>496.0</ele><time>2026-04-11T04:59:17Z</time></trkpt><trkpt lat="43.416516742192094" lon="11.348815819160563"><ele>499.0</ele><time>2026-04-11T04:59:22Z</time></trkpt><trkpt lat="43.416601123788936" lon="11.348815835665883"><ele>502.0</ele><time>2026-04-11T04:59:25Z</time></trkpt><trkpt lat="43.41666643285693" lon="11.348809218580712"><ele>505.0</ele><time>2026-04-11T04:59:27Z</time></trkpt><trkpt lat="43.41675562751665" lon="11.348800623854842"><ele>505.0</ele><time>2026-04-11T04:59:30Z</time></trkpt><trkpt lat="43.41682044927485" lon="11.348776887551093"><ele>505.0</ele><time>2026-04-11T04:59:32Z</time></trkpt><trkpt lat="43.41689971199496" lon="11.348748467604972"><ele>505.0</ele><time>2026-04-11T04:59:35Z</time></trkpt><trkpt lat="43.41696192722773" lon="11.348732036722733"><ele>505.0</ele><time>2026-04-11T04:59:37Z</time></trkpt><trkpt lat="43.41704714924144" lon="11.348698430259875"><ele>505.0</ele><time>2026-04-11T04:59:40Z</time></trkpt><trkpt lat="43.41718162969465" lon="11.348570304908117"><ele>503.83333333333337</ele><time>2026-04-11T04:59:44Z</time></trkpt><trkpt lat="43.41722034071961" lon="11.348485807693246"><ele>502.6666666666667</ele><time>2026-04-11T04:59:47Z</time></trkpt><trkpt lat="43.4172604646271" lon="11.34837893380252"><ele>501.5</ele><time>2026-04-11T04:59:50Z</time></trkpt><trkpt lat="43.41722658615542" lon="11.348272726725014"><ele>500.33333333333337</ele><time>2026-04-11T04:59:52Z</time></trkpt><trkpt lat="43.417211973989055" lon="11.348167982829107"><ele>499.1666666666667</ele><time>2026-04-11T04:59:54Z</time></trkpt><trkpt lat="43.417190427623574" lon="11.348071037485731"><ele>498.0</ele><time>2026-04-11T04:59:56Z</time></trkpt><trkpt lat="43.41716596970408" lon="11.347959023277788"><ele>498.0</ele><time>2026-04-11T04:59:58Z</time></trkpt><trkpt lat="43.41714995121311" lon="11.347832104531454"><ele>498.0</ele><time>2026-04-11T05:00:00Z</time></trkpt><trkpt lat="43.41713492948278" lon="11.34770039527852"><ele>498.0</ele><time>2026-04-11T05:00:02Z</time></trkpt><trkpt lat="43.41717326196854" lon="11.34742654600243"><ele>498.0</ele><time>2026-04-11T05:00:06Z</time></trkpt><trkpt lat="43.41723844635802" lon="11.347317247644405"><ele>498.0</ele><time>2026-04-11T05:00:08Z</time></trkpt><trkpt lat="43.41732623151088" lon="11.347225027317293"><ele>497.99999999999994</ele><time>2026-04-11T05:00:10Z</time></trkpt><trkpt lat="43.41741012596307" lon="11.347134360375591"><ele>497.99999999999994</ele><time>2026-04-11T05:00:12Z</time></trkpt><trkpt lat="43.417500100737" lon="11.347050165081724"><ele>498.0</ele><time>2026-04-11T05:00:14Z</time></trkpt><trkpt lat="43.41758743876899" lon="11.346964019388604"><ele>498.0</ele><time>2026-04-11T05:00:16Z</time></trkpt><trkpt lat="43.41764148687357" lon="11.346902381634752"><ele>498.25</ele><time>2026-04-11T05:00:17Z</time></trkpt><trkpt lat="43.41772841602993" lon="11.34683448570478"><ele>498.5</ele><time>2026-04-11T05:00:19Z</time></trkpt><trkpt lat="43.4178337258518" lon="11.346756004977006"><ele>498.75</ele><time>2026-04-11T05:00:21Z</time></trkpt><trkpt lat="43.41794052788007" lon="11.3466900437611"><ele>499.0</ele><time>2026-04-11T05:00:23Z</time></trkpt><trkpt lat="43.41814826647859" lon="11.34658688208301"><ele>499.0</ele><time>2026-04-11T05:00:27Z</time></trkpt><trkpt lat="43.41826038912167" lon="11.346551878443062"><ele>499.0</ele><time>2026-04-11T05:00:29Z</time></trkpt><trkpt lat="43.41836408617406" lon="11.346521297075128"><ele>499.0</ele><time>2026-04-11T05:00:31Z</time></trkpt><trkpt lat="43.41847879940227" lon="11.346503778618615"><ele>499.0</ele><time>2026-04-11T05:00:33Z</time></trkpt><trkpt lat="43.41859608457273" lon="11.346485363265804"><ele>499.0</ele><time>2026-04-11T05:00:35Z</time></trkpt><trkpt lat="43.41871651561838" lon="11.346474659780593"><ele>499.0</ele><time>2026-04-11T05:00:37Z</time></trkpt><trkpt lat="43.41882995969906" lon="11.346472652103468"><ele>499.0</ele><time>2026-04-11T05:00:39Z</time></trkpt><trkpt lat="43.4188903560228" lon="11.3465075405511"><ele>499.0</ele><time>2026-04-11T05:00:40Z</time></trkpt><trkpt lat="43.41899506667483" lon="11.34657821863019"><ele>499.0</ele><time>2026-04-11T05:00:42Z</time></trkpt><trkpt lat="43.41908299595054" lon="11.346672637166003"><ele>499.5</ele><time>2026-04-11T05:00:44Z</time></trkpt><trkpt lat="43.41927314902482" lon="11.346837689866318"><ele>500.0</ele><time>2026-04-11T05:00:48Z</time></trkpt><trkpt lat="43.419367302018046" lon="11.346902497877565"><ele>500.5</ele><time>2026-04-11T05:00:50Z</time></trkpt><trkpt lat="43.419464670771504" lon="11.346957402555228"><ele>501.0</ele><time>2026-04-11T05:00:52Z</time></trkpt><trkpt lat="43.41957066985796" lon="11.346993497908594"><ele>502.5</ele><time>2026-04-11T05:00:54Z</time></trkpt><trkpt lat="43.41969053948244" lon="11.346997078663568"><ele>504.0</ele><time>2026-04-11T05:00:56Z</time></trkpt><trkpt lat="43.4197943086252" lon="11.346978009025111"><ele>505.5</ele><time>2026-04-11T05:00:58Z</time></trkpt><trkpt lat="43.419907018243265" lon="11.346955320971995"><ele>507.0</ele><time>2026-04-11T05:01:00Z</time></trkpt><trkpt lat="43.420022603513" lon="11.346969872826577"><ele>507.0</ele><time>2026-04-11T05:01:02Z</time></trkpt><trkpt lat="43.42013294152933" lon="11.347007357494133"><ele>507.0</ele><time>2026-04-11T05:01:04Z</time></trkpt><trkpt lat="43.4202361732565" lon="11.347070626803331"><ele>507.0</ele><time>2026-04-11T05:01:06Z</time></trkpt><trkpt lat="43.42043742336432" lon="11.34721019737147"><ele>505.8</ele><time>2026-04-11T05:01:10Z</time></trkpt><trkpt lat="43.42053737996338" lon="11.347265368872993"><ele>504.6</ele><time>2026-04-11T05:01:12Z</time></trkpt><trkpt lat="43.420643521361825" lon="11.347273146927597"><ele>503.40000000000003</ele><time>2026-04-11T05:01:14Z</time></trkpt><trkpt lat="43.420756797839495" lon="11.347258151481507"><ele>502.20000000000005</ele><time>2026-04-11T05:01:16Z</time></trkpt><trkpt lat="43.42082050199592" lon="11.347267744617195"><ele>501.0</ele><time>2026-04-11T05:01:17Z</time></trkpt><trkpt lat="43.420946411223184" lon="11.347282592765692"><ele>501.0</ele><time>2026-04-11T05:01:19Z</time></trkpt><trkpt lat="43.42106457459365" lon="11.347303769854513"><ele>501.0</ele><time>2026-04-11T05:01:21Z</time></trkpt><trkpt lat="43.42118569876995" lon="11.34733758139512"><ele>501.0</ele><time>2026-04-11T05:01:23Z</time></trkpt><trkpt lat="43.421295042321944" lon="11.347415127183933"><ele>501.0</ele><time>2026-04-11T05:01:25Z</time></trkpt><trkpt lat="43.421369992935894" lon="11.347541805279345"><ele>501.0</ele><time>2026-04-11T05:01:27Z</time></trkpt><trkpt lat="43.42147329523505" lon="11.347734506793001"><ele>501.0</ele><time>2026-04-11T05:01:32Z</time></trkpt><trkpt lat="43.42150351446247" lon="11.347823714801311"><ele>501.0</ele><time>2026-04-11T05:02:19Z</time></trkpt><trkpt lat="43.4214373991269" lon="11.347675163487581"><ele>501.0</ele><time>2026-04-11T05:02:31Z</time></trkpt><trkpt lat="43.421393154701185" lon="11.34774240393997"><ele>501.0</ele><time>2026-04-11T05:02:33Z</time></trkpt><trkpt lat="43.42140131740627" lon="11.347875123764611"><ele>501.0</ele><time>2026-04-11T05:02:35Z</time></trkpt><trkpt lat="43.42141150014061" lon="11.348014787639217"><ele>501.0</ele><time>2026-04-11T05:02:37Z</time></trkpt><trkpt lat="43.42140747811856" lon="11.348180799482956"><ele>501.0</ele><time>2026-04-11T05:02:39Z</time></trkpt><trkpt lat="43.4213901192309" lon="11.348267175034321"><ele>501.0</ele><time>2026-04-11T05:02:40Z</time></trkpt><trkpt lat="43.421357935555044" lon="11.34845508661266"><ele>501.0</ele><time>2026-04-11T05:02:42Z</time></trkpt><trkpt lat="43.42134017670543" lon="11.34855097848286"><ele>500.5</ele><time>2026-04-11T05:02:43Z</time></trkpt><trkpt lat="43.42131554369841" lon="11.348640768934445"><ele>500.0</ele><time>2026-04-11T05:02:44Z</time></trkpt><trkpt lat="43.421315557164334" lon="11.348760723222572"><ele>499.5</ele><time>2026-04-11T05:02:45Z</time></trkpt><trkpt lat="43.421307555158194" lon="11.348882712521037"><ele>499.0</ele><time>2026-04-11T05:02:46Z</time></trkpt><trkpt lat="43.42131012997422" lon="11.349001541682906"><ele>498.5</ele><time>2026-04-11T05:02:47Z</time></trkpt><trkpt lat="43.42131324327012" lon="11.349126507106748"><ele>498.0</ele><time>2026-04-11T05:02:48Z</time></trkpt><trkpt lat="43.421323013452714" lon="11.349251234342798"><ele>498.0</ele><time>2026-04-11T05:02:49Z</time></trkpt><trkpt lat="43.42133316076839" lon="11.349359538435458"><ele>498.0</ele><time>2026-04-11T05:02:50Z</time></trkpt><trkpt lat="43.4213512939958" lon="11.34945302018071"><ele>498.0</ele><time>2026-04-11T05:02:51Z</time></trkpt><trkpt lat="43.421398169361034" lon="11.349537247491394"><ele>498.0</ele><time>2026-04-11T05:02:52Z</time></trkpt><trkpt lat="43.42147653432209" lon="11.349588130561166"><ele>498.0</ele><time>2026-04-11T05:02:53Z</time></trkpt><trkpt lat="43.42156100600229" lon="11.349597496491981"><ele>498.0</ele><time>2026-04-11T05:02:54Z</time></trkpt><trkpt lat="43.42164519980955" lon="11.349585541614497"><ele>498.0</ele><time>2026-04-11T05:02:55Z</time></trkpt><trkpt lat="43.421731429047334" lon="11.349542270415787"><ele>497.99999999999994</ele><time>2026-04-11T05:02:56Z</time></trkpt><trkpt lat="43.421821575757725" lon="11.349511894977923"><ele>497.99999999999994</ele><time>2026-04-11T05:02:57Z</time></trkpt><trkpt lat="43.42190615958466" lon="11.34951810443268"><ele>498.0</ele><time>2026-04-11T05:02:58Z</time></trkpt><trkpt lat="43.4220054256005" lon="11.3495664317733"><ele>498.0</ele><time>2026-04-11T05:02:59Z</time></trkpt><trkpt lat="43.42208007183705" lon="11.34964456669563"><ele>495.2</ele><time>2026-04-11T05:03:00Z</time></trkpt><trkpt lat="43.42215120025616" lon="11.349737260460296"><ele>492.4</ele><time>2026-04-11T05:03:01Z</time></trkpt><trkpt lat="43.42227609253056" lon="11.349904807986753"><ele>489.59999999999997</ele><time>2026-04-11T05:03:03Z</time></trkpt><trkpt lat="43.422343830525314" lon="11.349962993485873"><ele>486.79999999999995</ele><time>2026-04-11T05:03:04Z</time></trkpt><trkpt lat="43.42241973574841" lon="11.350016968435405"><ele>484.0</ele><time>2026-04-11T05:03:05Z</time></trkpt><trkpt lat="43.422511150116364" lon="11.350041401313877"><ele>484.00000000000006</ele><time>2026-04-11T05:03:06Z</time></trkpt><trkpt lat="43.42260061187439" lon="11.350082845806574"><ele>484.0</ele><time>2026-04-11T05:03:07Z</time></trkpt><trkpt lat="43.42267950070497" lon="11.350117371930825"><ele>484.0</ele><time>2026-04-11T05:03:08Z</time></trkpt><trkpt lat="43.42275051148642" lon="11.350184014968871"><ele>484.0</ele><time>2026-04-11T05:03:09Z</time></trkpt><trkpt lat="43.422811014824255" lon="11.350259143403706"><ele>484.00000000000006</ele><time>2026-04-11T05:03:10Z</time></trkpt><trkpt lat="43.42284896840966" lon="11.350365327863141"><ele>484.0</ele><time>2026-04-11T05:03:11Z</time></trkpt><trkpt lat="43.4228733088432" lon="11.350465328003914"><ele>482.4</ele><time>2026-04-11T05:03:12Z</time></trkpt><trkpt lat="43.422903077842875" lon="11.350606491266364"><ele>480.79999999999995</ele><time>2026-04-11T05:03:14Z</time></trkpt><trkpt lat="43.42294503775938" lon="11.350692417213274"><ele>479.20000000000005</ele><time>2026-04-11T05:03:16Z</time></trkpt><trkpt lat="43.423052314396514" lon="11.350667777627862"><ele>477.6</ele><time>2026-04-11T05:03:18Z</time></trkpt><trkpt lat="43.423152600290685" lon="11.350557947854325"><ele>476.0</ele><time>2026-04-11T05:03:20Z</time></trkpt><trkpt lat="43.423228461370016" lon="11.350428201419504"><ele>476.0</ele><time>2026-04-11T05:03:22Z</time></trkpt><trkpt lat="43.42336647883245" lon="11.350327902349463"><ele>476.0</ele><time>2026-04-11T05:03:24Z</time></trkpt><trkpt lat="43.42344695284758" lon="11.350283720511744"><ele>476.0</ele><time>2026-04-11T05:03:25Z</time></trkpt><trkpt lat="43.423532332374144" lon="11.350239073300704"><ele>476.0</ele><time>2026-04-11T05:03:26Z</time></trkpt><trkpt lat="43.423638953693946" lon="11.350224909263824"><ele>476.0</ele><time>2026-04-11T05:03:27Z</time></trkpt><trkpt lat="43.42370990431817" lon="11.3501931520093"><ele>476.0</ele><time>2026-04-11T05:03:28Z</time></trkpt><trkpt lat="43.423777463754355" lon="11.35018413181391"><ele>476.0</ele><time>2026-04-11T05:03:29Z</time></trkpt><trkpt lat="43.42384893799148" lon="11.350189282224095"><ele>476.0</ele><time>2026-04-11T05:03:30Z</time></trkpt><trkpt lat="43.42391166942212" lon="11.350226453006668"><ele>476.0</ele><time>2026-04-11T05:03:31Z</time></trkpt><trkpt lat="43.42396889802758" lon="11.350285296648371"><ele>476.0</ele><time>2026-04-11T05:03:32Z</time></trkpt><trkpt lat="43.424002259471976" lon="11.350371110306563"><ele>476.0</ele><time>2026-04-11T05:03:33Z</time></trkpt><trkpt lat="43.424015099046315" lon="11.350484395153153"><ele>476.0</ele><time>2026-04-11T05:03:34Z</time></trkpt><trkpt lat="43.42402040465927" lon="11.350609081116165"><ele>471.4</ele><time>2026-04-11T05:03:35Z</time></trkpt><trkpt lat="43.42400517743346" lon="11.350737540150927"><ele>466.8</ele><time>2026-04-11T05:03:36Z</time></trkpt><trkpt lat="43.423996581264916" lon="11.350856984927795"><ele>462.19999999999993</ele><time>2026-04-11T05:03:37Z</time></trkpt><trkpt lat="43.42398420488616" lon="11.350983775298733"><ele>457.59999999999997</ele><time>2026-04-11T05:03:38Z</time></trkpt><trkpt lat="43.42397900069426" lon="11.351107843738735"><ele>453.0</ele><time>2026-04-11T05:03:39Z</time></trkpt><trkpt lat="43.423960992422046" lon="11.351229936792"><ele>453.0</ele><time>2026-04-11T05:03:40Z</time></trkpt><trkpt lat="43.42394254500087" lon="11.351346973980226"><ele>453.0</ele><time>2026-04-11T05:03:41Z</time></trkpt><trkpt lat="43.42390772462379" lon="11.351467841318817"><ele>453.0</ele><time>2026-04-11T05:03:42Z</time></trkpt><trkpt lat="43.42388158594663" lon="11.351585718366382"><ele>453.0</ele><time>2026-04-11T05:03:43Z</time></trkpt><trkpt lat="43.42380655141113" lon="11.351811642018284"><ele>452.1666666666667</ele><time>2026-04-11T05:03:45Z</time></trkpt><trkpt lat="43.42375347827328" lon="11.351913550407781"><ele>451.33333333333337</ele><time>2026-04-11T05:03:46Z</time></trkpt><trkpt lat="43.42372351582338" lon="11.352030456671887"><ele>450.5</ele><time>2026-04-11T05:03:47Z</time></trkpt><trkpt lat="43.42370413256973" lon="11.352152557167168"><ele>449.6666666666667</ele><time>2026-04-11T05:03:48Z</time></trkpt><trkpt lat="43.423689776642384" lon="11.352257947361412"><ele>448.83333333333337</ele><time>2026-04-11T05:03:49Z</time></trkpt><trkpt lat="43.42368935531499" lon="11.352371010121772"><ele>448.0</ele><time>2026-04-11T05:03:50Z</time></trkpt><trkpt lat="43.42369601818604" lon="11.352484930560543"><ele>447.1666666666667</ele><time>2026-04-11T05:03:51Z</time></trkpt><trkpt lat="43.42370993328843" lon="11.352600325889725"><ele>446.33333333333337</ele><time>2026-04-11T05:03:52Z</time></trkpt><trkpt lat="43.423719636260216" lon="11.352715513748137"><ele>445.5</ele><time>2026-04-11T05:03:53Z</time></trkpt><trkpt lat="43.423730848593124" lon="11.352832137832072"><ele>444.66666666666663</ele><time>2026-04-11T05:03:54Z</time></trkpt><trkpt lat="43.423741755422704" lon="11.352943429115868"><ele>443.8333333333333</ele><time>2026-04-11T05:03:55Z</time></trkpt><trkpt lat="43.42376090394199" lon="11.35305071411436"><ele>443.0</ele><time>2026-04-11T05:03:56Z</time></trkpt><trkpt lat="43.42377665456903" lon="11.353163740159662"><ele>443.66666666666663</ele><time>2026-04-11T05:03:57Z</time></trkpt><trkpt lat="43.423795585614535" lon="11.353282691564505"><ele>444.3333333333333</ele><time>2026-04-11T05:03:58Z</time></trkpt><trkpt lat="43.423810252568565" lon="11.353399869393751"><ele>445.0</ele><time>2026-04-11T05:03:59Z</time></trkpt><trkpt lat="43.423830268190095" lon="11.353518001988187"><ele>445.66666666666663</ele><time>2026-04-11T05:04:00Z</time></trkpt><trkpt lat="43.4238388689088" lon="11.353631749376332"><ele>446.3333333333333</ele><time>2026-04-11T05:04:01Z</time></trkpt><trkpt lat="43.42384374435318" lon="11.353740017209097"><ele>447.0</ele><time>2026-04-11T05:04:02Z</time></trkpt><trkpt lat="43.42384875982671" lon="11.35383604192322"><ele>444.0</ele><time>2026-04-11T05:04:03Z</time></trkpt><trkpt lat="43.423853636496275" lon="11.353922852743883"><ele>441.0</ele><time>2026-04-11T05:04:04Z</time></trkpt><trkpt lat="43.423887687029406" lon="11.354161616621154"><ele>438.0</ele><time>2026-04-11T05:04:07Z</time></trkpt><trkpt lat="43.42392081920034" lon="11.354304586159303"><ele>435.0</ele><time>2026-04-11T05:04:09Z</time></trkpt><trkpt lat="43.424000519504446" lon="11.354440276629322"><ele>435.0</ele><time>2026-04-11T05:04:11Z</time></trkpt><trkpt lat="43.42407876916056" lon="11.354569035319182"><ele>435.0</ele><time>2026-04-11T05:04:13Z</time></trkpt><trkpt lat="43.42412000424555" lon="11.354637049184644"><ele>435.0</ele><time>2026-04-11T05:04:14Z</time></trkpt><trkpt lat="43.42417647067254" lon="11.354715032146817"><ele>435.0</ele><time>2026-04-11T05:04:15Z</time></trkpt><trkpt lat="43.42426626672935" lon="11.354765801674242"><ele>435.0</ele><time>2026-04-11T05:04:16Z</time></trkpt><trkpt lat="43.42436575422704" lon="11.354806621778728"><ele>432.8</ele><time>2026-04-11T05:04:17Z</time></trkpt><trkpt lat="43.42447646832325" lon="11.354823956739152"><ele>430.6</ele><time>2026-04-11T05:04:18Z</time></trkpt><trkpt lat="43.42459438954395" lon="11.354829863377876"><ele>428.4</ele><time>2026-04-11T05:04:19Z</time></trkpt><trkpt lat="43.42470425540984" lon="11.354840736923146"><ele>426.2</ele><time>2026-04-11T05:04:20Z</time></trkpt><trkpt lat="43.42480091060213" lon="11.354853636586673"><ele>424.0</ele><time>2026-04-11T05:04:21Z</time></trkpt><trkpt lat="43.4248850841498" lon="11.354855561831576"><ele>424.0</ele><time>2026-04-11T05:04:22Z</time></trkpt><trkpt lat="43.42495846056173" lon="11.354845938329985"><ele>424.0</ele><time>2026-04-11T05:04:23Z</time></trkpt><trkpt lat="43.42505636980368" lon="11.354721065213614"><ele>424.0</ele><time>2026-04-11T05:04:25Z</time></trkpt><trkpt lat="43.42506506975659" lon="11.354492546519829"><ele>424.0</ele><time>2026-04-11T05:04:27Z</time></trkpt><trkpt lat="43.425119785651795" lon="11.354408238142353"><ele>424.2</ele><time>2026-04-11T05:04:28Z</time></trkpt><trkpt lat="43.42521379268805" lon="11.354374794900831"><ele>424.4</ele><time>2026-04-11T05:04:29Z</time></trkpt><trkpt lat="43.425323135252036" lon="11.35438316333361"><ele>424.6</ele><time>2026-04-11T05:04:30Z</time></trkpt><trkpt lat="43.425432975916586" lon="11.354404757806074"><ele>424.8</ele><time>2026-04-11T05:04:31Z</time></trkpt><trkpt lat="43.425528880713536" lon="11.354392865084142"><ele>425.0</ele><time>2026-04-11T05:04:32Z</time></trkpt><trkpt lat="43.425615746475884" lon="11.35434571516743"><ele>421.4</ele><time>2026-04-11T05:04:33Z</time></trkpt><trkpt lat="43.42569035465982" lon="11.35425031783796"><ele>417.8</ele><time>2026-04-11T05:04:34Z</time></trkpt><trkpt lat="43.42574721074346" lon="11.354120362157904"><ele>414.20000000000005</ele><time>2026-04-11T05:04:35Z</time></trkpt><trkpt lat="43.42578040705973" lon="11.353967699048082"><ele>410.6</ele><time>2026-04-11T05:04:36Z</time></trkpt><trkpt lat="43.42580832571347" lon="11.353816908769211"><ele>407.0</ele><time>2026-04-11T05:04:37Z</time></trkpt><trkpt lat="43.42582511705532" lon="11.353671800260361"><ele>405.8</ele><time>2026-04-11T05:04:38Z</time></trkpt><trkpt lat="43.42579629739333" lon="11.353515082401136"><ele>404.6</ele><time>2026-04-11T05:04:39Z</time></trkpt><trkpt lat="43.42577858498487" lon="11.353374244027338"><ele>403.40000000000003</ele><time>2026-04-11T05:04:40Z</time></trkpt><trkpt lat="43.425757800643176" lon="11.353251384609276"><ele>402.20000000000005</ele><time>2026-04-11T05:04:41Z</time></trkpt><trkpt lat="43.42574613782756" lon="11.353132323801205"><ele>401.0</ele><time>2026-04-11T05:04:42Z</time></trkpt><trkpt lat="43.425772650171545" lon="11.35300090531867"><ele>401.0</ele><time>2026-04-11T05:04:43Z</time></trkpt><trkpt lat="43.425788922984765" lon="11.35285682534934"><ele>401.0</ele><time>2026-04-11T05:04:44Z</time></trkpt><trkpt lat="43.42580990605156" lon="11.35272648659434"><ele>401.0</ele><time>2026-04-11T05:04:45Z</time></trkpt><trkpt lat="43.4258287801591" lon="11.352592086946501"><ele>401.0</ele><time>2026-04-11T05:04:46Z</time></trkpt><trkpt lat="43.42587677858917" lon="11.35230810812612"><ele>402.0</ele><time>2026-04-11T05:04:48Z</time></trkpt><trkpt lat="43.425928916834636" lon="11.35218301201758"><ele>403.0</ele><time>2026-04-11T05:04:49Z</time></trkpt><trkpt lat="43.425989712673754" lon="11.352072657313261"><ele>404.0</ele><time>2026-04-11T05:04:50Z</time></trkpt><trkpt lat="43.426074362413196" lon="11.351991651806514"><ele>405.0</ele><time>2026-04-11T05:04:51Z</time></trkpt><trkpt lat="43.42615410540205" lon="11.351926894671283"><ele>406.0</ele><time>2026-04-11T05:04:52Z</time></trkpt><trkpt lat="43.42622982307135" lon="11.351868074055508"><ele>406.00000000000006</ele><time>2026-04-11T05:04:53Z</time></trkpt><trkpt lat="43.426300790901045" lon="11.351805087982642"><ele>406.0</ele><time>2026-04-11T05:04:54Z</time></trkpt><trkpt lat="43.42637021995877" lon="11.351740518595758"><ele>406.0</ele><time>2026-04-11T05:04:55Z</time></trkpt><trkpt lat="43.42644234612396" lon="11.351676803597073"><ele>406.0</ele><time>2026-04-11T05:04:56Z</time></trkpt><trkpt lat="43.426501817366194" lon="11.351595838055413"><ele>406.00000000000006</ele><time>2026-04-11T05:04:57Z</time></trkpt><trkpt lat="43.42657105074978" lon="11.351515893012195"><ele>406.0</ele><time>2026-04-11T05:04:58Z</time></trkpt><trkpt lat="43.42662317053692" lon="11.351408832589081"><ele>404.00000000000006</ele><time>2026-04-11T05:04:59Z</time></trkpt><trkpt lat="43.42665517741663" lon="11.35130360486367"><ele>402.0</ele><time>2026-04-11T05:05:00Z</time></trkpt><trkpt lat="43.42669103422489" lon="11.351204003758784"><ele>400.0</ele><time>2026-04-11T05:05:01Z</time></trkpt><trkpt lat="43.42673331763342" lon="11.351109490579752"><ele>398.0</ele><time>2026-04-11T05:05:02Z</time></trkpt><trkpt lat="43.42676721898715" lon="11.351019153000221"><ele>396.00000000000006</ele><time>2026-04-11T05:05:03Z</time></trkpt><trkpt lat="43.42680598898457" lon="11.350928939306318"><ele>394.0</ele><time>2026-04-11T05:05:04Z</time></trkpt><trkpt lat="43.42682980446105" lon="11.350843089169082"><ele>394.0</ele><time>2026-04-11T05:05:05Z</time></trkpt><trkpt lat="43.426866686516604" lon="11.350705434788392"><ele>394.0</ele><time>2026-04-11T05:05:07Z</time></trkpt><trkpt lat="43.427023266278376" lon="11.350472010748529"><ele>394.0</ele><time>2026-04-11T05:05:11Z</time></trkpt><trkpt lat="43.42708362650071" lon="11.350431384416046"><ele>394.0</ele><time>2026-04-11T05:05:12Z</time></trkpt><trkpt lat="43.42719654613188" lon="11.350371060794698"><ele>390.79999999999995</ele><time>2026-04-11T05:05:14Z</time></trkpt><trkpt lat="43.427329783357884" lon="11.350391901062652"><ele>387.59999999999997</ele><time>2026-04-11T05:05:15Z</time></trkpt><trkpt lat="43.42741926481228" lon="11.350359282738925"><ele>384.4</ele><time>2026-04-11T05:05:16Z</time></trkpt><trkpt lat="43.427516069386904" lon="11.350321755171207"><ele>381.2</ele><time>2026-04-11T05:05:17Z</time></trkpt><trkpt lat="43.4276167062509" lon="11.350275876993468"><ele>378.0</ele><time>2026-04-11T05:05:18Z</time></trkpt><trkpt lat="43.42771749209778" lon="11.350241680352482"><ele>378.0</ele><time>2026-04-11T05:05:19Z</time></trkpt><trkpt lat="43.427812227971344" lon="11.350185989396287"><ele>378.0</ele><time>2026-04-11T05:05:20Z</time></trkpt><trkpt lat="43.4279030505655" lon="11.350132119457324"><ele>378.0</ele><time>2026-04-11T05:05:21Z</time></trkpt><trkpt lat="43.427987745078795" lon="11.350089116128142"><ele>378.0</ele><time>2026-04-11T05:05:22Z</time></trkpt><trkpt lat="43.42807030751132" lon="11.350033862336156"><ele>378.0</ele><time>2026-04-11T05:05:23Z</time></trkpt><trkpt lat="43.42815762008725" lon="11.349999943066761"><ele>377.79999999999995</ele><time>2026-04-11T05:05:24Z</time></trkpt><trkpt lat="43.428246220838595" lon="11.349990215430534"><ele>377.6</ele><time>2026-04-11T05:05:25Z</time></trkpt><trkpt lat="43.42833442938795" lon="11.35000188720045"><ele>377.4</ele><time>2026-04-11T05:05:26Z</time></trkpt><trkpt lat="43.428416275529386" lon="11.35002009024244"><ele>377.20000000000005</ele><time>2026-04-11T05:05:27Z</time></trkpt><trkpt lat="43.4284873758638" lon="11.35004090468708"><ele>377.0</ele><time>2026-04-11T05:05:28Z</time></trkpt><trkpt lat="43.42866304961434" lon="11.350154794317982"><ele>376.99999999999994</ele><time>2026-04-11T05:05:31Z</time></trkpt><trkpt lat="43.428718646972996" lon="11.350204930316611"><ele>377.0</ele><time>2026-04-11T05:05:32Z</time></trkpt><trkpt lat="43.428778057297144" lon="11.350251794931388"><ele>377.0</ele><time>2026-04-11T05:05:33Z</time></trkpt><trkpt lat="43.428837917197306" lon="11.35029804876615"><ele>377.0</ele><time>2026-04-11T05:05:34Z</time></trkpt><trkpt lat="43.428901331267134" lon="11.350340688225494"><ele>377.0</ele><time>2026-04-11T05:05:35Z</time></trkpt><trkpt lat="43.42896398034259" lon="11.350381128938333"><ele>376.99999999999994</ele><time>2026-04-11T05:05:36Z</time></trkpt><trkpt lat="43.42902375001342" lon="11.350435635441363"><ele>377.0</ele><time>2026-04-11T05:05:37Z</time></trkpt><trkpt lat="43.42908266739189" lon="11.350475264392063"><ele>377.0</ele><time>2026-04-11T05:05:38Z</time></trkpt><trkpt lat="43.42914386845848" lon="11.350514906427883"><ele>377.0</ele><time>2026-04-11T05:05:39Z</time></trkpt><trkpt lat="43.429252253238865" lon="11.350594508349442"><ele>377.0</ele><time>2026-04-11T05:05:41Z</time></trkpt><trkpt lat="43.42935192529481" lon="11.3506673172819"><ele>377.0</ele><time>2026-04-11T05:05:43Z</time></trkpt><trkpt lat="43.42944515523449" lon="11.350712638952574"><ele>377.0</ele><time>2026-04-11T05:05:45Z</time></trkpt><trkpt lat="43.4295432976591" lon="11.35080192181982"><ele>377.5</ele><time>2026-04-11T05:05:47Z</time></trkpt><trkpt lat="43.42964262963754" lon="11.350858093867199"><ele>378.0</ele><time>2026-04-11T05:05:49Z</time></trkpt><trkpt lat="43.42982772861266" lon="11.350888536523179"><ele>378.5</ele><time>2026-04-11T05:05:53Z</time></trkpt><trkpt lat="43.429899977660774" lon="11.350878271203202"><ele>379.0</ele><time>2026-04-11T05:05:55Z</time></trkpt><trkpt lat="43.429994479839834" lon="11.350862842647372"><ele>379.0</ele><time>2026-04-11T05:05:58Z</time></trkpt><trkpt lat="43.43005736853299" lon="11.350858046309106"><ele>379.0</ele><time>2026-04-11T05:06:00Z</time></trkpt><trkpt lat="43.43012203464524" lon="11.35085168509096"><ele>379.0</ele><time>2026-04-11T05:06:02Z</time></trkpt><trkpt lat="43.43019354663516" lon="11.350845270362154"><ele>379.0</ele><time>2026-04-11T05:06:04Z</time></trkpt><trkpt lat="43.43028345951032" lon="11.350842964919757"><ele>379.0</ele><time>2026-04-11T05:06:06Z</time></trkpt><trkpt lat="43.43038087488685" lon="11.350847765168258"><ele>379.0</ele><time>2026-04-11T05:06:08Z</time></trkpt><trkpt lat="43.43047973402145" lon="11.350865564843229"><ele>379.75</ele><time>2026-04-11T05:06:10Z</time></trkpt><trkpt lat="43.43066769456715" lon="11.35090747456965"><ele>380.5</ele><time>2026-04-11T05:06:14Z</time></trkpt><trkpt lat="43.430760742856485" lon="11.350917036273948"><ele>381.25</ele><time>2026-04-11T05:06:16Z</time></trkpt><trkpt lat="43.430852053426605" lon="11.350912546700243"><ele>382.0</ele><time>2026-04-11T05:06:18Z</time></trkpt><trkpt lat="43.430935574672695" lon="11.350896316268333"><ele>382.0</ele><time>2026-04-11T05:06:20Z</time></trkpt><trkpt lat="43.43101291623816" lon="11.35086340724295"><ele>382.0</ele><time>2026-04-11T05:06:22Z</time></trkpt><trkpt lat="43.43107993101301" lon="11.35081794795252"><ele>382.0</ele><time>2026-04-11T05:06:24Z</time></trkpt><trkpt lat="43.43113840858679" lon="11.350779816498639"><ele>382.0</ele><time>2026-04-11T05:06:26Z</time></trkpt><trkpt lat="43.4312034731231" lon="11.350724855345433"><ele>382.0</ele><time>2026-04-11T05:06:29Z</time></trkpt><trkpt lat="43.4312606254052" lon="11.350684317258843"><ele>382.0</ele><time>2026-04-11T05:06:32Z</time></trkpt><trkpt lat="43.43140691220553" lon="11.350661947576782"><ele>384.3333333333333</ele><time>2026-04-11T05:06:40Z</time></trkpt><trkpt lat="43.4314721467832" lon="11.350698165217342"><ele>386.66666666666663</ele><time>2026-04-11T05:06:44Z</time></trkpt><trkpt lat="43.43152407740816" lon="11.350772496593338"><ele>389.0</ele><time>2026-04-11T05:06:48Z</time></trkpt><trkpt lat="43.431579471791665" lon="11.350851472008609"><ele>391.3333333333333</ele><time>2026-04-11T05:06:52Z</time></trkpt><trkpt lat="43.43162429488764" lon="11.350927026310151"><ele>393.6666666666667</ele><time>2026-04-11T05:06:56Z</time></trkpt><trkpt lat="43.4317376464132" lon="11.35106555603244"><ele>396.0</ele><time>2026-04-11T05:07:04Z</time></trkpt><trkpt lat="43.43179588706796" lon="11.351137291706157"><ele>396.0</ele><time>2026-04-11T05:07:08Z</time></trkpt><trkpt lat="43.43185319504106" lon="11.351188408807415"><ele>396.0</ele><time>2026-04-11T05:07:11Z</time></trkpt><trkpt lat="43.43192684756583" lon="11.351263034840406"><ele>396.0</ele><time>2026-04-11T05:07:14Z</time></trkpt><trkpt lat="43.43200148052268" lon="11.351310202098357"><ele>396.0</ele><time>2026-04-11T05:07:16Z</time></trkpt><trkpt lat="43.43210549637557" lon="11.351351689813773"><ele>396.0</ele><time>2026-04-11T05:07:18Z</time></trkpt><trkpt lat="43.432319807354865" lon="11.351372307761135"><ele>395.0</ele><time>2026-04-11T05:07:21Z</time></trkpt><trkpt lat="43.43241099263259" lon="11.351386379044834"><ele>394.0</ele><time>2026-04-11T05:07:22Z</time></trkpt><trkpt lat="43.43249884812485" lon="11.351401091027837"><ele>393.0</ele><time>2026-04-11T05:07:23Z</time></trkpt><trkpt lat="43.4325762148262" lon="11.351411478284282"><ele>392.0</ele><time>2026-04-11T05:07:24Z</time></trkpt><trkpt lat="43.4326456527459" lon="11.351418377800234"><ele>391.0</ele><time>2026-04-11T05:07:25Z</time></trkpt><trkpt lat="43.43271857799549" lon="11.351406196486789"><ele>390.0</ele><time>2026-04-11T05:07:26Z</time></trkpt><trkpt lat="43.43280106233316" lon="11.351375590105656"><ele>391.4</ele><time>2026-04-11T05:07:27Z</time></trkpt><trkpt lat="43.432887565050805" lon="11.351331958585705"><ele>392.8</ele><time>2026-04-11T05:07:28Z</time></trkpt><trkpt lat="43.43296669662857" lon="11.351275618673037"><ele>394.20000000000005</ele><time>2026-04-11T05:07:29Z</time></trkpt><trkpt lat="43.433042261822166" lon="11.351207967104289"><ele>395.6</ele><time>2026-04-11T05:07:30Z</time></trkpt><trkpt lat="43.43312396729905" lon="11.351133495909348"><ele>397.0</ele><time>2026-04-11T05:07:31Z</time></trkpt><trkpt lat="43.433216716407735" lon="11.351052879923504"><ele>393.8</ele><time>2026-04-11T05:07:32Z</time></trkpt><trkpt lat="43.43330964793364" lon="11.350965781640468"><ele>390.6</ele><time>2026-04-11T05:07:33Z</time></trkpt><trkpt lat="43.43340468723888" lon="11.350877616775955"><ele>387.40000000000003</ele><time>2026-04-11T05:07:34Z</time></trkpt><trkpt lat="43.4334952418871" lon="11.350798589813266"><ele>384.20000000000005</ele><time>2026-04-11T05:07:35Z</time></trkpt><trkpt lat="43.43358156896904" lon="11.350712145426938"><ele>381.0</ele><time>2026-04-11T05:07:36Z</time></trkpt><trkpt lat="43.43365649530551" lon="11.35062573560523"><ele>381.0</ele><time>2026-04-11T05:07:37Z</time></trkpt><trkpt lat="43.43373136042093" lon="11.35054335276362"><ele>381.0</ele><time>2026-04-11T05:07:38Z</time></trkpt><trkpt lat="43.4338029481915" lon="11.350467665661728"><ele>381.0</ele><time>2026-04-11T05:07:39Z</time></trkpt><trkpt lat="43.43395062313107" lon="11.350289600490532"><ele>381.0</ele><time>2026-04-11T05:07:41Z</time></trkpt><trkpt lat="43.43402315492854" lon="11.350196637088958"><ele>381.20000000000005</ele><time>2026-04-11T05:07:42Z</time></trkpt><trkpt lat="43.434098951555825" lon="11.350107359270725"><ele>381.40000000000003</ele><time>2026-04-11T05:07:43Z</time></trkpt><trkpt lat="43.43417071782688" lon="11.35001461444159"><ele>381.6</ele><time>2026-04-11T05:07:44Z</time></trkpt><trkpt lat="43.43423524167501" lon="11.349923769208264"><ele>381.8</ele><time>2026-04-11T05:07:45Z</time></trkpt><trkpt lat="43.43430048566502" lon="11.349837779574484"><ele>382.0</ele><time>2026-04-11T05:07:46Z</time></trkpt><trkpt lat="43.4343470444277" lon="11.349750999054017"><ele>383.66666666666663</ele><time>2026-04-11T05:07:47Z</time></trkpt><trkpt lat="43.43438787281282" lon="11.349638564771091"><ele>385.3333333333333</ele><time>2026-04-11T05:07:48Z</time></trkpt><trkpt lat="43.43442444533671" lon="11.349532530626517"><ele>387.0</ele><time>2026-04-11T05:07:49Z</time></trkpt><trkpt lat="43.434456525471845" lon="11.349420512618842"><ele>388.66666666666663</ele><time>2026-04-11T05:07:50Z</time></trkpt><trkpt lat="43.43449051424384" lon="11.349306366505177"><ele>390.3333333333333</ele><time>2026-04-11T05:07:51Z</time></trkpt><trkpt lat="43.434525515632345" lon="11.349185961073214"><ele>392.0</ele><time>2026-04-11T05:07:52Z</time></trkpt><trkpt lat="43.43456372756417" lon="11.349066422237096"><ele>391.99999999999994</ele><time>2026-04-11T05:07:53Z</time></trkpt><trkpt lat="43.4345830154627" lon="11.348956014886827"><ele>392.0</ele><time>2026-04-11T05:07:54Z</time></trkpt><trkpt lat="43.43460768347297" lon="11.348864936461796"><ele>392.0</ele><time>2026-04-11T05:07:55Z</time></trkpt><trkpt lat="43.43464703025592" lon="11.348777295547707"><ele>392.0</ele><time>2026-04-11T05:07:56Z</time></trkpt><trkpt lat="43.43471061041417" lon="11.348712141446624"><ele>391.99999999999994</ele><time>2026-04-11T05:07:57Z</time></trkpt><trkpt lat="43.43479119564842" lon="11.348667245317607"><ele>392.0</ele><time>2026-04-11T05:07:58Z</time></trkpt><trkpt lat="43.4348607094832" lon="11.348644658678333"><ele>390.40000000000003</ele><time>2026-04-11T05:07:59Z</time></trkpt><trkpt lat="43.43493143840982" lon="11.348667609260948"><ele>388.8</ele><time>2026-04-11T05:08:00Z</time></trkpt><trkpt lat="43.435063887519306" lon="11.348734684804516"><ele>387.2</ele><time>2026-04-11T05:08:02Z</time></trkpt><trkpt lat="43.43512958518323" lon="11.348772205727556"><ele>385.6</ele><time>2026-04-11T05:08:03Z</time></trkpt><trkpt lat="43.43524089094218" lon="11.348780990020254"><ele>384.0</ele><time>2026-04-11T05:08:06Z</time></trkpt><trkpt lat="43.43537592805048" lon="11.348770626863844"><ele>383.79999999999995</ele><time>2026-04-11T05:08:08Z</time></trkpt><trkpt lat="43.43549602282943" lon="11.348743122965338"><ele>383.59999999999997</ele><time>2026-04-11T05:08:10Z</time></trkpt><trkpt lat="43.43561682311616" lon="11.348693425261098"><ele>383.4</ele><time>2026-04-11T05:08:12Z</time></trkpt><trkpt lat="43.43568903616359" lon="11.348668110815906"><ele>383.2</ele><time>2026-04-11T05:08:13Z</time></trkpt><trkpt lat="43.435762164280234" lon="11.348653938088637"><ele>383.0</ele><time>2026-04-11T05:08:14Z</time></trkpt><trkpt lat="43.43583345182719" lon="11.348648389396418"><ele>383.0</ele><time>2026-04-11T05:08:15Z</time></trkpt><trkpt lat="43.43590801544221" lon="11.348664775294111"><ele>383.0</ele><time>2026-04-11T05:08:16Z</time></trkpt><trkpt lat="43.43597791097054" lon="11.348688794176876"><ele>383.0</ele><time>2026-04-11T05:08:17Z</time></trkpt><trkpt lat="43.43604128385888" lon="11.348726163710268"><ele>383.0</ele><time>2026-04-11T05:08:18Z</time></trkpt><trkpt lat="43.436108808266106" lon="11.348772491228"><ele>383.0</ele><time>2026-04-11T05:08:19Z</time></trkpt><trkpt lat="43.43617599146481" lon="11.348804310518348"><ele>383.0</ele><time>2026-04-11T05:08:20Z</time></trkpt><trkpt lat="43.43630657038409" lon="11.348950356843254"><ele>380.5</ele><time>2026-04-11T05:08:22Z</time></trkpt><trkpt lat="43.436453352486275" lon="11.34907417897366"><ele>378.0</ele><time>2026-04-11T05:08:25Z</time></trkpt><trkpt lat="43.4365143197846" lon="11.349138523357034"><ele>375.5</ele><time>2026-04-11T05:08:26Z</time></trkpt><trkpt lat="43.43657223580715" lon="11.349204797067527"><ele>373.0</ele><time>2026-04-11T05:08:27Z</time></trkpt><trkpt lat="43.436679478242674" lon="11.34931394036052"><ele>373.0</ele><time>2026-04-11T05:08:29Z</time></trkpt><trkpt lat="43.43673824860297" lon="11.349359169133537"><ele>373.0</ele><time>2026-04-11T05:08:30Z</time></trkpt><trkpt lat="43.4368896243822" lon="11.34939599922002"><ele>373.0</ele><time>2026-04-11T05:08:32Z</time></trkpt><trkpt lat="43.436970077919675" lon="11.34936413075724"><ele>373.0</ele><time>2026-04-11T05:08:33Z</time></trkpt><trkpt lat="43.437033880738696" lon="11.34933540182198"><ele>373.0</ele><time>2026-04-11T05:08:34Z</time></trkpt><trkpt lat="43.43709573074429" lon="11.349267984170032"><ele>372.66666666666663</ele><time>2026-04-11T05:08:35Z</time></trkpt><trkpt lat="43.43714817533382" lon="11.349182171992906"><ele>372.3333333333333</ele><time>2026-04-11T05:08:36Z</time></trkpt><trkpt lat="43.4371858222153" lon="11.349091389760556"><ele>372.0</ele><time>2026-04-11T05:08:37Z</time></trkpt><trkpt lat="43.43722381162805" lon="11.34900174092753"><ele>371.6666666666667</ele><time>2026-04-11T05:08:38Z</time></trkpt><trkpt lat="43.43725803275466" lon="11.348907702155644"><ele>371.33333333333337</ele><time>2026-04-11T05:08:39Z</time></trkpt><trkpt lat="43.437276902305825" lon="11.348819126246607"><ele>371.0</ele><time>2026-04-11T05:08:40Z</time></trkpt><trkpt lat="43.43729713060849" lon="11.348709950024922"><ele>372.5</ele><time>2026-04-11T05:08:41Z</time></trkpt><trkpt lat="43.4373087684414" lon="11.34860279829252"><ele>374.0</ele><time>2026-04-11T05:08:42Z</time></trkpt><trkpt lat="43.43734831762263" lon="11.348521198026743"><ele>375.5</ele><time>2026-04-11T05:08:43Z</time></trkpt><trkpt lat="43.437501005145236" lon="11.348346715860986"><ele>377.0</ele><time>2026-04-11T05:08:46Z</time></trkpt><trkpt lat="43.437622819703115" lon="11.348352158360248"><ele>377.0</ele><time>2026-04-11T05:08:48Z</time></trkpt><trkpt lat="43.43769023550126" lon="11.348386922045083"><ele>377.0</ele><time>2026-04-11T05:08:49Z</time></trkpt><trkpt lat="43.4377902264378" lon="11.348470930469423"><ele>377.0</ele><time>2026-04-11T05:08:51Z</time></trkpt><trkpt lat="43.43786344710026" lon="11.348603178781254"><ele>377.0</ele><time>2026-04-11T05:08:53Z</time></trkpt><trkpt lat="43.43788550432538" lon="11.348687448068521"><ele>377.0</ele><time>2026-04-11T05:08:54Z</time></trkpt><trkpt lat="43.43787665475749" lon="11.348779353081078"><ele>377.0</ele><time>2026-04-11T05:08:55Z</time></trkpt><trkpt lat="43.43792732618345" lon="11.348904338557498"><ele>375.8</ele><time>2026-04-11T05:08:57Z</time></trkpt><trkpt lat="43.43795873469924" lon="11.349038701877118"><ele>374.6</ele><time>2026-04-11T05:08:59Z</time></trkpt><trkpt lat="43.4379794293603" lon="11.349177488645964"><ele>373.40000000000003</ele><time>2026-04-11T05:09:01Z</time></trkpt><trkpt lat="43.43801102889219" lon="11.349312616136908"><ele>372.20000000000005</ele><time>2026-04-11T05:09:03Z</time></trkpt><trkpt lat="43.43808194235938" lon="11.34940819123798"><ele>371.0</ele><time>2026-04-11T05:09:05Z</time></trkpt><trkpt lat="43.4381918922141" lon="11.349611606191361"><ele>371.8</ele><time>2026-04-11T05:09:09Z</time></trkpt><trkpt lat="43.43825204517207" lon="11.349706029375577"><ele>372.6</ele><time>2026-04-11T05:09:11Z</time></trkpt><trkpt lat="43.43834972731616" lon="11.34980181304226"><ele>373.4</ele><time>2026-04-11T05:09:13Z</time></trkpt><trkpt lat="43.43844243256815" lon="11.349851591353294"><ele>374.2</ele><time>2026-04-11T05:09:15Z</time></trkpt><trkpt lat="43.43853903964925" lon="11.349901737090011"><ele>375.0</ele><time>2026-04-11T05:09:17Z</time></trkpt><trkpt lat="43.43864651348824" lon="11.349949069428053"><ele>375.0</ele><time>2026-04-11T05:09:19Z</time></trkpt><trkpt lat="43.43874282914735" lon="11.349981727519808"><ele>375.0</ele><time>2026-04-11T05:09:21Z</time></trkpt><trkpt lat="43.43883975859346" lon="11.350027944667536"><ele>375.0</ele><time>2026-04-11T05:09:22Z</time></trkpt><trkpt lat="43.438950851227865" lon="11.350072634427587"><ele>375.0</ele><time>2026-04-11T05:09:24Z</time></trkpt><trkpt lat="43.43903454966537" lon="11.350098844936625"><ele>375.0</ele><time>2026-04-11T05:09:25Z</time></trkpt><trkpt lat="43.439114608843965" lon="11.350129438421924"><ele>375.5</ele><time>2026-04-11T05:09:26Z</time></trkpt><trkpt lat="43.43928483159232" lon="11.350206867919"><ele>376.0</ele><time>2026-04-11T05:09:28Z</time></trkpt><trkpt lat="43.4393530593881" lon="11.350225377378056"><ele>376.5</ele><time>2026-04-11T05:09:29Z</time></trkpt><trkpt lat="43.43945633277326" lon="11.350270303400423"><ele>377.0</ele><time>2026-04-11T05:09:30Z</time></trkpt><trkpt lat="43.43955270190167" lon="11.350318146281111"><ele>376.8</ele><time>2026-04-11T05:09:31Z</time></trkpt><trkpt lat="43.43964621145122" lon="11.350365355117308"><ele>376.6</ele><time>2026-04-11T05:09:32Z</time></trkpt><trkpt lat="43.43974421481061" lon="11.350419066167582"><ele>376.40000000000003</ele><time>2026-04-11T05:09:33Z</time></trkpt><trkpt lat="43.43985349544808" lon="11.35049273196509"><ele>376.20000000000005</ele><time>2026-04-11T05:09:34Z</time></trkpt><trkpt lat="43.43995536736973" lon="11.35055340704281"><ele>376.0</ele><time>2026-04-11T05:09:35Z</time></trkpt><trkpt lat="43.44003255621239" lon="11.350640345680226"><ele>375.4</ele><time>2026-04-11T05:09:36Z</time></trkpt><trkpt lat="43.44013331732588" lon="11.350723874189883"><ele>374.8</ele><time>2026-04-11T05:09:37Z</time></trkpt><trkpt lat="43.440212358448434" lon="11.350825724902439"><ele>374.2</ele><time>2026-04-11T05:09:38Z</time></trkpt><trkpt lat="43.44027253948958" lon="11.350929863041593"><ele>373.59999999999997</ele><time>2026-04-11T05:09:39Z</time></trkpt><trkpt lat="43.44031514253772" lon="11.351039243102257"><ele>373.0</ele><time>2026-04-11T05:09:40Z</time></trkpt><trkpt lat="43.44035167513611" lon="11.351156303873024"><ele>373.0</ele><time>2026-04-11T05:09:41Z</time></trkpt><trkpt lat="43.440402783491734" lon="11.351269448525528"><ele>373.0</ele><time>2026-04-11T05:09:42Z</time></trkpt><trkpt lat="43.44042896784501" lon="11.351358365701184"><ele>373.0</ele><time>2026-04-11T05:09:43Z</time></trkpt><trkpt lat="43.44046984345288" lon="11.351486896430458"><ele>373.0</ele><time>2026-04-11T05:09:44Z</time></trkpt><trkpt lat="43.44052322230493" lon="11.35159224451765"><ele>373.0</ele><time>2026-04-11T05:09:45Z</time></trkpt><trkpt lat="43.440575504710644" lon="11.351691151406033"><ele>373.0</ele><time>2026-04-11T05:09:46Z</time></trkpt><trkpt lat="43.44059840300363" lon="11.35180344600247"><ele>373.0</ele><time>2026-04-11T05:09:47Z</time></trkpt><trkpt lat="43.44061800730472" lon="11.352064334704405"><ele>373.0</ele><time>2026-04-11T05:09:49Z</time></trkpt><trkpt lat="43.44061543699379" lon="11.35215132445502"><ele>373.0</ele><time>2026-04-11T05:09:50Z</time></trkpt><trkpt lat="43.440632827731285" lon="11.352273220648192"><ele>373.0</ele><time>2026-04-11T05:09:51Z</time></trkpt><trkpt lat="43.440645657431794" lon="11.352391658127654"><ele>372.0</ele><time>2026-04-11T05:09:52Z</time></trkpt><trkpt lat="43.44067415069094" lon="11.352497602760707"><ele>371.0</ele><time>2026-04-11T05:09:53Z</time></trkpt><trkpt lat="43.44069420201341" lon="11.352606189718095"><ele>370.0</ele><time>2026-04-11T05:09:54Z</time></trkpt><trkpt lat="43.44072269589326" lon="11.352730697938407"><ele>369.0</ele><time>2026-04-11T05:09:55Z</time></trkpt><trkpt lat="43.440740562611" lon="11.352848058481992"><ele>368.0</ele><time>2026-04-11T05:09:56Z</time></trkpt><trkpt lat="43.44073498857074" lon="11.35295869314267"><ele>367.0</ele><time>2026-04-11T05:09:57Z</time></trkpt><trkpt lat="43.44075494625845" lon="11.353171331470946"><ele>366.0</ele><time>2026-04-11T05:09:59Z</time></trkpt><trkpt lat="43.440768462745254" lon="11.353262455535518"><ele>365.0</ele><time>2026-04-11T05:10:00Z</time></trkpt><trkpt lat="43.440783950698766" lon="11.353373527516991"><ele>364.0</ele><time>2026-04-11T05:10:01Z</time></trkpt><trkpt lat="43.440801994939065" lon="11.35354646341834"><ele>363.0</ele><time>2026-04-11T05:10:03Z</time></trkpt><trkpt lat="43.44081822624439" lon="11.353647763589631"><ele>362.0</ele><time>2026-04-11T05:10:04Z</time></trkpt><trkpt lat="43.4408311415798" lon="11.353744325107293"><ele>361.0</ele><time>2026-04-11T05:10:05Z</time></trkpt><trkpt lat="43.44083958175993" lon="11.353840122002861"><ele>360.0</ele><time>2026-04-11T05:10:06Z</time></trkpt><trkpt lat="43.440847994109134" lon="11.353933289489474"><ele>359.0</ele><time>2026-04-11T05:10:07Z</time></trkpt><trkpt lat="43.440856624891026" lon="11.354048722836335"><ele>358.0</ele><time>2026-04-11T05:10:08Z</time></trkpt><trkpt lat="43.44090104706424" lon="11.354238473348849"><ele>357.0</ele><time>2026-04-11T05:10:10Z</time></trkpt><trkpt lat="43.44092278997498" lon="11.354339952332266"><ele>356.0</ele><time>2026-04-11T05:10:11Z</time></trkpt><trkpt lat="43.44094495484424" lon="11.354436978295245"><ele>355.0</ele><time>2026-04-11T05:10:12Z</time></trkpt><trkpt lat="43.44096955088341" lon="11.35453792000607"><ele>355.0</ele><time>2026-04-11T05:10:13Z</time></trkpt><trkpt lat="43.44098910864178" lon="11.354620568623444"><ele>355.0</ele><time>2026-04-11T05:10:14Z</time></trkpt><trkpt lat="43.441049181797965" lon="11.354706205477695"><ele>355.0</ele><time>2026-04-11T05:10:15Z</time></trkpt><trkpt lat="43.441044625319" lon="11.354792975977524"><ele>355.0</ele><time>2026-04-11T05:10:16Z</time></trkpt><trkpt lat="43.4410506121891" lon="11.3549569123754"><ele>355.0</ele><time>2026-04-11T05:10:18Z</time></trkpt><trkpt lat="43.441057107997004" lon="11.355118247255046"><ele>355.0</ele><time>2026-04-11T05:10:20Z</time></trkpt><trkpt lat="43.441036581191156" lon="11.355281702373029"><ele>354.6</ele><time>2026-04-11T05:10:22Z</time></trkpt><trkpt lat="43.44104896533518" lon="11.355432690662374"><ele>354.2</ele><time>2026-04-11T05:10:24Z</time></trkpt><trkpt lat="43.441009882765535" lon="11.355572722809912"><ele>353.79999999999995</ele><time>2026-04-11T05:10:26Z</time></trkpt><trkpt lat="43.44097086120383" lon="11.355708284018592"><ele>353.4</ele><time>2026-04-11T05:10:28Z</time></trkpt><trkpt lat="43.44098998699998" lon="11.355814443270454"><ele>353.0</ele><time>2026-04-11T05:10:30Z</time></trkpt><trkpt lat="43.44119659053978" lon="11.355847964495018"><ele>352.83333333333337</ele><time>2026-04-11T05:10:34Z</time></trkpt><trkpt lat="43.44126797026869" lon="11.355812233378483"><ele>352.6666666666667</ele><time>2026-04-11T05:10:35Z</time></trkpt><trkpt lat="43.441368814281354" lon="11.355722188968022"><ele>352.5</ele><time>2026-04-11T05:10:37Z</time></trkpt><trkpt lat="43.44141570877097" lon="11.355652216818171"><ele>352.3333333333333</ele><time>2026-04-11T05:10:38Z</time></trkpt><trkpt lat="43.441459259680045" lon="11.355586436948638"><ele>352.16666666666663</ele><time>2026-04-11T05:10:39Z</time></trkpt><trkpt lat="43.44150140535803" lon="11.355516646108008"><ele>352.0</ele><time>2026-04-11T05:10:40Z</time></trkpt><trkpt lat="43.441559276083325" lon="11.355389785500467"><ele>352.5</ele><time>2026-04-11T05:10:42Z</time></trkpt><trkpt lat="43.44162299510277" lon="11.355324836751254"><ele>353.0</ele><time>2026-04-11T05:10:43Z</time></trkpt><trkpt lat="43.44167954611423" lon="11.35528478065156"><ele>353.5</ele><time>2026-04-11T05:10:44Z</time></trkpt><trkpt lat="43.441775731837815" lon="11.35529369110195"><ele>354.0</ele><time>2026-04-11T05:10:45Z</time></trkpt><trkpt lat="43.44184725292915" lon="11.35527432771694"><ele>354.5</ele><time>2026-04-11T05:10:46Z</time></trkpt><trkpt lat="43.441913407940206" lon="11.355249945017343"><ele>355.0</ele><time>2026-04-11T05:10:47Z</time></trkpt><trkpt lat="43.44199545989673" lon="11.355232166268362"><ele>350.25</ele><time>2026-04-11T05:10:48Z</time></trkpt><trkpt lat="43.442152701701254" lon="11.355233504614356"><ele>345.5</ele><time>2026-04-11T05:10:49Z</time></trkpt><trkpt lat="43.44222019804372" lon="11.355214391122423"><ele>340.75</ele><time>2026-04-11T05:10:50Z</time></trkpt><trkpt lat="43.4422938848062" lon="11.355199369516956"><ele>336.0</ele><time>2026-04-11T05:10:51Z</time></trkpt><trkpt lat="43.44244326586804" lon="11.355079094660617"><ele>336.0</ele><time>2026-04-11T05:10:53Z</time></trkpt><trkpt lat="43.44252447616926" lon="11.355012289977983"><ele>336.0</ele><time>2026-04-11T05:10:54Z</time></trkpt><trkpt lat="43.442611839464284" lon="11.354938899836963"><ele>336.0</ele><time>2026-04-11T05:10:55Z</time></trkpt><trkpt lat="43.44269106130689" lon="11.35485636424985"><ele>336.0</ele><time>2026-04-11T05:10:56Z</time></trkpt><trkpt lat="43.442777241701535" lon="11.354780736514048"><ele>336.0</ele><time>2026-04-11T05:10:57Z</time></trkpt><trkpt lat="43.442863180198735" lon="11.354723444311196"><ele>335.6</ele><time>2026-04-11T05:10:58Z</time></trkpt><trkpt lat="43.44295729388634" lon="11.354676440617375"><ele>335.20000000000005</ele><time>2026-04-11T05:10:59Z</time></trkpt><trkpt lat="43.443054090729724" lon="11.354626369743508"><ele>334.79999999999995</ele><time>2026-04-11T05:11:00Z</time></trkpt><trkpt lat="43.443152578321595" lon="11.3545684267296"><ele>334.4</ele><time>2026-04-11T05:11:01Z</time></trkpt><trkpt lat="43.44325052443773" lon="11.35449871316799"><ele>334.0</ele><time>2026-04-11T05:11:02Z</time></trkpt><trkpt lat="43.443358076905305" lon="11.35443886504653"><ele>334.0</ele><time>2026-04-11T05:11:03Z</time></trkpt><trkpt lat="43.44345636360688" lon="11.35438003172803"><ele>334.0</ele><time>2026-04-11T05:11:04Z</time></trkpt><trkpt lat="43.44355874793145" lon="11.354320035445156"><ele>334.0</ele><time>2026-04-11T05:11:05Z</time></trkpt><trkpt lat="43.443653203528285" lon="11.3542473345261"><ele>334.0</ele><time>2026-04-11T05:11:06Z</time></trkpt><trkpt lat="43.44374951214411" lon="11.354181717573226"><ele>334.0</ele><time>2026-04-11T05:11:07Z</time></trkpt><trkpt lat="43.443854909669085" lon="11.354120461573832"><ele>335.4</ele><time>2026-04-11T05:11:08Z</time></trkpt><trkpt lat="43.44395144800182" lon="11.354060987167207"><ele>336.79999999999995</ele><time>2026-04-11T05:11:09Z</time></trkpt><trkpt lat="43.44403386449921" lon="11.3540128924412"><ele>338.20000000000005</ele><time>2026-04-11T05:11:10Z</time></trkpt><trkpt lat="43.44411915095332" lon="11.353954383094711"><ele>339.6</ele><time>2026-04-11T05:11:11Z</time></trkpt><trkpt lat="43.444181928226485" lon="11.353909292227549"><ele>341.0</ele><time>2026-04-11T05:11:12Z</time></trkpt><trkpt lat="43.44435595561934" lon="11.353836881405943"><ele>341.0</ele><time>2026-04-11T05:11:14Z</time></trkpt><trkpt lat="43.44444092852319" lon="11.353804946451037"><ele>341.0</ele><time>2026-04-11T05:11:15Z</time></trkpt><trkpt lat="43.444532040328504" lon="11.3537851229525"><ele>341.0</ele><time>2026-04-11T05:11:16Z</time></trkpt><trkpt lat="43.44461149576301" lon="11.353772964460724"><ele>341.0</ele><time>2026-04-11T05:11:17Z</time></trkpt><trkpt lat="43.44469434657267" lon="11.353749209688903"><ele>341.0</ele><time>2026-04-11T05:11:18Z</time></trkpt><trkpt lat="43.44477834701135" lon="11.353727114920552"><ele>341.0</ele><time>2026-04-11T05:11:19Z</time></trkpt><trkpt lat="43.44485464856181" lon="11.35373056219865"><ele>339.1428571428571</ele><time>2026-04-11T05:11:20Z</time></trkpt><trkpt lat="43.444912863714826" lon="11.353788070143967"><ele>337.2857142857143</ele><time>2026-04-11T05:11:21Z</time></trkpt><trkpt lat="43.444956140900665" lon="11.353863826546725"><ele>335.42857142857144</ele><time>2026-04-11T05:11:22Z</time></trkpt><trkpt lat="43.44497568701211" lon="11.353967050104314"><ele>333.57142857142856</ele><time>2026-04-11T05:11:23Z</time></trkpt><trkpt lat="43.44499528072756" lon="11.354061219845702"><ele>331.7142857142857</ele><time>2026-04-11T05:11:24Z</time></trkpt><trkpt lat="43.44501373608697" lon="11.354148916991857"><ele>329.85714285714283</ele><time>2026-04-11T05:11:25Z</time></trkpt><trkpt lat="43.44497823314291" lon="11.354241842124175"><ele>328.0</ele><time>2026-04-11T05:11:26Z</time></trkpt><trkpt lat="43.444979271887334" lon="11.354330402532032"><ele>328.0</ele><time>2026-04-11T05:11:27Z</time></trkpt><trkpt lat="43.444997525227386" lon="11.354421111643564"><ele>328.0</ele><time>2026-04-11T05:11:28Z</time></trkpt><trkpt lat="43.44504834515691" lon="11.354595855949217"><ele>328.0</ele><time>2026-04-11T05:11:30Z</time></trkpt><trkpt lat="43.445087818934375" lon="11.354689308159436"><ele>328.0</ele><time>2026-04-11T05:11:31Z</time></trkpt><trkpt lat="43.4451351085544" lon="11.354762070507867"><ele>328.0</ele><time>2026-04-11T05:11:32Z</time></trkpt><trkpt lat="43.445250023413614" lon="11.354877761193"><ele>327.66666666666663</ele><time>2026-04-11T05:11:34Z</time></trkpt><trkpt lat="43.44539108925109" lon="11.354994240065878"><ele>327.3333333333333</ele><time>2026-04-11T05:11:36Z</time></trkpt><trkpt lat="43.44546023197348" lon="11.355039477614314"><ele>327.0</ele><time>2026-04-11T05:11:37Z</time></trkpt><trkpt lat="43.445521170439186" lon="11.355078146879968"><ele>326.6666666666667</ele><time>2026-04-11T05:11:38Z</time></trkpt><trkpt lat="43.44558470359513" lon="11.355127148988775"><ele>326.33333333333337</ele><time>2026-04-11T05:11:39Z</time></trkpt><trkpt lat="43.44565183340617" lon="11.355133063527848"><ele>326.0</ele><time>2026-04-11T05:11:40Z</time></trkpt><trkpt lat="43.44572876902181" lon="11.355162311204063"><ele>326.8571428571429</ele><time>2026-04-11T05:11:41Z</time></trkpt><trkpt lat="43.44580628187431" lon="11.35517754736678"><ele>327.71428571428567</ele><time>2026-04-11T05:11:42Z</time></trkpt><trkpt lat="43.445871741428995" lon="11.35519263573158"><ele>328.57142857142856</ele><time>2026-04-11T05:11:43Z</time></trkpt><trkpt lat="43.4459377458325" lon="11.35519723063622"><ele>329.42857142857144</ele><time>2026-04-11T05:11:44Z</time></trkpt><trkpt lat="43.44600148587257" lon="11.355203800256852"><ele>330.28571428571433</ele><time>2026-04-11T05:11:45Z</time></trkpt><trkpt lat="43.44606273279583" lon="11.355231247168346"><ele>331.1428571428571</ele><time>2026-04-11T05:11:46Z</time></trkpt><trkpt lat="43.44612927582234" lon="11.355214295967244"><ele>332.0</ele><time>2026-04-11T05:11:47Z</time></trkpt><trkpt lat="43.44619851066899" lon="11.355221730611591"><ele>332.0</ele><time>2026-04-11T05:11:48Z</time></trkpt><trkpt lat="43.44626406481384" lon="11.355234011566461"><ele>332.0</ele><time>2026-04-11T05:11:49Z</time></trkpt><trkpt lat="43.446331708185404" lon="11.355248460720773"><ele>332.0</ele><time>2026-04-11T05:11:50Z</time></trkpt><trkpt lat="43.446403761863394" lon="11.355251963462468"><ele>332.0</ele><time>2026-04-11T05:11:51Z</time></trkpt><trkpt lat="43.44647662955397" lon="11.355255606461371"><ele>332.0</ele><time>2026-04-11T05:11:52Z</time></trkpt><trkpt lat="43.44655092228539" lon="11.355261445842784"><ele>332.0</ele><time>2026-04-11T05:11:53Z</time></trkpt><trkpt lat="43.44663363289127" lon="11.355283823595073"><ele>332.0</ele><time>2026-04-11T05:11:54Z</time></trkpt><trkpt lat="43.44669744572868" lon="11.355306855461992"><ele>333.0</ele><time>2026-04-11T05:11:55Z</time></trkpt><trkpt lat="43.44686032975888" lon="11.355356341494737"><ele>334.0</ele><time>2026-04-11T05:11:58Z</time></trkpt><trkpt lat="43.4469734552872" lon="11.355382765977662"><ele>335.0</ele><time>2026-04-11T05:12:00Z</time></trkpt><trkpt lat="43.447044234899366" lon="11.355398169899457"><ele>336.0</ele><time>2026-04-11T05:12:01Z</time></trkpt><trkpt lat="43.44711320643801" lon="11.355412658847852"><ele>337.0</ele><time>2026-04-11T05:12:02Z</time></trkpt><trkpt lat="43.447188163894666" lon="11.355416758810655"><ele>335.8</ele><time>2026-04-11T05:12:04Z</time></trkpt><trkpt lat="43.44729249220034" lon="11.355435725813965"><ele>334.6</ele><time>2026-04-11T05:12:06Z</time></trkpt><trkpt lat="43.44737986201866" lon="11.355428765076473"><ele>333.40000000000003</ele><time>2026-04-11T05:12:08Z</time></trkpt><trkpt lat="43.447472070536755" lon="11.355459902038518"><ele>332.20000000000005</ele><time>2026-04-11T05:12:10Z</time></trkpt><trkpt lat="43.447572339259814" lon="11.35549702936035"><ele>331.0</ele><time>2026-04-11T05:12:12Z</time></trkpt><trkpt lat="43.447674104891945" lon="11.355554676824765"><ele>331.0</ele><time>2026-04-11T05:12:14Z</time></trkpt><trkpt lat="43.44776527970796" lon="11.355617868067453"><ele>331.0</ele><time>2026-04-11T05:12:16Z</time></trkpt><trkpt lat="43.44797238769096" lon="11.355743882720706"><ele>331.0</ele><time>2026-04-11T05:12:20Z</time></trkpt><trkpt lat="43.44802795466941" lon="11.355784968590536"><ele>331.0</ele><time>2026-04-11T05:12:21Z</time></trkpt><trkpt lat="43.448081063300535" lon="11.355835068678642"><ele>331.7142857142857</ele><time>2026-04-11T05:12:22Z</time></trkpt><trkpt lat="43.448147661240725" lon="11.355855305125658"><ele>332.42857142857144</ele><time>2026-04-11T05:12:23Z</time></trkpt><trkpt lat="43.4482089467455" lon="11.355882894160917"><ele>333.1428571428571</ele><time>2026-04-11T05:12:24Z</time></trkpt><trkpt lat="43.448272414975364" lon="11.355917801480551"><ele>333.8571428571429</ele><time>2026-04-11T05:12:25Z</time></trkpt><trkpt lat="43.44833262258798" lon="11.355956414272102"><ele>334.57142857142856</ele><time>2026-04-11T05:12:26Z</time></trkpt><trkpt lat="43.448399971344045" lon="11.355995768532113"><ele>335.2857142857143</ele><time>2026-04-11T05:12:27Z</time></trkpt><trkpt lat="43.448461400952375" lon="11.356036108426515"><ele>336.0</ele><time>2026-04-11T05:12:28Z</time></trkpt><trkpt lat="43.448575709352966" lon="11.35609645683663"><ele>336.0</ele><time>2026-04-11T05:12:30Z</time></trkpt><trkpt lat="43.44868076056864" lon="11.356162837523193"><ele>336.0</ele><time>2026-04-11T05:12:32Z</time></trkpt><trkpt lat="43.448780588978195" lon="11.3562211306763"><ele>336.0</ele><time>2026-04-11T05:12:34Z</time></trkpt><trkpt lat="43.44886612440774" lon="11.356252417274145"><ele>336.0</ele><time>2026-04-11T05:12:36Z</time></trkpt><trkpt lat="43.44894135081126" lon="11.356317038739622"><ele>336.0</ele><time>2026-04-11T05:12:38Z</time></trkpt><trkpt lat="43.44910896234825" lon="11.356471161527109"><ele>335.20000000000005</ele><time>2026-04-11T05:12:42Z</time></trkpt><trkpt lat="43.44918784157814" lon="11.356544657360025"><ele>334.40000000000003</ele><time>2026-04-11T05:12:44Z</time></trkpt><trkpt lat="43.4492631445085" lon="11.356599929337717"><ele>333.6</ele><time>2026-04-11T05:12:46Z</time></trkpt><trkpt lat="43.44934614495073" lon="11.356645385092332"><ele>332.8</ele><time>2026-04-11T05:12:48Z</time></trkpt><trkpt lat="43.44943072064577" lon="11.356684612967557"><ele>332.0</ele><time>2026-04-11T05:12:50Z</time></trkpt><trkpt lat="43.4495282309655" lon="11.356699833052263"><ele>332.0</ele><time>2026-04-11T05:12:53Z</time></trkpt><trkpt lat="43.44960267767227" lon="11.35671206851488"><ele>332.0</ele><time>2026-04-11T05:12:55Z</time></trkpt><trkpt lat="43.44967955694033" lon="11.3567297082463"><ele>332.0</ele><time>2026-04-11T05:12:57Z</time></trkpt><trkpt lat="43.44974826207902" lon="11.356743854315226"><ele>332.0</ele><time>2026-04-11T05:12:59Z</time></trkpt><trkpt lat="43.449908320780466" lon="11.356749604257859"><ele>332.0</ele><time>2026-04-11T05:13:03Z</time></trkpt><trkpt lat="43.44998317347665" lon="11.356752270311777"><ele>333.33333333333337</ele><time>2026-04-11T05:13:05Z</time></trkpt><trkpt lat="43.45007544710603" lon="11.356794059974561"><ele>334.6666666666667</ele><time>2026-04-11T05:13:07Z</time></trkpt><trkpt lat="43.45013391793779" lon="11.356733019038664"><ele>336.0</ele><time>2026-04-11T05:13:09Z</time></trkpt><trkpt lat="43.45020378486951" lon="11.356666306085033"><ele>337.3333333333333</ele><time>2026-04-11T05:13:12Z</time></trkpt><trkpt lat="43.45027210469885" lon="11.356607359497639"><ele>338.66666666666663</ele><time>2026-04-11T05:13:14Z</time></trkpt><trkpt lat="43.45033551615633" lon="11.356537474863169"><ele>340.0</ele><time>2026-04-11T05:13:16Z</time></trkpt><trkpt lat="43.45040521987178" lon="11.35646493909069"><ele>339.6</ele><time>2026-04-11T05:13:18Z</time></trkpt><trkpt lat="43.45047805338731" lon="11.356403123506977"><ele>339.2</ele><time>2026-04-11T05:13:20Z</time></trkpt><trkpt lat="43.450596307578394" lon="11.356269068001131"><ele>338.79999999999995</ele><time>2026-04-11T05:13:24Z</time></trkpt><trkpt lat="43.45065300645856" lon="11.356207135545693"><ele>338.4</ele><time>2026-04-11T05:13:26Z</time></trkpt><trkpt lat="43.4507070363119" lon="11.356133922090383"><ele>338.0</ele><time>2026-04-11T05:13:29Z</time></trkpt><trkpt lat="43.450777826878976" lon="11.356061946997185"><ele>339.79999999999995</ele><time>2026-04-11T05:13:31Z</time></trkpt><trkpt lat="43.45085545304702" lon="11.355963723952868"><ele>341.6</ele><time>2026-04-11T05:13:33Z</time></trkpt><trkpt lat="43.45093834054164" lon="11.355843572461156"><ele>343.4</ele><time>2026-04-11T05:13:35Z</time></trkpt><trkpt lat="43.450992071263094" lon="11.355782621045257"><ele>345.20000000000005</ele><time>2026-04-11T05:13:36Z</time></trkpt><trkpt lat="43.45105013556504" lon="11.355722925685756"><ele>347.0</ele><time>2026-04-11T05:13:37Z</time></trkpt><trkpt lat="43.451121332303906" lon="11.355660912361076"><ele>347.0</ele><time>2026-04-11T05:13:38Z</time></trkpt><trkpt lat="43.45118936951934" lon="11.355606505076139"><ele>347.0</ele><time>2026-04-11T05:13:39Z</time></trkpt><trkpt lat="43.451266231669834" lon="11.355540228228088"><ele>347.0</ele><time>2026-04-11T05:13:40Z</time></trkpt><trkpt lat="43.45134119482888" lon="11.35547772287874"><ele>347.0</ele><time>2026-04-11T05:13:41Z</time></trkpt><trkpt lat="43.451478542626056" lon="11.35537154616211"><ele>347.0</ele><time>2026-04-11T05:13:43Z</time></trkpt><trkpt lat="43.45155321739118" lon="11.355366984634227"><ele>347.40000000000003</ele><time>2026-04-11T05:13:44Z</time></trkpt><trkpt lat="43.4516162562649" lon="11.35532869500246"><ele>347.8</ele><time>2026-04-11T05:13:45Z</time></trkpt><trkpt lat="43.45168849832725" lon="11.355293800732579"><ele>348.2</ele><time>2026-04-11T05:13:46Z</time></trkpt><trkpt lat="43.45182252827539" lon="11.355276079481007"><ele>348.6</ele><time>2026-04-11T05:13:48Z</time></trkpt><trkpt lat="43.451926540548676" lon="11.35525285753153"><ele>349.0</ele><time>2026-04-11T05:13:50Z</time></trkpt><trkpt lat="43.45199662047366" lon="11.3552444862756"><ele>348.99999999999994</ele><time>2026-04-11T05:13:51Z</time></trkpt><trkpt lat="43.4520670704421" lon="11.355227427493883"><ele>349.0</ele><time>2026-04-11T05:13:52Z</time></trkpt><trkpt lat="43.452129645017266" lon="11.35520579045062"><ele>349.0</ele><time>2026-04-11T05:13:53Z</time></trkpt><trkpt lat="43.452196107407154" lon="11.35517675824485"><ele>349.0</ele><time>2026-04-11T05:13:54Z</time></trkpt><trkpt lat="43.45226400576471" lon="11.355148752010617"><ele>349.0</ele><time>2026-04-11T05:13:55Z</time></trkpt><trkpt lat="43.45233608507715" lon="11.355114275845782"><ele>348.99999999999994</ele><time>2026-04-11T05:13:56Z</time></trkpt><trkpt lat="43.452404091822004" lon="11.355081915668203"><ele>349.0</ele><time>2026-04-11T05:13:57Z</time></trkpt><trkpt lat="43.45246580010317" lon="11.355051948679291"><ele>347.6</ele><time>2026-04-11T05:13:58Z</time></trkpt><trkpt lat="43.452529482293954" lon="11.35502167280111"><ele>346.2</ele><time>2026-04-11T05:13:59Z</time></trkpt><trkpt lat="43.452607438401685" lon="11.354987616197304"><ele>344.8</ele><time>2026-04-11T05:14:00Z</time></trkpt><trkpt lat="43.45267686542147" lon="11.35495401688935"><ele>343.40000000000003</ele><time>2026-04-11T05:14:01Z</time></trkpt><trkpt lat="43.452737265859206" lon="11.35491358746985"><ele>342.0</ele><time>2026-04-11T05:14:02Z</time></trkpt><trkpt lat="43.45288992121546" lon="11.354813526379925"><ele>342.0</ele><time>2026-04-11T05:14:04Z</time></trkpt><trkpt lat="43.45295068819056" lon="11.354779065586987"><ele>342.0</ele><time>2026-04-11T05:14:05Z</time></trkpt><trkpt lat="43.453073439068085" lon="11.354705514528293"><ele>342.0</ele><time>2026-04-11T05:14:07Z</time></trkpt><trkpt lat="43.453141292129914" lon="11.354666233503135"><ele>342.0</ele><time>2026-04-11T05:14:08Z</time></trkpt><trkpt lat="43.4532088776161" lon="11.3546235662778"><ele>342.0</ele><time>2026-04-11T05:14:09Z</time></trkpt><trkpt lat="43.453300114513134" lon="11.354582634590844"><ele>342.0</ele><time>2026-04-11T05:14:10Z</time></trkpt><trkpt lat="43.453366646962195" lon="11.354544544576587"><ele>342.3333333333333</ele><time>2026-04-11T05:14:11Z</time></trkpt><trkpt lat="43.45348998960703" lon="11.354489718845999"><ele>342.6666666666667</ele><time>2026-04-11T05:14:13Z</time></trkpt><trkpt lat="43.453552035412656" lon="11.354456568860865"><ele>343.0</ele><time>2026-04-11T05:14:14Z</time></trkpt><trkpt lat="43.45361583060389" lon="11.354433231660348"><ele>343.33333333333337</ele><time>2026-04-11T05:14:15Z</time></trkpt><trkpt lat="43.45368239010389" lon="11.354401132385252"><ele>343.6666666666667</ele><time>2026-04-11T05:14:16Z</time></trkpt><trkpt lat="43.453749342736714" lon="11.354364072953677"><ele>344.0</ele><time>2026-04-11T05:14:17Z</time></trkpt><trkpt lat="43.45381695905232" lon="11.35434018375217"><ele>342.4</ele><time>2026-04-11T05:14:18Z</time></trkpt><trkpt lat="43.453899996615306" lon="11.354324376836397"><ele>340.79999999999995</ele><time>2026-04-11T05:14:19Z</time></trkpt><trkpt lat="43.45396555064426" lon="11.354281915711844"><ele>339.20000000000005</ele><time>2026-04-11T05:14:20Z</time></trkpt><trkpt lat="43.45405819659554" lon="11.35421439427488"><ele>337.6</ele><time>2026-04-11T05:14:22Z</time></trkpt><trkpt lat="43.454130722835046" lon="11.354245182888256"><ele>336.0</ele><time>2026-04-11T05:14:23Z</time></trkpt><trkpt lat="43.45429652480257" lon="11.354344463863834"><ele>336.0</ele><time>2026-04-11T05:14:26Z</time></trkpt><trkpt lat="43.45436542575292" lon="11.354354664119029"><ele>336.0</ele><time>2026-04-11T05:14:27Z</time></trkpt><trkpt lat="43.45443568138249" lon="11.354333393351501"><ele>336.0</ele><time>2026-04-11T05:14:28Z</time></trkpt><trkpt lat="43.45449923684542" lon="11.35429747332006"><ele>336.0</ele><time>2026-04-11T05:14:29Z</time></trkpt><trkpt lat="43.454603777413745" lon="11.35421929764893"><ele>336.0</ele><time>2026-04-11T05:14:31Z</time></trkpt><trkpt lat="43.45466919215955" lon="11.354166237474276"><ele>336.0</ele><time>2026-04-11T05:14:33Z</time></trkpt><trkpt lat="43.45473756050009" lon="11.3541171320963"><ele>337.4</ele><time>2026-04-11T05:14:36Z</time></trkpt><trkpt lat="43.45479576221666" lon="11.354080169857305"><ele>338.8</ele><time>2026-04-11T05:14:39Z</time></trkpt><trkpt lat="43.454873683367175" lon="11.354041335784267"><ele>340.2</ele><time>2026-04-11T05:14:42Z</time></trkpt><trkpt lat="43.45494801323361" lon="11.354001887221408"><ele>341.59999999999997</ele><time>2026-04-11T05:14:45Z</time></trkpt><trkpt lat="43.45511791021221" lon="11.353952249354924"><ele>343.0</ele><time>2026-04-11T05:14:51Z</time></trkpt><trkpt lat="43.455199102857925" lon="11.353930069991792"><ele>343.0</ele><time>2026-04-11T05:14:55Z</time></trkpt><trkpt lat="43.455273764938994" lon="11.353924004487817"><ele>343.0</ele><time>2026-04-11T05:14:58Z</time></trkpt><trkpt lat="43.45534087727336" lon="11.353912706782143"><ele>343.0</ele><time>2026-04-11T05:15:00Z</time></trkpt><trkpt lat="43.45541819956016" lon="11.353909511608917"><ele>343.0</ele><time>2026-04-11T05:15:02Z</time></trkpt><trkpt lat="43.45550534386198" lon="11.353915510164251"><ele>343.0</ele><time>2026-04-11T05:15:04Z</time></trkpt><trkpt lat="43.45559153564186" lon="11.35393977149711"><ele>343.0</ele><time>2026-04-11T05:15:06Z</time></trkpt><trkpt lat="43.45581372189217" lon="11.354015443234598"><ele>343.3333333333333</ele><time>2026-04-11T05:15:09Z</time></trkpt><trkpt lat="43.45588912167918" lon="11.354044988561972"><ele>343.66666666666663</ele><time>2026-04-11T05:15:10Z</time></trkpt><trkpt lat="43.45596653203573" lon="11.354077771758163"><ele>344.0</ele><time>2026-04-11T05:15:11Z</time></trkpt><trkpt lat="43.45605612986501" lon="11.354108645206475"><ele>344.3333333333333</ele><time>2026-04-11T05:15:12Z</time></trkpt><trkpt lat="43.45613685179058" lon="11.354138598449586"><ele>344.6666666666667</ele><time>2026-04-11T05:15:13Z</time></trkpt><trkpt lat="43.45622268938214" lon="11.354162727811303"><ele>345.0</ele><time>2026-04-11T05:15:14Z</time></trkpt><trkpt lat="43.456305071412274" lon="11.354167919388775"><ele>345.2</ele><time>2026-04-11T05:15:15Z</time></trkpt><trkpt lat="43.456427263876456" lon="11.35420914934911"><ele>345.4</ele><time>2026-04-11T05:15:16Z</time></trkpt><trkpt lat="43.45650424845951" lon="11.354220894264072"><ele>345.6</ele><time>2026-04-11T05:15:17Z</time></trkpt><trkpt lat="43.45664840070746" lon="11.354258646331237"><ele>345.8</ele><time>2026-04-11T05:15:19Z</time></trkpt><trkpt lat="43.456716592663874" lon="11.354259879647046"><ele>346.0</ele><time>2026-04-11T05:15:20Z</time></trkpt><trkpt lat="43.45678309741973" lon="11.354270409709281"><ele>346.0</ele><time>2026-04-11T05:15:21Z</time></trkpt><trkpt lat="43.45687752640024" lon="11.35429277946508"><ele>346.0</ele><time>2026-04-11T05:15:23Z</time></trkpt><trkpt lat="43.456982129598714" lon="11.35431768255874"><ele>346.0</ele><time>2026-04-11T05:15:25Z</time></trkpt><trkpt lat="43.45708849597935" lon="11.354330974157977"><ele>346.0</ele><time>2026-04-11T05:15:27Z</time></trkpt><trkpt lat="43.45721075562115" lon="11.35438190179404"><ele>346.0</ele><time>2026-04-11T05:15:29Z</time></trkpt><trkpt lat="43.45732386137947" lon="11.354428677505013"><ele>347.5</ele><time>2026-04-11T05:15:31Z</time></trkpt><trkpt lat="43.45738768510415" lon="11.35446784075201"><ele>349.0</ele><time>2026-04-11T05:15:32Z</time></trkpt><trkpt lat="43.457453518849306" lon="11.354509335617221"><ele>350.5</ele><time>2026-04-11T05:15:33Z</time></trkpt><trkpt lat="43.457512003508725" lon="11.354548626923034"><ele>352.0</ele><time>2026-04-11T05:15:34Z</time></trkpt><trkpt lat="43.45758226505728" lon="11.354581716987052"><ele>353.5</ele><time>2026-04-11T05:15:35Z</time></trkpt><trkpt lat="43.457704209269124" lon="11.354634746232504"><ele>355.0</ele><time>2026-04-11T05:15:37Z</time></trkpt><trkpt lat="43.45776110625244" lon="11.354672585651796"><ele>355.0</ele><time>2026-04-11T05:15:38Z</time></trkpt><trkpt lat="43.457863647772896" lon="11.354681848229598"><ele>355.0</ele><time>2026-04-11T05:15:40Z</time></trkpt><trkpt lat="43.457949871558824" lon="11.354716178085935"><ele>355.0</ele><time>2026-04-11T05:15:42Z</time></trkpt><trkpt lat="43.45801874183294" lon="11.354734689834041"><ele>355.0</ele><time>2026-04-11T05:15:44Z</time></trkpt><trkpt lat="43.45810751336076" lon="11.3547703221589"><ele>355.0</ele><time>2026-04-11T05:15:47Z</time></trkpt><trkpt lat="43.45816564715071" lon="11.35480961192331"><ele>355.0</ele><time>2026-04-11T05:15:49Z</time></trkpt><trkpt lat="43.45833522739977" lon="11.354964035719727"><ele>353.75</ele><time>2026-04-11T05:15:53Z</time></trkpt><trkpt lat="43.458438899294464" lon="11.355053543911708"><ele>352.5</ele><time>2026-04-11T05:15:55Z</time></trkpt><trkpt lat="43.45854734037277" lon="11.355148558433994"><ele>351.25</ele><time>2026-04-11T05:15:57Z</time></trkpt><trkpt lat="43.45864883448993" lon="11.355225104893574"><ele>350.0</ele><time>2026-04-11T05:15:59Z</time></trkpt><trkpt lat="43.45875467722515" lon="11.355306661834268"><ele>351.2</ele><time>2026-04-11T05:16:01Z</time></trkpt><trkpt lat="43.45885369073163" lon="11.355366591031332"><ele>352.4</ele><time>2026-04-11T05:16:03Z</time></trkpt><trkpt lat="43.45895037771904" lon="11.355411034507416"><ele>353.6</ele><time>2026-04-11T05:16:05Z</time></trkpt><trkpt lat="43.459081529620995" lon="11.355462937708912"><ele>354.8</ele><time>2026-04-11T05:16:07Z</time></trkpt><trkpt lat="43.459166359301754" lon="11.355490788900541"><ele>356.0</ele><time>2026-04-11T05:16:09Z</time></trkpt><trkpt lat="43.45923447794073" lon="11.35549646812546"><ele>356.0</ele><time>2026-04-11T05:16:14Z</time></trkpt><trkpt lat="43.45940351754119" lon="11.355498631195308"><ele>356.0</ele><time>2026-04-11T05:16:17Z</time></trkpt><trkpt lat="43.45948181903281" lon="11.355512555531662"><ele>356.0</ele><time>2026-04-11T05:16:18Z</time></trkpt><trkpt lat="43.45958222428347" lon="11.355547513229451"><ele>356.0</ele><time>2026-04-11T05:16:20Z</time></trkpt><trkpt lat="43.45965943012869" lon="11.355577375387124"><ele>356.0</ele><time>2026-04-11T05:16:21Z</time></trkpt><trkpt lat="43.45977024910587" lon="11.355596315563801"><ele>355.1666666666667</ele><time>2026-04-11T05:16:23Z</time></trkpt><trkpt lat="43.459837563032" lon="11.355602675130209"><ele>354.33333333333337</ele><time>2026-04-11T05:16:24Z</time></trkpt><trkpt lat="43.45989943631477" lon="11.355544471199908"><ele>353.5</ele><time>2026-04-11T05:16:25Z</time></trkpt><trkpt lat="43.459980929999354" lon="11.355505136666835"><ele>352.6666666666667</ele><time>2026-04-11T05:16:27Z</time></trkpt><trkpt lat="43.4600906986992" lon="11.355500329686192"><ele>351.8333333333333</ele><time>2026-04-11T05:16:29Z</time></trkpt><trkpt lat="43.46019331351733" lon="11.355490281322759"><ele>351.0</ele><time>2026-04-11T05:16:31Z</time></trkpt><trkpt lat="43.460289528738166" lon="11.355511761435007"><ele>351.0</ele><time>2026-04-11T05:16:33Z</time></trkpt><trkpt lat="43.46038803449074" lon="11.355538163449467"><ele>351.0</ele><time>2026-04-11T05:16:35Z</time></trkpt><trkpt lat="43.46057009942335" lon="11.355599291172359"><ele>351.0</ele><time>2026-04-11T05:16:39Z</time></trkpt><trkpt lat="43.46065569112861" lon="11.355616743213037"><ele>351.0</ele><time>2026-04-11T05:16:41Z</time></trkpt><trkpt lat="43.46074418151466" lon="11.355633566992065"><ele>351.5</ele><time>2026-04-11T05:16:43Z</time></trkpt><trkpt lat="43.46082263663505" lon="11.355626433555111"><ele>352.0</ele><time>2026-04-11T05:16:45Z</time></trkpt><trkpt lat="43.46090559011649" lon="11.355621055444857"><ele>352.5</ele><time>2026-04-11T05:16:47Z</time></trkpt><trkpt lat="43.4609826622485" lon="11.355606992399956"><ele>353.0</ele><time>2026-04-11T05:16:49Z</time></trkpt><trkpt lat="43.46108030135526" lon="11.355576981642615"><ele>353.5</ele><time>2026-04-11T05:16:52Z</time></trkpt><trkpt lat="43.461146883780415" lon="11.355562927445252"><ele>354.0</ele><time>2026-04-11T05:16:54Z</time></trkpt><trkpt lat="43.46121375707469" lon="11.355551930686689"><ele>354.4</ele><time>2026-04-11T05:16:56Z</time></trkpt><trkpt lat="43.4613492257198" lon="11.355529599413428"><ele>354.79999999999995</ele><time>2026-04-11T05:17:00Z</time></trkpt><trkpt lat="43.461418084111784" lon="11.355543543586613"><ele>355.20000000000005</ele><time>2026-04-11T05:17:02Z</time></trkpt><trkpt lat="43.46148710340314" lon="11.355561210599417"><ele>355.6</ele><time>2026-04-11T05:17:04Z</time></trkpt><trkpt lat="43.46156898373732" lon="11.355607556967009"><ele>356.0</ele><time>2026-04-11T05:17:06Z</time></trkpt><trkpt lat="43.461663889310245" lon="11.355670094610575"><ele>356.0</ele><time>2026-04-11T05:17:08Z</time></trkpt><trkpt lat="43.46172137249115" lon="11.3557198566875"><ele>356.0</ele><time>2026-04-11T05:17:09Z</time></trkpt><trkpt lat="43.46178288583339" lon="11.355769537820674"><ele>356.0</ele><time>2026-04-11T05:17:10Z</time></trkpt><trkpt lat="43.46184908066709" lon="11.35582300556887"><ele>356.0</ele><time>2026-04-11T05:17:11Z</time></trkpt><trkpt lat="43.461919054472745" lon="11.355873615643752"><ele>356.0</ele><time>2026-04-11T05:17:12Z</time></trkpt><trkpt lat="43.46198750072433" lon="11.355925376036906"><ele>356.0</ele><time>2026-04-11T05:17:13Z</time></trkpt><trkpt lat="43.462055061071624" lon="11.355985028749574"><ele>355.83333333333337</ele><time>2026-04-11T05:17:14Z</time></trkpt><trkpt lat="43.462118409334884" lon="11.356054053219738"><ele>355.6666666666667</ele><time>2026-04-11T05:17:15Z</time></trkpt><trkpt lat="43.462172499643714" lon="11.356117897248339"><ele>355.5</ele><time>2026-04-11T05:17:16Z</time></trkpt><trkpt lat="43.46222857864164" lon="11.356172226210756"><ele>355.3333333333333</ele><time>2026-04-11T05:17:17Z</time></trkpt><trkpt lat="43.462341119998136" lon="11.356272812557627"><ele>355.16666666666663</ele><time>2026-04-11T05:17:19Z</time></trkpt><trkpt lat="43.462399123776486" lon="11.356322331297278"><ele>355.0</ele><time>2026-04-11T05:17:20Z</time></trkpt><trkpt lat="43.46245090145232" lon="11.356372044159425"><ele>355.0</ele><time>2026-04-11T05:17:21Z</time></trkpt><trkpt lat="43.46255980234084" lon="11.356468442866499"><ele>355.0</ele><time>2026-04-11T05:17:23Z</time></trkpt><trkpt lat="43.462667409870214" lon="11.356554337567546"><ele>355.0</ele><time>2026-04-11T05:17:25Z</time></trkpt><trkpt lat="43.46272105378476" lon="11.356604565565537"><ele>355.0</ele><time>2026-04-11T05:17:26Z</time></trkpt><trkpt lat="43.46285424079269" lon="11.35667255437075"><ele>355.0</ele><time>2026-04-11T05:17:28Z</time></trkpt><trkpt lat="43.462881204719494" lon="11.356752031621088"><ele>355.0</ele><time>2026-04-11T05:17:29Z</time></trkpt><trkpt lat="43.46297875642074" lon="11.356854676551748"><ele>355.0</ele><time>2026-04-11T05:17:31Z</time></trkpt><trkpt lat="43.463080415416016" lon="11.356948515788616"><ele>355.0</ele><time>2026-04-11T05:17:33Z</time></trkpt><trkpt lat="43.46319088961553" lon="11.356991450265324"><ele>355.0</ele><time>2026-04-11T05:17:35Z</time></trkpt><trkpt lat="43.463292926165764" lon="11.357007409902605"><ele>357.6</ele><time>2026-04-11T05:17:37Z</time></trkpt><trkpt lat="43.46336374889701" lon="11.357001449631097"><ele>360.2</ele><time>2026-04-11T05:17:39Z</time></trkpt><trkpt lat="43.46351752885289" lon="11.35704368795675"><ele>362.79999999999995</ele><time>2026-04-11T05:17:44Z</time></trkpt><trkpt lat="43.46359106054577" lon="11.357065647254462"><ele>365.4</ele><time>2026-04-11T05:17:46Z</time></trkpt><trkpt lat="43.463669215508794" lon="11.357074847969397"><ele>368.0</ele><time>2026-04-11T05:17:48Z</time></trkpt><trkpt lat="43.46377069191242" lon="11.357076729251883"><ele>367.2</ele><time>2026-04-11T05:17:51Z</time></trkpt><trkpt lat="43.463853281034275" lon="11.357101534682782"><ele>366.4</ele><time>2026-04-11T05:17:53Z</time></trkpt><trkpt lat="43.46395130380973" lon="11.357140432010345"><ele>365.59999999999997</ele><time>2026-04-11T05:17:55Z</time></trkpt><trkpt lat="43.464034529288796" lon="11.357195782589125"><ele>364.79999999999995</ele><time>2026-04-11T05:17:57Z</time></trkpt><trkpt lat="43.46411796942462" lon="11.357247629463977"><ele>364.0</ele><time>2026-04-11T05:17:59Z</time></trkpt><trkpt lat="43.46419183777232" lon="11.357312302422923"><ele>364.0</ele><time>2026-04-11T05:18:01Z</time></trkpt><trkpt lat="43.46435182186175" lon="11.357452142861769"><ele>364.0</ele><time>2026-04-11T05:18:05Z</time></trkpt><trkpt lat="43.46444589980503" lon="11.357551998098288"><ele>364.0</ele><time>2026-04-11T05:18:07Z</time></trkpt><trkpt lat="43.46449185307175" lon="11.357612069964519"><ele>364.0</ele><time>2026-04-11T05:18:08Z</time></trkpt><trkpt lat="43.464540502284926" lon="11.357680949589053"><ele>364.0</ele><time>2026-04-11T05:18:09Z</time></trkpt><trkpt lat="43.46461295474689" lon="11.35780589495033"><ele>365.25</ele><time>2026-04-11T05:18:11Z</time></trkpt><trkpt lat="43.46468009223274" lon="11.35794764233037"><ele>366.5</ele><time>2026-04-11T05:18:13Z</time></trkpt><trkpt lat="43.46473211147521" lon="11.358077725025295"><ele>367.75</ele><time>2026-04-11T05:18:15Z</time></trkpt><trkpt lat="43.46479722973185" lon="11.358214145739234"><ele>369.0</ele><time>2026-04-11T05:18:17Z</time></trkpt><trkpt lat="43.46482597161449" lon="11.358366044342965"><ele>369.0</ele><time>2026-04-11T05:18:19Z</time></trkpt><trkpt lat="43.46485429930105" lon="11.358514619843938"><ele>369.0</ele><time>2026-04-11T05:18:21Z</time></trkpt><trkpt lat="43.464898369366146" lon="11.358675078040811"><ele>369.0</ele><time>2026-04-11T05:18:23Z</time></trkpt><trkpt lat="43.464937153462046" lon="11.358923465847596"><ele>369.0</ele><time>2026-04-11T05:18:26Z</time></trkpt><trkpt lat="43.464949241165115" lon="11.35908614286316"><ele>368.2</ele><time>2026-04-11T05:18:28Z</time></trkpt><trkpt lat="43.46497945196078" lon="11.359236589204398"><ele>367.4</ele><time>2026-04-11T05:18:30Z</time></trkpt><trkpt lat="43.46499842278734" lon="11.359378521323954"><ele>366.6</ele><time>2026-04-11T05:18:32Z</time></trkpt><trkpt lat="43.46504721895444" lon="11.359517148161322"><ele>365.8</ele><time>2026-04-11T05:18:34Z</time></trkpt><trkpt lat="43.46507143627293" lon="11.359600557664074"><ele>365.0</ele><time>2026-04-11T05:18:35Z</time></trkpt><trkpt lat="43.46512623504137" lon="11.359751242678266"><ele>364.5</ele><time>2026-04-11T05:18:37Z</time></trkpt><trkpt lat="43.4651785689936" lon="11.359890218525639"><ele>364.0</ele><time>2026-04-11T05:18:39Z</time></trkpt><trkpt lat="43.465237316291464" lon="11.360011088536"><ele>363.5</ele><time>2026-04-11T05:18:41Z</time></trkpt><trkpt lat="43.46532189153669" lon="11.360060902720145"><ele>363.0</ele><time>2026-04-11T05:18:44Z</time></trkpt><trkpt lat="43.46543271389743" lon="11.360229766898016"><ele>364.1666666666667</ele><time>2026-04-11T05:18:48Z</time></trkpt><trkpt lat="43.46545468516971" lon="11.360344336815372"><ele>365.3333333333333</ele><time>2026-04-11T05:18:50Z</time></trkpt><trkpt lat="43.46550047046669" lon="11.360448163547018"><ele>366.5</ele><time>2026-04-11T05:18:52Z</time></trkpt><trkpt lat="43.46555522689651" lon="11.360570658516203"><ele>367.66666666666663</ele><time>2026-04-11T05:18:53Z</time></trkpt><trkpt lat="43.465592368242945" lon="11.360646738363945"><ele>368.8333333333333</ele><time>2026-04-11T05:18:54Z</time></trkpt><trkpt lat="43.465646332326756" lon="11.360719251465055"><ele>370.0</ele><time>2026-04-11T05:18:55Z</time></trkpt><trkpt lat="43.465695475310156" lon="11.360790453752982"><ele>370.0</ele><time>2026-04-11T05:18:56Z</time></trkpt><trkpt lat="43.46578719721724" lon="11.360881030708638"><ele>370.0</ele><time>2026-04-11T05:18:58Z</time></trkpt><trkpt lat="43.46587891264696" lon="11.360950101347354"><ele>370.0</ele><time>2026-04-11T05:19:00Z</time></trkpt><trkpt lat="43.465963841630725" lon="11.36100927551353"><ele>370.0</ele><time>2026-04-11T05:19:02Z</time></trkpt><trkpt lat="43.46602370197765" lon="11.361064471673416"><ele>370.0</ele><time>2026-04-11T05:19:04Z</time></trkpt><trkpt lat="43.46608037466277" lon="11.361105463465838"><ele>370.0</ele><time>2026-04-11T05:19:06Z</time></trkpt><trkpt lat="43.466165251151054" lon="11.361275212457757"><ele>369.4</ele><time>2026-04-11T05:19:10Z</time></trkpt><trkpt lat="43.46620686935061" lon="11.361369266906637"><ele>368.8</ele><time>2026-04-11T05:19:12Z</time></trkpt><trkpt lat="43.46624122075086" lon="11.361489389252657"><ele>368.20000000000005</ele><time>2026-04-11T05:19:14Z</time></trkpt><trkpt lat="43.46627547264509" lon="11.361616270921502"><ele>367.6</ele><time>2026-04-11T05:19:16Z</time></trkpt><trkpt lat="43.46630978381025" lon="11.361761270122699"><ele>367.0</ele><time>2026-04-11T05:19:18Z</time></trkpt><trkpt lat="43.46634361633472" lon="11.361900407098172"><ele>367.40000000000003</ele><time>2026-04-11T05:19:20Z</time></trkpt><trkpt lat="43.46638811643994" lon="11.36204051633354"><ele>367.8</ele><time>2026-04-11T05:19:22Z</time></trkpt><trkpt lat="43.466439863135165" lon="11.362182712975162"><ele>368.2</ele><time>2026-04-11T05:19:24Z</time></trkpt><trkpt lat="43.466473425665" lon="11.36225715162247"><ele>368.6</ele><time>2026-04-11T05:19:25Z</time></trkpt><trkpt lat="43.46653602423971" lon="11.362396614301787"><ele>369.0</ele><time>2026-04-11T05:19:27Z</time></trkpt><trkpt lat="43.4666608549399" lon="11.362643184945975"><ele>369.0</ele><time>2026-04-11T05:19:31Z</time></trkpt><trkpt lat="43.46674020217103" lon="11.362765312239159"><ele>369.0</ele><time>2026-04-11T05:19:33Z</time></trkpt><trkpt lat="43.466824002031366" lon="11.362883794538066"><ele>369.0</ele><time>2026-04-11T05:19:35Z</time></trkpt><trkpt lat="43.46686396713579" lon="11.362957587878869"><ele>369.0</ele><time>2026-04-11T05:19:36Z</time></trkpt><trkpt lat="43.466876627691015" lon="11.363080641904642"><ele>369.0</ele><time>2026-04-11T05:19:37Z</time></trkpt><trkpt lat="43.4668476411025" lon="11.363258856446237"><ele>369.0</ele><time>2026-04-11T05:19:39Z</time></trkpt><trkpt lat="43.4668152483097" lon="11.363334418307435"><ele>369.0</ele><time>2026-04-11T05:19:40Z</time></trkpt><trkpt lat="43.46678740896906" lon="11.363488959264618"><ele>369.0</ele><time>2026-04-11T05:19:42Z</time></trkpt><trkpt lat="43.466764036175874" lon="11.363576377673638"><ele>369.0</ele><time>2026-04-11T05:19:43Z</time></trkpt><trkpt lat="43.46674332262205" lon="11.363661646469678"><ele>369.0</ele><time>2026-04-11T05:19:44Z</time></trkpt><trkpt lat="43.466711193617456" lon="11.363738563047539"><ele>369.0</ele><time>2026-04-11T05:19:45Z</time></trkpt><trkpt lat="43.46665603108623" lon="11.363804071704562"><ele>369.0</ele><time>2026-04-11T05:19:46Z</time></trkpt><trkpt lat="43.4666594544059" lon="11.363937971490296"><ele>369.0</ele><time>2026-04-11T05:19:48Z</time></trkpt><trkpt lat="43.46660379030344" lon="11.36421617136927"><ele>369.0</ele><time>2026-04-11T05:19:52Z</time></trkpt><trkpt lat="43.466569525725625" lon="11.364344918801814"><ele>369.0</ele><time>2026-04-11T05:19:54Z</time></trkpt><trkpt lat="43.46654833132986" lon="11.364477253999368"><ele>369.0</ele><time>2026-04-11T05:19:56Z</time></trkpt><trkpt lat="43.46652460986646" lon="11.36460715204184"><ele>369.2</ele><time>2026-04-11T05:19:58Z</time></trkpt><trkpt lat="43.46650107515861" lon="11.364725995745438"><ele>369.4</ele><time>2026-04-11T05:20:00Z</time></trkpt><trkpt lat="43.46647635555447" lon="11.364853720915965"><ele>369.6</ele><time>2026-04-11T05:20:02Z</time></trkpt><trkpt lat="43.46644972020367" lon="11.364982110981032"><ele>369.8</ele><time>2026-04-11T05:20:04Z</time></trkpt><trkpt lat="43.46642078230966" lon="11.36511360046427"><ele>370.0</ele><time>2026-04-11T05:20:06Z</time></trkpt><trkpt lat="43.466392554227234" lon="11.36524175056621"><ele>370.0</ele><time>2026-04-11T05:20:08Z</time></trkpt><trkpt lat="43.46636558419385" lon="11.365367243767542"><ele>370.0</ele><time>2026-04-11T05:20:10Z</time></trkpt><trkpt lat="43.466315468745776" lon="11.36561366574978"><ele>370.0</ele><time>2026-04-11T05:20:14Z</time></trkpt><trkpt lat="43.466291552468014" lon="11.365739378819358"><ele>370.0</ele><time>2026-04-11T05:20:16Z</time></trkpt><trkpt lat="43.46626193701272" lon="11.365849101681546"><ele>369.8</ele><time>2026-04-11T05:20:18Z</time></trkpt><trkpt lat="43.46624051566368" lon="11.365972369794067"><ele>369.6</ele><time>2026-04-11T05:20:21Z</time></trkpt><trkpt lat="43.466224788673436" lon="11.366074632989308"><ele>369.4</ele><time>2026-04-11T05:20:23Z</time></trkpt><trkpt lat="43.46620330887682" lon="11.366182181572803"><ele>369.2</ele><time>2026-04-11T05:20:25Z</time></trkpt><trkpt lat="43.46617276407418" lon="11.366321284085029"><ele>369.0</ele><time>2026-04-11T05:20:27Z</time></trkpt><trkpt lat="43.46614273100432" lon="11.366449171635235"><ele>369.0</ele><time>2026-04-11T05:20:29Z</time></trkpt><trkpt lat="43.46611764155081" lon="11.366565575964527"><ele>369.0</ele><time>2026-04-11T05:20:31Z</time></trkpt><trkpt lat="43.46607028235689" lon="11.366801780824641"><ele>369.0</ele><time>2026-04-11T05:20:35Z</time></trkpt><trkpt lat="43.466049091497794" lon="11.36692013383467"><ele>369.0</ele><time>2026-04-11T05:20:37Z</time></trkpt><trkpt lat="43.46602340781023" lon="11.36703648889252"><ele>369.0</ele><time>2026-04-11T05:20:39Z</time></trkpt><trkpt lat="43.46599976226702" lon="11.367149883622616"><ele>369.3333333333333</ele><time>2026-04-11T05:20:41Z</time></trkpt><trkpt lat="43.46597546999549" lon="11.367265387350576"><ele>369.6666666666667</ele><time>2026-04-11T05:20:43Z</time></trkpt><trkpt lat="43.4659551085938" lon="11.36738595021218"><ele>370.0</ele><time>2026-04-11T05:20:45Z</time></trkpt><trkpt lat="43.465924827443025" lon="11.36750563609177"><ele>370.33333333333337</ele><time>2026-04-11T05:20:47Z</time></trkpt><trkpt lat="43.465891546627695" lon="11.367623410600107"><ele>370.6666666666667</ele><time>2026-04-11T05:20:49Z</time></trkpt><trkpt lat="43.46590557247066" lon="11.367730781602294"><ele>371.0</ele><time>2026-04-11T05:20:51Z</time></trkpt><trkpt lat="43.46585667843976" lon="11.367839202951513"><ele>371.75</ele><time>2026-04-11T05:20:53Z</time></trkpt><trkpt lat="43.46581852591597" lon="11.368068038260256"><ele>372.5</ele><time>2026-04-11T05:20:58Z</time></trkpt><trkpt lat="43.465803865068274" lon="11.368252525742871"><ele>373.25</ele><time>2026-04-11T05:21:00Z</time></trkpt><trkpt lat="43.46579083868982" lon="11.368361968712131"><ele>374.0</ele><time>2026-04-11T05:21:01Z</time></trkpt><trkpt lat="43.4657911112516" lon="11.368515109182528"><ele>374.0</ele><time>2026-04-11T05:21:03Z</time></trkpt><trkpt lat="43.46580150482758" lon="11.368667713865808"><ele>374.0</ele><time>2026-04-11T05:21:05Z</time></trkpt><trkpt lat="43.465819640843314" lon="11.36881570155219"><ele>374.0</ele><time>2026-04-11T05:21:07Z</time></trkpt><trkpt lat="43.46584409261571" lon="11.368952896520806"><ele>374.0</ele><time>2026-04-11T05:21:09Z</time></trkpt><trkpt lat="43.46587670093226" lon="11.369097960087013"><ele>374.0</ele><time>2026-04-11T05:21:11Z</time></trkpt><trkpt lat="43.46591303667461" lon="11.369233552598704"><ele>374.0</ele><time>2026-04-11T05:21:13Z</time></trkpt><trkpt lat="43.465942957137145" lon="11.36937714012709"><ele>374.0</ele><time>2026-04-11T05:21:15Z</time></trkpt><trkpt lat="43.466013457112375" lon="11.369654092941728"><ele>374.0</ele><time>2026-04-11T05:21:19Z</time></trkpt><trkpt lat="43.46605781717234" lon="11.369769623682213"><ele>374.0</ele><time>2026-04-11T05:21:21Z</time></trkpt><trkpt lat="43.46607553482952" lon="11.36991155439604"><ele>374.4</ele><time>2026-04-11T05:21:23Z</time></trkpt><trkpt lat="43.46614173185361" lon="11.370039477773252"><ele>374.79999999999995</ele><time>2026-04-11T05:21:25Z</time></trkpt><trkpt lat="43.4662000633926" lon="11.370170864975744"><ele>375.20000000000005</ele><time>2026-04-11T05:21:27Z</time></trkpt><trkpt lat="43.46624670412835" lon="11.37023094010303"><ele>375.6</ele><time>2026-04-11T05:21:28Z</time></trkpt><trkpt lat="43.466295071809085" lon="11.37035746585909"><ele>376.0</ele><time>2026-04-11T05:21:30Z</time></trkpt><trkpt lat="43.46634879438753" lon="11.370472316196707"><ele>377.0</ele><time>2026-04-11T05:21:32Z</time></trkpt><trkpt lat="43.466411536073416" lon="11.370602429390766"><ele>378.0</ele><time>2026-04-11T05:21:34Z</time></trkpt><trkpt lat="43.466481195450804" lon="11.370721599247698"><ele>379.0</ele><time>2026-04-11T05:21:36Z</time></trkpt><trkpt lat="43.46664434576447" lon="11.370938992118207"><ele>379.0</ele><time>2026-04-11T05:21:40Z</time></trkpt><trkpt lat="43.466709116441635" lon="11.371053250580442"><ele>379.0</ele><time>2026-04-11T05:21:42Z</time></trkpt><trkpt lat="43.46678894341934" lon="11.371146406129762"><ele>379.0</ele><time>2026-04-11T05:21:44Z</time></trkpt><trkpt lat="43.46687299704275" lon="11.371230588506084"><ele>379.0</ele><time>2026-04-11T05:21:46Z</time></trkpt><trkpt lat="43.466958240838615" lon="11.371299969355235"><ele>379.0</ele><time>2026-04-11T05:21:48Z</time></trkpt><trkpt lat="43.467046115111266" lon="11.371366971079373"><ele>379.2</ele><time>2026-04-11T05:21:50Z</time></trkpt><trkpt lat="43.467133510861295" lon="11.371423063415323"><ele>379.4</ele><time>2026-04-11T05:21:52Z</time></trkpt><trkpt lat="43.467224816876396" lon="11.371478525584163"><ele>379.6</ele><time>2026-04-11T05:21:54Z</time></trkpt><trkpt lat="43.4673081390456" lon="11.371543683020478"><ele>379.8</ele><time>2026-04-11T05:21:56Z</time></trkpt><trkpt lat="43.46738523466887" lon="11.371618002852856"><ele>380.0</ele><time>2026-04-11T05:21:58Z</time></trkpt><trkpt lat="43.46752397908496" lon="11.371796446939587"><ele>380.0</ele><time>2026-04-11T05:22:02Z</time></trkpt><trkpt lat="43.467583093115636" lon="11.371911913879584"><ele>380.0</ele><time>2026-04-11T05:22:04Z</time></trkpt><trkpt lat="43.46763187604348" lon="11.372036147311064"><ele>380.0</ele><time>2026-04-11T05:22:06Z</time></trkpt><trkpt lat="43.467681540394395" lon="11.372168005730273"><ele>380.0</ele><time>2026-04-11T05:22:08Z</time></trkpt><trkpt lat="43.46773071999498" lon="11.372300185325479"><ele>380.0</ele><time>2026-04-11T05:22:10Z</time></trkpt><trkpt lat="43.46778242587067" lon="11.372432864792108"><ele>379.4</ele><time>2026-04-11T05:22:12Z</time></trkpt><trkpt lat="43.46781763645902" lon="11.372583604250055"><ele>378.8</ele><time>2026-04-11T05:22:14Z</time></trkpt><trkpt lat="43.46785261499957" lon="11.37271859339594"><ele>378.20000000000005</ele><time>2026-04-11T05:22:16Z</time></trkpt><trkpt lat="43.46787270442051" lon="11.37285726830939"><ele>377.6</ele><time>2026-04-11T05:22:18Z</time></trkpt><trkpt lat="43.467880671350635" lon="11.372987360651935"><ele>377.0</ele><time>2026-04-11T05:22:20Z</time></trkpt><trkpt lat="43.46791128492257" lon="11.373208155776032"><ele>378.0</ele><time>2026-04-11T05:22:24Z</time></trkpt><trkpt lat="43.4679811410788" lon="11.373285120126358"><ele>379.0</ele><time>2026-04-11T05:22:26Z</time></trkpt><trkpt lat="43.46807097958697" lon="11.373316098994977"><ele>380.0</ele><time>2026-04-11T05:22:28Z</time></trkpt><trkpt lat="43.468157533902335" lon="11.37335682800631"><ele>381.0</ele><time>2026-04-11T05:22:30Z</time></trkpt><trkpt lat="43.46823459113493" lon="11.373389229107215"><ele>382.0</ele><time>2026-04-11T05:22:32Z</time></trkpt><trkpt lat="43.46831539757242" lon="11.373435320861406"><ele>383.0</ele><time>2026-04-11T05:22:34Z</time></trkpt><trkpt lat="43.46839682335279" lon="11.373480908449842"><ele>383.0</ele><time>2026-04-11T05:22:36Z</time></trkpt><trkpt lat="43.46847803995373" lon="11.373537278952458"><ele>383.0</ele><time>2026-04-11T05:22:38Z</time></trkpt><trkpt lat="43.46854568696419" lon="11.373605854464506"><ele>383.0</ele><time>2026-04-11T05:22:40Z</time></trkpt><trkpt lat="43.46860536008816" lon="11.373679979402151"><ele>383.0</ele><time>2026-04-11T05:22:42Z</time></trkpt><trkpt lat="43.46875047911947" lon="11.373891706632131"><ele>383.4</ele><time>2026-04-11T05:22:46Z</time></trkpt><trkpt lat="43.46881825190508" lon="11.37399084986304"><ele>383.79999999999995</ele><time>2026-04-11T05:22:48Z</time></trkpt><trkpt lat="43.46889911466894" lon="11.374072716532137"><ele>384.2</ele><time>2026-04-11T05:22:50Z</time></trkpt><trkpt lat="43.46897608059345" lon="11.374149015063306"><ele>384.6</ele><time>2026-04-11T05:22:52Z</time></trkpt><trkpt lat="43.46906257539153" lon="11.37420881715141"><ele>385.0</ele><time>2026-04-11T05:22:54Z</time></trkpt><trkpt lat="43.46916164943418" lon="11.374237538134082"><ele>385.0</ele><time>2026-04-11T05:22:56Z</time></trkpt><trkpt lat="43.46925814410553" lon="11.374236870797654"><ele>385.0</ele><time>2026-04-11T05:22:58Z</time></trkpt><trkpt lat="43.469346596287394" lon="11.374242558530987"><ele>385.0</ele><time>2026-04-11T05:23:00Z</time></trkpt><trkpt lat="43.46942559995392" lon="11.374248952215822"><ele>385.0</ele><time>2026-04-11T05:23:02Z</time></trkpt><trkpt lat="43.46950774059747" lon="11.374248335985955"><ele>385.0</ele><time>2026-04-11T05:23:04Z</time></trkpt><trkpt lat="43.4696665540019" lon="11.374264213187022"><ele>386.1666666666667</ele><time>2026-04-11T05:23:08Z</time></trkpt><trkpt lat="43.46974257309627" lon="11.374267189417356"><ele>387.33333333333337</ele><time>2026-04-11T05:23:10Z</time></trkpt><trkpt lat="43.46982115238437" lon="11.374268778048284"><ele>388.5</ele><time>2026-04-11T05:23:12Z</time></trkpt><trkpt lat="43.46990169850714" lon="11.374280109442097"><ele>389.66666666666663</ele><time>2026-04-11T05:23:14Z</time></trkpt><trkpt lat="43.46997419638636" lon="11.374286461908426"><ele>390.8333333333333</ele><time>2026-04-11T05:23:16Z</time></trkpt><trkpt lat="43.47005514126904" lon="11.37427453240585"><ele>392.0</ele><time>2026-04-11T05:23:18Z</time></trkpt><trkpt lat="43.470126877783194" lon="11.374276364910214"><ele>391.99999999999994</ele><time>2026-04-11T05:23:20Z</time></trkpt><trkpt lat="43.47019902476819" lon="11.374292039384493"><ele>392.0</ele><time>2026-04-11T05:23:22Z</time></trkpt><trkpt lat="43.47026889355416" lon="11.374288835881094"><ele>392.0</ele><time>2026-04-11T05:23:24Z</time></trkpt><trkpt lat="43.47033514842286" lon="11.374280674206426"><ele>392.0</ele><time>2026-04-11T05:23:26Z</time></trkpt><trkpt lat="43.470475254909104" lon="11.374292889490599"><ele>391.99999999999994</ele><time>2026-04-11T05:23:30Z</time></trkpt><trkpt lat="43.47054663229931" lon="11.374292175225479"><ele>392.0</ele><time>2026-04-11T05:23:32Z</time></trkpt><trkpt lat="43.47062410929507" lon="11.374298345346764"><ele>392.49999999999994</ele><time>2026-04-11T05:23:34Z</time></trkpt><trkpt lat="43.47069434968142" lon="11.374299151960956"><ele>393.0</ele><time>2026-04-11T05:23:36Z</time></trkpt><trkpt lat="43.47076487005142" lon="11.374287639555469"><ele>393.5</ele><time>2026-04-11T05:23:38Z</time></trkpt><trkpt lat="43.4708307928937" lon="11.374280472431368"><ele>394.0</ele><time>2026-04-11T05:23:40Z</time></trkpt><trkpt lat="43.470926553492355" lon="11.374271340345853"><ele>394.49999999999994</ele><time>2026-04-11T05:23:43Z</time></trkpt><trkpt lat="43.47100804108666" lon="11.374267033104061"><ele>395.0</ele><time>2026-04-11T05:23:46Z</time></trkpt><trkpt lat="43.47109304494105" lon="11.374249716374221"><ele>395.0</ele><time>2026-04-11T05:23:49Z</time></trkpt><trkpt lat="43.47127092429119" lon="11.374200142200234"><ele>395.0</ele><time>2026-04-11T05:23:55Z</time></trkpt><trkpt lat="43.47136570186568" lon="11.374169590912809"><ele>395.0</ele><time>2026-04-11T05:23:58Z</time></trkpt><trkpt lat="43.4714300067214" lon="11.374148641551464"><ele>395.0</ele><time>2026-04-11T05:24:00Z</time></trkpt><trkpt lat="43.47149214685703" lon="11.374125418368394"><ele>395.0</ele><time>2026-04-11T05:24:02Z</time></trkpt><trkpt lat="43.47158054786349" lon="11.37409586126974"><ele>395.3333333333333</ele><time>2026-04-11T05:24:05Z</time></trkpt><trkpt lat="43.4716437637489" lon="11.374082380760488"><ele>395.66666666666663</ele><time>2026-04-11T05:24:07Z</time></trkpt><trkpt lat="43.471735134742296" lon="11.37405428945548"><ele>396.0</ele><time>2026-04-11T05:24:10Z</time></trkpt><trkpt lat="43.47186518688322" lon="11.374036633033421"><ele>396.33333333333337</ele><time>2026-04-11T05:24:14Z</time></trkpt><trkpt lat="43.47192836370282" lon="11.374020848842665"><ele>396.6666666666667</ele><time>2026-04-11T05:24:16Z</time></trkpt><trkpt lat="43.47201244497609" lon="11.37399260516686"><ele>397.0</ele><time>2026-04-11T05:24:19Z</time></trkpt><trkpt lat="43.47210416027079" lon="11.373977501570705"><ele>398.5</ele><time>2026-04-11T05:24:22Z</time></trkpt><trkpt lat="43.47218736434599" lon="11.373961098889586"><ele>400.0</ele><time>2026-04-11T05:24:25Z</time></trkpt><trkpt lat="43.47227041182655" lon="11.373946772195684"><ele>401.5</ele><time>2026-04-11T05:24:28Z</time></trkpt><trkpt lat="43.47236192024698" lon="11.373944331262878"><ele>403.0</ele><time>2026-04-11T05:24:31Z</time></trkpt><trkpt lat="43.472558721220736" lon="11.37401572931614"><ele>403.00000000000006</ele><time>2026-04-11T05:24:37Z</time></trkpt><trkpt lat="43.47262586601751" lon="11.374052870363814"><ele>403.0</ele><time>2026-04-11T05:24:40Z</time></trkpt><trkpt lat="43.47269641856802" lon="11.3740837544017"><ele>403.0</ele><time>2026-04-11T05:24:43Z</time></trkpt><trkpt lat="43.47276809214342" lon="11.37412731747924"><ele>403.0</ele><time>2026-04-11T05:24:46Z</time></trkpt><trkpt lat="43.47284543385981" lon="11.374174924143057"><ele>403.00000000000006</ele><time>2026-04-11T05:24:49Z</time></trkpt><trkpt lat="43.47293672956941" lon="11.374225195920728"><ele>403.0</ele><time>2026-04-11T05:24:52Z</time></trkpt><trkpt lat="43.473098559497906" lon="11.374207383233799"><ele>404.5714285714286</ele><time>2026-04-11T05:24:57Z</time></trkpt><trkpt lat="43.47315230863467" lon="11.374274039508192"><ele>406.1428571428571</ele><time>2026-04-11T05:25:00Z</time></trkpt><trkpt lat="43.47320460271406" lon="11.3743257230238"><ele>407.7142857142857</ele><time>2026-04-11T05:25:02Z</time></trkpt><trkpt lat="43.47327806827366" lon="11.37437203129453"><ele>409.28571428571433</ele><time>2026-04-11T05:25:05Z</time></trkpt><trkpt lat="43.47333460418395" lon="11.374415914383242"><ele>410.8571428571429</ele><time>2026-04-11T05:25:08Z</time></trkpt><trkpt lat="43.47340041175644" lon="11.374413048701193"><ele>412.42857142857144</ele><time>2026-04-11T05:25:10Z</time></trkpt><trkpt lat="43.473463844603394" lon="11.374419458492318"><ele>414.0</ele><time>2026-04-11T05:25:12Z</time></trkpt><trkpt lat="43.47354192268419" lon="11.374399163385316"><ele>414.0</ele><time>2026-04-11T05:25:15Z</time></trkpt><trkpt lat="43.47368985712956" lon="11.374328649697949"><ele>414.0</ele><time>2026-04-11T05:25:20Z</time></trkpt><trkpt lat="43.47374866208758" lon="11.374276293084923"><ele>414.0</ele><time>2026-04-11T05:25:23Z</time></trkpt><trkpt lat="43.47380197254328" lon="11.374201842808782"><ele>414.0</ele><time>2026-04-11T05:25:26Z</time></trkpt><trkpt lat="43.47385355954933" lon="11.374145913249667"><ele>414.0</ele><time>2026-04-11T05:25:28Z</time></trkpt><trkpt lat="43.47389686231107" lon="11.374052194258542"><ele>414.0</ele><time>2026-04-11T05:25:31Z</time></trkpt><trkpt lat="43.47394237970995" lon="11.37397878740294"><ele>414.0</ele><time>2026-04-11T05:25:33Z</time></trkpt><trkpt lat="43.473986663704984" lon="11.373887428835912"><ele>414.0</ele><time>2026-04-11T05:25:36Z</time></trkpt><trkpt lat="43.47411204763939" lon="11.373719084216084"><ele>414.0</ele><time>2026-04-11T05:25:42Z</time></trkpt><trkpt lat="43.474158797870906" lon="11.3736418074603"><ele>414.0</ele><time>2026-04-11T05:25:45Z</time></trkpt><trkpt lat="43.47421835396426" lon="11.373610138586693"><ele>414.0</ele><time>2026-04-11T05:25:47Z</time></trkpt><trkpt lat="43.474297145664245" lon="11.373564176333808"><ele>417.0</ele><time>2026-04-11T05:25:50Z</time></trkpt><trkpt lat="43.47438744424126" lon="11.37354659298695"><ele>420.0</ele><time>2026-04-11T05:25:53Z</time></trkpt><trkpt lat="43.474456789549976" lon="11.37357447624429"><ele>423.0</ele><time>2026-04-11T05:25:55Z</time></trkpt><trkpt lat="43.47453143319279" lon="11.373600724784211"><ele>426.0</ele><time>2026-04-11T05:25:58Z</time></trkpt><trkpt lat="43.474647947210805" lon="11.373730225451565"><ele>429.0</ele><time>2026-04-11T05:26:03Z</time></trkpt><trkpt lat="43.47470133406103" lon="11.373782284450874"><ele>429.8333333333333</ele><time>2026-04-11T05:26:06Z</time></trkpt><trkpt lat="43.47477184189034" lon="11.373854028364198"><ele>430.66666666666663</ele><time>2026-04-11T05:26:09Z</time></trkpt><trkpt lat="43.474854375931386" lon="11.373906694910863"><ele>431.5</ele><time>2026-04-11T05:26:12Z</time></trkpt><trkpt lat="43.47493679996373" lon="11.37393040034194"><ele>432.3333333333333</ele><time>2026-04-11T05:26:15Z</time></trkpt><trkpt lat="43.47501265070818" lon="11.373939002714403"><ele>433.16666666666663</ele><time>2026-04-11T05:26:18Z</time></trkpt><trkpt lat="43.47509611218117" lon="11.373930112219748"><ele>434.0</ele><time>2026-04-11T05:26:21Z</time></trkpt><trkpt lat="43.47526614819406" lon="11.373890686262596"><ele>434.99999999999994</ele><time>2026-04-11T05:26:28Z</time></trkpt><trkpt lat="43.47535094683525" lon="11.373891986629669"><ele>436.0</ele><time>2026-04-11T05:26:31Z</time></trkpt><trkpt lat="43.47542715988596" lon="11.373881169672668"><ele>437.0</ele><time>2026-04-11T05:26:34Z</time></trkpt><trkpt lat="43.47549586624622" lon="11.373869574970275"><ele>438.0</ele><time>2026-04-11T05:26:37Z</time></trkpt><trkpt lat="43.475576050968186" lon="11.373855217051497"><ele>438.99999999999994</ele><time>2026-04-11T05:26:40Z</time></trkpt><trkpt lat="43.475661389204376" lon="11.373837532519902"><ele>440.0</ele><time>2026-04-11T05:26:43Z</time></trkpt><trkpt lat="43.47582025316013" lon="11.373823137914702"><ele>439.99999999999994</ele><time>2026-04-11T05:26:49Z</time></trkpt><trkpt lat="43.47588790097701" lon="11.37381870809871"><ele>440.0</ele><time>2026-04-11T05:26:51Z</time></trkpt><trkpt lat="43.47597186206178" lon="11.373834113871581"><ele>440.0</ele><time>2026-04-11T05:26:53Z</time></trkpt><trkpt lat="43.4760478090229" lon="11.373813101861607"><ele>440.0</ele><time>2026-04-11T05:26:56Z</time></trkpt><trkpt lat="43.47613673321305" lon="11.373796303496977"><ele>439.99999999999994</ele><time>2026-04-11T05:26:59Z</time></trkpt><trkpt lat="43.47620080191006" lon="11.373801091770025"><ele>440.0</ele><time>2026-04-11T05:27:01Z</time></trkpt><trkpt lat="43.47628447784842" lon="11.37378346284476"><ele>438.8</ele><time>2026-04-11T05:27:04Z</time></trkpt><trkpt lat="43.47644837801919" lon="11.373722491374556"><ele>437.6</ele><time>2026-04-11T05:27:10Z</time></trkpt><trkpt lat="43.47650101944228" lon="11.37363942226411"><ele>436.4</ele><time>2026-04-11T05:27:13Z</time></trkpt><trkpt lat="43.47655153686741" lon="11.373567298695008"><ele>435.2</ele><time>2026-04-11T05:27:16Z</time></trkpt><trkpt lat="43.47657025726904" lon="11.373436447049565"><ele>434.0</ele><time>2026-04-11T05:27:20Z</time></trkpt><trkpt lat="43.476587818908165" lon="11.373330139482556"><ele>434.0</ele><time>2026-04-11T05:27:23Z</time></trkpt><trkpt lat="43.4766027771567" lon="11.373216320925605"><ele>434.0</ele><time>2026-04-11T05:27:26Z</time></trkpt><trkpt lat="43.47663489681533" lon="11.372992146665934"><ele>434.0</ele><time>2026-04-11T05:27:32Z</time></trkpt><trkpt lat="43.4766518864638" lon="11.372876465937267"><ele>434.0</ele><time>2026-04-11T05:27:35Z</time></trkpt><trkpt lat="43.476664026397074" lon="11.372766538941208"><ele>434.0</ele><time>2026-04-11T05:27:38Z</time></trkpt><trkpt lat="43.4766837782478" lon="11.372652128635133"><ele>436.4</ele><time>2026-04-11T05:27:41Z</time></trkpt><trkpt lat="43.47669160752927" lon="11.372564583860099"><ele>438.79999999999995</ele><time>2026-04-11T05:27:44Z</time></trkpt><trkpt lat="43.47670105988872" lon="11.37245920353589"><ele>441.20000000000005</ele><time>2026-04-11T05:27:47Z</time></trkpt><trkpt lat="43.47672636905969" lon="11.372244016920781"><ele>443.6</ele><time>2026-04-11T05:27:53Z</time></trkpt><trkpt lat="43.47674738071248" lon="11.372125594398385"><ele>446.0</ele><time>2026-04-11T05:27:56Z</time></trkpt><trkpt lat="43.47678426345082" lon="11.372009085069973"><ele>447.49999999999994</ele><time>2026-04-11T05:27:59Z</time></trkpt><trkpt lat="43.476827696999536" lon="11.371944785740238"><ele>449.0</ele><time>2026-04-11T05:28:02Z</time></trkpt><trkpt lat="43.476878695370736" lon="11.371873119124526"><ele>450.5</ele><time>2026-04-11T05:28:05Z</time></trkpt><trkpt lat="43.47693879246708" lon="11.371840537977514"><ele>452.0</ele><time>2026-04-11T05:28:07Z</time></trkpt><trkpt lat="43.477009264790624" lon="11.371807411790408"><ele>453.49999999999994</ele><time>2026-04-11T05:28:11Z</time></trkpt><trkpt lat="43.47715580244353" lon="11.371835024885325"><ele>455.0</ele><time>2026-04-11T05:28:17Z</time></trkpt><trkpt lat="43.47722139202321" lon="11.371877068816755"><ele>455.3333333333333</ele><time>2026-04-11T05:28:20Z</time></trkpt><trkpt lat="43.477300105514146" lon="11.371909137055182"><ele>455.66666666666663</ele><time>2026-04-11T05:28:22Z</time></trkpt><trkpt lat="43.4773601522911" lon="11.371940225084384"><ele>456.0</ele><time>2026-04-11T05:28:24Z</time></trkpt><trkpt lat="43.477449001408395" lon="11.371983100130066"><ele>456.33333333333337</ele><time>2026-04-11T05:28:27Z</time></trkpt><trkpt lat="43.477540537044156" lon="11.371998809573913"><ele>456.6666666666667</ele><time>2026-04-11T05:28:30Z</time></trkpt><trkpt lat="43.47763333872926" lon="11.372017486114794"><ele>457.0</ele><time>2026-04-11T05:28:33Z</time></trkpt><trkpt lat="43.47780109069245" lon="11.37200614927251"><ele>457.00000000000006</ele><time>2026-04-11T05:28:38Z</time></trkpt><trkpt lat="43.47787391422325" lon="11.371966914094664"><ele>457.0</ele><time>2026-04-11T05:28:41Z</time></trkpt><trkpt lat="43.47794521954431" lon="11.371960894449284"><ele>457.0</ele><time>2026-04-11T05:28:43Z</time></trkpt><trkpt lat="43.4780273418091" lon="11.371927637565118"><ele>457.0</ele><time>2026-04-11T05:28:46Z</time></trkpt><trkpt lat="43.478107214886585" lon="11.371881121405044"><ele>457.00000000000006</ele><time>2026-04-11T05:28:49Z</time></trkpt><trkpt lat="43.47817442275777" lon="11.371803360970125"><ele>457.0</ele><time>2026-04-11T05:28:52Z</time></trkpt><trkpt lat="43.4782217519414" lon="11.371724059202267"><ele>456.40000000000003</ele><time>2026-04-11T05:28:55Z</time></trkpt><trkpt lat="43.478267205926024" lon="11.371524524292976"><ele>455.80000000000007</ele><time>2026-04-11T05:29:01Z</time></trkpt><trkpt lat="43.478273656166884" lon="11.371425459767597"><ele>455.2</ele><time>2026-04-11T05:29:04Z</time></trkpt><trkpt lat="43.478277009973255" lon="11.371292020084514"><ele>454.6</ele><time>2026-04-11T05:29:08Z</time></trkpt><trkpt lat="43.478249577501934" lon="11.371188067371696"><ele>454.0</ele><time>2026-04-11T05:29:11Z</time></trkpt><trkpt lat="43.47823019963504" lon="11.371092236347836"><ele>455.79999999999995</ele><time>2026-04-11T05:29:14Z</time></trkpt><trkpt lat="43.47820374950406" lon="11.370989132695255"><ele>457.59999999999997</ele><time>2026-04-11T05:29:17Z</time></trkpt><trkpt lat="43.47813741159082" lon="11.370777218524685"><ele>459.4</ele><time>2026-04-11T05:29:23Z</time></trkpt><trkpt lat="43.478114535341" lon="11.370682162227444"><ele>461.2</ele><time>2026-04-11T05:29:26Z</time></trkpt><trkpt lat="43.47809101909204" lon="11.370572828861727"><ele>463.0</ele><time>2026-04-11T05:29:30Z</time></trkpt><trkpt lat="43.478060554920965" lon="11.370473133533606"><ele>464.59999999999997</ele><time>2026-04-11T05:29:34Z</time></trkpt><trkpt lat="43.47802870174857" lon="11.370393395296649"><ele>466.19999999999993</ele><time>2026-04-11T05:29:37Z</time></trkpt><trkpt lat="43.478020522114086" lon="11.370254432922357"><ele>467.8</ele><time>2026-04-11T05:29:41Z</time></trkpt><trkpt lat="43.47801595692075" lon="11.370023245882544"><ele>469.4</ele><time>2026-04-11T05:29:46Z</time></trkpt><trkpt lat="43.478045356562234" lon="11.369900456412934"><ele>471.0</ele><time>2026-04-11T05:29:49Z</time></trkpt><trkpt lat="43.47810438128103" lon="11.36983592312941"><ele>471.0</ele><time>2026-04-11T05:29:52Z</time></trkpt><trkpt lat="43.47817989894172" lon="11.369811043082667"><ele>471.0</ele><time>2026-04-11T05:29:54Z</time></trkpt><trkpt lat="43.47824514769951" lon="11.36980845943095"><ele>471.0</ele><time>2026-04-11T05:29:57Z</time></trkpt><trkpt lat="43.478331860001944" lon="11.369828915495708"><ele>471.0</ele><time>2026-04-11T05:30:00Z</time></trkpt><trkpt lat="43.47841042784656" lon="11.36983518426692"><ele>471.0</ele><time>2026-04-11T05:30:03Z</time></trkpt><trkpt lat="43.47857140761522" lon="11.36979670855404"><ele>471.0</ele><time>2026-04-11T05:30:10Z</time></trkpt><trkpt lat="43.47864491193466" lon="11.369755252583756"><ele>471.0</ele><time>2026-04-11T05:30:13Z</time></trkpt><trkpt lat="43.47871753858062" lon="11.369713244354418"><ele>471.0</ele><time>2026-04-11T05:30:16Z</time></trkpt><trkpt lat="43.47876594044238" lon="11.369652828928642"><ele>471.0</ele><time>2026-04-11T05:30:19Z</time></trkpt><trkpt lat="43.478817522675946" lon="11.369591149465798"><ele>471.0</ele><time>2026-04-11T05:30:22Z</time></trkpt><trkpt lat="43.47886040395025" lon="11.369523008755483"><ele>471.0</ele><time>2026-04-11T05:30:25Z</time></trkpt><trkpt lat="43.478963797142974" lon="11.369389833500115"><ele>472.6666666666667</ele><time>2026-04-11T05:30:30Z</time></trkpt><trkpt lat="43.479030551537136" lon="11.369311336892508"><ele>474.33333333333337</ele><time>2026-04-11T05:30:33Z</time></trkpt><trkpt lat="43.47908674271075" lon="11.369232343898553"><ele>476.0</ele><time>2026-04-11T05:30:36Z</time></trkpt><trkpt lat="43.479147313471046" lon="11.369148919619677"><ele>477.6666666666667</ele><time>2026-04-11T05:30:39Z</time></trkpt><trkpt lat="43.47920295202845" lon="11.369066614156933"><ele>479.33333333333337</ele><time>2026-04-11T05:30:42Z</time></trkpt><trkpt lat="43.47924830095506" lon="11.368988785011911"><ele>481.0</ele><time>2026-04-11T05:30:45Z</time></trkpt><trkpt lat="43.479307410032455" lon="11.368946175791729"><ele>481.20000000000005</ele><time>2026-04-11T05:30:47Z</time></trkpt><trkpt lat="43.47941376626584" lon="11.368806864760762"><ele>481.40000000000003</ele><time>2026-04-11T05:30:52Z</time></trkpt><trkpt lat="43.479472732357394" lon="11.368731649166241"><ele>481.6</ele><time>2026-04-11T05:30:55Z</time></trkpt><trkpt lat="43.47952153435935" lon="11.368649889124324"><ele>481.8</ele><time>2026-04-11T05:30:59Z</time></trkpt><trkpt lat="43.4795793504697" lon="11.36855646180348"><ele>482.0</ele><time>2026-04-11T05:31:02Z</time></trkpt><trkpt lat="43.47962192456042" lon="11.368483432476603"><ele>482.0</ele><time>2026-04-11T05:31:05Z</time></trkpt><trkpt lat="43.479683782836965" lon="11.368397458846601"><ele>482.00000000000006</ele><time>2026-04-11T05:31:09Z</time></trkpt><trkpt lat="43.47977868125263" lon="11.36824133261456"><ele>482.00000000000006</ele><time>2026-04-11T05:31:14Z</time></trkpt><trkpt lat="43.47982341694704" lon="11.368162746637056"><ele>482.0</ele><time>2026-04-11T05:31:17Z</time></trkpt><trkpt lat="43.47987779729444" lon="11.36808890924631"><ele>482.0</ele><time>2026-04-11T05:31:18Z</time></trkpt><trkpt lat="43.47993998660857" lon="11.367996250232615"><ele>483.3333333333333</ele><time>2026-04-11T05:31:21Z</time></trkpt><trkpt lat="43.47998979239444" lon="11.367928611408118"><ele>484.66666666666663</ele><time>2026-04-11T05:31:23Z</time></trkpt><trkpt lat="43.48003646393454" lon="11.36785550501253"><ele>486.0</ele><time>2026-04-11T05:31:25Z</time></trkpt><trkpt lat="43.480108704515146" lon="11.367769280601564"><ele>487.33333333333337</ele><time>2026-04-11T05:31:27Z</time></trkpt><trkpt lat="43.48017526700398" lon="11.36771665112535"><ele>488.6666666666667</ele><time>2026-04-11T05:31:29Z</time></trkpt><trkpt lat="43.480253537519964" lon="11.367670663731003"><ele>490.0</ele><time>2026-04-11T05:31:31Z</time></trkpt><trkpt lat="43.48043396017462" lon="11.367708498563294"><ele>490.00000000000006</ele><time>2026-04-11T05:31:35Z</time></trkpt><trkpt lat="43.48051955731632" lon="11.36775532754638"><ele>490.0</ele><time>2026-04-11T05:31:37Z</time></trkpt><trkpt lat="43.48059782159906" lon="11.367770957944067"><ele>490.0</ele><time>2026-04-11T05:31:39Z</time></trkpt><trkpt lat="43.48068303955321" lon="11.367750148567982"><ele>490.0</ele><time>2026-04-11T05:31:41Z</time></trkpt><trkpt lat="43.4807629430235" lon="11.367695900046636"><ele>490.00000000000006</ele><time>2026-04-11T05:31:43Z</time></trkpt><trkpt lat="43.48083301385922" lon="11.367629281169762"><ele>490.0</ele><time>2026-04-11T05:31:45Z</time></trkpt><trkpt lat="43.48086209421728" lon="11.367519507375068"><ele>490.0</ele><time>2026-04-11T05:31:49Z</time></trkpt><trkpt lat="43.48091320924493" lon="11.367451499592878"><ele>490.0</ele><time>2026-04-11T05:31:50Z</time></trkpt><trkpt lat="43.48097537032135" lon="11.367361714880861"><ele>490.0</ele><time>2026-04-11T05:31:52Z</time></trkpt><trkpt lat="43.48111274910481" lon="11.367212588502085"><ele>490.0</ele><time>2026-04-11T05:31:56Z</time></trkpt><trkpt lat="43.481203626654136" lon="11.367167249220461"><ele>490.0</ele><time>2026-04-11T05:31:59Z</time></trkpt><trkpt lat="43.48129556499285" lon="11.367161434423522"><ele>491.2</ele><time>2026-04-11T05:32:01Z</time></trkpt><trkpt lat="43.481404756374666" lon="11.367167630580816"><ele>492.4</ele><time>2026-04-11T05:32:03Z</time></trkpt><trkpt lat="43.48149687081064" lon="11.367160806052272"><ele>493.6</ele><time>2026-04-11T05:32:05Z</time></trkpt><trkpt lat="43.48157622877093" lon="11.367120414968891"><ele>494.8</ele><time>2026-04-11T05:32:08Z</time></trkpt><trkpt lat="43.48166617958287" lon="11.367088871818039"><ele>496.0</ele><time>2026-04-11T05:32:10Z</time></trkpt><trkpt lat="43.48174405015181" lon="11.36706134122652"><ele>496.00000000000006</ele><time>2026-04-11T05:32:12Z</time></trkpt><trkpt lat="43.481811139581104" lon="11.367022130283639"><ele>496.0</ele><time>2026-04-11T05:32:14Z</time></trkpt><trkpt lat="43.48193637673342" lon="11.366906964112053"><ele>496.0</ele><time>2026-04-11T05:32:18Z</time></trkpt><trkpt lat="43.48198846186754" lon="11.366842648903496"><ele>496.0</ele><time>2026-04-11T05:32:20Z</time></trkpt><trkpt lat="43.48203859406229" lon="11.366769284762146"><ele>496.00000000000006</ele><time>2026-04-11T05:32:22Z</time></trkpt><trkpt lat="43.48208384554909" lon="11.366692586067776"><ele>496.0</ele><time>2026-04-11T05:32:24Z</time></trkpt><trkpt lat="43.48213173498634" lon="11.366616486530559"><ele>495.20000000000005</ele><time>2026-04-11T05:32:26Z</time></trkpt><trkpt lat="43.48218549173814" lon="11.366543766896358"><ele>494.40000000000003</ele><time>2026-04-11T05:32:28Z</time></trkpt><trkpt lat="43.48224913119978" lon="11.36647775360772"><ele>493.6</ele><time>2026-04-11T05:32:30Z</time></trkpt><trkpt lat="43.48232173064743" lon="11.366426996775852"><ele>492.8</ele><time>2026-04-11T05:32:32Z</time></trkpt><trkpt lat="43.482407643917114" lon="11.366397777573047"><ele>492.0</ele><time>2026-04-11T05:32:35Z</time></trkpt><trkpt lat="43.482566546788746" lon="11.366420409677737"><ele>492.0</ele><time>2026-04-11T05:32:41Z</time></trkpt><trkpt lat="43.48264577228883" lon="11.366436664075867"><ele>492.00000000000006</ele><time>2026-04-11T05:32:43Z</time></trkpt><trkpt lat="43.4827521820593" lon="11.366452320732174"><ele>492.00000000000006</ele><time>2026-04-11T05:32:45Z</time></trkpt><trkpt lat="43.482866956231476" lon="11.366488194149657"><ele>492.0</ele><time>2026-04-11T05:32:47Z</time></trkpt><trkpt lat="43.482956758274284" lon="11.366492714471116"><ele>492.0</ele><time>2026-04-11T05:32:49Z</time></trkpt><trkpt lat="43.48303990209223" lon="11.366490549723265"><ele>492.25</ele><time>2026-04-11T05:32:51Z</time></trkpt><trkpt lat="43.48312422320793" lon="11.366462203330636"><ele>492.5</ele><time>2026-04-11T05:32:53Z</time></trkpt><trkpt lat="43.4832107391479" lon="11.366422039825032"><ele>492.75</ele><time>2026-04-11T05:32:55Z</time></trkpt><trkpt lat="43.483285484010636" lon="11.366356873118699"><ele>493.0</ele><time>2026-04-11T05:32:57Z</time></trkpt><trkpt lat="43.48344930889228" lon="11.366227555454032"><ele>495.33333333333337</ele><time>2026-04-11T05:33:01Z</time></trkpt><trkpt lat="43.4835016117514" lon="11.366142825292957"><ele>497.6666666666667</ele><time>2026-04-11T05:33:03Z</time></trkpt><trkpt lat="43.4835579228607" lon="11.366066034454844"><ele>500.0</ele><time>2026-04-11T05:33:05Z</time></trkpt><trkpt lat="43.48360696851852" lon="11.36598955393757"><ele>502.33333333333337</ele><time>2026-04-11T05:33:07Z</time></trkpt><trkpt lat="43.48366233966175" lon="11.36591040288685"><ele>504.6666666666667</ele><time>2026-04-11T05:33:09Z</time></trkpt><trkpt lat="43.483719685554135" lon="11.365828388053027"><ele>507.0</ele><time>2026-04-11T05:33:11Z</time></trkpt><trkpt lat="43.483763214055585" lon="11.365755106112225"><ele>507.6</ele><time>2026-04-11T05:33:13Z</time></trkpt><trkpt lat="43.48381000934872" lon="11.3656872664371"><ele>508.20000000000005</ele><time>2026-04-11T05:33:15Z</time></trkpt><trkpt lat="43.48387679491052" lon="11.365630783878494"><ele>508.8</ele><time>2026-04-11T05:33:17Z</time></trkpt><trkpt lat="43.483941396724674" lon="11.365581890562385"><ele>509.4</ele><time>2026-04-11T05:33:19Z</time></trkpt><trkpt lat="43.48408434632012" lon="11.365521601859427"><ele>510.0</ele><time>2026-04-11T05:33:23Z</time></trkpt><trkpt lat="43.484178715473" lon="11.365565808660488"><ele>507.75</ele><time>2026-04-11T05:33:25Z</time></trkpt><trkpt lat="43.484267757221716" lon="11.36564311630263"><ele>505.5</ele><time>2026-04-11T05:33:27Z</time></trkpt><trkpt lat="43.48435179087915" lon="11.365742813593211"><ele>503.25</ele><time>2026-04-11T05:33:29Z</time></trkpt><trkpt lat="43.484426274760246" lon="11.36585345067034"><ele>501.0</ele><time>2026-04-11T05:33:31Z</time></trkpt><trkpt lat="43.48442606327305" lon="11.366042815538647"><ele>501.0</ele><time>2026-04-11T05:33:33Z</time></trkpt><trkpt lat="43.48441526654716" lon="11.366137243689959"><ele>501.0</ele><time>2026-04-11T05:33:34Z</time></trkpt><trkpt lat="43.48440001840494" lon="11.366234773669545"><ele>501.0</ele><time>2026-04-11T05:33:35Z</time></trkpt><trkpt lat="43.48438272438821" lon="11.366330003403258"><ele>501.0</ele><time>2026-04-11T05:33:36Z</time></trkpt><trkpt lat="43.48436779049454" lon="11.366426845125861"><ele>501.0</ele><time>2026-04-11T05:33:37Z</time></trkpt><trkpt lat="43.48435419714676" lon="11.366524525093658"><ele>501.0</ele><time>2026-04-11T05:33:38Z</time></trkpt><trkpt lat="43.48435623966815" lon="11.366622721481086"><ele>501.0</ele><time>2026-04-11T05:33:39Z</time></trkpt><trkpt lat="43.48436074542361" lon="11.366722237242119"><ele>500.0</ele><time>2026-04-11T05:33:40Z</time></trkpt><trkpt lat="43.484391061508184" lon="11.366907494138346"><ele>499.0</ele><time>2026-04-11T05:33:42Z</time></trkpt><trkpt lat="43.48442452982902" lon="11.366995431105222"><ele>498.0</ele><time>2026-04-11T05:33:43Z</time></trkpt><trkpt lat="43.48446175972725" lon="11.367088127755908"><ele>497.0</ele><time>2026-04-11T05:33:44Z</time></trkpt><trkpt lat="43.484487027718764" lon="11.36718295059403"><ele>496.0</ele><time>2026-04-11T05:33:45Z</time></trkpt><trkpt lat="43.484506687924096" lon="11.367277045426476"><ele>495.0</ele><time>2026-04-11T05:33:46Z</time></trkpt><trkpt lat="43.484527210642206" lon="11.367370946028853"><ele>494.8571428571428</ele><time>2026-04-11T05:33:47Z</time></trkpt><trkpt lat="43.48454678882575" lon="11.367464143161907"><ele>494.71428571428567</ele><time>2026-04-11T05:33:48Z</time></trkpt><trkpt lat="43.48457143690926" lon="11.367556100320822"><ele>494.57142857142856</ele><time>2026-04-11T05:33:49Z</time></trkpt><trkpt lat="43.48459025235339" lon="11.36764801607481"><ele>494.4285714285714</ele><time>2026-04-11T05:33:50Z</time></trkpt><trkpt lat="43.484607503701824" lon="11.367738238939536"><ele>494.2857142857142</ele><time>2026-04-11T05:33:51Z</time></trkpt><trkpt lat="43.4846244155743" lon="11.367828587703515"><ele>494.14285714285717</ele><time>2026-04-11T05:33:52Z</time></trkpt><trkpt lat="43.484633523655155" lon="11.367914943015307"><ele>494.0</ele><time>2026-04-11T05:33:53Z</time></trkpt><trkpt lat="43.48463996076332" lon="11.368001526348717"><ele>495.6</ele><time>2026-04-11T05:33:54Z</time></trkpt><trkpt lat="43.48465198240376" lon="11.36816088454514"><ele>497.2</ele><time>2026-04-11T05:33:56Z</time></trkpt><trkpt lat="43.484679429006576" lon="11.368310651844482"><ele>498.80000000000007</ele><time>2026-04-11T05:33:58Z</time></trkpt><trkpt lat="43.484709685919235" lon="11.368452246099462"><ele>500.40000000000003</ele><time>2026-04-11T05:34:00Z</time></trkpt><trkpt lat="43.48473515208225" lon="11.368596763805174"><ele>502.0</ele><time>2026-04-11T05:34:02Z</time></trkpt><trkpt lat="43.48471233037627" lon="11.368840646051753"><ele>503.0</ele><time>2026-04-11T05:34:06Z</time></trkpt><trkpt lat="43.4847648477994" lon="11.368968067774677"><ele>504.00000000000006</ele><time>2026-04-11T05:34:08Z</time></trkpt><trkpt lat="43.484786951321745" lon="11.369088166177232"><ele>505.00000000000006</ele><time>2026-04-11T05:34:10Z</time></trkpt><trkpt lat="43.48480769904571" lon="11.369200081332908"><ele>506.0</ele><time>2026-04-11T05:34:12Z</time></trkpt><trkpt lat="43.48485990824892" lon="11.369308253329372"><ele>507.0</ele><time>2026-04-11T05:34:14Z</time></trkpt><trkpt lat="43.48491292963859" lon="11.369415250160381"><ele>507.0</ele><time>2026-04-11T05:34:16Z</time></trkpt><trkpt lat="43.484979010549935" lon="11.369508665186167"><ele>507.00000000000006</ele><time>2026-04-11T05:34:18Z</time></trkpt><trkpt lat="43.48504348149317" lon="11.36959380494011"><ele>507.00000000000006</ele><time>2026-04-11T05:34:20Z</time></trkpt><trkpt lat="43.48510630511381" lon="11.369666699123096"><ele>507.0</ele><time>2026-04-11T05:34:22Z</time></trkpt><trkpt lat="43.48515690051272" lon="11.369748983509266"><ele>507.0</ele><time>2026-04-11T05:34:24Z</time></trkpt><trkpt lat="43.48532500256063" lon="11.369808554901248"><ele>507.71428571428567</ele><time>2026-04-11T05:34:28Z</time></trkpt><trkpt lat="43.48540093286744" lon="11.369843519159813"><ele>508.42857142857144</ele><time>2026-04-11T05:34:30Z</time></trkpt><trkpt lat="43.485471176816496" lon="11.369872467969397"><ele>509.1428571428571</ele><time>2026-04-11T05:34:32Z</time></trkpt><trkpt lat="43.48554103211941" lon="11.36984177665159"><ele>509.85714285714283</ele><time>2026-04-11T05:34:34Z</time></trkpt><trkpt lat="43.485607630835275" lon="11.369888969248125"><ele>510.57142857142856</ele><time>2026-04-11T05:34:36Z</time></trkpt><trkpt lat="43.48567118471377" lon="11.369941147691156"><ele>511.2857142857143</ele><time>2026-04-11T05:34:38Z</time></trkpt><trkpt lat="43.48573152929438" lon="11.369969561634793"><ele>512.0</ele><time>2026-04-11T05:34:40Z</time></trkpt><trkpt lat="43.485783095299716" lon="11.370019541626414"><ele>512.0</ele><time>2026-04-11T05:34:42Z</time></trkpt><trkpt lat="43.485853441390205" lon="11.370111500413255"><ele>512.0</ele><time>2026-04-11T05:34:45Z</time></trkpt><trkpt lat="43.48591719496092" lon="11.370280978000373"><ele>512.0</ele><time>2026-04-11T05:34:50Z</time></trkpt><trkpt lat="43.48595509844655" lon="11.370369749025453"><ele>512.0</ele><time>2026-04-11T05:34:53Z</time></trkpt><trkpt lat="43.48599256503797" lon="11.370484196217486"><ele>512.0</ele><time>2026-04-11T05:34:55Z</time></trkpt><trkpt lat="43.48602125486473" lon="11.370569407494495"><ele>513.4</ele><time>2026-04-11T05:34:57Z</time></trkpt><trkpt lat="43.486057941075636" lon="11.370649094306406"><ele>514.8000000000001</ele><time>2026-04-11T05:34:59Z</time></trkpt><trkpt lat="43.48608421606473" lon="11.370731086387487"><ele>516.2</ele><time>2026-04-11T05:35:01Z</time></trkpt><trkpt lat="43.48612338558628" lon="11.370851680204035"><ele>517.6</ele><time>2026-04-11T05:35:04Z</time></trkpt><trkpt lat="43.486163734719284" lon="11.370956276718433"><ele>519.0</ele><time>2026-04-11T05:35:07Z</time></trkpt><trkpt lat="43.486222222856256" lon="11.37118434175785"><ele>519.0</ele><time>2026-04-11T05:35:13Z</time></trkpt><trkpt lat="43.486230795271034" lon="11.371294228944679"><ele>519.0</ele><time>2026-04-11T05:35:16Z</time></trkpt><trkpt lat="43.48625690714019" lon="11.37139297377728"><ele>519.0</ele><time>2026-04-11T05:35:19Z</time></trkpt><trkpt lat="43.486262119225266" lon="11.37151216489534"><ele>519.0</ele><time>2026-04-11T05:35:22Z</time></trkpt><trkpt lat="43.486280959679114" lon="11.371595871546317"><ele>519.0</ele><time>2026-04-11T05:35:24Z</time></trkpt><trkpt lat="43.48632591901058" lon="11.371678386565025"><ele>519.0</ele><time>2026-04-11T05:35:26Z</time></trkpt><trkpt lat="43.48631895597212" lon="11.371807243961742"><ele>518.2</ele><time>2026-04-11T05:35:29Z</time></trkpt><trkpt lat="43.48632908640073" lon="11.37202167996606"><ele>517.4</ele><time>2026-04-11T05:35:34Z</time></trkpt><trkpt lat="43.48634359166787" lon="11.372136659595256"><ele>516.6</ele><time>2026-04-11T05:35:37Z</time></trkpt><trkpt lat="43.48636202315612" lon="11.372250189904499"><ele>515.8</ele><time>2026-04-11T05:35:40Z</time></trkpt><trkpt lat="43.486382859545635" lon="11.372359761532321"><ele>515.0</ele><time>2026-04-11T05:35:43Z</time></trkpt><trkpt lat="43.48639633647696" lon="11.372465113211181"><ele>515.0</ele><time>2026-04-11T05:35:46Z</time></trkpt><trkpt lat="43.48641425551531" lon="11.37258437077379"><ele>515.0</ele><time>2026-04-11T05:35:49Z</time></trkpt><trkpt lat="43.486414621001664" lon="11.372696605929065"><ele>515.0</ele><time>2026-04-11T05:35:52Z</time></trkpt><trkpt lat="43.48642923186015" lon="11.372885288558958"><ele>515.0</ele><time>2026-04-11T05:35:57Z</time></trkpt><trkpt lat="43.48640306788434" lon="11.373007323545142"><ele>515.0</ele><time>2026-04-11T05:36:00Z</time></trkpt><trkpt lat="43.48639860044582" lon="11.373109473515141"><ele>518.0</ele><time>2026-04-11T05:36:03Z</time></trkpt><trkpt lat="43.486389317054076" lon="11.373211154079074"><ele>521.0</ele><time>2026-04-11T05:36:06Z</time></trkpt><trkpt lat="43.4863885799927" lon="11.373314939771143"><ele>524.0</ele><time>2026-04-11T05:36:09Z</time></trkpt><trkpt lat="43.486350265115554" lon="11.373429124016864"><ele>527.0</ele><time>2026-04-11T05:36:12Z</time></trkpt><trkpt lat="43.48632835527787" lon="11.373520329039785"><ele>530.0</ele><time>2026-04-11T05:36:14Z</time></trkpt><trkpt lat="43.48626544927855" lon="11.373697940341058"><ele>528.2</ele><time>2026-04-11T05:36:18Z</time></trkpt><trkpt lat="43.486206440568765" lon="11.373822996125176"><ele>526.4</ele><time>2026-04-11T05:36:20Z</time></trkpt><trkpt lat="43.486195080891356" lon="11.3739422595869"><ele>524.6</ele><time>2026-04-11T05:36:22Z</time></trkpt><trkpt lat="43.48617759015968" lon="11.374077137190268"><ele>522.8</ele><time>2026-04-11T05:36:24Z</time></trkpt><trkpt lat="43.48616286389189" lon="11.374220916753359"><ele>521.0</ele><time>2026-04-11T05:36:27Z</time></trkpt><trkpt lat="43.48615114584397" lon="11.374332078399654"><ele>521.0</ele><time>2026-04-11T05:36:30Z</time></trkpt><trkpt lat="43.48614980947822" lon="11.374430071990789"><ele>521.0</ele><time>2026-04-11T05:36:31Z</time></trkpt><trkpt lat="43.48618846119597" lon="11.374561951340146"><ele>521.0</ele><time>2026-04-11T05:36:32Z</time></trkpt><trkpt lat="43.48624116383177" lon="11.374648400017884"><ele>521.0</ele><time>2026-04-11T05:36:33Z</time></trkpt><trkpt lat="43.48627415181643" lon="11.374730934949124"><ele>521.0</ele><time>2026-04-11T05:36:34Z</time></trkpt><trkpt lat="43.48631570721258" lon="11.374813530235533"><ele>521.0</ele><time>2026-04-11T05:36:35Z</time></trkpt><trkpt lat="43.486418943515254" lon="11.374972860778369"><ele>522.8333333333333</ele><time>2026-04-11T05:36:37Z</time></trkpt><trkpt lat="43.48647579444416" lon="11.375056133675821"><ele>524.6666666666666</ele><time>2026-04-11T05:36:38Z</time></trkpt><trkpt lat="43.48653204689435" lon="11.37513035458253"><ele>526.5</ele><time>2026-04-11T05:36:39Z</time></trkpt><trkpt lat="43.486585470483675" lon="11.375216516105585"><ele>528.3333333333334</ele><time>2026-04-11T05:36:40Z</time></trkpt><trkpt lat="43.48663051009065" lon="11.375304758050923"><ele>530.1666666666667</ele><time>2026-04-11T05:36:41Z</time></trkpt><trkpt lat="43.486684522059235" lon="11.3753898515886"><ele>532.0</ele><time>2026-04-11T05:36:42Z</time></trkpt><trkpt lat="43.486723215140174" lon="11.375471881809817"><ele>530.5714285714286</ele><time>2026-04-11T05:36:43Z</time></trkpt><trkpt lat="43.48677295955877" lon="11.375546696323765"><ele>529.1428571428571</ele><time>2026-04-11T05:36:44Z</time></trkpt><trkpt lat="43.48682276463364" lon="11.375632687588505"><ele>527.7142857142858</ele><time>2026-04-11T05:36:45Z</time></trkpt><trkpt lat="43.48686920638085" lon="11.375710079985193"><ele>526.2857142857142</ele><time>2026-04-11T05:36:46Z</time></trkpt><trkpt lat="43.486893572744094" lon="11.375790785390661"><ele>524.8571428571429</ele><time>2026-04-11T05:36:47Z</time></trkpt><trkpt lat="43.48690981916844" lon="11.375878687205574"><ele>523.4285714285714</ele><time>2026-04-11T05:36:48Z</time></trkpt><trkpt lat="43.486927072361" lon="11.375976870897555"><ele>522.0</ele><time>2026-04-11T05:36:49Z</time></trkpt><trkpt lat="43.486935535010815" lon="11.37607453149903"><ele>522.0</ele><time>2026-04-11T05:36:50Z</time></trkpt><trkpt lat="43.48691289206651" lon="11.37618178985266"><ele>522.0</ele><time>2026-04-11T05:36:51Z</time></trkpt><trkpt lat="43.48690803604444" lon="11.37631388641397"><ele>522.0</ele><time>2026-04-11T05:36:52Z</time></trkpt><trkpt lat="43.48689564159652" lon="11.3764453723162"><ele>522.0</ele><time>2026-04-11T05:36:53Z</time></trkpt><trkpt lat="43.48688954258544" lon="11.376580027613295"><ele>522.0</ele><time>2026-04-11T05:36:54Z</time></trkpt><trkpt lat="43.48688446409525" lon="11.376717209429017"><ele>520.25</ele><time>2026-04-11T05:36:55Z</time></trkpt><trkpt lat="43.486868229243036" lon="11.376855743736755"><ele>518.5</ele><time>2026-04-11T05:36:56Z</time></trkpt><trkpt lat="43.48684368214043" lon="11.377135408598992"><ele>516.75</ele><time>2026-04-11T05:36:58Z</time></trkpt><trkpt lat="43.48683835280789" lon="11.377276705229312"><ele>515.0</ele><time>2026-04-11T05:36:59Z</time></trkpt><trkpt lat="43.48682810801034" lon="11.377414359232489"><ele>515.0</ele><time>2026-04-11T05:37:00Z</time></trkpt><trkpt lat="43.48680720231134" lon="11.377551542802163"><ele>515.0</ele><time>2026-04-11T05:37:01Z</time></trkpt><trkpt lat="43.48680468870935" lon="11.377685339264278"><ele>515.0</ele><time>2026-04-11T05:37:02Z</time></trkpt><trkpt lat="43.48682269524883" lon="11.377836294392672"><ele>515.0</ele><time>2026-04-11T05:37:03Z</time></trkpt><trkpt lat="43.486808690257774" lon="11.377992519892867"><ele>515.0</ele><time>2026-04-11T05:37:04Z</time></trkpt><trkpt lat="43.486832177153026" lon="11.378126774036536"><ele>513.75</ele><time>2026-04-11T05:37:05Z</time></trkpt><trkpt lat="43.486891629286845" lon="11.378259877161954"><ele>512.5</ele><time>2026-04-11T05:37:06Z</time></trkpt><trkpt lat="43.48694019101547" lon="11.378413554411313"><ele>511.25</ele><time>2026-04-11T05:37:07Z</time></trkpt><trkpt lat="43.48701233216342" lon="11.378529337507738"><ele>510.0</ele><time>2026-04-11T05:37:08Z</time></trkpt><trkpt lat="43.48708187771743" lon="11.378660322687427"><ele>509.0</ele><time>2026-04-11T05:37:09Z</time></trkpt><trkpt lat="43.487156710062564" lon="11.378789398973403"><ele>508.0</ele><time>2026-04-11T05:37:10Z</time></trkpt><trkpt lat="43.487228247200996" lon="11.378923006877766"><ele>507.0</ele><time>2026-04-11T05:37:11Z</time></trkpt><trkpt lat="43.48730122532737" lon="11.379061697831432"><ele>506.0</ele><time>2026-04-11T05:37:12Z</time></trkpt><trkpt lat="43.48737276500925" lon="11.379200179772605"><ele>506.0</ele><time>2026-04-11T05:37:13Z</time></trkpt><trkpt lat="43.48744659360032" lon="11.379336770882455"><ele>506.0</ele><time>2026-04-11T05:37:14Z</time></trkpt><trkpt lat="43.48752826579282" lon="11.379451789728096"><ele>506.0</ele><time>2026-04-11T05:37:15Z</time></trkpt><trkpt lat="43.487616957456744" lon="11.37955003706598"><ele>506.0</ele><time>2026-04-11T05:37:16Z</time></trkpt><trkpt lat="43.48771034903885" lon="11.37964061039006"><ele>505.0</ele><time>2026-04-11T05:37:17Z</time></trkpt><trkpt lat="43.487843174644304" lon="11.379895605096765"><ele>504.0</ele><time>2026-04-11T05:37:19Z</time></trkpt><trkpt lat="43.48786199543254" lon="11.380053420996694"><ele>503.0</ele><time>2026-04-11T05:37:20Z</time></trkpt><trkpt lat="43.48787322641616" lon="11.380212032833072"><ele>503.0</ele><time>2026-04-11T05:37:21Z</time></trkpt><trkpt lat="43.4878815665229" lon="11.380377119259233"><ele>503.0</ele><time>2026-04-11T05:37:22Z</time></trkpt><trkpt lat="43.487899229952326" lon="11.380538339250487"><ele>503.0</ele><time>2026-04-11T05:37:23Z</time></trkpt><trkpt lat="43.48791635062023" lon="11.380703264927035"><ele>503.0</ele><time>2026-04-11T05:37:24Z</time></trkpt><trkpt lat="43.48794274170644" lon="11.380871043123843"><ele>498.75</ele><time>2026-04-11T05:37:25Z</time></trkpt><trkpt lat="43.48797834422798" lon="11.381037167503045"><ele>494.5</ele><time>2026-04-11T05:37:26Z</time></trkpt><trkpt lat="43.48802461893584" lon="11.38120357108814"><ele>490.25</ele><time>2026-04-11T05:37:27Z</time></trkpt><trkpt lat="43.48807278039819" lon="11.38135749520613"><ele>486.0</ele><time>2026-04-11T05:37:28Z</time></trkpt><trkpt lat="43.48814484021433" lon="11.381497361236272"><ele>486.0</ele><time>2026-04-11T05:37:29Z</time></trkpt><trkpt lat="43.48819782120544" lon="11.381643974201426"><ele>486.0</ele><time>2026-04-11T05:37:30Z</time></trkpt><trkpt lat="43.48824789070258" lon="11.38179690173259"><ele>486.0</ele><time>2026-04-11T05:37:31Z</time></trkpt><trkpt lat="43.48830820985269" lon="11.381947051206442"><ele>486.0</ele><time>2026-04-11T05:37:32Z</time></trkpt><trkpt lat="43.488372256837145" lon="11.382096073708158"><ele>484.5</ele><time>2026-04-11T05:37:33Z</time></trkpt><trkpt lat="43.4884516456373" lon="11.382242738306037"><ele>483.0</ele><time>2026-04-11T05:37:34Z</time></trkpt><trkpt lat="43.48853677526085" lon="11.382381253103583"><ele>481.5</ele><time>2026-04-11T05:37:35Z</time></trkpt><trkpt lat="43.488624872343415" lon="11.38250540611065"><ele>480.0</ele><time>2026-04-11T05:37:36Z</time></trkpt><trkpt lat="43.488719598683815" lon="11.382615257907032"><ele>479.33333333333337</ele><time>2026-04-11T05:37:37Z</time></trkpt><trkpt lat="43.488821238358014" lon="11.382715667678557"><ele>478.6666666666667</ele><time>2026-04-11T05:37:38Z</time></trkpt><trkpt lat="43.48903663136132" lon="11.382900820437591"><ele>478.0</ele><time>2026-04-11T05:37:40Z</time></trkpt><trkpt lat="43.48914631833997" lon="11.382995866166361"><ele>476.0</ele><time>2026-04-11T05:37:41Z</time></trkpt><trkpt lat="43.48925503038825" lon="11.38310319379444"><ele>474.0</ele><time>2026-04-11T05:37:42Z</time></trkpt><trkpt lat="43.48935953056794" lon="11.38322056401116"><ele>472.0</ele><time>2026-04-11T05:37:43Z</time></trkpt><trkpt lat="43.48945852388313" lon="11.383330215623213"><ele>470.0</ele><time>2026-04-11T05:37:44Z</time></trkpt><trkpt lat="43.48955703855019" lon="11.383438381309919"><ele>468.25</ele><time>2026-04-11T05:37:45Z</time></trkpt><trkpt lat="43.489653668949366" lon="11.383539565417712"><ele>466.5</ele><time>2026-04-11T05:37:46Z</time></trkpt><trkpt lat="43.489748998228144" lon="11.383644879908642"><ele>464.75</ele><time>2026-04-11T05:37:47Z</time></trkpt><trkpt lat="43.489839839729406" lon="11.383758854031733"><ele>463.0</ele><time>2026-04-11T05:37:48Z</time></trkpt><trkpt lat="43.48991757939729" lon="11.383881324623548"><ele>463.0</ele><time>2026-04-11T05:37:49Z</time></trkpt><trkpt lat="43.48998149848901" lon="11.384017833373166"><ele>463.0</ele><time>2026-04-11T05:37:50Z</time></trkpt><trkpt lat="43.49002738068288" lon="11.384165604972546"><ele>463.0</ele><time>2026-04-11T05:37:51Z</time></trkpt><trkpt lat="43.4900515586672" lon="11.384319138673956"><ele>463.0</ele><time>2026-04-11T05:37:52Z</time></trkpt><trkpt lat="43.4900613877287" lon="11.384475483062163"><ele>463.0</ele><time>2026-04-11T05:37:53Z</time></trkpt><trkpt lat="43.490073324246026" lon="11.384628340095757"><ele>462.99999999999994</ele><time>2026-04-11T05:37:54Z</time></trkpt><trkpt lat="43.49010880777348" lon="11.384766465873112"><ele>462.99999999999994</ele><time>2026-04-11T05:37:55Z</time></trkpt><trkpt lat="43.490159945316684" lon="11.384892216438171"><ele>463.0</ele><time>2026-04-11T05:37:56Z</time></trkpt><trkpt lat="43.490220642676775" lon="11.384990309486247"><ele>463.0</ele><time>2026-04-11T05:37:57Z</time></trkpt><trkpt lat="43.49027462407041" lon="11.385087793089674"><ele>462.0</ele><time>2026-04-11T05:37:58Z</time></trkpt><trkpt lat="43.490303267979975" lon="11.385209148769755"><ele>461.0</ele><time>2026-04-11T05:37:59Z</time></trkpt><trkpt lat="43.49030148859276" lon="11.385464013108049"><ele>460.0</ele><time>2026-04-11T05:38:01Z</time></trkpt><trkpt lat="43.49030291153494" lon="11.385590413551629"><ele>459.0</ele><time>2026-04-11T05:38:02Z</time></trkpt><trkpt lat="43.49030480091997" lon="11.385714398943941"><ele>459.0</ele><time>2026-04-11T05:38:03Z</time></trkpt><trkpt lat="43.490305296887044" lon="11.38583704001248"><ele>459.0</ele><time>2026-04-11T05:38:04Z</time></trkpt><trkpt lat="43.490293137123814" lon="11.385960259525621"><ele>459.0</ele><time>2026-04-11T05:38:05Z</time></trkpt><trkpt lat="43.490248962431835" lon="11.386071989447506"><ele>459.0</ele><time>2026-04-11T05:38:06Z</time></trkpt><trkpt lat="43.49018010884762" lon="11.386158167028835"><ele>459.0</ele><time>2026-04-11T05:38:07Z</time></trkpt><trkpt lat="43.490109037606345" lon="11.386221415670292"><ele>459.0</ele><time>2026-04-11T05:38:08Z</time></trkpt><trkpt lat="43.49003809251401" lon="11.38627044068242"><ele>459.0</ele><time>2026-04-11T05:38:09Z</time></trkpt><trkpt lat="43.48996758221823" lon="11.386308584628619"><ele>459.0</ele><time>2026-04-11T05:38:10Z</time></trkpt><trkpt lat="43.48989068319531" lon="11.386296364111228"><ele>459.0</ele><time>2026-04-11T05:38:11Z</time></trkpt><trkpt lat="43.4898120120575" lon="11.386232168700674"><ele>459.0</ele><time>2026-04-11T05:38:12Z</time></trkpt><trkpt lat="43.489743917464835" lon="11.386179995591636"><ele>459.0</ele><time>2026-04-11T05:38:13Z</time></trkpt><trkpt lat="43.48964676510123" lon="11.386271593215346"><ele>459.0</ele><time>2026-04-11T05:38:15Z</time></trkpt><trkpt lat="43.489638682451734" lon="11.386374711592946"><ele>459.79999999999995</ele><time>2026-04-11T05:38:16Z</time></trkpt><trkpt lat="43.489643756082494" lon="11.386469692370765"><ele>460.59999999999997</ele><time>2026-04-11T05:38:17Z</time></trkpt><trkpt lat="43.48961847860593" lon="11.386632715823904"><ele>461.4</ele><time>2026-04-11T05:38:19Z</time></trkpt><trkpt lat="43.48959959742149" lon="11.386719167128293"><ele>462.2</ele><time>2026-04-11T05:38:20Z</time></trkpt><trkpt lat="43.4895661478139" lon="11.386897262718033"><ele>463.0</ele><time>2026-04-11T05:38:22Z</time></trkpt><trkpt lat="43.489547931707314" lon="11.38698704363607"><ele>460.85714285714283</ele><time>2026-04-11T05:38:23Z</time></trkpt><trkpt lat="43.48953513900286" lon="11.387081116437392"><ele>458.71428571428567</ele><time>2026-04-11T05:38:24Z</time></trkpt><trkpt lat="43.489525610687025" lon="11.387177045030391"><ele>456.57142857142856</ele><time>2026-04-11T05:38:25Z</time></trkpt><trkpt lat="43.48950595508138" lon="11.387281119530494"><ele>454.42857142857144</ele><time>2026-04-11T05:38:26Z</time></trkpt><trkpt lat="43.489505626095166" lon="11.387377769722914"><ele>452.2857142857143</ele><time>2026-04-11T05:38:27Z</time></trkpt><trkpt lat="43.48950729107606" lon="11.387476914090078"><ele>450.1428571428571</ele><time>2026-04-11T05:38:28Z</time></trkpt><trkpt lat="43.48949876990802" lon="11.387576078405509"><ele>448.0</ele><time>2026-04-11T05:38:29Z</time></trkpt><trkpt lat="43.48948372357141" lon="11.387674435954057"><ele>448.0</ele><time>2026-04-11T05:38:30Z</time></trkpt><trkpt lat="43.4894715244215" lon="11.387772465511052"><ele>448.0</ele><time>2026-04-11T05:38:31Z</time></trkpt><trkpt lat="43.48946157039982" lon="11.387873544367109"><ele>448.0</ele><time>2026-04-11T05:38:32Z</time></trkpt><trkpt lat="43.489453566422675" lon="11.387975556483612"><ele>448.0</ele><time>2026-04-11T05:38:33Z</time></trkpt><trkpt lat="43.4894432446057" lon="11.388074625036513"><ele>448.0</ele><time>2026-04-11T05:38:34Z</time></trkpt><trkpt lat="43.48944542587103" lon="11.388177198407586"><ele>448.0</ele><time>2026-04-11T05:38:35Z</time></trkpt><trkpt lat="43.489429773625126" lon="11.388276460950243"><ele>448.0</ele><time>2026-04-11T05:38:36Z</time></trkpt><trkpt lat="43.4894072328598" lon="11.388375120588593"><ele>448.50000000000006</ele><time>2026-04-11T05:38:37Z</time></trkpt><trkpt lat="43.48938499144881" lon="11.388472853230553"><ele>449.0</ele><time>2026-04-11T05:38:38Z</time></trkpt><trkpt lat="43.48937218039503" lon="11.388573478676006"><ele>449.5</ele><time>2026-04-11T05:38:39Z</time></trkpt><trkpt lat="43.48936958447748" lon="11.388671317374214"><ele>450.0</ele><time>2026-04-11T05:38:40Z</time></trkpt><trkpt lat="43.48935172452276" lon="11.388769312200788"><ele>450.50000000000006</ele><time>2026-04-11T05:38:41Z</time></trkpt><trkpt lat="43.489303562563684" lon="11.3889531984218"><ele>451.0</ele><time>2026-04-11T05:38:43Z</time></trkpt><trkpt lat="43.48927662705856" lon="11.389036789908934"><ele>451.57142857142856</ele><time>2026-04-11T05:38:44Z</time></trkpt><trkpt lat="43.48925975191439" lon="11.389124021017881"><ele>452.14285714285717</ele><time>2026-04-11T05:38:45Z</time></trkpt><trkpt lat="43.48925680817453" lon="11.3892169689241"><ele>452.7142857142857</ele><time>2026-04-11T05:38:46Z</time></trkpt><trkpt lat="43.48926565514435" lon="11.389308036946241"><ele>453.2857142857143</ele><time>2026-04-11T05:38:47Z</time></trkpt><trkpt lat="43.48928805913471" lon="11.389393052450117"><ele>453.8571428571429</ele><time>2026-04-11T05:38:48Z</time></trkpt><trkpt lat="43.48932222539851" lon="11.389474122624627"><ele>454.42857142857144</ele><time>2026-04-11T05:38:49Z</time></trkpt><trkpt lat="43.489359038905086" lon="11.389554146189607"><ele>455.0</ele><time>2026-04-11T05:38:50Z</time></trkpt><trkpt lat="43.48939676696287" lon="11.3896368379084"><ele>454.66666666666663</ele><time>2026-04-11T05:38:51Z</time></trkpt><trkpt lat="43.48942233408643" lon="11.38971888672877"><ele>454.3333333333333</ele><time>2026-04-11T05:38:52Z</time></trkpt><trkpt lat="43.48944899943907" lon="11.38979852056325"><ele>454.0</ele><time>2026-04-11T05:38:53Z</time></trkpt><trkpt lat="43.48949974055667" lon="11.389949210485772"><ele>453.66666666666663</ele><time>2026-04-11T05:38:55Z</time></trkpt><trkpt lat="43.48953211399062" lon="11.390025981064365"><ele>453.3333333333333</ele><time>2026-04-11T05:38:56Z</time></trkpt><trkpt lat="43.489580041046054" lon="11.390175569304553"><ele>453.0</ele><time>2026-04-11T05:38:58Z</time></trkpt><trkpt lat="43.48962586325931" lon="11.390323435603992"><ele>455.0</ele><time>2026-04-11T05:39:00Z</time></trkpt><trkpt lat="43.489683402953794" lon="11.390458794285363"><ele>457.0</ele><time>2026-04-11T05:39:02Z</time></trkpt><trkpt lat="43.48980138473847" lon="11.390716186016181"><ele>459.0</ele><time>2026-04-11T05:39:06Z</time></trkpt><trkpt lat="43.48988000008875" lon="11.39084040609458"><ele>459.0</ele><time>2026-04-11T05:39:08Z</time></trkpt><trkpt lat="43.489961517521444" lon="11.3909499395154"><ele>459.0</ele><time>2026-04-11T05:39:10Z</time></trkpt><trkpt lat="43.49005150427175" lon="11.391047719208904"><ele>459.0</ele><time>2026-04-11T05:39:12Z</time></trkpt><trkpt lat="43.490120912349575" lon="11.391172430296383"><ele>459.0</ele><time>2026-04-11T05:39:14Z</time></trkpt><trkpt lat="43.49018436051425" lon="11.391312113894719"><ele>458.6</ele><time>2026-04-11T05:39:16Z</time></trkpt><trkpt lat="43.49021840854547" lon="11.391483493170778"><ele>458.2</ele><time>2026-04-11T05:39:18Z</time></trkpt><trkpt lat="43.49021200139145" lon="11.391653201005157"><ele>457.80000000000007</ele><time>2026-04-11T05:39:20Z</time></trkpt><trkpt lat="43.49020268828803" lon="11.391741768108048"><ele>457.40000000000003</ele><time>2026-04-11T05:39:21Z</time></trkpt><trkpt lat="43.49018952189392" lon="11.391906860085642"><ele>457.0</ele><time>2026-04-11T05:39:23Z</time></trkpt><trkpt lat="43.49018040554867" lon="11.392210412096642"><ele>457.0</ele><time>2026-04-11T05:39:27Z</time></trkpt><trkpt lat="43.49019298043183" lon="11.392358602105302"><ele>457.00000000000006</ele><time>2026-04-11T05:39:29Z</time></trkpt><trkpt lat="43.49021346434084" lon="11.392497633513408"><ele>457.00000000000006</ele><time>2026-04-11T05:39:31Z</time></trkpt><trkpt lat="43.490230063663326" lon="11.392632803514193"><ele>457.0</ele><time>2026-04-11T05:39:33Z</time></trkpt><trkpt lat="43.49027018173146" lon="11.392757475614104"><ele>457.0</ele><time>2026-04-11T05:39:35Z</time></trkpt><trkpt lat="43.490314590801816" lon="11.392877409761473"><ele>457.0</ele><time>2026-04-11T05:39:37Z</time></trkpt><trkpt lat="43.49035836116849" lon="11.39300034189752"><ele>457.00000000000006</ele><time>2026-04-11T05:39:39Z</time></trkpt><trkpt lat="43.490387156763624" lon="11.393127775697536"><ele>457.00000000000006</ele><time>2026-04-11T05:39:41Z</time></trkpt><trkpt lat="43.490406459755015" lon="11.393251127405968"><ele>457.0</ele><time>2026-04-11T05:39:43Z</time></trkpt><trkpt lat="43.49041067760955" lon="11.393372166657372"><ele>457.0</ele><time>2026-04-11T05:39:45Z</time></trkpt><trkpt lat="43.49038728482919" lon="11.393593439473726"><ele>457.50000000000006</ele><time>2026-04-11T05:39:49Z</time></trkpt><trkpt lat="43.49034970289202" lon="11.393693883482916"><ele>458.0</ele><time>2026-04-11T05:39:51Z</time></trkpt><trkpt lat="43.49031574277971" lon="11.39379207657861"><ele>458.5</ele><time>2026-04-11T05:39:53Z</time></trkpt><trkpt lat="43.49027788044417" lon="11.39386726150736"><ele>459.0</ele><time>2026-04-11T05:39:55Z</time></trkpt><trkpt lat="43.49023157270224" lon="11.393974175988182"><ele>459.50000000000006</ele><time>2026-04-11T05:39:57Z</time></trkpt><trkpt lat="43.49020189386474" lon="11.394064426568406"><ele>460.0</ele><time>2026-04-11T05:39:59Z</time></trkpt><trkpt lat="43.49016544748226" lon="11.394152292397425"><ele>460.6666666666667</ele><time>2026-04-11T05:40:01Z</time></trkpt><trkpt lat="43.49013469828187" lon="11.394234003173736"><ele>461.33333333333337</ele><time>2026-04-11T05:40:03Z</time></trkpt><trkpt lat="43.49010643122642" lon="11.394328972702963"><ele>462.0</ele><time>2026-04-11T05:40:05Z</time></trkpt><trkpt lat="43.49009160307732" lon="11.394427561464871"><ele>462.66666666666663</ele><time>2026-04-11T05:40:07Z</time></trkpt><trkpt lat="43.49007740763501" lon="11.39461759193418"><ele>463.3333333333333</ele><time>2026-04-11T05:40:11Z</time></trkpt><trkpt lat="43.49007968859536" lon="11.394707659263185"><ele>464.0</ele><time>2026-04-11T05:40:13Z</time></trkpt><trkpt lat="43.49008645286155" lon="11.394815847014947"><ele>464.7142857142858</ele><time>2026-04-11T05:40:15Z</time></trkpt><trkpt lat="43.49008897777141" lon="11.39491047787191"><ele>465.42857142857144</ele><time>2026-04-11T05:40:17Z</time></trkpt><trkpt lat="43.49009062088694" lon="11.395001896462286"><ele>466.14285714285717</ele><time>2026-04-11T05:40:19Z</time></trkpt><trkpt lat="43.49009150817245" lon="11.395093262292459"><ele>466.8571428571429</ele><time>2026-04-11T05:40:21Z</time></trkpt><trkpt lat="43.49010558863109" lon="11.395178275834965"><ele>467.57142857142856</ele><time>2026-04-11T05:40:23Z</time></trkpt><trkpt lat="43.49011750340972" lon="11.39526426628756"><ele>468.2857142857143</ele><time>2026-04-11T05:40:25Z</time></trkpt><trkpt lat="43.49012437452917" lon="11.395388681037469"><ele>469.0</ele><time>2026-04-11T05:40:28Z</time></trkpt><trkpt lat="43.490104289452134" lon="11.395634219206633"><ele>469.6666666666667</ele><time>2026-04-11T05:40:34Z</time></trkpt><trkpt lat="43.49009010665842" lon="11.395751781101758"><ele>470.33333333333337</ele><time>2026-04-11T05:40:37Z</time></trkpt><trkpt lat="43.490082004312455" lon="11.395860637778549"><ele>471.0</ele><time>2026-04-11T05:40:40Z</time></trkpt><trkpt lat="43.490070140129745" lon="11.395970255915918"><ele>471.66666666666663</ele><time>2026-04-11T05:40:43Z</time></trkpt><trkpt lat="43.49004773975467" lon="11.396060427380743"><ele>472.3333333333333</ele><time>2026-04-11T05:40:46Z</time></trkpt><trkpt lat="43.490026385228916" lon="11.396155539427754"><ele>473.0</ele><time>2026-04-11T05:40:49Z</time></trkpt><trkpt lat="43.48996349902833" lon="11.396366092717665"><ele>472.99999999999994</ele><time>2026-04-11T05:40:54Z</time></trkpt><trkpt lat="43.48989960516543" lon="11.39646267229315"><ele>473.0</ele><time>2026-04-11T05:40:57Z</time></trkpt><trkpt lat="43.489840744366695" lon="11.39654125972894"><ele>473.0</ele><time>2026-04-11T05:41:00Z</time></trkpt><trkpt lat="43.48977503702675" lon="11.396615711094602"><ele>473.0</ele><time>2026-04-11T05:41:03Z</time></trkpt><trkpt lat="43.48972065203334" lon="11.396696291154548"><ele>472.99999999999994</ele><time>2026-04-11T05:41:06Z</time></trkpt><trkpt lat="43.489655980927466" lon="11.396780561231362"><ele>473.0</ele><time>2026-04-11T05:41:09Z</time></trkpt><trkpt lat="43.489610251023095" lon="11.396877065738995"><ele>476.0</ele><time>2026-04-11T05:41:12Z</time></trkpt><trkpt lat="43.48952646214357" lon="11.39707371563123"><ele>478.99999999999994</ele><time>2026-04-11T05:41:18Z</time></trkpt><trkpt lat="43.489484277818775" lon="11.39717543842752"><ele>481.99999999999994</ele><time>2026-04-11T05:41:21Z</time></trkpt><trkpt lat="43.48943172937146" lon="11.397270346861584"><ele>485.0</ele><time>2026-04-11T05:41:24Z</time></trkpt><trkpt lat="43.4893945904211" lon="11.397369057121317"><ele>488.0</ele><time>2026-04-11T05:41:27Z</time></trkpt><trkpt lat="43.489357096015524" lon="11.397462352877032"><ele>488.4</ele><time>2026-04-11T05:41:30Z</time></trkpt><trkpt lat="43.489313621255185" lon="11.397553394963404"><ele>488.79999999999995</ele><time>2026-04-11T05:41:33Z</time></trkpt><trkpt lat="43.48923838822219" lon="11.397752208195104"><ele>489.2</ele><time>2026-04-11T05:41:40Z</time></trkpt><trkpt lat="43.48919312257027" lon="11.397837362855988"><ele>489.6</ele><time>2026-04-11T05:41:43Z</time></trkpt><trkpt lat="43.48915155481183" lon="11.397915616297382"><ele>490.0</ele><time>2026-04-11T05:41:46Z</time></trkpt><trkpt lat="43.48911310016547" lon="11.39801140869778"><ele>489.00000000000006</ele><time>2026-04-11T05:41:49Z</time></trkpt><trkpt lat="43.489068338982754" lon="11.398092247380532"><ele>488.0</ele><time>2026-04-11T05:41:52Z</time></trkpt><trkpt lat="43.48903998743387" lon="11.3981725772125"><ele>487.0</ele><time>2026-04-11T05:41:55Z</time></trkpt><trkpt lat="43.48897091217886" lon="11.39832560966954"><ele>486.0</ele><time>2026-04-11T05:42:01Z</time></trkpt><trkpt lat="43.48893154305179" lon="11.398408931854998"><ele>485.00000000000006</ele><time>2026-04-11T05:42:04Z</time></trkpt><trkpt lat="43.48889746232725" lon="11.398503364170418"><ele>484.0</ele><time>2026-04-11T05:42:07Z</time></trkpt><trkpt lat="43.488842105334314" lon="11.398594283783897"><ele>484.00000000000006</ele><time>2026-04-11T05:42:10Z</time></trkpt><trkpt lat="43.48880558289673" lon="11.398689453574873"><ele>484.0</ele><time>2026-04-11T05:42:13Z</time></trkpt><trkpt lat="43.48875999708551" lon="11.398784698350424"><ele>484.0</ele><time>2026-04-11T05:42:16Z</time></trkpt><trkpt lat="43.48867601656792" lon="11.398940162452755"><ele>484.0</ele><time>2026-04-11T05:42:20Z</time></trkpt><trkpt lat="43.48863953465413" lon="11.399019465200755"><ele>484.00000000000006</ele><time>2026-04-11T05:42:22Z</time></trkpt><trkpt lat="43.488593765909535" lon="11.399087723987677"><ele>484.0</ele><time>2026-04-11T05:42:24Z</time></trkpt><trkpt lat="43.48856139998441" lon="11.399193337595408"><ele>487.2</ele><time>2026-04-11T05:42:27Z</time></trkpt><trkpt lat="43.48850398255716" lon="11.399294591282231"><ele>490.4</ele><time>2026-04-11T05:42:30Z</time></trkpt><trkpt lat="43.488454772651444" lon="11.399383882469618"><ele>493.6</ele><time>2026-04-11T05:42:33Z</time></trkpt><trkpt lat="43.4884098843231" lon="11.399459329183657"><ele>496.8</ele><time>2026-04-11T05:42:36Z</time></trkpt><trkpt lat="43.488354428972116" lon="11.39953279982572"><ele>500.0</ele><time>2026-04-11T05:42:39Z</time></trkpt><trkpt lat="43.488223715461906" lon="11.399635409704238"><ele>500.16666666666663</ele><time>2026-04-11T05:42:46Z</time></trkpt><trkpt lat="43.48815661057518" lon="11.399676415828555"><ele>500.3333333333333</ele><time>2026-04-11T05:42:50Z</time></trkpt><trkpt lat="43.488092443936246" lon="11.399687173316526"><ele>500.5</ele><time>2026-04-11T05:42:53Z</time></trkpt><trkpt lat="43.488024061057715" lon="11.39968896946025"><ele>500.66666666666663</ele><time>2026-04-11T05:42:56Z</time></trkpt><trkpt lat="43.48794099787919" lon="11.399704600130024"><ele>500.8333333333333</ele><time>2026-04-11T05:43:00Z</time></trkpt><trkpt lat="43.48779783475819" lon="11.399721711561265"><ele>501.0</ele><time>2026-04-11T05:43:07Z</time></trkpt><trkpt lat="43.487741890823564" lon="11.399776388429753"><ele>501.0</ele><time>2026-04-11T05:43:10Z</time></trkpt><trkpt lat="43.48770299563827" lon="11.399863141414167"><ele>501.0</ele><time>2026-04-11T05:43:13Z</time></trkpt><trkpt lat="43.487663349255286" lon="11.399939410149951"><ele>501.0</ele><time>2026-04-11T05:43:16Z</time></trkpt><trkpt lat="43.487629301268015" lon="11.400052125895625"><ele>501.0</ele><time>2026-04-11T05:43:19Z</time></trkpt><trkpt lat="43.487608935132066" lon="11.400143474917128"><ele>501.0</ele><time>2026-04-11T05:43:22Z</time></trkpt><trkpt lat="43.48758866816902" lon="11.400326109000831"><ele>501.0</ele><time>2026-04-11T05:43:28Z</time></trkpt><trkpt lat="43.48758174670859" lon="11.400443288327915"><ele>501.8</ele><time>2026-04-11T05:43:32Z</time></trkpt><trkpt lat="43.487569100664786" lon="11.400566266392334"><ele>502.6</ele><time>2026-04-11T05:43:36Z</time></trkpt><trkpt lat="43.48756260251995" lon="11.400653393102342"><ele>503.4</ele><time>2026-04-11T05:43:40Z</time></trkpt><trkpt lat="43.487557938447296" lon="11.400767501695059"><ele>504.2</ele><time>2026-04-11T05:43:43Z</time></trkpt><trkpt lat="43.48750728638217" lon="11.400951927709523"><ele>505.0</ele><time>2026-04-11T05:43:49Z</time></trkpt><trkpt lat="43.48749359859444" lon="11.401068859112222"><ele>505.00000000000006</ele><time>2026-04-11T05:43:53Z</time></trkpt><trkpt lat="43.48750740346929" lon="11.401166139734034"><ele>505.0</ele><time>2026-04-11T05:43:57Z</time></trkpt><trkpt lat="43.48757708797033" lon="11.401223504410133"><ele>505.0</ele><time>2026-04-11T05:44:01Z</time></trkpt><trkpt lat="43.48764783188101" lon="11.40120872090989"><ele>505.0</ele><time>2026-04-11T05:44:05Z</time></trkpt><trkpt lat="43.48774030709771" lon="11.401063204702362"><ele>505.00000000000006</ele><time>2026-04-11T05:44:12Z</time></trkpt><trkpt lat="43.48779477241901" lon="11.401000849065909"><ele>505.0</ele><time>2026-04-11T05:44:15Z</time></trkpt><trkpt lat="43.487845663176614" lon="11.400902367928403"><ele>505.0</ele><time>2026-04-11T05:44:18Z</time></trkpt><trkpt lat="43.48790348537171" lon="11.40082520371683"><ele>505.0</ele><time>2026-04-11T05:44:21Z</time></trkpt><trkpt lat="43.48797084515105" lon="11.40076997570775"><ele>505.0</ele><time>2026-04-11T05:44:24Z</time></trkpt><trkpt lat="43.488048779057195" lon="11.400735872835526"><ele>505.0</ele><time>2026-04-11T05:44:27Z</time></trkpt><trkpt lat="43.48820106265393" lon="11.400760708502123"><ele>505.0</ele><time>2026-04-11T05:44:33Z</time></trkpt><trkpt lat="43.48826034440703" lon="11.400800064917897"><ele>506.6</ele><time>2026-04-11T05:44:35Z</time></trkpt><trkpt lat="43.48833149585114" lon="11.400840340069992"><ele>508.2</ele><time>2026-04-11T05:44:39Z</time></trkpt><trkpt lat="43.48840869061608" lon="11.400908923884245"><ele>509.79999999999995</ele><time>2026-04-11T05:44:43Z</time></trkpt><trkpt lat="43.488489242002004" lon="11.400962369277135"><ele>511.4</ele><time>2026-04-11T05:44:47Z</time></trkpt><trkpt lat="43.488553993124" lon="11.40100468227286"><ele>513.0</ele><time>2026-04-11T05:44:50Z</time></trkpt><trkpt lat="43.48868614823827" lon="11.401113730330911"><ele>513.0</ele><time>2026-04-11T05:44:56Z</time></trkpt><trkpt lat="43.48874484179448" lon="11.401188538342634"><ele>513.0</ele><time>2026-04-11T05:44:59Z</time></trkpt><trkpt lat="43.488797942271795" lon="11.401268242323564"><ele>513.0</ele><time>2026-04-11T05:45:02Z</time></trkpt><trkpt lat="43.48883985932394" lon="11.40136086319911"><ele>513.0</ele><time>2026-04-11T05:45:05Z</time></trkpt><trkpt lat="43.48887297014581" lon="11.40147295948038"><ele>513.0</ele><time>2026-04-11T05:45:08Z</time></trkpt><trkpt lat="43.4888928471844" lon="11.401593661963322"><ele>513.0</ele><time>2026-04-11T05:45:11Z</time></trkpt><trkpt lat="43.48887030450242" lon="11.401781577515576"><ele>513.0</ele><time>2026-04-11T05:45:17Z</time></trkpt><trkpt lat="43.48886114379093" lon="11.401877798178415"><ele>513.0</ele><time>2026-04-11T05:45:20Z</time></trkpt><trkpt lat="43.48883859363018" lon="11.401978937002719"><ele>513.0</ele><time>2026-04-11T05:45:23Z</time></trkpt><trkpt lat="43.48881584596088" lon="11.402092733971639"><ele>513.0</ele><time>2026-04-11T05:45:26Z</time></trkpt><trkpt lat="43.48880003306857" lon="11.40220953228417"><ele>513.0</ele><time>2026-04-11T05:45:29Z</time></trkpt><trkpt lat="43.48877510388994" lon="11.402330112187226"><ele>513.0</ele><time>2026-04-11T05:45:32Z</time></trkpt><trkpt lat="43.48876429648208" lon="11.402565424363614"><ele>513.3333333333334</ele><time>2026-04-11T05:45:38Z</time></trkpt><trkpt lat="43.488755624291045" lon="11.402680492275195"><ele>513.6666666666666</ele><time>2026-04-11T05:45:41Z</time></trkpt><trkpt lat="43.48874469432127" lon="11.402798039996894"><ele>514.0</ele><time>2026-04-11T05:45:44Z</time></trkpt><trkpt lat="43.48874423837122" lon="11.402909259186824"><ele>514.3333333333333</ele><time>2026-04-11T05:45:47Z</time></trkpt><trkpt lat="43.48874228602645" lon="11.403022788861293"><ele>514.6666666666666</ele><time>2026-04-11T05:45:50Z</time></trkpt><trkpt lat="43.488743856713874" lon="11.40313152755649"><ele>515.0</ele><time>2026-04-11T05:45:53Z</time></trkpt><trkpt lat="43.488760024875255" lon="11.403354065561881"><ele>515.0</ele><time>2026-04-11T05:45:59Z</time></trkpt><trkpt lat="43.488766585285056" lon="11.403475332258639"><ele>515.0</ele><time>2026-04-11T05:46:02Z</time></trkpt><trkpt lat="43.48874563440142" lon="11.403597172372212"><ele>515.0</ele><time>2026-04-11T05:46:05Z</time></trkpt><trkpt lat="43.48872969197788" lon="11.403719687381846"><ele>515.0</ele><time>2026-04-11T05:46:08Z</time></trkpt><trkpt lat="43.488708503716055" lon="11.40380865036031"><ele>515.0</ele><time>2026-04-11T05:46:10Z</time></trkpt><trkpt lat="43.48868919012937" lon="11.403898075757803"><ele>515.0</ele><time>2026-04-11T05:46:12Z</time></trkpt><trkpt lat="43.48867988746336" lon="11.40399747856794"><ele>520.0</ele><time>2026-04-11T05:46:14Z</time></trkpt><trkpt lat="43.48868322389063" lon="11.404228208188874"><ele>525.0</ele><time>2026-04-11T05:46:19Z</time></trkpt><trkpt lat="43.488677044303195" lon="11.404338276857567"><ele>530.0</ele><time>2026-04-11T05:46:21Z</time></trkpt><trkpt lat="43.48869388736735" lon="11.40443497072135"><ele>535.0</ele><time>2026-04-11T05:46:23Z</time></trkpt><trkpt lat="43.4887157622739" lon="11.404521703030175"><ele>540.0</ele><time>2026-04-11T05:46:25Z</time></trkpt><trkpt lat="43.48875581721866" lon="11.404618311444171"><ele>537.2</ele><time>2026-04-11T05:46:27Z</time></trkpt><trkpt lat="43.488784000137706" lon="11.404739091344442"><ele>534.4</ele><time>2026-04-11T05:46:30Z</time></trkpt><trkpt lat="43.48882426628787" lon="11.404819127582028"><ele>531.6</ele><time>2026-04-11T05:46:32Z</time></trkpt><trkpt lat="43.48884423324327" lon="11.40490753787588"><ele>528.8</ele><time>2026-04-11T05:46:34Z</time></trkpt><trkpt lat="43.48888013628939" lon="11.405026817726341"><ele>526.0</ele><time>2026-04-11T05:46:37Z</time></trkpt><trkpt lat="43.48894637050901" lon="11.405188592180064"><ele>526.0</ele><time>2026-04-11T05:46:41Z</time></trkpt><trkpt lat="43.4889650469744" lon="11.405277058046913"><ele>526.0</ele><time>2026-04-11T05:46:43Z</time></trkpt><trkpt lat="43.48898175271221" lon="11.405364676408457"><ele>526.0</ele><time>2026-04-11T05:46:45Z</time></trkpt><trkpt lat="43.48899441201977" lon="11.405449711879198"><ele>526.0</ele><time>2026-04-11T05:46:47Z</time></trkpt><trkpt lat="43.48900018018004" lon="11.405538795689663"><ele>526.0</ele><time>2026-04-11T05:46:49Z</time></trkpt><trkpt lat="43.48901761279283" lon="11.405629831492892"><ele>526.0</ele><time>2026-04-11T05:46:51Z</time></trkpt><trkpt lat="43.48903685448947" lon="11.405722072819234"><ele>526.0</ele><time>2026-04-11T05:46:53Z</time></trkpt><trkpt lat="43.48905831872818" lon="11.40582103670347"><ele>527.6</ele><time>2026-04-11T05:46:55Z</time></trkpt><trkpt lat="43.489080946560165" lon="11.405928338253224"><ele>529.2</ele><time>2026-04-11T05:46:57Z</time></trkpt><trkpt lat="43.489101057503376" lon="11.406039026817966"><ele>530.8</ele><time>2026-04-11T05:46:59Z</time></trkpt><trkpt lat="43.48917761095259" lon="11.40625771700793"><ele>532.4</ele><time>2026-04-11T05:47:03Z</time></trkpt><trkpt lat="43.4892099858161" lon="11.406354986244091"><ele>534.0</ele><time>2026-04-11T05:47:05Z</time></trkpt><trkpt lat="43.489248996124815" lon="11.406436189764289"><ele>534.0000000000001</ele><time>2026-04-11T05:47:07Z</time></trkpt><trkpt lat="43.4892942482409" lon="11.4065061009679"><ele>534.0</ele><time>2026-04-11T05:47:09Z</time></trkpt><trkpt lat="43.48933724075087" lon="11.40658526118484"><ele>534.0</ele><time>2026-04-11T05:47:11Z</time></trkpt><trkpt lat="43.48938061696742" lon="11.406658305097048"><ele>534.0</ele><time>2026-04-11T05:47:13Z</time></trkpt><trkpt lat="43.48943252155231" lon="11.406727636370656"><ele>534.0</ele><time>2026-04-11T05:47:15Z</time></trkpt><trkpt lat="43.48947325461764" lon="11.406796269311146"><ele>534.0000000000001</ele><time>2026-04-11T05:47:17Z</time></trkpt><trkpt lat="43.489515557942944" lon="11.406860913796425"><ele>534.0</ele><time>2026-04-11T05:47:19Z</time></trkpt><trkpt lat="43.48958132060082" lon="11.406942441315447"><ele>534.2</ele><time>2026-04-11T05:47:22Z</time></trkpt><trkpt lat="43.48967242874784" lon="11.40711808552109"><ele>534.4</ele><time>2026-04-11T05:47:28Z</time></trkpt><trkpt lat="43.48971741118227" lon="11.407179667344963"><ele>534.6</ele><time>2026-04-11T05:47:30Z</time></trkpt><trkpt lat="43.48977037597032" lon="11.407276116013902"><ele>534.8</ele><time>2026-04-11T05:47:33Z</time></trkpt><trkpt lat="43.48983234715702" lon="11.407368379145204"><ele>535.0</ele><time>2026-04-11T05:47:36Z</time></trkpt><trkpt lat="43.489897215330565" lon="11.40746709428261"><ele>535.8333333333334</ele><time>2026-04-11T05:47:39Z</time></trkpt><trkpt lat="43.48992411271538" lon="11.40758463750157"><ele>536.6666666666667</ele><time>2026-04-11T05:47:42Z</time></trkpt><trkpt lat="43.48994642615784" lon="11.407669023835043"><ele>537.5</ele><time>2026-04-11T05:47:44Z</time></trkpt><trkpt lat="43.48996950613052" lon="11.40784637921402"><ele>538.3333333333334</ele><time>2026-04-11T05:47:48Z</time></trkpt><trkpt lat="43.48998261766632" lon="11.407931373906084"><ele>539.1666666666666</ele><time>2026-04-11T05:47:50Z</time></trkpt><trkpt lat="43.4899940705596" lon="11.408017623435"><ele>540.0</ele><time>2026-04-11T05:47:52Z</time></trkpt><trkpt lat="43.49000016763662" lon="11.408105444628227"><ele>540.4</ele><time>2026-04-11T05:47:54Z</time></trkpt><trkpt lat="43.490009138038104" lon="11.408228330284901"><ele>540.8</ele><time>2026-04-11T05:47:57Z</time></trkpt><trkpt lat="43.4900157559837" lon="11.408354390505774"><ele>541.2</ele><time>2026-04-11T05:48:00Z</time></trkpt><trkpt lat="43.49002194615576" lon="11.40847538699818"><ele>541.6</ele><time>2026-04-11T05:48:03Z</time></trkpt><trkpt lat="43.490029894323" lon="11.40859782275561"><ele>542.0</ele><time>2026-04-11T05:48:06Z</time></trkpt><trkpt lat="43.49003687788303" lon="11.40883953520306"><ele>542.6666666666666</ele><time>2026-04-11T05:48:12Z</time></trkpt><trkpt lat="43.490031179547024" lon="11.408964243808397"><ele>543.3333333333333</ele><time>2026-04-11T05:48:15Z</time></trkpt><trkpt lat="43.490029594290746" lon="11.409051608760645"><ele>544.0</ele><time>2026-04-11T05:48:17Z</time></trkpt><trkpt lat="43.49002485895276" lon="11.409148518327733"><ele>544.6666666666666</ele><time>2026-04-11T05:48:19Z</time></trkpt><trkpt lat="43.49001282664646" lon="11.409250593754315"><ele>545.3333333333334</ele><time>2026-04-11T05:48:21Z</time></trkpt><trkpt lat="43.49001057932122" lon="11.409364276255369"><ele>546.0</ele><time>2026-04-11T05:48:23Z</time></trkpt><trkpt lat="43.490002707138856" lon="11.409484458496536"><ele>546.0</ele><time>2026-04-11T05:48:25Z</time></trkpt><trkpt lat="43.48999326883577" lon="11.409606315527359"><ele>546.0</ele><time>2026-04-11T05:48:27Z</time></trkpt><trkpt lat="43.489970164054874" lon="11.409817840156546"><ele>546.0</ele><time>2026-04-11T05:48:31Z</time></trkpt><trkpt lat="43.48995724128657" lon="11.409925659937208"><ele>546.0</ele><time>2026-04-11T05:48:33Z</time></trkpt><trkpt lat="43.489928499305094" lon="11.410023498663882"><ele>546.0</ele><time>2026-04-11T05:48:35Z</time></trkpt><trkpt lat="43.48989888259523" lon="11.410109806944751"><ele>546.2857142857143</ele><time>2026-04-11T05:48:37Z</time></trkpt><trkpt lat="43.48987236814722" lon="11.41019748666814"><ele>546.5714285714286</ele><time>2026-04-11T05:48:39Z</time></trkpt><trkpt lat="43.48983564430031" lon="11.410279528063853"><ele>546.8571428571429</ele><time>2026-04-11T05:48:41Z</time></trkpt><trkpt lat="43.48979816328277" lon="11.410356650999159"><ele>547.1428571428571</ele><time>2026-04-11T05:48:43Z</time></trkpt><trkpt lat="43.48975001217874" lon="11.410431406670327"><ele>547.4285714285714</ele><time>2026-04-11T05:48:45Z</time></trkpt><trkpt lat="43.48971735698103" lon="11.41051065541706"><ele>547.7142857142858</ele><time>2026-04-11T05:48:47Z</time></trkpt><trkpt lat="43.48967214835032" lon="11.41058059485269"><ele>548.0</ele><time>2026-04-11T05:48:49Z</time></trkpt><trkpt lat="43.48958212646566" lon="11.410712009070446"><ele>548.1666666666666</ele><time>2026-04-11T05:48:53Z</time></trkpt><trkpt lat="43.48952769126171" lon="11.410801983985316"><ele>548.3333333333333</ele><time>2026-04-11T05:48:56Z</time></trkpt><trkpt lat="43.48948347615401" lon="11.410903532357029"><ele>548.5</ele><time>2026-04-11T05:48:59Z</time></trkpt><trkpt lat="43.489450313409215" lon="11.41101389320476"><ele>548.6666666666666</ele><time>2026-04-11T05:49:02Z</time></trkpt><trkpt lat="43.4894219338204" lon="11.411124972337134"><ele>548.8333333333334</ele><time>2026-04-11T05:49:05Z</time></trkpt><trkpt lat="43.489413800855466" lon="11.411232014456166"><ele>549.0</ele><time>2026-04-11T05:49:08Z</time></trkpt><trkpt lat="43.48942849842473" lon="11.41131764279287"><ele>549.6</ele><time>2026-04-11T05:49:10Z</time></trkpt><trkpt lat="43.48944515809876" lon="11.411549480902416"><ele>550.2</ele><time>2026-04-11T05:49:16Z</time></trkpt><trkpt lat="43.489488590341864" lon="11.411663340532755"><ele>550.8000000000001</ele><time>2026-04-11T05:49:19Z</time></trkpt><trkpt lat="43.48950899502356" lon="11.411747761847806"><ele>551.4</ele><time>2026-04-11T05:49:21Z</time></trkpt><trkpt lat="43.48953321473793" lon="11.411830380637964"><ele>552.0</ele><time>2026-04-11T05:49:23Z</time></trkpt><trkpt lat="43.489562471759385" lon="11.411909808340367"><ele>553.2</ele><time>2026-04-11T05:49:25Z</time></trkpt><trkpt lat="43.4896082741871" lon="11.411987307588172"><ele>554.4000000000001</ele><time>2026-04-11T05:49:27Z</time></trkpt><trkpt lat="43.48965385077184" lon="11.412071010037787"><ele>555.5999999999999</ele><time>2026-04-11T05:49:29Z</time></trkpt><trkpt lat="43.48972329408998" lon="11.412142375111323"><ele>556.8</ele><time>2026-04-11T05:49:31Z</time></trkpt><trkpt lat="43.48988107618665" lon="11.412298425660994"><ele>558.0</ele><time>2026-04-11T05:49:35Z</time></trkpt><trkpt lat="43.48997308267597" lon="11.41237854450281"><ele>558.0</ele><time>2026-04-11T05:49:37Z</time></trkpt><trkpt lat="43.490069800780006" lon="11.41248422150178"><ele>558.0</ele><time>2026-04-11T05:49:39Z</time></trkpt><trkpt lat="43.490119571927075" lon="11.412544217904538"><ele>558.0</ele><time>2026-04-11T05:49:40Z</time></trkpt><trkpt lat="43.490172902700415" lon="11.412605130881587"><ele>558.0</ele><time>2026-04-11T05:49:41Z</time></trkpt><trkpt lat="43.49023154117249" lon="11.412662713040778"><ele>558.0</ele><time>2026-04-11T05:49:42Z</time></trkpt><trkpt lat="43.49027706566054" lon="11.41272634575085"><ele>558.0</ele><time>2026-04-11T05:49:43Z</time></trkpt><trkpt lat="43.49033099729236" lon="11.412798951924904"><ele>558.0</ele><time>2026-04-11T05:49:44Z</time></trkpt><trkpt lat="43.49038051020201" lon="11.412879957258033"><ele>558.0</ele><time>2026-04-11T05:49:45Z</time></trkpt><trkpt lat="43.490430617900174" lon="11.412963804345097"><ele>558.0</ele><time>2026-04-11T05:49:46Z</time></trkpt><trkpt lat="43.49048926756474" lon="11.413061993600403"><ele>558.0</ele><time>2026-04-11T05:49:47Z</time></trkpt><trkpt lat="43.49053265371957" lon="11.413140421421764"><ele>558.0</ele><time>2026-04-11T05:49:48Z</time></trkpt><trkpt lat="43.490569560835134" lon="11.413233619905617"><ele>558.0</ele><time>2026-04-11T05:49:49Z</time></trkpt><trkpt lat="43.49059383663686" lon="11.413334877613893"><ele>557.0</ele><time>2026-04-11T05:49:50Z</time></trkpt><trkpt lat="43.4906053750444" lon="11.413438553146932"><ele>556.0</ele><time>2026-04-11T05:49:51Z</time></trkpt><trkpt lat="43.49062088846321" lon="11.41353917643044"><ele>555.0</ele><time>2026-04-11T05:49:52Z</time></trkpt><trkpt lat="43.49060804082493" lon="11.413742197090206"><ele>554.0</ele><time>2026-04-11T05:49:54Z</time></trkpt><trkpt lat="43.49058491142266" lon="11.41382542187562"><ele>553.0</ele><time>2026-04-11T05:49:55Z</time></trkpt><trkpt lat="43.49055525645132" lon="11.413983591564527"><ele>553.0</ele><time>2026-04-11T05:49:57Z</time></trkpt><trkpt lat="43.49052031121781" lon="11.414122513971565"><ele>553.0</ele><time>2026-04-11T05:49:59Z</time></trkpt><trkpt lat="43.49048671612653" lon="11.41425402901982"><ele>553.0</ele><time>2026-04-11T05:50:01Z</time></trkpt><trkpt lat="43.49046620508593" lon="11.414384367895265"><ele>553.0</ele><time>2026-04-11T05:50:03Z</time></trkpt><trkpt lat="43.49045301435684" lon="11.414491707780321"><ele>553.0</ele><time>2026-04-11T05:50:05Z</time></trkpt><trkpt lat="43.490431426800626" lon="11.414626163938312"><ele>553.25</ele><time>2026-04-11T05:50:07Z</time></trkpt><trkpt lat="43.49042962736555" lon="11.414753318351428"><ele>553.5</ele><time>2026-04-11T05:50:09Z</time></trkpt><trkpt lat="43.49039216360762" lon="11.414881950735946"><ele>553.75</ele><time>2026-04-11T05:50:11Z</time></trkpt><trkpt lat="43.49037207663539" lon="11.415012611470033"><ele>554.0</ele><time>2026-04-11T05:50:13Z</time></trkpt><trkpt lat="43.49033359530933" lon="11.415274640326633"><ele>554.0</ele><time>2026-04-11T05:50:17Z</time></trkpt><trkpt lat="43.49031156538793" lon="11.415409438454304"><ele>554.0</ele><time>2026-04-11T05:50:19Z</time></trkpt><trkpt lat="43.490284686689755" lon="11.415546458894648"><ele>554.0</ele><time>2026-04-11T05:50:21Z</time></trkpt><trkpt lat="43.49024387581687" lon="11.415672560036656"><ele>554.0</ele><time>2026-04-11T05:50:23Z</time></trkpt><trkpt lat="43.49022160278063" lon="11.41579894968952"><ele>554.0</ele><time>2026-04-11T05:50:25Z</time></trkpt><trkpt lat="43.49018124532072" lon="11.415916218109276"><ele>554.4</ele><time>2026-04-11T05:50:27Z</time></trkpt><trkpt lat="43.490168146302345" lon="11.416039937087406"><ele>554.8</ele><time>2026-04-11T05:50:29Z</time></trkpt><trkpt lat="43.49013759796146" lon="11.416158044749178"><ele>555.2</ele><time>2026-04-11T05:50:31Z</time></trkpt><trkpt lat="43.49011588622434" lon="11.416269089293282"><ele>555.6</ele><time>2026-04-11T05:50:33Z</time></trkpt><trkpt lat="43.490091325401096" lon="11.416381266547535"><ele>556.0</ele><time>2026-04-11T05:50:35Z</time></trkpt><trkpt lat="43.49006687889877" lon="11.416584476344125"><ele>556.8571428571429</ele><time>2026-04-11T05:50:39Z</time></trkpt><trkpt lat="43.490056870304606" lon="11.416677273511864"><ele>557.7142857142858</ele><time>2026-04-11T05:50:41Z</time></trkpt><trkpt lat="43.49006162104114" lon="11.416769779407064"><ele>558.5714285714287</ele><time>2026-04-11T05:50:43Z</time></trkpt><trkpt lat="43.490068458975614" lon="11.416858466454883"><ele>559.4285714285714</ele><time>2026-04-11T05:50:45Z</time></trkpt><trkpt lat="43.490086402069934" lon="11.416941955357947"><ele>560.2857142857143</ele><time>2026-04-11T05:50:47Z</time></trkpt><trkpt lat="43.49010665549542" lon="11.417030530432799"><ele>561.1428571428572</ele><time>2026-04-11T05:50:49Z</time></trkpt><trkpt lat="43.490120305408844" lon="11.417121816756287"><ele>562.0</ele><time>2026-04-11T05:50:51Z</time></trkpt><trkpt lat="43.49015016331518" lon="11.417210557132549"><ele>562.8000000000001</ele><time>2026-04-11T05:50:53Z</time></trkpt><trkpt lat="43.49017791887096" lon="11.417313624189273"><ele>563.6</ele><time>2026-04-11T05:50:56Z</time></trkpt><trkpt lat="43.4902326892164" lon="11.41752243578733"><ele>564.4000000000001</ele><time>2026-04-11T05:51:01Z</time></trkpt><trkpt lat="43.490264424227455" lon="11.41760729437965"><ele>565.2</ele><time>2026-04-11T05:51:03Z</time></trkpt><trkpt lat="43.49029150201686" lon="11.417699921021184"><ele>566.0</ele><time>2026-04-11T05:51:05Z</time></trkpt><trkpt lat="43.49033358288009" lon="11.417779900976251"><ele>566.0</ele><time>2026-04-11T05:51:07Z</time></trkpt><trkpt lat="43.4903881251283" lon="11.417856101521789"><ele>566.0</ele><time>2026-04-11T05:51:09Z</time></trkpt><trkpt lat="43.49045471221998" lon="11.417914744020276"><ele>566.0</ele><time>2026-04-11T05:51:11Z</time></trkpt><trkpt lat="43.49051709451124" lon="11.417963013480993"><ele>566.0</ele><time>2026-04-11T05:51:13Z</time></trkpt><trkpt lat="43.49057666967818" lon="11.418014256265332"><ele>566.0</ele><time>2026-04-11T05:51:15Z</time></trkpt><trkpt lat="43.49063943919791" lon="11.418057993310187"><ele>566.0</ele><time>2026-04-11T05:51:17Z</time></trkpt><trkpt lat="43.49077571148637" lon="11.41812621977878"><ele>566.4</ele><time>2026-04-11T05:51:21Z</time></trkpt><trkpt lat="43.490848612147445" lon="11.41817752114698"><ele>566.8</ele><time>2026-04-11T05:51:23Z</time></trkpt><trkpt lat="43.490911086029136" lon="11.418266280656745"><ele>567.1999999999999</ele><time>2026-04-11T05:51:25Z</time></trkpt><trkpt lat="43.49096054676427" lon="11.418366695441632"><ele>567.6</ele><time>2026-04-11T05:51:27Z</time></trkpt><trkpt lat="43.49098221241966" lon="11.418491394728852"><ele>568.0</ele><time>2026-04-11T05:51:29Z</time></trkpt><trkpt lat="43.49098146573845" lon="11.418628683410203"><ele>568.0</ele><time>2026-04-11T05:51:31Z</time></trkpt><trkpt lat="43.49095741648084" lon="11.418781533189552"><ele>568.0</ele><time>2026-04-11T05:51:33Z</time></trkpt><trkpt lat="43.49097964390924" lon="11.418941662843437"><ele>568.0</ele><time>2026-04-11T05:51:35Z</time></trkpt><trkpt lat="43.490993735879016" lon="11.419108042975665"><ele>568.0</ele><time>2026-04-11T05:51:37Z</time></trkpt><trkpt lat="43.491013671057395" lon="11.4191913968227"><ele>568.0</ele><time>2026-04-11T05:51:38Z</time></trkpt><trkpt lat="43.4910615945255" lon="11.419366603693884"><ele>567.1666666666667</ele><time>2026-04-11T05:51:40Z</time></trkpt><trkpt lat="43.491079999529155" lon="11.419458240886192"><ele>566.3333333333334</ele><time>2026-04-11T05:51:41Z</time></trkpt><trkpt lat="43.49110296158098" lon="11.419556767371358"><ele>565.5</ele><time>2026-04-11T05:51:42Z</time></trkpt><trkpt lat="43.49112858039322" lon="11.419658262793291"><ele>564.6666666666666</ele><time>2026-04-11T05:51:43Z</time></trkpt><trkpt lat="43.49114446919689" lon="11.41976576519741"><ele>563.8333333333333</ele><time>2026-04-11T05:51:44Z</time></trkpt><trkpt lat="43.49116164582124" lon="11.419877506733593"><ele>563.0</ele><time>2026-04-11T05:51:45Z</time></trkpt><trkpt lat="43.49117843480043" lon="11.419990527310363"><ele>562.5</ele><time>2026-04-11T05:51:46Z</time></trkpt><trkpt lat="43.4911942798319" lon="11.420111276602444"><ele>562.0</ele><time>2026-04-11T05:51:47Z</time></trkpt><trkpt lat="43.49121421450031" lon="11.420228090620125"><ele>561.5</ele><time>2026-04-11T05:51:48Z</time></trkpt><trkpt lat="43.491228003774445" lon="11.420342526399667"><ele>561.0</ele><time>2026-04-11T05:51:49Z</time></trkpt><trkpt lat="43.491250161693685" lon="11.42045903381151"><ele>560.5</ele><time>2026-04-11T05:51:50Z</time></trkpt><trkpt lat="43.49126385910629" lon="11.420565875733883"><ele>560.0</ele><time>2026-04-11T05:51:51Z</time></trkpt><trkpt lat="43.49127251852577" lon="11.420670509036897"><ele>560.0</ele><time>2026-04-11T05:51:52Z</time></trkpt><trkpt lat="43.49129530300572" lon="11.420765525428463"><ele>560.0</ele><time>2026-04-11T05:51:53Z</time></trkpt><trkpt lat="43.49131340698393" lon="11.420857410248377"><ele>560.0</ele><time>2026-04-11T05:51:54Z</time></trkpt><trkpt lat="43.49131143278998" lon="11.420944754156608"><ele>560.0</ele><time>2026-04-11T05:51:55Z</time></trkpt><trkpt lat="43.49127603149836" lon="11.421093215012798"><ele>560.0</ele><time>2026-04-11T05:51:57Z</time></trkpt><trkpt lat="43.49121686060275" lon="11.421151254330963"><ele>560.0</ele><time>2026-04-11T05:51:58Z</time></trkpt><trkpt lat="43.491126190593306" lon="11.42118114351052"><ele>560.0</ele><time>2026-04-11T05:52:00Z</time></trkpt><trkpt lat="43.49089096526903" lon="11.421249233836969"><ele>560.0</ele><time>2026-04-11T05:52:04Z</time></trkpt><trkpt lat="43.490772448512395" lon="11.42129597982283"><ele>560.0</ele><time>2026-04-11T05:52:06Z</time></trkpt><trkpt lat="43.4907034052092" lon="11.421297963395043"><ele>560.0</ele><time>2026-04-11T05:52:07Z</time></trkpt><trkpt lat="43.49063792848715" lon="11.421309251806136"><ele>561.1428571428571</ele><time>2026-04-11T05:52:08Z</time></trkpt><trkpt lat="43.49057035704885" lon="11.421320709054223"><ele>562.2857142857142</ele><time>2026-04-11T05:52:09Z</time></trkpt><trkpt lat="43.490507112985426" lon="11.421343655093594"><ele>563.4285714285714</ele><time>2026-04-11T05:52:10Z</time></trkpt><trkpt lat="43.49044593617432" lon="11.42136705402784"><ele>564.5714285714286</ele><time>2026-04-11T05:52:11Z</time></trkpt><trkpt lat="43.49037938633211" lon="11.42138616872203"><ele>565.7142857142857</ele><time>2026-04-11T05:52:12Z</time></trkpt><trkpt lat="43.490314770150825" lon="11.421407799090115"><ele>566.8571428571429</ele><time>2026-04-11T05:52:13Z</time></trkpt><trkpt lat="43.49025046841206" lon="11.421429368390985"><ele>568.0</ele><time>2026-04-11T05:52:14Z</time></trkpt><trkpt lat="43.49018482940649" lon="11.421446246844887"><ele>568.0</ele><time>2026-04-11T05:52:15Z</time></trkpt><trkpt lat="43.49012007930119" lon="11.421471216819283"><ele>568.0</ele><time>2026-04-11T05:52:16Z</time></trkpt><trkpt lat="43.49005604401372" lon="11.421504771509763"><ele>568.0</ele><time>2026-04-11T05:52:17Z</time></trkpt><trkpt lat="43.48998730186227" lon="11.421536804275016"><ele>568.0</ele><time>2026-04-11T05:52:18Z</time></trkpt><trkpt lat="43.48991110500544" lon="11.421567958086637"><ele>568.0</ele><time>2026-04-11T05:52:19Z</time></trkpt><trkpt lat="43.48983070883082" lon="11.421596037239807"><ele>568.0</ele><time>2026-04-11T05:52:20Z</time></trkpt><trkpt lat="43.489743258188554" lon="11.421624040315331"><ele>564.0</ele><time>2026-04-11T05:52:21Z</time></trkpt><trkpt lat="43.489549533846144" lon="11.421710322783815"><ele>560.0</ele><time>2026-04-11T05:52:23Z</time></trkpt><trkpt lat="43.48945165720782" lon="11.421778185636862"><ele>556.0</ele><time>2026-04-11T05:52:24Z</time></trkpt><trkpt lat="43.48936074903164" lon="11.421839194490975"><ele>552.0</ele><time>2026-04-11T05:52:25Z</time></trkpt><trkpt lat="43.48926869507318" lon="11.421885208044623"><ele>552.0</ele><time>2026-04-11T05:52:26Z</time></trkpt><trkpt lat="43.48917599099515" lon="11.421914368897014"><ele>552.0</ele><time>2026-04-11T05:52:27Z</time></trkpt><trkpt lat="43.48908641289649" lon="11.421912286181675"><ele>552.0</ele><time>2026-04-11T05:52:28Z</time></trkpt><trkpt lat="43.48900237863183" lon="11.421887541295156"><ele>552.0</ele><time>2026-04-11T05:52:29Z</time></trkpt><trkpt lat="43.48892207969052" lon="11.42188794839316"><ele>552.0</ele><time>2026-04-11T05:52:30Z</time></trkpt><trkpt lat="43.48884629333226" lon="11.421903878717437"><ele>552.0</ele><time>2026-04-11T05:52:31Z</time></trkpt><trkpt lat="43.48877394842391" lon="11.42192688968794"><ele>553.0</ele><time>2026-04-11T05:52:32Z</time></trkpt><trkpt lat="43.48870644110316" lon="11.421951486180635"><ele>554.0</ele><time>2026-04-11T05:52:33Z</time></trkpt><trkpt lat="43.488631464548256" lon="11.421985615724948"><ele>555.0</ele><time>2026-04-11T05:52:34Z</time></trkpt><trkpt lat="43.48855895455251" lon="11.422036044575052"><ele>556.0</ele><time>2026-04-11T05:52:35Z</time></trkpt><trkpt lat="43.48848790015203" lon="11.422097775966185"><ele>557.0</ele><time>2026-04-11T05:52:36Z</time></trkpt><trkpt lat="43.488422853859696" lon="11.42215662670044"><ele>558.0</ele><time>2026-04-11T05:52:37Z</time></trkpt><trkpt lat="43.48836736914326" lon="11.42223753769788"><ele>558.0</ele><time>2026-04-11T05:52:38Z</time></trkpt><trkpt lat="43.48832683623959" lon="11.422347670768843"><ele>558.0</ele><time>2026-04-11T05:52:39Z</time></trkpt><trkpt lat="43.48829798954551" lon="11.422467997328614"><ele>558.0</ele><time>2026-04-11T05:52:40Z</time></trkpt><trkpt lat="43.488276580317375" lon="11.422590205312503"><ele>558.0</ele><time>2026-04-11T05:52:41Z</time></trkpt><trkpt lat="43.48826114906345" lon="11.422696550863117"><ele>558.0</ele><time>2026-04-11T05:52:42Z</time></trkpt><trkpt lat="43.48812501646579" lon="11.422821318790485"><ele>558.0</ele><time>2026-04-11T05:52:45Z</time></trkpt><trkpt lat="43.48804902550861" lon="11.42277973493253"><ele>558.0</ele><time>2026-04-11T05:52:46Z</time></trkpt><trkpt lat="43.48799551787864" lon="11.422730610957743"><ele>558.0</ele><time>2026-04-11T05:52:47Z</time></trkpt><trkpt lat="43.4879390958277" lon="11.422683837315198"><ele>558.0</ele><time>2026-04-11T05:52:48Z</time></trkpt><trkpt lat="43.48787845251418" lon="11.422585538569429"><ele>558.0</ele><time>2026-04-11T05:52:50Z</time></trkpt><trkpt lat="43.48780730571455" lon="11.422508920843102"><ele>558.0</ele><time>2026-04-11T05:52:52Z</time></trkpt><trkpt lat="43.48772204341266" lon="11.42244203094527"><ele>557.3333333333334</ele><time>2026-04-11T05:52:54Z</time></trkpt><trkpt lat="43.487622977433205" lon="11.422357404866883"><ele>556.6666666666666</ele><time>2026-04-11T05:52:56Z</time></trkpt><trkpt lat="43.48756524332058" lon="11.422310012010213"><ele>556.0</ele><time>2026-04-11T05:52:57Z</time></trkpt><trkpt lat="43.487508654113064" lon="11.42226468346175"><ele>555.3333333333333</ele><time>2026-04-11T05:52:58Z</time></trkpt><trkpt lat="43.487445177151315" lon="11.422211101922567"><ele>554.6666666666666</ele><time>2026-04-11T05:52:59Z</time></trkpt><trkpt lat="43.48738641062273" lon="11.422147622881194"><ele>554.0</ele><time>2026-04-11T05:53:00Z</time></trkpt><trkpt lat="43.48731260373226" lon="11.422074690511375"><ele>551.8</ele><time>2026-04-11T05:53:01Z</time></trkpt><trkpt lat="43.487250331501386" lon="11.422005809045624"><ele>549.5999999999999</ele><time>2026-04-11T05:53:02Z</time></trkpt><trkpt lat="43.48719000021697" lon="11.421933363643618"><ele>547.4</ele><time>2026-04-11T05:53:03Z</time></trkpt><trkpt lat="43.4870944607494" lon="11.421760744179188"><ele>545.1999999999999</ele><time>2026-04-11T05:53:05Z</time></trkpt><trkpt lat="43.48704674759354" lon="11.421673769137673"><ele>543.0</ele><time>2026-04-11T05:53:06Z</time></trkpt><trkpt lat="43.48700274945985" lon="11.421587195789389"><ele>543.0</ele><time>2026-04-11T05:53:07Z</time></trkpt><trkpt lat="43.486956036653005" lon="11.421497960215913"><ele>543.0</ele><time>2026-04-11T05:53:08Z</time></trkpt><trkpt lat="43.48691076184715" lon="11.421402295284532"><ele>543.0</ele><time>2026-04-11T05:53:09Z</time></trkpt><trkpt lat="43.486862172299" lon="11.421315170064657"><ele>543.0</ele><time>2026-04-11T05:53:10Z</time></trkpt><trkpt lat="43.486812413060036" lon="11.421219407563049"><ele>543.0</ele><time>2026-04-11T05:53:11Z</time></trkpt><trkpt lat="43.48676713569828" lon="11.421129599183487"><ele>543.0</ele><time>2026-04-11T05:53:12Z</time></trkpt><trkpt lat="43.48671611979923" lon="11.421038400627522"><ele>542.8333333333334</ele><time>2026-04-11T05:53:13Z</time></trkpt><trkpt lat="43.486667695311546" lon="11.420948610697593"><ele>542.6666666666666</ele><time>2026-04-11T05:53:14Z</time></trkpt><trkpt lat="43.48661975588342" lon="11.420857899148555"><ele>542.5</ele><time>2026-04-11T05:53:15Z</time></trkpt><trkpt lat="43.486566035362195" lon="11.420772750280406"><ele>542.3333333333333</ele><time>2026-04-11T05:53:16Z</time></trkpt><trkpt lat="43.486513632902316" lon="11.42069376050746"><ele>542.1666666666666</ele><time>2026-04-11T05:53:17Z</time></trkpt><trkpt lat="43.486457888900496" lon="11.42061769311615"><ele>542.0</ele><time>2026-04-11T05:53:18Z</time></trkpt><trkpt lat="43.48639945301617" lon="11.420549247962096"><ele>542.0</ele><time>2026-04-11T05:53:19Z</time></trkpt><trkpt lat="43.48634122966618" lon="11.420488950892087"><ele>542.0</ele><time>2026-04-11T05:53:20Z</time></trkpt><trkpt lat="43.486282785553314" lon="11.420436583440667"><ele>542.0</ele><time>2026-04-11T05:53:21Z</time></trkpt><trkpt lat="43.48622368018752" lon="11.420385953356075"><ele>542.0</ele><time>2026-04-11T05:53:22Z</time></trkpt><trkpt lat="43.486165824855874" lon="11.42034461749385"><ele>542.0</ele><time>2026-04-11T05:53:23Z</time></trkpt><trkpt lat="43.48605642379444" lon="11.420270644714293"><ele>542.0</ele><time>2026-04-11T05:53:25Z</time></trkpt><trkpt lat="43.48584521437228" lon="11.420142304587946"><ele>543.0</ele><time>2026-04-11T05:53:29Z</time></trkpt><trkpt lat="43.48574728848455" lon="11.420086164441676"><ele>544.0</ele><time>2026-04-11T05:53:31Z</time></trkpt><trkpt lat="43.48565278005226" lon="11.420031980406248"><ele>545.0</ele><time>2026-04-11T05:53:33Z</time></trkpt><trkpt lat="43.48554968050616" lon="11.4199839291275"><ele>546.0</ele><time>2026-04-11T05:53:35Z</time></trkpt><trkpt lat="43.48545091280844" lon="11.419930980571003"><ele>547.0</ele><time>2026-04-11T05:53:37Z</time></trkpt><trkpt lat="43.48535524502211" lon="11.41987188303333"><ele>546.8000000000001</ele><time>2026-04-11T05:53:39Z</time></trkpt><trkpt lat="43.48526424929264" lon="11.419815599953592"><ele>546.6</ele><time>2026-04-11T05:53:41Z</time></trkpt><trkpt lat="43.48517884784443" lon="11.419765651410938"><ele>546.4000000000001</ele><time>2026-04-11T05:53:43Z</time></trkpt><trkpt lat="43.485097957748025" lon="11.419721820554253"><ele>546.2</ele><time>2026-04-11T05:53:45Z</time></trkpt><trkpt lat="43.48501435485572" lon="11.4196763237236"><ele>546.0</ele><time>2026-04-11T05:53:47Z</time></trkpt><trkpt lat="43.48484217387701" lon="11.419573714085738"><ele>546.0</ele><time>2026-04-11T05:53:51Z</time></trkpt><trkpt lat="43.48476529520919" lon="11.419534461906121"><ele>546.0</ele><time>2026-04-11T05:53:53Z</time></trkpt><trkpt lat="43.48468614717499" lon="11.419489705289854"><ele>546.0</ele><time>2026-04-11T05:53:55Z</time></trkpt><trkpt lat="43.48460059800812" lon="11.419450687676171"><ele>546.0</ele><time>2026-04-11T05:53:57Z</time></trkpt><trkpt lat="43.48451686436954" lon="11.419428017291988"><ele>546.0</ele><time>2026-04-11T05:53:59Z</time></trkpt><trkpt lat="43.48442905350105" lon="11.419415630253114"><ele>546.0</ele><time>2026-04-11T05:54:01Z</time></trkpt><trkpt lat="43.48433816721457" lon="11.419419154362974"><ele>546.5</ele><time>2026-04-11T05:54:03Z</time></trkpt><trkpt lat="43.484235253601035" lon="11.419438170878756"><ele>547.0</ele><time>2026-04-11T05:54:05Z</time></trkpt><trkpt lat="43.48412455499262" lon="11.419484657580153"><ele>547.5</ele><time>2026-04-11T05:54:07Z</time></trkpt><trkpt lat="43.48400288590943" lon="11.419551906243006"><ele>548.0</ele><time>2026-04-11T05:54:09Z</time></trkpt><trkpt lat="43.48387535325401" lon="11.41962034707562"><ele>547.5</ele><time>2026-04-11T05:54:11Z</time></trkpt><trkpt lat="43.48380765074219" lon="11.419665580138933"><ele>547.0</ele><time>2026-04-11T05:54:12Z</time></trkpt><trkpt lat="43.48373800989274" lon="11.419706888728781"><ele>546.5</ele><time>2026-04-11T05:54:13Z</time></trkpt><trkpt lat="43.483664834670876" lon="11.419752885951102"><ele>546.0</ele><time>2026-04-11T05:54:14Z</time></trkpt><trkpt lat="43.483597618703115" lon="11.419796790332528"><ele>545.5</ele><time>2026-04-11T05:54:15Z</time></trkpt><trkpt lat="43.48352882588567" lon="11.419842574444775"><ele>545.0</ele><time>2026-04-11T05:54:16Z</time></trkpt><trkpt lat="43.48345813665731" lon="11.41988896793192"><ele>545.0</ele><time>2026-04-11T05:54:17Z</time></trkpt><trkpt lat="43.483388462230806" lon="11.419930260940381"><ele>545.0</ele><time>2026-04-11T05:54:18Z</time></trkpt><trkpt lat="43.483319064947025" lon="11.419977370674935"><ele>545.0</ele><time>2026-04-11T05:54:19Z</time></trkpt><trkpt lat="43.483248618214276" lon="11.420016387043585"><ele>545.0</ele><time>2026-04-11T05:54:20Z</time></trkpt><trkpt lat="43.483180846675275" lon="11.420061200994539"><ele>545.0</ele><time>2026-04-11T05:54:21Z</time></trkpt><trkpt lat="43.48311302532304" lon="11.420106499059056"><ele>545.0</ele><time>2026-04-11T05:54:22Z</time></trkpt><trkpt lat="43.48304436457242" lon="11.420151428863546"><ele>545.0</ele><time>2026-04-11T05:54:23Z</time></trkpt><trkpt lat="43.482978360579864" lon="11.420196561299885"><ele>545.0</ele><time>2026-04-11T05:54:24Z</time></trkpt><trkpt lat="43.48291557315643" lon="11.420245565481734"><ele>545.0</ele><time>2026-04-11T05:54:25Z</time></trkpt><trkpt lat="43.48284890119711" lon="11.42028634505298"><ele>545.0</ele><time>2026-04-11T05:54:26Z</time></trkpt><trkpt lat="43.48278366407703" lon="11.420322992654812"><ele>545.0</ele><time>2026-04-11T05:54:27Z</time></trkpt><trkpt lat="43.482718391638635" lon="11.420370352839539"><ele>545.0</ele><time>2026-04-11T05:54:28Z</time></trkpt><trkpt lat="43.482651933114525" lon="11.420411930006331"><ele>545.0</ele><time>2026-04-11T05:54:29Z</time></trkpt><trkpt lat="43.48258695463586" lon="11.420459264330924"><ele>544.8</ele><time>2026-04-11T05:54:30Z</time></trkpt><trkpt lat="43.48245173882747" lon="11.420558961144529"><ele>544.6</ele><time>2026-04-11T05:54:32Z</time></trkpt><trkpt lat="43.482384130583306" lon="11.420608623787162"><ele>544.4</ele><time>2026-04-11T05:54:33Z</time></trkpt><trkpt lat="43.48231672287921" lon="11.420659313401186"><ele>544.2</ele><time>2026-04-11T05:54:34Z</time></trkpt><trkpt lat="43.482247191144275" lon="11.420710308732778"><ele>544.0</ele><time>2026-04-11T05:54:35Z</time></trkpt><trkpt lat="43.4821783253503" lon="11.420763292635401"><ele>544.0</ele><time>2026-04-11T05:54:36Z</time></trkpt><trkpt lat="43.48210820978898" lon="11.42081909621668"><ele>544.0</ele><time>2026-04-11T05:54:37Z</time></trkpt><trkpt lat="43.482036719280785" lon="11.420871978445652"><ele>544.0</ele><time>2026-04-11T05:54:38Z</time></trkpt><trkpt lat="43.48196503906751" lon="11.420925738524083"><ele>544.0</ele><time>2026-04-11T05:54:39Z</time></trkpt><trkpt lat="43.48189243256001" lon="11.420981000794487"><ele>544.0</ele><time>2026-04-11T05:54:40Z</time></trkpt><trkpt lat="43.481820374558296" lon="11.421037692513783"><ele>544.0</ele><time>2026-04-11T05:54:41Z</time></trkpt><trkpt lat="43.481746469534485" lon="11.421090968699646"><ele>542.8333333333334</ele><time>2026-04-11T05:54:42Z</time></trkpt><trkpt lat="43.481673802562334" lon="11.421144414070502"><ele>541.6666666666667</ele><time>2026-04-11T05:54:43Z</time></trkpt><trkpt lat="43.4815997869388" lon="11.421204744722347"><ele>540.5</ele><time>2026-04-11T05:54:44Z</time></trkpt><trkpt lat="43.481528342315265" lon="11.421262743944109"><ele>539.3333333333334</ele><time>2026-04-11T05:54:45Z</time></trkpt><trkpt lat="43.48145598154905" lon="11.421315788209716"><ele>538.1666666666666</ele><time>2026-04-11T05:54:46Z</time></trkpt><trkpt lat="43.481381831755606" lon="11.421370610915963"><ele>537.0</ele><time>2026-04-11T05:54:47Z</time></trkpt><trkpt lat="43.48131453313218" lon="11.421424154094638"><ele>537.1666666666666</ele><time>2026-04-11T05:54:48Z</time></trkpt><trkpt lat="43.48125125013687" lon="11.42148334563548"><ele>537.3333333333334</ele><time>2026-04-11T05:54:49Z</time></trkpt><trkpt lat="43.48119271222088" lon="11.421543673386623"><ele>537.5</ele><time>2026-04-11T05:54:50Z</time></trkpt><trkpt lat="43.48113166678124" lon="11.421598523150948"><ele>537.6666666666667</ele><time>2026-04-11T05:54:51Z</time></trkpt><trkpt lat="43.481008735194465" lon="11.421698142572744"><ele>537.8333333333334</ele><time>2026-04-11T05:54:53Z</time></trkpt><trkpt lat="43.480946390873946" lon="11.42174582254392"><ele>538.0</ele><time>2026-04-11T05:54:54Z</time></trkpt><trkpt lat="43.48088288476009" lon="11.421797737542974"><ele>538.0</ele><time>2026-04-11T05:54:55Z</time></trkpt><trkpt lat="43.48082028591531" lon="11.42185246131439"><ele>538.0</ele><time>2026-04-11T05:54:56Z</time></trkpt><trkpt lat="43.48075316771052" lon="11.421905933996232"><ele>538.0</ele><time>2026-04-11T05:54:57Z</time></trkpt><trkpt lat="43.48068556101106" lon="11.421962479722838"><ele>538.0</ele><time>2026-04-11T05:54:58Z</time></trkpt><trkpt lat="43.48061153604505" lon="11.422014963416494"><ele>538.0</ele><time>2026-04-11T05:54:59Z</time></trkpt><trkpt lat="43.480535710463286" lon="11.422062644771069"><ele>538.0</ele><time>2026-04-11T05:55:00Z</time></trkpt><trkpt lat="43.48046317004653" lon="11.422110029886118"><ele>537.1666666666667</ele><time>2026-04-11T05:55:01Z</time></trkpt><trkpt lat="43.480394946741924" lon="11.42216034046761"><ele>536.3333333333334</ele><time>2026-04-11T05:55:02Z</time></trkpt><trkpt lat="43.48032673703338" lon="11.422214477645177"><ele>535.5</ele><time>2026-04-11T05:55:03Z</time></trkpt><trkpt lat="43.48025734402369" lon="11.422267400388717"><ele>534.6666666666666</ele><time>2026-04-11T05:55:04Z</time></trkpt><trkpt lat="43.4802049649523" lon="11.422338324627356"><ele>533.8333333333333</ele><time>2026-04-11T05:55:05Z</time></trkpt><trkpt lat="43.48014012283226" lon="11.422400039139587"><ele>533.0</ele><time>2026-04-11T05:55:06Z</time></trkpt><trkpt lat="43.48007747567315" lon="11.42245879993229"><ele>533.0</ele><time>2026-04-11T05:55:07Z</time></trkpt><trkpt lat="43.48002311827954" lon="11.42252903173656"><ele>533.0</ele><time>2026-04-11T05:55:08Z</time></trkpt><trkpt lat="43.47996629534941" lon="11.422592142211311"><ele>533.0</ele><time>2026-04-11T05:55:09Z</time></trkpt><trkpt lat="43.47990663267312" lon="11.422651717686534"><ele>533.0</ele><time>2026-04-11T05:55:10Z</time></trkpt><trkpt lat="43.47985333417458" lon="11.422722198256686"><ele>533.0</ele><time>2026-04-11T05:55:11Z</time></trkpt><trkpt lat="43.479796499433114" lon="11.422786582254059"><ele>533.0</ele><time>2026-04-11T05:55:12Z</time></trkpt><trkpt lat="43.47968206371085" lon="11.42291669181252"><ele>533.1428571428571</ele><time>2026-04-11T05:55:14Z</time></trkpt><trkpt lat="43.47962697076409" lon="11.422981903423144"><ele>533.2857142857142</ele><time>2026-04-11T05:55:15Z</time></trkpt><trkpt lat="43.479564570624774" lon="11.423041044332365"><ele>533.4285714285714</ele><time>2026-04-11T05:55:16Z</time></trkpt><trkpt lat="43.47952274942197" lon="11.423118612251928"><ele>533.5714285714286</ele><time>2026-04-11T05:55:17Z</time></trkpt><trkpt lat="43.479479558202655" lon="11.423192998318328"><ele>533.7142857142858</ele><time>2026-04-11T05:55:18Z</time></trkpt><trkpt lat="43.47944155386467" lon="11.42327559696563"><ele>533.8571428571429</ele><time>2026-04-11T05:55:19Z</time></trkpt><trkpt lat="43.47940824982462" lon="11.423349525276022"><ele>534.0</ele><time>2026-04-11T05:55:20Z</time></trkpt><trkpt lat="43.47937198408163" lon="11.42342325281673"><ele>534.0</ele><time>2026-04-11T05:55:21Z</time></trkpt><trkpt lat="43.47929867517245" lon="11.423553624077249"><ele>534.0</ele><time>2026-04-11T05:55:23Z</time></trkpt><trkpt lat="43.479226585063685" lon="11.423682028051319"><ele>534.0</ele><time>2026-04-11T05:55:25Z</time></trkpt><trkpt lat="43.47914168615282" lon="11.423820803918595"><ele>534.0</ele><time>2026-04-11T05:55:27Z</time></trkpt><trkpt lat="43.47909165218584" lon="11.423897596926594"><ele>534.0</ele><time>2026-04-11T05:55:28Z</time></trkpt><trkpt lat="43.479047796685904" lon="11.423971353945996"><ele>533.0</ele><time>2026-04-11T05:55:29Z</time></trkpt><trkpt lat="43.47900110225611" lon="11.42403900545222"><ele>532.0</ele><time>2026-04-11T05:55:30Z</time></trkpt><trkpt lat="43.478946887497166" lon="11.42409675467812"><ele>531.0</ele><time>2026-04-11T05:55:31Z</time></trkpt><trkpt lat="43.47888890734365" lon="11.424154494032923"><ele>530.0</ele><time>2026-04-11T05:55:32Z</time></trkpt><trkpt lat="43.47883258329363" lon="11.424206903807196"><ele>529.0</ele><time>2026-04-11T05:55:33Z</time></trkpt><trkpt lat="43.47871281046388" lon="11.424292638120068"><ele>528.0</ele><time>2026-04-11T05:55:35Z</time></trkpt><trkpt lat="43.478646118110454" lon="11.424333601063976"><ele>527.0</ele><time>2026-04-11T05:55:36Z</time></trkpt><trkpt lat="43.47858272800925" lon="11.424366742423254"><ele>526.0</ele><time>2026-04-11T05:55:37Z</time></trkpt><trkpt lat="43.47851197071887" lon="11.424413942740955"><ele>525.0</ele><time>2026-04-11T05:55:38Z</time></trkpt><trkpt lat="43.478446585338986" lon="11.424449701283631"><ele>524.0</ele><time>2026-04-11T05:55:39Z</time></trkpt><trkpt lat="43.47838399655424" lon="11.424502302215588"><ele>523.0</ele><time>2026-04-11T05:55:40Z</time></trkpt><trkpt lat="43.47827611878874" lon="11.424566034087011"><ele>522.0</ele><time>2026-04-11T05:55:42Z</time></trkpt><trkpt lat="43.478178791739104" lon="11.424636494969688"><ele>522.0</ele><time>2026-04-11T05:55:44Z</time></trkpt><trkpt lat="43.478098032814636" lon="11.424693798833017"><ele>522.0</ele><time>2026-04-11T05:55:46Z</time></trkpt><trkpt lat="43.47802429668736" lon="11.424674773436076"><ele>522.0</ele><time>2026-04-11T05:55:48Z</time></trkpt><trkpt lat="43.4779457236635" lon="11.424601149481935"><ele>522.0</ele><time>2026-04-11T05:55:50Z</time></trkpt><trkpt lat="43.477877769390524" lon="11.424476881494702"><ele>522.0</ele><time>2026-04-11T05:55:52Z</time></trkpt><trkpt lat="43.4778440566019" lon="11.424402505649184"><ele>522.0</ele><time>2026-04-11T05:55:53Z</time></trkpt><trkpt lat="43.47780426696703" lon="11.42433148743092"><ele>519.2</ele><time>2026-04-11T05:55:54Z</time></trkpt><trkpt lat="43.477704630177534" lon="11.424170709444684"><ele>516.4000000000001</ele><time>2026-04-11T05:55:56Z</time></trkpt><trkpt lat="43.47764506300484" lon="11.424086897370206"><ele>513.5999999999999</ele><time>2026-04-11T05:55:57Z</time></trkpt><trkpt lat="43.47758230082944" lon="11.424003085823827"><ele>510.79999999999995</ele><time>2026-04-11T05:55:58Z</time></trkpt><trkpt lat="43.47751972099033" lon="11.423901557019596"><ele>508.0</ele><time>2026-04-11T05:55:59Z</time></trkpt><trkpt lat="43.47745115607297" lon="11.423804403237407"><ele>508.0</ele><time>2026-04-11T05:56:00Z</time></trkpt><trkpt lat="43.47738066154553" lon="11.423710948318744"><ele>507.99999999999994</ele><time>2026-04-11T05:56:01Z</time></trkpt><trkpt lat="43.47731426252021" lon="11.42360833483156"><ele>507.99999999999994</ele><time>2026-04-11T05:56:02Z</time></trkpt><trkpt lat="43.47724250977348" lon="11.42351305436946"><ele>508.0</ele><time>2026-04-11T05:56:03Z</time></trkpt><trkpt lat="43.47718037642698" lon="11.423417875839016"><ele>508.0</ele><time>2026-04-11T05:56:04Z</time></trkpt><trkpt lat="43.47711587458496" lon="11.423333469708354"><ele>507.59999999999997</ele><time>2026-04-11T05:56:05Z</time></trkpt><trkpt lat="43.47705737171707" lon="11.423252635289266"><ele>507.19999999999993</ele><time>2026-04-11T05:56:06Z</time></trkpt><trkpt lat="43.47700494554908" lon="11.423182192762052"><ele>506.8</ele><time>2026-04-11T05:56:07Z</time></trkpt><trkpt lat="43.47695775497666" lon="11.423117730988189"><ele>506.4</ele><time>2026-04-11T05:56:08Z</time></trkpt><trkpt lat="43.47686146879813" lon="11.423005522256027"><ele>506.0</ele><time>2026-04-11T05:56:10Z</time></trkpt><trkpt lat="43.47676790140192" lon="11.42291037146811"><ele>505.5</ele><time>2026-04-11T05:56:12Z</time></trkpt><trkpt lat="43.47666489789959" lon="11.422833129050115"><ele>505.0</ele><time>2026-04-11T05:56:14Z</time></trkpt><trkpt lat="43.4765538686135" lon="11.422762384290454"><ele>504.5</ele><time>2026-04-11T05:56:16Z</time></trkpt><trkpt lat="43.47642090671324" lon="11.422695935617039"><ele>504.0</ele><time>2026-04-11T05:56:18Z</time></trkpt><trkpt lat="43.47635131052192" lon="11.422655809998746"><ele>504.0</ele><time>2026-04-11T05:56:19Z</time></trkpt><trkpt lat="43.47627654214785" lon="11.422619480059398"><ele>504.0</ele><time>2026-04-11T05:56:20Z</time></trkpt><trkpt lat="43.476204772623014" lon="11.422572695000788"><ele>504.0</ele><time>2026-04-11T05:56:21Z</time></trkpt><trkpt lat="43.476130323719644" lon="11.422523041797035"><ele>504.0</ele><time>2026-04-11T05:56:22Z</time></trkpt><trkpt lat="43.476061255804396" lon="11.422479927916319"><ele>504.0</ele><time>2026-04-11T05:56:23Z</time></trkpt><trkpt lat="43.47599383862903" lon="11.422432103195353"><ele>504.0</ele><time>2026-04-11T05:56:24Z</time></trkpt><trkpt lat="43.47592453330772" lon="11.422397127002466"><ele>504.3333333333333</ele><time>2026-04-11T05:56:25Z</time></trkpt><trkpt lat="43.47585835683669" lon="11.422373259580326"><ele>504.66666666666663</ele><time>2026-04-11T05:56:26Z</time></trkpt><trkpt lat="43.47579579317031" lon="11.422348580282886"><ele>505.0</ele><time>2026-04-11T05:56:27Z</time></trkpt><trkpt lat="43.47573221854599" lon="11.422333568802873"><ele>505.3333333333333</ele><time>2026-04-11T05:56:28Z</time></trkpt><trkpt lat="43.47562265977163" lon="11.422322645706164"><ele>505.66666666666663</ele><time>2026-04-11T05:56:30Z</time></trkpt><trkpt lat="43.4755278587037" lon="11.422341671962977"><ele>506.0</ele><time>2026-04-11T05:56:32Z</time></trkpt><trkpt lat="43.47544824155783" lon="11.422358926218195"><ele>507.8333333333333</ele><time>2026-04-11T05:56:34Z</time></trkpt><trkpt lat="43.47538601818018" lon="11.422388333978022"><ele>509.66666666666663</ele><time>2026-04-11T05:56:36Z</time></trkpt><trkpt lat="43.475329016497454" lon="11.422434993524984"><ele>511.5</ele><time>2026-04-11T05:56:38Z</time></trkpt><trkpt lat="43.47519045106685" lon="11.422510373574474"><ele>513.3333333333334</ele><time>2026-04-11T05:56:44Z</time></trkpt><trkpt lat="43.475129162203444" lon="11.42254489120682"><ele>515.1666666666667</ele><time>2026-04-11T05:56:47Z</time></trkpt><trkpt lat="43.475062240847386" lon="11.422582608144982"><ele>517.0</ele><time>2026-04-11T05:56:51Z</time></trkpt><trkpt lat="43.474986982553055" lon="11.422606387509559"><ele>517.0</ele><time>2026-04-11T05:56:55Z</time></trkpt><trkpt lat="43.47491253462113" lon="11.422612003339307"><ele>517.0</ele><time>2026-04-11T05:56:59Z</time></trkpt><trkpt lat="43.474765705146005" lon="11.422605301380838"><ele>517.0</ele><time>2026-04-11T05:57:06Z</time></trkpt><trkpt lat="43.474703065325755" lon="11.422582243252794"><ele>517.0</ele><time>2026-04-11T05:57:09Z</time></trkpt><trkpt lat="43.47463586838191" lon="11.422579012469418"><ele>517.0</ele><time>2026-04-11T05:57:12Z</time></trkpt><trkpt lat="43.47456962942043" lon="11.422552210138253"><ele>517.0</ele><time>2026-04-11T05:57:15Z</time></trkpt><trkpt lat="43.47449682084261" lon="11.422508142070376"><ele>517.6</ele><time>2026-04-11T05:57:18Z</time></trkpt><trkpt lat="43.474412862305144" lon="11.422484487451072"><ele>518.2</ele><time>2026-04-11T05:57:21Z</time></trkpt><trkpt lat="43.474252535398804" lon="11.422438547648621"><ele>518.8</ele><time>2026-04-11T05:57:26Z</time></trkpt><trkpt lat="43.47418928913219" lon="11.422417708124303"><ele>519.4</ele><time>2026-04-11T05:57:28Z</time></trkpt><trkpt lat="43.47411679524041" lon="11.422397827674873"><ele>520.0</ele><time>2026-04-11T05:57:30Z</time></trkpt><trkpt lat="43.474037307547086" lon="11.422388639240525"><ele>520.0</ele><time>2026-04-11T05:57:32Z</time></trkpt><trkpt lat="43.47395395851543" lon="11.422399250671479"><ele>520.0</ele><time>2026-04-11T05:57:34Z</time></trkpt><trkpt lat="43.47386392099264" lon="11.422376421348055"><ele>520.0</ele><time>2026-04-11T05:57:36Z</time></trkpt><trkpt lat="43.47376671346749" lon="11.422345013331672"><ele>520.0</ele><time>2026-04-11T05:57:38Z</time></trkpt><trkpt lat="43.47367146608704" lon="11.422316998166211"><ele>520.0</ele><time>2026-04-11T05:57:40Z</time></trkpt><trkpt lat="43.473564093443095" lon="11.422288512048736"><ele>519.6</ele><time>2026-04-11T05:57:42Z</time></trkpt><trkpt lat="43.47338283397541" lon="11.422212116946257"><ele>519.2</ele><time>2026-04-11T05:57:45Z</time></trkpt><trkpt lat="43.47331725257061" lon="11.422178077258781"><ele>518.8</ele><time>2026-04-11T05:57:46Z</time></trkpt><trkpt lat="43.47324644979978" lon="11.42213763753055"><ele>518.4</ele><time>2026-04-11T05:57:47Z</time></trkpt><trkpt lat="43.473178883138786" lon="11.422100975692658"><ele>518.0</ele><time>2026-04-11T05:57:48Z</time></trkpt><trkpt lat="43.47311256788061" lon="11.42205442118127"><ele>517.8571428571429</ele><time>2026-04-11T05:57:49Z</time></trkpt><trkpt lat="43.47305346899704" lon="11.42201549747244"><ele>517.7142857142858</ele><time>2026-04-11T05:57:50Z</time></trkpt><trkpt lat="43.472995201801176" lon="11.42194188332944"><ele>517.5714285714286</ele><time>2026-04-11T05:57:51Z</time></trkpt><trkpt lat="43.47292847890017" lon="11.42187271112018"><ele>517.4285714285714</ele><time>2026-04-11T05:57:52Z</time></trkpt><trkpt lat="43.472868712219075" lon="11.421800063407069"><ele>517.2857142857143</ele><time>2026-04-11T05:57:53Z</time></trkpt><trkpt lat="43.47282198416544" lon="11.421733275337267"><ele>517.1428571428571</ele><time>2026-04-11T05:57:54Z</time></trkpt><trkpt lat="43.47277882611144" lon="11.421667151902689"><ele>517.0</ele><time>2026-04-11T05:57:55Z</time></trkpt><trkpt lat="43.47272183973033" lon="11.42161599103001"><ele>517.0</ele><time>2026-04-11T05:57:56Z</time></trkpt><trkpt lat="43.47265338884187" lon="11.421544561056628"><ele>517.0</ele><time>2026-04-11T05:57:58Z</time></trkpt><trkpt lat="43.47258378649507" lon="11.421478692574386"><ele>517.0</ele><time>2026-04-11T05:58:00Z</time></trkpt><trkpt lat="43.47252507399822" lon="11.421415422214817"><ele>517.0</ele><time>2026-04-11T05:58:02Z</time></trkpt><trkpt lat="43.47245902314291" lon="11.421372553648027"><ele>517.0</ele><time>2026-04-11T05:58:04Z</time></trkpt><trkpt lat="43.472324896502414" lon="11.421286645875979"><ele>517.1666666666667</ele><time>2026-04-11T05:58:09Z</time></trkpt><trkpt lat="43.472263500773664" lon="11.421218189918873"><ele>517.3333333333334</ele><time>2026-04-11T05:58:11Z</time></trkpt><trkpt lat="43.472190496244224" lon="11.421202154461497"><ele>517.5</ele><time>2026-04-11T05:58:14Z</time></trkpt><trkpt lat="43.47209906663261" lon="11.421174729093224"><ele>517.6666666666666</ele><time>2026-04-11T05:58:16Z</time></trkpt><trkpt lat="43.47203688696062" lon="11.42114119209805"><ele>517.8333333333333</ele><time>2026-04-11T05:58:18Z</time></trkpt><trkpt lat="43.4719550783869" lon="11.421100313374405"><ele>518.0</ele><time>2026-04-11T05:58:21Z</time></trkpt><trkpt lat="43.47190901239952" lon="11.421031084846712"><ele>518.8</ele><time>2026-04-11T05:58:24Z</time></trkpt><trkpt lat="43.471828718425066" lon="11.42097210032961"><ele>519.5999999999999</ele><time>2026-04-11T05:59:48Z</time></trkpt><trkpt lat="43.47170807431068" lon="11.420835310451286"><ele>520.4000000000001</ele><time>2026-04-11T05:59:53Z</time></trkpt><trkpt lat="43.47164539034734" lon="11.420749966608561"><ele>521.2</ele><time>2026-04-11T05:59:56Z</time></trkpt><trkpt lat="43.4715971681142" lon="11.420685898274831"><ele>522.0</ele><time>2026-04-11T05:59:58Z</time></trkpt><trkpt lat="43.471556696479375" lon="11.420585971890114"><ele>522.0</ele><time>2026-04-11T06:00:00Z</time></trkpt><trkpt lat="43.47149089105535" lon="11.420533057802684"><ele>522.0</ele><time>2026-04-11T06:00:02Z</time></trkpt><trkpt lat="43.47141691964484" lon="11.420438327486025"><ele>522.0</ele><time>2026-04-11T06:00:04Z</time></trkpt><trkpt lat="43.471382960679485" lon="11.420327922772772"><ele>522.0</ele><time>2026-04-11T06:00:06Z</time></trkpt><trkpt lat="43.471326266255296" lon="11.420219582409693"><ele>522.0</ele><time>2026-04-11T06:00:08Z</time></trkpt><trkpt lat="43.47128124192511" lon="11.420144978081103"><ele>522.0</ele><time>2026-04-11T06:00:11Z</time></trkpt><trkpt lat="43.47115274988255" lon="11.419889590735298"><ele>519.75</ele><time>2026-04-11T06:00:14Z</time></trkpt><trkpt lat="43.47105869944362" lon="11.419756916079455"><ele>517.5</ele><time>2026-04-11T06:00:15Z</time></trkpt><trkpt lat="43.47096752986283" lon="11.419677389446498"><ele>515.25</ele><time>2026-04-11T06:00:16Z</time></trkpt><trkpt lat="43.470889179633325" lon="11.419559541690639"><ele>513.0</ele><time>2026-04-11T06:00:17Z</time></trkpt><trkpt lat="43.47081470097473" lon="11.419440585602008"><ele>511.25</ele><time>2026-04-11T06:00:18Z</time></trkpt><trkpt lat="43.47074288981931" lon="11.419303462581565"><ele>509.5</ele><time>2026-04-11T06:00:19Z</time></trkpt><trkpt lat="43.470667275858816" lon="11.41915113285055"><ele>507.75</ele><time>2026-04-11T06:00:20Z</time></trkpt><trkpt lat="43.47059593926452" lon="11.41901700587323"><ele>506.0</ele><time>2026-04-11T06:00:21Z</time></trkpt><trkpt lat="43.47053169767655" lon="11.418884725899957"><ele>505.0</ele><time>2026-04-11T06:00:22Z</time></trkpt><trkpt lat="43.470466617529475" lon="11.418769168663196"><ele>504.0</ele><time>2026-04-11T06:00:23Z</time></trkpt><trkpt lat="43.470405594197445" lon="11.418662290956224"><ele>503.0</ele><time>2026-04-11T06:00:24Z</time></trkpt><trkpt lat="43.47031585228358" lon="11.4185389323288"><ele>502.0</ele><time>2026-04-11T06:00:26Z</time></trkpt><trkpt lat="43.470196852360175" lon="11.41851590430717"><ele>502.0</ele><time>2026-04-11T06:00:28Z</time></trkpt><trkpt lat="43.47014404912237" lon="11.418570637046743"><ele>502.0</ele><time>2026-04-11T06:00:29Z</time></trkpt><trkpt lat="43.470111231027474" lon="11.418655469103257"><ele>502.0</ele><time>2026-04-11T06:00:30Z</time></trkpt><trkpt lat="43.47004521308237" lon="11.418808652503223"><ele>502.0</ele><time>2026-04-11T06:00:32Z</time></trkpt><trkpt lat="43.469884375348336" lon="11.41908302607457"><ele>501.8</ele><time>2026-04-11T06:00:36Z</time></trkpt><trkpt lat="43.46982665624355" lon="11.419149372516529"><ele>501.6</ele><time>2026-04-11T06:00:37Z</time></trkpt><trkpt lat="43.46974464491011" lon="11.419282697554369"><ele>501.40000000000003</ele><time>2026-04-11T06:00:39Z</time></trkpt><trkpt lat="43.46967619203249" lon="11.419409955403344"><ele>501.20000000000005</ele><time>2026-04-11T06:00:41Z</time></trkpt><trkpt lat="43.46969571595966" lon="11.419576755483824"><ele>501.0</ele><time>2026-04-11T06:00:43Z</time></trkpt><trkpt lat="43.46971217139449" lon="11.419660484787075"><ele>501.0</ele><time>2026-04-11T06:00:44Z</time></trkpt><trkpt lat="43.46976359185733" lon="11.419824339386953"><ele>501.0</ele><time>2026-04-11T06:00:46Z</time></trkpt><trkpt lat="43.46980246426791" lon="11.419904163087082"><ele>501.0</ele><time>2026-04-11T06:00:47Z</time></trkpt><trkpt lat="43.46986083726524" lon="11.419987159215294"><ele>501.0</ele><time>2026-04-11T06:00:48Z</time></trkpt><trkpt lat="43.469912460587445" lon="11.420062369302295"><ele>501.0</ele><time>2026-04-11T06:00:49Z</time></trkpt><trkpt lat="43.46995880669813" lon="11.420151232865567"><ele>501.0</ele><time>2026-04-11T06:00:50Z</time></trkpt><trkpt lat="43.47002717740298" lon="11.420326059392602"><ele>501.0</ele><time>2026-04-11T06:00:52Z</time></trkpt><trkpt lat="43.4700817177585" lon="11.420449551541692"><ele>501.0</ele><time>2026-04-11T06:00:53Z</time></trkpt><trkpt lat="43.47019099681012" lon="11.420679116873627"><ele>501.0</ele><time>2026-04-11T06:00:55Z</time></trkpt><trkpt lat="43.470243985210075" lon="11.420801360112737"><ele>501.0</ele><time>2026-04-11T06:00:56Z</time></trkpt><trkpt lat="43.47028300632169" lon="11.42092395088917"><ele>499.6666666666667</ele><time>2026-04-11T06:00:57Z</time></trkpt><trkpt lat="43.470331150757275" lon="11.42099236291668"><ele>498.33333333333337</ele><time>2026-04-11T06:00:58Z</time></trkpt><trkpt lat="43.47036834961031" lon="11.421087639990414"><ele>497.0</ele><time>2026-04-11T06:00:59Z</time></trkpt><trkpt lat="43.47038234939954" lon="11.421213938768306"><ele>495.6666666666667</ele><time>2026-04-11T06:01:00Z</time></trkpt><trkpt lat="43.47035935083764" lon="11.42133059894787"><ele>494.33333333333337</ele><time>2026-04-11T06:01:01Z</time></trkpt><trkpt lat="43.47029656249947" lon="11.421436909634583"><ele>493.0</ele><time>2026-04-11T06:01:02Z</time></trkpt><trkpt lat="43.47022999822202" lon="11.421519759685118"><ele>493.0</ele><time>2026-04-11T06:01:03Z</time></trkpt><trkpt lat="43.47015093577949" lon="11.421577901691139"><ele>492.99999999999994</ele><time>2026-04-11T06:01:04Z</time></trkpt><trkpt lat="43.47007702147246" lon="11.42162239062853"><ele>492.99999999999994</ele><time>2026-04-11T06:01:05Z</time></trkpt><trkpt lat="43.4699982707939" lon="11.421667827180807"><ele>493.0</ele><time>2026-04-11T06:01:06Z</time></trkpt><trkpt lat="43.46991434464174" lon="11.421702645960215"><ele>493.0</ele><time>2026-04-11T06:01:07Z</time></trkpt><trkpt lat="43.46980417518642" lon="11.421773524362163"><ele>493.00000000000006</ele><time>2026-04-11T06:01:08Z</time></trkpt><trkpt lat="43.46972940986721" lon="11.421828314835672"><ele>493.0</ele><time>2026-04-11T06:01:09Z</time></trkpt><trkpt lat="43.46966322478732" lon="11.421876857057086"><ele>493.0</ele><time>2026-04-11T06:01:10Z</time></trkpt><trkpt lat="43.469592899526546" lon="11.421914718139885"><ele>493.0</ele><time>2026-04-11T06:01:11Z</time></trkpt><trkpt lat="43.469529320369176" lon="11.421989940217298"><ele>493.00000000000006</ele><time>2026-04-11T06:01:12Z</time></trkpt><trkpt lat="43.46946227531306" lon="11.422052572471785"><ele>493.0</ele><time>2026-04-11T06:01:13Z</time></trkpt><trkpt lat="43.46939862225585" lon="11.422105876258046"><ele>492.25</ele><time>2026-04-11T06:01:14Z</time></trkpt><trkpt lat="43.46922323679776" lon="11.422210915386012"><ele>491.5</ele><time>2026-04-11T06:01:16Z</time></trkpt><trkpt lat="43.469147351074646" lon="11.42225864735684"><ele>490.75</ele><time>2026-04-11T06:01:17Z</time></trkpt><trkpt lat="43.469067423220594" lon="11.422320217220754"><ele>490.0</ele><time>2026-04-11T06:01:18Z</time></trkpt><trkpt lat="43.46898954527946" lon="11.422384388952294"><ele>490.0</ele><time>2026-04-11T06:01:19Z</time></trkpt><trkpt lat="43.4689130957026" lon="11.422454743990926"><ele>490.0</ele><time>2026-04-11T06:01:20Z</time></trkpt><trkpt lat="43.46883186273262" lon="11.422518720971718"><ele>490.0</ele><time>2026-04-11T06:01:21Z</time></trkpt><trkpt lat="43.468747927614466" lon="11.422580449604009"><ele>490.0</ele><time>2026-04-11T06:01:22Z</time></trkpt><trkpt lat="43.468663381528316" lon="11.422635074682457"><ele>490.0</ele><time>2026-04-11T06:01:23Z</time></trkpt><trkpt lat="43.468574368188904" lon="11.422694780591726"><ele>488.2</ele><time>2026-04-11T06:01:24Z</time></trkpt><trkpt lat="43.46848208610474" lon="11.422764577565621"><ele>486.4</ele><time>2026-04-11T06:01:25Z</time></trkpt><trkpt lat="43.46839905857747" lon="11.42283244004607"><ele>484.6</ele><time>2026-04-11T06:01:26Z</time></trkpt><trkpt lat="43.46831243766947" lon="11.42290294900018"><ele>482.8</ele><time>2026-04-11T06:01:27Z</time></trkpt><trkpt lat="43.468267592032596" lon="11.4229962306227"><ele>481.0</ele><time>2026-04-11T06:01:28Z</time></trkpt><trkpt lat="43.468192232975206" lon="11.423011753235146"><ele>481.0</ele><time>2026-04-11T06:01:29Z</time></trkpt><trkpt lat="43.46810694408692" lon="11.423045582294048"><ele>481.0</ele><time>2026-04-11T06:01:31Z</time></trkpt><trkpt lat="43.468007819183526" lon="11.423066901180388"><ele>481.0</ele><time>2026-04-11T06:01:33Z</time></trkpt><trkpt lat="43.4678939607276" lon="11.423079858543776"><ele>481.0</ele><time>2026-04-11T06:01:35Z</time></trkpt><trkpt lat="43.46768218173332" lon="11.423180064907433"><ele>480.6</ele><time>2026-04-11T06:01:39Z</time></trkpt><trkpt lat="43.46765080422542" lon="11.423355173783893"><ele>480.20000000000005</ele><time>2026-04-11T06:01:41Z</time></trkpt><trkpt lat="43.46766125661626" lon="11.423462043232469"><ele>479.79999999999995</ele><time>2026-04-11T06:01:42Z</time></trkpt><trkpt lat="43.46770050229644" lon="11.42356518468231"><ele>479.4</ele><time>2026-04-11T06:01:43Z</time></trkpt><trkpt lat="43.467757989135826" lon="11.423640250376549"><ele>479.0</ele><time>2026-04-11T06:01:44Z</time></trkpt><trkpt lat="43.467875259472784" lon="11.423683085297116"><ele>479.4</ele><time>2026-04-11T06:01:45Z</time></trkpt><trkpt lat="43.46795863157919" lon="11.423752301352526"><ele>479.79999999999995</ele><time>2026-04-11T06:01:46Z</time></trkpt><trkpt lat="43.468038761036716" lon="11.423824649044509"><ele>480.20000000000005</ele><time>2026-04-11T06:01:47Z</time></trkpt><trkpt lat="43.46813323702734" lon="11.423907680835125"><ele>480.6</ele><time>2026-04-11T06:01:48Z</time></trkpt><trkpt lat="43.468223827742044" lon="11.423988068856474"><ele>481.0</ele><time>2026-04-11T06:01:49Z</time></trkpt><trkpt lat="43.46832321709955" lon="11.424077955792436"><ele>478.0</ele><time>2026-04-11T06:01:50Z</time></trkpt><trkpt lat="43.46842191409205" lon="11.42416508074773"><ele>475.0</ele><time>2026-04-11T06:01:51Z</time></trkpt><trkpt lat="43.468519715364664" lon="11.424235521955337"><ele>472.0</ele><time>2026-04-11T06:01:52Z</time></trkpt><trkpt lat="43.468626970937414" lon="11.424299716677384"><ele>469.0</ele><time>2026-04-11T06:01:53Z</time></trkpt><trkpt lat="43.46874754470068" lon="11.424341108650976"><ele>468.33333333333337</ele><time>2026-04-11T06:01:54Z</time></trkpt><trkpt lat="43.46885075532366" lon="11.424298278285494"><ele>467.66666666666663</ele><time>2026-04-11T06:01:55Z</time></trkpt><trkpt lat="43.46899329466356" lon="11.424325863979284"><ele>467.0</ele><time>2026-04-11T06:01:56Z</time></trkpt><trkpt lat="43.46927395557676" lon="11.424373491311883"><ele>467.0</ele><time>2026-04-11T06:01:58Z</time></trkpt><trkpt lat="43.46939733018877" lon="11.42441527630498"><ele>467.0</ele><time>2026-04-11T06:01:59Z</time></trkpt><trkpt lat="43.46951430933691" lon="11.424457411235052"><ele>467.0</ele><time>2026-04-11T06:02:00Z</time></trkpt><trkpt lat="43.46961726108003" lon="11.42452379793964"><ele>467.0</ele><time>2026-04-11T06:02:01Z</time></trkpt><trkpt lat="43.46970320850675" lon="11.424602230330475"><ele>465.6</ele><time>2026-04-11T06:02:02Z</time></trkpt><trkpt lat="43.469770125787456" lon="11.424697393319315"><ele>464.20000000000005</ele><time>2026-04-11T06:02:03Z</time></trkpt><trkpt lat="43.469829605345105" lon="11.424791782048164"><ele>462.8</ele><time>2026-04-11T06:02:04Z</time></trkpt><trkpt lat="43.46988038473609" lon="11.42489513241716"><ele>461.4</ele><time>2026-04-11T06:02:05Z</time></trkpt><trkpt lat="43.469922748965004" lon="11.42503240273582"><ele>460.0</ele><time>2026-04-11T06:02:06Z</time></trkpt><trkpt lat="43.46990188269752" lon="11.425216478927966"><ele>460.0</ele><time>2026-04-11T06:02:07Z</time></trkpt><trkpt lat="43.46989180985769" lon="11.425367303891713"><ele>460.0</ele><time>2026-04-11T06:02:08Z</time></trkpt><trkpt lat="43.46989376387088" lon="11.425517283898458"><ele>460.0</ele><time>2026-04-11T06:02:09Z</time></trkpt><trkpt lat="43.46990664418871" lon="11.425674290495543"><ele>460.0</ele><time>2026-04-11T06:02:10Z</time></trkpt><trkpt lat="43.46990576672051" lon="11.425833580024522"><ele>460.0</ele><time>2026-04-11T06:02:11Z</time></trkpt><trkpt lat="43.46991087122403" lon="11.425996473290107"><ele>457.0</ele><time>2026-04-11T06:02:12Z</time></trkpt><trkpt lat="43.46992182372838" lon="11.42616215099627"><ele>454.0</ele><time>2026-04-11T06:02:13Z</time></trkpt><trkpt lat="43.46991492435228" lon="11.42632691572549"><ele>451.0</ele><time>2026-04-11T06:02:14Z</time></trkpt><trkpt lat="43.46990834907726" lon="11.426497431851523"><ele>448.0</ele><time>2026-04-11T06:02:15Z</time></trkpt><trkpt lat="43.469886334495484" lon="11.426691982037536"><ele>445.33333333333337</ele><time>2026-04-11T06:02:16Z</time></trkpt><trkpt lat="43.4698624288351" lon="11.426852217987532"><ele>442.66666666666663</ele><time>2026-04-11T06:02:17Z</time></trkpt><trkpt lat="43.469803824750066" lon="11.427163693312231"><ele>440.0</ele><time>2026-04-11T06:02:19Z</time></trkpt><trkpt lat="43.46977360464119" lon="11.427312489152856"><ele>438.0</ele><time>2026-04-11T06:02:20Z</time></trkpt><trkpt lat="43.469720409888865" lon="11.427461647596644"><ele>436.0</ele><time>2026-04-11T06:02:21Z</time></trkpt><trkpt lat="43.469637382754044" lon="11.427597287334816"><ele>434.0</ele><time>2026-04-11T06:02:22Z</time></trkpt><trkpt lat="43.46954282639591" lon="11.427717091288457"><ele>432.0</ele><time>2026-04-11T06:02:23Z</time></trkpt><trkpt lat="43.46945078561242" lon="11.42784187843909"><ele>429.5</ele><time>2026-04-11T06:02:24Z</time></trkpt><trkpt lat="43.469359917510374" lon="11.427970909017517"><ele>427.0</ele><time>2026-04-11T06:02:25Z</time></trkpt><trkpt lat="43.469274549486805" lon="11.428104183392781"><ele>424.5</ele><time>2026-04-11T06:02:26Z</time></trkpt><trkpt lat="43.469190081029105" lon="11.428246471717237"><ele>422.0</ele><time>2026-04-11T06:02:27Z</time></trkpt><trkpt lat="43.46911104506763" lon="11.428384715776575"><ele>421.75</ele><time>2026-04-11T06:02:28Z</time></trkpt><trkpt lat="43.46903258609076" lon="11.42851733564625"><ele>421.5</ele><time>2026-04-11T06:02:29Z</time></trkpt><trkpt lat="43.468948702281324" lon="11.428642485589524"><ele>421.25</ele><time>2026-04-11T06:02:30Z</time></trkpt><trkpt lat="43.468869640479966" lon="11.428769730742387"><ele>421.0</ele><time>2026-04-11T06:02:31Z</time></trkpt><trkpt lat="43.46879463293661" lon="11.42890194095099"><ele>417.75</ele><time>2026-04-11T06:02:32Z</time></trkpt><trkpt lat="43.46872198934084" lon="11.429047984590575"><ele>414.5</ele><time>2026-04-11T06:02:33Z</time></trkpt><trkpt lat="43.46864394409512" lon="11.429172421793826"><ele>411.25</ele><time>2026-04-11T06:02:34Z</time></trkpt><trkpt lat="43.46855480373846" lon="11.429292875331447"><ele>408.0</ele><time>2026-04-11T06:02:35Z</time></trkpt><trkpt lat="43.46847107340008" lon="11.429402339901596"><ele>408.0</ele><time>2026-04-11T06:02:36Z</time></trkpt><trkpt lat="43.468396500716814" lon="11.429511279537248"><ele>408.0</ele><time>2026-04-11T06:02:37Z</time></trkpt><trkpt lat="43.46830886358026" lon="11.429594074926017"><ele>408.0</ele><time>2026-04-11T06:02:38Z</time></trkpt><trkpt lat="43.468129948116605" lon="11.429743490549953"><ele>408.0</ele><time>2026-04-11T06:02:40Z</time></trkpt><trkpt lat="43.46803077962484" lon="11.429811127760527"><ele>406.0</ele><time>2026-04-11T06:02:41Z</time></trkpt><trkpt lat="43.467941817033804" lon="11.42987463135661"><ele>404.0</ele><time>2026-04-11T06:02:42Z</time></trkpt><trkpt lat="43.46785018789665" lon="11.42993144614271"><ele>402.0</ele><time>2026-04-11T06:02:43Z</time></trkpt><trkpt lat="43.4677535778967" lon="11.430007622582282"><ele>400.0</ele><time>2026-04-11T06:02:44Z</time></trkpt><trkpt lat="43.4676357801496" lon="11.430081435578604"><ele>398.0</ele><time>2026-04-11T06:02:45Z</time></trkpt><trkpt lat="43.46753213156809" lon="11.430158256264201"><ele>398.0</ele><time>2026-04-11T06:02:46Z</time></trkpt><trkpt lat="43.46743537733258" lon="11.430218552037234"><ele>398.0</ele><time>2026-04-11T06:02:47Z</time></trkpt><trkpt lat="43.467340654935505" lon="11.430276599494551"><ele>398.0</ele><time>2026-04-11T06:02:48Z</time></trkpt><trkpt lat="43.46725202669602" lon="11.430336142286551"><ele>398.0</ele><time>2026-04-11T06:02:49Z</time></trkpt><trkpt lat="43.46716019704578" lon="11.430392043059925"><ele>398.0</ele><time>2026-04-11T06:02:50Z</time></trkpt><trkpt lat="43.467070546381166" lon="11.430448747764784"><ele>396.3333333333333</ele><time>2026-04-11T06:02:51Z</time></trkpt><trkpt lat="43.46698064014505" lon="11.430496516456863"><ele>394.66666666666663</ele><time>2026-04-11T06:02:52Z</time></trkpt><trkpt lat="43.46688643448003" lon="11.430574983940854"><ele>393.0</ele><time>2026-04-11T06:02:53Z</time></trkpt><trkpt lat="43.46681674145147" lon="11.430606190866536"><ele>391.33333333333337</ele><time>2026-04-11T06:02:54Z</time></trkpt><trkpt lat="43.46674885462295" lon="11.430656345047352"><ele>389.6666666666667</ele><time>2026-04-11T06:02:55Z</time></trkpt><trkpt lat="43.46669145169085" lon="11.430695344615781"><ele>388.0</ele><time>2026-04-11T06:02:56Z</time></trkpt><trkpt lat="43.46660268328068" lon="11.430770000818702"><ele>388.0</ele><time>2026-04-11T06:02:58Z</time></trkpt><trkpt lat="43.46660929509922" lon="11.43095365533113"><ele>388.0</ele><time>2026-04-11T06:03:00Z</time></trkpt><trkpt lat="43.466705197009034" lon="11.431119747818036"><ele>388.0</ele><time>2026-04-11T06:03:02Z</time></trkpt><trkpt lat="43.46678964424954" lon="11.43119459563513"><ele>388.0</ele><time>2026-04-11T06:03:03Z</time></trkpt><trkpt lat="43.466868434333705" lon="11.431255229910068"><ele>388.0</ele><time>2026-04-11T06:03:04Z</time></trkpt><trkpt lat="43.466961964551565" lon="11.431301818280607"><ele>388.0</ele><time>2026-04-11T06:03:05Z</time></trkpt><trkpt lat="43.46705889190383" lon="11.431352084647576"><ele>388.0</ele><time>2026-04-11T06:03:06Z</time></trkpt><trkpt lat="43.46714548932159" lon="11.431387713372706"><ele>388.0</ele><time>2026-04-11T06:03:07Z</time></trkpt><trkpt lat="43.46725842092662" lon="11.43141256493855"><ele>388.0</ele><time>2026-04-11T06:03:08Z</time></trkpt><trkpt lat="43.46739797596835" lon="11.431483772864173"><ele>385.59999999999997</ele><time>2026-04-11T06:03:09Z</time></trkpt><trkpt lat="43.46749895251629" lon="11.43153401313764"><ele>383.2</ele><time>2026-04-11T06:03:10Z</time></trkpt><trkpt lat="43.46760185856579" lon="11.431611092240885"><ele>380.8</ele><time>2026-04-11T06:03:11Z</time></trkpt><trkpt lat="43.467692686295884" lon="11.431694604501365"><ele>378.4</ele><time>2026-04-11T06:03:12Z</time></trkpt><trkpt lat="43.46778254333782" lon="11.431775451146374"><ele>376.0</ele><time>2026-04-11T06:03:13Z</time></trkpt><trkpt lat="43.46785540863892" lon="11.431860606731004"><ele>376.0</ele><time>2026-04-11T06:03:14Z</time></trkpt><trkpt lat="43.46793701524662" lon="11.431944905499035"><ele>376.0</ele><time>2026-04-11T06:03:15Z</time></trkpt><trkpt lat="43.468024304172054" lon="11.43202970658871"><ele>376.0</ele><time>2026-04-11T06:03:16Z</time></trkpt><trkpt lat="43.468099281623786" lon="11.432123499904675"><ele>376.0</ele><time>2026-04-11T06:03:17Z</time></trkpt><trkpt lat="43.46816570980603" lon="11.432218675364785"><ele>376.0</ele><time>2026-04-11T06:03:18Z</time></trkpt><trkpt lat="43.468244005347835" lon="11.432310552185065"><ele>373.0</ele><time>2026-04-11T06:03:19Z</time></trkpt><trkpt lat="43.468313162774464" lon="11.432414784495597"><ele>370.0</ele><time>2026-04-11T06:03:20Z</time></trkpt><trkpt lat="43.468388569145446" lon="11.432509133419162"><ele>367.0</ele><time>2026-04-11T06:03:21Z</time></trkpt><trkpt lat="43.46848305186064" lon="11.432704077278894"><ele>364.0</ele><time>2026-04-11T06:03:23Z</time></trkpt><trkpt lat="43.46850473362188" lon="11.43282367013083"><ele>364.0</ele><time>2026-04-11T06:03:24Z</time></trkpt><trkpt lat="43.468519866987585" lon="11.432938662164906"><ele>364.0</ele><time>2026-04-11T06:03:25Z</time></trkpt><trkpt lat="43.46854128633708" lon="11.43303166591641"><ele>364.0</ele><time>2026-04-11T06:03:26Z</time></trkpt><trkpt lat="43.46855259658875" lon="11.433177942352364"><ele>364.0</ele><time>2026-04-11T06:03:28Z</time></trkpt><trkpt lat="43.46844873196301" lon="11.433268458742855"><ele>364.0</ele><time>2026-04-11T06:03:30Z</time></trkpt><trkpt lat="43.46838745997948" lon="11.433290127635859"><ele>364.0</ele><time>2026-04-11T06:03:31Z</time></trkpt><trkpt lat="43.46826940978859" lon="11.433340830488582"><ele>363.14285714285717</ele><time>2026-04-11T06:03:33Z</time></trkpt><trkpt lat="43.468209513640225" lon="11.433383365127384"><ele>362.2857142857143</ele><time>2026-04-11T06:03:34Z</time></trkpt><trkpt lat="43.46815135964064" lon="11.433431332677186"><ele>361.42857142857144</ele><time>2026-04-11T06:03:35Z</time></trkpt><trkpt lat="43.46809271107959" lon="11.43348568632021"><ele>360.57142857142856</ele><time>2026-04-11T06:03:36Z</time></trkpt><trkpt lat="43.46803499278964" lon="11.43354600690171"><ele>359.7142857142857</ele><time>2026-04-11T06:03:37Z</time></trkpt><trkpt lat="43.467977565100114" lon="11.43360792512195"><ele>358.8571428571429</ele><time>2026-04-11T06:03:38Z</time></trkpt><trkpt lat="43.467918742451594" lon="11.433672216611964"><ele>358.0</ele><time>2026-04-11T06:03:39Z</time></trkpt><trkpt lat="43.46785833138077" lon="11.433736990971369"><ele>357.2</ele><time>2026-04-11T06:03:40Z</time></trkpt><trkpt lat="43.467799316177995" lon="11.433807717738807"><ele>356.4</ele><time>2026-04-11T06:03:41Z</time></trkpt><trkpt lat="43.46774201834306" lon="11.433873810804952"><ele>355.59999999999997</ele><time>2026-04-11T06:03:42Z</time></trkpt><trkpt lat="43.46761780209062" lon="11.433997673821226"><ele>354.79999999999995</ele><time>2026-04-11T06:03:44Z</time></trkpt><trkpt lat="43.467551618219716" lon="11.434056014330901"><ele>354.0</ele><time>2026-04-11T06:03:45Z</time></trkpt><trkpt lat="43.467483964453926" lon="11.434110772314448"><ele>354.0</ele><time>2026-04-11T06:03:46Z</time></trkpt><trkpt lat="43.467410191329265" lon="11.434153566894366"><ele>354.0</ele><time>2026-04-11T06:03:47Z</time></trkpt><trkpt lat="43.46734871050619" lon="11.434186825822502"><ele>354.0</ele><time>2026-04-11T06:03:48Z</time></trkpt><trkpt lat="43.46726068187459" lon="11.434213239251017"><ele>354.0</ele><time>2026-04-11T06:03:49Z</time></trkpt><trkpt lat="43.467182580336036" lon="11.434243498801324"><ele>354.0</ele><time>2026-04-11T06:03:50Z</time></trkpt><trkpt lat="43.46710393097027" lon="11.434266348115358"><ele>354.0</ele><time>2026-04-11T06:03:51Z</time></trkpt><trkpt lat="43.46702310908102" lon="11.43428077624987"><ele>353.5</ele><time>2026-04-11T06:03:52Z</time></trkpt><trkpt lat="43.46693903049037" lon="11.43430740935404"><ele>353.0</ele><time>2026-04-11T06:03:53Z</time></trkpt><trkpt lat="43.466857335212396" lon="11.434315032761713"><ele>352.5</ele><time>2026-04-11T06:03:54Z</time></trkpt><trkpt lat="43.466778242824105" lon="11.43432657223199"><ele>352.0</ele><time>2026-04-11T06:03:55Z</time></trkpt><trkpt lat="43.46669612846627" lon="11.43433316253559"><ele>351.5</ele><time>2026-04-11T06:03:56Z</time></trkpt><trkpt lat="43.46661634336163" lon="11.434335150886513"><ele>351.0</ele><time>2026-04-11T06:03:57Z</time></trkpt><trkpt lat="43.466540668570666" lon="11.434324331134682"><ele>351.0</ele><time>2026-04-11T06:03:58Z</time></trkpt><trkpt lat="43.46646286115312" lon="11.434325811862443"><ele>351.0</ele><time>2026-04-11T06:03:59Z</time></trkpt><trkpt lat="43.466385179263426" lon="11.43432113169725"><ele>351.0</ele><time>2026-04-11T06:04:00Z</time></trkpt><trkpt lat="43.4663039117572" lon="11.434324786902065"><ele>351.0</ele><time>2026-04-11T06:04:01Z</time></trkpt><trkpt lat="43.46622799736784" lon="11.434309787651777"><ele>351.0</ele><time>2026-04-11T06:04:02Z</time></trkpt><trkpt lat="43.46615078851861" lon="11.434294521224292"><ele>351.0</ele><time>2026-04-11T06:04:03Z</time></trkpt><trkpt lat="43.46599750959762" lon="11.434243929084795"><ele>350.5</ele><time>2026-04-11T06:04:05Z</time></trkpt><trkpt lat="43.465921835306304" lon="11.434234067939421"><ele>350.0</ele><time>2026-04-11T06:04:06Z</time></trkpt><trkpt lat="43.46585398575162" lon="11.434205824134036"><ele>349.5</ele><time>2026-04-11T06:04:07Z</time></trkpt><trkpt lat="43.465770602808746" lon="11.43416435768971"><ele>349.0</ele><time>2026-04-11T06:04:08Z</time></trkpt><trkpt lat="43.465695312135914" lon="11.434119269576138"><ele>348.5</ele><time>2026-04-11T06:04:09Z</time></trkpt><trkpt lat="43.46562033568937" lon="11.434074187765612"><ele>348.0</ele><time>2026-04-11T06:04:10Z</time></trkpt><trkpt lat="43.46555025056532" lon="11.434017427598292"><ele>348.0</ele><time>2026-04-11T06:04:11Z</time></trkpt><trkpt lat="43.46548384323847" lon="11.433951173404317"><ele>348.0</ele><time>2026-04-11T06:04:12Z</time></trkpt><trkpt lat="43.46543066784568" lon="11.433862165857956"><ele>348.0</ele><time>2026-04-11T06:04:13Z</time></trkpt><trkpt lat="43.46537531401627" lon="11.433778843809854"><ele>348.0</ele><time>2026-04-11T06:04:14Z</time></trkpt><trkpt lat="43.4653190312675" lon="11.433704955500394"><ele>348.0</ele><time>2026-04-11T06:04:15Z</time></trkpt><trkpt lat="43.46526860674586" lon="11.433626277869042"><ele>348.0</ele><time>2026-04-11T06:04:16Z</time></trkpt><trkpt lat="43.465217401256595" lon="11.433548469285888"><ele>348.0</ele><time>2026-04-11T06:04:17Z</time></trkpt><trkpt lat="43.465165922086776" lon="11.433467849519808"><ele>348.0</ele><time>2026-04-11T06:04:18Z</time></trkpt><trkpt lat="43.4651165825601" lon="11.433387859282353"><ele>348.0</ele><time>2026-04-11T06:04:19Z</time></trkpt><trkpt lat="43.46505817571111" lon="11.433318997007982"><ele>348.0</ele><time>2026-04-11T06:04:20Z</time></trkpt><trkpt lat="43.46499980540278" lon="11.433248551825674"><ele>348.0</ele><time>2026-04-11T06:04:21Z</time></trkpt><trkpt lat="43.46493086694527" lon="11.433191395149455"><ele>348.0</ele><time>2026-04-11T06:04:22Z</time></trkpt><trkpt lat="43.4648629995981" lon="11.433143780419867"><ele>348.0</ele><time>2026-04-11T06:04:23Z</time></trkpt><trkpt lat="43.46479193777292" lon="11.43308284820916"><ele>348.0</ele><time>2026-04-11T06:04:24Z</time></trkpt><trkpt lat="43.464646681807146" lon="11.43299795172154"><ele>348.0</ele><time>2026-04-11T06:04:26Z</time></trkpt><trkpt lat="43.4645782614965" lon="11.432943858715957"><ele>348.0</ele><time>2026-04-11T06:04:27Z</time></trkpt><trkpt lat="43.46451359186288" lon="11.432873553064171"><ele>348.0</ele><time>2026-04-11T06:04:28Z</time></trkpt><trkpt lat="43.46444957701204" lon="11.432805114490717"><ele>348.1666666666667</ele><time>2026-04-11T06:04:29Z</time></trkpt><trkpt lat="43.46438948163571" lon="11.432733604025305"><ele>348.3333333333333</ele><time>2026-04-11T06:04:30Z</time></trkpt><trkpt lat="43.46433200067044" lon="11.432657239585827"><ele>348.5</ele><time>2026-04-11T06:04:31Z</time></trkpt><trkpt lat="43.46427755936737" lon="11.432574873881817"><ele>348.66666666666663</ele><time>2026-04-11T06:04:32Z</time></trkpt><trkpt lat="43.464225602521665" lon="11.432483873037544"><ele>348.8333333333333</ele><time>2026-04-11T06:04:33Z</time></trkpt><trkpt lat="43.46417556947995" lon="11.43239605466936"><ele>349.0</ele><time>2026-04-11T06:04:34Z</time></trkpt><trkpt lat="43.46413606250099" lon="11.43229386715085"><ele>349.0</ele><time>2026-04-11T06:04:35Z</time></trkpt><trkpt lat="43.46409628058212" lon="11.432200814303162"><ele>349.0</ele><time>2026-04-11T06:04:36Z</time></trkpt><trkpt lat="43.46406183626915" lon="11.432096212278593"><ele>349.0</ele><time>2026-04-11T06:04:37Z</time></trkpt><trkpt lat="43.46402902292879" lon="11.432004186232012"><ele>349.0</ele><time>2026-04-11T06:04:38Z</time></trkpt><trkpt lat="43.46398362896972" lon="11.431881615834325"><ele>349.0</ele><time>2026-04-11T06:04:39Z</time></trkpt><trkpt lat="43.46394602526633" lon="11.431792926998416"><ele>349.0</ele><time>2026-04-11T06:04:40Z</time></trkpt><trkpt lat="43.463907237228234" lon="11.431692736348227"><ele>348.6</ele><time>2026-04-11T06:04:41Z</time></trkpt><trkpt lat="43.463866473988844" lon="11.431596755627343"><ele>348.2</ele><time>2026-04-11T06:04:42Z</time></trkpt><trkpt lat="43.46382785478956" lon="11.431492101829797"><ele>347.8</ele><time>2026-04-11T06:04:43Z</time></trkpt><trkpt lat="43.463787215198835" lon="11.431390410287655"><ele>347.40000000000003</ele><time>2026-04-11T06:04:44Z</time></trkpt><trkpt lat="43.46374969660323" lon="11.431290341087589"><ele>347.0</ele><time>2026-04-11T06:04:45Z</time></trkpt><trkpt lat="43.46366617927584" lon="11.431090835304785"><ele>347.0</ele><time>2026-04-11T06:04:47Z</time></trkpt><trkpt lat="43.463629875208156" lon="11.430985240903714"><ele>347.0</ele><time>2026-04-11T06:04:48Z</time></trkpt><trkpt lat="43.463581395790925" lon="11.430892720249561"><ele>347.0</ele><time>2026-04-11T06:04:49Z</time></trkpt><trkpt lat="43.463528735696855" lon="11.430806095394043"><ele>347.0</ele><time>2026-04-11T06:04:50Z</time></trkpt><trkpt lat="43.46347917591154" lon="11.430714342682734"><ele>347.0</ele><time>2026-04-11T06:04:51Z</time></trkpt><trkpt lat="43.46342236687618" lon="11.430627135614015"><ele>347.0</ele><time>2026-04-11T06:04:52Z</time></trkpt><trkpt lat="43.463357413479784" lon="11.43055603779998"><ele>348.0</ele><time>2026-04-11T06:04:53Z</time></trkpt><trkpt lat="43.463302748087926" lon="11.430465814637506"><ele>349.0</ele><time>2026-04-11T06:04:54Z</time></trkpt><trkpt lat="43.46324543043663" lon="11.430385592330868"><ele>350.0</ele><time>2026-04-11T06:04:55Z</time></trkpt><trkpt lat="43.463182361408556" lon="11.430290777702256"><ele>351.0</ele><time>2026-04-11T06:04:56Z</time></trkpt><trkpt lat="43.46313202325111" lon="11.430198273096467"><ele>352.0</ele><time>2026-04-11T06:04:57Z</time></trkpt><trkpt lat="43.46308298568747" lon="11.430103184387299"><ele>353.0</ele><time>2026-04-11T06:04:58Z</time></trkpt><trkpt lat="43.46304165359657" lon="11.430007988591623"><ele>353.0</ele><time>2026-04-11T06:04:59Z</time></trkpt><trkpt lat="43.46299234986035" lon="11.429913091240337"><ele>353.0</ele><time>2026-04-11T06:05:00Z</time></trkpt><trkpt lat="43.46293800636931" lon="11.429827729100746"><ele>353.0</ele><time>2026-04-11T06:05:01Z</time></trkpt><trkpt lat="43.462877867792805" lon="11.429746013945016"><ele>353.0</ele><time>2026-04-11T06:05:02Z</time></trkpt><trkpt lat="43.46282081549675" lon="11.429666444108006"><ele>353.0</ele><time>2026-04-11T06:05:03Z</time></trkpt><trkpt lat="43.46275976674922" lon="11.429586943931799"><ele>353.0</ele><time>2026-04-11T06:05:04Z</time></trkpt><trkpt lat="43.46269233335372" lon="11.429511149347677"><ele>351.59999999999997</ele><time>2026-04-11T06:05:05Z</time></trkpt><trkpt lat="43.462632738247116" lon="11.429428281941089"><ele>350.2</ele><time>2026-04-11T06:05:06Z</time></trkpt><trkpt lat="43.46251016612914" lon="11.42926724785133"><ele>348.8</ele><time>2026-04-11T06:05:08Z</time></trkpt><trkpt lat="43.46245270421837" lon="11.429181599084943"><ele>347.4</ele><time>2026-04-11T06:05:09Z</time></trkpt><trkpt lat="43.462386960538815" lon="11.429108791332881"><ele>346.0</ele><time>2026-04-11T06:05:10Z</time></trkpt><trkpt lat="43.46232398956134" lon="11.429025694944428"><ele>346.0</ele><time>2026-04-11T06:05:11Z</time></trkpt><trkpt lat="43.46226362178277" lon="11.42895396151182"><ele>346.0</ele><time>2026-04-11T06:05:12Z</time></trkpt><trkpt lat="43.46220287858151" lon="11.428875663293052"><ele>346.0</ele><time>2026-04-11T06:05:13Z</time></trkpt><trkpt lat="43.462141073871436" lon="11.42880332957844"><ele>346.0</ele><time>2026-04-11T06:05:14Z</time></trkpt><trkpt lat="43.462078241446896" lon="11.42872565146759"><ele>346.0</ele><time>2026-04-11T06:05:15Z</time></trkpt><trkpt lat="43.462013119805" lon="11.428648826542455"><ele>346.0</ele><time>2026-04-11T06:05:16Z</time></trkpt><trkpt lat="43.461949082577455" lon="11.428570124408777"><ele>345.3333333333333</ele><time>2026-04-11T06:05:17Z</time></trkpt><trkpt lat="43.46188482294172" lon="11.428491512819816"><ele>344.66666666666663</ele><time>2026-04-11T06:05:18Z</time></trkpt><trkpt lat="43.46182052533672" lon="11.428417561484817"><ele>344.0</ele><time>2026-04-11T06:05:19Z</time></trkpt><trkpt lat="43.46175580564169" lon="11.42834492942194"><ele>343.3333333333333</ele><time>2026-04-11T06:05:20Z</time></trkpt><trkpt lat="43.46168735627379" lon="11.428270926435411"><ele>342.6666666666667</ele><time>2026-04-11T06:05:21Z</time></trkpt><trkpt lat="43.4616213064295" lon="11.428199633344137"><ele>342.0</ele><time>2026-04-11T06:05:22Z</time></trkpt><trkpt lat="43.46155543583937" lon="11.428132436622532"><ele>342.0</ele><time>2026-04-11T06:05:23Z</time></trkpt><trkpt lat="43.46148578367543" lon="11.428064982391676"><ele>342.0</ele><time>2026-04-11T06:05:24Z</time></trkpt><trkpt lat="43.46141787068854" lon="11.427995113012111"><ele>342.0</ele><time>2026-04-11T06:05:25Z</time></trkpt><trkpt lat="43.461350060651455" lon="11.427917822926812"><ele>342.0</ele><time>2026-04-11T06:05:26Z</time></trkpt><trkpt lat="43.461285492412784" lon="11.4278535744877"><ele>342.0</ele><time>2026-04-11T06:05:27Z</time></trkpt><trkpt lat="43.461154243795356" lon="11.427715867802911"><ele>341.6666666666667</ele><time>2026-04-11T06:05:29Z</time></trkpt><trkpt lat="43.46108593154191" lon="11.427646400108515"><ele>341.3333333333333</ele><time>2026-04-11T06:05:30Z</time></trkpt><trkpt lat="43.461022147357546" lon="11.427572440818704"><ele>341.0</ele><time>2026-04-11T06:05:31Z</time></trkpt><trkpt lat="43.460956440834025" lon="11.427501398716958"><ele>340.66666666666663</ele><time>2026-04-11T06:05:32Z</time></trkpt><trkpt lat="43.460891232966624" lon="11.427425262926523"><ele>340.3333333333333</ele><time>2026-04-11T06:05:33Z</time></trkpt><trkpt lat="43.46082320969355" lon="11.427360452661674"><ele>340.0</ele><time>2026-04-11T06:05:34Z</time></trkpt><trkpt lat="43.460758231816776" lon="11.427293861482767"><ele>340.0</ele><time>2026-04-11T06:05:35Z</time></trkpt><trkpt lat="43.46069005861768" lon="11.427226262194663"><ele>340.0</ele><time>2026-04-11T06:05:36Z</time></trkpt><trkpt lat="43.460617251787546" lon="11.427170898944757"><ele>340.0</ele><time>2026-04-11T06:05:37Z</time></trkpt><trkpt lat="43.46054388309632" lon="11.427113136096372"><ele>340.0</ele><time>2026-04-11T06:05:38Z</time></trkpt><trkpt lat="43.46046654680591" lon="11.427075706244015"><ele>340.0</ele><time>2026-04-11T06:05:39Z</time></trkpt><trkpt lat="43.46039094721925" lon="11.427041093776522"><ele>340.0</ele><time>2026-04-11T06:05:40Z</time></trkpt><trkpt lat="43.46031076878901" lon="11.427006252577886"><ele>340.5</ele><time>2026-04-11T06:05:41Z</time></trkpt><trkpt lat="43.46023268273306" lon="11.426969403543861"><ele>341.0</ele><time>2026-04-11T06:05:42Z</time></trkpt><trkpt lat="43.460156956367975" lon="11.4269312251199"><ele>341.5</ele><time>2026-04-11T06:05:43Z</time></trkpt><trkpt lat="43.46007723368943" lon="11.426895388893739"><ele>342.0</ele><time>2026-04-11T06:05:44Z</time></trkpt><trkpt lat="43.46000043562143" lon="11.426859156020411"><ele>342.5</ele><time>2026-04-11T06:05:45Z</time></trkpt><trkpt lat="43.45991968133434" lon="11.426827418170792"><ele>343.0</ele><time>2026-04-11T06:05:46Z</time></trkpt><trkpt lat="43.459845712953" lon="11.426789007597154"><ele>343.0</ele><time>2026-04-11T06:05:47Z</time></trkpt><trkpt lat="43.45976292570028" lon="11.426757300307635"><ele>343.0</ele><time>2026-04-11T06:05:48Z</time></trkpt><trkpt lat="43.45960291291378" lon="11.426694790367506"><ele>343.0</ele><time>2026-04-11T06:05:50Z</time></trkpt><trkpt lat="43.459525162044585" lon="11.426656371902986"><ele>343.0</ele><time>2026-04-11T06:05:51Z</time></trkpt><trkpt lat="43.45944778620242" lon="11.42661801824251"><ele>343.0</ele><time>2026-04-11T06:05:52Z</time></trkpt><trkpt lat="43.45936835165848" lon="11.426583486881384"><ele>342.3333333333333</ele><time>2026-04-11T06:05:53Z</time></trkpt><trkpt lat="43.45928949438425" lon="11.42654389063255"><ele>341.66666666666663</ele><time>2026-04-11T06:05:54Z</time></trkpt><trkpt lat="43.45921293326715" lon="11.426505846609675"><ele>341.0</ele><time>2026-04-11T06:05:55Z</time></trkpt><trkpt lat="43.45913395591423" lon="11.426472765699026"><ele>340.3333333333333</ele><time>2026-04-11T06:05:56Z</time></trkpt><trkpt lat="43.45905021479305" lon="11.426443470793467"><ele>339.6666666666667</ele><time>2026-04-11T06:05:57Z</time></trkpt><trkpt lat="43.45896811101762" lon="11.426408559678558"><ele>339.0</ele><time>2026-04-11T06:05:58Z</time></trkpt><trkpt lat="43.45888927459438" lon="11.42637351939368"><ele>339.0</ele><time>2026-04-11T06:05:59Z</time></trkpt><trkpt lat="43.45881099056379" lon="11.426338167606476"><ele>339.0</ele><time>2026-04-11T06:06:00Z</time></trkpt><trkpt lat="43.45872949248775" lon="11.426310097451168"><ele>339.0</ele><time>2026-04-11T06:06:01Z</time></trkpt><trkpt lat="43.45864904030853" lon="11.426276100854084"><ele>339.0</ele><time>2026-04-11T06:06:02Z</time></trkpt><trkpt lat="43.458571673054266" lon="11.426238255215146"><ele>339.0</ele><time>2026-04-11T06:06:03Z</time></trkpt><trkpt lat="43.45849295627488" lon="11.4261992008437"><ele>339.0</ele><time>2026-04-11T06:06:04Z</time></trkpt><trkpt lat="43.45841241555072" lon="11.426163510164839"><ele>338.4</ele><time>2026-04-11T06:06:05Z</time></trkpt><trkpt lat="43.458336372552594" lon="11.42612951219763"><ele>337.79999999999995</ele><time>2026-04-11T06:06:06Z</time></trkpt><trkpt lat="43.45825804292075" lon="11.426093782424463"><ele>337.20000000000005</ele><time>2026-04-11T06:06:07Z</time></trkpt><trkpt lat="43.45818019883136" lon="11.426060321275957"><ele>336.6</ele><time>2026-04-11T06:06:08Z</time></trkpt><trkpt lat="43.458102396316235" lon="11.4260266589932"><ele>336.0</ele><time>2026-04-11T06:06:09Z</time></trkpt><trkpt lat="43.45794407403492" lon="11.425960026276382"><ele>336.0</ele><time>2026-04-11T06:06:11Z</time></trkpt><trkpt lat="43.457866720647154" lon="11.425921642625195"><ele>336.0</ele><time>2026-04-11T06:06:12Z</time></trkpt><trkpt lat="43.45779081427144" lon="11.425887682545675"><ele>336.0</ele><time>2026-04-11T06:06:13Z</time></trkpt><trkpt lat="43.45771182896476" lon="11.42584959541523"><ele>336.0</ele><time>2026-04-11T06:06:14Z</time></trkpt><trkpt lat="43.457632889200006" lon="11.425815074352977"><ele>336.0</ele><time>2026-04-11T06:06:15Z</time></trkpt><trkpt lat="43.45755546673843" lon="11.425778241051423"><ele>336.0</ele><time>2026-04-11T06:06:16Z</time></trkpt><trkpt lat="43.45747724346219" lon="11.425746814303391"><ele>336.0</ele><time>2026-04-11T06:06:17Z</time></trkpt><trkpt lat="43.45740000497762" lon="11.42570813767322"><ele>336.0</ele><time>2026-04-11T06:06:18Z</time></trkpt><trkpt lat="43.4573230562982" lon="11.425677592504522"><ele>336.0</ele><time>2026-04-11T06:06:19Z</time></trkpt><trkpt lat="43.45724861533022" lon="11.425643454787508"><ele>336.0</ele><time>2026-04-11T06:06:20Z</time></trkpt><trkpt lat="43.4571700556427" lon="11.425620234970761"><ele>336.0</ele><time>2026-04-11T06:06:21Z</time></trkpt><trkpt lat="43.457098773485924" lon="11.425594972800361"><ele>336.0</ele><time>2026-04-11T06:06:22Z</time></trkpt><trkpt lat="43.457023356290314" lon="11.425571337230432"><ele>337.0</ele><time>2026-04-11T06:06:23Z</time></trkpt><trkpt lat="43.45694219073327" lon="11.425549080543842"><ele>338.0</ele><time>2026-04-11T06:06:24Z</time></trkpt><trkpt lat="43.456868636814505" lon="11.425529065985435"><ele>339.0</ele><time>2026-04-11T06:06:25Z</time></trkpt><trkpt lat="43.45679062844231" lon="11.425511821407067"><ele>340.0</ele><time>2026-04-11T06:06:26Z</time></trkpt><trkpt lat="43.45671407198329" lon="11.425508279766884"><ele>341.0</ele><time>2026-04-11T06:06:27Z</time></trkpt><trkpt lat="43.456638268754624" lon="11.425491234137652"><ele>342.0</ele><time>2026-04-11T06:06:28Z</time></trkpt><trkpt lat="43.4565649201" lon="11.425483022506535"><ele>342.0</ele><time>2026-04-11T06:06:29Z</time></trkpt><trkpt lat="43.45649574071725" lon="11.425482867125632"><ele>342.0</ele><time>2026-04-11T06:06:30Z</time></trkpt><trkpt lat="43.4563522586162" lon="11.425467065878891"><ele>342.0</ele><time>2026-04-11T06:06:32Z</time></trkpt><trkpt lat="43.45628982496118" lon="11.425444708676517"><ele>342.0</ele><time>2026-04-11T06:06:33Z</time></trkpt><trkpt lat="43.45622331160156" lon="11.425418651729808"><ele>342.0</ele><time>2026-04-11T06:06:34Z</time></trkpt><trkpt lat="43.456163854031196" lon="11.425374012689987"><ele>342.0</ele><time>2026-04-11T06:06:35Z</time></trkpt><trkpt lat="43.45610686190356" lon="11.425328729221073"><ele>341.2857142857143</ele><time>2026-04-11T06:06:36Z</time></trkpt><trkpt lat="43.456050822149386" lon="11.42527115566155"><ele>340.57142857142856</ele><time>2026-04-11T06:06:37Z</time></trkpt><trkpt lat="43.45599441180878" lon="11.425210251437862"><ele>339.8571428571429</ele><time>2026-04-11T06:06:38Z</time></trkpt><trkpt lat="43.455935746202464" lon="11.42516003566534"><ele>339.1428571428571</ele><time>2026-04-11T06:06:39Z</time></trkpt><trkpt lat="43.455879696447305" lon="11.425093166676003"><ele>338.42857142857144</ele><time>2026-04-11T06:06:40Z</time></trkpt><trkpt lat="43.455817858298296" lon="11.42503404241953"><ele>337.7142857142857</ele><time>2026-04-11T06:06:41Z</time></trkpt><trkpt lat="43.45575419230956" lon="11.424968386857199"><ele>337.0</ele><time>2026-04-11T06:06:42Z</time></trkpt><trkpt lat="43.455693770505015" lon="11.424905158531157"><ele>337.0</ele><time>2026-04-11T06:06:43Z</time></trkpt><trkpt lat="43.45563194017016" lon="11.424840516734506"><ele>337.0</ele><time>2026-04-11T06:06:44Z</time></trkpt><trkpt lat="43.45556813014428" lon="11.424771117716894"><ele>337.0</ele><time>2026-04-11T06:06:45Z</time></trkpt><trkpt lat="43.45550162093649" lon="11.424703801758088"><ele>337.0</ele><time>2026-04-11T06:06:46Z</time></trkpt><trkpt lat="43.45543759717736" lon="11.424640514083702"><ele>337.0</ele><time>2026-04-11T06:06:47Z</time></trkpt><trkpt lat="43.45537314997686" lon="11.42456861716433"><ele>337.0</ele><time>2026-04-11T06:06:48Z</time></trkpt><trkpt lat="43.45531098999706" lon="11.424495237779755"><ele>336.20000000000005</ele><time>2026-04-11T06:06:49Z</time></trkpt><trkpt lat="43.45524687770903" lon="11.424420798407903"><ele>335.4</ele><time>2026-04-11T06:06:50Z</time></trkpt><trkpt lat="43.45518853129142" lon="11.424354487695199"><ele>334.6</ele><time>2026-04-11T06:06:51Z</time></trkpt><trkpt lat="43.45505301994691" lon="11.424229903724635"><ele>333.79999999999995</ele><time>2026-04-11T06:06:53Z</time></trkpt><trkpt lat="43.45498207777576" lon="11.424172308094297"><ele>333.0</ele><time>2026-04-11T06:06:54Z</time></trkpt><trkpt lat="43.454907145492605" lon="11.424113610576812"><ele>333.0</ele><time>2026-04-11T06:06:55Z</time></trkpt><trkpt lat="43.454859528283905" lon="11.424047578809297"><ele>333.0</ele><time>2026-04-11T06:06:56Z</time></trkpt><trkpt lat="43.45479316717841" lon="11.423979183763251"><ele>333.0</ele><time>2026-04-11T06:06:57Z</time></trkpt><trkpt lat="43.45472840928808" lon="11.423921436532254"><ele>333.0</ele><time>2026-04-11T06:06:58Z</time></trkpt><trkpt lat="43.45467151812983" lon="11.423862978323708"><ele>333.0</ele><time>2026-04-11T06:06:59Z</time></trkpt><trkpt lat="43.45459457513436" lon="11.423794792513986"><ele>333.0</ele><time>2026-04-11T06:07:00Z</time></trkpt><trkpt lat="43.4545378780352" lon="11.423744954112983"><ele>332.6666666666667</ele><time>2026-04-11T06:07:01Z</time></trkpt><trkpt lat="43.45448271618718" lon="11.423677586000066"><ele>332.3333333333333</ele><time>2026-04-11T06:07:02Z</time></trkpt><trkpt lat="43.454424316525326" lon="11.423611983114396"><ele>332.0</ele><time>2026-04-11T06:07:03Z</time></trkpt><trkpt lat="43.45436849348386" lon="11.423525110504542"><ele>331.66666666666663</ele><time>2026-04-11T06:07:04Z</time></trkpt><trkpt lat="43.45430758474778" lon="11.423452920388819"><ele>331.3333333333333</ele><time>2026-04-11T06:07:05Z</time></trkpt><trkpt lat="43.45425163194401" lon="11.423364983567193"><ele>331.0</ele><time>2026-04-11T06:07:06Z</time></trkpt><trkpt lat="43.45419657614223" lon="11.423278329315524"><ele>331.0</ele><time>2026-04-11T06:07:07Z</time></trkpt><trkpt lat="43.454136608144765" lon="11.423194166580656"><ele>331.0</ele><time>2026-04-11T06:07:08Z</time></trkpt><trkpt lat="43.45407592444901" lon="11.42310469800819"><ele>331.0</ele><time>2026-04-11T06:07:09Z</time></trkpt><trkpt lat="43.45403505953981" lon="11.422999322518388"><ele>331.0</ele><time>2026-04-11T06:07:10Z</time></trkpt><trkpt lat="43.453972887181116" lon="11.422904802302554"><ele>331.0</ele><time>2026-04-11T06:07:11Z</time></trkpt><trkpt lat="43.453913416821834" lon="11.42279479404168"><ele>331.8</ele><time>2026-04-11T06:07:12Z</time></trkpt><trkpt lat="43.453798421831635" lon="11.42263025788464"><ele>332.6</ele><time>2026-04-11T06:07:14Z</time></trkpt><trkpt lat="43.453732936673035" lon="11.422539375686084"><ele>333.4</ele><time>2026-04-11T06:07:15Z</time></trkpt><trkpt lat="43.4536733085781" lon="11.42244710028125"><ele>334.2</ele><time>2026-04-11T06:07:16Z</time></trkpt><trkpt lat="43.45361405370159" lon="11.42235932517665"><ele>335.0</ele><time>2026-04-11T06:07:17Z</time></trkpt><trkpt lat="43.45355871304274" lon="11.422267333842804"><ele>334.4</ele><time>2026-04-11T06:07:18Z</time></trkpt><trkpt lat="43.45350923556513" lon="11.422173598729332"><ele>333.8</ele><time>2026-04-11T06:07:19Z</time></trkpt><trkpt lat="43.45341488305162" lon="11.42206043871344"><ele>333.20000000000005</ele><time>2026-04-11T06:07:20Z</time></trkpt><trkpt lat="43.4533407485493" lon="11.42190761653049"><ele>332.6</ele><time>2026-04-11T06:07:22Z</time></trkpt><trkpt lat="43.45329121290706" lon="11.421834679505844"><ele>332.0</ele><time>2026-04-11T06:07:23Z</time></trkpt><trkpt lat="43.4532355099137" lon="11.421752003788795"><ele>332.0</ele><time>2026-04-11T06:07:24Z</time></trkpt><trkpt lat="43.453186137974555" lon="11.421672485736654"><ele>332.0</ele><time>2026-04-11T06:07:25Z</time></trkpt><trkpt lat="43.45313354504578" lon="11.421598542964913"><ele>332.0</ele><time>2026-04-11T06:07:26Z</time></trkpt><trkpt lat="43.45307675218089" lon="11.421518540321902"><ele>332.0</ele><time>2026-04-11T06:07:27Z</time></trkpt><trkpt lat="43.45302404375534" lon="11.421453386915191"><ele>332.0</ele><time>2026-04-11T06:07:28Z</time></trkpt><trkpt lat="43.45296232128842" lon="11.421415873910613"><ele>332.0</ele><time>2026-04-11T06:07:29Z</time></trkpt><trkpt lat="43.45290158501216" lon="11.421377504450916"><ele>332.0</ele><time>2026-04-11T06:07:30Z</time></trkpt><trkpt lat="43.452770763978585" lon="11.421315784454803"><ele>332.5</ele><time>2026-04-11T06:07:32Z</time></trkpt><trkpt lat="43.452710580918485" lon="11.421273315291625"><ele>333.0</ele><time>2026-04-11T06:07:33Z</time></trkpt><trkpt lat="43.45260348341065" lon="11.421161312319562"><ele>333.5</ele><time>2026-04-11T06:07:35Z</time></trkpt><trkpt lat="43.45254652399348" lon="11.421098542340165"><ele>334.0</ele><time>2026-04-11T06:07:36Z</time></trkpt><trkpt lat="43.4524817490608" lon="11.42104705834863"><ele>334.5</ele><time>2026-04-11T06:07:37Z</time></trkpt><trkpt lat="43.45243851206202" lon="11.420981336824306"><ele>335.0</ele><time>2026-04-11T06:07:38Z</time></trkpt><trkpt lat="43.45239056496733" lon="11.420910990149762"><ele>335.0</ele><time>2026-04-11T06:07:39Z</time></trkpt><trkpt lat="43.45233131804706" lon="11.420843830471576"><ele>335.0</ele><time>2026-04-11T06:07:40Z</time></trkpt><trkpt lat="43.45228121167314" lon="11.420778403274944"><ele>335.0</ele><time>2026-04-11T06:07:41Z</time></trkpt><trkpt lat="43.45222390903892" lon="11.420711474323465"><ele>335.0</ele><time>2026-04-11T06:07:42Z</time></trkpt><trkpt lat="43.452193064504186" lon="11.420632126176915"><ele>335.0</ele><time>2026-04-11T06:07:43Z</time></trkpt><trkpt lat="43.45213055589697" lon="11.420505536280494"><ele>335.0</ele><time>2026-04-11T06:07:45Z</time></trkpt><trkpt lat="43.452054081369326" lon="11.420388386041749"><ele>334.2</ele><time>2026-04-11T06:07:47Z</time></trkpt><trkpt lat="43.4519683866291" lon="11.420286805757"><ele>333.4</ele><time>2026-04-11T06:07:49Z</time></trkpt><trkpt lat="43.45189492683188" lon="11.420165546104286"><ele>332.6</ele><time>2026-04-11T06:07:51Z</time></trkpt><trkpt lat="43.4518567916632" lon="11.420094655599852"><ele>331.8</ele><time>2026-04-11T06:07:52Z</time></trkpt><trkpt lat="43.451803305327786" lon="11.419994405189582"><ele>331.0</ele><time>2026-04-11T06:07:54Z</time></trkpt><trkpt lat="43.45167422261331" lon="11.419767176033265"><ele>331.0</ele><time>2026-04-11T06:07:58Z</time></trkpt><trkpt lat="43.45159490079495" lon="11.419660467592415"><ele>331.0</ele><time>2026-04-11T06:08:00Z</time></trkpt><trkpt lat="43.4515342527086" lon="11.419547942589219"><ele>331.0</ele><time>2026-04-11T06:08:02Z</time></trkpt><trkpt lat="43.45147578387908" lon="11.41950783605943"><ele>331.0</ele><time>2026-04-11T06:08:03Z</time></trkpt><trkpt lat="43.45137132791757" lon="11.41942024540496"><ele>331.0</ele><time>2026-04-11T06:08:05Z</time></trkpt><trkpt lat="43.4512660527612" lon="11.419338331811701"><ele>330.16666666666663</ele><time>2026-04-11T06:08:07Z</time></trkpt><trkpt lat="43.45116409307885" lon="11.419244066377953"><ele>329.3333333333333</ele><time>2026-04-11T06:08:09Z</time></trkpt><trkpt lat="43.451109352912376" lon="11.41919936557576"><ele>328.5</ele><time>2026-04-11T06:08:10Z</time></trkpt><trkpt lat="43.451052683188514" lon="11.419157385307926"><ele>327.6666666666667</ele><time>2026-04-11T06:08:11Z</time></trkpt><trkpt lat="43.450986906217246" lon="11.419125302833988"><ele>326.83333333333337</ele><time>2026-04-11T06:08:12Z</time></trkpt><trkpt lat="43.45092418601949" lon="11.419092667157221"><ele>326.0</ele><time>2026-04-11T06:08:13Z</time></trkpt><trkpt lat="43.45084994335428" lon="11.419065309353638"><ele>326.0</ele><time>2026-04-11T06:08:14Z</time></trkpt><trkpt lat="43.45075146848407" lon="11.419039711564231"><ele>326.0</ele><time>2026-04-11T06:08:15Z</time></trkpt><trkpt lat="43.450579959011385" lon="11.419017653103445"><ele>326.0</ele><time>2026-04-11T06:08:17Z</time></trkpt><trkpt lat="43.450503237838234" lon="11.418970718878114"><ele>326.0</ele><time>2026-04-11T06:08:18Z</time></trkpt><trkpt lat="43.450421900255364" lon="11.418965017068198"><ele>326.0</ele><time>2026-04-11T06:08:19Z</time></trkpt><trkpt lat="43.45033238321435" lon="11.418948081138861"><ele>325.6</ele><time>2026-04-11T06:08:20Z</time></trkpt><trkpt lat="43.45024688410094" lon="11.418936922332529"><ele>325.20000000000005</ele><time>2026-04-11T06:08:21Z</time></trkpt><trkpt lat="43.45013335212137" lon="11.41891095756964"><ele>324.79999999999995</ele><time>2026-04-11T06:08:22Z</time></trkpt><trkpt lat="43.45005659417374" lon="11.418918836793322"><ele>324.4</ele><time>2026-04-11T06:08:23Z</time></trkpt><trkpt lat="43.449967541853404" lon="11.418878585641997"><ele>324.0</ele><time>2026-04-11T06:08:24Z</time></trkpt><trkpt lat="43.449876947623444" lon="11.418821731475479"><ele>324.6666666666667</ele><time>2026-04-11T06:08:25Z</time></trkpt><trkpt lat="43.44979151791301" lon="11.418788270251634"><ele>325.3333333333333</ele><time>2026-04-11T06:08:26Z</time></trkpt><trkpt lat="43.449708896886996" lon="11.418752546048342"><ele>326.0</ele><time>2026-04-11T06:08:27Z</time></trkpt><trkpt lat="43.44961764170967" lon="11.418717140923352"><ele>326.66666666666663</ele><time>2026-04-11T06:08:28Z</time></trkpt><trkpt lat="43.449546755023576" lon="11.418669329986496"><ele>327.3333333333333</ele><time>2026-04-11T06:08:29Z</time></trkpt><trkpt lat="43.44945407711046" lon="11.418634505839306"><ele>328.0</ele><time>2026-04-11T06:08:30Z</time></trkpt><trkpt lat="43.44938971030287" lon="11.418603608996708"><ele>328.59999999999997</ele><time>2026-04-11T06:08:31Z</time></trkpt><trkpt lat="43.44931806284853" lon="11.418575601434881"><ele>329.2</ele><time>2026-04-11T06:08:32Z</time></trkpt><trkpt lat="43.449196422512905" lon="11.418558327913155"><ele>329.8</ele><time>2026-04-11T06:08:34Z</time></trkpt><trkpt lat="43.44912901208954" lon="11.418543750174193"><ele>330.4</ele><time>2026-04-11T06:08:35Z</time></trkpt><trkpt lat="43.44899874948359" lon="11.418526685363652"><ele>331.0</ele><time>2026-04-11T06:08:37Z</time></trkpt><trkpt lat="43.44878360486966" lon="11.418538406579664"><ele>331.0</ele><time>2026-04-11T06:08:41Z</time></trkpt><trkpt lat="43.448678647142316" lon="11.41853695583322"><ele>331.0</ele><time>2026-04-11T06:08:43Z</time></trkpt><trkpt lat="43.44856983793827" lon="11.418494499280685"><ele>331.0</ele><time>2026-04-11T06:08:45Z</time></trkpt><trkpt lat="43.44848307559524" lon="11.418469846104685"><ele>331.0</ele><time>2026-04-11T06:08:47Z</time></trkpt><trkpt lat="43.4483994094808" lon="11.418445081560685"><ele>331.0</ele><time>2026-04-11T06:08:49Z</time></trkpt><trkpt lat="43.4482939239857" lon="11.41840095339184"><ele>331.0</ele><time>2026-04-11T06:08:51Z</time></trkpt><trkpt lat="43.44821119336382" lon="11.418326412877219"><ele>331.0</ele><time>2026-04-11T06:08:53Z</time></trkpt><trkpt lat="43.448137789176045" lon="11.418259721162931"><ele>331.0</ele><time>2026-04-11T06:08:55Z</time></trkpt><trkpt lat="43.448065866714494" lon="11.418188190724686"><ele>331.0</ele><time>2026-04-11T06:08:57Z</time></trkpt><trkpt lat="43.44800406298701" lon="11.418114372061615"><ele>331.0</ele><time>2026-04-11T06:08:59Z</time></trkpt><trkpt lat="43.44786358687144" lon="11.41798674431305"><ele>332.16666666666663</ele><time>2026-04-11T06:09:03Z</time></trkpt><trkpt lat="43.447800794814" lon="11.417920800094427"><ele>333.3333333333333</ele><time>2026-04-11T06:09:05Z</time></trkpt><trkpt lat="43.447731453890604" lon="11.417868437913526"><ele>334.5</ele><time>2026-04-11T06:09:07Z</time></trkpt><trkpt lat="43.44765564960674" lon="11.417863278100533"><ele>335.6666666666667</ele><time>2026-04-11T06:09:09Z</time></trkpt><trkpt lat="43.4475890524843" lon="11.417789793410746"><ele>336.83333333333337</ele><time>2026-04-11T06:09:11Z</time></trkpt><trkpt lat="43.447525948089734" lon="11.4177579742635"><ele>338.0</ele><time>2026-04-11T06:09:13Z</time></trkpt><trkpt lat="43.44744534804727" lon="11.41772954661162"><ele>338.0</ele><time>2026-04-11T06:09:15Z</time></trkpt><trkpt lat="43.44736835587746" lon="11.417705018798172"><ele>338.0</ele><time>2026-04-11T06:09:17Z</time></trkpt><trkpt lat="43.44730600087229" lon="11.417686942883254"><ele>338.0</ele><time>2026-04-11T06:09:19Z</time></trkpt><trkpt lat="43.447231903590925" lon="11.417674001100316"><ele>338.0</ele><time>2026-04-11T06:09:21Z</time></trkpt><trkpt lat="43.44707882853242" lon="11.417617522678187"><ele>338.0</ele><time>2026-04-11T06:09:25Z</time></trkpt><trkpt lat="43.44700625981019" lon="11.417609083517682"><ele>338.0</ele><time>2026-04-11T06:09:27Z</time></trkpt><trkpt lat="43.44693272919089" lon="11.417602641248418"><ele>338.33333333333337</ele><time>2026-04-11T06:09:29Z</time></trkpt><trkpt lat="43.44685960703632" lon="11.417579354554386"><ele>338.6666666666667</ele><time>2026-04-11T06:09:31Z</time></trkpt><trkpt lat="43.44678392281465" lon="11.417559835279066"><ele>339.0</ele><time>2026-04-11T06:09:33Z</time></trkpt><trkpt lat="43.44670491046329" lon="11.417540031818573"><ele>339.3333333333333</ele><time>2026-04-11T06:09:35Z</time></trkpt><trkpt lat="43.44662794541692" lon="11.417524706069223"><ele>339.66666666666663</ele><time>2026-04-11T06:09:37Z</time></trkpt><trkpt lat="43.44654588984152" lon="11.417502252737217"><ele>340.0</ele><time>2026-04-11T06:09:39Z</time></trkpt><trkpt lat="43.446467733693105" lon="11.417482780149472"><ele>340.0</ele><time>2026-04-11T06:09:41Z</time></trkpt><trkpt lat="43.44639609877317" lon="11.417469977484561"><ele>340.0</ele><time>2026-04-11T06:09:43Z</time></trkpt><trkpt lat="43.44624622856521" lon="11.417463446023566"><ele>340.0</ele><time>2026-04-11T06:09:47Z</time></trkpt><trkpt lat="43.446166980281724" lon="11.417466382852771"><ele>340.0</ele><time>2026-04-11T06:09:49Z</time></trkpt><trkpt lat="43.44608429708626" lon="11.417496578628326"><ele>340.0</ele><time>2026-04-11T06:09:51Z</time></trkpt><trkpt lat="43.44601338570122" lon="11.417551388729215"><ele>340.3333333333333</ele><time>2026-04-11T06:09:53Z</time></trkpt><trkpt lat="43.445950717950716" lon="11.417630929195957"><ele>340.66666666666663</ele><time>2026-04-11T06:09:55Z</time></trkpt><trkpt lat="43.445897659291845" lon="11.417723879885417"><ele>341.0</ele><time>2026-04-11T06:09:57Z</time></trkpt><trkpt lat="43.445857749427326" lon="11.417808000191616"><ele>341.3333333333333</ele><time>2026-04-11T06:09:59Z</time></trkpt><trkpt lat="43.44582800934332" lon="11.417925456305289"><ele>341.6666666666667</ele><time>2026-04-11T06:10:01Z</time></trkpt><trkpt lat="43.44578335814928" lon="11.418029235786303"><ele>342.0</ele><time>2026-04-11T06:10:03Z</time></trkpt><trkpt lat="43.44575339312586" lon="11.418130012308666"><ele>342.0</ele><time>2026-04-11T06:10:05Z</time></trkpt><trkpt lat="43.44570303873375" lon="11.418383460316054"><ele>342.0</ele><time>2026-04-11T06:10:09Z</time></trkpt><trkpt lat="43.44566997896155" lon="11.418539767866651"><ele>342.0</ele><time>2026-04-11T06:10:11Z</time></trkpt><trkpt lat="43.4456523188859" lon="11.418693974360341"><ele>342.0</ele><time>2026-04-11T06:10:13Z</time></trkpt><trkpt lat="43.44564624234348" lon="11.418857055822183"><ele>340.40000000000003</ele><time>2026-04-11T06:10:15Z</time></trkpt><trkpt lat="43.44565387468705" lon="11.419028324489245"><ele>338.8</ele><time>2026-04-11T06:10:17Z</time></trkpt><trkpt lat="43.44565050551004" lon="11.419115666732162"><ele>337.2</ele><time>2026-04-11T06:10:18Z</time></trkpt><trkpt lat="43.44566646278367" lon="11.419277278906291"><ele>335.6</ele><time>2026-04-11T06:10:20Z</time></trkpt><trkpt lat="43.44565164087054" lon="11.419385321463242"><ele>334.0</ele><time>2026-04-11T06:10:21Z</time></trkpt><trkpt lat="43.44563617974359" lon="11.419479520675063"><ele>334.0</ele><time>2026-04-11T06:10:22Z</time></trkpt><trkpt lat="43.44560479281549" lon="11.419567040869676"><ele>334.0</ele><time>2026-04-11T06:10:23Z</time></trkpt><trkpt lat="43.44555425226228" lon="11.419646151282437"><ele>334.0</ele><time>2026-04-11T06:10:24Z</time></trkpt><trkpt lat="43.445487230984526" lon="11.419701100690027"><ele>334.0</ele><time>2026-04-11T06:10:25Z</time></trkpt><trkpt lat="43.445414861988745" lon="11.419743827024522"><ele>334.0</ele><time>2026-04-11T06:10:26Z</time></trkpt><trkpt lat="43.445271062965766" lon="11.419817556639398"><ele>334.8333333333333</ele><time>2026-04-11T06:10:28Z</time></trkpt><trkpt lat="43.44520101577397" lon="11.419868117594513"><ele>335.66666666666663</ele><time>2026-04-11T06:10:29Z</time></trkpt><trkpt lat="43.445129695662246" lon="11.419907436912954"><ele>336.5</ele><time>2026-04-11T06:10:30Z</time></trkpt><trkpt lat="43.44505366125234" lon="11.419942254322432"><ele>337.3333333333333</ele><time>2026-04-11T06:10:31Z</time></trkpt><trkpt lat="43.444982912186546" lon="11.419987274525722"><ele>338.1666666666667</ele><time>2026-04-11T06:10:32Z</time></trkpt><trkpt lat="43.4449077650827" lon="11.420028101035337"><ele>339.0</ele><time>2026-04-11T06:10:33Z</time></trkpt><trkpt lat="43.44483730575114" lon="11.420076827125406"><ele>339.0</ele><time>2026-04-11T06:10:34Z</time></trkpt><trkpt lat="43.44476297014449" lon="11.420124751169162"><ele>339.0</ele><time>2026-04-11T06:10:35Z</time></trkpt><trkpt lat="43.44469306891646" lon="11.420176140587607"><ele>339.0</ele><time>2026-04-11T06:10:36Z</time></trkpt><trkpt lat="43.44462586544142" lon="11.420235538443952"><ele>339.0</ele><time>2026-04-11T06:10:37Z</time></trkpt><trkpt lat="43.44455880195344" lon="11.420296573557534"><ele>339.0</ele><time>2026-04-11T06:10:38Z</time></trkpt><trkpt lat="43.44449080630257" lon="11.420363441144401"><ele>339.0</ele><time>2026-04-11T06:10:39Z</time></trkpt><trkpt lat="43.44443004339474" lon="11.420432454049532"><ele>338.6666666666667</ele><time>2026-04-11T06:10:40Z</time></trkpt><trkpt lat="43.444393280667846" lon="11.420536540036478"><ele>338.3333333333333</ele><time>2026-04-11T06:10:41Z</time></trkpt><trkpt lat="43.444343423977664" lon="11.420616892687136"><ele>338.0</ele><time>2026-04-11T06:10:42Z</time></trkpt><trkpt lat="43.44429740339575" lon="11.4206993633126"><ele>337.66666666666663</ele><time>2026-04-11T06:10:43Z</time></trkpt><trkpt lat="43.44424677858198" lon="11.420782252925855"><ele>337.3333333333333</ele><time>2026-04-11T06:10:44Z</time></trkpt><trkpt lat="43.44418626080598" lon="11.420857126940033"><ele>337.0</ele><time>2026-04-11T06:10:45Z</time></trkpt><trkpt lat="43.44411404430569" lon="11.420920892324238"><ele>337.0</ele><time>2026-04-11T06:10:46Z</time></trkpt><trkpt lat="43.4440390312411" lon="11.420974971956229"><ele>337.0</ele><time>2026-04-11T06:10:47Z</time></trkpt><trkpt lat="43.44388142264096" lon="11.42106988925436"><ele>337.0</ele><time>2026-04-11T06:10:49Z</time></trkpt><trkpt lat="43.44380276578534" lon="11.42111891514881"><ele>337.0</ele><time>2026-04-11T06:10:50Z</time></trkpt><trkpt lat="43.443742211081705" lon="11.42119468894072"><ele>337.0</ele><time>2026-04-11T06:10:51Z</time></trkpt><trkpt lat="43.443659477925806" lon="11.421247104062065"><ele>338.8</ele><time>2026-04-11T06:10:52Z</time></trkpt><trkpt lat="43.443574689093246" lon="11.42130627532877"><ele>340.6</ele><time>2026-04-11T06:10:53Z</time></trkpt><trkpt lat="43.44349889319391" lon="11.421367763249407"><ele>342.40000000000003</ele><time>2026-04-11T06:10:54Z</time></trkpt><trkpt lat="43.44341894828486" lon="11.421426630336587"><ele>344.20000000000005</ele><time>2026-04-11T06:10:55Z</time></trkpt><trkpt lat="43.44333469968181" lon="11.421477101928025"><ele>346.0</ele><time>2026-04-11T06:10:56Z</time></trkpt><trkpt lat="43.44324310093824" lon="11.421514656561175"><ele>342.4</ele><time>2026-04-11T06:10:57Z</time></trkpt><trkpt lat="43.443152583992934" lon="11.421539842567944"><ele>338.8</ele><time>2026-04-11T06:10:58Z</time></trkpt><trkpt lat="43.44306107870416" lon="11.421555944506858"><ele>335.2</ele><time>2026-04-11T06:10:59Z</time></trkpt><trkpt lat="43.442973054590446" lon="11.421552912955022"><ele>331.59999999999997</ele><time>2026-04-11T06:11:00Z</time></trkpt><trkpt lat="43.442883752986326" lon="11.421562465192899"><ele>328.0</ele><time>2026-04-11T06:11:01Z</time></trkpt><trkpt lat="43.44278901538772" lon="11.421541800342421"><ele>328.0</ele><time>2026-04-11T06:11:02Z</time></trkpt><trkpt lat="43.442697097627324" lon="11.421543992919275"><ele>328.0</ele><time>2026-04-11T06:11:03Z</time></trkpt><trkpt lat="43.44260745307318" lon="11.421537553958323"><ele>328.0</ele><time>2026-04-11T06:11:04Z</time></trkpt><trkpt lat="43.44251928005079" lon="11.421527628053738"><ele>328.0</ele><time>2026-04-11T06:11:05Z</time></trkpt><trkpt lat="43.44242557984626" lon="11.42150511954504"><ele>328.0</ele><time>2026-04-11T06:11:06Z</time></trkpt><trkpt lat="43.44233844876339" lon="11.42149375885731"><ele>328.0</ele><time>2026-04-11T06:11:07Z</time></trkpt><trkpt lat="43.4422471460569" lon="11.421490305649499"><ele>328.0</ele><time>2026-04-11T06:11:08Z</time></trkpt><trkpt lat="43.44206962419506" lon="11.421463361776935"><ele>328.0</ele><time>2026-04-11T06:11:10Z</time></trkpt><trkpt lat="43.44197730111836" lon="11.421455315050295"><ele>328.0</ele><time>2026-04-11T06:11:11Z</time></trkpt><trkpt lat="43.44188464202661" lon="11.421439556718774"><ele>327.0</ele><time>2026-04-11T06:11:12Z</time></trkpt><trkpt lat="43.4417960405549" lon="11.421422264099808"><ele>326.0</ele><time>2026-04-11T06:11:13Z</time></trkpt><trkpt lat="43.44170539623052" lon="11.421397048822431"><ele>325.0</ele><time>2026-04-11T06:11:14Z</time></trkpt><trkpt lat="43.441612371587595" lon="11.421389741012458"><ele>324.0</ele><time>2026-04-11T06:11:15Z</time></trkpt><trkpt lat="43.44151990334749" lon="11.421372675756984"><ele>323.0</ele><time>2026-04-11T06:11:16Z</time></trkpt><trkpt lat="43.44142255550554" lon="11.421357625148127"><ele>323.0</ele><time>2026-04-11T06:11:17Z</time></trkpt><trkpt lat="43.441331312669554" lon="11.42134532471736"><ele>323.0</ele><time>2026-04-11T06:11:18Z</time></trkpt><trkpt lat="43.44124171343217" lon="11.42132598279063"><ele>323.0</ele><time>2026-04-11T06:11:19Z</time></trkpt><trkpt lat="43.44115337866911" lon="11.421295433499399"><ele>323.0</ele><time>2026-04-11T06:11:20Z</time></trkpt><trkpt lat="43.441069688842525" lon="11.421249501063517"><ele>323.0</ele><time>2026-04-11T06:11:21Z</time></trkpt><trkpt lat="43.44098803812758" lon="11.421190901021447"><ele>324.4</ele><time>2026-04-11T06:11:22Z</time></trkpt><trkpt lat="43.44090890458484" lon="11.421130530626046"><ele>325.79999999999995</ele><time>2026-04-11T06:11:23Z</time></trkpt><trkpt lat="43.440829664990005" lon="11.421067513180084"><ele>327.2</ele><time>2026-04-11T06:11:24Z</time></trkpt><trkpt lat="43.440752791850734" lon="11.421001581877885"><ele>328.6</ele><time>2026-04-11T06:11:25Z</time></trkpt><trkpt lat="43.44067585880105" lon="11.42093627569923"><ele>330.0</ele><time>2026-04-11T06:11:26Z</time></trkpt><trkpt lat="43.44060288886837" lon="11.420867369759867"><ele>330.0</ele><time>2026-04-11T06:11:27Z</time></trkpt><trkpt lat="43.44052096852403" lon="11.420782584030855"><ele>330.0</ele><time>2026-04-11T06:11:28Z</time></trkpt><trkpt lat="43.44044740999529" lon="11.420727713589319"><ele>330.0</ele><time>2026-04-11T06:11:29Z</time></trkpt><trkpt lat="43.44026985190684" lon="11.420603702353198"><ele>330.0</ele><time>2026-04-11T06:11:31Z</time></trkpt><trkpt lat="43.44019321765601" lon="11.420543692716866"><ele>329.8</ele><time>2026-04-11T06:11:32Z</time></trkpt><trkpt lat="43.44011335580811" lon="11.420478063921012"><ele>329.6</ele><time>2026-04-11T06:11:33Z</time></trkpt><trkpt lat="43.44003834858256" lon="11.420403479024678"><ele>329.4</ele><time>2026-04-11T06:11:34Z</time></trkpt><trkpt lat="43.439963532373284" lon="11.420325645697966"><ele>329.2</ele><time>2026-04-11T06:11:35Z</time></trkpt><trkpt lat="43.43988261426954" lon="11.420260191910952"><ele>329.0</ele><time>2026-04-11T06:11:36Z</time></trkpt><trkpt lat="43.43980250541749" lon="11.420194507685657"><ele>329.0</ele><time>2026-04-11T06:11:37Z</time></trkpt><trkpt lat="43.439721003258335" lon="11.420132332466956"><ele>329.0</ele><time>2026-04-11T06:11:38Z</time></trkpt><trkpt lat="43.43964228636945" lon="11.420063476298372"><ele>329.0</ele><time>2026-04-11T06:11:39Z</time></trkpt><trkpt lat="43.439560079949324" lon="11.419992547836872"><ele>329.0</ele><time>2026-04-11T06:11:40Z</time></trkpt><trkpt lat="43.43948145413113" lon="11.419932514456196"><ele>329.0</ele><time>2026-04-11T06:11:41Z</time></trkpt><trkpt lat="43.43940240486373" lon="11.419869864775327"><ele>330.4</ele><time>2026-04-11T06:11:42Z</time></trkpt><trkpt lat="43.43931363949476" lon="11.419822496356828"><ele>331.79999999999995</ele><time>2026-04-11T06:11:43Z</time></trkpt><trkpt lat="43.43923096305147" lon="11.419772430283789"><ele>333.20000000000005</ele><time>2026-04-11T06:11:44Z</time></trkpt><trkpt lat="43.43914333619952" lon="11.419735212447346"><ele>334.6</ele><time>2026-04-11T06:11:45Z</time></trkpt><trkpt lat="43.439061131479235" lon="11.419677900691383"><ele>336.0</ele><time>2026-04-11T06:11:46Z</time></trkpt><trkpt lat="43.43896766367468" lon="11.419644387533042"><ele>336.0</ele><time>2026-04-11T06:11:47Z</time></trkpt><trkpt lat="43.438877210457186" lon="11.419625692205159"><ele>336.0</ele><time>2026-04-11T06:11:48Z</time></trkpt><trkpt lat="43.43878505231226" lon="11.4196143965621"><ele>336.0</ele><time>2026-04-11T06:11:49Z</time></trkpt><trkpt lat="43.43869319991542" lon="11.419600697749392"><ele>336.0</ele><time>2026-04-11T06:11:50Z</time></trkpt><trkpt lat="43.43850375997683" lon="11.419565481603152"><ele>334.6666666666667</ele><time>2026-04-11T06:11:52Z</time></trkpt><trkpt lat="43.43840632628494" lon="11.419569930610619"><ele>333.3333333333333</ele><time>2026-04-11T06:11:53Z</time></trkpt><trkpt lat="43.43831962251329" lon="11.419566018413772"><ele>332.0</ele><time>2026-04-11T06:11:54Z</time></trkpt><trkpt lat="43.43822884578445" lon="11.419562609924409"><ele>330.66666666666663</ele><time>2026-04-11T06:11:55Z</time></trkpt><trkpt lat="43.438139669238" lon="11.419552790859928"><ele>329.3333333333333</ele><time>2026-04-11T06:11:56Z</time></trkpt><trkpt lat="43.43805983243178" lon="11.41955279183792"><ele>328.0</ele><time>2026-04-11T06:11:57Z</time></trkpt><trkpt lat="43.437957598403884" lon="11.419505732090864"><ele>327.0</ele><time>2026-04-11T06:11:58Z</time></trkpt><trkpt lat="43.437862463668154" lon="11.419483626609285"><ele>326.0</ele><time>2026-04-11T06:11:59Z</time></trkpt><trkpt lat="43.43777256776306" lon="11.419470870342131"><ele>325.0</ele><time>2026-04-11T06:12:00Z</time></trkpt><trkpt lat="43.43767998977689" lon="11.419453759158532"><ele>324.0</ele><time>2026-04-11T06:12:01Z</time></trkpt><trkpt lat="43.43758834175677" lon="11.419441296998315"><ele>323.0</ele><time>2026-04-11T06:12:02Z</time></trkpt><trkpt lat="43.43749739173993" lon="11.419430216028465"><ele>323.0</ele><time>2026-04-11T06:12:03Z</time></trkpt><trkpt lat="43.437403014526694" lon="11.41941833450328"><ele>323.0</ele><time>2026-04-11T06:12:04Z</time></trkpt><trkpt lat="43.437309706662035" lon="11.41940572987063"><ele>323.0</ele><time>2026-04-11T06:12:05Z</time></trkpt><trkpt lat="43.43722154230225" lon="11.419370863111316"><ele>323.0</ele><time>2026-04-11T06:12:06Z</time></trkpt><trkpt lat="43.437131347288826" lon="11.419350081209227"><ele>323.0</ele><time>2026-04-11T06:12:07Z</time></trkpt><trkpt lat="43.43703744189289" lon="11.419337217578889"><ele>322.25</ele><time>2026-04-11T06:12:08Z</time></trkpt><trkpt lat="43.436945574422595" lon="11.419319452970504"><ele>321.5</ele><time>2026-04-11T06:12:09Z</time></trkpt><trkpt lat="43.4368534867544" lon="11.419310578045623"><ele>320.75</ele><time>2026-04-11T06:12:10Z</time></trkpt><trkpt lat="43.436757675272034" lon="11.419300769390864"><ele>320.0</ele><time>2026-04-11T06:12:11Z</time></trkpt><trkpt lat="43.43657703369317" lon="11.419264846842365"><ele>320.0</ele><time>2026-04-11T06:12:13Z</time></trkpt><trkpt lat="43.43648042715307" lon="11.419254825714644"><ele>320.0</ele><time>2026-04-11T06:12:14Z</time></trkpt><trkpt lat="43.436385190930686" lon="11.419240305844509"><ele>320.0</ele><time>2026-04-11T06:12:15Z</time></trkpt><trkpt lat="43.43630034595848" lon="11.419224016779898"><ele>320.0</ele><time>2026-04-11T06:12:16Z</time></trkpt><trkpt lat="43.43621568122491" lon="11.419205034140674"><ele>320.0</ele><time>2026-04-11T06:12:17Z</time></trkpt><trkpt lat="43.436126182268204" lon="11.419184113870495"><ele>319.2</ele><time>2026-04-11T06:12:18Z</time></trkpt><trkpt lat="43.43603357321242" lon="11.419168358110188"><ele>318.4</ele><time>2026-04-11T06:12:19Z</time></trkpt><trkpt lat="43.43593810176553" lon="11.419142936562684"><ele>317.6</ele><time>2026-04-11T06:12:20Z</time></trkpt><trkpt lat="43.435851370531665" lon="11.419130980224995"><ele>316.8</ele><time>2026-04-11T06:12:21Z</time></trkpt><trkpt lat="43.435762877050735" lon="11.41911891283236"><ele>316.0</ele><time>2026-04-11T06:12:22Z</time></trkpt><trkpt lat="43.43567264607339" lon="11.419103811298772"><ele>316.0</ele><time>2026-04-11T06:12:23Z</time></trkpt><trkpt lat="43.43558544496096" lon="11.419088723283664"><ele>316.0</ele><time>2026-04-11T06:12:24Z</time></trkpt><trkpt lat="43.435498551964436" lon="11.419077867999677"><ele>316.0</ele><time>2026-04-11T06:12:25Z</time></trkpt><trkpt lat="43.43540456652427" lon="11.419079777975403"><ele>316.0</ele><time>2026-04-11T06:12:26Z</time></trkpt><trkpt lat="43.43532055684291" lon="11.419079934771807"><ele>316.0</ele><time>2026-04-11T06:12:27Z</time></trkpt><trkpt lat="43.435227507372026" lon="11.419097455055734"><ele>316.0</ele><time>2026-04-11T06:12:28Z</time></trkpt><trkpt lat="43.435146979759004" lon="11.419125279056544"><ele>316.6</ele><time>2026-04-11T06:12:29Z</time></trkpt><trkpt lat="43.435079038450915" lon="11.419189917409065"><ele>317.20000000000005</ele><time>2026-04-11T06:12:30Z</time></trkpt><trkpt lat="43.43500204730065" lon="11.419254324256224"><ele>317.79999999999995</ele><time>2026-04-11T06:12:31Z</time></trkpt><trkpt lat="43.434928914837336" lon="11.419320033170827"><ele>318.4</ele><time>2026-04-11T06:12:32Z</time></trkpt><trkpt lat="43.434765544395205" lon="11.419444211945576"><ele>319.0</ele><time>2026-04-11T06:12:34Z</time></trkpt><trkpt lat="43.43469672809887" lon="11.419521812947892"><ele>318.4</ele><time>2026-04-11T06:12:35Z</time></trkpt><trkpt lat="43.434620348692484" lon="11.419601144306487"><ele>317.79999999999995</ele><time>2026-04-11T06:12:36Z</time></trkpt><trkpt lat="43.434549064550225" lon="11.419665215274476"><ele>317.20000000000005</ele><time>2026-04-11T06:12:37Z</time></trkpt><trkpt lat="43.434477892856656" lon="11.41975016923148"><ele>316.6</ele><time>2026-04-11T06:12:38Z</time></trkpt><trkpt lat="43.434405926252914" lon="11.419834983970523"><ele>316.0</ele><time>2026-04-11T06:12:39Z</time></trkpt><trkpt lat="43.43433471528917" lon="11.419915927508415"><ele>316.0</ele><time>2026-04-11T06:12:40Z</time></trkpt><trkpt lat="43.43426582422981" lon="11.420007213879192"><ele>316.0</ele><time>2026-04-11T06:12:41Z</time></trkpt><trkpt lat="43.43420036927228" lon="11.420097484594185"><ele>316.0</ele><time>2026-04-11T06:12:42Z</time></trkpt><trkpt lat="43.434131962019514" lon="11.420203122237407"><ele>316.0</ele><time>2026-04-11T06:12:43Z</time></trkpt><trkpt lat="43.4340609272978" lon="11.420294046134376"><ele>316.0</ele><time>2026-04-11T06:12:44Z</time></trkpt><trkpt lat="43.43398147915532" lon="11.420353856759897"><ele>316.0</ele><time>2026-04-11T06:12:45Z</time></trkpt><trkpt lat="43.4339009192993" lon="11.420428946639653"><ele>316.0</ele><time>2026-04-11T06:12:46Z</time></trkpt><trkpt lat="43.4338362525726" lon="11.420523307111935"><ele>316.0</ele><time>2026-04-11T06:12:47Z</time></trkpt><trkpt lat="43.43376665396867" lon="11.420605864599176"><ele>316.0</ele><time>2026-04-11T06:12:48Z</time></trkpt><trkpt lat="43.43370136236716" lon="11.420694292503406"><ele>316.0</ele><time>2026-04-11T06:12:49Z</time></trkpt><trkpt lat="43.43363328012806" lon="11.420775795480482"><ele>312.75</ele><time>2026-04-11T06:12:50Z</time></trkpt><trkpt lat="43.43355505187806" lon="11.42084283747996"><ele>309.5</ele><time>2026-04-11T06:12:51Z</time></trkpt><trkpt lat="43.433468497153584" lon="11.420886605201181"><ele>306.25</ele><time>2026-04-11T06:12:52Z</time></trkpt><trkpt lat="43.43338072862534" lon="11.420898581070524"><ele>303.0</ele><time>2026-04-11T06:12:53Z</time></trkpt><trkpt lat="43.433213111536226" lon="11.42072644639812"><ele>303.0</ele><time>2026-04-11T06:12:55Z</time></trkpt><trkpt lat="43.433144537839354" lon="11.420623924087618"><ele>303.0</ele><time>2026-04-11T06:12:56Z</time></trkpt><trkpt lat="43.43309736037061" lon="11.420512952429736"><ele>303.0</ele><time>2026-04-11T06:12:57Z</time></trkpt><trkpt lat="43.4330718551897" lon="11.420389165233912"><ele>303.0</ele><time>2026-04-11T06:12:58Z</time></trkpt><trkpt lat="43.43302291039219" lon="11.420282353159285"><ele>303.0</ele><time>2026-04-11T06:12:59Z</time></trkpt><trkpt lat="43.43297762295401" lon="11.42018020326323"><ele>303.1666666666667</ele><time>2026-04-11T06:13:00Z</time></trkpt><trkpt lat="43.432936866592144" lon="11.42007384755521"><ele>303.3333333333333</ele><time>2026-04-11T06:13:01Z</time></trkpt><trkpt lat="43.43289318168408" lon="11.419969460256278"><ele>303.5</ele><time>2026-04-11T06:13:02Z</time></trkpt><trkpt lat="43.432845444092635" lon="11.419868196370752"><ele>303.66666666666663</ele><time>2026-04-11T06:13:03Z</time></trkpt><trkpt lat="43.432812858166365" lon="11.419766383017556"><ele>303.8333333333333</ele><time>2026-04-11T06:13:04Z</time></trkpt><trkpt lat="43.43276242543328" lon="11.419664085452867"><ele>304.0</ele><time>2026-04-11T06:13:05Z</time></trkpt><trkpt lat="43.43271817022766" lon="11.419564520253207"><ele>304.0</ele><time>2026-04-11T06:13:06Z</time></trkpt><trkpt lat="43.43266797555881" lon="11.419466180223141"><ele>304.0</ele><time>2026-04-11T06:13:07Z</time></trkpt><trkpt lat="43.43259857301521" lon="11.419362997504956"><ele>304.0</ele><time>2026-04-11T06:13:08Z</time></trkpt><trkpt lat="43.43253329775318" lon="11.419293500666178"><ele>304.0</ele><time>2026-04-11T06:13:09Z</time></trkpt><trkpt lat="43.43246906158618" lon="11.41921643690992"><ele>304.0</ele><time>2026-04-11T06:13:10Z</time></trkpt><trkpt lat="43.43240727297011" lon="11.419146926844359"><ele>304.0</ele><time>2026-04-11T06:13:11Z</time></trkpt><trkpt lat="43.432343152012685" lon="11.419050674493315"><ele>304.0</ele><time>2026-04-11T06:13:12Z</time></trkpt><trkpt lat="43.43229787622857" lon="11.418971467833142"><ele>304.0</ele><time>2026-04-11T06:13:13Z</time></trkpt><trkpt lat="43.43223965459402" lon="11.4188856524913"><ele>304.0</ele><time>2026-04-11T06:13:14Z</time></trkpt><trkpt lat="43.432119650080004" lon="11.418720501278502"><ele>304.0</ele><time>2026-04-11T06:13:16Z</time></trkpt><trkpt lat="43.43206548837882" lon="11.418642005697748"><ele>304.0</ele><time>2026-04-11T06:13:17Z</time></trkpt><trkpt lat="43.432008658909155" lon="11.418554327919809"><ele>303.16666666666663</ele><time>2026-04-11T06:13:18Z</time></trkpt><trkpt lat="43.43195620516287" lon="11.418474354509055"><ele>302.3333333333333</ele><time>2026-04-11T06:13:19Z</time></trkpt><trkpt lat="43.43190898277816" lon="11.418401411523485"><ele>301.5</ele><time>2026-04-11T06:13:20Z</time></trkpt><trkpt lat="43.43185580229653" lon="11.41830756721794"><ele>300.6666666666667</ele><time>2026-04-11T06:13:21Z</time></trkpt><trkpt lat="43.43179653718525" lon="11.418241264758388"><ele>299.83333333333337</ele><time>2026-04-11T06:13:22Z</time></trkpt><trkpt lat="43.431741059354216" lon="11.418164281736374"><ele>299.0</ele><time>2026-04-11T06:13:23Z</time></trkpt><trkpt lat="43.43168578827133" lon="11.418087403314006"><ele>299.0</ele><time>2026-04-11T06:13:24Z</time></trkpt><trkpt lat="43.431632404359135" lon="11.418009506022305"><ele>299.0</ele><time>2026-04-11T06:13:25Z</time></trkpt><trkpt lat="43.43155171603187" lon="11.417877717160284"><ele>299.0</ele><time>2026-04-11T06:13:27Z</time></trkpt><trkpt lat="43.43150539643877" lon="11.417809558968369"><ele>299.0</ele><time>2026-04-11T06:13:28Z</time></trkpt><trkpt lat="43.43145315367263" lon="11.417748955397318"><ele>299.0</ele><time>2026-04-11T06:13:29Z</time></trkpt><trkpt lat="43.43137327878417" lon="11.41763088484707"><ele>299.4</ele><time>2026-04-11T06:13:31Z</time></trkpt><trkpt lat="43.43126310256228" lon="11.41756506519606"><ele>299.79999999999995</ele><time>2026-04-11T06:13:33Z</time></trkpt><trkpt lat="43.431199063071915" lon="11.417641163035128"><ele>300.20000000000005</ele><time>2026-04-11T06:13:34Z</time></trkpt><trkpt lat="43.43111342561042" lon="11.417675550534597"><ele>300.6</ele><time>2026-04-11T06:13:35Z</time></trkpt><trkpt lat="43.430981646944225" lon="11.4177461733055"><ele>301.0</ele><time>2026-04-11T06:13:37Z</time></trkpt><trkpt lat="43.43091909102742" lon="11.417796779447578"><ele>301.0</ele><time>2026-04-11T06:13:38Z</time></trkpt><trkpt lat="43.43085806692047" lon="11.4178663171302"><ele>301.0</ele><time>2026-04-11T06:13:39Z</time></trkpt><trkpt lat="43.43075760608607" lon="11.41793512514189"><ele>301.0</ele><time>2026-04-11T06:13:41Z</time></trkpt><trkpt lat="43.430688188569086" lon="11.417973287833146"><ele>301.0</ele><time>2026-04-11T06:13:42Z</time></trkpt><trkpt lat="43.43063054264847" lon="11.418015517902065"><ele>301.0</ele><time>2026-04-11T06:13:43Z</time></trkpt><trkpt lat="43.43051544711606" lon="11.418096903296652"><ele>301.16666666666663</ele><time>2026-04-11T06:13:45Z</time></trkpt><trkpt lat="43.43045988579147" lon="11.418139670769829"><ele>301.3333333333333</ele><time>2026-04-11T06:13:46Z</time></trkpt><trkpt lat="43.430398959356296" lon="11.418182474202961"><ele>301.5</ele><time>2026-04-11T06:13:47Z</time></trkpt><trkpt lat="43.430294216887965" lon="11.418258155409797"><ele>301.6666666666667</ele><time>2026-04-11T06:13:49Z</time></trkpt><trkpt lat="43.43023549513874" lon="11.418304162689493"><ele>301.83333333333337</ele><time>2026-04-11T06:13:50Z</time></trkpt><trkpt lat="43.43017369268185" lon="11.418343504899548"><ele>302.0</ele><time>2026-04-11T06:13:51Z</time></trkpt><trkpt lat="43.430116132853406" lon="11.418382313338551"><ele>302.0</ele><time>2026-04-11T06:13:52Z</time></trkpt><trkpt lat="43.430060510645944" lon="11.418424043816211"><ele>302.0</ele><time>2026-04-11T06:13:53Z</time></trkpt><trkpt lat="43.42995824331546" lon="11.418510974034348"><ele>302.0</ele><time>2026-04-11T06:13:55Z</time></trkpt><trkpt lat="43.429840899975304" lon="11.418604390731655"><ele>302.0</ele><time>2026-04-11T06:13:57Z</time></trkpt><trkpt lat="43.4297035330896" lon="11.41867944557473"><ele>302.0</ele><time>2026-04-11T06:13:59Z</time></trkpt><trkpt lat="43.42964537803498" lon="11.418722141185171"><ele>302.0</ele><time>2026-04-11T06:14:00Z</time></trkpt><trkpt lat="43.42954372621091" lon="11.41880439266616"><ele>302.0</ele><time>2026-04-11T06:14:02Z</time></trkpt><trkpt lat="43.429443174571674" lon="11.418872724983729"><ele>302.0</ele><time>2026-04-11T06:14:04Z</time></trkpt><trkpt lat="43.42934599289741" lon="11.41893601225421"><ele>302.0</ele><time>2026-04-11T06:14:06Z</time></trkpt><trkpt lat="43.429246798287814" lon="11.418994218017723"><ele>303.6</ele><time>2026-04-11T06:14:08Z</time></trkpt><trkpt lat="43.42916346555728" lon="11.419025765155066"><ele>305.2</ele><time>2026-04-11T06:14:10Z</time></trkpt><trkpt lat="43.42906043688261" lon="11.419075431838099"><ele>306.8</ele><time>2026-04-11T06:14:12Z</time></trkpt><trkpt lat="43.428957355392335" lon="11.41906639913662"><ele>308.4</ele><time>2026-04-11T06:14:14Z</time></trkpt><trkpt lat="43.42886645277014" lon="11.419093232343036"><ele>310.0</ele><time>2026-04-11T06:14:16Z</time></trkpt><trkpt lat="43.42877485879036" lon="11.419097123979812"><ele>310.2</ele><time>2026-04-11T06:14:18Z</time></trkpt><trkpt lat="43.42861502144716" lon="11.419139271076835"><ele>310.4</ele><time>2026-04-11T06:14:22Z</time></trkpt><trkpt lat="43.4285336498856" lon="11.419147390320619"><ele>310.6</ele><time>2026-04-11T06:14:24Z</time></trkpt><trkpt lat="43.42846808498377" lon="11.419206565387826"><ele>310.8</ele><time>2026-04-11T06:14:26Z</time></trkpt><trkpt lat="43.428399030005636" lon="11.4192562286037"><ele>311.0</ele><time>2026-04-11T06:14:28Z</time></trkpt><trkpt lat="43.428332195774445" lon="11.419310715009182"><ele>311.0</ele><time>2026-04-11T06:14:30Z</time></trkpt><trkpt lat="43.42826133472439" lon="11.419369515856802"><ele>311.0</ele><time>2026-04-11T06:14:32Z</time></trkpt><trkpt lat="43.42818353096858" lon="11.419423760026339"><ele>311.0</ele><time>2026-04-11T06:14:34Z</time></trkpt><trkpt lat="43.42813126488868" lon="11.419489456291085"><ele>311.0</ele><time>2026-04-11T06:14:36Z</time></trkpt><trkpt lat="43.42805315994204" lon="11.419550825811006"><ele>311.0</ele><time>2026-04-11T06:14:38Z</time></trkpt><trkpt lat="43.42799863390461" lon="11.419617855908715"><ele>311.0</ele><time>2026-04-11T06:14:40Z</time></trkpt><trkpt lat="43.42790147853366" lon="11.41977621950892"><ele>311.2857142857143</ele><time>2026-04-11T06:14:44Z</time></trkpt><trkpt lat="43.427841158989" lon="11.419849042920033"><ele>311.5714285714286</ele><time>2026-04-11T06:14:46Z</time></trkpt><trkpt lat="43.42780280647507" lon="11.419935990425595"><ele>311.8571428571429</ele><time>2026-04-11T06:14:48Z</time></trkpt><trkpt lat="43.4277693893906" lon="11.420026137347119"><ele>312.1428571428571</ele><time>2026-04-11T06:14:50Z</time></trkpt><trkpt lat="43.4277498434038" lon="11.42012166138044"><ele>312.42857142857144</ele><time>2026-04-11T06:14:52Z</time></trkpt><trkpt lat="43.427742830174964" lon="11.420216751547077"><ele>312.7142857142857</ele><time>2026-04-11T06:14:54Z</time></trkpt><trkpt lat="43.42773353330698" lon="11.4203245044827"><ele>313.0</ele><time>2026-04-11T06:14:56Z</time></trkpt><trkpt lat="43.427744101726404" lon="11.420435877757763"><ele>312.6</ele><time>2026-04-11T06:14:58Z</time></trkpt><trkpt lat="43.42776688387567" lon="11.420537390007764"><ele>312.20000000000005</ele><time>2026-04-11T06:15:00Z</time></trkpt><trkpt lat="43.427787532217124" lon="11.420641300044032"><ele>311.8</ele><time>2026-04-11T06:15:02Z</time></trkpt><trkpt lat="43.42781615419409" lon="11.420855741089131"><ele>311.40000000000003</ele><time>2026-04-11T06:15:06Z</time></trkpt><trkpt lat="43.42782047764062" lon="11.42095017815741"><ele>311.0</ele><time>2026-04-11T06:15:08Z</time></trkpt><trkpt lat="43.42782939087467" lon="11.42106240338618"><ele>311.0</ele><time>2026-04-11T06:15:10Z</time></trkpt><trkpt lat="43.427844732395656" lon="11.421157012066493"><ele>311.0</ele><time>2026-04-11T06:15:12Z</time></trkpt><trkpt lat="43.42786374530742" lon="11.421265935294826"><ele>311.0</ele><time>2026-04-11T06:15:14Z</time></trkpt><trkpt lat="43.42788988769308" lon="11.421368122699498"><ele>311.0</ele><time>2026-04-11T06:15:16Z</time></trkpt><trkpt lat="43.427899532428356" lon="11.42146251972963"><ele>311.0</ele><time>2026-04-11T06:15:18Z</time></trkpt><trkpt lat="43.427859978028344" lon="11.421570028388397"><ele>311.0</ele><time>2026-04-11T06:15:20Z</time></trkpt><trkpt lat="43.427835128300416" lon="11.42165894730233"><ele>310.8</ele><time>2026-04-11T06:15:22Z</time></trkpt><trkpt lat="43.427829959628916" lon="11.421757059709426"><ele>310.6</ele><time>2026-04-11T06:15:24Z</time></trkpt><trkpt lat="43.427778407336575" lon="11.421970490574587"><ele>310.4</ele><time>2026-04-11T06:15:28Z</time></trkpt><trkpt lat="43.427759813962446" lon="11.422104761542593"><ele>310.2</ele><time>2026-04-11T06:15:31Z</time></trkpt><trkpt lat="43.427735116398594" lon="11.422200593448505"><ele>310.0</ele><time>2026-04-11T06:15:33Z</time></trkpt><trkpt lat="43.42772393185084" lon="11.422300838735502"><ele>311.3333333333333</ele><time>2026-04-11T06:15:35Z</time></trkpt><trkpt lat="43.427679196300595" lon="11.42237781421838"><ele>312.66666666666663</ele><time>2026-04-11T06:15:37Z</time></trkpt><trkpt lat="43.42763696216177" lon="11.422460521734584"><ele>314.0</ele><time>2026-04-11T06:15:39Z</time></trkpt><trkpt lat="43.42759452295349" lon="11.422537626843416"><ele>315.3333333333333</ele><time>2026-04-11T06:15:41Z</time></trkpt><trkpt lat="43.42753952431207" lon="11.422609968824403"><ele>316.6666666666667</ele><time>2026-04-11T06:15:43Z</time></trkpt><trkpt lat="43.42746491113585" lon="11.422655343349993"><ele>318.0</ele><time>2026-04-11T06:15:45Z</time></trkpt><trkpt lat="43.42731791462696" lon="11.422723498082767"><ele>318.0</ele><time>2026-04-11T06:15:49Z</time></trkpt><trkpt lat="43.42724315932782" lon="11.422758233721803"><ele>318.0</ele><time>2026-04-11T06:15:51Z</time></trkpt><trkpt lat="43.42715141044986" lon="11.422768856692779"><ele>318.0</ele><time>2026-04-11T06:15:54Z</time></trkpt><trkpt lat="43.427067450209755" lon="11.422783634861936"><ele>318.0</ele><time>2026-04-11T06:15:56Z</time></trkpt><trkpt lat="43.42700195239115" lon="11.422787411938627"><ele>318.0</ele><time>2026-04-11T06:15:58Z</time></trkpt><trkpt lat="43.4269305071779" lon="11.422794304672744"><ele>318.0</ele><time>2026-04-11T06:16:00Z</time></trkpt><trkpt lat="43.42686473360863" lon="11.422816017374387"><ele>317.2</ele><time>2026-04-11T06:16:02Z</time></trkpt><trkpt lat="43.426773135664234" lon="11.422828366429558"><ele>316.4</ele><time>2026-04-11T06:16:04Z</time></trkpt><trkpt lat="43.426683905001134" lon="11.422835529205202"><ele>315.59999999999997</ele><time>2026-04-11T06:16:07Z</time></trkpt><trkpt lat="43.42649674159147" lon="11.422914689067388"><ele>314.8</ele><time>2026-04-11T06:16:12Z</time></trkpt><trkpt lat="43.426434118466645" lon="11.42294341936485"><ele>314.0</ele><time>2026-04-11T06:16:14Z</time></trkpt><trkpt lat="43.42636960277648" lon="11.422953233117859"><ele>314.1666666666667</ele><time>2026-04-11T06:16:16Z</time></trkpt><trkpt lat="43.42629592527809" lon="11.423007605520564"><ele>314.33333333333337</ele><time>2026-04-11T06:16:19Z</time></trkpt><trkpt lat="43.42623522334757" lon="11.423064197109918"><ele>314.5</ele><time>2026-04-11T06:16:21Z</time></trkpt><trkpt lat="43.42615593696485" lon="11.423171914596407"><ele>314.6666666666667</ele><time>2026-04-11T06:16:24Z</time></trkpt><trkpt lat="43.42615220528932" lon="11.423274976266159"><ele>314.8333333333333</ele><time>2026-04-11T06:16:26Z</time></trkpt><trkpt lat="43.426155848419974" lon="11.423374553386227"><ele>315.0</ele><time>2026-04-11T06:16:28Z</time></trkpt><trkpt lat="43.426179921672315" lon="11.423570118264928"><ele>315.0</ele><time>2026-04-11T06:16:32Z</time></trkpt><trkpt lat="43.42620513643034" lon="11.423687336312014"><ele>315.0</ele><time>2026-04-11T06:16:34Z</time></trkpt><trkpt lat="43.42623374481294" lon="11.423796892831467"><ele>315.0</ele><time>2026-04-11T06:16:36Z</time></trkpt><trkpt lat="43.4262503484151" lon="11.42391372786336"><ele>315.0</ele><time>2026-04-11T06:16:38Z</time></trkpt><trkpt lat="43.42631595183898" lon="11.424024151282039"><ele>315.0</ele><time>2026-04-11T06:16:40Z</time></trkpt><trkpt lat="43.426347048051255" lon="11.424151967671722"><ele>317.8</ele><time>2026-04-11T06:16:42Z</time></trkpt><trkpt lat="43.42636643858385" lon="11.424289120541248"><ele>320.6</ele><time>2026-04-11T06:16:44Z</time></trkpt><trkpt lat="43.426410418029135" lon="11.424428075519906"><ele>323.4</ele><time>2026-04-11T06:16:46Z</time></trkpt><trkpt lat="43.42642399044653" lon="11.424561658220757"><ele>326.2</ele><time>2026-04-11T06:16:48Z</time></trkpt><trkpt lat="43.42647242066067" lon="11.424710299266705"><ele>329.0</ele><time>2026-04-11T06:16:50Z</time></trkpt><trkpt lat="43.426504038267375" lon="11.424964885506576"><ele>329.0</ele><time>2026-04-11T06:16:54Z</time></trkpt><trkpt lat="43.426531097578085" lon="11.425084073590945"><ele>329.0</ele><time>2026-04-11T06:16:56Z</time></trkpt><trkpt lat="43.42655235253183" lon="11.425225737812326"><ele>329.0</ele><time>2026-04-11T06:16:58Z</time></trkpt><trkpt lat="43.426590070579785" lon="11.425357581993781"><ele>329.0</ele><time>2026-04-11T06:17:00Z</time></trkpt><trkpt lat="43.42658892902109" lon="11.425502308685969"><ele>329.0</ele><time>2026-04-11T06:17:02Z</time></trkpt><trkpt lat="43.42658947762313" lon="11.425649791246038"><ele>329.2</ele><time>2026-04-11T06:17:04Z</time></trkpt><trkpt lat="43.42659259652976" lon="11.425774731482027"><ele>329.4</ele><time>2026-04-11T06:17:06Z</time></trkpt><trkpt lat="43.42658815765217" lon="11.425923913564706"><ele>329.6</ele><time>2026-04-11T06:17:08Z</time></trkpt><trkpt lat="43.4265856448654" lon="11.426036322512816"><ele>329.8</ele><time>2026-04-11T06:17:09Z</time></trkpt><trkpt lat="43.42652930398252" lon="11.426189076127006"><ele>330.0</ele><time>2026-04-11T06:17:11Z</time></trkpt><trkpt lat="43.426476452118926" lon="11.426365647268343"><ele>330.2</ele><time>2026-04-11T06:17:13Z</time></trkpt><trkpt lat="43.426447455399206" lon="11.42650382792923"><ele>330.4</ele><time>2026-04-11T06:17:15Z</time></trkpt><trkpt lat="43.42640543884477" lon="11.426640655200229"><ele>330.6</ele><time>2026-04-11T06:17:17Z</time></trkpt><trkpt lat="43.426361216229274" lon="11.426774989451069"><ele>330.8</ele><time>2026-04-11T06:17:19Z</time></trkpt><trkpt lat="43.42631577812228" lon="11.42690970730829"><ele>331.0</ele><time>2026-04-11T06:17:21Z</time></trkpt><trkpt lat="43.426249977281216" lon="11.427031165859445"><ele>330.20000000000005</ele><time>2026-04-11T06:17:23Z</time></trkpt><trkpt lat="43.42617839159048" lon="11.427149086212166"><ele>329.40000000000003</ele><time>2026-04-11T06:17:25Z</time></trkpt><trkpt lat="43.42609350687236" lon="11.427250501075505"><ele>328.6</ele><time>2026-04-11T06:17:27Z</time></trkpt><trkpt lat="43.426025404329074" lon="11.427349109675113"><ele>327.8</ele><time>2026-04-11T06:17:29Z</time></trkpt><trkpt lat="43.42596326186043" lon="11.427454324325685"><ele>327.0</ele><time>2026-04-11T06:17:31Z</time></trkpt><trkpt lat="43.42591903559551" lon="11.427585833834137"><ele>327.0</ele><time>2026-04-11T06:17:33Z</time></trkpt><trkpt lat="43.42591219544662" lon="11.427867366493336"><ele>327.0</ele><time>2026-04-11T06:17:37Z</time></trkpt><trkpt lat="43.425915008734236" lon="11.428009944450444"><ele>327.0</ele><time>2026-04-11T06:17:39Z</time></trkpt><trkpt lat="43.4259130176467" lon="11.428162674584124"><ele>327.0</ele><time>2026-04-11T06:17:41Z</time></trkpt><trkpt lat="43.42591315388301" lon="11.42829412889554"><ele>327.20000000000005</ele><time>2026-04-11T06:17:43Z</time></trkpt><trkpt lat="43.42591714724245" lon="11.42843516900412"><ele>327.4</ele><time>2026-04-11T06:17:45Z</time></trkpt><trkpt lat="43.425916095532344" lon="11.428566891057285"><ele>327.6</ele><time>2026-04-11T06:17:47Z</time></trkpt><trkpt lat="43.42591874067161" lon="11.428702059312394"><ele>327.79999999999995</ele><time>2026-04-11T06:17:49Z</time></trkpt><trkpt lat="43.42591341446157" lon="11.428838855750731"><ele>328.0</ele><time>2026-04-11T06:17:51Z</time></trkpt><trkpt lat="43.42590841894478" lon="11.428985364509705"><ele>329.0</ele><time>2026-04-11T06:17:53Z</time></trkpt><trkpt lat="43.425917538289134" lon="11.429111765059345"><ele>330.0</ele><time>2026-04-11T06:17:55Z</time></trkpt><trkpt lat="43.42592585996311" lon="11.429365250298158"><ele>331.0</ele><time>2026-04-11T06:17:59Z</time></trkpt><trkpt lat="43.42592930717242" lon="11.42948547370331"><ele>332.0</ele><time>2026-04-11T06:18:01Z</time></trkpt><trkpt lat="43.425926041696066" lon="11.429617563252597"><ele>332.0</ele><time>2026-04-11T06:18:03Z</time></trkpt><trkpt lat="43.42593298337425" lon="11.429757611593573"><ele>332.0</ele><time>2026-04-11T06:18:05Z</time></trkpt><trkpt lat="43.425918662293796" lon="11.429903491907169"><ele>332.0</ele><time>2026-04-11T06:18:07Z</time></trkpt><trkpt lat="43.425922854714585" lon="11.430043245058679"><ele>332.0</ele><time>2026-04-11T06:18:09Z</time></trkpt><trkpt lat="43.42592342781206" lon="11.430189079798563"><ele>332.0</ele><time>2026-04-11T06:18:11Z</time></trkpt><trkpt lat="43.425906294492385" lon="11.43032009300916"><ele>332.0</ele><time>2026-04-11T06:18:13Z</time></trkpt><trkpt lat="43.42588947337486" lon="11.430448585619429"><ele>332.0</ele><time>2026-04-11T06:18:15Z</time></trkpt><trkpt lat="43.42583374638976" lon="11.43055772293861"><ele>332.0</ele><time>2026-04-11T06:18:17Z</time></trkpt><trkpt lat="43.425776189994735" lon="11.430786386559827"><ele>332.0</ele><time>2026-04-11T06:18:21Z</time></trkpt><trkpt lat="43.42573422105209" lon="11.430908456476295"><ele>332.33333333333337</ele><time>2026-04-11T06:18:23Z</time></trkpt><trkpt lat="43.42569461789779" lon="11.431023921488281"><ele>332.6666666666667</ele><time>2026-04-11T06:18:25Z</time></trkpt><trkpt lat="43.425658520945674" lon="11.431128857570968"><ele>333.0</ele><time>2026-04-11T06:18:27Z</time></trkpt><trkpt lat="43.425644778050014" lon="11.431262997809165"><ele>333.3333333333333</ele><time>2026-04-11T06:18:29Z</time></trkpt><trkpt lat="43.425599588423864" lon="11.431327485640962"><ele>333.66666666666663</ele><time>2026-04-11T06:18:30Z</time></trkpt><trkpt lat="43.42555999479928" lon="11.431433440670213"><ele>334.0</ele><time>2026-04-11T06:18:32Z</time></trkpt><trkpt lat="43.42552608754548" lon="11.431508624849567"><ele>335.2</ele><time>2026-04-11T06:18:33Z</time></trkpt><trkpt lat="43.425497647866486" lon="11.431612166028298"><ele>336.4</ele><time>2026-04-11T06:18:35Z</time></trkpt><trkpt lat="43.4254607716966" lon="11.431720804809752"><ele>337.6</ele><time>2026-04-11T06:18:37Z</time></trkpt><trkpt lat="43.425426717862756" lon="11.431829260730227"><ele>338.8</ele><time>2026-04-11T06:18:39Z</time></trkpt><trkpt lat="43.42534636210478" lon="11.432038053642497"><ele>340.0</ele><time>2026-04-11T06:18:43Z</time></trkpt><trkpt lat="43.42534345294293" lon="11.432141156232825"><ele>340.0</ele><time>2026-04-11T06:18:45Z</time></trkpt><trkpt lat="43.42527227795461" lon="11.432166950422076"><ele>340.0</ele><time>2026-04-11T06:18:47Z</time></trkpt><trkpt lat="43.42517205199502" lon="11.43219243410367"><ele>340.0</ele><time>2026-04-11T06:18:49Z</time></trkpt><trkpt lat="43.4250836709611" lon="11.432208558366689"><ele>340.0</ele><time>2026-04-11T06:18:51Z</time></trkpt><trkpt lat="43.42501433132767" lon="11.432265482952685"><ele>340.0</ele><time>2026-04-11T06:18:53Z</time></trkpt><trkpt lat="43.42496186632522" lon="11.432352801365473"><ele>340.0</ele><time>2026-04-11T06:18:55Z</time></trkpt><trkpt lat="43.42492416093836" lon="11.432457432556543"><ele>340.0</ele><time>2026-04-11T06:18:57Z</time></trkpt><trkpt lat="43.42487572169019" lon="11.432550856672297"><ele>340.0</ele><time>2026-04-11T06:18:59Z</time></trkpt><trkpt lat="43.424856223667724" lon="11.432661291770328"><ele>340.0</ele><time>2026-04-11T06:19:01Z</time></trkpt><trkpt lat="43.42478859487175" lon="11.432861143974593"><ele>340.0</ele><time>2026-04-11T06:19:05Z</time></trkpt><trkpt lat="43.42475952392781" lon="11.43294527934461"><ele>340.0</ele><time>2026-04-11T06:19:07Z</time></trkpt><trkpt lat="43.42472381398289" lon="11.433029502742903"><ele>339.5714285714286</ele><time>2026-04-11T06:19:09Z</time></trkpt><trkpt lat="43.424690577344656" lon="11.433115609121131"><ele>339.1428571428571</ele><time>2026-04-11T06:19:11Z</time></trkpt><trkpt lat="43.42466499091405" lon="11.433219587622252"><ele>338.7142857142857</ele><time>2026-04-11T06:19:13Z</time></trkpt><trkpt lat="43.42461660271871" lon="11.433299084468567"><ele>338.28571428571433</ele><time>2026-04-11T06:19:15Z</time></trkpt><trkpt lat="43.42459220073786" lon="11.43338571819324"><ele>337.8571428571429</ele><time>2026-04-11T06:19:17Z</time></trkpt><trkpt lat="43.424564506018136" lon="11.433472422461254"><ele>337.42857142857144</ele><time>2026-04-11T06:19:19Z</time></trkpt><trkpt lat="43.424519504091144" lon="11.43355851132269"><ele>337.0</ele><time>2026-04-11T06:19:21Z</time></trkpt><trkpt lat="43.42448612708319" lon="11.433643891981154"><ele>339.3333333333333</ele><time>2026-04-11T06:19:23Z</time></trkpt><trkpt lat="43.42443597511761" lon="11.433843161060539"><ele>341.66666666666663</ele><time>2026-04-11T06:19:27Z</time></trkpt><trkpt lat="43.42440354000487" lon="11.433951492959478"><ele>344.0</ele><time>2026-04-11T06:19:30Z</time></trkpt><trkpt lat="43.4243806948878" lon="11.434039792383738"><ele>346.3333333333333</ele><time>2026-04-11T06:19:32Z</time></trkpt><trkpt lat="43.4243677178268" lon="11.434128286953385"><ele>348.6666666666667</ele><time>2026-04-11T06:19:34Z</time></trkpt><trkpt lat="43.42435902848069" lon="11.434222850225533"><ele>351.0</ele><time>2026-04-11T06:19:36Z</time></trkpt><trkpt lat="43.42435650264847" lon="11.43431560576089"><ele>351.0</ele><time>2026-04-11T06:19:38Z</time></trkpt><trkpt lat="43.42435842551184" lon="11.43441337613655"><ele>351.0</ele><time>2026-04-11T06:19:40Z</time></trkpt><trkpt lat="43.42435602371386" lon="11.434518451768275"><ele>351.0</ele><time>2026-04-11T06:19:42Z</time></trkpt><trkpt lat="43.42437431755091" lon="11.434616207169416"><ele>351.0</ele><time>2026-04-11T06:19:44Z</time></trkpt><trkpt lat="43.42441969220067" lon="11.434824153572379"><ele>351.0</ele><time>2026-04-11T06:19:48Z</time></trkpt><trkpt lat="43.42446715949725" lon="11.434905697030482"><ele>350.7142857142857</ele><time>2026-04-11T06:19:50Z</time></trkpt><trkpt lat="43.42452439671447" lon="11.43496981462239"><ele>350.42857142857144</ele><time>2026-04-11T06:19:52Z</time></trkpt><trkpt lat="43.424598951928736" lon="11.43502628925276"><ele>350.1428571428571</ele><time>2026-04-11T06:19:54Z</time></trkpt><trkpt lat="43.424658775216606" lon="11.435095676502037"><ele>349.8571428571429</ele><time>2026-04-11T06:19:56Z</time></trkpt><trkpt lat="43.42472248858352" lon="11.435106784423665"><ele>349.57142857142856</ele><time>2026-04-11T06:19:58Z</time></trkpt><trkpt lat="43.4247858119358" lon="11.435163510780912"><ele>349.2857142857143</ele><time>2026-04-11T06:20:00Z</time></trkpt><trkpt lat="43.424849758818624" lon="11.435206492234538"><ele>349.0</ele><time>2026-04-11T06:20:02Z</time></trkpt><trkpt lat="43.42492906906345" lon="11.4352414163941"><ele>349.6</ele><time>2026-04-11T06:20:04Z</time></trkpt><trkpt lat="43.42501568363473" lon="11.43529404782178"><ele>350.2</ele><time>2026-04-11T06:20:07Z</time></trkpt><trkpt lat="43.425142051838364" lon="11.435379283613214"><ele>350.8</ele><time>2026-04-11T06:20:11Z</time></trkpt><trkpt lat="43.42521487803139" lon="11.435478479523333"><ele>351.40000000000003</ele><time>2026-04-11T06:20:13Z</time></trkpt><trkpt lat="43.425272952196316" lon="11.435525290624588"><ele>352.0</ele><time>2026-04-11T06:20:15Z</time></trkpt><trkpt lat="43.42531034418975" lon="11.435622391224618"><ele>352.0</ele><time>2026-04-11T06:20:18Z</time></trkpt><trkpt lat="43.425337730100935" lon="11.435722033592343"><ele>352.0</ele><time>2026-04-11T06:20:20Z</time></trkpt><trkpt lat="43.42533869185427" lon="11.435810258067265"><ele>352.0</ele><time>2026-04-11T06:20:22Z</time></trkpt><trkpt lat="43.42531393166185" lon="11.435898156675046"><ele>352.0</ele><time>2026-04-11T06:20:24Z</time></trkpt><trkpt lat="43.42527123845709" lon="11.435976250618738"><ele>352.0</ele><time>2026-04-11T06:20:26Z</time></trkpt><trkpt lat="43.42522165535885" lon="11.436043319768954"><ele>352.0</ele><time>2026-04-11T06:20:28Z</time></trkpt><trkpt lat="43.425136639664885" lon="11.436189420531273"><ele>352.0</ele><time>2026-04-11T06:20:32Z</time></trkpt><trkpt lat="43.425080169163124" lon="11.436269896121974"><ele>352.0</ele><time>2026-04-11T06:20:34Z</time></trkpt><trkpt lat="43.42506134313494" lon="11.436362829395637"><ele>352.0</ele><time>2026-04-11T06:20:36Z</time></trkpt><trkpt lat="43.42504273647704" lon="11.436456971016167"><ele>352.0</ele><time>2026-04-11T06:20:38Z</time></trkpt><trkpt lat="43.42500355560916" lon="11.43653705748097"><ele>352.0</ele><time>2026-04-11T06:20:40Z</time></trkpt><trkpt lat="43.42497576331155" lon="11.43662764540796"><ele>352.0</ele><time>2026-04-11T06:20:42Z</time></trkpt><trkpt lat="43.424962532897936" lon="11.436721765766652"><ele>352.0</ele><time>2026-04-11T06:20:44Z</time></trkpt><trkpt lat="43.42495756137136" lon="11.436817544859789"><ele>352.5</ele><time>2026-04-11T06:20:46Z</time></trkpt><trkpt lat="43.42493766155747" lon="11.43691544421388"><ele>353.0</ele><time>2026-04-11T06:20:48Z</time></trkpt><trkpt lat="43.424927771899306" lon="11.437010027878495"><ele>353.5</ele><time>2026-04-11T06:20:50Z</time></trkpt><trkpt lat="43.424939211968415" lon="11.437189740481333"><ele>354.0</ele><time>2026-04-11T06:20:54Z</time></trkpt><trkpt lat="43.424923922198886" lon="11.437306199627203"><ele>354.5</ele><time>2026-04-11T06:20:58Z</time></trkpt><trkpt lat="43.424954209900655" lon="11.437410718745712"><ele>355.0</ele><time>2026-04-11T06:20:59Z</time></trkpt><trkpt lat="43.424974771034954" lon="11.437509439786975"><ele>355.0</ele><time>2026-04-11T06:21:01Z</time></trkpt><trkpt lat="43.42498050251399" lon="11.437596002871231"><ele>355.0</ele><time>2026-04-11T06:21:03Z</time></trkpt><trkpt lat="43.42497445474817" lon="11.437694344020425"><ele>355.0</ele><time>2026-04-11T06:21:05Z</time></trkpt><trkpt lat="43.424985687193676" lon="11.437780593883504"><ele>355.0</ele><time>2026-04-11T06:21:07Z</time></trkpt><trkpt lat="43.42500595980771" lon="11.437866559060248"><ele>355.0</ele><time>2026-04-11T06:21:09Z</time></trkpt><trkpt lat="43.42502596292926" lon="11.437954237900142"><ele>355.0</ele><time>2026-04-11T06:21:11Z</time></trkpt><trkpt lat="43.42507281769305" lon="11.438125571190062"><ele>355.85714285714283</ele><time>2026-04-11T06:21:15Z</time></trkpt><trkpt lat="43.42506454763135" lon="11.438223904885616"><ele>356.7142857142857</ele><time>2026-04-11T06:21:17Z</time></trkpt><trkpt lat="43.425091293534024" lon="11.438309973707934"><ele>357.57142857142856</ele><time>2026-04-11T06:21:19Z</time></trkpt><trkpt lat="43.42511939689827" lon="11.438389847188104"><ele>358.42857142857144</ele><time>2026-04-11T06:21:21Z</time></trkpt><trkpt lat="43.42513574753249" lon="11.438476596743413"><ele>359.2857142857143</ele><time>2026-04-11T06:21:23Z</time></trkpt><trkpt lat="43.42515458416507" lon="11.438565652653232"><ele>360.14285714285717</ele><time>2026-04-11T06:21:25Z</time></trkpt><trkpt lat="43.425179778794956" lon="11.438654895360425"><ele>361.0</ele><time>2026-04-11T06:21:27Z</time></trkpt><trkpt lat="43.425201592262056" lon="11.438746618569516"><ele>362.16666666666663</ele><time>2026-04-11T06:21:29Z</time></trkpt><trkpt lat="43.42522105547006" lon="11.438830683076702"><ele>363.3333333333333</ele><time>2026-04-11T06:21:31Z</time></trkpt><trkpt lat="43.42524765064565" lon="11.438926022122482"><ele>364.5</ele><time>2026-04-11T06:21:33Z</time></trkpt><trkpt lat="43.42529724149457" lon="11.439100466803117"><ele>365.6666666666667</ele><time>2026-04-11T06:21:37Z</time></trkpt><trkpt lat="43.42532990637426" lon="11.439181242337309"><ele>366.83333333333337</ele><time>2026-04-11T06:21:39Z</time></trkpt><trkpt lat="43.425383070613805" lon="11.439242984116802"><ele>368.0</ele><time>2026-04-11T06:21:41Z</time></trkpt><trkpt lat="43.42543990037346" lon="11.439297032708504"><ele>365.83333333333337</ele><time>2026-04-11T06:21:43Z</time></trkpt><trkpt lat="43.42550165812118" lon="11.439329121403208"><ele>363.6666666666667</ele><time>2026-04-11T06:21:45Z</time></trkpt><trkpt lat="43.425589877530356" lon="11.439352539894308"><ele>361.5</ele><time>2026-04-11T06:21:48Z</time></trkpt><trkpt lat="43.425662209675856" lon="11.439351054860753"><ele>359.3333333333333</ele><time>2026-04-11T06:21:50Z</time></trkpt><trkpt lat="43.42572679282603" lon="11.439351021043176"><ele>357.16666666666663</ele><time>2026-04-11T06:21:52Z</time></trkpt><trkpt lat="43.42579904291483" lon="11.439351445827313"><ele>355.0</ele><time>2026-04-11T06:21:54Z</time></trkpt><trkpt lat="43.42594387350313" lon="11.439414128723989"><ele>355.0</ele><time>2026-04-11T06:21:58Z</time></trkpt><trkpt lat="43.426026675193455" lon="11.439505170637752"><ele>355.0</ele><time>2026-04-11T06:22:01Z</time></trkpt><trkpt lat="43.42606659943087" lon="11.439611179097811"><ele>355.0</ele><time>2026-04-11T06:22:04Z</time></trkpt><trkpt lat="43.42609189443339" lon="11.439737658219025"><ele>355.0</ele><time>2026-04-11T06:22:07Z</time></trkpt><trkpt lat="43.42609552791008" lon="11.439828959709336"><ele>355.0</ele><time>2026-04-11T06:22:09Z</time></trkpt><trkpt lat="43.42610572524926" lon="11.43995341070836"><ele>355.0</ele><time>2026-04-11T06:22:12Z</time></trkpt><trkpt lat="43.42611088135065" lon="11.440040615320097"><ele>356.2</ele><time>2026-04-11T06:22:14Z</time></trkpt><trkpt lat="43.426121232456886" lon="11.440132809780959"><ele>357.4</ele><time>2026-04-11T06:22:16Z</time></trkpt><trkpt lat="43.42613112298662" lon="11.44035803833073"><ele>358.6</ele><time>2026-04-11T06:22:21Z</time></trkpt><trkpt lat="43.42613857549884" lon="11.440446173389923"><ele>359.8</ele><time>2026-04-11T06:22:23Z</time></trkpt><trkpt lat="43.42614382693781" lon="11.440535601256368"><ele>361.0</ele><time>2026-04-11T06:22:25Z</time></trkpt><trkpt lat="43.42614567759135" lon="11.440664478318622"><ele>361.5</ele><time>2026-04-11T06:22:28Z</time></trkpt><trkpt lat="43.42615197325624" lon="11.440754834916172"><ele>362.0</ele><time>2026-04-11T06:22:30Z</time></trkpt><trkpt lat="43.426148561184455" lon="11.44084948715169"><ele>362.5</ele><time>2026-04-11T06:22:32Z</time></trkpt><trkpt lat="43.42615386515493" lon="11.440943382022596"><ele>363.0</ele><time>2026-04-11T06:22:34Z</time></trkpt><trkpt lat="43.42615727853194" lon="11.441043955816603"><ele>363.5</ele><time>2026-04-11T06:22:36Z</time></trkpt><trkpt lat="43.42615505175864" lon="11.441141804997201"><ele>364.0</ele><time>2026-04-11T06:22:38Z</time></trkpt><trkpt lat="43.426121057273996" lon="11.441345352039676"><ele>364.0</ele><time>2026-04-11T06:22:42Z</time></trkpt><trkpt lat="43.42603839106506" lon="11.44143592636987"><ele>364.0</ele><time>2026-04-11T06:22:44Z</time></trkpt><trkpt lat="43.42598081019715" lon="11.441492467742743"><ele>364.0</ele><time>2026-04-11T06:22:46Z</time></trkpt><trkpt lat="43.425895864577235" lon="11.441527635272823"><ele>364.0</ele><time>2026-04-11T06:22:48Z</time></trkpt><trkpt lat="43.42581470628913" lon="11.441601779758594"><ele>364.0</ele><time>2026-04-11T06:22:50Z</time></trkpt><trkpt lat="43.42571193850044" lon="11.441624867253605"><ele>364.0</ele><time>2026-04-11T06:22:52Z</time></trkpt><trkpt lat="43.425621080915796" lon="11.441675089887458"><ele>364.0</ele><time>2026-04-11T06:22:54Z</time></trkpt><trkpt lat="43.425533807550984" lon="11.441718256893314"><ele>364.0</ele><time>2026-04-11T06:22:56Z</time></trkpt><trkpt lat="43.42544441021645" lon="11.441768017797212"><ele>364.0</ele><time>2026-04-11T06:22:58Z</time></trkpt><trkpt lat="43.425355565759496" lon="11.441827258878336"><ele>364.0</ele><time>2026-04-11T06:23:00Z</time></trkpt><trkpt lat="43.42520045123746" lon="11.44197711832396"><ele>365.0</ele><time>2026-04-11T06:23:04Z</time></trkpt><trkpt lat="43.425143054221856" lon="11.442077813458674"><ele>366.0</ele><time>2026-04-11T06:23:06Z</time></trkpt><trkpt lat="43.425098718677056" lon="11.442187359980984"><ele>367.0</ele><time>2026-04-11T06:23:08Z</time></trkpt><trkpt lat="43.42505420073313" lon="11.44229993120626"><ele>368.0</ele><time>2026-04-11T06:23:10Z</time></trkpt><trkpt lat="43.42501202256889" lon="11.442409348307644"><ele>369.0</ele><time>2026-04-11T06:23:12Z</time></trkpt><trkpt lat="43.42497677658572" lon="11.442517553392257"><ele>369.0</ele><time>2026-04-11T06:23:14Z</time></trkpt><trkpt lat="43.42494749141867" lon="11.442616982328618"><ele>369.0</ele><time>2026-04-11T06:23:16Z</time></trkpt><trkpt lat="43.42492107636439" lon="11.442717773973653"><ele>369.0</ele><time>2026-04-11T06:23:18Z</time></trkpt><trkpt lat="43.42489247226511" lon="11.442813402361383"><ele>369.0</ele><time>2026-04-11T06:23:20Z</time></trkpt><trkpt lat="43.4248739689368" lon="11.442914858938627"><ele>369.0</ele><time>2026-04-11T06:23:22Z</time></trkpt><trkpt lat="43.42486167889018" lon="11.443143996174607"><ele>368.8333333333333</ele><time>2026-04-11T06:23:27Z</time></trkpt><trkpt lat="43.424843992426396" lon="11.443261212428425"><ele>368.6666666666667</ele><time>2026-04-11T06:23:29Z</time></trkpt><trkpt lat="43.42484501272053" lon="11.443366755277381"><ele>368.5</ele><time>2026-04-11T06:23:31Z</time></trkpt><trkpt lat="43.424833192639284" lon="11.443467600141078"><ele>368.33333333333337</ele><time>2026-04-11T06:23:33Z</time></trkpt><trkpt lat="43.42482418566529" lon="11.443570048991557"><ele>368.1666666666667</ele><time>2026-04-11T06:23:35Z</time></trkpt><trkpt lat="43.42481718000974" lon="11.44367322639265"><ele>368.0</ele><time>2026-04-11T06:23:37Z</time></trkpt><trkpt lat="43.4247989061581" lon="11.443776050949813"><ele>367.6666666666667</ele><time>2026-04-11T06:23:39Z</time></trkpt><trkpt lat="43.42476911136385" lon="11.443868608316919"><ele>367.33333333333337</ele><time>2026-04-11T06:23:41Z</time></trkpt><trkpt lat="43.424720960129385" lon="11.44395418720565"><ele>367.0</ele><time>2026-04-11T06:23:43Z</time></trkpt><trkpt lat="43.424615548084326" lon="11.444106807267435"><ele>366.6666666666667</ele><time>2026-04-11T06:23:47Z</time></trkpt><trkpt lat="43.42456328709121" lon="11.444165244532904"><ele>366.3333333333333</ele><time>2026-04-11T06:23:49Z</time></trkpt><trkpt lat="43.42451120449063" lon="11.444220803928893"><ele>366.0</ele><time>2026-04-11T06:23:51Z</time></trkpt><trkpt lat="43.424453970436126" lon="11.444290254794439"><ele>368.3333333333333</ele><time>2026-04-11T06:23:53Z</time></trkpt><trkpt lat="43.42441973820805" lon="11.444366228403867"><ele>370.6666666666667</ele><time>2026-04-11T06:23:55Z</time></trkpt><trkpt lat="43.424379241213344" lon="11.44443919034909"><ele>373.0</ele><time>2026-04-11T06:23:57Z</time></trkpt><trkpt lat="43.424339151535996" lon="11.444512363420818"><ele>375.33333333333337</ele><time>2026-04-11T06:23:59Z</time></trkpt><trkpt lat="43.42429106642839" lon="11.444624407982385"><ele>377.6666666666667</ele><time>2026-04-11T06:24:02Z</time></trkpt><trkpt lat="43.42424117159278" lon="11.44472432980432"><ele>380.0</ele><time>2026-04-11T06:24:05Z</time></trkpt><trkpt lat="43.42416699840756" lon="11.444913356569195"><ele>380.0</ele><time>2026-04-11T06:24:11Z</time></trkpt><trkpt lat="43.42413464623929" lon="11.444998469998895"><ele>380.0</ele><time>2026-04-11T06:24:13Z</time></trkpt><trkpt lat="43.424083777132154" lon="11.445090264039516"><ele>380.0</ele><time>2026-04-11T06:24:16Z</time></trkpt><trkpt lat="43.42404439618126" lon="11.445164847448538"><ele>380.0</ele><time>2026-04-11T06:24:18Z</time></trkpt><trkpt lat="43.42400357094903" lon="11.445268782027695"><ele>380.0</ele><time>2026-04-11T06:24:21Z</time></trkpt><trkpt lat="43.42398359510761" lon="11.445352714348614"><ele>380.0</ele><time>2026-04-11T06:24:23Z</time></trkpt><trkpt lat="43.42395798038014" lon="11.445467589917532"><ele>380.0</ele><time>2026-04-11T06:24:26Z</time></trkpt><trkpt lat="43.42390310171177" lon="11.445668932235765"><ele>380.0</ele><time>2026-04-11T06:24:31Z</time></trkpt><trkpt lat="43.423879740819814" lon="11.445756762932568"><ele>380.0</ele><time>2026-04-11T06:24:33Z</time></trkpt><trkpt lat="43.42387223060409" lon="11.445844019444044"><ele>380.0</ele><time>2026-04-11T06:24:35Z</time></trkpt><trkpt lat="43.42390248110475" lon="11.445928411562127"><ele>380.0</ele><time>2026-04-11T06:24:37Z</time></trkpt><trkpt lat="43.423926595456294" lon="11.446009845923045"><ele>380.0</ele><time>2026-04-11T06:24:39Z</time></trkpt><trkpt lat="43.424014948679265" lon="11.446085444481126"><ele>380.0</ele><time>2026-04-11T06:24:42Z</time></trkpt><trkpt lat="43.424088494442096" lon="11.446136507158895"><ele>380.0</ele><time>2026-04-11T06:24:45Z</time></trkpt><trkpt lat="43.424153793903514" lon="11.446150821546244"><ele>380.0</ele><time>2026-04-11T06:24:47Z</time></trkpt><trkpt lat="43.424293657233655" lon="11.446240496061373"><ele>380.0</ele><time>2026-04-11T06:24:52Z</time></trkpt><trkpt lat="43.4243617798395" lon="11.44630897273293"><ele>380.0</ele><time>2026-04-11T06:24:55Z</time></trkpt><trkpt lat="43.42441651724622" lon="11.446400912594793"><ele>381.6666666666667</ele><time>2026-04-11T06:24:58Z</time></trkpt><trkpt lat="43.424467292789295" lon="11.446458737970696"><ele>383.33333333333337</ele><time>2026-04-11T06:25:00Z</time></trkpt><trkpt lat="43.42448073712262" lon="11.446567652172321"><ele>385.0</ele><time>2026-04-11T06:25:03Z</time></trkpt><trkpt lat="43.42450274947091" lon="11.446672678074531"><ele>386.6666666666667</ele><time>2026-04-11T06:25:05Z</time></trkpt><trkpt lat="43.42444535097074" lon="11.446735997640538"><ele>388.3333333333333</ele><time>2026-04-11T06:25:07Z</time></trkpt><trkpt lat="43.42445955564348" lon="11.446844791644816"><ele>390.0</ele><time>2026-04-11T06:25:09Z</time></trkpt><trkpt lat="43.42445493801905" lon="11.447064476216399"><ele>390.57142857142856</ele><time>2026-04-11T06:25:15Z</time></trkpt><trkpt lat="43.42442542374888" lon="11.447149619488725"><ele>391.1428571428571</ele><time>2026-04-11T06:25:17Z</time></trkpt><trkpt lat="43.424410505650144" lon="11.447237338035826"><ele>391.7142857142857</ele><time>2026-04-11T06:25:19Z</time></trkpt><trkpt lat="43.424388895378065" lon="11.44732014778403"><ele>392.2857142857143</ele><time>2026-04-11T06:25:21Z</time></trkpt><trkpt lat="43.424361264289956" lon="11.447402677325861"><ele>392.8571428571429</ele><time>2026-04-11T06:25:23Z</time></trkpt><trkpt lat="43.42430504699221" lon="11.447509097521841"><ele>393.42857142857144</ele><time>2026-04-11T06:25:26Z</time></trkpt><trkpt lat="43.42425848450925" lon="11.447568009431253"><ele>394.0</ele><time>2026-04-11T06:25:28Z</time></trkpt><trkpt lat="43.42419794659994" lon="11.447646775504328"><ele>394.0</ele><time>2026-04-11T06:25:31Z</time></trkpt><trkpt lat="43.42405342525767" lon="11.447779425354124"><ele>394.0</ele><time>2026-04-11T06:25:37Z</time></trkpt><trkpt lat="43.423992457455505" lon="11.44785520800129"><ele>394.0</ele><time>2026-04-11T06:25:40Z</time></trkpt><trkpt lat="43.423926631274604" lon="11.447922675995278"><ele>394.0</ele><time>2026-04-11T06:25:43Z</time></trkpt><trkpt lat="43.42386892259664" lon="11.44802314521974"><ele>394.0</ele><time>2026-04-11T06:25:46Z</time></trkpt><trkpt lat="43.423835670285946" lon="11.448121038151527"><ele>393.6</ele><time>2026-04-11T06:25:49Z</time></trkpt><trkpt lat="43.42381258873665" lon="11.448242372942197"><ele>393.2</ele><time>2026-04-11T06:25:52Z</time></trkpt><trkpt lat="43.42381995315491" lon="11.448450034634185"><ele>392.8</ele><time>2026-04-11T06:25:57Z</time></trkpt><trkpt lat="43.42386194377141" lon="11.448558651581495"><ele>392.40000000000003</ele><time>2026-04-11T06:26:00Z</time></trkpt><trkpt lat="43.4238866591077" lon="11.448638602275322"><ele>392.0</ele><time>2026-04-11T06:26:02Z</time></trkpt><trkpt lat="43.423912814152374" lon="11.448724744813271"><ele>391.99999999999994</ele><time>2026-04-11T06:26:04Z</time></trkpt><trkpt lat="43.42392707518093" lon="11.448814678789432"><ele>392.0</ele><time>2026-04-11T06:26:06Z</time></trkpt><trkpt lat="43.42395655977095" lon="11.448900153208546"><ele>392.0</ele><time>2026-04-11T06:26:08Z</time></trkpt><trkpt lat="43.4239795365435" lon="11.4489893268727"><ele>392.0</ele><time>2026-04-11T06:26:10Z</time></trkpt><trkpt lat="43.423993426524156" lon="11.449090121764035"><ele>391.99999999999994</ele><time>2026-04-11T06:26:12Z</time></trkpt><trkpt lat="43.424003884462564" lon="11.449188691295124"><ele>392.0</ele><time>2026-04-11T06:26:14Z</time></trkpt><trkpt lat="43.4239825521074" lon="11.449392271545845"><ele>391.99999999999994</ele><time>2026-04-11T06:26:18Z</time></trkpt><trkpt lat="43.423962720657805" lon="11.449506990649434"><ele>392.0</ele><time>2026-04-11T06:26:20Z</time></trkpt><trkpt lat="43.42393301895812" lon="11.449609487932873"><ele>392.0</ele><time>2026-04-11T06:26:22Z</time></trkpt><trkpt lat="43.42390002754183" lon="11.449689397317263"><ele>392.0</ele><time>2026-04-11T06:26:24Z</time></trkpt><trkpt lat="43.42385091830016" lon="11.449803047658651"><ele>391.99999999999994</ele><time>2026-04-11T06:26:26Z</time></trkpt><trkpt lat="43.42381504180563" lon="11.449892867521632"><ele>392.0</ele><time>2026-04-11T06:26:28Z</time></trkpt><trkpt lat="43.42376452148659" lon="11.449983531524131"><ele>396.0</ele><time>2026-04-11T06:26:30Z</time></trkpt><trkpt lat="43.42368835838532" lon="11.450066225231666"><ele>400.0</ele><time>2026-04-11T06:26:32Z</time></trkpt><trkpt lat="43.42364815979575" lon="11.450155873724585"><ele>404.0</ele><time>2026-04-11T06:26:34Z</time></trkpt><trkpt lat="43.42359648042961" lon="11.450240576242141"><ele>408.0</ele><time>2026-04-11T06:26:36Z</time></trkpt><trkpt lat="43.42348533017411" lon="11.450382900823795"><ele>412.0</ele><time>2026-04-11T06:26:40Z</time></trkpt><trkpt lat="43.42341551970502" lon="11.450450166728977"><ele>409.50000000000006</ele><time>2026-04-11T06:26:42Z</time></trkpt><trkpt lat="43.423375228930816" lon="11.450543791891238"><ele>407.0</ele><time>2026-04-11T06:26:44Z</time></trkpt><trkpt lat="43.4233158482802" lon="11.45062729930363"><ele>404.5</ele><time>2026-04-11T06:26:46Z</time></trkpt><trkpt lat="43.42322063664822" lon="11.450655099839018"><ele>402.0</ele><time>2026-04-11T06:26:48Z</time></trkpt><trkpt lat="43.42315834445508" lon="11.450742578680012"><ele>399.50000000000006</ele><time>2026-04-11T06:26:50Z</time></trkpt><trkpt lat="43.423106210080675" lon="11.450821360826513"><ele>397.0</ele><time>2026-04-11T06:26:52Z</time></trkpt><trkpt lat="43.42304677445183" lon="11.450878398626035"><ele>401.6</ele><time>2026-04-11T06:26:54Z</time></trkpt><trkpt lat="43.422977022294" lon="11.450941141090794"><ele>406.20000000000005</ele><time>2026-04-11T06:26:56Z</time></trkpt><trkpt lat="43.42290258405046" lon="11.450998009827874"><ele>410.8</ele><time>2026-04-11T06:26:58Z</time></trkpt><trkpt lat="43.42276669812493" lon="11.451121867886823"><ele>415.4</ele><time>2026-04-11T06:27:02Z</time></trkpt><trkpt lat="43.42267456090615" lon="11.45115451798728"><ele>420.0</ele><time>2026-04-11T06:27:04Z</time></trkpt><trkpt lat="43.42260103726334" lon="11.451198438188563"><ele>420.0</ele><time>2026-04-11T06:27:06Z</time></trkpt><trkpt lat="43.42252536537143" lon="11.451233920100506"><ele>420.0</ele><time>2026-04-11T06:27:08Z</time></trkpt><trkpt lat="43.42245583023647" lon="11.451265602404149"><ele>420.0</ele><time>2026-04-11T06:27:10Z</time></trkpt><trkpt lat="43.42237407634659" lon="11.451278922479181"><ele>420.0</ele><time>2026-04-11T06:27:12Z</time></trkpt><trkpt lat="43.422288384860586" lon="11.451267071638009"><ele>420.0</ele><time>2026-04-11T06:27:14Z</time></trkpt><trkpt lat="43.422220997807976" lon="11.45129789906439"><ele>420.0</ele><time>2026-04-11T06:27:16Z</time></trkpt><trkpt lat="43.42215301992258" lon="11.451305555680483"><ele>421.6</ele><time>2026-04-11T06:27:18Z</time></trkpt><trkpt lat="43.42208592815196" lon="11.451316437437345"><ele>423.2</ele><time>2026-04-11T06:27:22Z</time></trkpt><trkpt lat="43.421935395780096" lon="11.451360443795211"><ele>424.79999999999995</ele><time>2026-04-11T06:27:26Z</time></trkpt><trkpt lat="43.42187093627822" lon="11.451433823509644"><ele>426.4</ele><time>2026-04-11T06:27:29Z</time></trkpt><trkpt lat="43.42181211694758" lon="11.451524692776724"><ele>428.0</ele><time>2026-04-11T06:27:31Z</time></trkpt><trkpt lat="43.42177564703745" lon="11.451644314533096"><ele>427.99999999999994</ele><time>2026-04-11T06:27:34Z</time></trkpt><trkpt lat="43.421763565134306" lon="11.451739301902215"><ele>428.0</ele><time>2026-04-11T06:27:36Z</time></trkpt><trkpt lat="43.421767193292354" lon="11.451844986328549"><ele>428.0</ele><time>2026-04-11T06:27:39Z</time></trkpt><trkpt lat="43.42178666498038" lon="11.451956223422345"><ele>428.0</ele><time>2026-04-11T06:27:42Z</time></trkpt><trkpt lat="43.42178528654633" lon="11.452043507011101"><ele>427.99999999999994</ele><time>2026-04-11T06:27:44Z</time></trkpt><trkpt lat="43.42174425247894" lon="11.452233914078695"><ele>428.0</ele><time>2026-04-11T06:27:49Z</time></trkpt><trkpt lat="43.421714400176846" lon="11.452341631479193"><ele>426.49999999999994</ele><time>2026-04-11T06:27:52Z</time></trkpt><trkpt lat="43.42167326374337" lon="11.45246189508861"><ele>425.0</ele><time>2026-04-11T06:27:55Z</time></trkpt><trkpt lat="43.42163411443049" lon="11.452574696155866"><ele>423.5</ele><time>2026-04-11T06:27:58Z</time></trkpt><trkpt lat="43.42159261991268" lon="11.452707353599713"><ele>422.0</ele><time>2026-04-11T06:28:01Z</time></trkpt><trkpt lat="43.42158392577769" lon="11.4528089474631"><ele>420.49999999999994</ele><time>2026-04-11T06:28:04Z</time></trkpt><trkpt lat="43.42157442517599" lon="11.452896087349266"><ele>419.0</ele><time>2026-04-11T06:28:06Z</time></trkpt><trkpt lat="43.42163352617778" lon="11.453135590253963"><ele>418.3333333333333</ele><time>2026-04-11T06:28:12Z</time></trkpt><trkpt lat="43.4216899337455" lon="11.453224546866629"><ele>417.66666666666663</ele><time>2026-04-11T06:28:15Z</time></trkpt><trkpt lat="43.421744141679795" lon="11.453325672468132"><ele>417.0</ele><time>2026-04-11T06:28:18Z</time></trkpt><trkpt lat="43.42178137637897" lon="11.453424304292536"><ele>416.33333333333337</ele><time>2026-04-11T06:28:21Z</time></trkpt><trkpt lat="43.421827778618116" lon="11.453536677763932"><ele>415.6666666666667</ele><time>2026-04-11T06:28:24Z</time></trkpt><trkpt lat="43.42184672807607" lon="11.453652450918321"><ele>415.0</ele><time>2026-04-11T06:28:27Z</time></trkpt><trkpt lat="43.421803974083325" lon="11.45389575107048"><ele>414.6666666666667</ele><time>2026-04-11T06:28:33Z</time></trkpt><trkpt lat="43.42177222766221" lon="11.454001694947541"><ele>414.33333333333337</ele><time>2026-04-11T06:28:36Z</time></trkpt><trkpt lat="43.42172463836783" lon="11.45406816892422"><ele>414.0</ele><time>2026-04-11T06:28:38Z</time></trkpt><trkpt lat="43.42167966506753" lon="11.454128895101974"><ele>413.66666666666663</ele><time>2026-04-11T06:28:40Z</time></trkpt><trkpt lat="43.42159910874464" lon="11.454195656528743"><ele>413.3333333333333</ele><time>2026-04-11T06:28:43Z</time></trkpt><trkpt lat="43.421534265445004" lon="11.454277152945693"><ele>413.0</ele><time>2026-04-11T06:28:46Z</time></trkpt><trkpt lat="43.421446685495255" lon="11.454341255049975"><ele>412.99999999999994</ele><time>2026-04-11T06:28:49Z</time></trkpt><trkpt lat="43.42134449539062" lon="11.454452619008046"><ele>413.0</ele><time>2026-04-11T06:28:56Z</time></trkpt><trkpt lat="43.42126183085097" lon="11.454502487576908"><ele>413.0</ele><time>2026-04-11T06:28:59Z</time></trkpt><trkpt lat="43.42118301877283" lon="11.454560184882885"><ele>413.0</ele><time>2026-04-11T06:29:01Z</time></trkpt><trkpt lat="43.42112789266941" lon="11.454610509482519"><ele>412.99999999999994</ele><time>2026-04-11T06:29:03Z</time></trkpt><trkpt lat="43.421081392872196" lon="11.45467338719066"><ele>413.0</ele><time>2026-04-11T06:29:05Z</time></trkpt><trkpt lat="43.42102896525615" lon="11.454729765550097"><ele>414.79999999999995</ele><time>2026-04-11T06:29:07Z</time></trkpt><trkpt lat="43.4209660419431" lon="11.454804910031728"><ele>416.6</ele><time>2026-04-11T06:29:10Z</time></trkpt><trkpt lat="43.42085980579769" lon="11.454968947364014"><ele>418.4</ele><time>2026-04-11T06:29:16Z</time></trkpt><trkpt lat="43.4208214947161" lon="11.45508724270297"><ele>420.20000000000005</ele><time>2026-04-11T06:29:20Z</time></trkpt><trkpt lat="43.420773018461986" lon="11.455176574321053"><ele>422.0</ele><time>2026-04-11T06:29:24Z</time></trkpt><trkpt lat="43.420745385408566" lon="11.455274049017282"><ele>422.0</ele><time>2026-04-11T06:29:27Z</time></trkpt><trkpt lat="43.42069810116768" lon="11.455332535802171"><ele>422.0</ele><time>2026-04-11T06:29:30Z</time></trkpt><trkpt lat="43.420633088615524" lon="11.45542513166682"><ele>422.0</ele><time>2026-04-11T06:29:33Z</time></trkpt><trkpt lat="43.42051983363481" lon="11.455622005020224"><ele>422.0</ele><time>2026-04-11T06:29:39Z</time></trkpt><trkpt lat="43.42045764725909" lon="11.455637586558215"><ele>422.0</ele><time>2026-04-11T06:29:41Z</time></trkpt><trkpt lat="43.42040790830149" lon="11.455699901263307"><ele>423.20000000000005</ele><time>2026-04-11T06:29:43Z</time></trkpt><trkpt lat="43.42036043316448" lon="11.455793364120577"><ele>424.4</ele><time>2026-04-11T06:29:47Z</time></trkpt><trkpt lat="43.420288072266324" lon="11.455887310374468"><ele>425.59999999999997</ele><time>2026-04-11T06:29:50Z</time></trkpt><trkpt lat="43.42025128102635" lon="11.455960985240914"><ele>426.79999999999995</ele><time>2026-04-11T06:29:53Z</time></trkpt><trkpt lat="43.42019832615668" lon="11.456040520880345"><ele>428.0</ele><time>2026-04-11T06:29:55Z</time></trkpt><trkpt lat="43.42008611184201" lon="11.456183860637239"><ele>427.99999999999994</ele><time>2026-04-11T06:30:00Z</time></trkpt><trkpt lat="43.42002281200378" lon="11.456241735791327"><ele>428.0</ele><time>2026-04-11T06:30:02Z</time></trkpt><trkpt lat="43.41998687897195" lon="11.456352608461396"><ele>428.0</ele><time>2026-04-11T06:30:04Z</time></trkpt><trkpt lat="43.41991626914987" lon="11.456392618176878"><ele>428.0</ele><time>2026-04-11T06:30:06Z</time></trkpt><trkpt lat="43.41986268195025" lon="11.456451553195299"><ele>427.99999999999994</ele><time>2026-04-11T06:30:08Z</time></trkpt><trkpt lat="43.41979875704909" lon="11.456503086889768"><ele>428.0</ele><time>2026-04-11T06:30:11Z</time></trkpt><trkpt lat="43.41974368558134" lon="11.456587009057944"><ele>427.16666666666663</ele><time>2026-04-11T06:30:14Z</time></trkpt><trkpt lat="43.419695278747135" lon="11.456650075671982"><ele>426.3333333333333</ele><time>2026-04-11T06:30:16Z</time></trkpt><trkpt lat="43.41958027795052" lon="11.456751257607975"><ele>425.5</ele><time>2026-04-11T06:30:20Z</time></trkpt><trkpt lat="43.41952592174722" lon="11.456798769921598"><ele>424.66666666666663</ele><time>2026-04-11T06:30:22Z</time></trkpt><trkpt lat="43.41945966680974" lon="11.456844071716699"><ele>423.8333333333333</ele><time>2026-04-11T06:30:24Z</time></trkpt><trkpt lat="43.41940881709001" lon="11.45689637849291"><ele>423.0</ele><time>2026-04-11T06:30:26Z</time></trkpt><trkpt lat="43.41931912685107" lon="11.456883784950112"><ele>425.0</ele><time>2026-04-11T06:30:29Z</time></trkpt><trkpt lat="43.41922456804804" lon="11.45691747518406"><ele>427.0</ele><time>2026-04-11T06:30:32Z</time></trkpt><trkpt lat="43.419194896265054" lon="11.456997235952556"><ele>428.99999999999994</ele><time>2026-04-11T06:30:36Z</time></trkpt><trkpt lat="43.41915735297506" lon="11.457085188593547"><ele>431.0</ele><time>2026-04-11T06:30:39Z</time></trkpt><trkpt lat="43.41910468520113" lon="11.457340880619622"><ele>433.0</ele><time>2026-04-11T06:30:43Z</time></trkpt><trkpt lat="43.41904991588561" lon="11.457485970170112"><ele>433.0</ele><time>2026-04-11T06:30:45Z</time></trkpt><trkpt lat="43.41898703515188" lon="11.457601185367052"><ele>432.99999999999994</ele><time>2026-04-11T06:30:47Z</time></trkpt><trkpt lat="43.41889126873059" lon="11.45768571312439"><ele>432.99999999999994</ele><time>2026-04-11T06:30:49Z</time></trkpt><trkpt lat="43.41880735877177" lon="11.457753895693688"><ele>433.0</ele><time>2026-04-11T06:30:51Z</time></trkpt><trkpt lat="43.41872365859712" lon="11.45781813633118"><ele>433.0</ele><time>2026-04-11T06:30:53Z</time></trkpt><trkpt lat="43.41864884895028" lon="11.45788217645511"><ele>433.0</ele><time>2026-04-11T06:30:55Z</time></trkpt><trkpt lat="43.418578266933494" lon="11.457945197799665"><ele>432.99999999999994</ele><time>2026-04-11T06:30:57Z</time></trkpt><trkpt lat="43.41850441114655" lon="11.458005549351652"><ele>432.99999999999994</ele><time>2026-04-11T06:30:59Z</time></trkpt><trkpt lat="43.41843540174441" lon="11.458064384150827"><ele>433.0</ele><time>2026-04-11T06:31:01Z</time></trkpt><trkpt lat="43.41831487616921" lon="11.458172285436525"><ele>433.0</ele><time>2026-04-11T06:31:05Z</time></trkpt><trkpt lat="43.41824627602653" lon="11.4582195457941"><ele>433.00000000000006</ele><time>2026-04-11T06:31:07Z</time></trkpt><trkpt lat="43.41817639192235" lon="11.458255952098904"><ele>433.0</ele><time>2026-04-11T06:31:09Z</time></trkpt><trkpt lat="43.418149509871135" lon="11.45833953710282"><ele>433.0</ele><time>2026-04-11T06:31:12Z</time></trkpt><trkpt lat="43.41808225570891" lon="11.458389692614073"><ele>433.0</ele><time>2026-04-11T06:31:15Z</time></trkpt><trkpt lat="43.418006420124" lon="11.458378304244452"><ele>433.00000000000006</ele><time>2026-04-11T06:31:17Z</time></trkpt><trkpt lat="43.417924631729754" lon="11.45836120934433"><ele>433.0</ele><time>2026-04-11T06:31:19Z</time></trkpt><trkpt lat="43.417838853385526" lon="11.45834328213134"><ele>434.00000000000006</ele><time>2026-04-11T06:31:21Z</time></trkpt><trkpt lat="43.417775770385525" lon="11.458384865434196"><ele>435.0</ele><time>2026-04-11T06:31:23Z</time></trkpt><trkpt lat="43.41765652622818" lon="11.458263317871797"><ele>436.0</ele><time>2026-04-11T06:31:27Z</time></trkpt><trkpt lat="43.41759829058367" lon="11.458225534665884"><ele>437.0</ele><time>2026-04-11T06:31:29Z</time></trkpt><trkpt lat="43.417520694685884" lon="11.45817903954409"><ele>438.00000000000006</ele><time>2026-04-11T06:31:32Z</time></trkpt><trkpt lat="43.41746499215463" lon="11.458137433666437"><ele>439.0</ele><time>2026-04-11T06:31:34Z</time></trkpt><trkpt lat="43.41738251893316" lon="11.45811964402347"><ele>439.00000000000006</ele><time>2026-04-11T06:31:37Z</time></trkpt><trkpt lat="43.41730681152994" lon="11.458089503211088"><ele>439.0</ele><time>2026-04-11T06:31:40Z</time></trkpt><trkpt lat="43.417237007925976" lon="11.458064771591124"><ele>439.0</ele><time>2026-04-11T06:31:43Z</time></trkpt><trkpt lat="43.41717003416575" lon="11.458049204505613"><ele>439.0</ele><time>2026-04-11T06:31:46Z</time></trkpt><trkpt lat="43.41702126368315" lon="11.458036579920265"><ele>439.00000000000006</ele><time>2026-04-11T06:31:50Z</time></trkpt><trkpt lat="43.41696075012527" lon="11.458011036721237"><ele>439.0</ele><time>2026-04-11T06:31:51Z</time></trkpt><trkpt lat="43.41687917306923" lon="11.458014600997835"><ele>439.4</ele><time>2026-04-11T06:31:52Z</time></trkpt><trkpt lat="43.41680899022098" lon="11.458007491068626"><ele>439.79999999999995</ele><time>2026-04-11T06:31:53Z</time></trkpt><trkpt lat="43.41668697994147" lon="11.457994442129472"><ele>440.20000000000005</ele><time>2026-04-11T06:31:55Z</time></trkpt><trkpt lat="43.41655119919299" lon="11.458027565312664"><ele>440.6</ele><time>2026-04-11T06:31:57Z</time></trkpt><trkpt lat="43.41645881630777" lon="11.458026898591053"><ele>441.0</ele><time>2026-04-11T06:31:59Z</time></trkpt><trkpt lat="43.416381586884526" lon="11.458046583655008"><ele>442.0</ele><time>2026-04-11T06:32:01Z</time></trkpt><trkpt lat="43.4163163984282" lon="11.45812314371334"><ele>443.0</ele><time>2026-04-11T06:32:06Z</time></trkpt><trkpt lat="43.41624814555072" lon="11.458180887527622"><ele>444.0</ele><time>2026-04-11T06:32:07Z</time></trkpt><trkpt lat="43.41611163013427" lon="11.458362404251458"><ele>445.0</ele><time>2026-04-11T06:32:14Z</time></trkpt><trkpt lat="43.416066058926475" lon="11.458468856828526"><ele>446.0</ele><time>2026-04-11T06:32:17Z</time></trkpt><trkpt lat="43.416023894712346" lon="11.45860318920781"><ele>446.0</ele><time>2026-04-11T06:32:20Z</time></trkpt><trkpt lat="43.416000192274055" lon="11.458722100244406"><ele>446.0</ele><time>2026-04-11T06:32:22Z</time></trkpt><trkpt lat="43.41597571650926" lon="11.458809400349779"><ele>446.0</ele><time>2026-04-11T06:32:25Z</time></trkpt><trkpt lat="43.41594921741469" lon="11.458890487615786"><ele>446.0</ele><time>2026-04-11T06:32:27Z</time></trkpt><trkpt lat="43.415942545566736" lon="11.459042907523507"><ele>446.0</ele><time>2026-04-11T06:32:30Z</time></trkpt><trkpt lat="43.415928010440105" lon="11.459250896662507"><ele>446.66666666666663</ele><time>2026-04-11T06:32:35Z</time></trkpt><trkpt lat="43.415926814826726" lon="11.459356863282927"><ele>447.3333333333333</ele><time>2026-04-11T06:32:38Z</time></trkpt><trkpt lat="43.41591865216461" lon="11.459451583191699"><ele>448.0</ele><time>2026-04-11T06:32:41Z</time></trkpt><trkpt lat="43.415905393167186" lon="11.459547733693467"><ele>448.66666666666663</ele><time>2026-04-11T06:32:45Z</time></trkpt><trkpt lat="43.415906109793056" lon="11.45964282176133"><ele>449.3333333333333</ele><time>2026-04-11T06:32:49Z</time></trkpt><trkpt lat="43.415918144811975" lon="11.459738345039057"><ele>450.0</ele><time>2026-04-11T06:32:52Z</time></trkpt><trkpt lat="43.415914351493505" lon="11.459948042724983"><ele>451.1666666666667</ele><time>2026-04-11T06:33:02Z</time></trkpt><trkpt lat="43.415901314331144" lon="11.460061521137032"><ele>452.33333333333337</ele><time>2026-04-11T06:33:05Z</time></trkpt><trkpt lat="43.41590370609491" lon="11.460156812472288"><ele>453.5</ele><time>2026-04-11T06:33:08Z</time></trkpt><trkpt lat="43.415883284882995" lon="11.460248304588845"><ele>454.6666666666667</ele><time>2026-04-11T06:33:11Z</time></trkpt><trkpt lat="43.415887483930945" lon="11.460335083207383"><ele>455.83333333333337</ele><time>2026-04-11T06:33:14Z</time></trkpt><trkpt lat="43.415874332614955" lon="11.460539352482797"><ele>457.0</ele><time>2026-04-11T06:33:21Z</time></trkpt><trkpt lat="43.415905636138" lon="11.46062941158074"><ele>459.8</ele><time>2026-04-11T06:33:24Z</time></trkpt><trkpt lat="43.41593957577882" lon="11.46071822740037"><ele>462.6</ele><time>2026-04-11T06:33:27Z</time></trkpt><trkpt lat="43.41599068205879" lon="11.460805676659787"><ele>465.40000000000003</ele><time>2026-04-11T06:33:30Z</time></trkpt><trkpt lat="43.416045723882604" lon="11.460900904958516"><ele>468.20000000000005</ele><time>2026-04-11T06:33:35Z</time></trkpt><trkpt lat="43.416164085312644" lon="11.461046332706655"><ele>471.0</ele><time>2026-04-11T06:33:43Z</time></trkpt><trkpt lat="43.4162090804727" lon="11.461122751139175"><ele>471.0</ele><time>2026-04-11T06:33:45Z</time></trkpt><trkpt lat="43.41618039339131" lon="11.461208677646201"><ele>471.0</ele><time>2026-04-11T06:33:48Z</time></trkpt><trkpt lat="43.41612697389067" lon="11.461291305469903"><ele>471.0</ele><time>2026-04-11T06:33:52Z</time></trkpt><trkpt lat="43.41609016678617" lon="11.461370960539385"><ele>471.0</ele><time>2026-04-11T06:33:56Z</time></trkpt><trkpt lat="43.415964061482214" lon="11.461391827735255"><ele>471.0</ele><time>2026-04-11T06:34:01Z</time></trkpt><trkpt lat="43.41588954854878" lon="11.461431536551707"><ele>471.0</ele><time>2026-04-11T06:34:03Z</time></trkpt><trkpt lat="43.415823679697965" lon="11.461460305674688"><ele>471.0</ele><time>2026-04-11T06:34:08Z</time></trkpt><trkpt lat="43.41574394009688" lon="11.461444825132498"><ele>471.0</ele><time>2026-04-11T06:34:10Z</time></trkpt><trkpt lat="43.41569135576209" lon="11.461391665108223"><ele>471.0</ele><time>2026-04-11T06:34:13Z</time></trkpt><trkpt lat="43.41568586706303" lon="11.461303996386658"><ele>471.0</ele><time>2026-04-11T06:34:20Z</time></trkpt><trkpt lat="43.415650819656015" lon="11.461123059422327"><ele>471.0</ele><time>2026-04-11T06:34:25Z</time></trkpt><trkpt lat="43.415639145969855" lon="11.46101914440026"><ele>471.0</ele><time>2026-04-11T06:34:30Z</time></trkpt><trkpt lat="43.415572956388296" lon="11.460927956237494"><ele>471.0</ele><time>2026-04-11T06:34:34Z</time></trkpt><trkpt lat="43.41553532217639" lon="11.460818326586091"><ele>471.0</ele><time>2026-04-11T06:34:38Z</time></trkpt><trkpt lat="43.4154842628474" lon="11.460715229004803"><ele>471.0</ele><time>2026-04-11T06:34:44Z</time></trkpt><trkpt lat="43.4153625032018" lon="11.460579716956618"><ele>471.0</ele><time>2026-04-11T06:34:54Z</time></trkpt><trkpt lat="43.41528472318564" lon="11.460624371536193"><ele>471.0</ele><time>2026-04-11T06:35:01Z</time></trkpt><trkpt lat="43.41528937486093" lon="11.460721717141945"><ele>471.0</ele><time>2026-04-11T06:35:05Z</time></trkpt><trkpt lat="43.41540020841936" lon="11.460910484584462"><ele>471.0</ele><time>2026-04-11T06:35:15Z</time></trkpt><trkpt lat="43.41545753409793" lon="11.46098971922095"><ele>471.0</ele><time>2026-04-11T06:35:17Z</time></trkpt><trkpt lat="43.415465194042795" lon="11.461090512154161"><ele>471.0</ele><time>2026-04-11T06:35:22Z</time></trkpt><trkpt lat="43.41549440941678" lon="11.46118506585403"><ele>471.0</ele><time>2026-04-11T06:35:24Z</time></trkpt><trkpt lat="43.4154702706254" lon="11.461296909271338"><ele>474.8</ele><time>2026-04-11T06:35:29Z</time></trkpt><trkpt lat="43.41542103875179" lon="11.46149133007017"><ele>478.6</ele><time>2026-04-11T06:35:37Z</time></trkpt><trkpt lat="43.41537943468375" lon="11.461576627419362"><ele>482.4</ele><time>2026-04-11T06:35:40Z</time></trkpt><trkpt lat="43.415395192438055" lon="11.461704321832828"><ele>486.2</ele><time>2026-04-11T06:35:44Z</time></trkpt><trkpt lat="43.41533135752013" lon="11.461767261770893"><ele>490.0</ele><time>2026-04-11T06:35:50Z</time></trkpt><trkpt lat="43.41522949463562" lon="11.461679578931244"><ele>490.00000000000006</ele><time>2026-04-11T06:35:56Z</time></trkpt><trkpt lat="43.41523099454923" lon="11.461586721238262"><ele>490.0</ele><time>2026-04-11T06:35:59Z</time></trkpt><trkpt lat="43.41519783468131" lon="11.46150222011902"><ele>490.0</ele><time>2026-04-11T06:36:04Z</time></trkpt><trkpt lat="43.41517610363184" lon="11.461413218454087"><ele>490.0</ele><time>2026-04-11T06:36:07Z</time></trkpt><trkpt lat="43.41511875874943" lon="11.46135656093621"><ele>490.00000000000006</ele><time>2026-04-11T06:36:10Z</time></trkpt><trkpt lat="43.41505456284856" lon="11.461337548844256"><ele>490.0</ele><time>2026-04-11T06:36:14Z</time></trkpt><trkpt lat="43.4149800531827" lon="11.461505990486728"><ele>490.00000000000006</ele><time>2026-04-11T06:36:21Z</time></trkpt><trkpt lat="43.414979493055235" lon="11.461596758065545"><ele>490.0</ele><time>2026-04-11T06:36:25Z</time></trkpt><trkpt lat="43.414957845100716" lon="11.46168785678502"><ele>490.0</ele><time>2026-04-11T06:36:29Z</time></trkpt><trkpt lat="43.41497396175764" lon="11.461800406771545"><ele>490.0</ele><time>2026-04-11T06:36:33Z</time></trkpt><trkpt lat="43.414931344785394" lon="11.46186621518469"><ele>490.00000000000006</ele><time>2026-04-11T06:36:36Z</time></trkpt><trkpt lat="43.41486732661656" lon="11.462045570313457"><ele>490.0</ele><time>2026-04-11T06:36:43Z</time></trkpt><trkpt lat="43.414814716291914" lon="11.46209537163115"><ele>491.33333333333337</ele><time>2026-04-11T06:36:46Z</time></trkpt><trkpt lat="43.41475388108184" lon="11.462192650336528"><ele>492.6666666666667</ele><time>2026-04-11T06:36:50Z</time></trkpt><trkpt lat="43.414722085808975" lon="11.462302235613143"><ele>494.0</ele><time>2026-04-11T06:36:54Z</time></trkpt><trkpt lat="43.41470297384031" lon="11.462390130539148"><ele>495.33333333333337</ele><time>2026-04-11T06:36:57Z</time></trkpt><trkpt lat="43.41467287391843" lon="11.462570259084545"><ele>496.6666666666667</ele><time>2026-04-11T06:37:03Z</time></trkpt><trkpt lat="43.41468728112038" lon="11.462655821290902"><ele>498.0</ele><time>2026-04-11T06:37:06Z</time></trkpt><trkpt lat="43.41462501334025" lon="11.462690788345858"><ele>500.0</ele><time>2026-04-11T06:37:08Z</time></trkpt><trkpt lat="43.41459788461054" lon="11.462770922708291"><ele>502.0</ele><time>2026-04-11T06:37:11Z</time></trkpt><trkpt lat="43.41455035473817" lon="11.462834880447419"><ele>504.0</ele><time>2026-04-11T06:37:14Z</time></trkpt><trkpt lat="43.41454839270136" lon="11.462938057702086"><ele>506.0</ele><time>2026-04-11T06:37:17Z</time></trkpt><trkpt lat="43.41455805768448" lon="11.463043425812485"><ele>508.0</ele><time>2026-04-11T06:37:21Z</time></trkpt><trkpt lat="43.41458760298933" lon="11.46324282713278"><ele>510.0</ele><time>2026-04-11T06:37:28Z</time></trkpt><trkpt lat="43.41460761942362" lon="11.46334277801513"><ele>512.3333333333334</ele><time>2026-04-11T06:37:31Z</time></trkpt><trkpt lat="43.41463369336978" lon="11.463441205198851"><ele>514.6666666666666</ele><time>2026-04-11T06:37:34Z</time></trkpt><trkpt lat="43.414618439142274" lon="11.463534905272086"><ele>517.0</ele><time>2026-04-11T06:37:38Z</time></trkpt><trkpt lat="43.414596359111776" lon="11.463622155057848"><ele>519.3333333333333</ele><time>2026-04-11T06:37:41Z</time></trkpt><trkpt lat="43.41457729590226" lon="11.463708927233403"><ele>521.6666666666666</ele><time>2026-04-11T06:37:44Z</time></trkpt><trkpt lat="43.41451973862251" lon="11.463883305144202"><ele>524.0</ele><time>2026-04-11T06:37:51Z</time></trkpt><trkpt lat="43.41448691564123" lon="11.46398281917144"><ele>524.0</ele><time>2026-04-11T06:37:54Z</time></trkpt><trkpt lat="43.41443520467407" lon="11.464081836199249"><ele>524.0</ele><time>2026-04-11T06:37:58Z</time></trkpt><trkpt lat="43.414353217188435" lon="11.46416192399133"><ele>524.0</ele><time>2026-04-11T06:38:02Z</time></trkpt><trkpt lat="43.41429042218672" lon="11.464196692992793"><ele>524.0</ele><time>2026-04-11T06:38:05Z</time></trkpt><trkpt lat="43.4141420323074" lon="11.464321815353767"><ele>524.0</ele><time>2026-04-11T06:38:11Z</time></trkpt><trkpt lat="43.41410457963026" lon="11.464395324698721"><ele>524.0</ele><time>2026-04-11T06:38:16Z</time></trkpt><trkpt lat="43.414044425367294" lon="11.464452219304976"><ele>524.0</ele><time>2026-04-11T06:38:20Z</time></trkpt><trkpt lat="43.41397435216498" lon="11.464472970465355"><ele>524.0</ele><time>2026-04-11T06:38:23Z</time></trkpt><trkpt lat="43.41389940899567" lon="11.46450580723565"><ele>524.0</ele><time>2026-04-11T06:38:27Z</time></trkpt><trkpt lat="43.41375292958307" lon="11.464556990793525"><ele>524.0</ele><time>2026-04-11T06:38:33Z</time></trkpt><trkpt lat="43.41369985893085" lon="11.46460883363266"><ele>524.0</ele><time>2026-04-11T06:38:37Z</time></trkpt><trkpt lat="43.41363791413541" lon="11.464631507953223"><ele>522.8333333333333</ele><time>2026-04-11T06:38:41Z</time></trkpt><trkpt lat="43.41354554265469" lon="11.46464035693876"><ele>521.6666666666666</ele><time>2026-04-11T06:38:44Z</time></trkpt><trkpt lat="43.413475748187025" lon="11.464671113816111"><ele>520.5</ele><time>2026-04-11T06:38:48Z</time></trkpt><trkpt lat="43.41333779390091" lon="11.464600892002109"><ele>519.3333333333334</ele><time>2026-04-11T06:38:54Z</time></trkpt><trkpt lat="43.41327036627507" lon="11.464583373442254"><ele>518.1666666666667</ele><time>2026-04-11T06:38:59Z</time></trkpt><trkpt lat="43.41321297927942" lon="11.464544752518956"><ele>517.0</ele><time>2026-04-11T06:39:02Z</time></trkpt><trkpt lat="43.41315463105281" lon="11.46448576769867"><ele>516.4</ele><time>2026-04-11T06:39:05Z</time></trkpt><trkpt lat="43.413080550972275" lon="11.464444208873957"><ele>515.8000000000001</ele><time>2026-04-11T06:39:08Z</time></trkpt><trkpt lat="43.413025990116566" lon="11.464367249316462"><ele>515.2</ele><time>2026-04-11T06:39:12Z</time></trkpt><trkpt lat="43.41288419699665" lon="11.464377696152443"><ele>514.6</ele><time>2026-04-11T06:39:19Z</time></trkpt><trkpt lat="43.41279294638862" lon="11.464353680799997"><ele>514.0</ele><time>2026-04-11T06:39:21Z</time></trkpt><trkpt lat="43.4127074908621" lon="11.464386651949594"><ele>514.0</ele><time>2026-04-11T06:39:23Z</time></trkpt><trkpt lat="43.412587832906944" lon="11.464381188127073"><ele>514.0</ele><time>2026-04-11T06:39:25Z</time></trkpt><trkpt lat="43.41244449387981" lon="11.464402250923264"><ele>514.0</ele><time>2026-04-11T06:39:27Z</time></trkpt><trkpt lat="43.41237029431782" lon="11.464440769722172"><ele>514.0</ele><time>2026-04-11T06:39:28Z</time></trkpt><trkpt lat="43.41230041479028" lon="11.464500953002249"><ele>514.0</ele><time>2026-04-11T06:39:29Z</time></trkpt><trkpt lat="43.4122155054475" lon="11.46455494464255"><ele>511.25</ele><time>2026-04-11T06:39:30Z</time></trkpt><trkpt lat="43.41212631609631" lon="11.464614839123128"><ele>508.5</ele><time>2026-04-11T06:39:31Z</time></trkpt><trkpt lat="43.41204904572489" lon="11.464674386260526"><ele>505.75</ele><time>2026-04-11T06:39:32Z</time></trkpt><trkpt lat="43.41196624632855" lon="11.464723459696913"><ele>503.0</ele><time>2026-04-11T06:39:33Z</time></trkpt><trkpt lat="43.41180779078904" lon="11.464821473441416"><ele>502.99999999999994</ele><time>2026-04-11T06:39:35Z</time></trkpt><trkpt lat="43.41174382139961" lon="11.464847628186998"><ele>503.0</ele><time>2026-04-11T06:39:36Z</time></trkpt><trkpt lat="43.411635839121196" lon="11.464849896778901"><ele>503.0</ele><time>2026-04-11T06:39:38Z</time></trkpt><trkpt lat="43.41156061897367" lon="11.46482156206632"><ele>503.0</ele><time>2026-04-11T06:39:39Z</time></trkpt><trkpt lat="43.411490416582446" lon="11.464792533379553"><ele>502.99999999999994</ele><time>2026-04-11T06:39:40Z</time></trkpt><trkpt lat="43.41141478700159" lon="11.464750429871502"><ele>503.0</ele><time>2026-04-11T06:39:41Z</time></trkpt><trkpt lat="43.41133430595884" lon="11.464697706668035"><ele>501.8333333333333</ele><time>2026-04-11T06:39:42Z</time></trkpt><trkpt lat="43.41125503614856" lon="11.464631381888807"><ele>500.66666666666663</ele><time>2026-04-11T06:39:43Z</time></trkpt><trkpt lat="43.41117240650987" lon="11.464562202563775"><ele>499.5</ele><time>2026-04-11T06:39:44Z</time></trkpt><trkpt lat="43.41109352841429" lon="11.464488944767664"><ele>498.33333333333337</ele><time>2026-04-11T06:39:45Z</time></trkpt><trkpt lat="43.411039146215046" lon="11.464418506378905"><ele>497.1666666666667</ele><time>2026-04-11T06:39:46Z</time></trkpt><trkpt lat="43.41095724705576" lon="11.464377729372313"><ele>496.0</ele><time>2026-04-11T06:39:47Z</time></trkpt><trkpt lat="43.410861479201905" lon="11.46442746077786"><ele>495.6666666666667</ele><time>2026-04-11T06:39:48Z</time></trkpt><trkpt lat="43.410766902668435" lon="11.464440775462048"><ele>495.33333333333337</ele><time>2026-04-11T06:39:49Z</time></trkpt><trkpt lat="43.410690585279426" lon="11.464455455392924"><ele>495.0</ele><time>2026-04-11T06:39:50Z</time></trkpt><trkpt lat="43.41062022140886" lon="11.464475517731453"><ele>494.66666666666663</ele><time>2026-04-11T06:39:51Z</time></trkpt><trkpt lat="43.41054436901823" lon="11.464484241998003"><ele>494.3333333333333</ele><time>2026-04-11T06:39:52Z</time></trkpt><trkpt lat="43.41047029920483" lon="11.464488021347991"><ele>494.0</ele><time>2026-04-11T06:39:53Z</time></trkpt><trkpt lat="43.41039485934295" lon="11.464489086133646"><ele>493.6</ele><time>2026-04-11T06:39:54Z</time></trkpt><trkpt lat="43.41023497239006" lon="11.46449787739591"><ele>493.2</ele><time>2026-04-11T06:39:56Z</time></trkpt><trkpt lat="43.41014263144045" lon="11.464500175294873"><ele>492.80000000000007</ele><time>2026-04-11T06:39:57Z</time></trkpt><trkpt lat="43.41006270060284" lon="11.464499227572135"><ele>492.40000000000003</ele><time>2026-04-11T06:39:58Z</time></trkpt><trkpt lat="43.4099766942654" lon="11.464477645262894"><ele>492.0</ele><time>2026-04-11T06:39:59Z</time></trkpt><trkpt lat="43.40989997074858" lon="11.464470699333283"><ele>492.0</ele><time>2026-04-11T06:40:00Z</time></trkpt><trkpt lat="43.40981570840929" lon="11.464469311376371"><ele>492.0</ele><time>2026-04-11T06:40:01Z</time></trkpt><trkpt lat="43.40972839926546" lon="11.46446867302704"><ele>492.0</ele><time>2026-04-11T06:40:02Z</time></trkpt><trkpt lat="43.40965462188441" lon="11.464483723209975"><ele>492.0</ele><time>2026-04-11T06:40:03Z</time></trkpt><trkpt lat="43.4095796023664" lon="11.464496907150268"><ele>492.0</ele><time>2026-04-11T06:40:04Z</time></trkpt><trkpt lat="43.409492508928714" lon="11.464498020252732"><ele>492.0</ele><time>2026-04-11T06:40:05Z</time></trkpt><trkpt lat="43.409409035081886" lon="11.464486642595025"><ele>492.1666666666667</ele><time>2026-04-11T06:40:06Z</time></trkpt><trkpt lat="43.409327207020404" lon="11.464490891842015"><ele>492.33333333333337</ele><time>2026-04-11T06:40:07Z</time></trkpt><trkpt lat="43.40925563359624" lon="11.46450081376872"><ele>492.5</ele><time>2026-04-11T06:40:08Z</time></trkpt><trkpt lat="43.409180904478696" lon="11.464511645147681"><ele>492.6666666666667</ele><time>2026-04-11T06:40:09Z</time></trkpt><trkpt lat="43.40910792928235" lon="11.46452425260848"><ele>492.83333333333337</ele><time>2026-04-11T06:40:10Z</time></trkpt><trkpt lat="43.40902849049062" lon="11.464534709266937"><ele>493.0</ele><time>2026-04-11T06:40:11Z</time></trkpt><trkpt lat="43.40895429544483" lon="11.46454187298362"><ele>493.0</ele><time>2026-04-11T06:40:12Z</time></trkpt><trkpt lat="43.40887995590952" lon="11.464556583059585"><ele>492.99999999999994</ele><time>2026-04-11T06:40:13Z</time></trkpt><trkpt lat="43.408800479714586" lon="11.464563251714234"><ele>492.99999999999994</ele><time>2026-04-11T06:40:14Z</time></trkpt><trkpt lat="43.40871532633443" lon="11.46456295660373"><ele>493.0</ele><time>2026-04-11T06:40:15Z</time></trkpt><trkpt lat="43.40854838352566" lon="11.464557437407988"><ele>493.0</ele><time>2026-04-11T06:40:17Z</time></trkpt><trkpt lat="43.408462191847796" lon="11.464542818842805"><ele>492.2</ele><time>2026-04-11T06:40:18Z</time></trkpt><trkpt lat="43.408370113573945" lon="11.464531903255342"><ele>491.4</ele><time>2026-04-11T06:40:19Z</time></trkpt><trkpt lat="43.40829293193367" lon="11.464529672087158"><ele>490.59999999999997</ele><time>2026-04-11T06:40:20Z</time></trkpt><trkpt lat="43.40818785982591" lon="11.464526892674336"><ele>489.79999999999995</ele><time>2026-04-11T06:40:21Z</time></trkpt><trkpt lat="43.40807949817143" lon="11.464533297170547"><ele>489.0</ele><time>2026-04-11T06:40:22Z</time></trkpt><trkpt lat="43.40797300060235" lon="11.464547567159094"><ele>487.0</ele><time>2026-04-11T06:40:23Z</time></trkpt><trkpt lat="43.40786902686188" lon="11.46455745879705"><ele>485.0</ele><time>2026-04-11T06:40:24Z</time></trkpt><trkpt lat="43.40776170451616" lon="11.464562824097765"><ele>483.0</ele><time>2026-04-11T06:40:25Z</time></trkpt><trkpt lat="43.40765482504972" lon="11.464565000938004"><ele>481.0</ele><time>2026-04-11T06:40:26Z</time></trkpt><trkpt lat="43.407554846945764" lon="11.464591120693711"><ele>479.0</ele><time>2026-04-11T06:40:27Z</time></trkpt><trkpt lat="43.40745577173349" lon="11.46461136536773"><ele>478.8333333333333</ele><time>2026-04-11T06:40:28Z</time></trkpt><trkpt lat="43.407360877867745" lon="11.46463147887029"><ele>478.66666666666663</ele><time>2026-04-11T06:40:29Z</time></trkpt><trkpt lat="43.40726848047121" lon="11.464647456094667"><ele>478.5</ele><time>2026-04-11T06:40:30Z</time></trkpt><trkpt lat="43.40717710049539" lon="11.464656419270641"><ele>478.33333333333337</ele><time>2026-04-11T06:40:31Z</time></trkpt><trkpt lat="43.40709177120634" lon="11.464667105770287"><ele>478.1666666666667</ele><time>2026-04-11T06:40:32Z</time></trkpt><trkpt lat="43.407011342653675" lon="11.464664265213477"><ele>478.0</ele><time>2026-04-11T06:40:33Z</time></trkpt><trkpt lat="43.40693028310475" lon="11.46465801895584"><ele>478.0</ele><time>2026-04-11T06:40:34Z</time></trkpt><trkpt lat="43.40685551032018" lon="11.464637759557665"><ele>477.99999999999994</ele><time>2026-04-11T06:40:35Z</time></trkpt><trkpt lat="43.406784364106834" lon="11.464605130404593"><ele>477.99999999999994</ele><time>2026-04-11T06:40:36Z</time></trkpt><trkpt lat="43.406630787859335" lon="11.46455952789819"><ele>478.0</ele><time>2026-04-11T06:40:38Z</time></trkpt><trkpt lat="43.40655573330983" lon="11.464526655247075"><ele>478.0</ele><time>2026-04-11T06:40:39Z</time></trkpt><trkpt lat="43.40647690145703" lon="11.464506162197454"><ele>477.2</ele><time>2026-04-11T06:40:40Z</time></trkpt><trkpt lat="43.406393215323654" lon="11.464468410372346"><ele>476.4</ele><time>2026-04-11T06:40:41Z</time></trkpt><trkpt lat="43.406306322217624" lon="11.46443642839041"><ele>475.59999999999997</ele><time>2026-04-11T06:40:42Z</time></trkpt><trkpt lat="43.40621934097608" lon="11.464405912408166"><ele>474.79999999999995</ele><time>2026-04-11T06:40:43Z</time></trkpt><trkpt lat="43.406134850162175" lon="11.464367267021755"><ele>474.0</ele><time>2026-04-11T06:40:44Z</time></trkpt><trkpt lat="43.40604591067234" lon="11.46432748941641"><ele>472.79999999999995</ele><time>2026-04-11T06:40:45Z</time></trkpt><trkpt lat="43.405953260696" lon="11.46426834521014"><ele>471.59999999999997</ele><time>2026-04-11T06:40:46Z</time></trkpt><trkpt lat="43.40587156557837" lon="11.46419226873064"><ele>470.4</ele><time>2026-04-11T06:40:47Z</time></trkpt><trkpt lat="43.40578573991283" lon="11.464131151770504"><ele>469.2</ele><time>2026-04-11T06:40:48Z</time></trkpt><trkpt lat="43.40570242992888" lon="11.46406080341267"><ele>468.0</ele><time>2026-04-11T06:40:49Z</time></trkpt><trkpt lat="43.40562731860205" lon="11.463986204572857"><ele>468.0</ele><time>2026-04-11T06:40:50Z</time></trkpt><trkpt lat="43.40555267581788" lon="11.463926122303137"><ele>468.0</ele><time>2026-04-11T06:40:51Z</time></trkpt><trkpt lat="43.40548009822642" lon="11.463856495668901"><ele>468.0</ele><time>2026-04-11T06:40:52Z</time></trkpt><trkpt lat="43.40540964371742" lon="11.463789464211736"><ele>468.0</ele><time>2026-04-11T06:40:53Z</time></trkpt><trkpt lat="43.40534150288856" lon="11.463718997648636"><ele>468.0</ele><time>2026-04-11T06:40:54Z</time></trkpt><trkpt lat="43.40527656633787" lon="11.463637729986921"><ele>468.0</ele><time>2026-04-11T06:40:55Z</time></trkpt><trkpt lat="43.40522475056451" lon="11.46355855450548"><ele>465.0</ele><time>2026-04-11T06:40:56Z</time></trkpt><trkpt lat="43.40515830203717" lon="11.463486488994702"><ele>461.99999999999994</ele><time>2026-04-11T06:40:57Z</time></trkpt><trkpt lat="43.40504864644766" lon="11.463314517207067"><ele>458.99999999999994</ele><time>2026-04-11T06:40:59Z</time></trkpt><trkpt lat="43.404991061941956" lon="11.463225850475801"><ele>456.0</ele><time>2026-04-11T06:41:00Z</time></trkpt><trkpt lat="43.404934032946436" lon="11.463145518296713"><ele>453.0</ele><time>2026-04-11T06:41:01Z</time></trkpt><trkpt lat="43.404889759540545" lon="11.463061079857619"><ele>453.0</ele><time>2026-04-11T06:41:02Z</time></trkpt><trkpt lat="43.404837003823985" lon="11.462980009930522"><ele>453.0</ele><time>2026-04-11T06:41:03Z</time></trkpt><trkpt lat="43.404789985697036" lon="11.462891479185114"><ele>453.0</ele><time>2026-04-11T06:41:04Z</time></trkpt><trkpt lat="43.404751753804085" lon="11.46280143833807"><ele>453.0</ele><time>2026-04-11T06:41:05Z</time></trkpt><trkpt lat="43.404725151995656" lon="11.462701757489391"><ele>453.0</ele><time>2026-04-11T06:41:06Z</time></trkpt><trkpt lat="43.40470878005406" lon="11.4625998215256"><ele>453.0</ele><time>2026-04-11T06:41:07Z</time></trkpt><trkpt lat="43.40469809308232" lon="11.46250648045425"><ele>452.59999999999997</ele><time>2026-04-11T06:41:08Z</time></trkpt><trkpt lat="43.40468989469993" lon="11.462417823574137"><ele>452.19999999999993</ele><time>2026-04-11T06:41:09Z</time></trkpt><trkpt lat="43.40468588460874" lon="11.462329289583103"><ele>451.8</ele><time>2026-04-11T06:41:10Z</time></trkpt><trkpt lat="43.404657591551214" lon="11.462172004948997"><ele>451.4</ele><time>2026-04-11T06:41:12Z</time></trkpt><trkpt lat="43.40463319402476" lon="11.462019377090343"><ele>451.0</ele><time>2026-04-11T06:41:14Z</time></trkpt><trkpt lat="43.40461192405887" lon="11.461870763925138"><ele>452.25</ele><time>2026-04-11T06:41:16Z</time></trkpt><trkpt lat="43.404592448200326" lon="11.461728145716286"><ele>453.5</ele><time>2026-04-11T06:41:18Z</time></trkpt><trkpt lat="43.40449469644216" lon="11.461466433162915"><ele>454.75</ele><time>2026-04-11T06:41:22Z</time></trkpt><trkpt lat="43.40444419779512" lon="11.461341172704538"><ele>456.0</ele><time>2026-04-11T06:41:24Z</time></trkpt><trkpt lat="43.40437724329878" lon="11.461223779920555"><ele>456.4</ele><time>2026-04-11T06:41:26Z</time></trkpt><trkpt lat="43.40432136724867" lon="11.461093935806536"><ele>456.8</ele><time>2026-04-11T06:41:28Z</time></trkpt><trkpt lat="43.40427143369714" lon="11.46096407045244"><ele>457.19999999999993</ele><time>2026-04-11T06:41:30Z</time></trkpt><trkpt lat="43.40421069787883" lon="11.460841702580437"><ele>457.59999999999997</ele><time>2026-04-11T06:41:32Z</time></trkpt><trkpt lat="43.404159541159295" lon="11.460709417209268"><ele>458.0</ele><time>2026-04-11T06:41:34Z</time></trkpt><trkpt lat="43.404118564036956" lon="11.460568755674327"><ele>457.5</ele><time>2026-04-11T06:41:36Z</time></trkpt><trkpt lat="43.404096616364846" lon="11.460419085758245"><ele>457.0</ele><time>2026-04-11T06:41:38Z</time></trkpt><trkpt lat="43.40410459583336" lon="11.460279383333962"><ele>456.5</ele><time>2026-04-11T06:41:40Z</time></trkpt><trkpt lat="43.40413583332463" lon="11.460014780058007"><ele>456.0</ele><time>2026-04-11T06:41:44Z</time></trkpt><trkpt lat="43.40415211642618" lon="11.459883413005606"><ele>456.0</ele><time>2026-04-11T06:41:46Z</time></trkpt><trkpt lat="43.40418128631334" lon="11.459758277254597"><ele>456.0</ele><time>2026-04-11T06:41:48Z</time></trkpt><trkpt lat="43.40420835079136" lon="11.459622895889208"><ele>456.0</ele><time>2026-04-11T06:41:50Z</time></trkpt><trkpt lat="43.404254994385" lon="11.459501974542322"><ele>456.0</ele><time>2026-04-11T06:41:52Z</time></trkpt><trkpt lat="43.404293984631735" lon="11.459374347120702"><ele>456.0</ele><time>2026-04-11T06:41:54Z</time></trkpt><trkpt lat="43.40436111966762" lon="11.459264842403298"><ele>455.75</ele><time>2026-04-11T06:41:56Z</time></trkpt><trkpt lat="43.40443087885144" lon="11.459148902995898"><ele>455.5</ele><time>2026-04-11T06:41:58Z</time></trkpt><trkpt lat="43.40450794686284" lon="11.459036628739211"><ele>455.25</ele><time>2026-04-11T06:42:00Z</time></trkpt><trkpt lat="43.40459058285738" lon="11.458937569473232"><ele>455.0</ele><time>2026-04-11T06:42:02Z</time></trkpt><trkpt lat="43.40474237566909" lon="11.458712126229539"><ele>454.3333333333333</ele><time>2026-04-11T06:42:06Z</time></trkpt><trkpt lat="43.40478126876258" lon="11.458641268231318"><ele>453.66666666666663</ele><time>2026-04-11T06:42:07Z</time></trkpt><trkpt lat="43.40480513591437" lon="11.458556332601258"><ele>453.0</ele><time>2026-04-11T06:42:08Z</time></trkpt><trkpt lat="43.40482656105207" lon="11.458459620214793"><ele>452.33333333333337</ele><time>2026-04-11T06:42:09Z</time></trkpt><trkpt lat="43.40484413659299" lon="11.458360962557483"><ele>451.6666666666667</ele><time>2026-04-11T06:42:10Z</time></trkpt><trkpt lat="43.40486283640293" lon="11.458265136383266"><ele>451.0</ele><time>2026-04-11T06:42:11Z</time></trkpt><trkpt lat="43.40492184375664" lon="11.458120525377607"><ele>451.0</ele><time>2026-04-11T06:42:13Z</time></trkpt><trkpt lat="43.40501375352572" lon="11.457999816656818"><ele>451.0</ele><time>2026-04-11T06:42:15Z</time></trkpt><trkpt lat="43.40505437242347" lon="11.457839545695462"><ele>451.0</ele><time>2026-04-11T06:42:17Z</time></trkpt><trkpt lat="43.40504276396079" lon="11.457726766672566"><ele>451.0</ele><time>2026-04-11T06:42:18Z</time></trkpt><trkpt lat="43.4050330742148" lon="11.45760300225661"><ele>451.0</ele><time>2026-04-11T06:42:19Z</time></trkpt><trkpt lat="43.40500837226225" lon="11.457467697579238"><ele>449.0</ele><time>2026-04-11T06:42:20Z</time></trkpt><trkpt lat="43.4050041834015" lon="11.457332147850876"><ele>447.0</ele><time>2026-04-11T06:42:21Z</time></trkpt><trkpt lat="43.40499143708673" lon="11.457203095139148"><ele>445.0</ele><time>2026-04-11T06:42:22Z</time></trkpt><trkpt lat="43.404974145323614" lon="11.457083228650982"><ele>443.0</ele><time>2026-04-11T06:42:23Z</time></trkpt><trkpt lat="43.40491244590203" lon="11.45685306181697"><ele>441.8333333333333</ele><time>2026-04-11T06:42:25Z</time></trkpt><trkpt lat="43.40487318479454" lon="11.456733423756848"><ele>440.66666666666663</ele><time>2026-04-11T06:42:26Z</time></trkpt><trkpt lat="43.404832162287576" lon="11.456631141990679"><ele>439.5</ele><time>2026-04-11T06:42:27Z</time></trkpt><trkpt lat="43.404805723013325" lon="11.456547043833394"><ele>438.33333333333337</ele><time>2026-04-11T06:42:28Z</time></trkpt><trkpt lat="43.40479624487011" lon="11.456405164991875"><ele>437.1666666666667</ele><time>2026-04-11T06:42:30Z</time></trkpt><trkpt lat="43.404842877677595" lon="11.456336781334524"><ele>436.0</ele><time>2026-04-11T06:42:31Z</time></trkpt><trkpt lat="43.40491574017854" lon="11.456306577937603"><ele>436.00000000000006</ele><time>2026-04-11T06:42:32Z</time></trkpt><trkpt lat="43.40499213559072" lon="11.456299249842095"><ele>436.0</ele><time>2026-04-11T06:42:33Z</time></trkpt><trkpt lat="43.40507635545734" lon="11.456306918971304"><ele>436.0</ele><time>2026-04-11T06:42:34Z</time></trkpt><trkpt lat="43.40516186206334" lon="11.456326579545149"><ele>436.0</ele><time>2026-04-11T06:42:35Z</time></trkpt><trkpt lat="43.40524578154676" lon="11.456344543468285"><ele>436.00000000000006</ele><time>2026-04-11T06:42:36Z</time></trkpt><trkpt lat="43.405333483071956" lon="11.456364438445469"><ele>436.0</ele><time>2026-04-11T06:42:37Z</time></trkpt><trkpt lat="43.40541999885853" lon="11.456377101873134"><ele>434.50000000000006</ele><time>2026-04-11T06:42:38Z</time></trkpt><trkpt lat="43.40551404931182" lon="11.456380426686719"><ele>433.0</ele><time>2026-04-11T06:42:39Z</time></trkpt><trkpt lat="43.40560280045237" lon="11.456377804502521"><ele>431.5</ele><time>2026-04-11T06:42:40Z</time></trkpt><trkpt lat="43.4056753140041" lon="11.45635708979192"><ele>430.0</ele><time>2026-04-11T06:42:41Z</time></trkpt><trkpt lat="43.40574673401734" lon="11.456313245991527"><ele>428.50000000000006</ele><time>2026-04-11T06:42:42Z</time></trkpt><trkpt lat="43.405812217105094" lon="11.456239887903749"><ele>427.0</ele><time>2026-04-11T06:42:43Z</time></trkpt><trkpt lat="43.40587291012797" lon="11.456146621462418"><ele>426.75</ele><time>2026-04-11T06:42:44Z</time></trkpt><trkpt lat="43.40598640932667" lon="11.455939754849407"><ele>426.5</ele><time>2026-04-11T06:42:46Z</time></trkpt><trkpt lat="43.406030726794135" lon="11.455819328821022"><ele>426.25</ele><time>2026-04-11T06:42:47Z</time></trkpt><trkpt lat="43.4060570404857" lon="11.455690293186734"><ele>426.0</ele><time>2026-04-11T06:42:48Z</time></trkpt><trkpt lat="43.40607278564043" lon="11.455557611675568"><ele>425.20000000000005</ele><time>2026-04-11T06:42:49Z</time></trkpt><trkpt lat="43.40609279046092" lon="11.455433013631547"><ele>424.40000000000003</ele><time>2026-04-11T06:42:50Z</time></trkpt><trkpt lat="43.406107847603074" lon="11.45530663501153"><ele>423.6</ele><time>2026-04-11T06:42:51Z</time></trkpt><trkpt lat="43.40613357151464" lon="11.455181477905462"><ele>422.8</ele><time>2026-04-11T06:42:52Z</time></trkpt><trkpt lat="43.40615975487625" lon="11.455049197420436"><ele>422.0</ele><time>2026-04-11T06:42:53Z</time></trkpt><trkpt lat="43.406191547736526" lon="11.454927549568117"><ele>422.0</ele><time>2026-04-11T06:42:54Z</time></trkpt><trkpt lat="43.406222437029726" lon="11.454811081860875"><ele>422.0</ele><time>2026-04-11T06:42:55Z</time></trkpt><trkpt lat="43.406266623159546" lon="11.454698440715706"><ele>422.0</ele><time>2026-04-11T06:42:56Z</time></trkpt><trkpt lat="43.40631375489453" lon="11.454594050624959"><ele>422.0</ele><time>2026-04-11T06:42:57Z</time></trkpt><trkpt lat="43.40638435112565" lon="11.454485706676575"><ele>422.0</ele><time>2026-04-11T06:42:58Z</time></trkpt><trkpt lat="43.40645309205531" lon="11.454377981828701"><ele>420.0</ele><time>2026-04-11T06:42:59Z</time></trkpt><trkpt lat="43.40650589034742" lon="11.454255839650898"><ele>418.0</ele><time>2026-04-11T06:43:00Z</time></trkpt><trkpt lat="43.40653305434616" lon="11.454118900882516"><ele>416.0</ele><time>2026-04-11T06:43:01Z</time></trkpt><trkpt lat="43.4065640989887" lon="11.453990990832526"><ele>414.0</ele><time>2026-04-11T06:43:02Z</time></trkpt><trkpt lat="43.406581511250394" lon="11.453864281927087"><ele>412.0</ele><time>2026-04-11T06:43:03Z</time></trkpt><trkpt lat="43.4065831707332" lon="11.453741894185956"><ele>412.0</ele><time>2026-04-11T06:43:04Z</time></trkpt><trkpt lat="43.406573943858575" lon="11.453624049730639"><ele>412.0</ele><time>2026-04-11T06:43:05Z</time></trkpt><trkpt lat="43.406498445365415" lon="11.453422172482146"><ele>412.0</ele><time>2026-04-11T06:43:07Z</time></trkpt><trkpt lat="43.406466371585964" lon="11.453315481406806"><ele>412.0</ele><time>2026-04-11T06:43:08Z</time></trkpt><trkpt lat="43.40644256470207" lon="11.453206037054873"><ele>412.0</ele><time>2026-04-11T06:43:09Z</time></trkpt><trkpt lat="43.40644555931552" lon="11.453082165178898"><ele>412.00000000000006</ele><time>2026-04-11T06:43:10Z</time></trkpt><trkpt lat="43.406450587060064" lon="11.452968917648993"><ele>412.0</ele><time>2026-04-11T06:43:11Z</time></trkpt><trkpt lat="43.40645946572484" lon="11.452859396454716"><ele>412.0</ele><time>2026-04-11T06:43:12Z</time></trkpt><trkpt lat="43.406478936741514" lon="11.452750862480542"><ele>412.0</ele><time>2026-04-11T06:43:13Z</time></trkpt><trkpt lat="43.406501681061584" lon="11.452642931295356"><ele>412.00000000000006</ele><time>2026-04-11T06:43:14Z</time></trkpt><trkpt lat="43.40651961917029" lon="11.452528294110879"><ele>412.0</ele><time>2026-04-11T06:43:15Z</time></trkpt><trkpt lat="43.40652985956359" lon="11.452407223445608"><ele>411.50000000000006</ele><time>2026-04-11T06:43:16Z</time></trkpt><trkpt lat="43.40652709678518" lon="11.452283847916826"><ele>411.0</ele><time>2026-04-11T06:43:17Z</time></trkpt><trkpt lat="43.40651868207678" lon="11.452165720536655"><ele>410.5</ele><time>2026-04-11T06:43:18Z</time></trkpt><trkpt lat="43.40650626180732" lon="11.45204502254887"><ele>410.0</ele><time>2026-04-11T06:43:19Z</time></trkpt><trkpt lat="43.4064832671083" lon="11.45193244334543"><ele>409.50000000000006</ele><time>2026-04-11T06:43:20Z</time></trkpt><trkpt lat="43.406449093956624" lon="11.451830839574894"><ele>409.0</ele><time>2026-04-11T06:43:21Z</time></trkpt><trkpt lat="43.40640416024333" lon="11.451746093780853"><ele>409.33333333333337</ele><time>2026-04-11T06:43:22Z</time></trkpt><trkpt lat="43.40636918852556" lon="11.45165705007713"><ele>409.6666666666667</ele><time>2026-04-11T06:43:23Z</time></trkpt><trkpt lat="43.406332912886285" lon="11.451573939102069"><ele>410.0</ele><time>2026-04-11T06:43:24Z</time></trkpt><trkpt lat="43.40629269965646" lon="11.451485203919471"><ele>410.33333333333337</ele><time>2026-04-11T06:43:25Z</time></trkpt><trkpt lat="43.406251465486314" lon="11.451407900758744"><ele>410.6666666666667</ele><time>2026-04-11T06:43:26Z</time></trkpt><trkpt lat="43.40616285642376" lon="11.451247995090407"><ele>411.0</ele><time>2026-04-11T06:43:28Z</time></trkpt><trkpt lat="43.40611415494953" lon="11.45117120168098"><ele>411.0</ele><time>2026-04-11T06:43:29Z</time></trkpt><trkpt lat="43.40606639399522" lon="11.451100924320665"><ele>411.0</ele><time>2026-04-11T06:43:30Z</time></trkpt><trkpt lat="43.40601846443388" lon="11.4510061931675"><ele>411.0</ele><time>2026-04-11T06:43:31Z</time></trkpt><trkpt lat="43.40598478058649" lon="11.450903517829609"><ele>411.0</ele><time>2026-04-11T06:43:32Z</time></trkpt><trkpt lat="43.40595273806877" lon="11.45081104024228"><ele>411.0</ele><time>2026-04-11T06:43:33Z</time></trkpt><trkpt lat="43.405939280387116" lon="11.450695257094027"><ele>411.0</ele><time>2026-04-11T06:43:34Z</time></trkpt><trkpt lat="43.40591358542694" lon="11.450602890009309"><ele>411.0</ele><time>2026-04-11T06:43:35Z</time></trkpt><trkpt lat="43.40589205082755" lon="11.45050309711556"><ele>411.0</ele><time>2026-04-11T06:43:36Z</time></trkpt><trkpt lat="43.40585944374114" lon="11.450414770954577"><ele>411.0</ele><time>2026-04-11T06:43:37Z</time></trkpt><trkpt lat="43.40583126157181" lon="11.4503111041446"><ele>411.0</ele><time>2026-04-11T06:43:38Z</time></trkpt><trkpt lat="43.40579158735634" lon="11.450210837578442"><ele>411.0</ele><time>2026-04-11T06:43:39Z</time></trkpt><trkpt lat="43.405758119783464" lon="11.450114018337652"><ele>411.0</ele><time>2026-04-11T06:43:40Z</time></trkpt><trkpt lat="43.405716206191" lon="11.450014497720126"><ele>410.5</ele><time>2026-04-11T06:43:41Z</time></trkpt><trkpt lat="43.4056708251463" lon="11.449918898033905"><ele>410.0</ele><time>2026-04-11T06:43:42Z</time></trkpt><trkpt lat="43.4056231680926" lon="11.449820236406099"><ele>409.5</ele><time>2026-04-11T06:43:43Z</time></trkpt><trkpt lat="43.40557875834603" lon="11.449718270292625"><ele>409.0</ele><time>2026-04-11T06:43:44Z</time></trkpt><trkpt lat="43.40552297286447" lon="11.449616140821954"><ele>408.5</ele><time>2026-04-11T06:43:45Z</time></trkpt><trkpt lat="43.40546912959439" lon="11.449522322098478"><ele>408.0</ele><time>2026-04-11T06:43:46Z</time></trkpt><trkpt lat="43.40541399728813" lon="11.449426710152672"><ele>406.59999999999997</ele><time>2026-04-11T06:43:47Z</time></trkpt><trkpt lat="43.40527824705751" lon="11.44924885322822"><ele>405.2</ele><time>2026-04-11T06:43:49Z</time></trkpt><trkpt lat="43.4052199000349" lon="11.449147244355856"><ele>403.8</ele><time>2026-04-11T06:43:50Z</time></trkpt><trkpt lat="43.4051680479952" lon="11.44905671607757"><ele>402.4</ele><time>2026-04-11T06:43:51Z</time></trkpt><trkpt lat="43.405125953555896" lon="11.448971952081997"><ele>401.0</ele><time>2026-04-11T06:43:52Z</time></trkpt><trkpt lat="43.405078137198856" lon="11.448892839867723"><ele>401.0</ele><time>2026-04-11T06:43:53Z</time></trkpt><trkpt lat="43.405035784986914" lon="11.448811657106589"><ele>401.0</ele><time>2026-04-11T06:43:54Z</time></trkpt><trkpt lat="43.4049899396422" lon="11.448729920752433"><ele>401.0</ele><time>2026-04-11T06:43:55Z</time></trkpt><trkpt lat="43.40493993465432" lon="11.448665497797384"><ele>401.0</ele><time>2026-04-11T06:43:56Z</time></trkpt><trkpt lat="43.40488248436288" lon="11.448603231738371"><ele>401.0</ele><time>2026-04-11T06:43:57Z</time></trkpt><trkpt lat="43.40482523064082" lon="11.448540152419543"><ele>401.0</ele><time>2026-04-11T06:43:58Z</time></trkpt><trkpt lat="43.40476745479814" lon="11.448473898301039"><ele>401.0</ele><time>2026-04-11T06:43:59Z</time></trkpt><trkpt lat="43.40471007990397" lon="11.448422477647773"><ele>400.49999999999994</ele><time>2026-04-11T06:44:00Z</time></trkpt><trkpt lat="43.40465215070141" lon="11.448372262447078"><ele>400.0</ele><time>2026-04-11T06:44:01Z</time></trkpt><trkpt lat="43.40458880807817" lon="11.448319956921033"><ele>399.5</ele><time>2026-04-11T06:44:02Z</time></trkpt><trkpt lat="43.40452014999591" lon="11.448280206360147"><ele>399.0</ele><time>2026-04-11T06:44:03Z</time></trkpt><trkpt lat="43.404455374977665" lon="11.4482219037388"><ele>398.49999999999994</ele><time>2026-04-11T06:44:04Z</time></trkpt><trkpt lat="43.40438723749163" lon="11.448168901132071"><ele>398.0</ele><time>2026-04-11T06:44:05Z</time></trkpt><trkpt lat="43.404316531386215" lon="11.448109434277885"><ele>398.0</ele><time>2026-04-11T06:44:06Z</time></trkpt><trkpt lat="43.40424490659686" lon="11.448054186896524"><ele>398.0</ele><time>2026-04-11T06:44:07Z</time></trkpt><trkpt lat="43.40417493308413" lon="11.447998198740434"><ele>398.0</ele><time>2026-04-11T06:44:08Z</time></trkpt><trkpt lat="43.40402265393851" lon="11.447902580491785"><ele>398.0</ele><time>2026-04-11T06:44:10Z</time></trkpt><trkpt lat="43.40394667607364" lon="11.447860326611162"><ele>398.0</ele><time>2026-04-11T06:44:11Z</time></trkpt><trkpt lat="43.403871459346654" lon="11.447822009664458"><ele>398.16666666666663</ele><time>2026-04-11T06:44:12Z</time></trkpt><trkpt lat="43.40379470068195" lon="11.447791221666133"><ele>398.3333333333333</ele><time>2026-04-11T06:44:13Z</time></trkpt><trkpt lat="43.40371489754877" lon="11.447758490595088"><ele>398.5</ele><time>2026-04-11T06:44:14Z</time></trkpt><trkpt lat="43.403636115898095" lon="11.44771734006729"><ele>398.66666666666663</ele><time>2026-04-11T06:44:15Z</time></trkpt><trkpt lat="43.40355479885657" lon="11.447682820318672"><ele>398.8333333333333</ele><time>2026-04-11T06:44:16Z</time></trkpt><trkpt lat="43.403472763966214" lon="11.447660018611343"><ele>399.0</ele><time>2026-04-11T06:44:17Z</time></trkpt><trkpt lat="43.403396758142364" lon="11.447625717795784"><ele>399.0</ele><time>2026-04-11T06:44:18Z</time></trkpt><trkpt lat="43.40331595017634" lon="11.447588757284121"><ele>399.0</ele><time>2026-04-11T06:44:19Z</time></trkpt><trkpt lat="43.40324009313016" lon="11.447542499377455"><ele>399.0</ele><time>2026-04-11T06:44:20Z</time></trkpt><trkpt lat="43.403159945355696" lon="11.447491994363235"><ele>399.0</ele><time>2026-04-11T06:44:21Z</time></trkpt><trkpt lat="43.40307703032457" lon="11.447451417834774"><ele>399.0</ele><time>2026-04-11T06:44:22Z</time></trkpt><trkpt lat="43.4030024699559" lon="11.447400458512673"><ele>399.0</ele><time>2026-04-11T06:44:23Z</time></trkpt><trkpt lat="43.4029213729429" lon="11.44735816934764"><ele>399.0</ele><time>2026-04-11T06:44:24Z</time></trkpt><trkpt lat="43.40283910926294" lon="11.447305795594806"><ele>399.0</ele><time>2026-04-11T06:44:25Z</time></trkpt><trkpt lat="43.40275966155585" lon="11.447255011933427"><ele>399.0</ele><time>2026-04-11T06:44:26Z</time></trkpt><trkpt lat="43.40268466630181" lon="11.44720539573388"><ele>399.0</ele><time>2026-04-11T06:44:27Z</time></trkpt><trkpt lat="43.40260569310337" lon="11.447160325740457"><ele>399.0</ele><time>2026-04-11T06:44:28Z</time></trkpt><trkpt lat="43.40252235670414" lon="11.447119848242373"><ele>399.0</ele><time>2026-04-11T06:44:29Z</time></trkpt><trkpt lat="43.4023534498682" lon="11.447031986588788"><ele>399.0</ele><time>2026-04-11T06:44:31Z</time></trkpt><trkpt lat="43.40227565629714" lon="11.446979109111712"><ele>399.0</ele><time>2026-04-11T06:44:32Z</time></trkpt><trkpt lat="43.40219614139728" lon="11.446925557798304"><ele>399.0</ele><time>2026-04-11T06:44:33Z</time></trkpt><trkpt lat="43.40211419137534" lon="11.446871763457688"><ele>399.0</ele><time>2026-04-11T06:44:34Z</time></trkpt><trkpt lat="43.4020595955561" lon="11.446807624216678"><ele>399.0</ele><time>2026-04-11T06:44:35Z</time></trkpt><trkpt lat="43.40197462433209" lon="11.446742783479213"><ele>399.0</ele><time>2026-04-11T06:44:36Z</time></trkpt><trkpt lat="43.40188940970584" lon="11.44666329511748"><ele>397.2</ele><time>2026-04-11T06:44:37Z</time></trkpt><trkpt lat="43.40181223601175" lon="11.446572843038712"><ele>395.4</ele><time>2026-04-11T06:44:38Z</time></trkpt><trkpt lat="43.40173740782866" lon="11.44648013846257"><ele>393.6</ele><time>2026-04-11T06:44:39Z</time></trkpt><trkpt lat="43.40166216651805" lon="11.446402615372623"><ele>391.8</ele><time>2026-04-11T06:44:40Z</time></trkpt><trkpt lat="43.401594056198995" lon="11.44631674039928"><ele>390.0</ele><time>2026-04-11T06:44:41Z</time></trkpt><trkpt lat="43.40152543553115" lon="11.446221901588675"><ele>390.0</ele><time>2026-04-11T06:44:42Z</time></trkpt><trkpt lat="43.40144937207181" lon="11.446125504275578"><ele>390.0</ele><time>2026-04-11T06:44:43Z</time></trkpt><trkpt lat="43.401378391698934" lon="11.446040492527116"><ele>390.0</ele><time>2026-04-11T06:44:44Z</time></trkpt><trkpt lat="43.40131057967378" lon="11.445947531243375"><ele>390.0</ele><time>2026-04-11T06:44:45Z</time></trkpt><trkpt lat="43.401251744989644" lon="11.445840387614945"><ele>390.0</ele><time>2026-04-11T06:44:46Z</time></trkpt><trkpt lat="43.401194849264805" lon="11.445740790618208"><ele>388.25</ele><time>2026-04-11T06:44:47Z</time></trkpt><trkpt lat="43.4011362559264" lon="11.445635179127397"><ele>386.5</ele><time>2026-04-11T06:44:48Z</time></trkpt><trkpt lat="43.401078374708625" lon="11.445532019857277"><ele>384.75</ele><time>2026-04-11T06:44:49Z</time></trkpt><trkpt lat="43.401016503676225" lon="11.445427458422722"><ele>383.0</ele><time>2026-04-11T06:44:50Z</time></trkpt><trkpt lat="43.40088550980488" lon="11.445239241396845"><ele>382.79999999999995</ele><time>2026-04-11T06:44:52Z</time></trkpt><trkpt lat="43.4008168354499" lon="11.445134360427238"><ele>382.6</ele><time>2026-04-11T06:44:53Z</time></trkpt><trkpt lat="43.40073987544858" lon="11.44503645144312"><ele>382.4</ele><time>2026-04-11T06:44:54Z</time></trkpt><trkpt lat="43.400662143023986" lon="11.444942056395334"><ele>382.20000000000005</ele><time>2026-04-11T06:44:55Z</time></trkpt><trkpt lat="43.40059017329823" lon="11.444841244368773"><ele>382.0</ele><time>2026-04-11T06:44:56Z</time></trkpt><trkpt lat="43.40051367881127" lon="11.444741682868615"><ele>381.0</ele><time>2026-04-11T06:44:57Z</time></trkpt><trkpt lat="43.40043746377929" lon="11.444637278184498"><ele>380.0</ele><time>2026-04-11T06:44:58Z</time></trkpt><trkpt lat="43.40036004699895" lon="11.444532789978481"><ele>379.0</ele><time>2026-04-11T06:44:59Z</time></trkpt><trkpt lat="43.40027661896835" lon="11.444431336310753"><ele>378.0</ele><time>2026-04-11T06:45:00Z</time></trkpt><trkpt lat="43.40019731489913" lon="11.444328501004719"><ele>377.0</ele><time>2026-04-11T06:45:01Z</time></trkpt><trkpt lat="43.4001207264353" lon="11.444219478943188"><ele>377.0</ele><time>2026-04-11T06:45:02Z</time></trkpt><trkpt lat="43.40004364542426" lon="11.44411480955396"><ele>377.0</ele><time>2026-04-11T06:45:03Z</time></trkpt><trkpt lat="43.39996826148441" lon="11.444012424329433"><ele>377.0</ele><time>2026-04-11T06:45:04Z</time></trkpt><trkpt lat="43.39989314377976" lon="11.44391389181929"><ele>377.0</ele><time>2026-04-11T06:45:05Z</time></trkpt><trkpt lat="43.3998155977034" lon="11.44382249518262"><ele>377.0</ele><time>2026-04-11T06:45:06Z</time></trkpt><trkpt lat="43.39973645535941" lon="11.443748176258774"><ele>376.8</ele><time>2026-04-11T06:45:07Z</time></trkpt><trkpt lat="43.39965324160326" lon="11.443681213775642"><ele>376.6</ele><time>2026-04-11T06:45:08Z</time></trkpt><trkpt lat="43.39956122435495" lon="11.443649044369392"><ele>376.40000000000003</ele><time>2026-04-11T06:45:09Z</time></trkpt><trkpt lat="43.399476996840896" lon="11.443620789737135"><ele>376.20000000000005</ele><time>2026-04-11T06:45:10Z</time></trkpt><trkpt lat="43.399398851416976" lon="11.443582988414434"><ele>376.0</ele><time>2026-04-11T06:45:11Z</time></trkpt><trkpt lat="43.39925650392623" lon="11.443509877470825"><ele>376.0</ele><time>2026-04-11T06:45:13Z</time></trkpt><trkpt lat="43.399195357739465" lon="11.443484852886446"><ele>376.0</ele><time>2026-04-11T06:45:14Z</time></trkpt><trkpt lat="43.399123647340346" lon="11.44347523852826"><ele>376.0</ele><time>2026-04-11T06:45:15Z</time></trkpt><trkpt lat="43.39905752829273" lon="11.44346186464907"><ele>376.0</ele><time>2026-04-11T06:45:16Z</time></trkpt><trkpt lat="43.39899150797672" lon="11.443455388031596"><ele>376.0</ele><time>2026-04-11T06:45:17Z</time></trkpt><trkpt lat="43.39892725803025" lon="11.443447709155677"><ele>376.0</ele><time>2026-04-11T06:45:18Z</time></trkpt><trkpt lat="43.398807109422094" lon="11.443458914156839"><ele>376.0</ele><time>2026-04-11T06:45:20Z</time></trkpt><trkpt lat="43.39873944761162" lon="11.443472493564908"><ele>376.0</ele><time>2026-04-11T06:45:21Z</time></trkpt><trkpt lat="43.398671843403655" lon="11.443475819463522"><ele>376.0</ele><time>2026-04-11T06:45:22Z</time></trkpt><trkpt lat="43.39859233316417" lon="11.443497847793418"><ele>376.0</ele><time>2026-04-11T06:45:23Z</time></trkpt><trkpt lat="43.39852101902439" lon="11.443515439879091"><ele>376.0</ele><time>2026-04-11T06:45:24Z</time></trkpt><trkpt lat="43.398450449609385" lon="11.443526676419985"><ele>376.0</ele><time>2026-04-11T06:45:25Z</time></trkpt><trkpt lat="43.398376673599714" lon="11.443540325135023"><ele>376.0</ele><time>2026-04-11T06:45:26Z</time></trkpt><trkpt lat="43.3983064683875" lon="11.443557466706695"><ele>376.0</ele><time>2026-04-11T06:45:27Z</time></trkpt><trkpt lat="43.3982416083106" lon="11.443572357091599"><ele>376.0</ele><time>2026-04-11T06:45:28Z</time></trkpt><trkpt lat="43.39816686781701" lon="11.443587317099942"><ele>376.0</ele><time>2026-04-11T06:45:29Z</time></trkpt><trkpt lat="43.39809619635306" lon="11.443613252469673"><ele>376.0</ele><time>2026-04-11T06:45:30Z</time></trkpt><trkpt lat="43.39802149201633" lon="11.44363262817944"><ele>376.0</ele><time>2026-04-11T06:45:31Z</time></trkpt><trkpt lat="43.397947796802235" lon="11.443641666321705"><ele>376.0</ele><time>2026-04-11T06:45:32Z</time></trkpt><trkpt lat="43.397792392651915" lon="11.443611905785943"><ele>375.5</ele><time>2026-04-11T06:45:34Z</time></trkpt><trkpt lat="43.39771962439508" lon="11.443585973967643"><ele>375.0</ele><time>2026-04-11T06:45:35Z</time></trkpt><trkpt lat="43.397643412422255" lon="11.44354291669282"><ele>374.5</ele><time>2026-04-11T06:45:36Z</time></trkpt><trkpt lat="43.39756537722224" lon="11.4435149265707"><ele>374.0</ele><time>2026-04-11T06:45:37Z</time></trkpt><trkpt lat="43.39749543739782" lon="11.443492032095241"><ele>373.5</ele><time>2026-04-11T06:45:38Z</time></trkpt><trkpt lat="43.3974231340792" lon="11.44346330600487"><ele>373.0</ele><time>2026-04-11T06:45:39Z</time></trkpt><trkpt lat="43.39734741370414" lon="11.443431122592335"><ele>373.0</ele><time>2026-04-11T06:45:40Z</time></trkpt><trkpt lat="43.3972731521212" lon="11.443395911826762"><ele>373.0</ele><time>2026-04-11T06:45:41Z</time></trkpt><trkpt lat="43.39719673496435" lon="11.44336508867203"><ele>373.0</ele><time>2026-04-11T06:45:42Z</time></trkpt><trkpt lat="43.39711515965378" lon="11.443336667958379"><ele>373.0</ele><time>2026-04-11T06:45:43Z</time></trkpt><trkpt lat="43.39703573663112" lon="11.443310037352576"><ele>373.0</ele><time>2026-04-11T06:45:44Z</time></trkpt><trkpt lat="43.39695209239688" lon="11.443279376911295"><ele>373.0</ele><time>2026-04-11T06:45:45Z</time></trkpt><trkpt lat="43.39687210394826" lon="11.443246447084745"><ele>372.66666666666663</ele><time>2026-04-11T06:45:46Z</time></trkpt><trkpt lat="43.39679096783446" lon="11.443205481976145"><ele>372.3333333333333</ele><time>2026-04-11T06:45:47Z</time></trkpt><trkpt lat="43.39670631614522" lon="11.44317396881298"><ele>372.0</ele><time>2026-04-11T06:45:48Z</time></trkpt><trkpt lat="43.39662513786705" lon="11.443142611656477"><ele>371.6666666666667</ele><time>2026-04-11T06:45:49Z</time></trkpt><trkpt lat="43.396544145834206" lon="11.443118163750643"><ele>371.33333333333337</ele><time>2026-04-11T06:45:50Z</time></trkpt><trkpt lat="43.39646356109666" lon="11.443088529391348"><ele>371.0</ele><time>2026-04-11T06:45:51Z</time></trkpt><trkpt lat="43.39638005198555" lon="11.44305670635512"><ele>370.20000000000005</ele><time>2026-04-11T06:45:52Z</time></trkpt><trkpt lat="43.396297027007066" lon="11.443022509993892"><ele>369.40000000000003</ele><time>2026-04-11T06:45:53Z</time></trkpt><trkpt lat="43.396128222271045" lon="11.442955930651518"><ele>368.6</ele><time>2026-04-11T06:45:55Z</time></trkpt><trkpt lat="43.39604173976785" lon="11.442918202248128"><ele>367.8</ele><time>2026-04-11T06:45:56Z</time></trkpt><trkpt lat="43.395954792814806" lon="11.44288247310116"><ele>367.0</ele><time>2026-04-11T06:45:57Z</time></trkpt><trkpt lat="43.395865826070604" lon="11.442841628619746"><ele>367.0</ele><time>2026-04-11T06:45:58Z</time></trkpt><trkpt lat="43.39577185324132" lon="11.44280341618768"><ele>367.0</ele><time>2026-04-11T06:45:59Z</time></trkpt><trkpt lat="43.39568138649205" lon="11.442775999000899"><ele>367.0</ele><time>2026-04-11T06:46:00Z</time></trkpt><trkpt lat="43.39559278950655" lon="11.44274902234465"><ele>367.0</ele><time>2026-04-11T06:46:01Z</time></trkpt><trkpt lat="43.39550513481144" lon="11.44272060346766"><ele>367.0</ele><time>2026-04-11T06:46:02Z</time></trkpt><trkpt lat="43.39542520715653" lon="11.442705359369116"><ele>367.16666666666663</ele><time>2026-04-11T06:46:03Z</time></trkpt><trkpt lat="43.39533848557751" lon="11.44267076396218"><ele>367.3333333333333</ele><time>2026-04-11T06:46:04Z</time></trkpt><trkpt lat="43.395255505784576" lon="11.442658983354528"><ele>367.5</ele><time>2026-04-11T06:46:05Z</time></trkpt><trkpt lat="43.39517109726094" lon="11.442660649007959"><ele>367.6666666666667</ele><time>2026-04-11T06:46:06Z</time></trkpt><trkpt lat="43.3950931678955" lon="11.442666519326869"><ele>367.83333333333337</ele><time>2026-04-11T06:46:07Z</time></trkpt><trkpt lat="43.39501466494928" lon="11.44267552589325"><ele>368.0</ele><time>2026-04-11T06:46:08Z</time></trkpt><trkpt lat="43.394941543058714" lon="11.442675604979385"><ele>368.0</ele><time>2026-04-11T06:46:09Z</time></trkpt><trkpt lat="43.3948672944313" lon="11.442674445248935"><ele>368.0</ele><time>2026-04-11T06:46:10Z</time></trkpt><trkpt lat="43.394748648623114" lon="11.442701841793836"><ele>368.0</ele><time>2026-04-11T06:46:12Z</time></trkpt><trkpt lat="43.39463326701673" lon="11.442692960646543"><ele>368.0</ele><time>2026-04-11T06:46:14Z</time></trkpt><trkpt lat="43.39441187912474" lon="11.442675715214897"><ele>368.0</ele><time>2026-04-11T06:46:18Z</time></trkpt><trkpt lat="43.39430975594266" lon="11.442660919999865"><ele>368.0</ele><time>2026-04-11T06:46:20Z</time></trkpt><trkpt lat="43.39419518686613" lon="11.44263988263522"><ele>368.0</ele><time>2026-04-11T06:46:22Z</time></trkpt><trkpt lat="43.3940719786634" lon="11.442626577218844"><ele>368.0</ele><time>2026-04-11T06:46:24Z</time></trkpt><trkpt lat="43.39394338228911" lon="11.442616214169647"><ele>368.0</ele><time>2026-04-11T06:46:26Z</time></trkpt><trkpt lat="43.393876447816076" lon="11.442608028932016"><ele>368.0</ele><time>2026-04-11T06:46:27Z</time></trkpt><trkpt lat="43.39380550073474" lon="11.442595683939315"><ele>368.0</ele><time>2026-04-11T06:46:28Z</time></trkpt><trkpt lat="43.393738154418976" lon="11.442590187509996"><ele>368.0</ele><time>2026-04-11T06:46:29Z</time></trkpt><trkpt lat="43.39366943391553" lon="11.442577119864875"><ele>368.0</ele><time>2026-04-11T06:46:30Z</time></trkpt><trkpt lat="43.393601168621664" lon="11.442558825046856"><ele>368.0</ele><time>2026-04-11T06:46:31Z</time></trkpt><trkpt lat="43.39352997805094" lon="11.442535238137483"><ele>368.0</ele><time>2026-04-11T06:46:32Z</time></trkpt><trkpt lat="43.39346112172009" lon="11.44250518385567"><ele>368.0</ele><time>2026-04-11T06:46:33Z</time></trkpt><trkpt lat="43.393393543975364" lon="11.44246073320924"><ele>368.0</ele><time>2026-04-11T06:46:34Z</time></trkpt><trkpt lat="43.39332910995531" lon="11.442417377510944"><ele>368.0</ele><time>2026-04-11T06:46:35Z</time></trkpt><trkpt lat="43.393194048023325" lon="11.442355121505967"><ele>368.0</ele><time>2026-04-11T06:46:37Z</time></trkpt><trkpt lat="43.3931278901402" lon="11.44232299563892"><ele>368.0</ele><time>2026-04-11T06:46:38Z</time></trkpt><trkpt lat="43.39305522008343" lon="11.442307526137458"><ele>368.0</ele><time>2026-04-11T06:46:39Z</time></trkpt><trkpt lat="43.39298571652736" lon="11.44229536503235"><ele>368.1666666666667</ele><time>2026-04-11T06:46:40Z</time></trkpt><trkpt lat="43.39291865784076" lon="11.442287427056526"><ele>368.33333333333337</ele><time>2026-04-11T06:46:41Z</time></trkpt><trkpt lat="43.39285262344519" lon="11.442284281760042"><ele>368.5</ele><time>2026-04-11T06:46:42Z</time></trkpt><trkpt lat="43.39278649922922" lon="11.44229002951059"><ele>368.6666666666667</ele><time>2026-04-11T06:46:43Z</time></trkpt><trkpt lat="43.39266405572865" lon="11.442315856997304"><ele>368.8333333333333</ele><time>2026-04-11T06:46:45Z</time></trkpt><trkpt lat="43.3926014897529" lon="11.442332750164478"><ele>369.0</ele><time>2026-04-11T06:46:46Z</time></trkpt><trkpt lat="43.39248228232243" lon="11.4423727304787"><ele>369.0</ele><time>2026-04-11T06:46:48Z</time></trkpt><trkpt lat="43.392419915257285" lon="11.442392960086815"><ele>369.0</ele><time>2026-04-11T06:46:49Z</time></trkpt><trkpt lat="43.39236015269301" lon="11.442420448981158"><ele>369.0</ele><time>2026-04-11T06:46:50Z</time></trkpt><trkpt lat="43.39230225021592" lon="11.442455921562745"><ele>369.0</ele><time>2026-04-11T06:46:51Z</time></trkpt><trkpt lat="43.39223818445033" lon="11.4424903845815"><ele>369.0</ele><time>2026-04-11T06:46:52Z</time></trkpt><trkpt lat="43.39217791878675" lon="11.442534714150842"><ele>369.0</ele><time>2026-04-11T06:46:53Z</time></trkpt><trkpt lat="43.3921177949938" lon="11.442574057625084"><ele>369.0</ele><time>2026-04-11T06:46:54Z</time></trkpt><trkpt lat="43.39205557187135" lon="11.442615983352786"><ele>368.4</ele><time>2026-04-11T06:46:55Z</time></trkpt><trkpt lat="43.39199761774476" lon="11.442652147777823"><ele>367.79999999999995</ele><time>2026-04-11T06:46:56Z</time></trkpt><trkpt lat="43.391875165190335" lon="11.442731274632882"><ele>367.20000000000005</ele><time>2026-04-11T06:46:58Z</time></trkpt><trkpt lat="43.391820429243865" lon="11.442776858477696"><ele>366.6</ele><time>2026-04-11T06:46:59Z</time></trkpt><trkpt lat="43.39175977767353" lon="11.442811819112714"><ele>366.0</ele><time>2026-04-11T06:47:00Z</time></trkpt><trkpt lat="43.391623354266976" lon="11.442851426880077"><ele>366.0</ele><time>2026-04-11T06:47:02Z</time></trkpt><trkpt lat="43.391507268724716" lon="11.442845827015313"><ele>366.0</ele><time>2026-04-11T06:47:04Z</time></trkpt><trkpt lat="43.39140609859345" lon="11.442845807514235"><ele>366.0</ele><time>2026-04-11T06:47:06Z</time></trkpt><trkpt lat="43.39129213378121" lon="11.442844844497426"><ele>366.0</ele><time>2026-04-11T06:47:08Z</time></trkpt><trkpt lat="43.391187056814125" lon="11.442851666181499"><ele>366.0</ele><time>2026-04-11T06:47:10Z</time></trkpt><trkpt lat="43.39106896105058" lon="11.442872517061137"><ele>366.4</ele><time>2026-04-11T06:47:12Z</time></trkpt><trkpt lat="43.39094964955759" lon="11.442902061828896"><ele>366.8</ele><time>2026-04-11T06:47:14Z</time></trkpt><trkpt lat="43.390883303127914" lon="11.442907979816693"><ele>367.2</ele><time>2026-04-11T06:47:15Z</time></trkpt><trkpt lat="43.39081093385129" lon="11.442915568225688"><ele>367.59999999999997</ele><time>2026-04-11T06:47:16Z</time></trkpt><trkpt lat="43.390747776752626" lon="11.442932830564684"><ele>368.0</ele><time>2026-04-11T06:47:17Z</time></trkpt><trkpt lat="43.390557253205294" lon="11.442960557613779"><ele>367.5714285714286</ele><time>2026-04-11T06:47:20Z</time></trkpt><trkpt lat="43.39048880943753" lon="11.442957005104445"><ele>367.1428571428571</ele><time>2026-04-11T06:47:21Z</time></trkpt><trkpt lat="43.39042379892037" lon="11.442948642043472"><ele>366.7142857142857</ele><time>2026-04-11T06:47:22Z</time></trkpt><trkpt lat="43.39035400939579" lon="11.442940152559022"><ele>366.28571428571433</ele><time>2026-04-11T06:47:23Z</time></trkpt><trkpt lat="43.39029102011848" lon="11.442933464079312"><ele>365.8571428571429</ele><time>2026-04-11T06:47:24Z</time></trkpt><trkpt lat="43.39022012075318" lon="11.44292171822918"><ele>365.42857142857144</ele><time>2026-04-11T06:47:25Z</time></trkpt><trkpt lat="43.3901527780613" lon="11.442903277687819"><ele>365.0</ele><time>2026-04-11T06:47:26Z</time></trkpt><trkpt lat="43.39008362730753" lon="11.442884837288723"><ele>365.0</ele><time>2026-04-11T06:47:27Z</time></trkpt><trkpt lat="43.390001030041795" lon="11.442888587753968"><ele>365.0</ele><time>2026-04-11T06:47:28Z</time></trkpt><trkpt lat="43.38993815998162" lon="11.442896049112438"><ele>365.0</ele><time>2026-04-11T06:47:29Z</time></trkpt><trkpt lat="43.3898612386397" lon="11.442835536685475"><ele>365.0</ele><time>2026-04-11T06:47:30Z</time></trkpt><trkpt lat="43.38979635327844" lon="11.442744410281112"><ele>365.0</ele><time>2026-04-11T06:47:31Z</time></trkpt><trkpt lat="43.38974840552235" lon="11.442637650759444"><ele>365.0</ele><time>2026-04-11T06:47:32Z</time></trkpt><trkpt lat="43.38971221462436" lon="11.442520510076706"><ele>363.6666666666667</ele><time>2026-04-11T06:47:33Z</time></trkpt><trkpt lat="43.389672348275795" lon="11.442417735619363"><ele>362.33333333333337</ele><time>2026-04-11T06:47:34Z</time></trkpt><trkpt lat="43.389632881393936" lon="11.442321667101872"><ele>361.0</ele><time>2026-04-11T06:47:35Z</time></trkpt><trkpt lat="43.38958836754196" lon="11.442231799258288"><ele>359.6666666666667</ele><time>2026-04-11T06:47:36Z</time></trkpt><trkpt lat="43.38954062206144" lon="11.442139151333308"><ele>358.3333333333333</ele><time>2026-04-11T06:47:37Z</time></trkpt><trkpt lat="43.38948515190354" lon="11.442051887849997"><ele>357.0</ele><time>2026-04-11T06:47:38Z</time></trkpt><trkpt lat="43.38937093510431" lon="11.441881853563526"><ele>357.0</ele><time>2026-04-11T06:47:40Z</time></trkpt><trkpt lat="43.389319405130706" lon="11.441807168403594"><ele>357.0</ele><time>2026-04-11T06:47:41Z</time></trkpt><trkpt lat="43.38926583866077" lon="11.441717881845957"><ele>357.0</ele><time>2026-04-11T06:47:42Z</time></trkpt><trkpt lat="43.38921388975053" lon="11.441627291593226"><ele>357.0</ele><time>2026-04-11T06:47:43Z</time></trkpt><trkpt lat="43.38915682003681" lon="11.441533612872618"><ele>357.0</ele><time>2026-04-11T06:47:44Z</time></trkpt><trkpt lat="43.389100425266726" lon="11.441443544166189"><ele>357.0</ele><time>2026-04-11T06:47:45Z</time></trkpt><trkpt lat="43.389037898376095" lon="11.441354748718208"><ele>356.40000000000003</ele><time>2026-04-11T06:47:46Z</time></trkpt><trkpt lat="43.388970636435204" lon="11.44126627652731"><ele>355.8</ele><time>2026-04-11T06:47:47Z</time></trkpt><trkpt lat="43.38890313157302" lon="11.441174756590534"><ele>355.2</ele><time>2026-04-11T06:47:48Z</time></trkpt><trkpt lat="43.38884258008405" lon="11.441078771494144"><ele>354.6</ele><time>2026-04-11T06:47:49Z</time></trkpt><trkpt lat="43.388772791150615" lon="11.440983869388019"><ele>354.0</ele><time>2026-04-11T06:47:50Z</time></trkpt><trkpt lat="43.38870453532211" lon="11.440883582840152"><ele>354.0</ele><time>2026-04-11T06:47:51Z</time></trkpt><trkpt lat="43.388622819630555" lon="11.440801038535346"><ele>354.0</ele><time>2026-04-11T06:47:52Z</time></trkpt><trkpt lat="43.388538363242695" lon="11.440729458568597"><ele>354.0</ele><time>2026-04-11T06:47:53Z</time></trkpt><trkpt lat="43.38845276365568" lon="11.440642673030544"><ele>354.0</ele><time>2026-04-11T06:47:54Z</time></trkpt><trkpt lat="43.38836740982762" lon="11.440551222199389"><ele>354.0</ele><time>2026-04-11T06:47:55Z</time></trkpt><trkpt lat="43.388297889873634" lon="11.440441858557312"><ele>352.0</ele><time>2026-04-11T06:47:56Z</time></trkpt><trkpt lat="43.38823184637658" lon="11.440333440291004"><ele>350.0</ele><time>2026-04-11T06:47:57Z</time></trkpt><trkpt lat="43.388154858888726" lon="11.4402263240587"><ele>348.0</ele><time>2026-04-11T06:47:58Z</time></trkpt><trkpt lat="43.38807856966172" lon="11.440118866319889"><ele>346.0</ele><time>2026-04-11T06:47:59Z</time></trkpt><trkpt lat="43.38793208898382" lon="11.439886635012622"><ele>346.0</ele><time>2026-04-11T06:48:01Z</time></trkpt><trkpt lat="43.387867006171966" lon="11.43976484783687"><ele>346.0</ele><time>2026-04-11T06:48:02Z</time></trkpt><trkpt lat="43.38779204757701" lon="11.43964000554486"><ele>346.0</ele><time>2026-04-11T06:48:03Z</time></trkpt><trkpt lat="43.38771903597333" lon="11.43950330543504"><ele>346.0</ele><time>2026-04-11T06:48:04Z</time></trkpt><trkpt lat="43.387655487881034" lon="11.439369088931109"><ele>345.0</ele><time>2026-04-11T06:48:05Z</time></trkpt><trkpt lat="43.387582808657164" lon="11.439236639359065"><ele>344.0</ele><time>2026-04-11T06:48:06Z</time></trkpt><trkpt lat="43.38750956958337" lon="11.439113675439348"><ele>343.0</ele><time>2026-04-11T06:48:07Z</time></trkpt><trkpt lat="43.38743003266035" lon="11.438993809707572"><ele>342.0</ele><time>2026-04-11T06:48:08Z</time></trkpt><trkpt lat="43.38735325040883" lon="11.438880334678686"><ele>342.20000000000005</ele><time>2026-04-11T06:48:09Z</time></trkpt><trkpt lat="43.38728214463402" lon="11.438773263188462"><ele>342.4</ele><time>2026-04-11T06:48:10Z</time></trkpt><trkpt lat="43.387218448744505" lon="11.438661179420032"><ele>342.6</ele><time>2026-04-11T06:48:11Z</time></trkpt><trkpt lat="43.3871642734259" lon="11.438540197217156"><ele>342.79999999999995</ele><time>2026-04-11T06:48:12Z</time></trkpt><trkpt lat="43.38711540056843" lon="11.438422590885342"><ele>343.0</ele><time>2026-04-11T06:48:13Z</time></trkpt><trkpt lat="43.387077791638035" lon="11.438293669270447"><ele>343.0</ele><time>2026-04-11T06:48:14Z</time></trkpt><trkpt lat="43.387051881155195" lon="11.438164973582214"><ele>343.0</ele><time>2026-04-11T06:48:15Z</time></trkpt><trkpt lat="43.38701946570261" lon="11.438045549179659"><ele>343.0</ele><time>2026-04-11T06:48:16Z</time></trkpt><trkpt lat="43.38699539932286" lon="11.437923119455592"><ele>343.0</ele><time>2026-04-11T06:48:17Z</time></trkpt><trkpt lat="43.38696791526799" lon="11.437803908438333"><ele>343.0</ele><time>2026-04-11T06:48:18Z</time></trkpt><trkpt lat="43.38693702330912" lon="11.437694184062801"><ele>343.2</ele><time>2026-04-11T06:48:19Z</time></trkpt><trkpt lat="43.3869054621094" lon="11.43758166956601"><ele>343.4</ele><time>2026-04-11T06:48:20Z</time></trkpt><trkpt lat="43.38685238360561" lon="11.437361067746663"><ele>343.59999999999997</ele><time>2026-04-11T06:48:22Z</time></trkpt><trkpt lat="43.386821399799274" lon="11.437260839960706"><ele>343.79999999999995</ele><time>2026-04-11T06:48:23Z</time></trkpt><trkpt lat="43.386788259415376" lon="11.43715020658752"><ele>344.0</ele><time>2026-04-11T06:48:24Z</time></trkpt><trkpt lat="43.38674232724426" lon="11.43705444141241"><ele>342.6666666666667</ele><time>2026-04-11T06:48:25Z</time></trkpt><trkpt lat="43.38669237491829" lon="11.436959305195025"><ele>341.33333333333337</ele><time>2026-04-11T06:48:26Z</time></trkpt><trkpt lat="43.3866293333206" lon="11.436883164226755"><ele>340.0</ele><time>2026-04-11T06:48:27Z</time></trkpt><trkpt lat="43.38656695374046" lon="11.436820649421103"><ele>338.6666666666667</ele><time>2026-04-11T06:48:28Z</time></trkpt><trkpt lat="43.38649956073688" lon="11.436758773984641"><ele>337.3333333333333</ele><time>2026-04-11T06:48:29Z</time></trkpt><trkpt lat="43.38643974494355" lon="11.436684756814522"><ele>336.0</ele><time>2026-04-11T06:48:30Z</time></trkpt><trkpt lat="43.38637716969776" lon="11.43662143209522"><ele>336.0</ele><time>2026-04-11T06:48:31Z</time></trkpt><trkpt lat="43.38631369968599" lon="11.436552705213732"><ele>336.0</ele><time>2026-04-11T06:48:32Z</time></trkpt><trkpt lat="43.38625443386207" lon="11.436477704313708"><ele>336.0</ele><time>2026-04-11T06:48:33Z</time></trkpt><trkpt lat="43.38619305914411" lon="11.436403944742414"><ele>336.0</ele><time>2026-04-11T06:48:34Z</time></trkpt><trkpt lat="43.386130237140144" lon="11.436329755054036"><ele>336.0</ele><time>2026-04-11T06:48:35Z</time></trkpt><trkpt lat="43.386069732463255" lon="11.436257297317951"><ele>336.0</ele><time>2026-04-11T06:48:36Z</time></trkpt><trkpt lat="43.38601294627428" lon="11.436180765282987"><ele>336.0</ele><time>2026-04-11T06:48:37Z</time></trkpt><trkpt lat="43.38596115342986" lon="11.436100168613383"><ele>336.0</ele><time>2026-04-11T06:48:38Z</time></trkpt><trkpt lat="43.38590832920262" lon="11.436014418223346"><ele>336.0</ele><time>2026-04-11T06:48:39Z</time></trkpt><trkpt lat="43.38586004052006" lon="11.435934673999105"><ele>336.0</ele><time>2026-04-11T06:48:40Z</time></trkpt><trkpt lat="43.38578995283471" lon="11.43587395902516"><ele>336.0</ele><time>2026-04-11T06:48:41Z</time></trkpt><trkpt lat="43.38564210887364" lon="11.435766462178885"><ele>336.0</ele><time>2026-04-11T06:48:43Z</time></trkpt><trkpt lat="43.385559832467955" lon="11.435707674261389"><ele>336.0</ele><time>2026-04-11T06:48:44Z</time></trkpt><trkpt lat="43.385478324163394" lon="11.435641405672726"><ele>336.0</ele><time>2026-04-11T06:48:45Z</time></trkpt><trkpt lat="43.385395531545896" lon="11.435575565408092"><ele>336.0</ele><time>2026-04-11T06:48:46Z</time></trkpt><trkpt lat="43.38530292787065" lon="11.43550580717901"><ele>336.0</ele><time>2026-04-11T06:48:47Z</time></trkpt><trkpt lat="43.38521381888322" lon="11.435440059275065"><ele>334.6</ele><time>2026-04-11T06:48:48Z</time></trkpt><trkpt lat="43.38511559463173" lon="11.435362859854155"><ele>333.20000000000005</ele><time>2026-04-11T06:48:49Z</time></trkpt><trkpt lat="43.38502072979461" lon="11.435288258534772"><ele>331.79999999999995</ele><time>2026-04-11T06:48:50Z</time></trkpt><trkpt lat="43.384920550945644" lon="11.435224977202347"><ele>330.4</ele><time>2026-04-11T06:48:51Z</time></trkpt><trkpt lat="43.38481258940223" lon="11.435185527549578"><ele>329.0</ele><time>2026-04-11T06:48:52Z</time></trkpt><trkpt lat="43.384701895518674" lon="11.435157710999778"><ele>328.2</ele><time>2026-04-11T06:48:53Z</time></trkpt><trkpt lat="43.384594074663184" lon="11.435133151917091"><ele>327.4</ele><time>2026-04-11T06:48:54Z</time></trkpt><trkpt lat="43.38447352420626" lon="11.435104857785094"><ele>326.6</ele><time>2026-04-11T06:48:55Z</time></trkpt><trkpt lat="43.38436562227491" lon="11.4350873609913"><ele>325.8</ele><time>2026-04-11T06:48:56Z</time></trkpt><trkpt lat="43.38426171595846" lon="11.435061765786196"><ele>325.0</ele><time>2026-04-11T06:48:57Z</time></trkpt><trkpt lat="43.384162442059676" lon="11.435032202700325"><ele>325.0</ele><time>2026-04-11T06:48:58Z</time></trkpt><trkpt lat="43.38405670861395" lon="11.43499643973275"><ele>325.0</ele><time>2026-04-11T06:48:59Z</time></trkpt><trkpt lat="43.383944653214115" lon="11.434972851766563"><ele>325.0</ele><time>2026-04-11T06:49:00Z</time></trkpt><trkpt lat="43.38383364779059" lon="11.434947473885732"><ele>325.0</ele><time>2026-04-11T06:49:01Z</time></trkpt><trkpt lat="43.38372764148776" lon="11.434910938816067"><ele>325.0</ele><time>2026-04-11T06:49:02Z</time></trkpt><trkpt lat="43.38350788833355" lon="11.434829856334627"><ele>324.8</ele><time>2026-04-11T06:49:04Z</time></trkpt><trkpt lat="43.383415383248064" lon="11.434760409062893"><ele>324.6</ele><time>2026-04-11T06:49:05Z</time></trkpt><trkpt lat="43.38332747152559" lon="11.434696227219929"><ele>324.4</ele><time>2026-04-11T06:49:06Z</time></trkpt><trkpt lat="43.38324439451583" lon="11.434622151729124"><ele>324.2</ele><time>2026-04-11T06:49:07Z</time></trkpt><trkpt lat="43.38316250713409" lon="11.434543638987817"><ele>324.0</ele><time>2026-04-11T06:49:08Z</time></trkpt><trkpt lat="43.383088189136394" lon="11.434473987760054"><ele>324.5</ele><time>2026-04-11T06:49:09Z</time></trkpt><trkpt lat="43.38301737527851" lon="11.434410294271359"><ele>325.0</ele><time>2026-04-11T06:49:10Z</time></trkpt><trkpt lat="43.38295220292661" lon="11.434346845975677"><ele>325.5</ele><time>2026-04-11T06:49:11Z</time></trkpt><trkpt lat="43.38288627405479" lon="11.43428502306002"><ele>326.0</ele><time>2026-04-11T06:49:12Z</time></trkpt><trkpt lat="43.38282122330382" lon="11.4342294880625"><ele>326.5</ele><time>2026-04-11T06:49:13Z</time></trkpt><trkpt lat="43.382749807072045" lon="11.434182747132395"><ele>327.0</ele><time>2026-04-11T06:49:14Z</time></trkpt><trkpt lat="43.382682207738924" lon="11.434153814034673"><ele>327.0</ele><time>2026-04-11T06:49:15Z</time></trkpt><trkpt lat="43.382621336259504" lon="11.434123472388984"><ele>327.0</ele><time>2026-04-11T06:49:16Z</time></trkpt><trkpt lat="43.38251095665459" lon="11.434082616262858"><ele>327.0</ele><time>2026-04-11T06:49:18Z</time></trkpt><trkpt lat="43.382399966794175" lon="11.43405033301635"><ele>327.0</ele><time>2026-04-11T06:49:20Z</time></trkpt><trkpt lat="43.38229292169938" lon="11.434032334036631"><ele>327.0</ele><time>2026-04-11T06:49:22Z</time></trkpt><trkpt lat="43.382179278900765" lon="11.434015881931575"><ele>326.3333333333333</ele><time>2026-04-11T06:49:24Z</time></trkpt><trkpt lat="43.381942725563995" lon="11.434000628387215"><ele>325.66666666666663</ele><time>2026-04-11T06:49:28Z</time></trkpt><trkpt lat="43.38182876469085" lon="11.433985392390262"><ele>325.0</ele><time>2026-04-11T06:49:30Z</time></trkpt><trkpt lat="43.38171861069567" lon="11.433943479647379"><ele>325.0</ele><time>2026-04-11T06:49:32Z</time></trkpt><trkpt lat="43.381656081829256" lon="11.43391494104863"><ele>325.0</ele><time>2026-04-11T06:49:33Z</time></trkpt><trkpt lat="43.38159208031963" lon="11.43388400176896"><ele>325.0</ele><time>2026-04-11T06:49:34Z</time></trkpt><trkpt lat="43.38152125659066" lon="11.433843928223542"><ele>325.0</ele><time>2026-04-11T06:49:35Z</time></trkpt><trkpt lat="43.38144717180698" lon="11.433784741674996"><ele>325.0</ele><time>2026-04-11T06:49:36Z</time></trkpt><trkpt lat="43.381358357901604" lon="11.43374104072071"><ele>325.0</ele><time>2026-04-11T06:49:37Z</time></trkpt><trkpt lat="43.38126373964559" lon="11.433686015898981"><ele>323.4</ele><time>2026-04-11T06:49:38Z</time></trkpt><trkpt lat="43.38117578981675" lon="11.433614490685375"><ele>321.8</ele><time>2026-04-11T06:49:39Z</time></trkpt><trkpt lat="43.381078777088135" lon="11.433543116144733"><ele>320.2</ele><time>2026-04-11T06:49:40Z</time></trkpt><trkpt lat="43.380990905421115" lon="11.433459963882873"><ele>318.6</ele><time>2026-04-11T06:49:41Z</time></trkpt><trkpt lat="43.38091209837265" lon="11.433357608623359"><ele>317.0</ele><time>2026-04-11T06:49:42Z</time></trkpt><trkpt lat="43.3808359670284" lon="11.433250121873831"><ele>317.0</ele><time>2026-04-11T06:49:43Z</time></trkpt><trkpt lat="43.38077535931112" lon="11.433129013475524"><ele>317.0</ele><time>2026-04-11T06:49:44Z</time></trkpt><trkpt lat="43.380718526594386" lon="11.43300941575065"><ele>317.0</ele><time>2026-04-11T06:49:45Z</time></trkpt><trkpt lat="43.380608862432545" lon="11.43279909435742"><ele>317.0</ele><time>2026-04-11T06:49:47Z</time></trkpt><trkpt lat="43.38053297941552" lon="11.432727952739842"><ele>317.6666666666667</ele><time>2026-04-11T06:49:48Z</time></trkpt><trkpt lat="43.38044945099639" lon="11.43268292785114"><ele>318.33333333333337</ele><time>2026-04-11T06:49:49Z</time></trkpt><trkpt lat="43.38037151311569" lon="11.432659173660145"><ele>319.0</ele><time>2026-04-11T06:49:50Z</time></trkpt><trkpt lat="43.38029802028143" lon="11.432652675084046"><ele>319.6666666666667</ele><time>2026-04-11T06:49:51Z</time></trkpt><trkpt lat="43.3802219844473" lon="11.432648103921231"><ele>320.3333333333333</ele><time>2026-04-11T06:49:52Z</time></trkpt><trkpt lat="43.38015008731949" lon="11.432630719103114"><ele>321.0</ele><time>2026-04-11T06:49:53Z</time></trkpt><trkpt lat="43.380075636581616" lon="11.432646268714224"><ele>320.99999999999994</ele><time>2026-04-11T06:49:54Z</time></trkpt><trkpt lat="43.38001055975492" lon="11.432621325425337"><ele>321.0</ele><time>2026-04-11T06:49:55Z</time></trkpt><trkpt lat="43.379943703305024" lon="11.4326008982773"><ele>321.0</ele><time>2026-04-11T06:49:56Z</time></trkpt><trkpt lat="43.37987541229502" lon="11.432588335858673"><ele>321.0</ele><time>2026-04-11T06:49:57Z</time></trkpt><trkpt lat="43.379802882328" lon="11.432581572732298"><ele>321.0</ele><time>2026-04-11T06:49:58Z</time></trkpt><trkpt lat="43.379730969874764" lon="11.43256783352966"><ele>320.99999999999994</ele><time>2026-04-11T06:49:59Z</time></trkpt><trkpt lat="43.37966052998515" lon="11.432541450641143"><ele>321.0</ele><time>2026-04-11T06:50:00Z</time></trkpt><trkpt lat="43.37959554687959" lon="11.432510821401614"><ele>320.5</ele><time>2026-04-11T06:50:01Z</time></trkpt><trkpt lat="43.379535364595064" lon="11.432480109688013"><ele>320.0</ele><time>2026-04-11T06:50:02Z</time></trkpt><trkpt lat="43.37946652437581" lon="11.432454947657138"><ele>319.5</ele><time>2026-04-11T06:50:03Z</time></trkpt><trkpt lat="43.379401631214975" lon="11.432426430515712"><ele>319.0</ele><time>2026-04-11T06:50:04Z</time></trkpt><trkpt lat="43.37933874300927" lon="11.432399225097242"><ele>318.5</ele><time>2026-04-11T06:50:05Z</time></trkpt><trkpt lat="43.379276060071376" lon="11.432369640992398"><ele>318.0</ele><time>2026-04-11T06:50:06Z</time></trkpt><trkpt lat="43.37914935931968" lon="11.43229192184987"><ele>318.0</ele><time>2026-04-11T06:50:08Z</time></trkpt><trkpt lat="43.37908188147939" lon="11.432268372696026"><ele>318.0</ele><time>2026-04-11T06:50:09Z</time></trkpt><trkpt lat="43.379018288958655" lon="11.43224056793175"><ele>318.0</ele><time>2026-04-11T06:50:10Z</time></trkpt><trkpt lat="43.37895493259692" lon="11.432197374904135"><ele>318.0</ele><time>2026-04-11T06:50:11Z</time></trkpt><trkpt lat="43.37888139930668" lon="11.432154660393227"><ele>318.0</ele><time>2026-04-11T06:50:12Z</time></trkpt><trkpt lat="43.378766256742104" lon="11.432104206832411"><ele>318.0</ele><time>2026-04-11T06:50:14Z</time></trkpt><trkpt lat="43.37869828069055" lon="11.432067997669115"><ele>317.85714285714283</ele><time>2026-04-11T06:50:15Z</time></trkpt><trkpt lat="43.37863152827345" lon="11.432040051253438"><ele>317.7142857142857</ele><time>2026-04-11T06:50:16Z</time></trkpt><trkpt lat="43.378564932881694" lon="11.432016921987165"><ele>317.57142857142856</ele><time>2026-04-11T06:50:17Z</time></trkpt><trkpt lat="43.37849740928168" lon="11.431982392605445"><ele>317.42857142857144</ele><time>2026-04-11T06:50:18Z</time></trkpt><trkpt lat="43.37843093892699" lon="11.431960347984317"><ele>317.2857142857143</ele><time>2026-04-11T06:50:19Z</time></trkpt><trkpt lat="43.37837216258906" lon="11.431921465456078"><ele>317.14285714285717</ele><time>2026-04-11T06:50:20Z</time></trkpt><trkpt lat="43.37830557753573" lon="11.431892246866504"><ele>317.0</ele><time>2026-04-11T06:50:21Z</time></trkpt><trkpt lat="43.37823837661929" lon="11.431865898043219"><ele>317.0</ele><time>2026-04-11T06:50:22Z</time></trkpt><trkpt lat="43.37817048680111" lon="11.43183812598966"><ele>317.0</ele><time>2026-04-11T06:50:23Z</time></trkpt><trkpt lat="43.378108607592154" lon="11.431784475327259"><ele>317.0</ele><time>2026-04-11T06:50:24Z</time></trkpt><trkpt lat="43.378040182682405" lon="11.431748689012148"><ele>317.0</ele><time>2026-04-11T06:50:25Z</time></trkpt><trkpt lat="43.37797647048556" lon="11.43171859467597"><ele>317.0</ele><time>2026-04-11T06:50:26Z</time></trkpt><trkpt lat="43.377909063683404" lon="11.431677740307824"><ele>317.0</ele><time>2026-04-11T06:50:27Z</time></trkpt><trkpt lat="43.377771323965746" lon="11.43160392317465"><ele>317.2857142857143</ele><time>2026-04-11T06:50:29Z</time></trkpt><trkpt lat="43.37770344409326" lon="11.431575251511282"><ele>317.57142857142856</ele><time>2026-04-11T06:50:30Z</time></trkpt><trkpt lat="43.37763166396231" lon="11.43154769699902"><ele>317.8571428571429</ele><time>2026-04-11T06:50:31Z</time></trkpt><trkpt lat="43.37756997716386" lon="11.431524643309483"><ele>318.1428571428571</ele><time>2026-04-11T06:50:32Z</time></trkpt><trkpt lat="43.37749290329092" lon="11.431483580174852"><ele>318.4285714285714</ele><time>2026-04-11T06:50:33Z</time></trkpt><trkpt lat="43.377424207386234" lon="11.431451967466378"><ele>318.7142857142857</ele><time>2026-04-11T06:50:34Z</time></trkpt><trkpt lat="43.37735055944581" lon="11.431425928911004"><ele>319.0</ele><time>2026-04-11T06:50:35Z</time></trkpt><trkpt lat="43.377279924153406" lon="11.431398252751942"><ele>319.0</ele><time>2026-04-11T06:50:36Z</time></trkpt><trkpt lat="43.37720446020549" lon="11.431380050312354"><ele>319.0</ele><time>2026-04-11T06:50:37Z</time></trkpt><trkpt lat="43.3771294732021" lon="11.43137721252625"><ele>319.0</ele><time>2026-04-11T06:50:38Z</time></trkpt><trkpt lat="43.37705355469084" lon="11.431359557139185"><ele>319.0</ele><time>2026-04-11T06:50:39Z</time></trkpt><trkpt lat="43.37697920757669" lon="11.43134732821267"><ele>319.0</ele><time>2026-04-11T06:50:40Z</time></trkpt><trkpt lat="43.37690141847956" lon="11.431342185722658"><ele>319.0</ele><time>2026-04-11T06:50:41Z</time></trkpt><trkpt lat="43.37682858815726" lon="11.43134081437571"><ele>318.5</ele><time>2026-04-11T06:50:42Z</time></trkpt><trkpt lat="43.3767505127795" lon="11.43132787409038"><ele>318.0</ele><time>2026-04-11T06:50:43Z</time></trkpt><trkpt lat="43.376674416529234" lon="11.431315940271531"><ele>317.5</ele><time>2026-04-11T06:50:44Z</time></trkpt><trkpt lat="43.37658482096782" lon="11.431296294835576"><ele>317.0</ele><time>2026-04-11T06:50:45Z</time></trkpt><trkpt lat="43.37649377587989" lon="11.431277551324118"><ele>316.5</ele><time>2026-04-11T06:50:46Z</time></trkpt><trkpt lat="43.37640652320491" lon="11.431275811469924"><ele>316.0</ele><time>2026-04-11T06:50:47Z</time></trkpt><trkpt lat="43.37631704252658" lon="11.431272540336936"><ele>315.25</ele><time>2026-04-11T06:50:48Z</time></trkpt><trkpt lat="43.37613000248562" lon="11.431249702275997"><ele>314.5</ele><time>2026-04-11T06:50:50Z</time></trkpt><trkpt lat="43.37603241885836" lon="11.431237500503455"><ele>313.75</ele><time>2026-04-11T06:50:51Z</time></trkpt><trkpt lat="43.37593266632689" lon="11.431216136877863"><ele>313.0</ele><time>2026-04-11T06:50:52Z</time></trkpt><trkpt lat="43.375827090871745" lon="11.43118778850503"><ele>313.0</ele><time>2026-04-11T06:50:53Z</time></trkpt><trkpt lat="43.37572271584625" lon="11.43112101655763"><ele>313.0</ele><time>2026-04-11T06:50:54Z</time></trkpt><trkpt lat="43.37561753903106" lon="11.43105483623704"><ele>313.0</ele><time>2026-04-11T06:50:55Z</time></trkpt><trkpt lat="43.37551700476068" lon="11.430969263719694"><ele>313.0</ele><time>2026-04-11T06:50:56Z</time></trkpt><trkpt lat="43.375409434201465" lon="11.430894939350608"><ele>311.2</ele><time>2026-04-11T06:50:57Z</time></trkpt><trkpt lat="43.375317704893796" lon="11.43080570014573"><ele>309.4</ele><time>2026-04-11T06:50:58Z</time></trkpt><trkpt lat="43.37522139173352" lon="11.430729692415376"><ele>307.59999999999997</ele><time>2026-04-11T06:50:59Z</time></trkpt><trkpt lat="43.37512588255401" lon="11.430665400368204"><ele>305.8</ele><time>2026-04-11T06:51:00Z</time></trkpt><trkpt lat="43.375031716203075" lon="11.430603016650869"><ele>304.0</ele><time>2026-04-11T06:51:01Z</time></trkpt><trkpt lat="43.374940937581" lon="11.430553968015932"><ele>304.0</ele><time>2026-04-11T06:51:02Z</time></trkpt><trkpt lat="43.374849334343665" lon="11.430518053213879"><ele>304.0</ele><time>2026-04-11T06:51:03Z</time></trkpt><trkpt lat="43.37476025336976" lon="11.430479829325156"><ele>304.0</ele><time>2026-04-11T06:51:04Z</time></trkpt><trkpt lat="43.37467282608506" lon="11.43045178729885"><ele>304.0</ele><time>2026-04-11T06:51:05Z</time></trkpt><trkpt lat="43.37458575711434" lon="11.43042175291607"><ele>304.0</ele><time>2026-04-11T06:51:06Z</time></trkpt><trkpt lat="43.37450221472793" lon="11.43039454721181"><ele>304.2</ele><time>2026-04-11T06:51:07Z</time></trkpt><trkpt lat="43.37442018456862" lon="11.430361095604146"><ele>304.4</ele><time>2026-04-11T06:51:08Z</time></trkpt><trkpt lat="43.37433680762323" lon="11.430332644931156"><ele>304.6</ele><time>2026-04-11T06:51:09Z</time></trkpt><trkpt lat="43.374174880775584" lon="11.43027690684476"><ele>304.8</ele><time>2026-04-11T06:51:11Z</time></trkpt><trkpt lat="43.37409157410899" lon="11.430250151441271"><ele>305.0</ele><time>2026-04-11T06:51:12Z</time></trkpt><trkpt lat="43.37400646457676" lon="11.430224229586695"><ele>305.0</ele><time>2026-04-11T06:51:13Z</time></trkpt><trkpt lat="43.37392033063254" lon="11.43019211400412"><ele>305.0</ele><time>2026-04-11T06:51:14Z</time></trkpt><trkpt lat="43.37383336762645" lon="11.430161484812976"><ele>305.0</ele><time>2026-04-11T06:51:15Z</time></trkpt><trkpt lat="43.37374890511342" lon="11.43013265350078"><ele>305.0</ele><time>2026-04-11T06:51:16Z</time></trkpt><trkpt lat="43.37366354431378" lon="11.43010055873233"><ele>305.0</ele><time>2026-04-11T06:51:17Z</time></trkpt><trkpt lat="43.37357699813341" lon="11.430057585987381"><ele>305.0</ele><time>2026-04-11T06:51:18Z</time></trkpt><trkpt lat="43.37349167147624" lon="11.430005258276402"><ele>304.8</ele><time>2026-04-11T06:51:19Z</time></trkpt><trkpt lat="43.37340852997312" lon="11.429951906788421"><ele>304.6</ele><time>2026-04-11T06:51:20Z</time></trkpt><trkpt lat="43.37332282027389" lon="11.429898563022345"><ele>304.4</ele><time>2026-04-11T06:51:21Z</time></trkpt><trkpt lat="43.37323533910307" lon="11.4298470701677"><ele>304.2</ele><time>2026-04-11T06:51:22Z</time></trkpt><trkpt lat="43.37314638713546" lon="11.429795396560204"><ele>304.0</ele><time>2026-04-11T06:51:23Z</time></trkpt><trkpt lat="43.37306222065422" lon="11.429744822098"><ele>302.59999999999997</ele><time>2026-04-11T06:51:24Z</time></trkpt><trkpt lat="43.37297434877664" lon="11.429701672919721"><ele>301.2</ele><time>2026-04-11T06:51:25Z</time></trkpt><trkpt lat="43.372885470399474" lon="11.429652362787625"><ele>299.79999999999995</ele><time>2026-04-11T06:51:26Z</time></trkpt><trkpt lat="43.37280350897225" lon="11.429600165111987"><ele>298.4</ele><time>2026-04-11T06:51:27Z</time></trkpt><trkpt lat="43.372721182545675" lon="11.429544087213575"><ele>297.0</ele><time>2026-04-11T06:51:28Z</time></trkpt><trkpt lat="43.37263650218704" lon="11.42949357633884"><ele>297.0</ele><time>2026-04-11T06:51:29Z</time></trkpt><trkpt lat="43.37255459790315" lon="11.429448912906222"><ele>297.0</ele><time>2026-04-11T06:51:30Z</time></trkpt><trkpt lat="43.372395915998986" lon="11.429345416250232"><ele>297.0</ele><time>2026-04-11T06:51:32Z</time></trkpt><trkpt lat="43.37231519988238" lon="11.429303438350315"><ele>297.0</ele><time>2026-04-11T06:51:33Z</time></trkpt><trkpt lat="43.37223840913049" lon="11.429257854697584"><ele>297.0</ele><time>2026-04-11T06:51:34Z</time></trkpt><trkpt lat="43.37215965382081" lon="11.429214300451054"><ele>296.3333333333333</ele><time>2026-04-11T06:51:35Z</time></trkpt><trkpt lat="43.372081376163415" lon="11.42917429015058"><ele>295.6666666666667</ele><time>2026-04-11T06:51:36Z</time></trkpt><trkpt lat="43.37200463485392" lon="11.42913185143854"><ele>295.0</ele><time>2026-04-11T06:51:37Z</time></trkpt><trkpt lat="43.37193124830834" lon="11.429086895806876"><ele>294.33333333333337</ele><time>2026-04-11T06:51:38Z</time></trkpt><trkpt lat="43.37185927949822" lon="11.429047078417353"><ele>293.6666666666667</ele><time>2026-04-11T06:51:39Z</time></trkpt><trkpt lat="43.37178467677697" lon="11.429006741442086"><ele>293.0</ele><time>2026-04-11T06:51:40Z</time></trkpt><trkpt lat="43.371713067725196" lon="11.428967002981693"><ele>293.0</ele><time>2026-04-11T06:51:41Z</time></trkpt><trkpt lat="43.37163677977238" lon="11.428925339978782"><ele>293.0</ele><time>2026-04-11T06:51:42Z</time></trkpt><trkpt lat="43.37155866203374" lon="11.428884827850537"><ele>293.0</ele><time>2026-04-11T06:51:43Z</time></trkpt><trkpt lat="43.371481312243134" lon="11.428845782828896"><ele>293.0</ele><time>2026-04-11T06:51:44Z</time></trkpt><trkpt lat="43.37139965795247" lon="11.428815096856779"><ele>293.0</ele><time>2026-04-11T06:51:45Z</time></trkpt><trkpt lat="43.37132140262169" lon="11.428785831395532"><ele>293.0</ele><time>2026-04-11T06:51:46Z</time></trkpt><trkpt lat="43.37123990102756" lon="11.428763148281824"><ele>293.2</ele><time>2026-04-11T06:51:47Z</time></trkpt><trkpt lat="43.371161900492126" lon="11.428744026828891"><ele>293.4</ele><time>2026-04-11T06:51:48Z</time></trkpt><trkpt lat="43.371084542553646" lon="11.42872110792406"><ele>293.59999999999997</ele><time>2026-04-11T06:51:49Z</time></trkpt><trkpt lat="43.37100755734491" lon="11.428704514033226"><ele>293.8</ele><time>2026-04-11T06:51:50Z</time></trkpt><trkpt lat="43.37092548541225" lon="11.428681531332977"><ele>294.0</ele><time>2026-04-11T06:51:51Z</time></trkpt><trkpt lat="43.37075855535443" lon="11.428650640151115"><ele>294.0</ele><time>2026-04-11T06:51:53Z</time></trkpt><trkpt lat="43.37067404004054" lon="11.428632698579225"><ele>294.0</ele><time>2026-04-11T06:51:54Z</time></trkpt><trkpt lat="43.37059088754943" lon="11.428627104394785"><ele>294.0</ele><time>2026-04-11T06:51:55Z</time></trkpt><trkpt lat="43.37050503109382" lon="11.428615465977119"><ele>294.0</ele><time>2026-04-11T06:51:56Z</time></trkpt><trkpt lat="43.37041851853924" lon="11.42860508409118"><ele>294.0</ele><time>2026-04-11T06:51:57Z</time></trkpt><trkpt lat="43.37032726835082" lon="11.428592410954908"><ele>294.0</ele><time>2026-04-11T06:51:58Z</time></trkpt><trkpt lat="43.37023848365186" lon="11.428579491512448"><ele>292.59999999999997</ele><time>2026-04-11T06:51:59Z</time></trkpt><trkpt lat="43.37014534722377" lon="11.428549339386368"><ele>291.2</ele><time>2026-04-11T06:52:00Z</time></trkpt><trkpt lat="43.37005089503134" lon="11.428540696043079"><ele>289.79999999999995</ele><time>2026-04-11T06:52:01Z</time></trkpt><trkpt lat="43.36995479684048" lon="11.428535532997868"><ele>288.4</ele><time>2026-04-11T06:52:02Z</time></trkpt><trkpt lat="43.3698570898561" lon="11.42852804354734"><ele>287.0</ele><time>2026-04-11T06:52:03Z</time></trkpt><trkpt lat="43.36975828385499" lon="11.42851900904286"><ele>286.0</ele><time>2026-04-11T06:52:04Z</time></trkpt><trkpt lat="43.369657171591626" lon="11.42850524519004"><ele>285.0</ele><time>2026-04-11T06:52:05Z</time></trkpt><trkpt lat="43.36955962008568" lon="11.428491486336759"><ele>284.0</ele><time>2026-04-11T06:52:06Z</time></trkpt><trkpt lat="43.36946498467947" lon="11.428479294442068"><ele>283.0</ele><time>2026-04-11T06:52:07Z</time></trkpt><trkpt lat="43.369361502324836" lon="11.428474877122806"><ele>282.0</ele><time>2026-04-11T06:52:08Z</time></trkpt><trkpt lat="43.369262206697435" lon="11.428475441866642"><ele>282.0</ele><time>2026-04-11T06:52:09Z</time></trkpt><trkpt lat="43.36916547638762" lon="11.428475673585847"><ele>282.0</ele><time>2026-04-11T06:52:10Z</time></trkpt><trkpt lat="43.369072420492394" lon="11.428464599330608"><ele>282.0</ele><time>2026-04-11T06:52:11Z</time></trkpt><trkpt lat="43.36897524832037" lon="11.428457554437852"><ele>282.0</ele><time>2026-04-11T06:52:12Z</time></trkpt><trkpt lat="43.36879153563628" lon="11.428441291181732"><ele>282.4</ele><time>2026-04-11T06:52:14Z</time></trkpt><trkpt lat="43.36870373138613" lon="11.428400121378402"><ele>282.79999999999995</ele><time>2026-04-11T06:52:15Z</time></trkpt><trkpt lat="43.36861444582117" lon="11.42835542448339"><ele>283.2</ele><time>2026-04-11T06:52:16Z</time></trkpt><trkpt lat="43.36853179521856" lon="11.428310754994339"><ele>283.59999999999997</ele><time>2026-04-11T06:52:17Z</time></trkpt><trkpt lat="43.368452418279034" lon="11.42825316575863"><ele>284.0</ele><time>2026-04-11T06:52:18Z</time></trkpt><trkpt lat="43.36837427978148" lon="11.428182811841236"><ele>284.0</ele><time>2026-04-11T06:52:19Z</time></trkpt><trkpt lat="43.36829599549144" lon="11.428099503201688"><ele>284.0</ele><time>2026-04-11T06:52:20Z</time></trkpt><trkpt lat="43.368226153761135" lon="11.428019062969812"><ele>284.0</ele><time>2026-04-11T06:52:21Z</time></trkpt><trkpt lat="43.3681751161718" lon="11.427914195085547"><ele>284.0</ele><time>2026-04-11T06:52:22Z</time></trkpt><trkpt lat="43.36812165564832" lon="11.427804334692944"><ele>284.0</ele><time>2026-04-11T06:52:23Z</time></trkpt><trkpt lat="43.368081726939685" lon="11.42769655007605"><ele>284.0</ele><time>2026-04-11T06:52:24Z</time></trkpt><trkpt lat="43.36804706735013" lon="11.427588058632827"><ele>284.0</ele><time>2026-04-11T06:52:25Z</time></trkpt><trkpt lat="43.36801844913637" lon="11.427476387437334"><ele>284.0</ele><time>2026-04-11T06:52:26Z</time></trkpt><trkpt lat="43.36799434396246" lon="11.427367782786245"><ele>284.0</ele><time>2026-04-11T06:52:27Z</time></trkpt><trkpt lat="43.36796430559364" lon="11.427260271709432"><ele>284.0</ele><time>2026-04-11T06:52:28Z</time></trkpt><trkpt lat="43.3679331690076" lon="11.427157181547338"><ele>284.0</ele><time>2026-04-11T06:52:29Z</time></trkpt><trkpt lat="43.36789414542277" lon="11.427064223226491"><ele>284.0</ele><time>2026-04-11T06:52:30Z</time></trkpt><trkpt lat="43.3678544984541" lon="11.426979755916227"><ele>284.0</ele><time>2026-04-11T06:52:31Z</time></trkpt><trkpt lat="43.36781111547503" lon="11.426910235771544"><ele>284.0</ele><time>2026-04-11T06:52:32Z</time></trkpt><trkpt lat="43.36775964522605" lon="11.426854525799047"><ele>284.0</ele><time>2026-04-11T06:52:33Z</time></trkpt><trkpt lat="43.36760446414997" lon="11.426733479277091"><ele>284.0</ele><time>2026-04-11T06:52:36Z</time></trkpt><trkpt lat="43.367501203674834" lon="11.426689752384014"><ele>284.0</ele><time>2026-04-11T06:52:38Z</time></trkpt><trkpt lat="43.3673946341555" lon="11.426643851704382"><ele>284.0</ele><time>2026-04-11T06:52:40Z</time></trkpt><trkpt lat="43.3672886459179" lon="11.426596608937203"><ele>284.0</ele><time>2026-04-11T06:52:42Z</time></trkpt><trkpt lat="43.3671872735197" lon="11.426564265227412"><ele>284.0</ele><time>2026-04-11T06:52:44Z</time></trkpt><trkpt lat="43.3670891247837" lon="11.426528796079877"><ele>284.0</ele><time>2026-04-11T06:52:46Z</time></trkpt><trkpt lat="43.36699072397291" lon="11.426483086263612"><ele>285.25</ele><time>2026-04-11T06:52:48Z</time></trkpt><trkpt lat="43.36689425461797" lon="11.426442476942576"><ele>286.5</ele><time>2026-04-11T06:52:50Z</time></trkpt><trkpt lat="43.366802633106225" lon="11.426405006992612"><ele>287.75</ele><time>2026-04-11T06:52:52Z</time></trkpt><trkpt lat="43.36671550325328" lon="11.42637717018943"><ele>289.0</ele><time>2026-04-11T06:52:54Z</time></trkpt><trkpt lat="43.36651909412402" lon="11.426334689932359"><ele>289.0</ele><time>2026-04-11T06:52:58Z</time></trkpt><trkpt lat="43.36641958967107" lon="11.426325996219775"><ele>289.0</ele><time>2026-04-11T06:53:00Z</time></trkpt><trkpt lat="43.36631357944709" lon="11.426337547270984"><ele>289.0</ele><time>2026-04-11T06:53:02Z</time></trkpt><trkpt lat="43.36621027444611" lon="11.426360216056592"><ele>289.0</ele><time>2026-04-11T06:53:04Z</time></trkpt><trkpt lat="43.36609770167059" lon="11.426373513157737"><ele>289.0</ele><time>2026-04-11T06:53:06Z</time></trkpt><trkpt lat="43.365983902878824" lon="11.426381818510567"><ele>289.16666666666663</ele><time>2026-04-11T06:53:08Z</time></trkpt><trkpt lat="43.3658643816356" lon="11.426338590916485"><ele>289.3333333333333</ele><time>2026-04-11T06:53:10Z</time></trkpt><trkpt lat="43.365804910181936" lon="11.42627921588315"><ele>289.5</ele><time>2026-04-11T06:53:11Z</time></trkpt><trkpt lat="43.36575926345482" lon="11.426206779400802"><ele>289.6666666666667</ele><time>2026-04-11T06:53:12Z</time></trkpt><trkpt lat="43.365717313737385" lon="11.426130845290082"><ele>289.83333333333337</ele><time>2026-04-11T06:53:13Z</time></trkpt><trkpt lat="43.36567132515314" lon="11.426058830168015"><ele>290.0</ele><time>2026-04-11T06:53:14Z</time></trkpt><trkpt lat="43.365622359448494" lon="11.425985176685172"><ele>288.4</ele><time>2026-04-11T06:53:15Z</time></trkpt><trkpt lat="43.365527154571225" lon="11.425831819647156"><ele>286.8</ele><time>2026-04-11T06:53:17Z</time></trkpt><trkpt lat="43.365476878892345" lon="11.425749374237443"><ele>285.2</ele><time>2026-04-11T06:53:18Z</time></trkpt><trkpt lat="43.365423562091" lon="11.425662863741229"><ele>283.6</ele><time>2026-04-11T06:53:19Z</time></trkpt><trkpt lat="43.36536787014425" lon="11.42557613227816"><ele>282.0</ele><time>2026-04-11T06:53:20Z</time></trkpt><trkpt lat="43.365304353013755" lon="11.425486261456209"><ele>281.8</ele><time>2026-04-11T06:53:21Z</time></trkpt><trkpt lat="43.36524542050435" lon="11.42538571459497"><ele>281.6</ele><time>2026-04-11T06:53:22Z</time></trkpt><trkpt lat="43.36518015428872" lon="11.425288602695797"><ele>281.40000000000003</ele><time>2026-04-11T06:53:23Z</time></trkpt><trkpt lat="43.36511009072238" lon="11.425186482844929"><ele>281.2</ele><time>2026-04-11T06:53:24Z</time></trkpt><trkpt lat="43.365037542150084" lon="11.425081935016754"><ele>281.0</ele><time>2026-04-11T06:53:25Z</time></trkpt><trkpt lat="43.364981076206085" lon="11.424958857911298"><ele>281.0</ele><time>2026-04-11T06:53:26Z</time></trkpt><trkpt lat="43.36490546734298" lon="11.42485052741402"><ele>281.0</ele><time>2026-04-11T06:53:27Z</time></trkpt><trkpt lat="43.36479783568566" lon="11.424736030069019"><ele>281.0</ele><time>2026-04-11T06:53:28Z</time></trkpt><trkpt lat="43.3647320421577" lon="11.42461540146528"><ele>281.0</ele><time>2026-04-11T06:53:29Z</time></trkpt><trkpt lat="43.36469804611663" lon="11.42448619259076"><ele>280.25</ele><time>2026-04-11T06:53:30Z</time></trkpt><trkpt lat="43.36463979475155" lon="11.424363177569305"><ele>279.5</ele><time>2026-04-11T06:53:31Z</time></trkpt><trkpt lat="43.364584559020365" lon="11.424213222430234"><ele>278.75</ele><time>2026-04-11T06:53:32Z</time></trkpt><trkpt lat="43.36455426773551" lon="11.42406448004259"><ele>278.0</ele><time>2026-04-11T06:53:33Z</time></trkpt><trkpt lat="43.36453810153289" lon="11.423894579102468"><ele>275.6666666666667</ele><time>2026-04-11T06:53:34Z</time></trkpt><trkpt lat="43.364524613437084" lon="11.423716223348444"><ele>273.3333333333333</ele><time>2026-04-11T06:53:35Z</time></trkpt><trkpt lat="43.36452101294302" lon="11.423544315993253"><ele>271.0</ele><time>2026-04-11T06:53:36Z</time></trkpt><trkpt lat="43.3645151334835" lon="11.423193320491007"><ele>271.0</ele><time>2026-04-11T06:53:38Z</time></trkpt><trkpt lat="43.364516018236785" lon="11.423014072012627"><ele>271.0</ele><time>2026-04-11T06:53:39Z</time></trkpt><trkpt lat="43.36449406872444" lon="11.42283353702465"><ele>271.0</ele><time>2026-04-11T06:53:40Z</time></trkpt><trkpt lat="43.3644858198669" lon="11.422653500927822"><ele>271.0</ele><time>2026-04-11T06:53:41Z</time></trkpt><trkpt lat="43.36448702285814" lon="11.422473567568966"><ele>269.25</ele><time>2026-04-11T06:53:42Z</time></trkpt><trkpt lat="43.36448371990829" lon="11.422302083174603"><ele>267.5</ele><time>2026-04-11T06:53:43Z</time></trkpt><trkpt lat="43.36447371355408" lon="11.422127837175994"><ele>265.75</ele><time>2026-04-11T06:53:44Z</time></trkpt><trkpt lat="43.36447155282285" lon="11.421945711954898"><ele>264.0</ele><time>2026-04-11T06:53:45Z</time></trkpt><trkpt lat="43.36445513104744" lon="11.421772812536734"><ele>262.25</ele><time>2026-04-11T06:53:46Z</time></trkpt><trkpt lat="43.364451022943534" lon="11.421606111317233"><ele>260.5</ele><time>2026-04-11T06:53:47Z</time></trkpt><trkpt lat="43.36442841699496" lon="11.421445477366598"><ele>258.75</ele><time>2026-04-11T06:53:48Z</time></trkpt><trkpt lat="43.364397962921316" lon="11.421293548203192"><ele>257.0</ele><time>2026-04-11T06:53:49Z</time></trkpt><trkpt lat="43.36436478030726" lon="11.42114361265547"><ele>256.8</ele><time>2026-04-11T06:53:50Z</time></trkpt><trkpt lat="43.3643294573093" lon="11.4209979027265"><ele>256.6</ele><time>2026-04-11T06:53:51Z</time></trkpt><trkpt lat="43.36429931492436" lon="11.42086227770133"><ele>256.40000000000003</ele><time>2026-04-11T06:53:52Z</time></trkpt><trkpt lat="43.36421644110277" lon="11.420720997540682"><ele>256.2</ele><time>2026-04-11T06:53:53Z</time></trkpt><trkpt lat="43.364197022537205" lon="11.420582927735262"><ele>256.0</ele><time>2026-04-11T06:53:54Z</time></trkpt><trkpt lat="43.3641670619512" lon="11.420446702675418"><ele>255.5</ele><time>2026-04-11T06:53:55Z</time></trkpt><trkpt lat="43.36414136890139" lon="11.420307816417"><ele>255.0</ele><time>2026-04-11T06:53:56Z</time></trkpt><trkpt lat="43.36413116051945" lon="11.420176134867239"><ele>254.5</ele><time>2026-04-11T06:53:57Z</time></trkpt><trkpt lat="43.3641243207329" lon="11.419927485266372"><ele>254.0</ele><time>2026-04-11T06:53:59Z</time></trkpt><trkpt lat="43.36409974600625" lon="11.4197854011195"><ele>254.0</ele><time>2026-04-11T06:54:00Z</time></trkpt><trkpt lat="43.36408154340607" lon="11.419659342885035"><ele>253.99999999999997</ele><time>2026-04-11T06:54:01Z</time></trkpt><trkpt lat="43.364066647339875" lon="11.419540177807942"><ele>253.99999999999997</ele><time>2026-04-11T06:54:02Z</time></trkpt><trkpt lat="43.364057787864525" lon="11.419413495587683"><ele>254.0</ele><time>2026-04-11T06:54:03Z</time></trkpt><trkpt lat="43.36405398614155" lon="11.419281499552858"><ele>254.0</ele><time>2026-04-11T06:54:04Z</time></trkpt><trkpt lat="43.364042915518475" lon="11.41914836918024"><ele>253.2</ele><time>2026-04-11T06:54:05Z</time></trkpt><trkpt lat="43.36403364967796" lon="11.419023206075693"><ele>252.39999999999998</ele><time>2026-04-11T06:54:06Z</time></trkpt><trkpt lat="43.36403006942287" lon="11.418900586710556"><ele>251.6</ele><time>2026-04-11T06:54:07Z</time></trkpt><trkpt lat="43.364024322956276" lon="11.418785044740602"><ele>250.8</ele><time>2026-04-11T06:54:08Z</time></trkpt><trkpt lat="43.36396362389481" lon="11.41863298939424"><ele>250.0</ele><time>2026-04-11T06:54:10Z</time></trkpt><trkpt lat="43.363905713115734" lon="11.418562538840876"><ele>248.33333333333331</ele><time>2026-04-11T06:54:11Z</time></trkpt><trkpt lat="43.363844837184175" lon="11.418539153805714"><ele>246.66666666666666</ele><time>2026-04-11T06:54:12Z</time></trkpt><trkpt lat="43.363716673330686" lon="11.418511905207353"><ele>245.0</ele><time>2026-04-11T06:54:14Z</time></trkpt><trkpt lat="43.36364447933286" lon="11.418503439008312"><ele>243.33333333333331</ele><time>2026-04-11T06:54:15Z</time></trkpt><trkpt lat="43.363571489451274" lon="11.418486471020188"><ele>241.66666666666666</ele><time>2026-04-11T06:54:16Z</time></trkpt><trkpt lat="43.36349919992875" lon="11.418471774935025"><ele>240.0</ele><time>2026-04-11T06:54:17Z</time></trkpt><trkpt lat="43.36342281671575" lon="11.418458500007167"><ele>240.0</ele><time>2026-04-11T06:54:18Z</time></trkpt><trkpt lat="43.363263658104394" lon="11.418446940946223"><ele>240.0</ele><time>2026-04-11T06:54:20Z</time></trkpt><trkpt lat="43.36318488200164" lon="11.418433761850885"><ele>240.0</ele><time>2026-04-11T06:54:21Z</time></trkpt><trkpt lat="43.36310419370367" lon="11.418422139184399"><ele>240.0</ele><time>2026-04-11T06:54:22Z</time></trkpt><trkpt lat="43.36300733207319" lon="11.418416597580727"><ele>240.0</ele><time>2026-04-11T06:54:23Z</time></trkpt><trkpt lat="43.36292721112604" lon="11.41839160469374"><ele>239.4</ele><time>2026-04-11T06:54:24Z</time></trkpt><trkpt lat="43.362839540808125" lon="11.418372669983208"><ele>238.8</ele><time>2026-04-11T06:54:25Z</time></trkpt><trkpt lat="43.36274935838617" lon="11.418347000319299"><ele>238.2</ele><time>2026-04-11T06:54:26Z</time></trkpt><trkpt lat="43.36266283007123" lon="11.418315942096651"><ele>237.6</ele><time>2026-04-11T06:54:27Z</time></trkpt><trkpt lat="43.3625671498035" lon="11.418279958504314"><ele>237.0</ele><time>2026-04-11T06:54:28Z</time></trkpt><trkpt lat="43.36247403642659" lon="11.418231765006745"><ele>237.0</ele><time>2026-04-11T06:54:29Z</time></trkpt><trkpt lat="43.36238217001354" lon="11.41822388260523"><ele>237.0</ele><time>2026-04-11T06:54:30Z</time></trkpt><trkpt lat="43.36228883889575" lon="11.418231339267203"><ele>237.0</ele><time>2026-04-11T06:54:31Z</time></trkpt><trkpt lat="43.36220864757223" lon="11.418256107489963"><ele>237.0</ele><time>2026-04-11T06:54:32Z</time></trkpt><trkpt lat="43.362122764284294" lon="11.418321073379737"><ele>237.0</ele><time>2026-04-11T06:54:33Z</time></trkpt><trkpt lat="43.36205008240328" lon="11.418402282197333"><ele>237.2</ele><time>2026-04-11T06:54:34Z</time></trkpt><trkpt lat="43.361981016631034" lon="11.41848676081475"><ele>237.39999999999998</ele><time>2026-04-11T06:54:35Z</time></trkpt><trkpt lat="43.3619204853913" lon="11.418573867845339"><ele>237.60000000000002</ele><time>2026-04-11T06:54:36Z</time></trkpt><trkpt lat="43.36187047569208" lon="11.418676741328996"><ele>237.8</ele><time>2026-04-11T06:54:37Z</time></trkpt><trkpt lat="43.36181624385075" lon="11.418774516843717"><ele>238.0</ele><time>2026-04-11T06:54:38Z</time></trkpt><trkpt lat="43.36175887880427" lon="11.418870941633147"><ele>238.0</ele><time>2026-04-11T06:54:39Z</time></trkpt><trkpt lat="43.361641276668664" lon="11.419053879695559"><ele>238.0</ele><time>2026-04-11T06:54:41Z</time></trkpt><trkpt lat="43.36155886965015" lon="11.419122940312551"><ele>238.0</ele><time>2026-04-11T06:54:42Z</time></trkpt><trkpt lat="43.36146700343149" lon="11.419171573789306"><ele>238.0</ele><time>2026-04-11T06:54:43Z</time></trkpt><trkpt lat="43.36136803093753" lon="11.419195624608504"><ele>236.8</ele><time>2026-04-11T06:54:44Z</time></trkpt><trkpt lat="43.36125592338443" lon="11.419215550428016"><ele>235.60000000000002</ele><time>2026-04-11T06:54:45Z</time></trkpt><trkpt lat="43.36115634584517" lon="11.419237708144482"><ele>234.39999999999998</ele><time>2026-04-11T06:54:46Z</time></trkpt><trkpt lat="43.36105710573042" lon="11.419273992909218"><ele>233.2</ele><time>2026-04-11T06:54:47Z</time></trkpt><trkpt lat="43.360960490047795" lon="11.419306979187802"><ele>232.0</ele><time>2026-04-11T06:54:48Z</time></trkpt><trkpt lat="43.36086617235529" lon="11.419339669303707"><ele>232.0</ele><time>2026-04-11T06:54:49Z</time></trkpt><trkpt lat="43.360772347403426" lon="11.419373439773658"><ele>232.0</ele><time>2026-04-11T06:54:50Z</time></trkpt><trkpt lat="43.36068195593361" lon="11.419405229834362"><ele>232.0</ele><time>2026-04-11T06:54:51Z</time></trkpt><trkpt lat="43.36058468438617" lon="11.419441133956438"><ele>232.0</ele><time>2026-04-11T06:54:52Z</time></trkpt><trkpt lat="43.36049458773237" lon="11.41946996932645"><ele>232.0</ele><time>2026-04-11T06:54:53Z</time></trkpt><trkpt lat="43.36039328109614" lon="11.419508209460309"><ele>232.0</ele><time>2026-04-11T06:54:54Z</time></trkpt><trkpt lat="43.360300156201305" lon="11.419549851692953"><ele>232.0</ele><time>2026-04-11T06:54:55Z</time></trkpt><trkpt lat="43.36019433369104" lon="11.419581747904932"><ele>232.0</ele><time>2026-04-11T06:54:56Z</time></trkpt><trkpt lat="43.36010501014784" lon="11.419610971356255"><ele>232.0</ele><time>2026-04-11T06:54:57Z</time></trkpt><trkpt lat="43.36001814052606" lon="11.419641520224067"><ele>232.0</ele><time>2026-04-11T06:54:58Z</time></trkpt><trkpt lat="43.35991578791583" lon="11.419682800317949"><ele>232.0</ele><time>2026-04-11T06:54:59Z</time></trkpt><trkpt lat="43.35982025181994" lon="11.419719781031116"><ele>232.0</ele><time>2026-04-11T06:55:00Z</time></trkpt><trkpt lat="43.35963290486232" lon="11.419789041464723"><ele>232.0</ele><time>2026-04-11T06:55:02Z</time></trkpt><trkpt lat="43.359535661027984" lon="11.419816756355704"><ele>232.0</ele><time>2026-04-11T06:55:03Z</time></trkpt><trkpt lat="43.35945299105448" lon="11.419864937576367"><ele>231.2</ele><time>2026-04-11T06:55:04Z</time></trkpt><trkpt lat="43.35936201076079" lon="11.419897580628312"><ele>230.39999999999998</ele><time>2026-04-11T06:55:05Z</time></trkpt><trkpt lat="43.359273033975" lon="11.419929535658179"><ele>229.60000000000002</ele><time>2026-04-11T06:55:06Z</time></trkpt><trkpt lat="43.359175243042046" lon="11.419948964987823"><ele>228.8</ele><time>2026-04-11T06:55:07Z</time></trkpt><trkpt lat="43.35908024070245" lon="11.419944546747626"><ele>228.0</ele><time>2026-04-11T06:55:08Z</time></trkpt><trkpt lat="43.3589847046741" lon="11.41989880635186"><ele>228.0</ele><time>2026-04-11T06:55:09Z</time></trkpt><trkpt lat="43.35890909140448" lon="11.419810009815583"><ele>228.0</ele><time>2026-04-11T06:55:10Z</time></trkpt><trkpt lat="43.358847251272294" lon="11.419707221638651"><ele>228.0</ele><time>2026-04-11T06:55:11Z</time></trkpt><trkpt lat="43.35878996137698" lon="11.419604594048788"><ele>228.0</ele><time>2026-04-11T06:55:12Z</time></trkpt><trkpt lat="43.35872713586595" lon="11.419493516672324"><ele>228.0</ele><time>2026-04-11T06:55:13Z</time></trkpt><trkpt lat="43.35867055297704" lon="11.419401048822456"><ele>226.8</ele><time>2026-04-11T06:55:14Z</time></trkpt><trkpt lat="43.35860714748726" lon="11.41929576616966"><ele>225.60000000000002</ele><time>2026-04-11T06:55:15Z</time></trkpt><trkpt lat="43.358541711367465" lon="11.419204554833408"><ele>224.39999999999998</ele><time>2026-04-11T06:55:16Z</time></trkpt><trkpt lat="43.3584858460235" lon="11.419101396174685"><ele>223.2</ele><time>2026-04-11T06:55:17Z</time></trkpt><trkpt lat="43.358416142156116" lon="11.419001614069808"><ele>222.0</ele><time>2026-04-11T06:55:18Z</time></trkpt><trkpt lat="43.35835547884995" lon="11.418905091311705"><ele>221.75</ele><time>2026-04-11T06:55:19Z</time></trkpt><trkpt lat="43.35829994054619" lon="11.418803507836195"><ele>221.5</ele><time>2026-04-11T06:55:20Z</time></trkpt><trkpt lat="43.3582377989946" lon="11.418706440121918"><ele>221.25</ele><time>2026-04-11T06:55:21Z</time></trkpt><trkpt lat="43.358110062512864" lon="11.418522191364296"><ele>221.0</ele><time>2026-04-11T06:55:23Z</time></trkpt><trkpt lat="43.35804234492366" lon="11.418425169266948"><ele>220.8</ele><time>2026-04-11T06:55:24Z</time></trkpt><trkpt lat="43.35797701144199" lon="11.418319308090119"><ele>220.60000000000002</ele><time>2026-04-11T06:55:25Z</time></trkpt><trkpt lat="43.357906961827766" lon="11.418234371964905"><ele>220.4</ele><time>2026-04-11T06:55:26Z</time></trkpt><trkpt lat="43.357835706129535" lon="11.418147779817945"><ele>220.2</ele><time>2026-04-11T06:55:27Z</time></trkpt><trkpt lat="43.35777688426722" lon="11.41804981245003"><ele>220.0</ele><time>2026-04-11T06:55:28Z</time></trkpt><trkpt lat="43.357721391413754" lon="11.417948565541375"><ele>219.99999999999997</ele><time>2026-04-11T06:55:29Z</time></trkpt><trkpt lat="43.3576596506533" lon="11.41785355928709"><ele>220.0</ele><time>2026-04-11T06:55:30Z</time></trkpt><trkpt lat="43.35759490331672" lon="11.417768816900681"><ele>220.0</ele><time>2026-04-11T06:55:31Z</time></trkpt><trkpt lat="43.35753598605687" lon="11.417674360899085"><ele>220.0</ele><time>2026-04-11T06:55:32Z</time></trkpt><trkpt lat="43.35747612239307" lon="11.417582668954681"><ele>219.99999999999997</ele><time>2026-04-11T06:55:33Z</time></trkpt><trkpt lat="43.35743327727735" lon="11.417486117843758"><ele>220.0</ele><time>2026-04-11T06:55:34Z</time></trkpt><trkpt lat="43.35738541874357" lon="11.417382501193499"><ele>219.99999999999997</ele><time>2026-04-11T06:55:35Z</time></trkpt><trkpt lat="43.357313900529455" lon="11.417287003388973"><ele>220.0</ele><time>2026-04-11T06:55:36Z</time></trkpt><trkpt lat="43.3572595490917" lon="11.417212273148571"><ele>220.0</ele><time>2026-04-11T06:55:37Z</time></trkpt><trkpt lat="43.35720591479758" lon="11.417133758776021"><ele>220.0</ele><time>2026-04-11T06:55:38Z</time></trkpt><trkpt lat="43.3571516430792" lon="11.417056797821514"><ele>219.99999999999997</ele><time>2026-04-11T06:55:39Z</time></trkpt><trkpt lat="43.357102549257924" lon="11.416980087906163"><ele>220.0</ele><time>2026-04-11T06:55:40Z</time></trkpt><trkpt lat="43.3570474675842" lon="11.41690639635104"><ele>219.8</ele><time>2026-04-11T06:55:41Z</time></trkpt><trkpt lat="43.35699636335675" lon="11.416832696659956"><ele>219.6</ele><time>2026-04-11T06:55:42Z</time></trkpt><trkpt lat="43.35689215917135" lon="11.416688410887101"><ele>219.39999999999998</ele><time>2026-04-11T06:55:44Z</time></trkpt><trkpt lat="43.356843197715435" lon="11.416597975637897"><ele>219.2</ele><time>2026-04-11T06:55:45Z</time></trkpt><trkpt lat="43.356758342012334" lon="11.41645559095415"><ele>219.0</ele><time>2026-04-11T06:55:47Z</time></trkpt><trkpt lat="43.35671104517265" lon="11.416380591284055"><ele>219.2857142857143</ele><time>2026-04-11T06:55:48Z</time></trkpt><trkpt lat="43.35666353293057" lon="11.41630674053121"><ele>219.57142857142856</ele><time>2026-04-11T06:55:49Z</time></trkpt><trkpt lat="43.35662306811489" lon="11.416234024833743"><ele>219.85714285714286</ele><time>2026-04-11T06:55:50Z</time></trkpt><trkpt lat="43.356575250130554" lon="11.416165940067538"><ele>220.14285714285717</ele><time>2026-04-11T06:55:51Z</time></trkpt><trkpt lat="43.35653206324784" lon="11.41609284939883"><ele>220.42857142857144</ele><time>2026-04-11T06:55:52Z</time></trkpt><trkpt lat="43.35648998647446" lon="11.416023611375596"><ele>220.71428571428572</ele><time>2026-04-11T06:55:53Z</time></trkpt><trkpt lat="43.356443972363806" lon="11.415958020952722"><ele>221.0</ele><time>2026-04-11T06:55:54Z</time></trkpt><trkpt lat="43.35634232347533" lon="11.415844644787125"><ele>221.20000000000002</ele><time>2026-04-11T06:55:56Z</time></trkpt><trkpt lat="43.35627575593044" lon="11.415819413391848"><ele>221.40000000000003</ele><time>2026-04-11T06:55:57Z</time></trkpt><trkpt lat="43.35621274171665" lon="11.415801151102754"><ele>221.6</ele><time>2026-04-11T06:55:58Z</time></trkpt><trkpt lat="43.35608671803398" lon="11.41582643531895"><ele>221.8</ele><time>2026-04-11T06:56:00Z</time></trkpt><trkpt lat="43.35602342474737" lon="11.415862253342304"><ele>222.0</ele><time>2026-04-11T06:56:01Z</time></trkpt><trkpt lat="43.35590352014031" lon="11.415911071146576"><ele>222.0</ele><time>2026-04-11T06:56:03Z</time></trkpt><trkpt lat="43.355733530622835" lon="11.416033390593208"><ele>222.0</ele><time>2026-04-11T06:56:06Z</time></trkpt><trkpt lat="43.35567939813766" lon="11.41608570027655"><ele>222.0</ele><time>2026-04-11T06:56:07Z</time></trkpt><trkpt lat="43.35561937250187" lon="11.416130575133067"><ele>222.0</ele><time>2026-04-11T06:56:08Z</time></trkpt><trkpt lat="43.35556015560312" lon="11.416164222268433"><ele>222.0</ele><time>2026-04-11T06:56:09Z</time></trkpt><trkpt lat="43.35550040054012" lon="11.416198446572361"><ele>222.71428571428572</ele><time>2026-04-11T06:56:10Z</time></trkpt><trkpt lat="43.35543713367417" lon="11.416224972269312"><ele>223.42857142857144</ele><time>2026-04-11T06:56:11Z</time></trkpt><trkpt lat="43.3553611839657" lon="11.416227363914528"><ele>224.14285714285717</ele><time>2026-04-11T06:56:12Z</time></trkpt><trkpt lat="43.35529553198372" lon="11.416227648204687"><ele>224.85714285714286</ele><time>2026-04-11T06:56:13Z</time></trkpt><trkpt lat="43.35522078325603" lon="11.416217342092335"><ele>225.5714285714286</ele><time>2026-04-11T06:56:14Z</time></trkpt><trkpt lat="43.355148387714394" lon="11.41620390206681"><ele>226.2857142857143</ele><time>2026-04-11T06:56:15Z</time></trkpt><trkpt lat="43.355073681191286" lon="11.41619550788594"><ele>227.0</ele><time>2026-04-11T06:56:16Z</time></trkpt><trkpt lat="43.35500304237822" lon="11.416186335339379"><ele>227.0</ele><time>2026-04-11T06:56:17Z</time></trkpt><trkpt lat="43.35494094957744" lon="11.416169410094438"><ele>227.00000000000003</ele><time>2026-04-11T06:56:18Z</time></trkpt><trkpt lat="43.35486677414608" lon="11.416142172829634"><ele>227.0</ele><time>2026-04-11T06:56:19Z</time></trkpt><trkpt lat="43.35479885707802" lon="11.416147040986537"><ele>227.0</ele><time>2026-04-11T06:56:20Z</time></trkpt><trkpt lat="43.35472948409382" lon="11.416138000932815"><ele>227.00000000000003</ele><time>2026-04-11T06:56:21Z</time></trkpt><trkpt lat="43.354657379359494" lon="11.416131000227553"><ele>227.0</ele><time>2026-04-11T06:56:22Z</time></trkpt><trkpt lat="43.35458887163669" lon="11.416119454837267"><ele>227.0</ele><time>2026-04-11T06:56:23Z</time></trkpt><trkpt lat="43.35451929475139" lon="11.416110790355422"><ele>226.6</ele><time>2026-04-11T06:56:24Z</time></trkpt><trkpt lat="43.354327390384704" lon="11.41610575010757"><ele>226.2</ele><time>2026-04-11T06:56:27Z</time></trkpt><trkpt lat="43.3542568275684" lon="11.416091583446686"><ele>225.8</ele><time>2026-04-11T06:56:28Z</time></trkpt><trkpt lat="43.35418678559253" lon="11.416083417310512"><ele>225.4</ele><time>2026-04-11T06:56:29Z</time></trkpt><trkpt lat="43.354118779753954" lon="11.416079502452654"><ele>225.0</ele><time>2026-04-11T06:56:30Z</time></trkpt><trkpt lat="43.35404879203152" lon="11.416071871992497"><ele>225.0</ele><time>2026-04-11T06:56:31Z</time></trkpt><trkpt lat="43.35398191984878" lon="11.416069376897159"><ele>225.0</ele><time>2026-04-11T06:56:32Z</time></trkpt><trkpt lat="43.35386187287857" lon="11.416055764477997"><ele>225.0</ele><time>2026-04-11T06:56:34Z</time></trkpt><trkpt lat="43.35373318738289" lon="11.416016275139924"><ele>225.0</ele><time>2026-04-11T06:56:36Z</time></trkpt><trkpt lat="43.35367061850561" lon="11.415990567983716"><ele>225.0</ele><time>2026-04-11T06:56:37Z</time></trkpt><trkpt lat="43.35360849666198" lon="11.41600796236716"><ele>225.0</ele><time>2026-04-11T06:56:38Z</time></trkpt><trkpt lat="43.35354129242331" lon="11.41598405205176"><ele>224.71428571428575</ele><time>2026-04-11T06:56:39Z</time></trkpt><trkpt lat="43.35347896320114" lon="11.415961430255297"><ele>224.42857142857144</ele><time>2026-04-11T06:56:40Z</time></trkpt><trkpt lat="43.353407398410695" lon="11.415939042889386"><ele>224.14285714285717</ele><time>2026-04-11T06:56:41Z</time></trkpt><trkpt lat="43.353337429804" lon="11.415914877522733"><ele>223.8571428571429</ele><time>2026-04-11T06:56:42Z</time></trkpt><trkpt lat="43.353267269754646" lon="11.41589346803742"><ele>223.57142857142856</ele><time>2026-04-11T06:56:43Z</time></trkpt><trkpt lat="43.35319629239195" lon="11.415874807488567"><ele>223.28571428571428</ele><time>2026-04-11T06:56:44Z</time></trkpt><trkpt lat="43.353129141473225" lon="11.415855211640865"><ele>223.0</ele><time>2026-04-11T06:56:45Z</time></trkpt><trkpt lat="43.3529892624308" lon="11.41581943984422"><ele>223.0</ele><time>2026-04-11T06:56:47Z</time></trkpt><trkpt lat="43.3529197262642" lon="11.415799531733024"><ele>223.0</ele><time>2026-04-11T06:56:48Z</time></trkpt><trkpt lat="43.352849816218686" lon="11.415781013746294"><ele>223.0</ele><time>2026-04-11T06:56:49Z</time></trkpt><trkpt lat="43.352775474806094" lon="11.415761519581345"><ele>223.0</ele><time>2026-04-11T06:56:50Z</time></trkpt><trkpt lat="43.35270738454072" lon="11.415742630640153"><ele>223.0</ele><time>2026-04-11T06:56:51Z</time></trkpt><trkpt lat="43.35263953322586" lon="11.415725956199362"><ele>223.0</ele><time>2026-04-11T06:56:52Z</time></trkpt><trkpt lat="43.3525588662439" lon="11.415697031638949"><ele>223.0</ele><time>2026-04-11T06:56:53Z</time></trkpt><trkpt lat="43.35248916810377" lon="11.415676964746803"><ele>223.0</ele><time>2026-04-11T06:56:54Z</time></trkpt><trkpt lat="43.35236429929718" lon="11.415652142618502"><ele>223.0</ele><time>2026-04-11T06:56:56Z</time></trkpt><trkpt lat="43.35224082487089" lon="11.415621125866188"><ele>223.0</ele><time>2026-04-11T06:56:58Z</time></trkpt><trkpt lat="43.35216341278097" lon="11.415589611008714"><ele>223.0</ele><time>2026-04-11T06:56:59Z</time></trkpt><trkpt lat="43.352094303167355" lon="11.415573003960725"><ele>223.0</ele><time>2026-04-11T06:57:00Z</time></trkpt><trkpt lat="43.35202659826764" lon="11.415551484610962"><ele>222.66666666666666</ele><time>2026-04-11T06:57:01Z</time></trkpt><trkpt lat="43.35196110035457" lon="11.415531228018745"><ele>222.33333333333331</ele><time>2026-04-11T06:57:02Z</time></trkpt><trkpt lat="43.35189606553273" lon="11.415518393994615"><ele>222.0</ele><time>2026-04-11T06:57:03Z</time></trkpt><trkpt lat="43.351829949559146" lon="11.415496855765772"><ele>221.66666666666669</ele><time>2026-04-11T06:57:04Z</time></trkpt><trkpt lat="43.35176197509927" lon="11.415474791362051"><ele>221.33333333333334</ele><time>2026-04-11T06:57:05Z</time></trkpt><trkpt lat="43.35169273247087" lon="11.415452944253103"><ele>221.0</ele><time>2026-04-11T06:57:06Z</time></trkpt><trkpt lat="43.35155073194082" lon="11.415416053704645"><ele>221.00000000000003</ele><time>2026-04-11T06:57:08Z</time></trkpt><trkpt lat="43.35148476576284" lon="11.415391450547691"><ele>221.0</ele><time>2026-04-11T06:57:09Z</time></trkpt><trkpt lat="43.351414296802" lon="11.41537514726036"><ele>221.0</ele><time>2026-04-11T06:57:10Z</time></trkpt><trkpt lat="43.351345470489065" lon="11.415354888785698"><ele>221.0</ele><time>2026-04-11T06:57:11Z</time></trkpt><trkpt lat="43.35127522213997" lon="11.415338252354683"><ele>221.0</ele><time>2026-04-11T06:57:12Z</time></trkpt><trkpt lat="43.35120687117979" lon="11.415318016080404"><ele>221.00000000000003</ele><time>2026-04-11T06:57:13Z</time></trkpt><trkpt lat="43.35113783388879" lon="11.415297343578247"><ele>221.0</ele><time>2026-04-11T06:57:14Z</time></trkpt><trkpt lat="43.351070956441234" lon="11.415276230544427"><ele>220.83333333333334</ele><time>2026-04-11T06:57:15Z</time></trkpt><trkpt lat="43.35100410396196" lon="11.41525521329801"><ele>220.66666666666669</ele><time>2026-04-11T06:57:16Z</time></trkpt><trkpt lat="43.350934222727865" lon="11.415236273478198"><ele>220.5</ele><time>2026-04-11T06:57:17Z</time></trkpt><trkpt lat="43.35086548984627" lon="11.41521332709113"><ele>220.33333333333331</ele><time>2026-04-11T06:57:18Z</time></trkpt><trkpt lat="43.35080089579557" lon="11.4151992593094"><ele>220.16666666666666</ele><time>2026-04-11T06:57:19Z</time></trkpt><trkpt lat="43.350678402073456" lon="11.415165873787956"><ele>220.0</ele><time>2026-04-11T06:57:21Z</time></trkpt><trkpt lat="43.35056001667073" lon="11.4151254645433"><ele>221.2</ele><time>2026-04-11T06:57:23Z</time></trkpt><trkpt lat="43.350454806807" lon="11.415097628132441"><ele>222.4</ele><time>2026-04-11T06:57:25Z</time></trkpt><trkpt lat="43.35039288493922" lon="11.415080583456527"><ele>223.60000000000002</ele><time>2026-04-11T06:57:26Z</time></trkpt><trkpt lat="43.350299212869196" lon="11.415038792680575"><ele>224.8</ele><time>2026-04-11T06:57:28Z</time></trkpt><trkpt lat="43.3501453757445" lon="11.414937847118926"><ele>226.0</ele><time>2026-04-11T06:57:32Z</time></trkpt><trkpt lat="43.350069855717024" lon="11.414870375849745"><ele>225.99999999999997</ele><time>2026-04-11T06:57:34Z</time></trkpt><trkpt lat="43.35001086377014" lon="11.4147802583778"><ele>226.0</ele><time>2026-04-11T06:57:36Z</time></trkpt><trkpt lat="43.34995088930149" lon="11.414703122389586"><ele>226.0</ele><time>2026-04-11T06:57:38Z</time></trkpt><trkpt lat="43.34988417023716" lon="11.414564334590148"><ele>226.0</ele><time>2026-04-11T06:57:41Z</time></trkpt><trkpt lat="43.349840994091174" lon="11.414496326308324"><ele>225.99999999999997</ele><time>2026-04-11T06:57:43Z</time></trkpt><trkpt lat="43.34979740407119" lon="11.414419002081145"><ele>226.0</ele><time>2026-04-11T06:57:45Z</time></trkpt><trkpt lat="43.34975240045727" lon="11.414342328766955"><ele>226.16666666666666</ele><time>2026-04-11T06:57:47Z</time></trkpt><trkpt lat="43.34971221770818" lon="11.41425604418198"><ele>226.33333333333331</ele><time>2026-04-11T06:57:49Z</time></trkpt><trkpt lat="43.349634219796044" lon="11.414081718304818"><ele>226.5</ele><time>2026-04-11T06:57:53Z</time></trkpt><trkpt lat="43.3495911706719" lon="11.414004167543156"><ele>226.66666666666669</ele><time>2026-04-11T06:57:55Z</time></trkpt><trkpt lat="43.34955204442744" lon="11.413918915595216"><ele>226.83333333333334</ele><time>2026-04-11T06:57:57Z</time></trkpt><trkpt lat="43.349519212069836" lon="11.413831545576418"><ele>227.0</ele><time>2026-04-11T06:57:59Z</time></trkpt><trkpt lat="43.34948219380397" lon="11.41374048319035"><ele>227.00000000000003</ele><time>2026-04-11T06:58:01Z</time></trkpt><trkpt lat="43.3494561257482" lon="11.413644160393616"><ele>227.0</ele><time>2026-04-11T06:58:04Z</time></trkpt><trkpt lat="43.3494200466643" lon="11.41355964062143"><ele>227.0</ele><time>2026-04-11T06:58:07Z</time></trkpt><trkpt lat="43.349402041210325" lon="11.413470512864674"><ele>227.0</ele><time>2026-04-11T06:58:09Z</time></trkpt><trkpt lat="43.349372684242475" lon="11.413388606937636"><ele>227.00000000000003</ele><time>2026-04-11T06:58:11Z</time></trkpt><trkpt lat="43.34928663463691" lon="11.413208163606424"><ele>227.0</ele><time>2026-04-11T06:58:15Z</time></trkpt><trkpt lat="43.34922593173684" lon="11.413122540738296"><ele>227.0</ele><time>2026-04-11T06:58:17Z</time></trkpt><trkpt lat="43.34915745211496" lon="11.413023786137789"><ele>227.0</ele><time>2026-04-11T06:58:19Z</time></trkpt><trkpt lat="43.349097274489104" lon="11.412921783417833"><ele>227.0</ele><time>2026-04-11T06:58:21Z</time></trkpt><trkpt lat="43.34901849698941" lon="11.412842564198755"><ele>227.0</ele><time>2026-04-11T06:58:23Z</time></trkpt><trkpt lat="43.348963186514496" lon="11.41274273360775"><ele>227.0</ele><time>2026-04-11T06:58:25Z</time></trkpt><trkpt lat="43.348904723752895" lon="11.41264841159066"><ele>228.25</ele><time>2026-04-11T06:58:27Z</time></trkpt><trkpt lat="43.348842029458595" lon="11.412540746503128"><ele>229.5</ele><time>2026-04-11T06:58:29Z</time></trkpt><trkpt lat="43.34877989768037" lon="11.412433570456095"><ele>230.75</ele><time>2026-04-11T06:58:31Z</time></trkpt><trkpt lat="43.34872720291562" lon="11.412306802170244"><ele>232.0</ele><time>2026-04-11T06:58:33Z</time></trkpt><trkpt lat="43.34864260793365" lon="11.412026971535832"><ele>232.0</ele><time>2026-04-11T06:58:37Z</time></trkpt><trkpt lat="43.34859455638373" lon="11.411897604158375"><ele>232.0</ele><time>2026-04-11T06:58:39Z</time></trkpt><trkpt lat="43.34856857667243" lon="11.411757836225174"><ele>232.0</ele><time>2026-04-11T06:58:41Z</time></trkpt><trkpt lat="43.348551635153015" lon="11.411618576441954"><ele>232.0</ele><time>2026-04-11T06:58:43Z</time></trkpt><trkpt lat="43.34854127556974" lon="11.411482071585024"><ele>232.0</ele><time>2026-04-11T06:58:45Z</time></trkpt><trkpt lat="43.34854323225976" lon="11.411356972062576"><ele>232.99999999999997</ele><time>2026-04-11T06:58:47Z</time></trkpt><trkpt lat="43.348537190369115" lon="11.411249431778712"><ele>234.0</ele><time>2026-04-11T06:58:49Z</time></trkpt><trkpt lat="43.34855673610492" lon="11.41114509520161"><ele>235.0</ele><time>2026-04-11T06:58:51Z</time></trkpt><trkpt lat="43.34852779936941" lon="11.411061113582239"><ele>236.0</ele><time>2026-04-11T06:58:53Z</time></trkpt><trkpt lat="43.34851121240989" lon="11.410976420187662"><ele>236.99999999999997</ele><time>2026-04-11T06:58:55Z</time></trkpt><trkpt lat="43.34848805200577" lon="11.41078870356373"><ele>238.0</ele><time>2026-04-11T06:58:59Z</time></trkpt><trkpt lat="43.34847285267556" lon="11.410691039823108"><ele>237.99999999999997</ele><time>2026-04-11T06:59:01Z</time></trkpt><trkpt lat="43.348459830595715" lon="11.41060542753398"><ele>238.0</ele><time>2026-04-11T06:59:03Z</time></trkpt><trkpt lat="43.34842156310926" lon="11.410503568648695"><ele>238.0</ele><time>2026-04-11T06:59:06Z</time></trkpt><trkpt lat="43.34839641201631" lon="11.410391119876994"><ele>238.0</ele><time>2026-04-11T06:59:09Z</time></trkpt><trkpt lat="43.34836289613726" lon="11.41029235852003"><ele>237.99999999999997</ele><time>2026-04-11T06:59:12Z</time></trkpt><trkpt lat="43.348341609947106" lon="11.410168444189987"><ele>238.0</ele><time>2026-04-11T06:59:15Z</time></trkpt><trkpt lat="43.34831279521134" lon="11.410055593350075"><ele>238.4</ele><time>2026-04-11T06:59:18Z</time></trkpt><trkpt lat="43.34825440573211" lon="11.40983878140759"><ele>238.8</ele><time>2026-04-11T06:59:25Z</time></trkpt><trkpt lat="43.348236168074635" lon="11.409751533890619"><ele>239.2</ele><time>2026-04-11T06:59:28Z</time></trkpt><trkpt lat="43.348211378913916" lon="11.409670642976957"><ele>239.6</ele><time>2026-04-11T06:59:30Z</time></trkpt><trkpt lat="43.34816751233191" lon="11.409534143827722"><ele>240.0</ele><time>2026-04-11T06:59:34Z</time></trkpt><trkpt lat="43.34815230975678" lon="11.409437082939293"><ele>240.0</ele><time>2026-04-11T06:59:37Z</time></trkpt><trkpt lat="43.34813484091837" lon="11.409329002153532"><ele>240.0</ele><time>2026-04-11T06:59:40Z</time></trkpt><trkpt lat="43.348095721536" lon="11.409112836890467"><ele>240.0</ele><time>2026-04-11T06:59:45Z</time></trkpt><trkpt lat="43.348069443556" lon="11.40899568345343"><ele>240.0</ele><time>2026-04-11T06:59:48Z</time></trkpt><trkpt lat="43.34805980402711" lon="11.408909977536819"><ele>240.0</ele><time>2026-04-11T06:59:50Z</time></trkpt><trkpt lat="43.348047199956575" lon="11.408817007136905"><ele>240.6</ele><time>2026-04-11T06:59:52Z</time></trkpt><trkpt lat="43.348062252816995" lon="11.408720905515237"><ele>241.2</ele><time>2026-04-11T06:59:54Z</time></trkpt><trkpt lat="43.34804417546303" lon="11.408600786682241"><ele>241.8</ele><time>2026-04-11T06:59:57Z</time></trkpt><trkpt lat="43.348033009864956" lon="11.4084772031067"><ele>242.4</ele><time>2026-04-11T07:00:00Z</time></trkpt><trkpt lat="43.348034297497776" lon="11.4083869255051"><ele>243.0</ele><time>2026-04-11T07:00:02Z</time></trkpt><trkpt lat="43.348028193178834" lon="11.408166761141988"><ele>243.5</ele><time>2026-04-11T07:00:07Z</time></trkpt><trkpt lat="43.348026737743126" lon="11.408040781310596"><ele>244.0</ele><time>2026-04-11T07:00:10Z</time></trkpt><trkpt lat="43.3480176118962" lon="11.407918612421122"><ele>244.5</ele><time>2026-04-11T07:00:13Z</time></trkpt><trkpt lat="43.34801885291574" lon="11.407794035321528"><ele>245.0</ele><time>2026-04-11T07:00:16Z</time></trkpt><trkpt lat="43.34803469605217" lon="11.407707841924923"><ele>245.5</ele><time>2026-04-11T07:00:18Z</time></trkpt><trkpt lat="43.34804812325223" lon="11.407604269733854"><ele>246.0</ele><time>2026-04-11T07:00:21Z</time></trkpt><trkpt lat="43.34804362009816" lon="11.407500151473345"><ele>246.0</ele><time>2026-04-11T07:00:24Z</time></trkpt><trkpt lat="43.34804628468951" lon="11.407312080773115"><ele>246.0</ele><time>2026-04-11T07:00:29Z</time></trkpt><trkpt lat="43.34804638905124" lon="11.407195162339608"><ele>246.0</ele><time>2026-04-11T07:00:32Z</time></trkpt><trkpt lat="43.3480485304477" lon="11.407075395585938"><ele>246.0</ele><time>2026-04-11T07:00:35Z</time></trkpt><trkpt lat="43.34805855222264" lon="11.406972082120674"><ele>246.0</ele><time>2026-04-11T07:00:38Z</time></trkpt><trkpt lat="43.34805156633625" lon="11.406885310059453"><ele>246.0</ele><time>2026-04-11T07:00:40Z</time></trkpt><trkpt lat="43.348067165100396" lon="11.406798822422186"><ele>246.60000000000002</ele><time>2026-04-11T07:00:42Z</time></trkpt><trkpt lat="43.34807549333609" lon="11.40667871433112"><ele>247.20000000000002</ele><time>2026-04-11T07:00:45Z</time></trkpt><trkpt lat="43.34812539382519" lon="11.406409259634682"><ele>247.79999999999998</ele><time>2026-04-11T07:00:53Z</time></trkpt><trkpt lat="43.3481520620441" lon="11.406305819148258"><ele>248.39999999999998</ele><time>2026-04-11T07:00:56Z</time></trkpt><trkpt lat="43.3481848785824" lon="11.406206416854197"><ele>249.0</ele><time>2026-04-11T07:00:59Z</time></trkpt><trkpt lat="43.34823049462987" lon="11.406104311527972"><ele>250.39999999999998</ele><time>2026-04-11T07:01:02Z</time></trkpt><trkpt lat="43.34824232694084" lon="11.405972682836458"><ele>251.79999999999998</ele><time>2026-04-11T07:01:05Z</time></trkpt><trkpt lat="43.34828149971005" lon="11.405858328230378"><ele>253.20000000000002</ele><time>2026-04-11T07:01:08Z</time></trkpt><trkpt lat="43.34835082159672" lon="11.405672306882039"><ele>254.60000000000002</ele><time>2026-04-11T07:01:14Z</time></trkpt><trkpt lat="43.348377672851385" lon="11.405570591524716"><ele>256.0</ele><time>2026-04-11T07:01:17Z</time></trkpt><trkpt lat="43.34838738121434" lon="11.405482861140001"><ele>258.2</ele><time>2026-04-11T07:01:19Z</time></trkpt><trkpt lat="43.34841227329031" lon="11.405357123027487"><ele>260.40000000000003</ele><time>2026-04-11T07:01:22Z</time></trkpt><trkpt lat="43.34843967867836" lon="11.405257375782524"><ele>262.6</ele><time>2026-04-11T07:01:25Z</time></trkpt><trkpt lat="43.348424500524345" lon="11.405155390832046"><ele>264.8</ele><time>2026-04-11T07:01:28Z</time></trkpt><trkpt lat="43.348456625891124" lon="11.405047071921816"><ele>267.0</ele><time>2026-04-11T07:01:31Z</time></trkpt><trkpt lat="43.348487283111574" lon="11.404815673733024"><ele>267.0</ele><time>2026-04-11T07:01:37Z</time></trkpt><trkpt lat="43.34851668945053" lon="11.404727036423749"><ele>267.0</ele><time>2026-04-11T07:01:39Z</time></trkpt><trkpt lat="43.348570786959904" lon="11.404658133279886"><ele>267.0</ele><time>2026-04-11T07:01:40Z</time></trkpt><trkpt lat="43.34856633515236" lon="11.404547998718094"><ele>267.0</ele><time>2026-04-11T07:01:44Z</time></trkpt><trkpt lat="43.34859338102752" lon="11.404445940399267"><ele>267.0</ele><time>2026-04-11T07:01:47Z</time></trkpt><trkpt lat="43.34863628525712" lon="11.404361842995757"><ele>267.0</ele><time>2026-04-11T07:01:50Z</time></trkpt><trkpt lat="43.34867280070859" lon="11.404266485202045"><ele>267.4</ele><time>2026-04-11T07:01:53Z</time></trkpt><trkpt lat="43.348768880009324" lon="11.404098241313852"><ele>267.79999999999995</ele><time>2026-04-11T07:01:59Z</time></trkpt><trkpt lat="43.34882258459956" lon="11.404034648887212"><ele>268.2</ele><time>2026-04-11T07:02:02Z</time></trkpt><trkpt lat="43.348879417683165" lon="11.403954790557417"><ele>268.59999999999997</ele><time>2026-04-11T07:02:05Z</time></trkpt><trkpt lat="43.34893109439934" lon="11.403874614170197"><ele>269.0</ele><time>2026-04-11T07:02:08Z</time></trkpt><trkpt lat="43.348985096450136" lon="11.403799144255393"><ele>269.59999999999997</ele><time>2026-04-11T07:02:11Z</time></trkpt><trkpt lat="43.34902184881991" lon="11.403699050239666"><ele>270.2</ele><time>2026-04-11T07:02:14Z</time></trkpt><trkpt lat="43.349091885763485" lon="11.403490201154336"><ele>270.79999999999995</ele><time>2026-04-11T07:02:20Z</time></trkpt><trkpt lat="43.3491194811089" lon="11.403398554554824"><ele>271.4</ele><time>2026-04-11T07:02:23Z</time></trkpt><trkpt lat="43.3491449718926" lon="11.403309457320962"><ele>272.0</ele><time>2026-04-11T07:02:26Z</time></trkpt><trkpt lat="43.34911789032331" lon="11.403206416394118"><ele>272.0</ele><time>2026-04-11T07:02:29Z</time></trkpt><trkpt lat="43.349138966374895" lon="11.403086961970818"><ele>272.0</ele><time>2026-04-11T07:02:32Z</time></trkpt><trkpt lat="43.349118454344406" lon="11.40296623930264"><ele>272.0</ele><time>2026-04-11T07:02:35Z</time></trkpt><trkpt lat="43.34917710446397" lon="11.40275089676876"><ele>272.0</ele><time>2026-04-11T07:02:41Z</time></trkpt><trkpt lat="43.349179046815095" lon="11.402642852993134"><ele>272.0</ele><time>2026-04-11T07:02:44Z</time></trkpt><trkpt lat="43.349181506628746" lon="11.402525574272314"><ele>273.4</ele><time>2026-04-11T07:02:47Z</time></trkpt><trkpt lat="43.34920654002826" lon="11.402439804044988"><ele>274.79999999999995</ele><time>2026-04-11T07:02:50Z</time></trkpt><trkpt lat="43.34921045053133" lon="11.40232540639939"><ele>276.2</ele><time>2026-04-11T07:02:53Z</time></trkpt><trkpt lat="43.34923244477316" lon="11.402220071692458"><ele>277.59999999999997</ele><time>2026-04-11T07:02:56Z</time></trkpt><trkpt lat="43.349271285228596" lon="11.401998358195378"><ele>279.0</ele><time>2026-04-11T07:03:02Z</time></trkpt><trkpt lat="43.349303092314464" lon="11.401899974761543"><ele>280.59999999999997</ele><time>2026-04-11T07:03:05Z</time></trkpt><trkpt lat="43.3493331288162" lon="11.401790700049103"><ele>282.2</ele><time>2026-04-11T07:03:08Z</time></trkpt><trkpt lat="43.34937545620859" lon="11.401687840524751"><ele>283.79999999999995</ele><time>2026-04-11T07:03:11Z</time></trkpt><trkpt lat="43.349439922449456" lon="11.401601037831508"><ele>285.4</ele><time>2026-04-11T07:03:14Z</time></trkpt><trkpt lat="43.34951185355834" lon="11.401532009038185"><ele>287.0</ele><time>2026-04-11T07:03:17Z</time></trkpt><trkpt lat="43.349681001548845" lon="11.401535368974848"><ele>286.1666666666667</ele><time>2026-04-11T07:03:23Z</time></trkpt><trkpt lat="43.34976814423053" lon="11.401551351812758"><ele>285.33333333333337</ele><time>2026-04-11T07:03:26Z</time></trkpt><trkpt lat="43.34983527535295" lon="11.401587105601228"><ele>284.5</ele><time>2026-04-11T07:03:29Z</time></trkpt><trkpt lat="43.34990935375795" lon="11.401627921987792"><ele>283.6666666666667</ele><time>2026-04-11T07:03:32Z</time></trkpt><trkpt lat="43.34997927508016" lon="11.401638939780971"><ele>282.8333333333333</ele><time>2026-04-11T07:03:35Z</time></trkpt><trkpt lat="43.35004914129332" lon="11.401641751590809"><ele>282.0</ele><time>2026-04-11T07:03:38Z</time></trkpt><trkpt lat="43.35016727763749" lon="11.401618242014832"><ele>282.0</ele><time>2026-04-11T07:03:43Z</time></trkpt><trkpt lat="43.35022588543592" lon="11.401539992017325"><ele>282.0</ele><time>2026-04-11T07:03:46Z</time></trkpt><trkpt lat="43.350263619753804" lon="11.401450931200527"><ele>282.0</ele><time>2026-04-11T07:03:49Z</time></trkpt><trkpt lat="43.35028175257748" lon="11.401363481014048"><ele>282.0</ele><time>2026-04-11T07:03:52Z</time></trkpt><trkpt lat="43.350273262640826" lon="11.401265823864922"><ele>282.0</ele><time>2026-04-11T07:03:55Z</time></trkpt><trkpt lat="43.35023803375729" lon="11.401167898497562"><ele>282.0</ele><time>2026-04-11T07:03:58Z</time></trkpt><trkpt lat="43.350186228315074" lon="11.401076436714373"><ele>284.0</ele><time>2026-04-11T07:04:01Z</time></trkpt><trkpt lat="43.35006922639417" lon="11.40092124581674"><ele>286.0</ele><time>2026-04-11T07:04:07Z</time></trkpt><trkpt lat="43.35002197045972" lon="11.40084279861389"><ele>288.0</ele><time>2026-04-11T07:04:10Z</time></trkpt><trkpt lat="43.3499644849171" lon="11.400778030486622"><ele>290.0</ele><time>2026-04-11T07:04:13Z</time></trkpt><trkpt lat="43.349903576455844" lon="11.40072020739938"><ele>292.0</ele><time>2026-04-11T07:04:16Z</time></trkpt><trkpt lat="43.34983421834209" lon="11.400675069465622"><ele>292.0</ele><time>2026-04-11T07:04:19Z</time></trkpt><trkpt lat="43.34976463038546" lon="11.400622240364209"><ele>292.0</ele><time>2026-04-11T07:04:22Z</time></trkpt><trkpt lat="43.34959837684765" lon="11.400604151775697"><ele>292.0</ele><time>2026-04-11T07:04:28Z</time></trkpt><trkpt lat="43.34950506610011" lon="11.400617907587154"><ele>292.0</ele><time>2026-04-11T07:04:31Z</time></trkpt><trkpt lat="43.34942266640654" lon="11.40064329660129"><ele>292.0</ele><time>2026-04-11T07:04:34Z</time></trkpt><trkpt lat="43.34935420460874" lon="11.400682161986241"><ele>292.4</ele><time>2026-04-11T07:04:37Z</time></trkpt><trkpt lat="43.349284978464205" lon="11.400715791036935"><ele>292.79999999999995</ele><time>2026-04-11T07:04:40Z</time></trkpt><trkpt lat="43.34921095834656" lon="11.400748925379094"><ele>293.2</ele><time>2026-04-11T07:04:43Z</time></trkpt><trkpt lat="43.3490595294015" lon="11.400829872857596"><ele>293.59999999999997</ele><time>2026-04-11T07:04:49Z</time></trkpt><trkpt lat="43.3489846174641" lon="11.400872305233133"><ele>294.0</ele><time>2026-04-11T07:04:52Z</time></trkpt><trkpt lat="43.34891839406117" lon="11.400916682603524"><ele>295.0</ele><time>2026-04-11T07:04:55Z</time></trkpt><trkpt lat="43.34885223525607" lon="11.400958844783224"><ele>296.0</ele><time>2026-04-11T07:04:58Z</time></trkpt><trkpt lat="43.34878529122711" lon="11.400996424225259"><ele>297.0</ele><time>2026-04-11T07:05:01Z</time></trkpt><trkpt lat="43.34871707299727" lon="11.401028193723544"><ele>298.0</ele><time>2026-04-11T07:05:04Z</time></trkpt><trkpt lat="43.34857894278253" lon="11.401008262869109"><ele>299.0</ele><time>2026-04-11T07:05:10Z</time></trkpt><trkpt lat="43.34851082323704" lon="11.400951194441587"><ele>300.0</ele><time>2026-04-11T07:05:13Z</time></trkpt><trkpt lat="43.34845520189002" lon="11.400878427476325"><ele>300.0</ele><time>2026-04-11T07:05:16Z</time></trkpt><trkpt lat="43.34838906592944" lon="11.400802822437456"><ele>300.0</ele><time>2026-04-11T07:05:19Z</time></trkpt><trkpt lat="43.34831708753524" lon="11.400723295946046"><ele>300.0</ele><time>2026-04-11T07:05:22Z</time></trkpt><trkpt lat="43.34825327923061" lon="11.400649372797721"><ele>300.0</ele><time>2026-04-11T07:05:25Z</time></trkpt><trkpt lat="43.34811627356864" lon="11.400502079960045"><ele>300.0</ele><time>2026-04-11T07:05:31Z</time></trkpt><trkpt lat="43.34804678566517" lon="11.400448100497194"><ele>301.4</ele><time>2026-04-11T07:05:34Z</time></trkpt><trkpt lat="43.34797614465025" lon="11.400383893024255"><ele>302.8</ele><time>2026-04-11T07:05:37Z</time></trkpt><trkpt lat="43.34789708898618" lon="11.400336395538009"><ele>304.2</ele><time>2026-04-11T07:05:40Z</time></trkpt><trkpt lat="43.34781891821855" lon="11.400287557875124"><ele>305.6</ele><time>2026-04-11T07:05:43Z</time></trkpt><trkpt lat="43.347743425572595" lon="11.400237173988788"><ele>307.0</ele><time>2026-04-11T07:05:46Z</time></trkpt><trkpt lat="43.347600520535636" lon="11.400135686019707"><ele>306.99999999999994</ele><time>2026-04-11T07:05:51Z</time></trkpt><trkpt lat="43.34753286195144" lon="11.400074065671218"><ele>307.0</ele><time>2026-04-11T07:05:54Z</time></trkpt><trkpt lat="43.34748677430981" lon="11.400008635836288"><ele>307.0</ele><time>2026-04-11T07:05:56Z</time></trkpt><trkpt lat="43.347425561378245" lon="11.399918497815422"><ele>307.0</ele><time>2026-04-11T07:05:59Z</time></trkpt><trkpt lat="43.34742266191047" lon="11.399821704774201"><ele>307.0</ele><time>2026-04-11T07:06:01Z</time></trkpt><trkpt lat="43.34742943029288" lon="11.399725015225686"><ele>306.99999999999994</ele><time>2026-04-11T07:06:03Z</time></trkpt><trkpt lat="43.34744092741579" lon="11.399635060737838"><ele>307.0</ele><time>2026-04-11T07:06:05Z</time></trkpt><trkpt lat="43.34749183502764" lon="11.399523541362168"><ele>307.16666666666663</ele><time>2026-04-11T07:06:08Z</time></trkpt><trkpt lat="43.34757913880124" lon="11.39938456338021"><ele>307.3333333333333</ele><time>2026-04-11T07:06:12Z</time></trkpt><trkpt lat="43.347636460630234" lon="11.399330030185507"><ele>307.5</ele><time>2026-04-11T07:06:14Z</time></trkpt><trkpt lat="43.34770138246684" lon="11.399294954114467"><ele>307.6666666666667</ele><time>2026-04-11T07:06:16Z</time></trkpt><trkpt lat="43.34776690252144" lon="11.399240610094964"><ele>307.83333333333337</ele><time>2026-04-11T07:06:18Z</time></trkpt><trkpt lat="43.347830377562886" lon="11.399186639963432"><ele>308.0</ele><time>2026-04-11T07:06:20Z</time></trkpt><trkpt lat="43.34790160530141" lon="11.39913645230968"><ele>308.0</ele><time>2026-04-11T07:06:22Z</time></trkpt><trkpt lat="43.34796971531664" lon="11.399106685298394"><ele>308.0</ele><time>2026-04-11T07:06:24Z</time></trkpt><trkpt lat="43.34805181870471" lon="11.399073852023461"><ele>308.0</ele><time>2026-04-11T07:06:26Z</time></trkpt><trkpt lat="43.34814224006914" lon="11.39902136087501"><ele>308.0</ele><time>2026-04-11T07:06:29Z</time></trkpt><trkpt lat="43.34832985773498" lon="11.399015049613434"><ele>308.0</ele><time>2026-04-11T07:06:34Z</time></trkpt><trkpt lat="43.34839939111413" lon="11.398965352897385"><ele>307.4</ele><time>2026-04-11T07:06:36Z</time></trkpt><trkpt lat="43.348361776891416" lon="11.398833876688599"><ele>306.8</ele><time>2026-04-11T07:06:41Z</time></trkpt><trkpt lat="43.34831639724508" lon="11.398694186795018"><ele>306.2</ele><time>2026-04-11T07:06:43Z</time></trkpt><trkpt lat="43.34826823703682" lon="11.398593587743168"><ele>305.6</ele><time>2026-04-11T07:06:45Z</time></trkpt><trkpt lat="43.34816569065478" lon="11.398503284507036"><ele>305.0</ele><time>2026-04-11T07:06:47Z</time></trkpt><trkpt lat="43.34805835057186" lon="11.398488531907379"><ele>304.0</ele><time>2026-04-11T07:06:49Z</time></trkpt><trkpt lat="43.347990908141696" lon="11.398493202409064"><ele>303.0</ele><time>2026-04-11T07:06:50Z</time></trkpt><trkpt lat="43.34786356477691" lon="11.398600196187617"><ele>302.0</ele><time>2026-04-11T07:06:52Z</time></trkpt><trkpt lat="43.3477970554885" lon="11.398630282282385"><ele>301.0</ele><time>2026-04-11T07:06:53Z</time></trkpt><trkpt lat="43.34771486132478" lon="11.39863810244103"><ele>300.0</ele><time>2026-04-11T07:06:54Z</time></trkpt><trkpt lat="43.3476544916018" lon="11.39867495076875"><ele>299.0</ele><time>2026-04-11T07:06:55Z</time></trkpt><trkpt lat="43.347584885435246" lon="11.39869778894852"><ele>299.0</ele><time>2026-04-11T07:06:56Z</time></trkpt><trkpt lat="43.347512263142974" lon="11.398689123935466"><ele>299.0</ele><time>2026-04-11T07:06:57Z</time></trkpt><trkpt lat="43.34740824452474" lon="11.39870541307426"><ele>299.0</ele><time>2026-04-11T07:06:58Z</time></trkpt><trkpt lat="43.34731934083124" lon="11.39871406253059"><ele>299.0</ele><time>2026-04-11T07:06:59Z</time></trkpt><trkpt lat="43.34724464191514" lon="11.398720048607073"><ele>299.0</ele><time>2026-04-11T07:07:00Z</time></trkpt><trkpt lat="43.34715974211785" lon="11.398723348038011"><ele>299.0</ele><time>2026-04-11T07:07:01Z</time></trkpt><trkpt lat="43.34708372597953" lon="11.398737956917664"><ele>299.5</ele><time>2026-04-11T07:07:02Z</time></trkpt><trkpt lat="43.34700463195202" lon="11.398773832605599"><ele>300.0</ele><time>2026-04-11T07:07:03Z</time></trkpt><trkpt lat="43.34693155435633" lon="11.398800165596025"><ele>300.5</ele><time>2026-04-11T07:07:04Z</time></trkpt><trkpt lat="43.346860262810836" lon="11.398848086382882"><ele>301.0</ele><time>2026-04-11T07:07:05Z</time></trkpt><trkpt lat="43.346798550330156" lon="11.39890325010093"><ele>301.5</ele><time>2026-04-11T07:07:06Z</time></trkpt><trkpt lat="43.34674249778164" lon="11.39896466767453"><ele>302.0</ele><time>2026-04-11T07:07:07Z</time></trkpt><trkpt lat="43.34669091213223" lon="11.399038371661856"><ele>302.0</ele><time>2026-04-11T07:07:08Z</time></trkpt><trkpt lat="43.34664262492978" lon="11.399138399525926"><ele>302.0</ele><time>2026-04-11T07:07:09Z</time></trkpt><trkpt lat="43.346592511988156" lon="11.399226583216159"><ele>302.0</ele><time>2026-04-11T07:07:10Z</time></trkpt><trkpt lat="43.346543065024896" lon="11.399308684321129"><ele>302.0</ele><time>2026-04-11T07:07:11Z</time></trkpt><trkpt lat="43.34643002735569" lon="11.399478885194691"><ele>302.0</ele><time>2026-04-11T07:07:13Z</time></trkpt><trkpt lat="43.346367505017476" lon="11.399571970079547"><ele>301.5</ele><time>2026-04-11T07:07:14Z</time></trkpt><trkpt lat="43.346312927911924" lon="11.399654864036272"><ele>301.0</ele><time>2026-04-11T07:07:15Z</time></trkpt><trkpt lat="43.34625541509941" lon="11.399734468355472"><ele>300.5</ele><time>2026-04-11T07:07:16Z</time></trkpt><trkpt lat="43.34619787057096" lon="11.39982191576849"><ele>300.0</ele><time>2026-04-11T07:07:17Z</time></trkpt><trkpt lat="43.346148248932" lon="11.399893022811812"><ele>299.5</ele><time>2026-04-11T07:07:18Z</time></trkpt><trkpt lat="43.34609462366212" lon="11.399987524594673"><ele>299.0</ele><time>2026-04-11T07:07:19Z</time></trkpt><trkpt lat="43.34603955661455" lon="11.40006608060303"><ele>299.0</ele><time>2026-04-11T07:07:20Z</time></trkpt><trkpt lat="43.34599373219173" lon="11.400141292580377"><ele>299.0</ele><time>2026-04-11T07:07:21Z</time></trkpt><trkpt lat="43.34594561661291" lon="11.400216304708689"><ele>299.0</ele><time>2026-04-11T07:07:22Z</time></trkpt><trkpt lat="43.345859766388" lon="11.400329082562934"><ele>299.0</ele><time>2026-04-11T07:07:24Z</time></trkpt><trkpt lat="43.34576870741891" lon="11.400456944592259"><ele>299.0</ele><time>2026-04-11T07:07:26Z</time></trkpt><trkpt lat="43.34571417314275" lon="11.400563449177264"><ele>299.0</ele><time>2026-04-11T07:07:28Z</time></trkpt><trkpt lat="43.345636228971244" lon="11.400687912558414"><ele>299.0</ele><time>2026-04-11T07:07:30Z</time></trkpt><trkpt lat="43.3455728082128" lon="11.40079781442342"><ele>299.0</ele><time>2026-04-11T07:07:32Z</time></trkpt><trkpt lat="43.34543725814942" lon="11.400977894821567"><ele>299.0</ele><time>2026-04-11T07:07:35Z</time></trkpt><trkpt lat="43.34539642655694" lon="11.401051029326286"><ele>299.0</ele><time>2026-04-11T07:07:36Z</time></trkpt><trkpt lat="43.34533955659938" lon="11.401105589218101"><ele>299.0</ele><time>2026-04-11T07:07:37Z</time></trkpt><trkpt lat="43.34528059727689" lon="11.401148379266678"><ele>299.0</ele><time>2026-04-11T07:07:38Z</time></trkpt><trkpt lat="43.345215143700365" lon="11.40114624196231"><ele>299.0</ele><time>2026-04-11T07:07:39Z</time></trkpt><trkpt lat="43.3451523793308" lon="11.401180645607042"><ele>299.0</ele><time>2026-04-11T07:07:40Z</time></trkpt><trkpt lat="43.34506842086178" lon="11.401215058050742"><ele>299.0</ele><time>2026-04-11T07:07:41Z</time></trkpt><trkpt lat="43.344999442697315" lon="11.401243218533663"><ele>299.0</ele><time>2026-04-11T07:07:42Z</time></trkpt><trkpt lat="43.34492517550866" lon="11.401274452537479"><ele>299.0</ele><time>2026-04-11T07:07:43Z</time></trkpt><trkpt lat="43.344829810574424" lon="11.401315212325692"><ele>299.0</ele><time>2026-04-11T07:07:44Z</time></trkpt><trkpt lat="43.3447533580725" lon="11.401341323980816"><ele>299.0</ele><time>2026-04-11T07:07:45Z</time></trkpt><trkpt lat="43.344662558117605" lon="11.401359029303604"><ele>299.0</ele><time>2026-04-11T07:07:46Z</time></trkpt><trkpt lat="43.34458816062998" lon="11.401367013334257"><ele>299.0</ele><time>2026-04-11T07:07:47Z</time></trkpt><trkpt lat="43.34449212833931" lon="11.401307668602055"><ele>298.0</ele><time>2026-04-11T07:07:48Z</time></trkpt><trkpt lat="43.34441931126661" lon="11.40134256339847"><ele>297.0</ele><time>2026-04-11T07:07:49Z</time></trkpt><trkpt lat="43.34433889606691" lon="11.401346368049003"><ele>296.0</ele><time>2026-04-11T07:07:50Z</time></trkpt><trkpt lat="43.34425464685265" lon="11.401346239947825"><ele>295.0</ele><time>2026-04-11T07:07:51Z</time></trkpt><trkpt lat="43.344176010963366" lon="11.401342529850066"><ele>294.0</ele><time>2026-04-11T07:07:52Z</time></trkpt><trkpt lat="43.34409008003169" lon="11.401337646233314"><ele>293.0</ele><time>2026-04-11T07:07:53Z</time></trkpt><trkpt lat="43.343878402172244" lon="11.401415261061963"><ele>292.8</ele><time>2026-04-11T07:07:56Z</time></trkpt><trkpt lat="43.343801234189186" lon="11.4014772409609"><ele>292.6</ele><time>2026-04-11T07:07:57Z</time></trkpt><trkpt lat="43.34373377022148" lon="11.401594092795003"><ele>292.4</ele><time>2026-04-11T07:07:58Z</time></trkpt><trkpt lat="43.34365340731449" lon="11.4016324526708"><ele>292.2</ele><time>2026-04-11T07:07:59Z</time></trkpt><trkpt lat="43.34356758838028" lon="11.40167065389943"><ele>292.0</ele><time>2026-04-11T07:08:00Z</time></trkpt><trkpt lat="43.34348493903926" lon="11.401715000494832"><ele>292.0</ele><time>2026-04-11T07:08:01Z</time></trkpt><trkpt lat="43.343406874367034" lon="11.401766113184735"><ele>292.0</ele><time>2026-04-11T07:08:02Z</time></trkpt><trkpt lat="43.34333497105858" lon="11.401826178199208"><ele>292.0</ele><time>2026-04-11T07:08:03Z</time></trkpt><trkpt lat="43.34326638500398" lon="11.401900577559188"><ele>292.0</ele><time>2026-04-11T07:08:04Z</time></trkpt><trkpt lat="43.343207767033164" lon="11.401985468847746"><ele>292.0</ele><time>2026-04-11T07:08:05Z</time></trkpt><trkpt lat="43.34317042474771" lon="11.402078900936518"><ele>292.0</ele><time>2026-04-11T07:08:06Z</time></trkpt><trkpt lat="43.34312655503616" lon="11.402168926141744"><ele>291.57142857142856</ele><time>2026-04-11T07:08:07Z</time></trkpt><trkpt lat="43.34309759255278" lon="11.402268154504869"><ele>291.14285714285717</ele><time>2026-04-11T07:08:08Z</time></trkpt><trkpt lat="43.34308952301598" lon="11.402370837058168"><ele>290.7142857142857</ele><time>2026-04-11T07:08:09Z</time></trkpt><trkpt lat="43.34306639576826" lon="11.402466950503007"><ele>290.2857142857143</ele><time>2026-04-11T07:08:10Z</time></trkpt><trkpt lat="43.34306569895885" lon="11.40256198884426"><ele>289.85714285714283</ele><time>2026-04-11T07:08:11Z</time></trkpt><trkpt lat="43.34306283057946" lon="11.402655077780745"><ele>289.42857142857144</ele><time>2026-04-11T07:08:12Z</time></trkpt><trkpt lat="43.3430571887934" lon="11.402752154871367"><ele>289.0</ele><time>2026-04-11T07:08:13Z</time></trkpt><trkpt lat="43.343057610934764" lon="11.4028574382511"><ele>289.0</ele><time>2026-04-11T07:08:14Z</time></trkpt><trkpt lat="43.343016384781656" lon="11.403070349002263"><ele>289.0</ele><time>2026-04-11T07:08:16Z</time></trkpt><trkpt lat="43.342961697734786" lon="11.403166173928796"><ele>289.0</ele><time>2026-04-11T07:08:17Z</time></trkpt><trkpt lat="43.34290561273171" lon="11.403248463190227"><ele>289.0</ele><time>2026-04-11T07:08:18Z</time></trkpt><trkpt lat="43.34282570557891" lon="11.403303857676464"><ele>289.0</ele><time>2026-04-11T07:08:19Z</time></trkpt><trkpt lat="43.342736138119356" lon="11.40331826727666"><ele>289.0</ele><time>2026-04-11T07:08:20Z</time></trkpt><trkpt lat="43.34264566034428" lon="11.403317550086891"><ele>289.0</ele><time>2026-04-11T07:08:21Z</time></trkpt><trkpt lat="43.34255521980201" lon="11.403331301592114"><ele>289.0</ele><time>2026-04-11T07:08:22Z</time></trkpt><trkpt lat="43.34246045878179" lon="11.403354990944026"><ele>289.0</ele><time>2026-04-11T07:08:23Z</time></trkpt><trkpt lat="43.342371085840576" lon="11.403407547859564"><ele>289.0</ele><time>2026-04-11T07:08:24Z</time></trkpt><trkpt lat="43.34228407373432" lon="11.403481132534873"><ele>288.0</ele><time>2026-04-11T07:08:25Z</time></trkpt><trkpt lat="43.34220884948196" lon="11.403573476144185"><ele>287.0</ele><time>2026-04-11T07:08:26Z</time></trkpt><trkpt lat="43.34212278422421" lon="11.403676408359095"><ele>286.0</ele><time>2026-04-11T07:08:27Z</time></trkpt><trkpt lat="43.34203898154356" lon="11.40377429273635"><ele>285.0</ele><time>2026-04-11T07:08:28Z</time></trkpt><trkpt lat="43.3419576653384" lon="11.40386801366526"><ele>284.0</ele><time>2026-04-11T07:08:29Z</time></trkpt><trkpt lat="43.34187785840322" lon="11.40394875624736"><ele>284.0</ele><time>2026-04-11T07:08:30Z</time></trkpt><trkpt lat="43.34180562542867" lon="11.40403124438014"><ele>284.0</ele><time>2026-04-11T07:08:31Z</time></trkpt><trkpt lat="43.3417369335531" lon="11.404118378133001"><ele>284.0</ele><time>2026-04-11T07:08:32Z</time></trkpt><trkpt lat="43.34166749714722" lon="11.404201338529438"><ele>284.0</ele><time>2026-04-11T07:08:33Z</time></trkpt><trkpt lat="43.341597305384845" lon="11.404279101335886"><ele>284.0</ele><time>2026-04-11T07:08:34Z</time></trkpt><trkpt lat="43.34153225586971" lon="11.404358322596423"><ele>284.0</ele><time>2026-04-11T07:08:35Z</time></trkpt><trkpt lat="43.34140378072857" lon="11.404502594786722"><ele>284.0</ele><time>2026-04-11T07:08:37Z</time></trkpt><trkpt lat="43.34134893934245" lon="11.404577310790366"><ele>284.0</ele><time>2026-04-11T07:08:38Z</time></trkpt><trkpt lat="43.341298708252204" lon="11.404654541828936"><ele>284.0</ele><time>2026-04-11T07:08:39Z</time></trkpt><trkpt lat="43.341250267721016" lon="11.404724809416003"><ele>284.0</ele><time>2026-04-11T07:08:40Z</time></trkpt><trkpt lat="43.34121105603897" lon="11.404796587595749"><ele>285.5</ele><time>2026-04-11T07:08:41Z</time></trkpt><trkpt lat="43.341141262041404" lon="11.404934676368281"><ele>287.0</ele><time>2026-04-11T07:08:43Z</time></trkpt><trkpt lat="43.34106849270028" lon="11.405054537631232"><ele>288.5</ele><time>2026-04-11T07:08:45Z</time></trkpt><trkpt lat="43.34099049427792" lon="11.40516761441736"><ele>290.0</ele><time>2026-04-11T07:08:47Z</time></trkpt><trkpt lat="43.34089812775578" lon="11.405255254142894"><ele>290.0</ele><time>2026-04-11T07:08:49Z</time></trkpt><trkpt lat="43.34080725001778" lon="11.405330558732622"><ele>290.0</ele><time>2026-04-11T07:08:51Z</time></trkpt><trkpt lat="43.34070902264899" lon="11.40540202578036"><ele>290.0</ele><time>2026-04-11T07:08:53Z</time></trkpt><trkpt lat="43.340607723487956" lon="11.405466328386591"><ele>290.0</ele><time>2026-04-11T07:08:55Z</time></trkpt><trkpt lat="43.34050663809855" lon="11.40553258697185"><ele>290.0</ele><time>2026-04-11T07:08:57Z</time></trkpt><trkpt lat="43.34029485182218" lon="11.405644090762292"><ele>290.0</ele><time>2026-04-11T07:09:01Z</time></trkpt><trkpt lat="43.34019637064007" lon="11.405697189151226"><ele>290.0</ele><time>2026-04-11T07:09:03Z</time></trkpt><trkpt lat="43.34010696062253" lon="11.405752453506329"><ele>290.0</ele><time>2026-04-11T07:09:05Z</time></trkpt><trkpt lat="43.3400404114443" lon="11.405827549404078"><ele>290.0</ele><time>2026-04-11T07:09:08Z</time></trkpt><trkpt lat="43.33996388053991" lon="11.405879856596139"><ele>290.0</ele><time>2026-04-11T07:09:10Z</time></trkpt><trkpt lat="43.33986993771571" lon="11.405932391075586"><ele>290.0</ele><time>2026-04-11T07:09:12Z</time></trkpt><trkpt lat="43.339799044881104" lon="11.405972086365594"><ele>290.0</ele><time>2026-04-11T07:09:14Z</time></trkpt><trkpt lat="43.33973368126585" lon="11.406024647090513"><ele>290.0</ele><time>2026-04-11T07:09:16Z</time></trkpt><trkpt lat="43.339666046551024" lon="11.406077578726203"><ele>290.0</ele><time>2026-04-11T07:09:18Z</time></trkpt><trkpt lat="43.33957154563376" lon="11.406218524068722"><ele>290.0</ele><time>2026-04-11T07:09:22Z</time></trkpt><trkpt lat="43.33953931277373" lon="11.406305179598844"><ele>290.0</ele><time>2026-04-11T07:09:24Z</time></trkpt><trkpt lat="43.33950678352177" lon="11.406394798175954"><ele>289.4</ele><time>2026-04-11T07:09:26Z</time></trkpt><trkpt lat="43.3394577998319" lon="11.40649558727708"><ele>288.8</ele><time>2026-04-11T07:09:28Z</time></trkpt><trkpt lat="43.339405714090645" lon="11.406603981562085"><ele>288.2</ele><time>2026-04-11T07:09:30Z</time></trkpt><trkpt lat="43.33933901550399" lon="11.406701434277712"><ele>287.6</ele><time>2026-04-11T07:09:32Z</time></trkpt><trkpt lat="43.339264182218486" lon="11.406787533906762"><ele>287.0</ele><time>2026-04-11T07:09:34Z</time></trkpt><trkpt lat="43.339186130776405" lon="11.406874309251068"><ele>287.0</ele><time>2026-04-11T07:09:36Z</time></trkpt><trkpt lat="43.33911837659458" lon="11.406962058815878"><ele>287.0</ele><time>2026-04-11T07:09:38Z</time></trkpt><trkpt lat="43.33904495411161" lon="11.407053703178935"><ele>287.0</ele><time>2026-04-11T07:09:40Z</time></trkpt><trkpt lat="43.338901546912744" lon="11.407289315838005"><ele>287.0</ele><time>2026-04-11T07:09:46Z</time></trkpt><trkpt lat="43.338835060868035" lon="11.407341884261951"><ele>287.4</ele><time>2026-04-11T07:09:47Z</time></trkpt><trkpt lat="43.338748536049025" lon="11.407424929881286"><ele>287.79999999999995</ele><time>2026-04-11T07:09:49Z</time></trkpt><trkpt lat="43.33866940413973" lon="11.40749856983312"><ele>288.2</ele><time>2026-04-11T07:09:51Z</time></trkpt><trkpt lat="43.338589172697866" lon="11.407561866803443"><ele>288.59999999999997</ele><time>2026-04-11T07:09:53Z</time></trkpt><trkpt lat="43.33851005999826" lon="11.407629241361935"><ele>289.0</ele><time>2026-04-11T07:09:55Z</time></trkpt><trkpt lat="43.33842495592301" lon="11.407685958440418"><ele>289.0</ele><time>2026-04-11T07:09:57Z</time></trkpt><trkpt lat="43.338336803016524" lon="11.407736262781146"><ele>289.0</ele><time>2026-04-11T07:09:59Z</time></trkpt><trkpt lat="43.33824653039455" lon="11.407779535399543"><ele>289.0</ele><time>2026-04-11T07:10:01Z</time></trkpt><trkpt lat="43.338059271176135" lon="11.40777883897229"><ele>289.0</ele><time>2026-04-11T07:10:05Z</time></trkpt><trkpt lat="43.33797294532828" lon="11.407723489336057"><ele>289.4</ele><time>2026-04-11T07:10:07Z</time></trkpt><trkpt lat="43.33789118217659" lon="11.407652712907804"><ele>289.79999999999995</ele><time>2026-04-11T07:10:09Z</time></trkpt><trkpt lat="43.33780944316732" lon="11.40757866862567"><ele>290.20000000000005</ele><time>2026-04-11T07:10:11Z</time></trkpt><trkpt lat="43.33773018671447" lon="11.40749913912851"><ele>290.6</ele><time>2026-04-11T07:10:13Z</time></trkpt><trkpt lat="43.337654223066814" lon="11.407419817738841"><ele>291.0</ele><time>2026-04-11T07:10:15Z</time></trkpt><trkpt lat="43.33757190737081" lon="11.407344639755713"><ele>291.0</ele><time>2026-04-11T07:10:17Z</time></trkpt><trkpt lat="43.33749111625002" lon="11.407264187358605"><ele>291.0</ele><time>2026-04-11T07:10:19Z</time></trkpt><trkpt lat="43.3374136196321" lon="11.40719076857344"><ele>291.0</ele><time>2026-04-11T07:10:21Z</time></trkpt><trkpt lat="43.33733981844665" lon="11.407116024096734"><ele>291.0</ele><time>2026-04-11T07:10:23Z</time></trkpt><trkpt lat="43.33717657626564" lon="11.407007463774855"><ele>291.2</ele><time>2026-04-11T07:10:27Z</time></trkpt><trkpt lat="43.337075197009355" lon="11.406952843723928"><ele>291.40000000000003</ele><time>2026-04-11T07:10:29Z</time></trkpt><trkpt lat="43.33696120537407" lon="11.406901638607785"><ele>291.6</ele><time>2026-04-11T07:10:31Z</time></trkpt><trkpt lat="43.336900136067406" lon="11.406875818907036"><ele>291.8</ele><time>2026-04-11T07:10:32Z</time></trkpt><trkpt lat="43.33677919719339" lon="11.406826087647442"><ele>292.0</ele><time>2026-04-11T07:10:34Z</time></trkpt><trkpt lat="43.336661079727214" lon="11.40677576632406"><ele>292.0</ele><time>2026-04-11T07:10:36Z</time></trkpt><trkpt lat="43.33654949241209" lon="11.4067297359147"><ele>292.0</ele><time>2026-04-11T07:10:38Z</time></trkpt><trkpt lat="43.33644137907397" lon="11.406689337274612"><ele>292.0</ele><time>2026-04-11T07:10:40Z</time></trkpt><trkpt lat="43.3363308470707" lon="11.40666335966667"><ele>292.0</ele><time>2026-04-11T07:10:42Z</time></trkpt><trkpt lat="43.336221629394444" lon="11.406657762351621"><ele>293.75</ele><time>2026-04-11T07:10:44Z</time></trkpt><trkpt lat="43.336021779912144" lon="11.406744837785338"><ele>295.5</ele><time>2026-04-11T07:10:48Z</time></trkpt><trkpt lat="43.335934532266336" lon="11.40682117617604"><ele>297.25</ele><time>2026-04-11T07:10:50Z</time></trkpt><trkpt lat="43.33586018553368" lon="11.406907903025642"><ele>299.0</ele><time>2026-04-11T07:10:52Z</time></trkpt><trkpt lat="43.33578882731103" lon="11.406990878419816"><ele>299.0</ele><time>2026-04-11T07:10:54Z</time></trkpt><trkpt lat="43.335795349358655" lon="11.40708598947249"><ele>299.0</ele><time>2026-04-11T07:10:57Z</time></trkpt><trkpt lat="43.3357459621664" lon="11.407145320049459"><ele>299.0</ele><time>2026-04-11T07:10:59Z</time></trkpt><trkpt lat="43.33563485509705" lon="11.407249458084843"><ele>299.0</ele><time>2026-04-11T07:11:02Z</time></trkpt><trkpt lat="43.335567432572745" lon="11.407296727292579"><ele>299.0</ele><time>2026-04-11T07:11:03Z</time></trkpt><trkpt lat="43.33547299753024" lon="11.407343927886426"><ele>299.0</ele><time>2026-04-11T07:11:05Z</time></trkpt><trkpt lat="43.33527859005872" lon="11.40735405683486"><ele>298.59999999999997</ele><time>2026-04-11T07:11:09Z</time></trkpt><trkpt lat="43.33518108386359" lon="11.407354708285997"><ele>298.2</ele><time>2026-04-11T07:11:11Z</time></trkpt><trkpt lat="43.33507477854635" lon="11.407380488252619"><ele>297.79999999999995</ele><time>2026-04-11T07:11:13Z</time></trkpt><trkpt lat="43.33495881185445" lon="11.4074179528249"><ele>297.4</ele><time>2026-04-11T07:11:15Z</time></trkpt><trkpt lat="43.334897361205726" lon="11.407444293730114"><ele>297.0</ele><time>2026-04-11T07:11:16Z</time></trkpt><trkpt lat="43.33498115428308" lon="11.407452882803208"><ele>297.0</ele><time>2026-04-11T07:11:17Z</time></trkpt><trkpt lat="43.33474155047775" lon="11.407497807547267"><ele>297.0</ele><time>2026-04-11T07:11:20Z</time></trkpt><trkpt lat="43.334624180091645" lon="11.407492482383553"><ele>297.0</ele><time>2026-04-11T07:11:21Z</time></trkpt><trkpt lat="43.334508638575294" lon="11.40748066065725"><ele>295.6</ele><time>2026-04-11T07:11:22Z</time></trkpt><trkpt lat="43.33438872438913" lon="11.407439248291249"><ele>294.2</ele><time>2026-04-11T07:11:24Z</time></trkpt><trkpt lat="43.33433561435175" lon="11.407373755509635"><ele>292.8</ele><time>2026-04-11T07:11:25Z</time></trkpt><trkpt lat="43.33428846975266" lon="11.40728103829362"><ele>291.4</ele><time>2026-04-11T07:11:26Z</time></trkpt><trkpt lat="43.334246225433276" lon="11.407054994325778"><ele>290.0</ele><time>2026-04-11T07:11:28Z</time></trkpt><trkpt lat="43.334230505184685" lon="11.406944034803374"><ele>289.83333333333337</ele><time>2026-04-11T07:11:29Z</time></trkpt><trkpt lat="43.33422034804266" lon="11.406829575975292"><ele>289.6666666666667</ele><time>2026-04-11T07:11:30Z</time></trkpt><trkpt lat="43.33421087854837" lon="11.406721757862451"><ele>289.5</ele><time>2026-04-11T07:11:31Z</time></trkpt><trkpt lat="43.33419940310172" lon="11.406610702968074"><ele>289.3333333333333</ele><time>2026-04-11T07:11:32Z</time></trkpt><trkpt lat="43.334177136830014" lon="11.406504904363016"><ele>289.16666666666663</ele><time>2026-04-11T07:11:33Z</time></trkpt><trkpt lat="43.334161415941345" lon="11.406402082275592"><ele>289.0</ele><time>2026-04-11T07:11:34Z</time></trkpt><trkpt lat="43.334147613142534" lon="11.406300963841103"><ele>288.5</ele><time>2026-04-11T07:11:35Z</time></trkpt><trkpt lat="43.33413271663371" lon="11.406197747442873"><ele>288.0</ele><time>2026-04-11T07:11:36Z</time></trkpt><trkpt lat="43.33411838076978" lon="11.406095088168625"><ele>287.5</ele><time>2026-04-11T07:11:37Z</time></trkpt><trkpt lat="43.33410572312155" lon="11.405986802487433"><ele>287.0</ele><time>2026-04-11T07:11:38Z</time></trkpt><trkpt lat="43.33409174940079" lon="11.405888242877166"><ele>286.5</ele><time>2026-04-11T07:11:39Z</time></trkpt><trkpt lat="43.33409474620032" lon="11.405785531548682"><ele>286.0</ele><time>2026-04-11T07:11:40Z</time></trkpt><trkpt lat="43.334104703453434" lon="11.405683866290639"><ele>286.0</ele><time>2026-04-11T07:11:41Z</time></trkpt><trkpt lat="43.3341109480892" lon="11.405580260616862"><ele>286.0</ele><time>2026-04-11T07:11:42Z</time></trkpt><trkpt lat="43.33411750242056" lon="11.405471314044407"><ele>286.0</ele><time>2026-04-11T07:11:43Z</time></trkpt><trkpt lat="43.334132748313294" lon="11.405357856443496"><ele>286.0</ele><time>2026-04-11T07:11:44Z</time></trkpt><trkpt lat="43.33414488471367" lon="11.405244035944305"><ele>286.0</ele><time>2026-04-11T07:11:45Z</time></trkpt><trkpt lat="43.33415106625254" lon="11.40513252049671"><ele>286.0</ele><time>2026-04-11T07:11:46Z</time></trkpt><trkpt lat="43.33415798467339" lon="11.405022867509986"><ele>285.3333333333333</ele><time>2026-04-11T07:11:47Z</time></trkpt><trkpt lat="43.33417495724924" lon="11.404801635358314"><ele>284.66666666666663</ele><time>2026-04-11T07:11:49Z</time></trkpt><trkpt lat="43.33418250764043" lon="11.40470095557888"><ele>284.0</ele><time>2026-04-11T07:11:50Z</time></trkpt><trkpt lat="43.33419323578179" lon="11.404603595888817"><ele>283.3333333333333</ele><time>2026-04-11T07:11:51Z</time></trkpt><trkpt lat="43.334205726651426" lon="11.404512768021883"><ele>282.6666666666667</ele><time>2026-04-11T07:11:52Z</time></trkpt><trkpt lat="43.33421713719044" lon="11.40442414515693"><ele>282.0</ele><time>2026-04-11T07:11:53Z</time></trkpt><trkpt lat="43.33423168186076" lon="11.404264836524566"><ele>282.0</ele><time>2026-04-11T07:11:55Z</time></trkpt><trkpt lat="43.334220039837085" lon="11.404113665585209"><ele>282.0</ele><time>2026-04-11T07:11:57Z</time></trkpt><trkpt lat="43.33414356699578" lon="11.403993563492238"><ele>282.0</ele><time>2026-04-11T07:11:59Z</time></trkpt><trkpt lat="43.33402451602476" lon="11.404011614746887"><ele>282.0</ele><time>2026-04-11T07:12:01Z</time></trkpt><trkpt lat="43.33396365849752" lon="11.404053439255788"><ele>282.0</ele><time>2026-04-11T07:12:02Z</time></trkpt><trkpt lat="43.33390633431891" lon="11.404097481013592"><ele>281.6666666666667</ele><time>2026-04-11T07:12:03Z</time></trkpt><trkpt lat="43.33385067492533" lon="11.404138044274246"><ele>281.3333333333333</ele><time>2026-04-11T07:12:04Z</time></trkpt><trkpt lat="43.33379015790299" lon="11.40417368053344"><ele>281.0</ele><time>2026-04-11T07:12:05Z</time></trkpt><trkpt lat="43.33372988410673" lon="11.40420622841489"><ele>280.66666666666663</ele><time>2026-04-11T07:12:06Z</time></trkpt><trkpt lat="43.333661681901816" lon="11.404231477189102"><ele>280.3333333333333</ele><time>2026-04-11T07:12:07Z</time></trkpt><trkpt lat="43.33359439012209" lon="11.4042587776196"><ele>280.0</ele><time>2026-04-11T07:12:08Z</time></trkpt><trkpt lat="43.33345581626419" lon="11.404314911733428"><ele>280.0</ele><time>2026-04-11T07:12:10Z</time></trkpt><trkpt lat="43.33338752504845" lon="11.40435344172127"><ele>280.0</ele><time>2026-04-11T07:12:11Z</time></trkpt><trkpt lat="43.33331740300639" lon="11.40438993527236"><ele>280.0</ele><time>2026-04-11T07:12:12Z</time></trkpt><trkpt lat="43.33324534822082" lon="11.404424186416316"><ele>280.0</ele><time>2026-04-11T07:12:13Z</time></trkpt><trkpt lat="43.333173208068104" lon="11.404462505036928"><ele>280.0</ele><time>2026-04-11T07:12:14Z</time></trkpt><trkpt lat="43.3330984229625" lon="11.404500749079954"><ele>280.0</ele><time>2026-04-11T07:12:15Z</time></trkpt><trkpt lat="43.333027966039616" lon="11.404534959283154"><ele>280.2</ele><time>2026-04-11T07:12:16Z</time></trkpt><trkpt lat="43.33295632220349" lon="11.404573395732578"><ele>280.4</ele><time>2026-04-11T07:12:17Z</time></trkpt><trkpt lat="43.3328259382442" lon="11.404653303437222"><ele>280.6</ele><time>2026-04-11T07:12:19Z</time></trkpt><trkpt lat="43.332739546646366" lon="11.404704028826895"><ele>280.8</ele><time>2026-04-11T07:12:20Z</time></trkpt><trkpt lat="43.33265820537989" lon="11.404749651948848"><ele>281.0</ele><time>2026-04-11T07:12:21Z</time></trkpt><trkpt lat="43.33257792817388" lon="11.404801116710281"><ele>280.5</ele><time>2026-04-11T07:12:22Z</time></trkpt><trkpt lat="43.33249443702037" lon="11.404845968226729"><ele>280.0</ele><time>2026-04-11T07:12:23Z</time></trkpt><trkpt lat="43.332412185361505" lon="11.404892092071332"><ele>279.5</ele><time>2026-04-11T07:12:24Z</time></trkpt><trkpt lat="43.33233320791961" lon="11.40493889036297"><ele>279.0</ele><time>2026-04-11T07:12:25Z</time></trkpt><trkpt lat="43.33225380615861" lon="11.40499297324016"><ele>278.5</ele><time>2026-04-11T07:12:26Z</time></trkpt><trkpt lat="43.332176713750435" lon="11.40502723471815"><ele>278.0</ele><time>2026-04-11T07:12:27Z</time></trkpt><trkpt lat="43.33210077189658" lon="11.40505439757634"><ele>278.0</ele><time>2026-04-11T07:12:28Z</time></trkpt><trkpt lat="43.332026806558815" lon="11.405095715739302"><ele>278.0</ele><time>2026-04-11T07:12:29Z</time></trkpt><trkpt lat="43.33188743334354" lon="11.405158048412849"><ele>278.0</ele><time>2026-04-11T07:12:31Z</time></trkpt><trkpt lat="43.33180872118539" lon="11.405193083094382"><ele>278.0</ele><time>2026-04-11T07:12:32Z</time></trkpt><trkpt lat="43.331743634375016" lon="11.405236365876775"><ele>278.0</ele><time>2026-04-11T07:12:33Z</time></trkpt><trkpt lat="43.33167619473513" lon="11.405256297707826"><ele>278.0</ele><time>2026-04-11T07:12:34Z</time></trkpt><trkpt lat="43.33160789748572" lon="11.405264274596048"><ele>278.0</ele><time>2026-04-11T07:12:35Z</time></trkpt><trkpt lat="43.33153497479922" lon="11.405271612109436"><ele>278.0</ele><time>2026-04-11T07:12:36Z</time></trkpt><trkpt lat="43.331462598608134" lon="11.405281277688145"><ele>278.0</ele><time>2026-04-11T07:12:37Z</time></trkpt><trkpt lat="43.33134774114368" lon="11.405322205103703"><ele>278.0</ele><time>2026-04-11T07:12:39Z</time></trkpt><trkpt lat="43.33122230113123" lon="11.405362373186293"><ele>277.0</ele><time>2026-04-11T07:12:41Z</time></trkpt><trkpt lat="43.33114577904174" lon="11.405373498397093"><ele>276.0</ele><time>2026-04-11T07:12:42Z</time></trkpt><trkpt lat="43.33106393843828" lon="11.405385842676582"><ele>275.0</ele><time>2026-04-11T07:12:43Z</time></trkpt><trkpt lat="43.33098930021513" lon="11.405400439433155"><ele>274.0</ele><time>2026-04-11T07:12:44Z</time></trkpt><trkpt lat="43.33091827027689" lon="11.405414600474337"><ele>273.0</ele><time>2026-04-11T07:12:45Z</time></trkpt><trkpt lat="43.3308351693561" lon="11.405444627945691"><ele>272.0</ele><time>2026-04-11T07:12:46Z</time></trkpt><trkpt lat="43.3307629693545" lon="11.405467427404309"><ele>272.0</ele><time>2026-04-11T07:12:47Z</time></trkpt><trkpt lat="43.330699294161434" lon="11.405495432093975"><ele>272.0</ele><time>2026-04-11T07:12:48Z</time></trkpt><trkpt lat="43.33063755100202" lon="11.405533992034437"><ele>272.0</ele><time>2026-04-11T07:12:49Z</time></trkpt><trkpt lat="43.33055310987881" lon="11.405539710721545"><ele>272.0</ele><time>2026-04-11T07:12:50Z</time></trkpt><trkpt lat="43.33040782629381" lon="11.405578488404583"><ele>272.0</ele><time>2026-04-11T07:12:52Z</time></trkpt><trkpt lat="43.33032825414803" lon="11.40561720212938"><ele>270.6666666666667</ele><time>2026-04-11T07:12:53Z</time></trkpt><trkpt lat="43.330254140655164" lon="11.405657492777726"><ele>269.33333333333337</ele><time>2026-04-11T07:12:54Z</time></trkpt><trkpt lat="43.330187215093424" lon="11.405699165077783"><ele>268.0</ele><time>2026-04-11T07:12:55Z</time></trkpt><trkpt lat="43.33011219538712" lon="11.40573992727664"><ele>266.6666666666667</ele><time>2026-04-11T07:12:56Z</time></trkpt><trkpt lat="43.33003266675204" lon="11.405781303339399"><ele>265.3333333333333</ele><time>2026-04-11T07:12:57Z</time></trkpt><trkpt lat="43.32995105801124" lon="11.405825383954742"><ele>264.0</ele><time>2026-04-11T07:12:58Z</time></trkpt><trkpt lat="43.329871892776275" lon="11.405883112885583"><ele>264.0</ele><time>2026-04-11T07:12:59Z</time></trkpt><trkpt lat="43.32979635282084" lon="11.40594356611645"><ele>264.0</ele><time>2026-04-11T07:13:00Z</time></trkpt><trkpt lat="43.32971773279254" lon="11.406005934103261"><ele>264.0</ele><time>2026-04-11T07:13:01Z</time></trkpt><trkpt lat="43.32964078408854" lon="11.406073350552393"><ele>264.0</ele><time>2026-04-11T07:13:02Z</time></trkpt><trkpt lat="43.32956571961079" lon="11.406142573239931"><ele>264.0</ele><time>2026-04-11T07:13:03Z</time></trkpt><trkpt lat="43.329493049491795" lon="11.406211965655169"><ele>264.0</ele><time>2026-04-11T07:13:04Z</time></trkpt><trkpt lat="43.329427087877406" lon="11.406291490419191"><ele>262.8</ele><time>2026-04-11T07:13:05Z</time></trkpt><trkpt lat="43.32935941922151" lon="11.406373012057102"><ele>261.59999999999997</ele><time>2026-04-11T07:13:06Z</time></trkpt><trkpt lat="43.329289417223094" lon="11.406457445148094"><ele>260.4</ele><time>2026-04-11T07:13:07Z</time></trkpt><trkpt lat="43.329220166118375" lon="11.406542123484142"><ele>259.2</ele><time>2026-04-11T07:13:08Z</time></trkpt><trkpt lat="43.32915097176601" lon="11.406631105442838"><ele>258.0</ele><time>2026-04-11T07:13:09Z</time></trkpt><trkpt lat="43.329078850487065" lon="11.406720332751838"><ele>258.0</ele><time>2026-04-11T07:13:10Z</time></trkpt><trkpt lat="43.32900804564777" lon="11.40680286615937"><ele>258.0</ele><time>2026-04-11T07:13:11Z</time></trkpt><trkpt lat="43.32886887982722" lon="11.40697800769624"><ele>258.0</ele><time>2026-04-11T07:13:13Z</time></trkpt><trkpt lat="43.32880282981059" lon="11.40705662512158"><ele>258.0</ele><time>2026-04-11T07:13:14Z</time></trkpt><trkpt lat="43.328731535339664" lon="11.4071280218274"><ele>257.1666666666667</ele><time>2026-04-11T07:13:15Z</time></trkpt><trkpt lat="43.32867386974982" lon="11.40721348503761"><ele>256.3333333333333</ele><time>2026-04-11T07:13:16Z</time></trkpt><trkpt lat="43.32860532136784" lon="11.407296710916336"><ele>255.5</ele><time>2026-04-11T07:13:17Z</time></trkpt><trkpt lat="43.32853480838597" lon="11.407373640471636"><ele>254.66666666666666</ele><time>2026-04-11T07:13:18Z</time></trkpt><trkpt lat="43.32847301775422" lon="11.4074608027777"><ele>253.83333333333331</ele><time>2026-04-11T07:13:19Z</time></trkpt><trkpt lat="43.328408166777386" lon="11.40753769576181"><ele>253.0</ele><time>2026-04-11T07:13:20Z</time></trkpt><trkpt lat="43.328343147637405" lon="11.40761151392997"><ele>252.99999999999997</ele><time>2026-04-11T07:13:21Z</time></trkpt><trkpt lat="43.328280205585415" lon="11.407686837758359"><ele>253.0</ele><time>2026-04-11T07:13:22Z</time></trkpt><trkpt lat="43.32823906167234" lon="11.407766738100086"><ele>253.0</ele><time>2026-04-11T07:13:23Z</time></trkpt><trkpt lat="43.328169425370994" lon="11.407839328569779"><ele>253.0</ele><time>2026-04-11T07:13:24Z</time></trkpt><trkpt lat="43.32810711433437" lon="11.407907026432893"><ele>252.99999999999997</ele><time>2026-04-11T07:13:25Z</time></trkpt><trkpt lat="43.328047497796064" lon="11.407970366003806"><ele>253.0</ele><time>2026-04-11T07:13:26Z</time></trkpt><trkpt lat="43.32799333870518" lon="11.40803928940525"><ele>252.99999999999997</ele><time>2026-04-11T07:13:27Z</time></trkpt><trkpt lat="43.32793663418691" lon="11.408098646029272"><ele>253.0</ele><time>2026-04-11T07:13:28Z</time></trkpt><trkpt lat="43.32788584926985" lon="11.408156852537484"><ele>253.0</ele><time>2026-04-11T07:13:29Z</time></trkpt><trkpt lat="43.32783248847327" lon="11.408213485233476"><ele>253.0</ele><time>2026-04-11T07:13:30Z</time></trkpt><trkpt lat="43.32777915361771" lon="11.408263157991218"><ele>252.99999999999997</ele><time>2026-04-11T07:13:31Z</time></trkpt><trkpt lat="43.32768803126425" lon="11.408362929496242"><ele>253.0</ele><time>2026-04-11T07:13:33Z</time></trkpt><trkpt lat="43.32747509899479" lon="11.408589231397826"><ele>252.99999999999997</ele><time>2026-04-11T07:14:17Z</time></trkpt><trkpt lat="43.32740216867517" lon="11.408712102932542"><ele>253.0</ele><time>2026-04-11T07:14:19Z</time></trkpt><trkpt lat="43.32735331430135" lon="11.408773131795854"><ele>253.0</ele><time>2026-04-11T07:14:20Z</time></trkpt><trkpt lat="43.32730131470651" lon="11.408832272434617"><ele>253.0</ele><time>2026-04-11T07:14:21Z</time></trkpt><trkpt lat="43.327233542573175" lon="11.40888991114672"><ele>252.99999999999997</ele><time>2026-04-11T07:14:22Z</time></trkpt><trkpt lat="43.327173851755646" lon="11.40895058667626"><ele>253.0</ele><time>2026-04-11T07:14:23Z</time></trkpt><trkpt lat="43.327121795105285" lon="11.409018003129436"><ele>251.83333333333331</ele><time>2026-04-11T07:14:24Z</time></trkpt><trkpt lat="43.327068647175054" lon="11.409090710254656"><ele>250.66666666666666</ele><time>2026-04-11T07:14:25Z</time></trkpt><trkpt lat="43.32701342194975" lon="11.409154762030303"><ele>249.5</ele><time>2026-04-11T07:14:26Z</time></trkpt><trkpt lat="43.32696293605708" lon="11.40923356152639"><ele>248.33333333333331</ele><time>2026-04-11T07:14:27Z</time></trkpt><trkpt lat="43.32692723907639" lon="11.409313345333532"><ele>247.16666666666666</ele><time>2026-04-11T07:14:28Z</time></trkpt><trkpt lat="43.32688028340288" lon="11.409411451864626"><ele>246.0</ele><time>2026-04-11T07:14:29Z</time></trkpt><trkpt lat="43.32683374170089" lon="11.409502141900017"><ele>246.0</ele><time>2026-04-11T07:14:30Z</time></trkpt><trkpt lat="43.32677574568285" lon="11.409597974631872"><ele>246.00000000000003</ele><time>2026-04-11T07:14:31Z</time></trkpt><trkpt lat="43.32670544592858" lon="11.40968528101615"><ele>246.00000000000003</ele><time>2026-04-11T07:14:32Z</time></trkpt><trkpt lat="43.32663395744454" lon="11.409765641107084"><ele>246.0</ele><time>2026-04-11T07:14:33Z</time></trkpt><trkpt lat="43.32654318043593" lon="11.409830875268451"><ele>246.0</ele><time>2026-04-11T07:14:34Z</time></trkpt><trkpt lat="43.326469108963224" lon="11.409903517447377"><ele>245.4</ele><time>2026-04-11T07:14:35Z</time></trkpt><trkpt lat="43.32633433689815" lon="11.41006240450988"><ele>244.8</ele><time>2026-04-11T07:14:37Z</time></trkpt><trkpt lat="43.326261402583484" lon="11.410138878433278"><ele>244.20000000000002</ele><time>2026-04-11T07:14:38Z</time></trkpt><trkpt lat="43.32618278940562" lon="11.410213860922743"><ele>243.60000000000002</ele><time>2026-04-11T07:14:39Z</time></trkpt><trkpt lat="43.326124778264216" lon="11.410288515094738"><ele>243.0</ele><time>2026-04-11T07:14:40Z</time></trkpt><trkpt lat="43.326058817067825" lon="11.41033624693731"><ele>243.0</ele><time>2026-04-11T07:14:41Z</time></trkpt><trkpt lat="43.32599621155604" lon="11.410345991346963"><ele>243.0</ele><time>2026-04-11T07:14:42Z</time></trkpt><trkpt lat="43.325935702152826" lon="11.410307168845877"><ele>243.0</ele><time>2026-04-11T07:14:43Z</time></trkpt><trkpt lat="43.32589351711351" lon="11.410219376786758"><ele>243.0</ele><time>2026-04-11T07:14:44Z</time></trkpt><trkpt lat="43.32586642023228" lon="11.41010668157209"><ele>243.0</ele><time>2026-04-11T07:14:45Z</time></trkpt><trkpt lat="43.32584228162034" lon="11.409990707320512"><ele>243.0</ele><time>2026-04-11T07:14:46Z</time></trkpt><trkpt lat="43.32581030378916" lon="11.409866656328862"><ele>243.0</ele><time>2026-04-11T07:14:47Z</time></trkpt><trkpt lat="43.32578835324535" lon="11.409719380312433"><ele>243.0</ele><time>2026-04-11T07:14:48Z</time></trkpt><trkpt lat="43.32579371282629" lon="11.409556497092716"><ele>243.0</ele><time>2026-04-11T07:14:49Z</time></trkpt><trkpt lat="43.3258070205578" lon="11.409388739810453"><ele>243.0</ele><time>2026-04-11T07:14:50Z</time></trkpt><trkpt lat="43.32582976202772" lon="11.409221217070757"><ele>241.0</ele><time>2026-04-11T07:14:51Z</time></trkpt><trkpt lat="43.32581979083926" lon="11.409040941826909"><ele>239.0</ele><time>2026-04-11T07:14:52Z</time></trkpt><trkpt lat="43.32580466776321" lon="11.408849895282792"><ele>237.0</ele><time>2026-04-11T07:14:53Z</time></trkpt><trkpt lat="43.32578830269027" lon="11.408654268392677"><ele>235.0</ele><time>2026-04-11T07:14:54Z</time></trkpt><trkpt lat="43.32576660261472" lon="11.408460245403038"><ele>233.66666666666666</ele><time>2026-04-11T07:14:55Z</time></trkpt><trkpt lat="43.325761653265445" lon="11.408270542985694"><ele>232.33333333333331</ele><time>2026-04-11T07:14:56Z</time></trkpt><trkpt lat="43.325702700388966" lon="11.407865973838735"><ele>231.0</ele><time>2026-04-11T07:14:58Z</time></trkpt><trkpt lat="43.325679782987685" lon="11.407669308297166"><ele>230.0</ele><time>2026-04-11T07:14:59Z</time></trkpt><trkpt lat="43.32565876040192" lon="11.407471305659646"><ele>229.0</ele><time>2026-04-11T07:15:00Z</time></trkpt><trkpt lat="43.32563595885983" lon="11.407279148924573"><ele>228.0</ele><time>2026-04-11T07:15:01Z</time></trkpt><trkpt lat="43.325615792024074" lon="11.40709130140607"><ele>227.0</ele><time>2026-04-11T07:15:02Z</time></trkpt><trkpt lat="43.325593749026005" lon="11.406905252598243"><ele>226.0</ele><time>2026-04-11T07:15:03Z</time></trkpt><trkpt lat="43.32556355706024" lon="11.406727426133045"><ele>225.0</ele><time>2026-04-11T07:15:04Z</time></trkpt><trkpt lat="43.32551568718169" lon="11.406548970544403"><ele>224.0</ele><time>2026-04-11T07:15:05Z</time></trkpt><trkpt lat="43.32544187392933" lon="11.40638845382133"><ele>223.0</ele><time>2026-04-11T07:15:06Z</time></trkpt><trkpt lat="43.32538180598675" lon="11.406245254075586"><ele>221.5</ele><time>2026-04-11T07:15:07Z</time></trkpt><trkpt lat="43.325310108134246" lon="11.406109871715856"><ele>220.0</ele><time>2026-04-11T07:15:08Z</time></trkpt><trkpt lat="43.32525582344613" lon="11.405961195919485"><ele>218.5</ele><time>2026-04-11T07:15:09Z</time></trkpt><trkpt lat="43.32517202850093" lon="11.405818494421839"><ele>217.0</ele><time>2026-04-11T07:15:10Z</time></trkpt><trkpt lat="43.32511144274191" lon="11.405661449636966"><ele>217.0</ele><time>2026-04-11T07:15:11Z</time></trkpt><trkpt lat="43.325068328244065" lon="11.40551990516226"><ele>217.0</ele><time>2026-04-11T07:15:12Z</time></trkpt><trkpt lat="43.32502127792936" lon="11.405372252663817"><ele>217.0</ele><time>2026-04-11T07:15:13Z</time></trkpt><trkpt lat="43.325009768534" lon="11.405230246651625"><ele>217.0</ele><time>2026-04-11T07:15:14Z</time></trkpt><trkpt lat="43.32498071085005" lon="11.405056062978462"><ele>216.33333333333331</ele><time>2026-04-11T07:15:15Z</time></trkpt><trkpt lat="43.324967171629375" lon="11.404880516441779"><ele>215.66666666666669</ele><time>2026-04-11T07:15:16Z</time></trkpt><trkpt lat="43.32495911422757" lon="11.404711334841458"><ele>215.0</ele><time>2026-04-11T07:15:17Z</time></trkpt><trkpt lat="43.32494087739914" lon="11.40438548324654"><ele>214.8</ele><time>2026-04-11T07:15:19Z</time></trkpt><trkpt lat="43.324936442065095" lon="11.40423273676211"><ele>214.6</ele><time>2026-04-11T07:15:20Z</time></trkpt><trkpt lat="43.32493491800517" lon="11.404084650697023"><ele>214.39999999999998</ele><time>2026-04-11T07:15:21Z</time></trkpt><trkpt lat="43.324935993441635" lon="11.403928113433974"><ele>214.2</ele><time>2026-04-11T07:15:22Z</time></trkpt><trkpt lat="43.324946246690914" lon="11.403783187891587"><ele>214.0</ele><time>2026-04-11T07:15:23Z</time></trkpt><trkpt lat="43.32494969268032" lon="11.403642312398157"><ele>213.6</ele><time>2026-04-11T07:15:24Z</time></trkpt><trkpt lat="43.32496267713564" lon="11.403498563201385"><ele>213.2</ele><time>2026-04-11T07:15:25Z</time></trkpt><trkpt lat="43.32497057987337" lon="11.40336360620333"><ele>212.79999999999998</ele><time>2026-04-11T07:15:26Z</time></trkpt><trkpt lat="43.32498316582292" lon="11.403233279607223"><ele>212.39999999999998</ele><time>2026-04-11T07:15:27Z</time></trkpt><trkpt lat="43.324995433182366" lon="11.403107472406067"><ele>212.0</ele><time>2026-04-11T07:15:28Z</time></trkpt><trkpt lat="43.32500254433041" lon="11.402985489182837"><ele>212.66666666666669</ele><time>2026-04-11T07:15:29Z</time></trkpt><trkpt lat="43.32502082997956" lon="11.402864808295412"><ele>213.33333333333334</ele><time>2026-04-11T07:15:30Z</time></trkpt><trkpt lat="43.325037336752" lon="11.402759540780757"><ele>214.0</ele><time>2026-04-11T07:15:31Z</time></trkpt><trkpt lat="43.32506521511506" lon="11.40267340403235"><ele>214.66666666666669</ele><time>2026-04-11T07:15:32Z</time></trkpt><trkpt lat="43.32507399050853" lon="11.402514189207453"><ele>215.33333333333334</ele><time>2026-04-11T07:15:34Z</time></trkpt><trkpt lat="43.32508237813291" lon="11.40239973580013"><ele>216.0</ele><time>2026-04-11T07:15:36Z</time></trkpt><trkpt lat="43.3250830064223" lon="11.402278854203553"><ele>217.66666666666666</ele><time>2026-04-11T07:15:39Z</time></trkpt><trkpt lat="43.32510175796289" lon="11.402074265174951"><ele>219.33333333333331</ele><time>2026-04-11T07:15:47Z</time></trkpt><trkpt lat="43.325093993871796" lon="11.401970305662179"><ele>221.0</ele><time>2026-04-11T07:15:51Z</time></trkpt><trkpt lat="43.32509411506742" lon="11.40186885896774"><ele>222.66666666666666</ele><time>2026-04-11T07:15:55Z</time></trkpt><trkpt lat="43.32510015059846" lon="11.4017807308779"><ele>224.33333333333331</ele><time>2026-04-11T07:15:59Z</time></trkpt><trkpt lat="43.32510366554434" lon="11.401678853828487"><ele>226.0</ele><time>2026-04-11T07:16:04Z</time></trkpt><trkpt lat="43.32509934946864" lon="11.40150399822889"><ele>225.99999999999997</ele><time>2026-04-11T07:16:13Z</time></trkpt><trkpt lat="43.32509816733942" lon="11.401413254643183"><ele>226.0</ele><time>2026-04-11T07:16:17Z</time></trkpt><trkpt lat="43.32509385567245" lon="11.401306485301832"><ele>226.0</ele><time>2026-04-11T07:16:22Z</time></trkpt><trkpt lat="43.32509802150996" lon="11.401220107673987"><ele>226.0</ele><time>2026-04-11T07:16:26Z</time></trkpt><trkpt lat="43.32508561314505" lon="11.401044629142188"><ele>225.99999999999997</ele><time>2026-04-11T07:16:34Z</time></trkpt><trkpt lat="43.325094288360226" lon="11.400955906818012"><ele>226.0</ele><time>2026-04-11T07:16:38Z</time></trkpt><trkpt lat="43.32508997375437" lon="11.40086755736928"><ele>226.83333333333331</ele><time>2026-04-11T07:16:42Z</time></trkpt><trkpt lat="43.3250983284132" lon="11.400779069147273"><ele>227.66666666666666</ele><time>2026-04-11T07:16:46Z</time></trkpt><trkpt lat="43.325100186561016" lon="11.400684362023947"><ele>228.5</ele><time>2026-04-11T07:16:50Z</time></trkpt><trkpt lat="43.3251321594169" lon="11.40050135300012"><ele>229.33333333333331</ele><time>2026-04-11T07:16:58Z</time></trkpt><trkpt lat="43.32514789015846" lon="11.400387643199698"><ele>230.16666666666666</ele><time>2026-04-11T07:17:02Z</time></trkpt><trkpt lat="43.325160809022755" lon="11.400299905417025"><ele>231.0</ele><time>2026-04-11T07:17:05Z</time></trkpt><trkpt lat="43.32516757008164" lon="11.400209835702997"><ele>231.83333333333334</ele><time>2026-04-11T07:17:08Z</time></trkpt><trkpt lat="43.325180804568056" lon="11.400116323279878"><ele>232.66666666666669</ele><time>2026-04-11T07:17:11Z</time></trkpt><trkpt lat="43.325178632240096" lon="11.399924889488034"><ele>233.5</ele><time>2026-04-11T07:17:17Z</time></trkpt><trkpt lat="43.32517393015909" lon="11.399828665389954"><ele>234.33333333333334</ele><time>2026-04-11T07:17:20Z</time></trkpt><trkpt lat="43.32517814393772" lon="11.399731164446237"><ele>235.16666666666669</ele><time>2026-04-11T07:17:23Z</time></trkpt><trkpt lat="43.32517600357616" lon="11.399633630173037"><ele>236.0</ele><time>2026-04-11T07:17:26Z</time></trkpt><trkpt lat="43.32516609678528" lon="11.39953252903552"><ele>236.83333333333334</ele><time>2026-04-11T07:17:29Z</time></trkpt><trkpt lat="43.325157398792086" lon="11.399441415918405"><ele>237.66666666666669</ele><time>2026-04-11T07:17:32Z</time></trkpt><trkpt lat="43.3251369169867" lon="11.399250353480888"><ele>238.5</ele><time>2026-04-11T07:17:38Z</time></trkpt><trkpt lat="43.3251258753397" lon="11.399150011604354"><ele>239.33333333333331</ele><time>2026-04-11T07:17:41Z</time></trkpt><trkpt lat="43.325117278685646" lon="11.399036915372143"><ele>240.16666666666666</ele><time>2026-04-11T07:17:44Z</time></trkpt><trkpt lat="43.32511327668462" lon="11.398929895901885"><ele>241.0</ele><time>2026-04-11T07:17:47Z</time></trkpt><trkpt lat="43.32510829599737" lon="11.398823736483294"><ele>242.20000000000002</ele><time>2026-04-11T07:17:49Z</time></trkpt><trkpt lat="43.325107447591954" lon="11.398719108661844"><ele>243.40000000000003</ele><time>2026-04-11T07:17:51Z</time></trkpt><trkpt lat="43.32510509989421" lon="11.398626648999581"><ele>244.6</ele><time>2026-04-11T07:17:53Z</time></trkpt><trkpt lat="43.325089961244075" lon="11.398363752416904"><ele>245.8</ele><time>2026-04-11T07:17:59Z</time></trkpt><trkpt lat="43.32508668312518" lon="11.39827433460162"><ele>247.0</ele><time>2026-04-11T07:18:01Z</time></trkpt><trkpt lat="43.32508733689596" lon="11.3981764847874"><ele>246.99999999999997</ele><time>2026-04-11T07:18:03Z</time></trkpt><trkpt lat="43.32509001631775" lon="11.398074171251599"><ele>247.0</ele><time>2026-04-11T07:18:05Z</time></trkpt><trkpt lat="43.3250941606135" lon="11.397969414880789"><ele>247.0</ele><time>2026-04-11T07:18:07Z</time></trkpt><trkpt lat="43.32511207629199" lon="11.397823498320607"><ele>247.0</ele><time>2026-04-11T07:18:09Z</time></trkpt><trkpt lat="43.325136438543225" lon="11.397726542907117"><ele>246.99999999999997</ele><time>2026-04-11T07:18:11Z</time></trkpt><trkpt lat="43.32515902192877" lon="11.397641822488936"><ele>247.0</ele><time>2026-04-11T07:18:13Z</time></trkpt><trkpt lat="43.32519600579101" lon="11.397548275018284"><ele>246.99999999999997</ele><time>2026-04-11T07:18:17Z</time></trkpt><trkpt lat="43.325248612340616" lon="11.397392508093112"><ele>247.0</ele><time>2026-04-11T07:18:21Z</time></trkpt><trkpt lat="43.325272393095446" lon="11.397308038832236"><ele>247.0</ele><time>2026-04-11T07:18:23Z</time></trkpt><trkpt lat="43.3253119522455" lon="11.397222197722886"><ele>247.0</ele><time>2026-04-11T07:18:25Z</time></trkpt><trkpt lat="43.325338390527314" lon="11.397124640643144"><ele>246.99999999999997</ele><time>2026-04-11T07:18:27Z</time></trkpt><trkpt lat="43.32537248604521" lon="11.397000408407179"><ele>247.0</ele><time>2026-04-11T07:18:30Z</time></trkpt><trkpt lat="43.32539206789331" lon="11.396909233763324"><ele>246.99999999999997</ele><time>2026-04-11T07:18:32Z</time></trkpt><trkpt lat="43.32541750555894" lon="11.396814904726899"><ele>247.0</ele><time>2026-04-11T07:18:33Z</time></trkpt><trkpt lat="43.32546787658264" lon="11.396692513699431"><ele>247.0</ele><time>2026-04-11T07:18:34Z</time></trkpt><trkpt lat="43.32550644486422" lon="11.396595410735328"><ele>247.0</ele><time>2026-04-11T07:18:35Z</time></trkpt><trkpt lat="43.32556062420193" lon="11.396440360793227"><ele>246.99999999999997</ele><time>2026-04-11T07:18:37Z</time></trkpt><trkpt lat="43.325580368829115" lon="11.39635279146656"><ele>247.0</ele><time>2026-04-11T07:18:38Z</time></trkpt><trkpt lat="43.325634445656576" lon="11.396187411989944"><ele>247.6</ele><time>2026-04-11T07:18:40Z</time></trkpt><trkpt lat="43.32565803233564" lon="11.39610239015519"><ele>248.2</ele><time>2026-04-11T07:18:41Z</time></trkpt><trkpt lat="43.32567630347831" lon="11.396014031611534"><ele>248.8</ele><time>2026-04-11T07:18:42Z</time></trkpt><trkpt lat="43.32570281052652" lon="11.395853917756405"><ele>249.4</ele><time>2026-04-11T07:18:44Z</time></trkpt><trkpt lat="43.32571076468044" lon="11.395701816586284"><ele>250.0</ele><time>2026-04-11T07:18:46Z</time></trkpt><trkpt lat="43.325705254978935" lon="11.395551881711878"><ele>250.4</ele><time>2026-04-11T07:18:48Z</time></trkpt><trkpt lat="43.32570745306635" lon="11.395409078809895"><ele>250.8</ele><time>2026-04-11T07:18:50Z</time></trkpt><trkpt lat="43.32571113476468" lon="11.395252335056627"><ele>251.2</ele><time>2026-04-11T07:18:52Z</time></trkpt><trkpt lat="43.32570991160365" lon="11.395098573930298"><ele>251.6</ele><time>2026-04-11T07:18:54Z</time></trkpt><trkpt lat="43.32570845481608" lon="11.394964219947889"><ele>252.0</ele><time>2026-04-11T07:18:56Z</time></trkpt><trkpt lat="43.32570886332254" lon="11.394819491185546"><ele>252.0</ele><time>2026-04-11T07:18:58Z</time></trkpt><trkpt lat="43.325694991414615" lon="11.394678749953265"><ele>252.0</ele><time>2026-04-11T07:19:00Z</time></trkpt><trkpt lat="43.32565385210746" lon="11.39439465524014"><ele>252.0</ele><time>2026-04-11T07:19:04Z</time></trkpt><trkpt lat="43.32561632251614" lon="11.394257698675448"><ele>252.0</ele><time>2026-04-11T07:19:06Z</time></trkpt><trkpt lat="43.325576401331" lon="11.394125397355335"><ele>252.6</ele><time>2026-04-11T07:19:08Z</time></trkpt><trkpt lat="43.32553884647618" lon="11.393987403450444"><ele>253.2</ele><time>2026-04-11T07:19:10Z</time></trkpt><trkpt lat="43.325493485563285" lon="11.393857174546676"><ele>253.8</ele><time>2026-04-11T07:19:12Z</time></trkpt><trkpt lat="43.325458454680096" lon="11.393720740626256"><ele>254.4</ele><time>2026-04-11T07:19:14Z</time></trkpt><trkpt lat="43.32541774956603" lon="11.393586015541828"><ele>255.0</ele><time>2026-04-11T07:19:16Z</time></trkpt><trkpt lat="43.325377719517846" lon="11.393456776506593"><ele>256.25</ele><time>2026-04-11T07:19:18Z</time></trkpt><trkpt lat="43.325335058307" lon="11.393332806272875"><ele>257.5</ele><time>2026-04-11T07:19:20Z</time></trkpt><trkpt lat="43.32529906775966" lon="11.393197153152748"><ele>258.75</ele><time>2026-04-11T07:19:22Z</time></trkpt><trkpt lat="43.325213941310885" lon="11.392955274359664"><ele>260.0</ele><time>2026-04-11T07:19:26Z</time></trkpt><trkpt lat="43.3251793415457" lon="11.392837248575058"><ele>260.6666666666667</ele><time>2026-04-11T07:19:28Z</time></trkpt><trkpt lat="43.3251344025879" lon="11.3927231517842"><ele>261.33333333333337</ele><time>2026-04-11T07:19:30Z</time></trkpt><trkpt lat="43.32509275401644" lon="11.392616482675479"><ele>262.0</ele><time>2026-04-11T07:19:32Z</time></trkpt><trkpt lat="43.3250337297399" lon="11.392531040610079"><ele>262.6666666666667</ele><time>2026-04-11T07:19:34Z</time></trkpt><trkpt lat="43.32495374503623" lon="11.392499443425413"><ele>263.3333333333333</ele><time>2026-04-11T07:19:36Z</time></trkpt><trkpt lat="43.324873174239194" lon="11.392492115633623"><ele>264.0</ele><time>2026-04-11T07:19:38Z</time></trkpt><trkpt lat="43.324792036254124" lon="11.392511706479548"><ele>264.2</ele><time>2026-04-11T07:19:40Z</time></trkpt><trkpt lat="43.32471026711713" lon="11.392529098564298"><ele>264.4</ele><time>2026-04-11T07:19:42Z</time></trkpt><trkpt lat="43.324635071113256" lon="11.392536746117212"><ele>264.6</ele><time>2026-04-11T07:19:44Z</time></trkpt><trkpt lat="43.32448181601923" lon="11.392521677156195"><ele>264.8</ele><time>2026-04-11T07:19:48Z</time></trkpt><trkpt lat="43.32439937795288" lon="11.392502479493322"><ele>265.0</ele><time>2026-04-11T07:19:50Z</time></trkpt><trkpt lat="43.32431528222335" lon="11.392458362127169"><ele>265.0</ele><time>2026-04-11T07:19:52Z</time></trkpt><trkpt lat="43.32418608726111" lon="11.392391844426735"><ele>265.0</ele><time>2026-04-11T07:19:56Z</time></trkpt><trkpt lat="43.324101898140654" lon="11.39236385993887"><ele>265.0</ele><time>2026-04-11T07:19:57Z</time></trkpt><trkpt lat="43.32401974899681" lon="11.392355711220796"><ele>265.0</ele><time>2026-04-11T07:19:58Z</time></trkpt><trkpt lat="43.32395559449062" lon="11.392340714834248"><ele>265.0</ele><time>2026-04-11T07:19:59Z</time></trkpt><trkpt lat="43.323881777184106" lon="11.392315609717695"><ele>265.0</ele><time>2026-04-11T07:20:00Z</time></trkpt><trkpt lat="43.32381067968035" lon="11.39229101072007"><ele>264.8</ele><time>2026-04-11T07:20:01Z</time></trkpt><trkpt lat="43.323737456168054" lon="11.392270528337507"><ele>264.6</ele><time>2026-04-11T07:20:02Z</time></trkpt><trkpt lat="43.32366062843431" lon="11.392247096349465"><ele>264.4</ele><time>2026-04-11T07:20:03Z</time></trkpt><trkpt lat="43.32357638369899" lon="11.392229590996878"><ele>264.2</ele><time>2026-04-11T07:20:04Z</time></trkpt><trkpt lat="43.323500327449864" lon="11.392214915965054"><ele>264.0</ele><time>2026-04-11T07:20:05Z</time></trkpt><trkpt lat="43.32334371617114" lon="11.39217038940091"><ele>262.8333333333333</ele><time>2026-04-11T07:20:07Z</time></trkpt><trkpt lat="43.32326347108219" lon="11.392152386132024"><ele>261.6666666666667</ele><time>2026-04-11T07:20:08Z</time></trkpt><trkpt lat="43.3231848409423" lon="11.392132440036962"><ele>260.5</ele><time>2026-04-11T07:20:09Z</time></trkpt><trkpt lat="43.32310235168399" lon="11.392108661638"><ele>259.33333333333337</ele><time>2026-04-11T07:20:10Z</time></trkpt><trkpt lat="43.323015578945125" lon="11.392090134914195"><ele>258.1666666666667</ele><time>2026-04-11T07:20:11Z</time></trkpt><trkpt lat="43.32293538087993" lon="11.392067781220973"><ele>257.0</ele><time>2026-04-11T07:20:12Z</time></trkpt><trkpt lat="43.32285417185346" lon="11.392051576501872"><ele>257.0</ele><time>2026-04-11T07:20:13Z</time></trkpt><trkpt lat="43.32277419579714" lon="11.392028538770573"><ele>257.0</ele><time>2026-04-11T07:20:14Z</time></trkpt><trkpt lat="43.32269194364043" lon="11.392002705383145"><ele>257.0</ele><time>2026-04-11T07:20:15Z</time></trkpt><trkpt lat="43.32261077465298" lon="11.391984046511611"><ele>257.0</ele><time>2026-04-11T07:20:16Z</time></trkpt><trkpt lat="43.32252271760804" lon="11.391960507030392"><ele>257.0</ele><time>2026-04-11T07:20:17Z</time></trkpt><trkpt lat="43.32243374039839" lon="11.391938625708656"><ele>257.0</ele><time>2026-04-11T07:20:18Z</time></trkpt><trkpt lat="43.32233664371969" lon="11.391912133266503"><ele>257.0</ele><time>2026-04-11T07:20:19Z</time></trkpt><trkpt lat="43.32225030446589" lon="11.391894255637077"><ele>257.0</ele><time>2026-04-11T07:20:20Z</time></trkpt><trkpt lat="43.32217398433132" lon="11.391864003026887"><ele>257.0</ele><time>2026-04-11T07:20:21Z</time></trkpt><trkpt lat="43.32207815897766" lon="11.391826871877198"><ele>257.0</ele><time>2026-04-11T07:20:22Z</time></trkpt><trkpt lat="43.321983236799085" lon="11.391807686231692"><ele>257.0</ele><time>2026-04-11T07:20:23Z</time></trkpt><trkpt lat="43.32187696779892" lon="11.39177322320036"><ele>256.0</ele><time>2026-04-11T07:20:24Z</time></trkpt><trkpt lat="43.32177637106729" lon="11.39173679673773"><ele>255.0</ele><time>2026-04-11T07:20:25Z</time></trkpt><trkpt lat="43.321672764635906" lon="11.391695697283707"><ele>254.0</ele><time>2026-04-11T07:20:26Z</time></trkpt><trkpt lat="43.321467687225606" lon="11.391595806788164"><ele>253.0</ele><time>2026-04-11T07:20:28Z</time></trkpt><trkpt lat="43.32137585816261" lon="11.391539226097894"><ele>252.2</ele><time>2026-04-11T07:20:29Z</time></trkpt><trkpt lat="43.321284757053775" lon="11.39147477459151"><ele>251.4</ele><time>2026-04-11T07:20:30Z</time></trkpt><trkpt lat="43.32119313364784" lon="11.391409403221779"><ele>250.59999999999997</ele><time>2026-04-11T07:20:31Z</time></trkpt><trkpt lat="43.32110561701823" lon="11.39134340485607"><ele>249.79999999999998</ele><time>2026-04-11T07:20:32Z</time></trkpt><trkpt lat="43.321019731320895" lon="11.39128014037515"><ele>249.0</ele><time>2026-04-11T07:20:33Z</time></trkpt><trkpt lat="43.32093221274475" lon="11.391220219405923"><ele>249.0</ele><time>2026-04-11T07:20:34Z</time></trkpt><trkpt lat="43.320847122700904" lon="11.391156454479725"><ele>248.99999999999997</ele><time>2026-04-11T07:20:35Z</time></trkpt><trkpt lat="43.32076319363199" lon="11.391098448274924"><ele>248.99999999999997</ele><time>2026-04-11T07:20:36Z</time></trkpt><trkpt lat="43.32068093088441" lon="11.391045481359559"><ele>249.0</ele><time>2026-04-11T07:20:37Z</time></trkpt><trkpt lat="43.32060006555494" lon="11.39100122071833"><ele>249.0</ele><time>2026-04-11T07:20:38Z</time></trkpt><trkpt lat="43.32052146388572" lon="11.390966605636342"><ele>249.0</ele><time>2026-04-11T07:20:39Z</time></trkpt><trkpt lat="43.32043697261719" lon="11.390936731655836"><ele>249.0</ele><time>2026-04-11T07:20:40Z</time></trkpt><trkpt lat="43.320358064251444" lon="11.390923806354046"><ele>249.0</ele><time>2026-04-11T07:20:41Z</time></trkpt><trkpt lat="43.3202810443559" lon="11.390915086990848"><ele>249.0</ele><time>2026-04-11T07:20:42Z</time></trkpt><trkpt lat="43.32020923641677" lon="11.39089552735531"><ele>249.0</ele><time>2026-04-11T07:20:43Z</time></trkpt><trkpt lat="43.32014209983787" lon="11.390840329728931"><ele>249.0</ele><time>2026-04-11T07:20:44Z</time></trkpt><trkpt lat="43.32009247027957" lon="11.390751498536035"><ele>249.0</ele><time>2026-04-11T07:20:45Z</time></trkpt><trkpt lat="43.320067699953114" lon="11.390634449042674"><ele>249.0</ele><time>2026-04-11T07:20:46Z</time></trkpt><trkpt lat="43.32006169133172" lon="11.39050790151002"><ele>249.0</ele><time>2026-04-11T07:20:47Z</time></trkpt><trkpt lat="43.3200407705869" lon="11.390259241716958"><ele>249.0</ele><time>2026-04-11T07:20:49Z</time></trkpt><trkpt lat="43.32002547025023" lon="11.39013486345952"><ele>248.6</ele><time>2026-04-11T07:20:50Z</time></trkpt><trkpt lat="43.320003226180695" lon="11.39001054569872"><ele>248.2</ele><time>2026-04-11T07:20:51Z</time></trkpt><trkpt lat="43.31997586900129" lon="11.389883672624693"><ele>247.79999999999998</ele><time>2026-04-11T07:20:52Z</time></trkpt><trkpt lat="43.31994775177082" lon="11.389759187373725"><ele>247.39999999999998</ele><time>2026-04-11T07:20:53Z</time></trkpt><trkpt lat="43.31991435411919" lon="11.389634021131304"><ele>247.0</ele><time>2026-04-11T07:20:54Z</time></trkpt><trkpt lat="43.319873218870846" lon="11.389512710113252"><ele>246.2</ele><time>2026-04-11T07:20:55Z</time></trkpt><trkpt lat="43.31983414895295" lon="11.389383717602001"><ele>245.39999999999998</ele><time>2026-04-11T07:20:56Z</time></trkpt><trkpt lat="43.31979331408288" lon="11.38925384606258"><ele>244.60000000000002</ele><time>2026-04-11T07:20:57Z</time></trkpt><trkpt lat="43.319751110869426" lon="11.389125145230746"><ele>243.8</ele><time>2026-04-11T07:20:58Z</time></trkpt><trkpt lat="43.31971484338902" lon="11.388987841091508"><ele>243.0</ele><time>2026-04-11T07:20:59Z</time></trkpt><trkpt lat="43.31968645721566" lon="11.388842594008343"><ele>239.5</ele><time>2026-04-11T07:21:00Z</time></trkpt><trkpt lat="43.31966498175087" lon="11.388694829632858"><ele>236.0</ele><time>2026-04-11T07:21:01Z</time></trkpt><trkpt lat="43.319639336800094" lon="11.38854294578503"><ele>232.5</ele><time>2026-04-11T07:21:02Z</time></trkpt><trkpt lat="43.319601687200205" lon="11.388390629964864"><ele>229.0</ele><time>2026-04-11T07:21:03Z</time></trkpt><trkpt lat="43.31956699065736" lon="11.388235030272975"><ele>229.0</ele><time>2026-04-11T07:21:04Z</time></trkpt><trkpt lat="43.31953737224098" lon="11.388075935447118"><ele>229.0</ele><time>2026-04-11T07:21:05Z</time></trkpt><trkpt lat="43.31950953608465" lon="11.387918072321147"><ele>229.0</ele><time>2026-04-11T07:21:06Z</time></trkpt><trkpt lat="43.31948339132385" lon="11.387755944649944"><ele>229.0</ele><time>2026-04-11T07:21:07Z</time></trkpt><trkpt lat="43.31945024889214" lon="11.387611609482608"><ele>229.0</ele><time>2026-04-11T07:21:08Z</time></trkpt><trkpt lat="43.319289373134716" lon="11.387405031404013"><ele>229.0</ele><time>2026-04-11T07:21:10Z</time></trkpt><trkpt lat="43.319181782498084" lon="11.387338703227487"><ele>229.0</ele><time>2026-04-11T07:21:11Z</time></trkpt><trkpt lat="43.319088328108755" lon="11.387292098580266"><ele>229.0</ele><time>2026-04-11T07:21:12Z</time></trkpt><trkpt lat="43.319026118814534" lon="11.38721176155635"><ele>228.6</ele><time>2026-04-11T07:21:13Z</time></trkpt><trkpt lat="43.31899929188522" lon="11.38710360028623"><ele>228.2</ele><time>2026-04-11T07:21:14Z</time></trkpt><trkpt lat="43.31901089356876" lon="11.386971395841893"><ele>227.79999999999998</ele><time>2026-04-11T07:21:15Z</time></trkpt><trkpt lat="43.31905475252654" lon="11.386849951655924"><ele>227.39999999999998</ele><time>2026-04-11T07:21:16Z</time></trkpt><trkpt lat="43.31910396396778" lon="11.38673683182722"><ele>227.0</ele><time>2026-04-11T07:21:17Z</time></trkpt><trkpt lat="43.319151953482184" lon="11.38662706914232"><ele>227.0</ele><time>2026-04-11T07:21:18Z</time></trkpt><trkpt lat="43.31921668977507" lon="11.386527687275818"><ele>227.0</ele><time>2026-04-11T07:21:19Z</time></trkpt><trkpt lat="43.31930017627484" lon="11.386448182344692"><ele>227.0</ele><time>2026-04-11T07:21:20Z</time></trkpt><trkpt lat="43.31938985366619" lon="11.386383838432083"><ele>227.0</ele><time>2026-04-11T07:21:21Z</time></trkpt><trkpt lat="43.31949120237632" lon="11.386340667768938"><ele>227.0</ele><time>2026-04-11T07:21:22Z</time></trkpt><trkpt lat="43.31958294469872" lon="11.386280638313012"><ele>226.2</ele><time>2026-04-11T07:21:23Z</time></trkpt><trkpt lat="43.31968114679323" lon="11.386221776897488"><ele>225.39999999999998</ele><time>2026-04-11T07:21:24Z</time></trkpt><trkpt lat="43.31977962007659" lon="11.386163285176298"><ele>224.60000000000002</ele><time>2026-04-11T07:21:25Z</time></trkpt><trkpt lat="43.319880463850865" lon="11.386107602362786"><ele>223.8</ele><time>2026-04-11T07:21:26Z</time></trkpt><trkpt lat="43.3199735861564" lon="11.386042421648023"><ele>223.0</ele><time>2026-04-11T07:21:27Z</time></trkpt><trkpt lat="43.32005040493985" lon="11.385953085644042"><ele>222.75</ele><time>2026-04-11T07:21:28Z</time></trkpt><trkpt lat="43.32010498049718" lon="11.3858367336967"><ele>222.5</ele><time>2026-04-11T07:21:29Z</time></trkpt><trkpt lat="43.320147720454635" lon="11.385559621808417"><ele>222.25</ele><time>2026-04-11T07:21:31Z</time></trkpt><trkpt lat="43.32013020561019" lon="11.385411593789671"><ele>222.0</ele><time>2026-04-11T07:21:32Z</time></trkpt><trkpt lat="43.320119730163505" lon="11.385260159177628"><ele>221.0</ele><time>2026-04-11T07:21:33Z</time></trkpt><trkpt lat="43.32013460260422" lon="11.385111924950847"><ele>220.0</ele><time>2026-04-11T07:21:34Z</time></trkpt><trkpt lat="43.320167519799746" lon="11.384963561864982"><ele>219.0</ele><time>2026-04-11T07:21:35Z</time></trkpt><trkpt lat="43.3202248787758" lon="11.38482964267887"><ele>218.0</ele><time>2026-04-11T07:21:36Z</time></trkpt><trkpt lat="43.3202957702368" lon="11.384709557973064"><ele>217.0</ele><time>2026-04-11T07:21:37Z</time></trkpt><trkpt lat="43.32038441813674" lon="11.384587814123364"><ele>216.0</ele><time>2026-04-11T07:21:38Z</time></trkpt><trkpt lat="43.32048229789992" lon="11.384464817429878"><ele>215.0</ele><time>2026-04-11T07:21:39Z</time></trkpt><trkpt lat="43.320584437746554" lon="11.384363622556483"><ele>214.0</ele><time>2026-04-11T07:21:40Z</time></trkpt><trkpt lat="43.3206795259861" lon="11.38426411717147"><ele>213.0</ele><time>2026-04-11T07:21:41Z</time></trkpt><trkpt lat="43.32075358263642" lon="11.384157877532296"><ele>212.4</ele><time>2026-04-11T07:21:42Z</time></trkpt><trkpt lat="43.320801844223794" lon="11.384039669768134"><ele>211.8</ele><time>2026-04-11T07:21:43Z</time></trkpt><trkpt lat="43.32082760381125" lon="11.383901371518387"><ele>211.2</ele><time>2026-04-11T07:21:44Z</time></trkpt><trkpt lat="43.320782949158286" lon="11.383741874446564"><ele>210.6</ele><time>2026-04-11T07:21:45Z</time></trkpt><trkpt lat="43.32074140636939" lon="11.383607472492926"><ele>210.0</ele><time>2026-04-11T07:21:46Z</time></trkpt><trkpt lat="43.32069381911684" lon="11.383465733263101"><ele>208.0</ele><time>2026-04-11T07:21:47Z</time></trkpt><trkpt lat="43.32065147743427" lon="11.383321998408958"><ele>206.0</ele><time>2026-04-11T07:21:48Z</time></trkpt><trkpt lat="43.320619673462424" lon="11.383174041575371"><ele>204.0</ele><time>2026-04-11T07:21:49Z</time></trkpt><trkpt lat="43.320607962740134" lon="11.383011234395381"><ele>202.0</ele><time>2026-04-11T07:21:50Z</time></trkpt><trkpt lat="43.320588134865986" lon="11.382685136068101"><ele>201.25</ele><time>2026-04-11T07:21:52Z</time></trkpt><trkpt lat="43.320565687995135" lon="11.382523690204852"><ele>200.5</ele><time>2026-04-11T07:21:53Z</time></trkpt><trkpt lat="43.32053516723952" lon="11.382363573269222"><ele>199.75</ele><time>2026-04-11T07:21:54Z</time></trkpt><trkpt lat="43.32051157695119" lon="11.382203615356033"><ele>199.0</ele><time>2026-04-11T07:21:55Z</time></trkpt><trkpt lat="43.32048688200589" lon="11.382044666997148"><ele>198.75</ele><time>2026-04-11T07:21:56Z</time></trkpt><trkpt lat="43.32046549368786" lon="11.381888038137253"><ele>198.5</ele><time>2026-04-11T07:21:57Z</time></trkpt><trkpt lat="43.32044232007781" lon="11.381735889019927"><ele>198.25</ele><time>2026-04-11T07:21:58Z</time></trkpt><trkpt lat="43.32041400173373" lon="11.381580090755985"><ele>198.0</ele><time>2026-04-11T07:21:59Z</time></trkpt><trkpt lat="43.32038366386662" lon="11.381429383426317"><ele>197.8</ele><time>2026-04-11T07:22:00Z</time></trkpt><trkpt lat="43.32035898225858" lon="11.381280367570685"><ele>197.60000000000002</ele><time>2026-04-11T07:22:01Z</time></trkpt><trkpt lat="43.32034149723937" lon="11.381130014029413"><ele>197.39999999999998</ele><time>2026-04-11T07:22:02Z</time></trkpt><trkpt lat="43.32032841841174" lon="11.380981747831797"><ele>197.2</ele><time>2026-04-11T07:22:03Z</time></trkpt><trkpt lat="43.320322038374904" lon="11.380833920466465"><ele>197.0</ele><time>2026-04-11T07:22:04Z</time></trkpt><trkpt lat="43.320326951869255" lon="11.380690336382"><ele>197.0</ele><time>2026-04-11T07:22:05Z</time></trkpt><trkpt lat="43.32035650163246" lon="11.380549911945948"><ele>197.0</ele><time>2026-04-11T07:22:06Z</time></trkpt><trkpt lat="43.32038779979338" lon="11.380418371812343"><ele>197.0</ele><time>2026-04-11T07:22:07Z</time></trkpt><trkpt lat="43.320406499771046" lon="11.380290788073287"><ele>197.0</ele><time>2026-04-11T07:22:08Z</time></trkpt><trkpt lat="43.32041909567039" lon="11.380165913794345"><ele>197.0</ele><time>2026-04-11T07:22:09Z</time></trkpt><trkpt lat="43.32042842853227" lon="11.380040748921688"><ele>197.0</ele><time>2026-04-11T07:22:10Z</time></trkpt><trkpt lat="43.32044005033969" lon="11.379924376160409"><ele>197.0</ele><time>2026-04-11T07:22:11Z</time></trkpt><trkpt lat="43.32045938740675" lon="11.37970807588979"><ele>197.0</ele><time>2026-04-11T07:22:13Z</time></trkpt><trkpt lat="43.32047190283146" lon="11.379603343491521"><ele>197.0</ele><time>2026-04-11T07:22:14Z</time></trkpt><trkpt lat="43.32048177499454" lon="11.379490776262179"><ele>197.0</ele><time>2026-04-11T07:22:15Z</time></trkpt><trkpt lat="43.320498407142566" lon="11.379381712031316"><ele>197.50000000000003</ele><time>2026-04-11T07:22:16Z</time></trkpt><trkpt lat="43.32051478151917" lon="11.379277670206871"><ele>198.0</ele><time>2026-04-11T07:22:17Z</time></trkpt><trkpt lat="43.32053347936511" lon="11.379163146761242"><ele>198.5</ele><time>2026-04-11T07:22:18Z</time></trkpt><trkpt lat="43.32055102893533" lon="11.379052195610576"><ele>199.0</ele><time>2026-04-11T07:22:19Z</time></trkpt><trkpt lat="43.32056358859169" lon="11.378931119259645"><ele>199.50000000000003</ele><time>2026-04-11T07:22:20Z</time></trkpt><trkpt lat="43.32057671084882" lon="11.37882983298338"><ele>200.0</ele><time>2026-04-11T07:22:21Z</time></trkpt><trkpt lat="43.32058804739853" lon="11.378728748078485"><ele>201.00000000000003</ele><time>2026-04-11T07:22:22Z</time></trkpt><trkpt lat="43.32059183313535" lon="11.378619347029186"><ele>202.0</ele><time>2026-04-11T07:22:23Z</time></trkpt><trkpt lat="43.32059836676313" lon="11.37850827510224"><ele>203.0</ele><time>2026-04-11T07:22:24Z</time></trkpt><trkpt lat="43.32059643029709" lon="11.378396581577771"><ele>204.0</ele><time>2026-04-11T07:22:25Z</time></trkpt><trkpt lat="43.32059149495058" lon="11.378285722334173"><ele>205.00000000000003</ele><time>2026-04-11T07:22:26Z</time></trkpt><trkpt lat="43.32058198877302" lon="11.378176177349811"><ele>206.0</ele><time>2026-04-11T07:22:27Z</time></trkpt><trkpt lat="43.32057078512757" lon="11.378067355020141"><ele>207.60000000000002</ele><time>2026-04-11T07:22:28Z</time></trkpt><trkpt lat="43.32055867279096" lon="11.377960952800736"><ele>209.2</ele><time>2026-04-11T07:22:29Z</time></trkpt><trkpt lat="43.320548548904775" lon="11.37785472077408"><ele>210.79999999999998</ele><time>2026-04-11T07:22:30Z</time></trkpt><trkpt lat="43.320535609148145" lon="11.377748020740185"><ele>212.39999999999998</ele><time>2026-04-11T07:22:31Z</time></trkpt><trkpt lat="43.32052539433747" lon="11.37764093797305"><ele>214.0</ele><time>2026-04-11T07:22:32Z</time></trkpt><trkpt lat="43.320504116049214" lon="11.377426757348942"><ele>214.00000000000003</ele><time>2026-04-11T07:22:34Z</time></trkpt><trkpt lat="43.32049545924228" lon="11.377335319414062"><ele>214.0</ele><time>2026-04-11T07:22:35Z</time></trkpt><trkpt lat="43.32048069343717" lon="11.377240187703709"><ele>214.0</ele><time>2026-04-11T07:22:36Z</time></trkpt><trkpt lat="43.32046683788912" lon="11.377137732405364"><ele>214.0</ele><time>2026-04-11T07:22:37Z</time></trkpt><trkpt lat="43.32045944525744" lon="11.3770361001315"><ele>214.0</ele><time>2026-04-11T07:22:38Z</time></trkpt><trkpt lat="43.320447706379355" lon="11.376932345351356"><ele>214.00000000000003</ele><time>2026-04-11T07:22:39Z</time></trkpt><trkpt lat="43.32044514258215" lon="11.376833683593048"><ele>214.0</ele><time>2026-04-11T07:22:40Z</time></trkpt><trkpt lat="43.320444693449396" lon="11.376740371940429"><ele>215.16666666666666</ele><time>2026-04-11T07:22:41Z</time></trkpt><trkpt lat="43.320444348521214" lon="11.376645288641901"><ele>216.33333333333331</ele><time>2026-04-11T07:22:42Z</time></trkpt><trkpt lat="43.32044101552374" lon="11.376551538379385"><ele>217.5</ele><time>2026-04-11T07:22:43Z</time></trkpt><trkpt lat="43.320456185320715" lon="11.376457803152666"><ele>218.66666666666669</ele><time>2026-04-11T07:22:44Z</time></trkpt><trkpt lat="43.32046648419951" lon="11.376369931712093"><ele>219.83333333333334</ele><time>2026-04-11T07:22:45Z</time></trkpt><trkpt lat="43.32047969599791" lon="11.376280947818563"><ele>221.0</ele><time>2026-04-11T07:22:46Z</time></trkpt><trkpt lat="43.32049932907334" lon="11.376125033879891"><ele>221.0</ele><time>2026-04-11T07:22:48Z</time></trkpt><trkpt lat="43.320516619272155" lon="11.375989962573763"><ele>221.00000000000003</ele><time>2026-04-11T07:22:50Z</time></trkpt><trkpt lat="43.32050882254578" lon="11.375878543993911"><ele>221.00000000000003</ele><time>2026-04-11T07:22:52Z</time></trkpt><trkpt lat="43.32053183474911" lon="11.375775991241168"><ele>221.0</ele><time>2026-04-11T07:22:55Z</time></trkpt><trkpt lat="43.3204948582335" lon="11.375582943096104"><ele>221.0</ele><time>2026-04-11T07:23:00Z</time></trkpt><trkpt lat="43.320495378024354" lon="11.375472363631875"><ele>220.60000000000002</ele><time>2026-04-11T07:23:03Z</time></trkpt><trkpt lat="43.32046501734458" lon="11.375368020564595"><ele>220.20000000000002</ele><time>2026-04-11T07:23:06Z</time></trkpt><trkpt lat="43.32039350690424" lon="11.375285707369073"><ele>219.79999999999998</ele><time>2026-04-11T07:23:09Z</time></trkpt><trkpt lat="43.32032319381293" lon="11.375207459833637"><ele>219.39999999999998</ele><time>2026-04-11T07:23:14Z</time></trkpt><trkpt lat="43.320268959430976" lon="11.375107528652583"><ele>219.0</ele><time>2026-04-11T07:23:17Z</time></trkpt><trkpt lat="43.32023240013117" lon="11.37492291498353"><ele>219.0</ele><time>2026-04-11T07:23:24Z</time></trkpt><trkpt lat="43.320248233394274" lon="11.374813667601881"><ele>218.99999999999997</ele><time>2026-04-11T07:23:28Z</time></trkpt><trkpt lat="43.3202696029553" lon="11.374703977494125"><ele>218.99999999999997</ele><time>2026-04-11T07:23:33Z</time></trkpt><trkpt lat="43.3202789188397" lon="11.374590904318385"><ele>219.0</ele><time>2026-04-11T07:23:36Z</time></trkpt><trkpt lat="43.32032121046001" lon="11.374495803838554"><ele>219.0</ele><time>2026-04-11T07:23:40Z</time></trkpt><trkpt lat="43.32037380947394" lon="11.374334709934601"><ele>219.33333333333334</ele><time>2026-04-11T07:23:46Z</time></trkpt><trkpt lat="43.320391740968844" lon="11.374249730713203"><ele>219.66666666666669</ele><time>2026-04-11T07:23:49Z</time></trkpt><trkpt lat="43.320398232902576" lon="11.374154639591085"><ele>220.0</ele><time>2026-04-11T07:23:52Z</time></trkpt><trkpt lat="43.320435642747846" lon="11.374078076981665"><ele>220.33333333333334</ele><time>2026-04-11T07:23:55Z</time></trkpt><trkpt lat="43.320457866929274" lon="11.373996015854784"><ele>220.66666666666669</ele><time>2026-04-11T07:23:58Z</time></trkpt><trkpt lat="43.320479734577106" lon="11.37391004182052"><ele>221.0</ele><time>2026-04-11T07:24:01Z</time></trkpt><trkpt lat="43.32054689071738" lon="11.373737314400715"><ele>222.60000000000002</ele><time>2026-04-11T07:24:08Z</time></trkpt><trkpt lat="43.32059415600939" lon="11.373648915105306"><ele>224.20000000000002</ele><time>2026-04-11T07:24:12Z</time></trkpt><trkpt lat="43.32062377962793" lon="11.373570584941557"><ele>225.79999999999998</ele><time>2026-04-11T07:24:15Z</time></trkpt><trkpt lat="43.32065668954839" lon="11.373489895873984"><ele>227.39999999999998</ele><time>2026-04-11T07:24:18Z</time></trkpt><trkpt lat="43.320688997173" lon="11.373394133498275"><ele>229.0</ele><time>2026-04-11T07:24:22Z</time></trkpt><trkpt lat="43.32077735019678" lon="11.373199192516923"><ele>229.0</ele><time>2026-04-11T07:24:31Z</time></trkpt><trkpt lat="43.32082263912104" lon="11.373126515069856"><ele>228.99999999999997</ele><time>2026-04-11T07:24:34Z</time></trkpt><trkpt lat="43.32086219325057" lon="11.373056992618684"><ele>228.99999999999997</ele><time>2026-04-11T07:24:38Z</time></trkpt><trkpt lat="43.32090667267821" lon="11.372955324957916"><ele>229.0</ele><time>2026-04-11T07:24:42Z</time></trkpt><trkpt lat="43.32095717626844" lon="11.372875312848889"><ele>229.0</ele><time>2026-04-11T07:24:46Z</time></trkpt><trkpt lat="43.32101991589678" lon="11.372659179748592"><ele>230.79999999999998</ele><time>2026-04-11T07:24:54Z</time></trkpt><trkpt lat="43.32104761919674" lon="11.372550768672419"><ele>232.59999999999997</ele><time>2026-04-11T07:24:58Z</time></trkpt><trkpt lat="43.32105911455308" lon="11.37246187585344"><ele>234.4</ele><time>2026-04-11T07:25:01Z</time></trkpt><trkpt lat="43.32107443736041" lon="11.372353660452701"><ele>236.2</ele><time>2026-04-11T07:25:04Z</time></trkpt><trkpt lat="43.321086230162656" lon="11.372258961248704"><ele>238.0</ele><time>2026-04-11T07:25:07Z</time></trkpt><trkpt lat="43.3211267990393" lon="11.37204382548041"><ele>239.49999999999997</ele><time>2026-04-11T07:25:13Z</time></trkpt><trkpt lat="43.32114545927158" lon="11.371950743009965"><ele>241.0</ele><time>2026-04-11T07:25:16Z</time></trkpt><trkpt lat="43.32116221887067" lon="11.371855249672128"><ele>242.5</ele><time>2026-04-11T07:25:19Z</time></trkpt><trkpt lat="43.32118098428159" lon="11.371758107556087"><ele>244.0</ele><time>2026-04-11T07:25:22Z</time></trkpt><trkpt lat="43.32118419817902" lon="11.371657902569291"><ele>245.49999999999997</ele><time>2026-04-11T07:25:25Z</time></trkpt><trkpt lat="43.321190937144145" lon="11.37155240276192"><ele>247.0</ele><time>2026-04-11T07:25:28Z</time></trkpt><trkpt lat="43.321209268040356" lon="11.371358315147965"><ele>247.83333333333331</ele><time>2026-04-11T07:25:34Z</time></trkpt><trkpt lat="43.32122039591784" lon="11.371265896247696"><ele>248.66666666666666</ele><time>2026-04-11T07:25:37Z</time></trkpt><trkpt lat="43.32122640512897" lon="11.371160542327923"><ele>249.5</ele><time>2026-04-11T07:25:40Z</time></trkpt><trkpt lat="43.321244428869385" lon="11.371059068108687"><ele>250.33333333333331</ele><time>2026-04-11T07:25:43Z</time></trkpt><trkpt lat="43.321265502725915" lon="11.370956367635033"><ele>251.16666666666666</ele><time>2026-04-11T07:25:46Z</time></trkpt><trkpt lat="43.32129423913256" lon="11.370864752356988"><ele>252.0</ele><time>2026-04-11T07:25:49Z</time></trkpt><trkpt lat="43.3213853478878" lon="11.370652079560042"><ele>252.0</ele><time>2026-04-11T07:25:55Z</time></trkpt><trkpt lat="43.32141522642267" lon="11.370559635845952"><ele>252.0</ele><time>2026-04-11T07:25:58Z</time></trkpt><trkpt lat="43.321446823208234" lon="11.370467882265851"><ele>252.0</ele><time>2026-04-11T07:26:01Z</time></trkpt><trkpt lat="43.3214975217016" lon="11.37037612445306"><ele>252.0</ele><time>2026-04-11T07:26:04Z</time></trkpt><trkpt lat="43.32153267073354" lon="11.370290503084545"><ele>252.0</ele><time>2026-04-11T07:26:08Z</time></trkpt><trkpt lat="43.321570979834064" lon="11.370219252778881"><ele>252.0</ele><time>2026-04-11T07:26:11Z</time></trkpt><trkpt lat="43.321675364496926" lon="11.370049608254622"><ele>252.0</ele><time>2026-04-11T07:26:17Z</time></trkpt><trkpt lat="43.321722394364855" lon="11.369957695180679"><ele>252.0</ele><time>2026-04-11T07:26:20Z</time></trkpt><trkpt lat="43.32176311555628" lon="11.369889389563017"><ele>252.0</ele><time>2026-04-11T07:26:23Z</time></trkpt><trkpt lat="43.32180101147354" lon="11.369793516110386"><ele>252.0</ele><time>2026-04-11T07:26:26Z</time></trkpt><trkpt lat="43.32183385273159" lon="11.369690361302096"><ele>252.0</ele><time>2026-04-11T07:26:29Z</time></trkpt><trkpt lat="43.32188040372131" lon="11.36962657490337"><ele>252.0</ele><time>2026-04-11T07:26:31Z</time></trkpt><trkpt lat="43.32192022342839" lon="11.369549933999206"><ele>252.0</ele><time>2026-04-11T07:26:33Z</time></trkpt><trkpt lat="43.32201014198343" lon="11.36938084627513"><ele>253.5</ele><time>2026-04-11T07:26:38Z</time></trkpt><trkpt lat="43.32202829476975" lon="11.369283885259572"><ele>255.0</ele><time>2026-04-11T07:26:41Z</time></trkpt><trkpt lat="43.32199051585406" lon="11.369206305387216"><ele>256.5</ele><time>2026-04-11T07:26:44Z</time></trkpt><trkpt lat="43.321941850047295" lon="11.369143092156607"><ele>258.0</ele><time>2026-04-11T07:26:47Z</time></trkpt><trkpt lat="43.321862010710824" lon="11.369175024083809"><ele>259.5</ele><time>2026-04-11T07:26:51Z</time></trkpt><trkpt lat="43.321787889112166" lon="11.369236670870439"><ele>261.0</ele><time>2026-04-11T07:26:55Z</time></trkpt><trkpt lat="43.32165109607365" lon="11.369373736765139"><ele>261.0</ele><time>2026-04-11T07:27:01Z</time></trkpt><trkpt lat="43.32156673667758" lon="11.369406936730572"><ele>261.0</ele><time>2026-04-11T07:27:04Z</time></trkpt><trkpt lat="43.32147737776267" lon="11.369410793721919"><ele>261.0</ele><time>2026-04-11T07:27:07Z</time></trkpt><trkpt lat="43.321394812142024" lon="11.369381134371567"><ele>261.0</ele><time>2026-04-11T07:27:10Z</time></trkpt><trkpt lat="43.32133350164694" lon="11.369315056004803"><ele>261.0</ele><time>2026-04-11T07:27:13Z</time></trkpt><trkpt lat="43.32127710892215" lon="11.36923461954204"><ele>261.0</ele><time>2026-04-11T07:27:16Z</time></trkpt><trkpt lat="43.32117026025645" lon="11.369119055368783"><ele>261.3333333333333</ele><time>2026-04-11T07:27:22Z</time></trkpt><trkpt lat="43.32111551331887" lon="11.369059645722364"><ele>261.6666666666667</ele><time>2026-04-11T07:27:25Z</time></trkpt><trkpt lat="43.3210577416841" lon="11.369010599918004"><ele>262.0</ele><time>2026-04-11T07:27:28Z</time></trkpt><trkpt lat="43.32100051253069" lon="11.368938453163812"><ele>262.33333333333337</ele><time>2026-04-11T07:27:31Z</time></trkpt><trkpt lat="43.32097303743222" lon="11.36885928646468"><ele>262.6666666666667</ele><time>2026-04-11T07:27:35Z</time></trkpt><trkpt lat="43.32098195891081" lon="11.368767789633582"><ele>263.0</ele><time>2026-04-11T07:27:38Z</time></trkpt><trkpt lat="43.3210246493619" lon="11.368553907588005"><ele>263.0</ele><time>2026-04-11T07:27:44Z</time></trkpt><trkpt lat="43.32105235279163" lon="11.368401624165067"><ele>263.0</ele><time>2026-04-11T07:27:47Z</time></trkpt><trkpt lat="43.321065851703395" lon="11.368311250708674"><ele>263.0</ele><time>2026-04-11T07:27:49Z</time></trkpt><trkpt lat="43.32107678424344" lon="11.368188378357345"><ele>263.0</ele><time>2026-04-11T07:27:52Z</time></trkpt><trkpt lat="43.321080214488966" lon="11.368094798543677"><ele>263.0</ele><time>2026-04-11T07:27:54Z</time></trkpt><trkpt lat="43.3210856276356" lon="11.368004677563514"><ele>263.0</ele><time>2026-04-11T07:27:56Z</time></trkpt><trkpt lat="43.321090965546" lon="11.36791265368858"><ele>263.8</ele><time>2026-04-11T07:27:58Z</time></trkpt><trkpt lat="43.32109998239511" lon="11.367823356618326"><ele>264.6</ele><time>2026-04-11T07:28:00Z</time></trkpt><trkpt lat="43.321092996220266" lon="11.367620614578225"><ele>265.4</ele><time>2026-04-11T07:28:06Z</time></trkpt><trkpt lat="43.32109722654645" lon="11.367527887795715"><ele>266.2</ele><time>2026-04-11T07:28:08Z</time></trkpt><trkpt lat="43.321108097136616" lon="11.36740003974637"><ele>267.0</ele><time>2026-04-11T07:28:11Z</time></trkpt><trkpt lat="43.32111436610061" lon="11.36728033984879"><ele>268.0</ele><time>2026-04-11T07:28:14Z</time></trkpt><trkpt lat="43.32111213690723" lon="11.367141839098213"><ele>269.0</ele><time>2026-04-11T07:28:16Z</time></trkpt><trkpt lat="43.321111307060576" lon="11.367026509230017"><ele>270.0</ele><time>2026-04-11T07:28:18Z</time></trkpt><trkpt lat="43.321092468563535" lon="11.366893165032417"><ele>271.0</ele><time>2026-04-11T07:28:20.999Z</time></trkpt><trkpt lat="43.32109751663236" lon="11.36666356066199"><ele>271.0</ele><time>2026-04-11T07:28:24.999Z</time></trkpt><trkpt lat="43.32107858754223" lon="11.36655181063085"><ele>271.0</ele><time>2026-04-11T07:28:26.999Z</time></trkpt><trkpt lat="43.321069165583445" lon="11.366444097570902"><ele>271.0</ele><time>2026-04-11T07:28:28.999Z</time></trkpt><trkpt lat="43.32105000080033" lon="11.366327669762365"><ele>271.0</ele><time>2026-04-11T07:28:31Z</time></trkpt><trkpt lat="43.321037481593834" lon="11.36621623992431"><ele>271.0</ele><time>2026-04-11T07:28:33Z</time></trkpt><trkpt lat="43.32102367585037" lon="11.36609697955113"><ele>271.0</ele><time>2026-04-11T07:28:35Z</time></trkpt><trkpt lat="43.32100328378295" lon="11.36594797818974"><ele>271.0</ele><time>2026-04-11T07:28:37Z</time></trkpt><trkpt lat="43.32097068901339" lon="11.365799253762802"><ele>271.0</ele><time>2026-04-11T07:28:39Z</time></trkpt><trkpt lat="43.320919789357376" lon="11.365644494504554"><ele>271.0</ele><time>2026-04-11T07:28:41Z</time></trkpt><trkpt lat="43.320893453277414" lon="11.365563359899856"><ele>271.0</ele><time>2026-04-11T07:28:42Z</time></trkpt><trkpt lat="43.320830596683585" lon="11.365398241746387"><ele>271.0</ele><time>2026-04-11T07:28:44Z</time></trkpt><trkpt lat="43.32080214711965" lon="11.365308970273766"><ele>271.1428571428571</ele><time>2026-04-11T07:28:45Z</time></trkpt><trkpt lat="43.320771695397156" lon="11.365226010061075"><ele>271.2857142857143</ele><time>2026-04-11T07:28:46Z</time></trkpt><trkpt lat="43.32073854273098" lon="11.365137942652153"><ele>271.42857142857144</ele><time>2026-04-11T07:28:47Z</time></trkpt><trkpt lat="43.32070335664349" lon="11.365052466820172"><ele>271.57142857142856</ele><time>2026-04-11T07:28:48Z</time></trkpt><trkpt lat="43.320668646569835" lon="11.364967896458896"><ele>271.7142857142857</ele><time>2026-04-11T07:28:49Z</time></trkpt><trkpt lat="43.32063031820094" lon="11.364886786212146"><ele>271.85714285714283</ele><time>2026-04-11T07:28:50Z</time></trkpt><trkpt lat="43.32059115709138" lon="11.36480963612849"><ele>272.0</ele><time>2026-04-11T07:28:51Z</time></trkpt><trkpt lat="43.32055070561142" lon="11.364734759959424"><ele>272.2857142857143</ele><time>2026-04-11T07:28:52Z</time></trkpt><trkpt lat="43.32051336196326" lon="11.364660305112537"><ele>272.57142857142856</ele><time>2026-04-11T07:28:53Z</time></trkpt><trkpt lat="43.320479633713425" lon="11.364585456414668"><ele>272.8571428571429</ele><time>2026-04-11T07:28:54Z</time></trkpt><trkpt lat="43.32043685113056" lon="11.364521323979304"><ele>273.1428571428571</ele><time>2026-04-11T07:28:55Z</time></trkpt><trkpt lat="43.32036246166521" lon="11.364382102452852"><ele>273.42857142857144</ele><time>2026-04-11T07:28:57Z</time></trkpt><trkpt lat="43.320315204494406" lon="11.364324582838323"><ele>273.7142857142857</ele><time>2026-04-11T07:28:58Z</time></trkpt><trkpt lat="43.32027679433464" lon="11.364255158943148"><ele>274.0</ele><time>2026-04-11T07:28:59Z</time></trkpt><trkpt lat="43.32023435254229" lon="11.364183247206578"><ele>274.0</ele><time>2026-04-11T07:29:00Z</time></trkpt><trkpt lat="43.32018942965868" lon="11.364105897389182"><ele>274.0</ele><time>2026-04-11T07:29:01Z</time></trkpt><trkpt lat="43.320146725852815" lon="11.364026117919078"><ele>274.0</ele><time>2026-04-11T07:29:02Z</time></trkpt><trkpt lat="43.32009843633622" lon="11.363946604750655"><ele>274.0</ele><time>2026-04-11T07:29:03Z</time></trkpt><trkpt lat="43.31999520927228" lon="11.363781988219133"><ele>274.0</ele><time>2026-04-11T07:29:05Z</time></trkpt><trkpt lat="43.31994087799643" lon="11.363695559165702"><ele>274.5</ele><time>2026-04-11T07:29:06Z</time></trkpt><trkpt lat="43.31988354735678" lon="11.363611683284663"><ele>275.0</ele><time>2026-04-11T07:29:07Z</time></trkpt><trkpt lat="43.319826229107115" lon="11.363530227600197"><ele>275.5</ele><time>2026-04-11T07:29:08Z</time></trkpt><trkpt lat="43.319771980687015" lon="11.363449745902733"><ele>276.0</ele><time>2026-04-11T07:29:09Z</time></trkpt><trkpt lat="43.31971118473971" lon="11.363379989904262"><ele>276.5</ele><time>2026-04-11T07:29:10Z</time></trkpt><trkpt lat="43.31965169258165" lon="11.363317319383084"><ele>277.0</ele><time>2026-04-11T07:29:11Z</time></trkpt><trkpt lat="43.319602695553016" lon="11.36324439644497"><ele>277.0</ele><time>2026-04-11T07:29:12Z</time></trkpt><trkpt lat="43.31956107780343" lon="11.363164145554723"><ele>277.0</ele><time>2026-04-11T07:29:13Z</time></trkpt><trkpt lat="43.31952113910213" lon="11.363082575749328"><ele>277.0</ele><time>2026-04-11T07:29:14Z</time></trkpt><trkpt lat="43.31947600436801" lon="11.362995995004601"><ele>277.0</ele><time>2026-04-11T07:29:15Z</time></trkpt><trkpt lat="43.31944346409809" lon="11.362896897649819"><ele>277.0</ele><time>2026-04-11T07:29:16Z</time></trkpt><trkpt lat="43.31942150918847" lon="11.362788752353717"><ele>277.0</ele><time>2026-04-11T07:29:17Z</time></trkpt><trkpt lat="43.31940141521649" lon="11.362679394094501"><ele>275.8333333333333</ele><time>2026-04-11T07:29:18Z</time></trkpt><trkpt lat="43.31936575021749" lon="11.362583841382822"><ele>274.66666666666663</ele><time>2026-04-11T07:29:19Z</time></trkpt><trkpt lat="43.319313774241365" lon="11.362483796637125"><ele>273.5</ele><time>2026-04-11T07:29:20Z</time></trkpt><trkpt lat="43.31924737110305" lon="11.362398753622642"><ele>272.3333333333333</ele><time>2026-04-11T07:29:21Z</time></trkpt><trkpt lat="43.31918171275872" lon="11.36231192989921"><ele>271.1666666666667</ele><time>2026-04-11T07:29:22Z</time></trkpt><trkpt lat="43.31912284851903" lon="11.362213725063988"><ele>270.0</ele><time>2026-04-11T07:29:23Z</time></trkpt><trkpt lat="43.31906998904112" lon="11.362103310913609"><ele>269.0</ele><time>2026-04-11T07:29:24Z</time></trkpt><trkpt lat="43.31892108531432" lon="11.361904310141936"><ele>268.0</ele><time>2026-04-11T07:29:26Z</time></trkpt><trkpt lat="43.31884520585716" lon="11.361802100295048"><ele>267.0</ele><time>2026-04-11T07:29:27Z</time></trkpt><trkpt lat="43.31877576812435" lon="11.361685327991975"><ele>266.0</ele><time>2026-04-11T07:29:28Z</time></trkpt><trkpt lat="43.31871356018291" lon="11.361546185039083"><ele>266.0</ele><time>2026-04-11T07:29:29Z</time></trkpt><trkpt lat="43.318663260067" lon="11.361397533835017"><ele>266.0</ele><time>2026-04-11T07:29:30Z</time></trkpt><trkpt lat="43.31861272102536" lon="11.36125196087536"><ele>266.0</ele><time>2026-04-11T07:29:31Z</time></trkpt><trkpt lat="43.31856293400591" lon="11.361099164473796"><ele>266.0</ele><time>2026-04-11T07:29:32Z</time></trkpt><trkpt lat="43.318518148261184" lon="11.360948060837563"><ele>264.0</ele><time>2026-04-11T07:29:33Z</time></trkpt><trkpt lat="43.318455890132185" lon="11.360803138226139"><ele>262.0</ele><time>2026-04-11T07:29:34Z</time></trkpt><trkpt lat="43.31838319365522" lon="11.360662760368523"><ele>260.0</ele><time>2026-04-11T07:29:35Z</time></trkpt><trkpt lat="43.318314041514455" lon="11.360516234211413"><ele>258.0</ele><time>2026-04-11T07:29:36Z</time></trkpt><trkpt lat="43.31825571566704" lon="11.36036143169785"><ele>256.25</ele><time>2026-04-11T07:29:37Z</time></trkpt><trkpt lat="43.318189903326214" lon="11.360205189920299"><ele>254.5</ele><time>2026-04-11T07:29:38Z</time></trkpt><trkpt lat="43.31810886570537" lon="11.36005853604315"><ele>252.75</ele><time>2026-04-11T07:29:39Z</time></trkpt><trkpt lat="43.31803012130022" lon="11.359914551259825"><ele>251.0</ele><time>2026-04-11T07:29:40Z</time></trkpt><trkpt lat="43.31795297859888" lon="11.359776324863946"><ele>248.5</ele><time>2026-04-11T07:29:41Z</time></trkpt><trkpt lat="43.317878249772036" lon="11.359637306361062"><ele>246.0</ele><time>2026-04-11T07:29:42Z</time></trkpt><trkpt lat="43.31782162063661" lon="11.359488139853948"><ele>243.5</ele><time>2026-04-11T07:29:43Z</time></trkpt><trkpt lat="43.317784947965066" lon="11.359329559296361"><ele>241.0</ele><time>2026-04-11T07:29:44Z</time></trkpt><trkpt lat="43.31776289827081" lon="11.359172163245741"><ele>239.66666666666666</ele><time>2026-04-11T07:29:45Z</time></trkpt><trkpt lat="43.31770167040466" lon="11.358863785717285"><ele>238.33333333333331</ele><time>2026-04-11T07:29:47Z</time></trkpt><trkpt lat="43.31765241808349" lon="11.3587145763589"><ele>237.0</ele><time>2026-04-11T07:29:48Z</time></trkpt><trkpt lat="43.317584981743366" lon="11.358589870889306"><ele>237.0</ele><time>2026-04-11T07:29:49Z</time></trkpt><trkpt lat="43.31750696825989" lon="11.358484456873974"><ele>237.0</ele><time>2026-04-11T07:29:50Z</time></trkpt><trkpt lat="43.31743007040309" lon="11.358394854519574"><ele>237.0</ele><time>2026-04-11T07:29:51Z</time></trkpt><trkpt lat="43.317321186533434" lon="11.358319371974474"><ele>237.0</ele><time>2026-04-11T07:29:52Z</time></trkpt><trkpt lat="43.31720784758398" lon="11.35828502789993"><ele>237.0</ele><time>2026-04-11T07:29:53Z</time></trkpt><trkpt lat="43.31708596077504" lon="11.358288523731932"><ele>235.6</ele><time>2026-04-11T07:29:54Z</time></trkpt><trkpt lat="43.31696177000373" lon="11.358296455255603"><ele>234.2</ele><time>2026-04-11T07:29:55Z</time></trkpt><trkpt lat="43.31684790369322" lon="11.358283222435457"><ele>232.8</ele><time>2026-04-11T07:29:56Z</time></trkpt><trkpt lat="43.31674966820309" lon="11.358243459181484"><ele>231.4</ele><time>2026-04-11T07:29:57Z</time></trkpt><trkpt lat="43.31665200334308" lon="11.358180495820074"><ele>230.0</ele><time>2026-04-11T07:29:58Z</time></trkpt><trkpt lat="43.31656857185296" lon="11.358064685689987"><ele>230.5</ele><time>2026-04-11T07:29:59Z</time></trkpt><trkpt lat="43.316492692995254" lon="11.357930936950009"><ele>231.0</ele><time>2026-04-11T07:30:00Z</time></trkpt><trkpt lat="43.316421573852296" lon="11.357791141337843"><ele>231.5</ele><time>2026-04-11T07:30:01Z</time></trkpt><trkpt lat="43.31634533144943" lon="11.357657884966448"><ele>232.0</ele><time>2026-04-11T07:30:02Z</time></trkpt><trkpt lat="43.31627548154189" lon="11.35752795855784"><ele>230.75</ele><time>2026-04-11T07:30:03Z</time></trkpt><trkpt lat="43.31619749010557" lon="11.357416357630306"><ele>229.5</ele><time>2026-04-11T07:30:04Z</time></trkpt><trkpt lat="43.31612958820122" lon="11.35729745077318"><ele>228.25</ele><time>2026-04-11T07:30:05Z</time></trkpt><trkpt lat="43.3160813655574" lon="11.35715359008783"><ele>227.0</ele><time>2026-04-11T07:30:06Z</time></trkpt><trkpt lat="43.31603690596684" lon="11.356852335799687"><ele>226.83333333333334</ele><time>2026-04-11T07:30:08Z</time></trkpt><trkpt lat="43.31603784319821" lon="11.356716277840954"><ele>226.66666666666669</ele><time>2026-04-11T07:30:09Z</time></trkpt><trkpt lat="43.31603814089911" lon="11.356601352352298"><ele>226.5</ele><time>2026-04-11T07:30:10Z</time></trkpt><trkpt lat="43.31603230837877" lon="11.356499501000478"><ele>226.33333333333331</ele><time>2026-04-11T07:30:11Z</time></trkpt><trkpt lat="43.3160330497617" lon="11.356397485930794"><ele>226.16666666666666</ele><time>2026-04-11T07:30:12Z</time></trkpt><trkpt lat="43.31603205858788" lon="11.356302192901905"><ele>226.0</ele><time>2026-04-11T07:30:13Z</time></trkpt><trkpt lat="43.316037215652386" lon="11.356196266732663"><ele>225.83333333333331</ele><time>2026-04-11T07:30:15Z</time></trkpt><trkpt lat="43.31606338629767" lon="11.35609833871602"><ele>225.66666666666666</ele><time>2026-04-11T07:30:18Z</time></trkpt><trkpt lat="43.31610524027118" lon="11.356000599152324"><ele>225.5</ele><time>2026-04-11T07:30:20Z</time></trkpt><trkpt lat="43.31616895423007" lon="11.355897348217045"><ele>225.33333333333331</ele><time>2026-04-11T07:30:22Z</time></trkpt><trkpt lat="43.31622756699204" lon="11.35580054588769"><ele>225.16666666666666</ele><time>2026-04-11T07:30:24Z</time></trkpt><trkpt lat="43.316268600825964" lon="11.355725105732548"><ele>225.0</ele><time>2026-04-11T07:30:27Z</time></trkpt><trkpt lat="43.316360571538375" lon="11.35547558395471"><ele>225.5</ele><time>2026-04-11T07:30:31Z</time></trkpt><trkpt lat="43.31635429435657" lon="11.355261475540258"><ele>226.0</ele><time>2026-04-11T07:30:33Z</time></trkpt><trkpt lat="43.316242244609626" lon="11.355198899440287"><ele>226.5</ele><time>2026-04-11T07:30:35Z</time></trkpt><trkpt lat="43.31614145735305" lon="11.355174932408278"><ele>227.0</ele><time>2026-04-11T07:30:37Z</time></trkpt><trkpt lat="43.316034955601886" lon="11.355178692248144"><ele>227.00000000000003</ele><time>2026-04-11T07:30:39Z</time></trkpt><trkpt lat="43.31602418596879" lon="11.355067681128741"><ele>227.0</ele><time>2026-04-11T07:30:40Z</time></trkpt><trkpt lat="43.31599815889031" lon="11.354966052521208"><ele>227.0</ele><time>2026-04-11T07:30:42Z</time></trkpt><trkpt lat="43.31596572104257" lon="11.35486623532699"><ele>227.0</ele><time>2026-04-11T07:30:44Z</time></trkpt><trkpt lat="43.31593508680384" lon="11.354768435549815"><ele>227.00000000000003</ele><time>2026-04-11T07:30:46Z</time></trkpt><trkpt lat="43.315912383298496" lon="11.35467877286816"><ele>227.0</ele><time>2026-04-11T07:30:48Z</time></trkpt><trkpt lat="43.31586143047579" lon="11.354503943565769"><ele>227.57142857142858</ele><time>2026-04-11T07:30:52Z</time></trkpt><trkpt lat="43.31583638784752" lon="11.35441673885682"><ele>228.14285714285717</ele><time>2026-04-11T07:30:54Z</time></trkpt><trkpt lat="43.315808360726415" lon="11.354294637923491"><ele>228.71428571428572</ele><time>2026-04-11T07:30:57Z</time></trkpt><trkpt lat="43.315785102172825" lon="11.354210667060253"><ele>229.28571428571428</ele><time>2026-04-11T07:30:59Z</time></trkpt><trkpt lat="43.31576776469678" lon="11.354122602007786"><ele>229.85714285714286</ele><time>2026-04-11T07:31:02Z</time></trkpt><trkpt lat="43.31571799457951" lon="11.3540214536902"><ele>230.42857142857144</ele><time>2026-04-11T07:31:05Z</time></trkpt><trkpt lat="43.315708712218076" lon="11.353933764359885"><ele>231.0</ele><time>2026-04-11T07:31:07Z</time></trkpt><trkpt lat="43.31568427096745" lon="11.353852238143338"><ele>231.60000000000002</ele><time>2026-04-11T07:31:09Z</time></trkpt><trkpt lat="43.3156202959206" lon="11.353664707747576"><ele>232.20000000000002</ele><time>2026-04-11T07:31:14Z</time></trkpt><trkpt lat="43.31559101721692" lon="11.353554265164389"><ele>232.79999999999998</ele><time>2026-04-11T07:31:17Z</time></trkpt><trkpt lat="43.31555279474989" lon="11.353437170913763"><ele>233.39999999999998</ele><time>2026-04-11T07:31:20Z</time></trkpt><trkpt lat="43.315529373048854" lon="11.35332213064522"><ele>234.0</ele><time>2026-04-11T07:31:23Z</time></trkpt><trkpt lat="43.31549399803598" lon="11.353215614613896"><ele>234.0</ele><time>2026-04-11T07:31:26Z</time></trkpt><trkpt lat="43.315478955238085" lon="11.353125352140635"><ele>234.0</ele><time>2026-04-11T07:31:28Z</time></trkpt><trkpt lat="43.315457503470796" lon="11.353029766674767"><ele>234.0</ele><time>2026-04-11T07:31:31Z</time></trkpt><trkpt lat="43.31539543102533" lon="11.35282282010627"><ele>234.0</ele><time>2026-04-11T07:31:37Z</time></trkpt><trkpt lat="43.31537308479352" lon="11.352725499124931"><ele>234.0</ele><time>2026-04-11T07:31:39Z</time></trkpt><trkpt lat="43.31535210052478" lon="11.352638738368398"><ele>234.0</ele><time>2026-04-11T07:31:41Z</time></trkpt><trkpt lat="43.315330979597" lon="11.352544831441385"><ele>234.5</ele><time>2026-04-11T07:31:43Z</time></trkpt><trkpt lat="43.315311230125936" lon="11.352458782992711"><ele>235.0</ele><time>2026-04-11T07:31:45Z</time></trkpt><trkpt lat="43.31528889404158" lon="11.352370987250533"><ele>235.5</ele><time>2026-04-11T07:31:47Z</time></trkpt><trkpt lat="43.31525898543573" lon="11.352285741338001"><ele>236.0</ele><time>2026-04-11T07:31:49Z</time></trkpt><trkpt lat="43.3152346300244" lon="11.352159505113704"><ele>236.5</ele><time>2026-04-11T07:31:52Z</time></trkpt><trkpt lat="43.31519536384586" lon="11.351990623635835"><ele>237.0</ele><time>2026-04-11T07:31:56Z</time></trkpt><trkpt lat="43.31516014829044" lon="11.351878358822491"><ele>238.16666666666666</ele><time>2026-04-11T07:31:59Z</time></trkpt><trkpt lat="43.315142403179536" lon="11.351793416182817"><ele>239.33333333333331</ele><time>2026-04-11T07:32:01Z</time></trkpt><trkpt lat="43.31509200268167" lon="11.35168866013625"><ele>240.5</ele><time>2026-04-11T07:32:04Z</time></trkpt><trkpt lat="43.315043253703806" lon="11.351581925042588"><ele>241.66666666666666</ele><time>2026-04-11T07:32:07Z</time></trkpt><trkpt lat="43.314996168258695" lon="11.351481533456784"><ele>242.83333333333331</ele><time>2026-04-11T07:32:10Z</time></trkpt><trkpt lat="43.31494587850526" lon="11.351381574593999"><ele>244.0</ele><time>2026-04-11T07:32:13Z</time></trkpt><trkpt lat="43.314838413963436" lon="11.351233185812665"><ele>243.83333333333331</ele><time>2026-04-11T07:32:20Z</time></trkpt><trkpt lat="43.31479180990454" lon="11.351166973629638"><ele>243.66666666666666</ele><time>2026-04-11T07:32:23Z</time></trkpt><trkpt lat="43.314731005280166" lon="11.351108175226074"><ele>243.5</ele><time>2026-04-11T07:32:26Z</time></trkpt><trkpt lat="43.31468536250035" lon="11.351010481296075"><ele>243.33333333333331</ele><time>2026-04-11T07:32:29Z</time></trkpt><trkpt lat="43.31463948057712" lon="11.350909548869877"><ele>243.16666666666666</ele><time>2026-04-11T07:32:31Z</time></trkpt><trkpt lat="43.31459258104779" lon="11.350815089811743"><ele>243.0</ele><time>2026-04-11T07:32:33Z</time></trkpt><trkpt lat="43.314549372598215" lon="11.35074655939551"><ele>243.0</ele><time>2026-04-11T07:32:35Z</time></trkpt><trkpt lat="43.31445987853285" lon="11.35055863729033"><ele>243.0</ele><time>2026-04-11T07:32:41Z</time></trkpt><trkpt lat="43.314428336256555" lon="11.350480269695408"><ele>243.0</ele><time>2026-04-11T07:32:43Z</time></trkpt><trkpt lat="43.31442195627472" lon="11.350390182900696"><ele>243.0</ele><time>2026-04-11T07:32:46Z</time></trkpt><trkpt lat="43.314422850153974" lon="11.350280789431956"><ele>243.0</ele><time>2026-04-11T07:32:49Z</time></trkpt><trkpt lat="43.31443803265886" lon="11.350187661103813"><ele>243.0</ele><time>2026-04-11T07:32:52Z</time></trkpt><trkpt lat="43.314463622539854" lon="11.350092728452896"><ele>243.60000000000002</ele><time>2026-04-11T07:32:55Z</time></trkpt><trkpt lat="43.31450181007148" lon="11.350009857510159"><ele>244.20000000000002</ele><time>2026-04-11T07:32:58Z</time></trkpt><trkpt lat="43.31466323459204" lon="11.349968933785933"><ele>244.8</ele><time>2026-04-11T07:33:05Z</time></trkpt><trkpt lat="43.314736277415435" lon="11.349953158943233"><ele>245.4</ele><time>2026-04-11T07:33:07Z</time></trkpt><trkpt lat="43.3148208363121" lon="11.349916324043495"><ele>246.0</ele><time>2026-04-11T07:33:10Z</time></trkpt><trkpt lat="43.314906201420186" lon="11.349895821478231"><ele>249.0</ele><time>2026-04-11T07:33:13Z</time></trkpt><trkpt lat="43.31497894658975" lon="11.349846819117765"><ele>252.00000000000003</ele><time>2026-04-11T07:33:16Z</time></trkpt><trkpt lat="43.31505198698684" lon="11.349783374973574"><ele>255.00000000000003</ele><time>2026-04-11T07:33:19Z</time></trkpt><trkpt lat="43.31513320149705" lon="11.349573490756349"><ele>258.0</ele><time>2026-04-11T07:33:25Z</time></trkpt><trkpt lat="43.315150059017185" lon="11.349469790388232"><ele>261.0</ele><time>2026-04-11T07:33:28Z</time></trkpt><trkpt lat="43.3151609920753" lon="11.349383004155843"><ele>261.6</ele><time>2026-04-11T07:33:30Z</time></trkpt><trkpt lat="43.31513126934237" lon="11.349273668791454"><ele>262.20000000000005</ele><time>2026-04-11T07:33:33Z</time></trkpt><trkpt lat="43.315085573570165" lon="11.349170890813516"><ele>262.79999999999995</ele><time>2026-04-11T07:33:36Z</time></trkpt><trkpt lat="43.315041470506564" lon="11.349073226819334"><ele>263.4</ele><time>2026-04-11T07:33:39Z</time></trkpt><trkpt lat="43.31496860378218" lon="11.348998460056341"><ele>264.0</ele><time>2026-04-11T07:33:42Z</time></trkpt><trkpt lat="43.31480245882554" lon="11.348894989041364"><ele>265.1666666666667</ele><time>2026-04-11T07:33:48Z</time></trkpt><trkpt lat="43.31474578959376" lon="11.348856885149583"><ele>266.3333333333333</ele><time>2026-04-11T07:33:50Z</time></trkpt><trkpt lat="43.31466941380541" lon="11.348776811962448"><ele>267.5</ele><time>2026-04-11T07:33:53Z</time></trkpt><trkpt lat="43.31461255596331" lon="11.348680772494104"><ele>268.66666666666663</ele><time>2026-04-11T07:33:56Z</time></trkpt><trkpt lat="43.31458675313138" lon="11.348560606650818"><ele>269.8333333333333</ele><time>2026-04-11T07:33:59Z</time></trkpt><trkpt lat="43.314558135665976" lon="11.348453798816664"><ele>271.0</ele><time>2026-04-11T07:34:02Z</time></trkpt><trkpt lat="43.314573954408196" lon="11.348368787150259"><ele>271.0</ele><time>2026-04-11T07:34:04Z</time></trkpt><trkpt lat="43.31463426940597" lon="11.348129708674296"><ele>271.0</ele><time>2026-04-11T07:34:10Z</time></trkpt><trkpt lat="43.31467130980526" lon="11.34801716816654"><ele>271.0</ele><time>2026-04-11T07:34:13Z</time></trkpt><trkpt lat="43.314717680739854" lon="11.347912980727413"><ele>271.0</ele><time>2026-04-11T07:34:16Z</time></trkpt><trkpt lat="43.31477679558735" lon="11.34782288934984"><ele>271.0</ele><time>2026-04-11T07:34:19Z</time></trkpt><trkpt lat="43.31483222517463" lon="11.347727292174222"><ele>271.0</ele><time>2026-04-11T07:34:22Z</time></trkpt><trkpt lat="43.31489587999092" lon="11.347651513214707"><ele>271.0</ele><time>2026-04-11T07:34:25Z</time></trkpt><trkpt lat="43.3149953100345" lon="11.347451848596199"><ele>271.0</ele><time>2026-04-11T07:34:31Z</time></trkpt><trkpt lat="43.315042624608104" lon="11.34734604734902"><ele>271.0</ele><time>2026-04-11T07:34:34Z</time></trkpt><trkpt lat="43.315086438040936" lon="11.347283063441605"><ele>271.0</ele><time>2026-04-11T07:34:36Z</time></trkpt><trkpt lat="43.315129391256825" lon="11.347215176276103"><ele>271.0</ele><time>2026-04-11T07:34:38Z</time></trkpt><trkpt lat="43.315174161796236" lon="11.347135536115324"><ele>271.0</ele><time>2026-04-11T07:34:40Z</time></trkpt><trkpt lat="43.31520546729303" lon="11.347044542106437"><ele>271.0</ele><time>2026-04-11T07:34:42Z</time></trkpt><trkpt lat="43.3152500734292" lon="11.346969761418512"><ele>271.0</ele><time>2026-04-11T07:34:44Z</time></trkpt><trkpt lat="43.315300696041476" lon="11.346906794597864"><ele>271.0</ele><time>2026-04-11T07:34:46Z</time></trkpt><trkpt lat="43.31541141975511" lon="11.34674868343297"><ele>270.5</ele><time>2026-04-11T07:34:51Z</time></trkpt><trkpt lat="43.31545133157138" lon="11.346676160580524"><ele>270.0</ele><time>2026-04-11T07:34:53Z</time></trkpt><trkpt lat="43.31551213138334" lon="11.346593104204096"><ele>269.5</ele><time>2026-04-11T07:34:56Z</time></trkpt><trkpt lat="43.31555137456675" lon="11.346523496941607"><ele>269.0</ele><time>2026-04-11T07:34:58Z</time></trkpt><trkpt lat="43.31559968773742" lon="11.346423298370167"><ele>268.5</ele><time>2026-04-11T07:35:01Z</time></trkpt><trkpt lat="43.31566411456105" lon="11.346330410201627"><ele>268.0</ele><time>2026-04-11T07:35:04Z</time></trkpt><trkpt lat="43.31572879961738" lon="11.346245241748594"><ele>270.4</ele><time>2026-04-11T07:35:07Z</time></trkpt><trkpt lat="43.31583121792637" lon="11.346087473592577"><ele>272.8</ele><time>2026-04-11T07:35:12Z</time></trkpt><trkpt lat="43.315873306005685" lon="11.34602088945861"><ele>275.2</ele><time>2026-04-11T07:35:14Z</time></trkpt><trkpt lat="43.31591396293242" lon="11.3459538773264"><ele>277.6</ele><time>2026-04-11T07:35:16Z</time></trkpt><trkpt lat="43.31598499978332" lon="11.345850065387609"><ele>280.0</ele><time>2026-04-11T07:35:19Z</time></trkpt><trkpt lat="43.31604482991236" lon="11.345777000935081"><ele>280.0</ele><time>2026-04-11T07:35:22Z</time></trkpt><trkpt lat="43.31608786103036" lon="11.345710670303962"><ele>280.0</ele><time>2026-04-11T07:35:24Z</time></trkpt><trkpt lat="43.31613332936245" lon="11.345591584451816"><ele>280.0</ele><time>2026-04-11T07:35:27Z</time></trkpt><trkpt lat="43.3161839187791" lon="11.34552665698973"><ele>280.0</ele><time>2026-04-11T07:35:29Z</time></trkpt><trkpt lat="43.31628529375052" lon="11.3453701898479"><ele>280.0</ele><time>2026-04-11T07:35:34Z</time></trkpt><trkpt lat="43.31632083863032" lon="11.345292187519803"><ele>280.66666666666663</ele><time>2026-04-11T07:35:36Z</time></trkpt><trkpt lat="43.31637495950035" lon="11.345195980023158"><ele>281.3333333333333</ele><time>2026-04-11T07:35:39Z</time></trkpt><trkpt lat="43.31641976343473" lon="11.345091043318499"><ele>282.0</ele><time>2026-04-11T07:35:42Z</time></trkpt><trkpt lat="43.31647467536399" lon="11.344988071115806"><ele>282.6666666666667</ele><time>2026-04-11T07:35:45Z</time></trkpt><trkpt lat="43.31653324875562" lon="11.344909744277452"><ele>283.33333333333337</ele><time>2026-04-11T07:35:48Z</time></trkpt><trkpt lat="43.31657784419782" lon="11.344843231328943"><ele>284.0</ele><time>2026-04-11T07:35:50Z</time></trkpt><trkpt lat="43.31666673210801" lon="11.34466492719589"><ele>284.0</ele><time>2026-04-11T07:35:55Z</time></trkpt><trkpt lat="43.316710608770244" lon="11.344563855918606"><ele>284.0</ele><time>2026-04-11T07:35:58Z</time></trkpt><trkpt lat="43.316776421354206" lon="11.344474107225858"><ele>284.0</ele><time>2026-04-11T07:36:01Z</time></trkpt><trkpt lat="43.31682727434714" lon="11.344409648348039"><ele>284.0</ele><time>2026-04-11T07:36:04Z</time></trkpt><trkpt lat="43.316860233094026" lon="11.344335792059315"><ele>284.0</ele><time>2026-04-11T07:36:07Z</time></trkpt><trkpt lat="43.31687709465063" lon="11.344221908229908"><ele>284.0</ele><time>2026-04-11T07:36:11Z</time></trkpt><trkpt lat="43.3167599170392" lon="11.344147816643847"><ele>284.0</ele><time>2026-04-11T07:36:15Z</time></trkpt><trkpt lat="43.31668931748063" lon="11.344068233862126"><ele>284.0</ele><time>2026-04-11T07:36:18Z</time></trkpt><trkpt lat="43.31665230730006" lon="11.343719849889808"><ele>284.0</ele><time>2026-04-11T07:36:20Z</time></trkpt><trkpt lat="43.316715591294766" lon="11.343662551775347"><ele>284.0</ele><time>2026-04-11T07:36:21Z</time></trkpt><trkpt lat="43.31674486874589" lon="11.34355920453313"><ele>283.6666666666667</ele><time>2026-04-11T07:36:22Z</time></trkpt><trkpt lat="43.31675441831901" lon="11.343469088062074"><ele>283.33333333333337</ele><time>2026-04-11T07:36:23Z</time></trkpt><trkpt lat="43.31675791730872" lon="11.343338370626865"><ele>283.0</ele><time>2026-04-11T07:36:24Z</time></trkpt><trkpt lat="43.31677053646733" lon="11.343198075411703"><ele>282.6666666666667</ele><time>2026-04-11T07:36:25Z</time></trkpt><trkpt lat="43.316812116454315" lon="11.343089183629424"><ele>282.3333333333333</ele><time>2026-04-11T07:36:26Z</time></trkpt><trkpt lat="43.316823084852" lon="11.342966331327746"><ele>282.0</ele><time>2026-04-11T07:36:27Z</time></trkpt><trkpt lat="43.31684377714183" lon="11.342831109525974"><ele>281.2</ele><time>2026-04-11T07:36:28Z</time></trkpt><trkpt lat="43.31687788305726" lon="11.342688971983028"><ele>280.4</ele><time>2026-04-11T07:36:29Z</time></trkpt><trkpt lat="43.31689091277676" lon="11.342576800818168"><ele>279.6</ele><time>2026-04-11T07:36:30Z</time></trkpt><trkpt lat="43.31686977111332" lon="11.342458539214807"><ele>278.8</ele><time>2026-04-11T07:36:31Z</time></trkpt><trkpt lat="43.316801244491586" lon="11.342371727591024"><ele>278.0</ele><time>2026-04-11T07:36:32Z</time></trkpt><trkpt lat="43.31661158046206" lon="11.342294031645716"><ele>278.0</ele><time>2026-04-11T07:36:34Z</time></trkpt><trkpt lat="43.316534934559016" lon="11.342269746295504"><ele>278.0</ele><time>2026-04-11T07:36:35Z</time></trkpt><trkpt lat="43.31644613325511" lon="11.342244370162739"><ele>278.0</ele><time>2026-04-11T07:36:36Z</time></trkpt><trkpt lat="43.316360474881314" lon="11.342216313384688"><ele>278.0</ele><time>2026-04-11T07:36:37Z</time></trkpt><trkpt lat="43.31627425907748" lon="11.342179671390179"><ele>278.0</ele><time>2026-04-11T07:36:38Z</time></trkpt><trkpt lat="43.31620568002556" lon="11.342144462341677"><ele>278.0</ele><time>2026-04-11T07:36:39Z</time></trkpt><trkpt lat="43.31612020356351" lon="11.34211787799851"><ele>278.5</ele><time>2026-04-11T07:36:40Z</time></trkpt><trkpt lat="43.31603716778493" lon="11.342083769352485"><ele>279.0</ele><time>2026-04-11T07:36:41Z</time></trkpt><trkpt lat="43.315953489932994" lon="11.342068603856475"><ele>279.5</ele><time>2026-04-11T07:36:42Z</time></trkpt><trkpt lat="43.31587486788055" lon="11.342034729351777"><ele>280.0</ele><time>2026-04-11T07:36:43Z</time></trkpt><trkpt lat="43.3157948088784" lon="11.34201794034332"><ele>280.5</ele><time>2026-04-11T07:36:44Z</time></trkpt><trkpt lat="43.31571486817547" lon="11.34202307445218"><ele>281.0</ele><time>2026-04-11T07:36:45Z</time></trkpt><trkpt lat="43.31563572341631" lon="11.342042342892086"><ele>280.6666666666667</ele><time>2026-04-11T07:36:46Z</time></trkpt><trkpt lat="43.31556287251635" lon="11.342076196848856"><ele>280.33333333333337</ele><time>2026-04-11T07:36:47Z</time></trkpt><trkpt lat="43.31549349556801" lon="11.342129917795473"><ele>280.0</ele><time>2026-04-11T07:36:48Z</time></trkpt><trkpt lat="43.31543564310331" lon="11.342173603747623"><ele>279.6666666666667</ele><time>2026-04-11T07:36:49Z</time></trkpt><trkpt lat="43.315370429968894" lon="11.342229607325034"><ele>279.3333333333333</ele><time>2026-04-11T07:36:50Z</time></trkpt><trkpt lat="43.31530629308616" lon="11.342281979703"><ele>279.0</ele><time>2026-04-11T07:36:51Z</time></trkpt><trkpt lat="43.31523629474704" lon="11.342343232913825"><ele>279.0</ele><time>2026-04-11T07:36:52Z</time></trkpt><trkpt lat="43.31517133439173" lon="11.342410740071713"><ele>279.0</ele><time>2026-04-11T07:36:53Z</time></trkpt><trkpt lat="43.315041133812166" lon="11.342535289924918"><ele>279.0</ele><time>2026-04-11T07:36:55Z</time></trkpt><trkpt lat="43.31497358122589" lon="11.342599603505029"><ele>279.0</ele><time>2026-04-11T07:36:56Z</time></trkpt><trkpt lat="43.31490784308247" lon="11.342656340685604"><ele>279.0</ele><time>2026-04-11T07:36:57Z</time></trkpt><trkpt lat="43.31483587779287" lon="11.3427038987223"><ele>279.0</ele><time>2026-04-11T07:36:58Z</time></trkpt><trkpt lat="43.31476334741062" lon="11.342747106883927"><ele>279.0</ele><time>2026-04-11T07:36:59Z</time></trkpt><trkpt lat="43.314684621658124" lon="11.342805592027922"><ele>279.0</ele><time>2026-04-11T07:37:00Z</time></trkpt><trkpt lat="43.314609591209575" lon="11.342848066038362"><ele>279.0</ele><time>2026-04-11T07:37:01Z</time></trkpt><trkpt lat="43.31453445225341" lon="11.342857396666668"><ele>279.0</ele><time>2026-04-11T07:37:02Z</time></trkpt><trkpt lat="43.31445943819177" lon="11.342792864082702"><ele>279.0</ele><time>2026-04-11T07:37:03Z</time></trkpt><trkpt lat="43.31440473180199" lon="11.342710286039363"><ele>279.3333333333333</ele><time>2026-04-11T07:37:04Z</time></trkpt><trkpt lat="43.31436782478292" lon="11.3426162760173"><ele>279.6666666666667</ele><time>2026-04-11T07:37:05Z</time></trkpt><trkpt lat="43.31433125238723" lon="11.342519465310477"><ele>280.0</ele><time>2026-04-11T07:37:06Z</time></trkpt><trkpt lat="43.31429821141951" lon="11.34242400837896"><ele>280.33333333333337</ele><time>2026-04-11T07:37:07Z</time></trkpt><trkpt lat="43.314278358288725" lon="11.342313628608089"><ele>280.6666666666667</ele><time>2026-04-11T07:37:08Z</time></trkpt><trkpt lat="43.3143426144086" lon="11.342158129887201"><ele>281.0</ele><time>2026-04-11T07:37:09Z</time></trkpt><trkpt lat="43.31431054809777" lon="11.342062448860862"><ele>281.0</ele><time>2026-04-11T07:37:10Z</time></trkpt><trkpt lat="43.31426832901755" lon="11.341974120345496"><ele>281.0</ele><time>2026-04-11T07:37:11Z</time></trkpt><trkpt lat="43.31421959820203" lon="11.341890135110459"><ele>281.0</ele><time>2026-04-11T07:37:12Z</time></trkpt><trkpt lat="43.31416993118529" lon="11.341815512595524"><ele>281.0</ele><time>2026-04-11T07:37:13Z</time></trkpt><trkpt lat="43.31409280780962" lon="11.341759552356214"><ele>281.0</ele><time>2026-04-11T07:37:14Z</time></trkpt><trkpt lat="43.31394329841278" lon="11.341708204596811"><ele>280.33333333333337</ele><time>2026-04-11T07:37:16Z</time></trkpt><trkpt lat="43.313868274132936" lon="11.34170109160343"><ele>279.6666666666667</ele><time>2026-04-11T07:37:17Z</time></trkpt><trkpt lat="43.31379339658536" lon="11.341687549409215"><ele>279.0</ele><time>2026-04-11T07:37:18Z</time></trkpt><trkpt lat="43.31372127905204" lon="11.341662049396156"><ele>278.3333333333333</ele><time>2026-04-11T07:37:19Z</time></trkpt><trkpt lat="43.3136473337817" lon="11.341638947968766"><ele>277.66666666666663</ele><time>2026-04-11T07:37:20Z</time></trkpt><trkpt lat="43.31357843655123" lon="11.341608368861248"><ele>277.0</ele><time>2026-04-11T07:37:21Z</time></trkpt><trkpt lat="43.31350111826462" lon="11.341584120580906"><ele>277.0</ele><time>2026-04-11T07:37:22Z</time></trkpt><trkpt lat="43.31343091347406" lon="11.34155883512011"><ele>277.0</ele><time>2026-04-11T07:37:23Z</time></trkpt><trkpt lat="43.31335696882584" lon="11.341535755969044"><ele>277.0</ele><time>2026-04-11T07:37:24Z</time></trkpt><trkpt lat="43.31328565734115" lon="11.341510549528222"><ele>277.0</ele><time>2026-04-11T07:37:25Z</time></trkpt><trkpt lat="43.313220650794534" lon="11.341477282790708"><ele>277.0</ele><time>2026-04-11T07:37:26Z</time></trkpt><trkpt lat="43.31314941851199" lon="11.341460486936086"><ele>277.0</ele><time>2026-04-11T07:37:27Z</time></trkpt><trkpt lat="43.313071540400664" lon="11.341434300582069"><ele>277.0</ele><time>2026-04-11T07:37:28Z</time></trkpt><trkpt lat="43.31300247073766" lon="11.341411845909038"><ele>276.66666666666663</ele><time>2026-04-11T07:37:29Z</time></trkpt><trkpt lat="43.31293239384963" lon="11.34139006405374"><ele>276.3333333333333</ele><time>2026-04-11T07:37:30Z</time></trkpt><trkpt lat="43.31286647462408" lon="11.34137633276143"><ele>276.0</ele><time>2026-04-11T07:37:31Z</time></trkpt><trkpt lat="43.31279956840514" lon="11.341359445670072"><ele>275.6666666666667</ele><time>2026-04-11T07:37:32Z</time></trkpt><trkpt lat="43.312738065455" lon="11.341336153156647"><ele>275.33333333333337</ele><time>2026-04-11T07:37:33Z</time></trkpt><trkpt lat="43.3126295285241" lon="11.341259021065527"><ele>275.0</ele><time>2026-04-11T07:37:35Z</time></trkpt><trkpt lat="43.31253689197152" lon="11.341059303405732"><ele>276.8</ele><time>2026-04-11T07:37:38Z</time></trkpt><trkpt lat="43.312516826816946" lon="11.340915209901059"><ele>278.6</ele><time>2026-04-11T07:37:40Z</time></trkpt><trkpt lat="43.31248462143392" lon="11.340791385275715"><ele>280.4</ele><time>2026-04-11T07:37:42Z</time></trkpt><trkpt lat="43.312431302625804" lon="11.340702634706668"><ele>282.2</ele><time>2026-04-11T07:37:44Z</time></trkpt><trkpt lat="43.312366311048386" lon="11.340628148135124"><ele>284.0</ele><time>2026-04-11T07:37:46Z</time></trkpt><trkpt lat="43.312300272879966" lon="11.34056133368664"><ele>284.5</ele><time>2026-04-11T07:37:48Z</time></trkpt><trkpt lat="43.31223157804521" lon="11.340514719876513"><ele>285.0</ele><time>2026-04-11T07:37:50Z</time></trkpt><trkpt lat="43.31216568003873" lon="11.340469120919943"><ele>285.5</ele><time>2026-04-11T07:37:52Z</time></trkpt><trkpt lat="43.31210896970548" lon="11.340429257657963"><ele>286.0</ele><time>2026-04-11T07:37:54Z</time></trkpt><trkpt lat="43.31204454915766" lon="11.340375544801601"><ele>286.5</ele><time>2026-04-11T07:37:56Z</time></trkpt><trkpt lat="43.31194168148862" lon="11.340271628590912"><ele>287.0</ele><time>2026-04-11T07:38:00Z</time></trkpt><trkpt lat="43.31188149069316" lon="11.340176615630321"><ele>287.0</ele><time>2026-04-11T07:38:03Z</time></trkpt><trkpt lat="43.31182677933311" lon="11.340069646961197"><ele>287.0</ele><time>2026-04-11T07:38:06Z</time></trkpt><trkpt lat="43.311802366237686" lon="11.339949087521038"><ele>287.0</ele><time>2026-04-11T07:38:09Z</time></trkpt><trkpt lat="43.31178507903708" lon="11.339846704999484"><ele>287.0</ele><time>2026-04-11T07:38:12Z</time></trkpt><trkpt lat="43.31177141070858" lon="11.33975212479724"><ele>287.0</ele><time>2026-04-11T07:38:17Z</time></trkpt><trkpt lat="43.311729339947846" lon="11.339446315897778"><ele>287.0</ele><time>2026-04-11T07:38:50Z</time></trkpt><trkpt lat="43.31169104992511" lon="11.339326533177479"><ele>287.0</ele><time>2026-04-11T07:38:53Z</time></trkpt><trkpt lat="43.31161676882137" lon="11.339253930088756"><ele>287.0</ele><time>2026-04-11T07:38:55Z</time></trkpt><trkpt lat="43.311485017761676" lon="11.33929955695545"><ele>287.0</ele><time>2026-04-11T07:38:57Z</time></trkpt><trkpt lat="43.31141439009722" lon="11.339307641306359"><ele>287.0</ele><time>2026-04-11T07:38:58Z</time></trkpt><trkpt lat="43.311338166561804" lon="11.339312543262311"><ele>287.0</ele><time>2026-04-11T07:38:59Z</time></trkpt><trkpt lat="43.31126255274593" lon="11.339315107224948"><ele>287.0</ele><time>2026-04-11T07:39:00Z</time></trkpt><trkpt lat="43.31118448553224" lon="11.339320056324784"><ele>287.0</ele><time>2026-04-11T07:39:01Z</time></trkpt><trkpt lat="43.31110244040618" lon="11.339323098045728"><ele>287.0</ele><time>2026-04-11T07:39:02Z</time></trkpt><trkpt lat="43.31101492591236" lon="11.339318322507905"><ele>287.0</ele><time>2026-04-11T07:39:03Z</time></trkpt><trkpt lat="43.31092114998553" lon="11.339308661195414"><ele>287.0</ele><time>2026-04-11T07:39:04Z</time></trkpt><trkpt lat="43.31084341613417" lon="11.339327480251791"><ele>287.0</ele><time>2026-04-11T07:39:05Z</time></trkpt><trkpt lat="43.310747326268185" lon="11.339310357537306"><ele>287.0</ele><time>2026-04-11T07:39:06Z</time></trkpt><trkpt lat="43.31056779228953" lon="11.339267087481163"><ele>287.0</ele><time>2026-04-11T07:39:08Z</time></trkpt><trkpt lat="43.31047913438637" lon="11.339248508589883"><ele>287.0</ele><time>2026-04-11T07:39:09Z</time></trkpt><trkpt lat="43.310392299707175" lon="11.339239987443074"><ele>286.4</ele><time>2026-04-11T07:39:10Z</time></trkpt><trkpt lat="43.31030152902122" lon="11.339225743081206"><ele>285.79999999999995</ele><time>2026-04-11T07:39:11Z</time></trkpt><trkpt lat="43.31021359016391" lon="11.33921210591578"><ele>285.2</ele><time>2026-04-11T07:39:12Z</time></trkpt><trkpt lat="43.31012062994387" lon="11.33918772484808"><ele>284.59999999999997</ele><time>2026-04-11T07:39:13Z</time></trkpt><trkpt lat="43.31003622075435" lon="11.339173573329209"><ele>284.0</ele><time>2026-04-11T07:39:14Z</time></trkpt><trkpt lat="43.30994481884761" lon="11.33916332746328"><ele>284.0</ele><time>2026-04-11T07:39:15Z</time></trkpt><trkpt lat="43.30986196566146" lon="11.339129223893924"><ele>284.0</ele><time>2026-04-11T07:39:16Z</time></trkpt><trkpt lat="43.30977076875762" lon="11.339110896908876"><ele>284.0</ele><time>2026-04-11T07:39:17Z</time></trkpt><trkpt lat="43.309682535761496" lon="11.33910268438309"><ele>284.0</ele><time>2026-04-11T07:39:18Z</time></trkpt><trkpt lat="43.30958651007905" lon="11.339090657893543"><ele>284.0</ele><time>2026-04-11T07:39:19Z</time></trkpt><trkpt lat="43.30949322607478" lon="11.339081347203969"><ele>283.4</ele><time>2026-04-11T07:39:20Z</time></trkpt><trkpt lat="43.3094087291658" lon="11.339064967685706"><ele>282.79999999999995</ele><time>2026-04-11T07:39:21Z</time></trkpt><trkpt lat="43.309314299122725" lon="11.339049479740899"><ele>282.20000000000005</ele><time>2026-04-11T07:39:22Z</time></trkpt><trkpt lat="43.30922328410453" lon="11.3390470673316"><ele>281.6</ele><time>2026-04-11T07:39:23Z</time></trkpt><trkpt lat="43.30912957122399" lon="11.339045082616012"><ele>281.0</ele><time>2026-04-11T07:39:24Z</time></trkpt><trkpt lat="43.30903418676602" lon="11.33902565178151"><ele>281.0</ele><time>2026-04-11T07:39:25Z</time></trkpt><trkpt lat="43.308946344301404" lon="11.3390083864101"><ele>281.0</ele><time>2026-04-11T07:39:26Z</time></trkpt><trkpt lat="43.30884430488166" lon="11.339010253214905"><ele>281.0</ele><time>2026-04-11T07:39:27Z</time></trkpt><trkpt lat="43.30866746551743" lon="11.338983625879498"><ele>281.0</ele><time>2026-04-11T07:39:29Z</time></trkpt><trkpt lat="43.308578653296316" lon="11.338980252089002"><ele>281.1666666666667</ele><time>2026-04-11T07:39:30Z</time></trkpt><trkpt lat="43.308497543918676" lon="11.338982259672639"><ele>281.33333333333337</ele><time>2026-04-11T07:39:31Z</time></trkpt><trkpt lat="43.3084053069749" lon="11.338973562933651"><ele>281.5</ele><time>2026-04-11T07:39:32Z</time></trkpt><trkpt lat="43.30831864247426" lon="11.338960802150625"><ele>281.6666666666667</ele><time>2026-04-11T07:39:33Z</time></trkpt><trkpt lat="43.30823609621932" lon="11.338977206872746"><ele>281.8333333333333</ele><time>2026-04-11T07:39:34Z</time></trkpt><trkpt lat="43.308150500519695" lon="11.338974566812762"><ele>282.0</ele><time>2026-04-11T07:39:35Z</time></trkpt><trkpt lat="43.30807331658222" lon="11.33896859535101"><ele>282.0</ele><time>2026-04-11T07:39:36Z</time></trkpt><trkpt lat="43.30799260788782" lon="11.338981269123941"><ele>282.0</ele><time>2026-04-11T07:39:37Z</time></trkpt><trkpt lat="43.30790919333837" lon="11.338982058165989"><ele>282.0</ele><time>2026-04-11T07:39:38Z</time></trkpt><trkpt lat="43.30783749947642" lon="11.338969629356104"><ele>282.0</ele><time>2026-04-11T07:39:39Z</time></trkpt><trkpt lat="43.30770265012334" lon="11.33899995401935"><ele>282.0</ele><time>2026-04-11T07:39:41Z</time></trkpt><trkpt lat="43.30762168204289" lon="11.33900106968861"><ele>282.0</ele><time>2026-04-11T07:39:42Z</time></trkpt><trkpt lat="43.30754662389793" lon="11.339021746479661"><ele>282.0</ele><time>2026-04-11T07:39:43Z</time></trkpt><trkpt lat="43.307482508453695" lon="11.339052896200716"><ele>282.0</ele><time>2026-04-11T07:39:44Z</time></trkpt><trkpt lat="43.307414398298725" lon="11.339081334165874"><ele>282.0</ele><time>2026-04-11T07:39:45Z</time></trkpt><trkpt lat="43.30734125417823" lon="11.339101702140455"><ele>282.0</ele><time>2026-04-11T07:39:46Z</time></trkpt><trkpt lat="43.30726605860947" lon="11.3391251275221"><ele>282.0</ele><time>2026-04-11T07:39:47Z</time></trkpt><trkpt lat="43.30719647303115" lon="11.339140890923689"><ele>282.0</ele><time>2026-04-11T07:39:48Z</time></trkpt><trkpt lat="43.30705518540702" lon="11.339195329897343"><ele>281.8333333333333</ele><time>2026-04-11T07:39:50Z</time></trkpt><trkpt lat="43.306964571896096" lon="11.339198956937617"><ele>281.6666666666667</ele><time>2026-04-11T07:39:51Z</time></trkpt><trkpt lat="43.306872112228966" lon="11.339189298011027"><ele>281.5</ele><time>2026-04-11T07:39:52Z</time></trkpt><trkpt lat="43.30679709405243" lon="11.339163320652048"><ele>281.33333333333337</ele><time>2026-04-11T07:39:53Z</time></trkpt><trkpt lat="43.30671639766274" lon="11.339151088259387"><ele>281.1666666666667</ele><time>2026-04-11T07:39:54Z</time></trkpt><trkpt lat="43.30663225331912" lon="11.339130355452738"><ele>281.0</ele><time>2026-04-11T07:39:55Z</time></trkpt><trkpt lat="43.30655702972344" lon="11.339088698319637"><ele>281.0</ele><time>2026-04-11T07:39:56Z</time></trkpt><trkpt lat="43.3064747499426" lon="11.339050969935828"><ele>281.0</ele><time>2026-04-11T07:39:57Z</time></trkpt><trkpt lat="43.30639536716378" lon="11.339007338887853"><ele>281.0</ele><time>2026-04-11T07:39:58Z</time></trkpt><trkpt lat="43.30631916041112" lon="11.33896479832824"><ele>281.0</ele><time>2026-04-11T07:39:59Z</time></trkpt><trkpt lat="43.30624547978403" lon="11.338923091308846"><ele>281.0</ele><time>2026-04-11T07:40:00Z</time></trkpt><trkpt lat="43.306172444205245" lon="11.338863259668823"><ele>281.0</ele><time>2026-04-11T07:40:01Z</time></trkpt><trkpt lat="43.30610779864812" lon="11.338795721215725"><ele>280.83333333333337</ele><time>2026-04-11T07:40:02Z</time></trkpt><trkpt lat="43.306056212694614" lon="11.33872369272939"><ele>280.6666666666667</ele><time>2026-04-11T07:40:03Z</time></trkpt><trkpt lat="43.30600553661304" lon="11.338650789586517"><ele>280.5</ele><time>2026-04-11T07:40:04Z</time></trkpt><trkpt lat="43.30595513182509" lon="11.338573095458868"><ele>280.3333333333333</ele><time>2026-04-11T07:40:05Z</time></trkpt><trkpt lat="43.305902917952395" lon="11.338500850494448"><ele>280.16666666666663</ele><time>2026-04-11T07:40:06Z</time></trkpt><trkpt lat="43.30584755146918" lon="11.338427126816768"><ele>280.0</ele><time>2026-04-11T07:40:07Z</time></trkpt><trkpt lat="43.30579168826541" lon="11.338353236106919"><ele>280.0</ele><time>2026-04-11T07:40:08Z</time></trkpt><trkpt lat="43.30573165595349" lon="11.33828246341562"><ele>280.0</ele><time>2026-04-11T07:40:09Z</time></trkpt><trkpt lat="43.30561539950263" lon="11.3381485449606"><ele>280.0</ele><time>2026-04-11T07:40:11Z</time></trkpt><trkpt lat="43.305563769984516" lon="11.338054307065574"><ele>280.0</ele><time>2026-04-11T07:40:12Z</time></trkpt><trkpt lat="43.30550459263023" lon="11.33798567526344"><ele>280.0</ele><time>2026-04-11T07:40:13Z</time></trkpt><trkpt lat="43.305444689575594" lon="11.337916476276952"><ele>279.8333333333333</ele><time>2026-04-11T07:40:14Z</time></trkpt><trkpt lat="43.30538824791932" lon="11.337845943673594"><ele>279.66666666666663</ele><time>2026-04-11T07:40:15Z</time></trkpt><trkpt lat="43.30532905599355" lon="11.337772990131802"><ele>279.5</ele><time>2026-04-11T07:40:16Z</time></trkpt><trkpt lat="43.30527622470353" lon="11.337697023607445"><ele>279.3333333333333</ele><time>2026-04-11T07:40:17Z</time></trkpt><trkpt lat="43.30521725046333" lon="11.337624160536135"><ele>279.1666666666667</ele><time>2026-04-11T07:40:18Z</time></trkpt><trkpt lat="43.30515092393499" lon="11.337556885341812"><ele>279.0</ele><time>2026-04-11T07:40:19Z</time></trkpt><trkpt lat="43.30507953405088" lon="11.33749507566431"><ele>279.0</ele><time>2026-04-11T07:40:20Z</time></trkpt><trkpt lat="43.30498538941554" lon="11.337440901673883"><ele>279.0</ele><time>2026-04-11T07:40:21Z</time></trkpt><trkpt lat="43.30490448556958" lon="11.337398194557657"><ele>279.0</ele><time>2026-04-11T07:40:22Z</time></trkpt><trkpt lat="43.304818010068885" lon="11.337350230266193"><ele>279.0</ele><time>2026-04-11T07:40:23Z</time></trkpt><trkpt lat="43.304734856119104" lon="11.337289229387286"><ele>279.0</ele><time>2026-04-11T07:40:24Z</time></trkpt><trkpt lat="43.30464793891743" lon="11.337221391291518"><ele>277.4</ele><time>2026-04-11T07:40:25Z</time></trkpt><trkpt lat="43.3045631628076" lon="11.337175935529775"><ele>275.79999999999995</ele><time>2026-04-11T07:40:26Z</time></trkpt><trkpt lat="43.30446555352554" lon="11.337132600265202"><ele>274.20000000000005</ele><time>2026-04-11T07:40:27Z</time></trkpt><trkpt lat="43.304384480819536" lon="11.337061704290102"><ele>272.6</ele><time>2026-04-11T07:40:28Z</time></trkpt><trkpt lat="43.30429562577845" lon="11.336992412075498"><ele>271.0</ele><time>2026-04-11T07:40:29Z</time></trkpt><trkpt lat="43.30419639617565" lon="11.336954002012037"><ele>271.0</ele><time>2026-04-11T07:40:30Z</time></trkpt><trkpt lat="43.30399179545367" lon="11.336981238432726"><ele>271.0</ele><time>2026-04-11T07:40:32Z</time></trkpt><trkpt lat="43.3038766367418" lon="11.337030403745851"><ele>271.0</ele><time>2026-04-11T07:40:33Z</time></trkpt><trkpt lat="43.30378171251001" lon="11.337082159445396"><ele>271.0</ele><time>2026-04-11T07:40:34Z</time></trkpt><trkpt lat="43.30368534164601" lon="11.337127642532849"><ele>270.8</ele><time>2026-04-11T07:40:35Z</time></trkpt><trkpt lat="43.303585633560225" lon="11.337166338315093"><ele>270.6</ele><time>2026-04-11T07:40:36Z</time></trkpt><trkpt lat="43.30350106380382" lon="11.3372190615589"><ele>270.4</ele><time>2026-04-11T07:40:37Z</time></trkpt><trkpt lat="43.303399873142666" lon="11.33726318388997"><ele>270.2</ele><time>2026-04-11T07:40:38Z</time></trkpt><trkpt lat="43.30328776122982" lon="11.337306813588171"><ele>270.0</ele><time>2026-04-11T07:40:39Z</time></trkpt><trkpt lat="43.3031823076328" lon="11.337352968546684"><ele>269.6</ele><time>2026-04-11T07:40:40Z</time></trkpt><trkpt lat="43.30307872833387" lon="11.337406012226312"><ele>269.2</ele><time>2026-04-11T07:40:41Z</time></trkpt><trkpt lat="43.302969536044664" lon="11.337460915552306"><ele>268.8</ele><time>2026-04-11T07:40:42Z</time></trkpt><trkpt lat="43.30287382097236" lon="11.33752268940764"><ele>268.4</ele><time>2026-04-11T07:40:43Z</time></trkpt><trkpt lat="43.302777727254835" lon="11.33758938207885"><ele>268.0</ele><time>2026-04-11T07:40:44Z</time></trkpt><trkpt lat="43.30268482281183" lon="11.337665081476219"><ele>268.0</ele><time>2026-04-11T07:40:45Z</time></trkpt><trkpt lat="43.302577786573885" lon="11.337739691262595"><ele>268.0</ele><time>2026-04-11T07:40:46Z</time></trkpt><trkpt lat="43.30248000159701" lon="11.337812265304121"><ele>268.0</ele><time>2026-04-11T07:40:47Z</time></trkpt><trkpt lat="43.30237696699202" lon="11.337874678181107"><ele>268.0</ele><time>2026-04-11T07:40:48Z</time></trkpt><trkpt lat="43.30225122470686" lon="11.337906269429997"><ele>264.0</ele><time>2026-04-11T07:40:49Z</time></trkpt><trkpt lat="43.302133108643766" lon="11.3379306306429"><ele>260.0</ele><time>2026-04-11T07:40:50Z</time></trkpt><trkpt lat="43.30201291505095" lon="11.33796226897007"><ele>256.0</ele><time>2026-04-11T07:40:51Z</time></trkpt><trkpt lat="43.301769772497046" lon="11.338008794619173"><ele>256.0</ele><time>2026-04-11T07:40:53Z</time></trkpt><trkpt lat="43.30164746530046" lon="11.338015212500055"><ele>256.0</ele><time>2026-04-11T07:40:54Z</time></trkpt><trkpt lat="43.30152058581309" lon="11.338004309625562"><ele>256.0</ele><time>2026-04-11T07:40:55Z</time></trkpt><trkpt lat="43.301403474235094" lon="11.337969202875453"><ele>256.0</ele><time>2026-04-11T07:40:56Z</time></trkpt><trkpt lat="43.30128689773154" lon="11.337923403646315"><ele>255.25</ele><time>2026-04-11T07:40:57Z</time></trkpt><trkpt lat="43.3011824187408" lon="11.337856986199865"><ele>254.5</ele><time>2026-04-11T07:40:58Z</time></trkpt><trkpt lat="43.30107949292929" lon="11.337789989599022"><ele>253.75</ele><time>2026-04-11T07:40:59Z</time></trkpt><trkpt lat="43.30098464032507" lon="11.337703259919563"><ele>253.0</ele><time>2026-04-11T07:41:00Z</time></trkpt><trkpt lat="43.30088922482038" lon="11.337620777228308"><ele>253.0</ele><time>2026-04-11T07:41:01Z</time></trkpt><trkpt lat="43.30079715390432" lon="11.337530138689047"><ele>253.0</ele><time>2026-04-11T07:41:02Z</time></trkpt><trkpt lat="43.30070569958197" lon="11.337450205532447"><ele>253.0</ele><time>2026-04-11T07:41:03Z</time></trkpt><trkpt lat="43.30060907643246" lon="11.337377725931438"><ele>253.0</ele><time>2026-04-11T07:41:04Z</time></trkpt><trkpt lat="43.30051407451975" lon="11.337320137886623"><ele>253.0</ele><time>2026-04-11T07:41:05Z</time></trkpt><trkpt lat="43.30041241142534" lon="11.337275390092813"><ele>253.2</ele><time>2026-04-11T07:41:06Z</time></trkpt><trkpt lat="43.300311269162805" lon="11.337240654778693"><ele>253.4</ele><time>2026-04-11T07:41:07Z</time></trkpt><trkpt lat="43.3002051461747" lon="11.337212351010582"><ele>253.59999999999997</ele><time>2026-04-11T07:41:08Z</time></trkpt><trkpt lat="43.300093857014275" lon="11.33718908219494"><ele>253.79999999999998</ele><time>2026-04-11T07:41:09Z</time></trkpt><trkpt lat="43.29998708848814" lon="11.337174889438899"><ele>254.0</ele><time>2026-04-11T07:41:10Z</time></trkpt><trkpt lat="43.29988029415075" lon="11.337155315641885"><ele>252.5</ele><time>2026-04-11T07:41:11Z</time></trkpt><trkpt lat="43.29977595572394" lon="11.33713975636611"><ele>251.0</ele><time>2026-04-11T07:41:12Z</time></trkpt><trkpt lat="43.299569822867156" lon="11.337142559940014"><ele>249.5</ele><time>2026-04-11T07:41:14Z</time></trkpt><trkpt lat="43.299468834657716" lon="11.337146951277509"><ele>248.0</ele><time>2026-04-11T07:41:15Z</time></trkpt><trkpt lat="43.29936328968151" lon="11.337167885029318"><ele>248.0</ele><time>2026-04-11T07:41:16Z</time></trkpt><trkpt lat="43.299256254620865" lon="11.337184928735061"><ele>248.0</ele><time>2026-04-11T07:41:17Z</time></trkpt><trkpt lat="43.299160914376266" lon="11.337212541026235"><ele>248.0</ele><time>2026-04-11T07:41:18Z</time></trkpt><trkpt lat="43.29905510444522" lon="11.337239633242449"><ele>248.0</ele><time>2026-04-11T07:41:19Z</time></trkpt><trkpt lat="43.29894928523969" lon="11.337268718113075"><ele>248.0</ele><time>2026-04-11T07:41:20Z</time></trkpt><trkpt lat="43.29884754778417" lon="11.337299236705979"><ele>247.2</ele><time>2026-04-11T07:41:21Z</time></trkpt><trkpt lat="43.29874707765899" lon="11.337345771627682"><ele>246.4</ele><time>2026-04-11T07:41:22Z</time></trkpt><trkpt lat="43.298649429620205" lon="11.33740379515921"><ele>245.59999999999997</ele><time>2026-04-11T07:41:23Z</time></trkpt><trkpt lat="43.298550846358474" lon="11.337469326003687"><ele>244.79999999999998</ele><time>2026-04-11T07:41:24Z</time></trkpt><trkpt lat="43.298454893848586" lon="11.337542446612645"><ele>244.0</ele><time>2026-04-11T07:41:25Z</time></trkpt><trkpt lat="43.29835421904148" lon="11.337618894244862"><ele>244.0</ele><time>2026-04-11T07:41:26Z</time></trkpt><trkpt lat="43.2982653220959" lon="11.337710037626241"><ele>244.0</ele><time>2026-04-11T07:41:27Z</time></trkpt><trkpt lat="43.298174363684645" lon="11.337815412101007"><ele>244.0</ele><time>2026-04-11T07:41:28Z</time></trkpt><trkpt lat="43.29808851578836" lon="11.337933400544276"><ele>244.0</ele><time>2026-04-11T07:41:29Z</time></trkpt><trkpt lat="43.29801617108538" lon="11.338056023337879"><ele>243.25</ele><time>2026-04-11T07:41:30Z</time></trkpt><trkpt lat="43.2979318444319" lon="11.3381756809267"><ele>242.5</ele><time>2026-04-11T07:41:31Z</time></trkpt><trkpt lat="43.29785416262682" lon="11.338297384038063"><ele>241.75</ele><time>2026-04-11T07:41:32Z</time></trkpt><trkpt lat="43.29776989283573" lon="11.33841454491927"><ele>241.0</ele><time>2026-04-11T07:41:33Z</time></trkpt><trkpt lat="43.29760399539804" lon="11.338646570552967"><ele>241.0</ele><time>2026-04-11T07:41:35Z</time></trkpt><trkpt lat="43.29752469552723" lon="11.338763570584126"><ele>241.0</ele><time>2026-04-11T07:41:36Z</time></trkpt><trkpt lat="43.29744418799872" lon="11.338868311201782"><ele>241.0</ele><time>2026-04-11T07:41:37Z</time></trkpt><trkpt lat="43.29735969461535" lon="11.338974740445009"><ele>241.0</ele><time>2026-04-11T07:41:38Z</time></trkpt><trkpt lat="43.29727695156595" lon="11.339071614740853"><ele>240.8</ele><time>2026-04-11T07:41:39Z</time></trkpt><trkpt lat="43.29719331710235" lon="11.339173721789342"><ele>240.60000000000002</ele><time>2026-04-11T07:41:40Z</time></trkpt><trkpt lat="43.29711548346362" lon="11.339278730037899"><ele>240.4</ele><time>2026-04-11T07:41:41Z</time></trkpt><trkpt lat="43.29703334315675" lon="11.339372180788631"><ele>240.2</ele><time>2026-04-11T07:41:42Z</time></trkpt><trkpt lat="43.29695127305908" lon="11.339472359400299"><ele>240.0</ele><time>2026-04-11T07:41:43Z</time></trkpt><trkpt lat="43.29688365546047" lon="11.33957668720361"><ele>240.0</ele><time>2026-04-11T07:41:44Z</time></trkpt><trkpt lat="43.296818046137076" lon="11.33968249160927"><ele>240.0</ele><time>2026-04-11T07:41:45Z</time></trkpt><trkpt lat="43.296751441043995" lon="11.339785835626754"><ele>240.0</ele><time>2026-04-11T07:41:46Z</time></trkpt><trkpt lat="43.29668221757552" lon="11.33988324361425"><ele>240.0</ele><time>2026-04-11T07:41:47Z</time></trkpt><trkpt lat="43.29662061314586" lon="11.339991949476323"><ele>240.0</ele><time>2026-04-11T07:41:48Z</time></trkpt><trkpt lat="43.2965640961756" lon="11.340097914225073"><ele>240.4</ele><time>2026-04-11T07:41:49Z</time></trkpt><trkpt lat="43.29650712459951" lon="11.34020208860095"><ele>240.8</ele><time>2026-04-11T07:41:50Z</time></trkpt><trkpt lat="43.296453380730895" lon="11.340304695245347"><ele>241.2</ele><time>2026-04-11T07:41:51Z</time></trkpt><trkpt lat="43.29640360060254" lon="11.340406947342734"><ele>241.6</ele><time>2026-04-11T07:41:52Z</time></trkpt><trkpt lat="43.29635641761613" lon="11.340509941719448"><ele>242.0</ele><time>2026-04-11T07:41:53Z</time></trkpt><trkpt lat="43.296312631934065" lon="11.340609684139384"><ele>242.6</ele><time>2026-04-11T07:41:54Z</time></trkpt><trkpt lat="43.29622922399307" lon="11.340807743951672"><ele>243.2</ele><time>2026-04-11T07:41:56Z</time></trkpt><trkpt lat="43.29618578123254" lon="11.34090099323106"><ele>243.8</ele><time>2026-04-11T07:41:57Z</time></trkpt><trkpt lat="43.29614955332658" lon="11.340996060287535"><ele>244.4</ele><time>2026-04-11T07:41:58Z</time></trkpt><trkpt lat="43.2961088495626" lon="11.34109009127807"><ele>245.0</ele><time>2026-04-11T07:41:59Z</time></trkpt><trkpt lat="43.296075718888666" lon="11.341181361319668"><ele>245.0</ele><time>2026-04-11T07:42:00Z</time></trkpt><trkpt lat="43.29604030911375" lon="11.34127228698733"><ele>245.0</ele><time>2026-04-11T07:42:01Z</time></trkpt><trkpt lat="43.29599909530318" lon="11.341361733242357"><ele>245.0</ele><time>2026-04-11T07:42:02Z</time></trkpt><trkpt lat="43.29595466782652" lon="11.341444356690634"><ele>245.0</ele><time>2026-04-11T07:42:03Z</time></trkpt><trkpt lat="43.29590978896709" lon="11.341527955043546"><ele>245.0</ele><time>2026-04-11T07:42:04Z</time></trkpt><trkpt lat="43.295873235983905" lon="11.341614484982319"><ele>245.0</ele><time>2026-04-11T07:42:05Z</time></trkpt><trkpt lat="43.295844790120405" lon="11.341698778728999"><ele>245.0</ele><time>2026-04-11T07:42:06Z</time></trkpt><trkpt lat="43.29581051261192" lon="11.34177925139579"><ele>245.0</ele><time>2026-04-11T07:42:07Z</time></trkpt><trkpt lat="43.29577247866224" lon="11.341857200058687"><ele>245.0</ele><time>2026-04-11T07:42:08Z</time></trkpt><trkpt lat="43.29572789323153" lon="11.341935169146714"><ele>245.0</ele><time>2026-04-11T07:42:09Z</time></trkpt><trkpt lat="43.2956804938005" lon="11.342008831710965"><ele>245.0</ele><time>2026-04-11T07:42:10Z</time></trkpt><trkpt lat="43.29562467256045" lon="11.34207366483599"><ele>245.0</ele><time>2026-04-11T07:42:11Z</time></trkpt><trkpt lat="43.295566602945414" lon="11.342137837077093"><ele>245.0</ele><time>2026-04-11T07:42:12Z</time></trkpt><trkpt lat="43.29550814249794" lon="11.342199855176887"><ele>245.0</ele><time>2026-04-11T07:42:13Z</time></trkpt><trkpt lat="43.29544723071308" lon="11.342273843365666"><ele>245.0</ele><time>2026-04-11T07:42:14Z</time></trkpt><trkpt lat="43.29538650415746" lon="11.342331173085537"><ele>245.0</ele><time>2026-04-11T07:42:15Z</time></trkpt><trkpt lat="43.29525378975785" lon="11.342450877489274"><ele>245.0</ele><time>2026-04-11T07:42:17Z</time></trkpt><trkpt lat="43.295180089557554" lon="11.342504764661246"><ele>245.0</ele><time>2026-04-11T07:42:18Z</time></trkpt><trkpt lat="43.2951114187493" lon="11.342565257762764"><ele>245.0</ele><time>2026-04-11T07:42:19Z</time></trkpt><trkpt lat="43.29502721168248" lon="11.342593779991908"><ele>245.00000000000003</ele><time>2026-04-11T07:42:20Z</time></trkpt><trkpt lat="43.29495083936724" lon="11.342635702326868"><ele>245.0</ele><time>2026-04-11T07:42:21Z</time></trkpt><trkpt lat="43.29487291637627" lon="11.342681373932928"><ele>245.0</ele><time>2026-04-11T07:42:22Z</time></trkpt><trkpt lat="43.294796300068235" lon="11.34271501092195"><ele>245.0</ele><time>2026-04-11T07:42:23Z</time></trkpt><trkpt lat="43.29471988890543" lon="11.342766013692511"><ele>245.00000000000003</ele><time>2026-04-11T07:42:24Z</time></trkpt><trkpt lat="43.29463515164518" lon="11.342809651195127"><ele>245.0</ele><time>2026-04-11T07:42:25Z</time></trkpt><trkpt lat="43.294557205786845" lon="11.34285114440466"><ele>244.83333333333334</ele><time>2026-04-11T07:42:26Z</time></trkpt><trkpt lat="43.294479575225424" lon="11.34289127259116"><ele>244.66666666666669</ele><time>2026-04-11T07:42:27Z</time></trkpt><trkpt lat="43.29440070985355" lon="11.34293488553164"><ele>244.5</ele><time>2026-04-11T07:42:28Z</time></trkpt><trkpt lat="43.2942989695138" lon="11.342960586737483"><ele>244.33333333333331</ele><time>2026-04-11T07:42:29Z</time></trkpt><trkpt lat="43.29423015500038" lon="11.342999433787567"><ele>244.16666666666666</ele><time>2026-04-11T07:42:30Z</time></trkpt><trkpt lat="43.294151636322766" lon="11.343034220569814"><ele>244.0</ele><time>2026-04-11T07:42:31Z</time></trkpt><trkpt lat="43.2940746603092" lon="11.343061263487032"><ele>244.0</ele><time>2026-04-11T07:42:32Z</time></trkpt><trkpt lat="43.293993897411006" lon="11.343087987092112"><ele>243.99999999999997</ele><time>2026-04-11T07:42:33Z</time></trkpt><trkpt lat="43.2939155649238" lon="11.343109066639396"><ele>243.99999999999997</ele><time>2026-04-11T07:42:34Z</time></trkpt><trkpt lat="43.29382745996382" lon="11.343125790493007"><ele>244.0</ele><time>2026-04-11T07:42:35Z</time></trkpt><trkpt lat="43.29374835676969" lon="11.343145063902302"><ele>244.0</ele><time>2026-04-11T07:42:36Z</time></trkpt><trkpt lat="43.29358275475529" lon="11.34318993468726"><ele>243.83333333333331</ele><time>2026-04-11T07:42:38Z</time></trkpt><trkpt lat="43.29350932780346" lon="11.343209098052794"><ele>243.66666666666666</ele><time>2026-04-11T07:42:39Z</time></trkpt><trkpt lat="43.29343110283259" lon="11.34322792721735"><ele>243.5</ele><time>2026-04-11T07:42:40Z</time></trkpt><trkpt lat="43.29335015023215" lon="11.343251451484486"><ele>243.33333333333331</ele><time>2026-04-11T07:42:41Z</time></trkpt><trkpt lat="43.293274096033706" lon="11.343270736567039"><ele>243.16666666666666</ele><time>2026-04-11T07:42:42Z</time></trkpt><trkpt lat="43.29320082892181" lon="11.34329074621693"><ele>243.0</ele><time>2026-04-11T07:42:43Z</time></trkpt><trkpt lat="43.293131035613676" lon="11.343314675158702"><ele>243.57142857142856</ele><time>2026-04-11T07:42:44Z</time></trkpt><trkpt lat="43.29306053595148" lon="11.343334741557806"><ele>244.14285714285717</ele><time>2026-04-11T07:42:45Z</time></trkpt><trkpt lat="43.29299199497096" lon="11.343358403158996"><ele>244.71428571428572</ele><time>2026-04-11T07:42:46Z</time></trkpt><trkpt lat="43.29292497774619" lon="11.34337741167025"><ele>245.28571428571428</ele><time>2026-04-11T07:42:47Z</time></trkpt><trkpt lat="43.292861343557405" lon="11.343402259788858"><ele>245.85714285714283</ele><time>2026-04-11T07:42:48Z</time></trkpt><trkpt lat="43.29279635118671" lon="11.343423501477078"><ele>246.42857142857144</ele><time>2026-04-11T07:42:49Z</time></trkpt><trkpt lat="43.29273327842654" lon="11.343449127109173"><ele>247.0</ele><time>2026-04-11T07:42:50Z</time></trkpt><trkpt lat="43.29266993160024" lon="11.343474430544749"><ele>246.99999999999997</ele><time>2026-04-11T07:42:51Z</time></trkpt><trkpt lat="43.2926065890602" lon="11.343512243598068"><ele>247.0</ele><time>2026-04-11T07:42:52Z</time></trkpt><trkpt lat="43.292484245410265" lon="11.343552366943172"><ele>247.0</ele><time>2026-04-11T07:42:54Z</time></trkpt><trkpt lat="43.29242000853055" lon="11.343579948037256"><ele>247.0</ele><time>2026-04-11T07:42:55Z</time></trkpt><trkpt lat="43.292354686720415" lon="11.343604849976336"><ele>246.99999999999997</ele><time>2026-04-11T07:42:56Z</time></trkpt><trkpt lat="43.2922908737601" lon="11.343628897166742"><ele>247.0</ele><time>2026-04-11T07:42:57Z</time></trkpt><trkpt lat="43.2920418456233" lon="11.343726360478987"><ele>246.49999999999997</ele><time>2026-04-11T07:43:01Z</time></trkpt><trkpt lat="43.29197953639246" lon="11.343742771591788"><ele>246.0</ele><time>2026-04-11T07:43:02Z</time></trkpt><trkpt lat="43.29191601586149" lon="11.343758999727005"><ele>245.5</ele><time>2026-04-11T07:43:03Z</time></trkpt><trkpt lat="43.29184987647273" lon="11.343772049457451"><ele>245.0</ele><time>2026-04-11T07:43:04Z</time></trkpt><trkpt lat="43.29172622555694" lon="11.343790181960168"><ele>244.49999999999997</ele><time>2026-04-11T07:43:06Z</time></trkpt><trkpt lat="43.29160624408204" lon="11.343806781452793"><ele>244.0</ele><time>2026-04-11T07:43:08Z</time></trkpt><trkpt lat="43.29154030724617" lon="11.343828353656667"><ele>244.0</ele><time>2026-04-11T07:43:09Z</time></trkpt><trkpt lat="43.29141327390582" lon="11.343847570279344"><ele>243.99999999999997</ele><time>2026-04-11T07:43:11Z</time></trkpt><trkpt lat="43.29134663548521" lon="11.343856057701093"><ele>243.99999999999997</ele><time>2026-04-11T07:43:12Z</time></trkpt><trkpt lat="43.29123029515165" lon="11.343872694855392"><ele>244.0</ele><time>2026-04-11T07:43:14Z</time></trkpt><trkpt lat="43.291109623386305" lon="11.343886906872777"><ele>244.0</ele><time>2026-04-11T07:43:16Z</time></trkpt><trkpt lat="43.29098760447756" lon="11.343887358575111"><ele>244.0</ele><time>2026-04-11T07:43:18Z</time></trkpt><trkpt lat="43.2908185431918" lon="11.343902971623077"><ele>244.0</ele><time>2026-04-11T07:43:21Z</time></trkpt><trkpt lat="43.29074739566583" lon="11.343905897123548"><ele>244.0</ele><time>2026-04-11T07:43:22Z</time></trkpt><trkpt lat="43.29062248090344" lon="11.343913032725618"><ele>244.0</ele><time>2026-04-11T07:43:24Z</time></trkpt><trkpt lat="43.29049642740203" lon="11.343892371341381"><ele>244.49999999999997</ele><time>2026-04-11T07:43:26Z</time></trkpt><trkpt lat="43.290372261873614" lon="11.34386723852324"><ele>245.0</ele><time>2026-04-11T07:43:28Z</time></trkpt><trkpt lat="43.290306340413245" lon="11.343855926857179"><ele>245.5</ele><time>2026-04-11T07:43:29Z</time></trkpt><trkpt lat="43.290237751529666" lon="11.343862595893915"><ele>246.0</ele><time>2026-04-11T07:43:30Z</time></trkpt><trkpt lat="43.29012761316068" lon="11.343816077222925"><ele>246.49999999999997</ele><time>2026-04-11T07:43:32Z</time></trkpt><trkpt lat="43.29006604130002" lon="11.343793931956597"><ele>247.0</ele><time>2026-04-11T07:43:33Z</time></trkpt><trkpt lat="43.2899520094696" lon="11.343759698793988"><ele>247.0</ele><time>2026-04-11T07:43:35Z</time></trkpt><trkpt lat="43.28983621301743" lon="11.343725646492093"><ele>247.0</ele><time>2026-04-11T07:43:37Z</time></trkpt><trkpt lat="43.289726147466354" lon="11.343690140993981"><ele>247.0</ele><time>2026-04-11T07:43:39Z</time></trkpt><trkpt lat="43.2895099201277" lon="11.343706378747003"><ele>247.0</ele><time>2026-04-11T07:43:43Z</time></trkpt><trkpt lat="43.28944717973515" lon="11.34372009774251"><ele>247.2</ele><time>2026-04-11T07:43:44Z</time></trkpt><trkpt lat="43.289384127605224" lon="11.343721922508044"><ele>247.39999999999998</ele><time>2026-04-11T07:43:45Z</time></trkpt><trkpt lat="43.28926694493037" lon="11.343747238595316"><ele>247.60000000000002</ele><time>2026-04-11T07:43:47Z</time></trkpt><trkpt lat="43.2891463153633" lon="11.343777359097592"><ele>247.8</ele><time>2026-04-11T07:43:49Z</time></trkpt><trkpt lat="43.28907639492419" lon="11.343789117543592"><ele>248.0</ele><time>2026-04-11T07:43:50Z</time></trkpt><trkpt lat="43.28896547994375" lon="11.343825610554621"><ele>248.00000000000003</ele><time>2026-04-11T07:43:52Z</time></trkpt><trkpt lat="43.288835925935324" lon="11.343839807402995"><ele>248.0</ele><time>2026-04-11T07:43:54Z</time></trkpt><trkpt lat="43.288766099767315" lon="11.343850049320949"><ele>248.0</ele><time>2026-04-11T07:43:55Z</time></trkpt><trkpt lat="43.288704195719525" lon="11.343869021705684"><ele>248.0</ele><time>2026-04-11T07:43:56Z</time></trkpt><trkpt lat="43.2886378954538" lon="11.343881465227918"><ele>248.00000000000003</ele><time>2026-04-11T07:43:57Z</time></trkpt><trkpt lat="43.288570010120765" lon="11.34389967849553"><ele>248.0</ele><time>2026-04-11T07:43:58Z</time></trkpt><trkpt lat="43.288501875694095" lon="11.343921316987197"><ele>248.00000000000003</ele><time>2026-04-11T07:43:59Z</time></trkpt><trkpt lat="43.28843216045214" lon="11.343935923433541"><ele>248.0</ele><time>2026-04-11T07:44:00Z</time></trkpt><trkpt lat="43.28829965059813" lon="11.343969851355011"><ele>248.0</ele><time>2026-04-11T07:44:02Z</time></trkpt><trkpt lat="43.28822989905468" lon="11.343985010782283"><ele>248.0</ele><time>2026-04-11T07:44:03Z</time></trkpt><trkpt lat="43.28815659333971" lon="11.34402311616566"><ele>248.00000000000003</ele><time>2026-04-11T07:44:04Z</time></trkpt><trkpt lat="43.28808497126821" lon="11.344052184881704"><ele>248.0</ele><time>2026-04-11T07:44:05Z</time></trkpt><trkpt lat="43.288015613205005" lon="11.344083162357098"><ele>248.0</ele><time>2026-04-11T07:44:06Z</time></trkpt><trkpt lat="43.28794702720314" lon="11.344115502302149"><ele>248.00000000000003</ele><time>2026-04-11T07:44:07Z</time></trkpt><trkpt lat="43.28787662380943" lon="11.344151751092078"><ele>248.0</ele><time>2026-04-11T07:44:08Z</time></trkpt><trkpt lat="43.28781127074544" lon="11.344197224442368"><ele>248.0</ele><time>2026-04-11T07:44:09Z</time></trkpt><trkpt lat="43.2877480182" lon="11.344249213720293"><ele>248.00000000000003</ele><time>2026-04-11T07:44:10Z</time></trkpt><trkpt lat="43.287687972636874" lon="11.344310789910587"><ele>248.0</ele><time>2026-04-11T07:44:11Z</time></trkpt><trkpt lat="43.28763404595941" lon="11.344367816024473"><ele>248.0</ele><time>2026-04-11T07:44:12Z</time></trkpt><trkpt lat="43.28758444814984" lon="11.344427297092464"><ele>248.00000000000003</ele><time>2026-04-11T07:44:13Z</time></trkpt><trkpt lat="43.28753988838132" lon="11.344496708038385"><ele>248.0</ele><time>2026-04-11T07:44:14Z</time></trkpt><trkpt lat="43.28748181156243" lon="11.344568326833537"><ele>248.0</ele><time>2026-04-11T07:44:15Z</time></trkpt><trkpt lat="43.28743900403485" lon="11.344665381851053"><ele>248.0</ele><time>2026-04-11T07:44:16Z</time></trkpt><trkpt lat="43.28737653356407" lon="11.344723450706942"><ele>248.00000000000003</ele><time>2026-04-11T07:44:17Z</time></trkpt><trkpt lat="43.28731979924393" lon="11.344803689068671"><ele>248.0</ele><time>2026-04-11T07:44:18Z</time></trkpt><trkpt lat="43.287266198548075" lon="11.344868879360105"><ele>247.2</ele><time>2026-04-11T07:44:19Z</time></trkpt><trkpt lat="43.2872124062891" lon="11.344951405078266"><ele>246.4</ele><time>2026-04-11T07:44:20Z</time></trkpt><trkpt lat="43.287164803478944" lon="11.345040200926388"><ele>245.59999999999997</ele><time>2026-04-11T07:44:21Z</time></trkpt><trkpt lat="43.28706482378791" lon="11.345206687097921"><ele>244.79999999999998</ele><time>2026-04-11T07:44:23Z</time></trkpt><trkpt lat="43.28702224193859" lon="11.345299347763342"><ele>244.0</ele><time>2026-04-11T07:44:24Z</time></trkpt><trkpt lat="43.28697757928959" lon="11.345385357952134"><ele>243.99999999999997</ele><time>2026-04-11T07:44:25Z</time></trkpt><trkpt lat="43.286939085224994" lon="11.345478190456133"><ele>244.0</ele><time>2026-04-11T07:44:26Z</time></trkpt><trkpt lat="43.28689763581051" lon="11.345557701850655"><ele>244.0</ele><time>2026-04-11T07:44:27Z</time></trkpt><trkpt lat="43.286857919966515" lon="11.345654626338586"><ele>244.0</ele><time>2026-04-11T07:44:28Z</time></trkpt><trkpt lat="43.286835005403574" lon="11.345753287455704"><ele>243.99999999999997</ele><time>2026-04-11T07:44:29Z</time></trkpt><trkpt lat="43.28680170912884" lon="11.345851187193027"><ele>244.0</ele><time>2026-04-11T07:44:30Z</time></trkpt><trkpt lat="43.28677644149184" lon="11.345955285847348"><ele>244.16666666666666</ele><time>2026-04-11T07:44:31Z</time></trkpt><trkpt lat="43.286752015069105" lon="11.346059940532497"><ele>244.33333333333331</ele><time>2026-04-11T07:44:32Z</time></trkpt><trkpt lat="43.28673582121733" lon="11.346168082891767"><ele>244.5</ele><time>2026-04-11T07:44:33Z</time></trkpt><trkpt lat="43.28672213358361" lon="11.346271274357957"><ele>244.66666666666669</ele><time>2026-04-11T07:44:34Z</time></trkpt><trkpt lat="43.28670881247429" lon="11.346375643117913"><ele>244.83333333333334</ele><time>2026-04-11T07:44:35Z</time></trkpt><trkpt lat="43.286701857671865" lon="11.346480362605444"><ele>245.0</ele><time>2026-04-11T07:44:36Z</time></trkpt><trkpt lat="43.286694258741434" lon="11.346584275867809"><ele>244.33333333333334</ele><time>2026-04-11T07:44:37Z</time></trkpt><trkpt lat="43.28668886584994" lon="11.346689419127411"><ele>243.66666666666669</ele><time>2026-04-11T07:44:38Z</time></trkpt><trkpt lat="43.2866827606174" lon="11.346794796521115"><ele>243.0</ele><time>2026-04-11T07:44:39Z</time></trkpt><trkpt lat="43.286679400921436" lon="11.346898980475713"><ele>242.33333333333331</ele><time>2026-04-11T07:44:40Z</time></trkpt><trkpt lat="43.28666908926326" lon="11.347002197259926"><ele>241.66666666666666</ele><time>2026-04-11T07:44:41Z</time></trkpt><trkpt lat="43.28666105107401" lon="11.347108532453802"><ele>241.0</ele><time>2026-04-11T07:44:42Z</time></trkpt><trkpt lat="43.286631722805716" lon="11.347324449286244"><ele>240.99999999999997</ele><time>2026-04-11T07:44:44Z</time></trkpt><trkpt lat="43.286611888345725" lon="11.34743492904415"><ele>241.0</ele><time>2026-04-11T07:44:45Z</time></trkpt><trkpt lat="43.286583462149196" lon="11.34754307974006"><ele>241.0</ele><time>2026-04-11T07:44:46Z</time></trkpt><trkpt lat="43.28655771386683" lon="11.347648301342485"><ele>241.0</ele><time>2026-04-11T07:44:47Z</time></trkpt><trkpt lat="43.28653476698118" lon="11.347759733230006"><ele>240.99999999999997</ele><time>2026-04-11T07:44:48Z</time></trkpt><trkpt lat="43.28649827097948" lon="11.347872173606419"><ele>241.0</ele><time>2026-04-11T07:44:49Z</time></trkpt><trkpt lat="43.28646650835302" lon="11.34798220942139"><ele>241.20000000000002</ele><time>2026-04-11T07:44:50Z</time></trkpt><trkpt lat="43.28643105117725" lon="11.348095030046988"><ele>241.40000000000003</ele><time>2026-04-11T07:44:51Z</time></trkpt><trkpt lat="43.286395030955546" lon="11.34821050461828"><ele>241.6</ele><time>2026-04-11T07:44:52Z</time></trkpt><trkpt lat="43.286354399625914" lon="11.348327873615425"><ele>241.8</ele><time>2026-04-11T07:44:53Z</time></trkpt><trkpt lat="43.28630936116472" lon="11.348454857070564"><ele>242.0</ele><time>2026-04-11T07:44:54Z</time></trkpt><trkpt lat="43.286268282241295" lon="11.348574331524183"><ele>240.39999999999998</ele><time>2026-04-11T07:44:55Z</time></trkpt><trkpt lat="43.28621294585961" lon="11.348690432192685"><ele>238.79999999999998</ele><time>2026-04-11T07:44:56Z</time></trkpt><trkpt lat="43.28616660903416" lon="11.348811329241022"><ele>237.2</ele><time>2026-04-11T07:44:57Z</time></trkpt><trkpt lat="43.28611910091883" lon="11.348932455185874"><ele>235.6</ele><time>2026-04-11T07:44:58Z</time></trkpt><trkpt lat="43.28606672531359" lon="11.349050802465971"><ele>234.0</ele><time>2026-04-11T07:44:59Z</time></trkpt><trkpt lat="43.28601789617527" lon="11.349170428263502"><ele>234.0</ele><time>2026-04-11T07:45:00Z</time></trkpt><trkpt lat="43.28597408115473" lon="11.34929084733677"><ele>234.0</ele><time>2026-04-11T07:45:01Z</time></trkpt><trkpt lat="43.28592081990051" lon="11.349404655428824"><ele>234.0</ele><time>2026-04-11T07:45:02Z</time></trkpt><trkpt lat="43.285872747976526" lon="11.349518929579475"><ele>234.0</ele><time>2026-04-11T07:45:03Z</time></trkpt><trkpt lat="43.285783919172275" lon="11.349745708524107"><ele>234.16666666666666</ele><time>2026-04-11T07:45:05Z</time></trkpt><trkpt lat="43.2857418377533" lon="11.349855506554915"><ele>234.33333333333331</ele><time>2026-04-11T07:45:06Z</time></trkpt><trkpt lat="43.285706339840544" lon="11.34996570526448"><ele>234.5</ele><time>2026-04-11T07:45:07Z</time></trkpt><trkpt lat="43.28566544108052" lon="11.35007488898483"><ele>234.66666666666666</ele><time>2026-04-11T07:45:08Z</time></trkpt><trkpt lat="43.285625680464406" lon="11.35018039058512"><ele>234.83333333333331</ele><time>2026-04-11T07:45:09Z</time></trkpt><trkpt lat="43.28558713375716" lon="11.350287395870108"><ele>235.0</ele><time>2026-04-11T07:45:10Z</time></trkpt><trkpt lat="43.28555633162596" lon="11.350390892874431"><ele>235.49999999999997</ele><time>2026-04-11T07:45:11Z</time></trkpt><trkpt lat="43.28552161458092" lon="11.350493277865816"><ele>236.0</ele><time>2026-04-11T07:45:12Z</time></trkpt><trkpt lat="43.285489811159636" lon="11.35059604776921"><ele>236.5</ele><time>2026-04-11T07:45:13Z</time></trkpt><trkpt lat="43.28545286982231" lon="11.350693775662902"><ele>237.0</ele><time>2026-04-11T07:45:14Z</time></trkpt><trkpt lat="43.28542194962461" lon="11.350795446763707"><ele>237.49999999999997</ele><time>2026-04-11T07:45:15Z</time></trkpt><trkpt lat="43.28539294638985" lon="11.35089542907159"><ele>238.0</ele><time>2026-04-11T07:45:16Z</time></trkpt><trkpt lat="43.28536357465982" lon="11.350993099359334"><ele>237.99999999999997</ele><time>2026-04-11T07:45:17Z</time></trkpt><trkpt lat="43.285329986779274" lon="11.351091696153693"><ele>238.0</ele><time>2026-04-11T07:45:18Z</time></trkpt><trkpt lat="43.28529951493875" lon="11.351193315511193"><ele>238.0</ele><time>2026-04-11T07:45:19Z</time></trkpt><trkpt lat="43.28527383737097" lon="11.351290315150479"><ele>238.0</ele><time>2026-04-11T07:45:20Z</time></trkpt><trkpt lat="43.28524255704473" lon="11.35138712343009"><ele>237.99999999999997</ele><time>2026-04-11T07:45:21Z</time></trkpt><trkpt lat="43.28521307162636" lon="11.351485507307787"><ele>238.0</ele><time>2026-04-11T07:45:22Z</time></trkpt><trkpt lat="43.28518611381064" lon="11.351579460426104"><ele>237.99999999999997</ele><time>2026-04-11T07:45:23Z</time></trkpt><trkpt lat="43.285147988005825" lon="11.351673678401017"><ele>238.0</ele><time>2026-04-11T07:45:24Z</time></trkpt><trkpt lat="43.285091684677276" lon="11.351863059730395"><ele>238.0</ele><time>2026-04-11T07:45:26Z</time></trkpt><trkpt lat="43.28506801319584" lon="11.351958070617437"><ele>238.0</ele><time>2026-04-11T07:45:27Z</time></trkpt><trkpt lat="43.28504259966327" lon="11.352051607309686"><ele>237.99999999999997</ele><time>2026-04-11T07:45:28Z</time></trkpt><trkpt lat="43.28501918036775" lon="11.352145209699907"><ele>238.0</ele><time>2026-04-11T07:45:29Z</time></trkpt><trkpt lat="43.284988356500335" lon="11.35223350558468"><ele>238.0</ele><time>2026-04-11T07:45:30Z</time></trkpt><trkpt lat="43.284964263601154" lon="11.35232502452115"><ele>238.0</ele><time>2026-04-11T07:45:31Z</time></trkpt><trkpt lat="43.28493359880708" lon="11.352407759668269"><ele>238.0</ele><time>2026-04-11T07:45:32Z</time></trkpt><trkpt lat="43.28489812668144" lon="11.352496827048931"><ele>238.0</ele><time>2026-04-11T07:45:33Z</time></trkpt><trkpt lat="43.28486082250529" lon="11.352583060100281"><ele>238.0</ele><time>2026-04-11T07:45:34Z</time></trkpt><trkpt lat="43.28482150732571" lon="11.352658782278283"><ele>238.0</ele><time>2026-04-11T07:45:35Z</time></trkpt><trkpt lat="43.28478157169413" lon="11.352737646509738"><ele>238.0</ele><time>2026-04-11T07:45:36Z</time></trkpt><trkpt lat="43.284734458256224" lon="11.352811150595196"><ele>237.71428571428572</ele><time>2026-04-11T07:45:37Z</time></trkpt><trkpt lat="43.28468677676079" lon="11.35288347770593"><ele>237.42857142857144</ele><time>2026-04-11T07:45:38Z</time></trkpt><trkpt lat="43.28463846930116" lon="11.352950744345508"><ele>237.14285714285714</ele><time>2026-04-11T07:45:39Z</time></trkpt><trkpt lat="43.284588224027516" lon="11.353014283351403"><ele>236.85714285714286</ele><time>2026-04-11T07:45:40Z</time></trkpt><trkpt lat="43.28453434091641" lon="11.353078199649785"><ele>236.57142857142858</ele><time>2026-04-11T07:45:41Z</time></trkpt><trkpt lat="43.2844746590484" lon="11.353120619176467"><ele>236.28571428571428</ele><time>2026-04-11T07:45:42Z</time></trkpt><trkpt lat="43.28442616976514" lon="11.353188319878639"><ele>236.0</ele><time>2026-04-11T07:45:43Z</time></trkpt><trkpt lat="43.28436440042608" lon="11.353248550810996"><ele>236.00000000000003</ele><time>2026-04-11T07:45:44Z</time></trkpt><trkpt lat="43.28430882777939" lon="11.353298311667766"><ele>236.0</ele><time>2026-04-11T07:45:45Z</time></trkpt><trkpt lat="43.284197749367266" lon="11.353400545570839"><ele>236.0</ele><time>2026-04-11T07:45:47Z</time></trkpt><trkpt lat="43.28414034671755" lon="11.353445004524946"><ele>236.0</ele><time>2026-04-11T07:45:48Z</time></trkpt><trkpt lat="43.28407608492049" lon="11.353475392035866"><ele>236.00000000000003</ele><time>2026-04-11T07:45:49Z</time></trkpt><trkpt lat="43.284013789779834" lon="11.353506546699078"><ele>236.0</ele><time>2026-04-11T07:45:50Z</time></trkpt><trkpt lat="43.28393759683421" lon="11.353522609158441"><ele>236.4</ele><time>2026-04-11T07:45:51Z</time></trkpt><trkpt lat="43.283859556838124" lon="11.353531261139535"><ele>236.8</ele><time>2026-04-11T07:45:52Z</time></trkpt><trkpt lat="43.28379537808363" lon="11.353566803412932"><ele>237.20000000000002</ele><time>2026-04-11T07:45:53Z</time></trkpt><trkpt lat="43.28373080779275" lon="11.35358243210729"><ele>237.60000000000002</ele><time>2026-04-11T07:45:54Z</time></trkpt><trkpt lat="43.2836646649723" lon="11.353598402078097"><ele>238.0</ele><time>2026-04-11T07:45:55Z</time></trkpt><trkpt lat="43.28348477601961" lon="11.353630584223158"><ele>238.0</ele><time>2026-04-11T07:45:57Z</time></trkpt><trkpt lat="43.283401196475914" lon="11.35363091255418"><ele>238.0</ele><time>2026-04-11T07:45:58Z</time></trkpt><trkpt lat="43.283335741778636" lon="11.35364764178764"><ele>238.0</ele><time>2026-04-11T07:45:59Z</time></trkpt><trkpt lat="43.28321731154245" lon="11.353660980497446"><ele>238.0</ele><time>2026-04-11T07:46:01Z</time></trkpt><trkpt lat="43.28311395577245" lon="11.353614810250324"><ele>238.0</ele><time>2026-04-11T07:46:03Z</time></trkpt><trkpt lat="43.28299122971388" lon="11.353612254934411"><ele>238.0</ele><time>2026-04-11T07:46:05Z</time></trkpt><trkpt lat="43.28288672295801" lon="11.353586849042113"><ele>238.0</ele><time>2026-04-11T07:46:07Z</time></trkpt><trkpt lat="43.282754048249394" lon="11.353552040245303"><ele>238.0</ele><time>2026-04-11T07:46:09Z</time></trkpt><trkpt lat="43.28268197591473" lon="11.353536917261316"><ele>238.0</ele><time>2026-04-11T07:46:10Z</time></trkpt><trkpt lat="43.2826087313433" lon="11.353517782992709"><ele>238.0</ele><time>2026-04-11T07:46:11Z</time></trkpt><trkpt lat="43.282540726765156" lon="11.353505219166593"><ele>238.0</ele><time>2026-04-11T07:46:12Z</time></trkpt><trkpt lat="43.28247342232855" lon="11.353494419543795"><ele>238.0</ele><time>2026-04-11T07:46:13Z</time></trkpt><trkpt lat="43.282408403041075" lon="11.353473669866839"><ele>238.0</ele><time>2026-04-11T07:46:14Z</time></trkpt><trkpt lat="43.28233831337028" lon="11.35345889433199"><ele>238.0</ele><time>2026-04-11T07:46:15Z</time></trkpt><trkpt lat="43.28226699214235" lon="11.353439421614862"><ele>238.0</ele><time>2026-04-11T07:46:16Z</time></trkpt><trkpt lat="43.2821981971402" lon="11.353411914192858"><ele>238.0</ele><time>2026-04-11T07:46:17Z</time></trkpt><trkpt lat="43.28212521845076" lon="11.353394251016235"><ele>238.0</ele><time>2026-04-11T07:46:18Z</time></trkpt><trkpt lat="43.28204803077249" lon="11.353380346939518"><ele>238.0</ele><time>2026-04-11T07:46:19Z</time></trkpt><trkpt lat="43.28197796650119" lon="11.353386007804206"><ele>238.0</ele><time>2026-04-11T07:46:20Z</time></trkpt><trkpt lat="43.281910191060824" lon="11.353373926645668"><ele>238.0</ele><time>2026-04-11T07:46:21Z</time></trkpt><trkpt lat="43.281846027483674" lon="11.353365887240749"><ele>238.0</ele><time>2026-04-11T07:46:22Z</time></trkpt><trkpt lat="43.281777874735894" lon="11.353342828156384"><ele>238.0</ele><time>2026-04-11T07:46:23Z</time></trkpt><trkpt lat="43.28170770566204" lon="11.353341433047758"><ele>238.0</ele><time>2026-04-11T07:46:24Z</time></trkpt><trkpt lat="43.281636826671026" lon="11.353303233163773"><ele>238.0</ele><time>2026-04-11T07:46:25Z</time></trkpt><trkpt lat="43.28157012854159" lon="11.353289213012026"><ele>237.99999999999997</ele><time>2026-04-11T07:46:26Z</time></trkpt><trkpt lat="43.281504602149774" lon="11.353276941245111"><ele>238.0</ele><time>2026-04-11T07:46:27Z</time></trkpt><trkpt lat="43.281438154486814" lon="11.353256773516497"><ele>238.0</ele><time>2026-04-11T07:46:28Z</time></trkpt><trkpt lat="43.281293586671005" lon="11.353211716272558"><ele>238.0</ele><time>2026-04-11T07:46:30Z</time></trkpt><trkpt lat="43.281219155805424" lon="11.353199799194861"><ele>237.99999999999997</ele><time>2026-04-11T07:46:31Z</time></trkpt><trkpt lat="43.28114771354171" lon="11.353167484159242"><ele>238.0</ele><time>2026-04-11T07:46:32Z</time></trkpt><trkpt lat="43.281070617111816" lon="11.353153804753305"><ele>237.99999999999997</ele><time>2026-04-11T07:46:33Z</time></trkpt><trkpt lat="43.28099793487266" lon="11.353115964624322"><ele>238.0</ele><time>2026-04-11T07:46:34Z</time></trkpt><trkpt lat="43.280921052751694" lon="11.353090964962659"><ele>238.0</ele><time>2026-04-11T07:46:35Z</time></trkpt><trkpt lat="43.28083916307771" lon="11.353060871547408"><ele>238.0</ele><time>2026-04-11T07:46:36Z</time></trkpt><trkpt lat="43.28075843514224" lon="11.353034721780476"><ele>237.99999999999997</ele><time>2026-04-11T07:46:37Z</time></trkpt><trkpt lat="43.28067468713349" lon="11.35299654061481"><ele>238.0</ele><time>2026-04-11T07:46:38Z</time></trkpt><trkpt lat="43.280585912940644" lon="11.35296613231823"><ele>236.4</ele><time>2026-04-11T07:46:39Z</time></trkpt><trkpt lat="43.280495684322744" lon="11.352934100205193"><ele>234.8</ele><time>2026-04-11T07:46:40Z</time></trkpt><trkpt lat="43.280407673839434" lon="11.3529034351971"><ele>233.2</ele><time>2026-04-11T07:46:41Z</time></trkpt><trkpt lat="43.28030492548185" lon="11.352864091525898"><ele>231.6</ele><time>2026-04-11T07:46:42Z</time></trkpt><trkpt lat="43.28021192960872" lon="11.352845067273977"><ele>230.0</ele><time>2026-04-11T07:46:43Z</time></trkpt><trkpt lat="43.28012357685543" lon="11.35281044423152"><ele>230.0</ele><time>2026-04-11T07:46:44Z</time></trkpt><trkpt lat="43.280028167384195" lon="11.352782850506287"><ele>230.0</ele><time>2026-04-11T07:46:45Z</time></trkpt><trkpt lat="43.27993340420903" lon="11.352752062750852"><ele>230.0</ele><time>2026-04-11T07:46:46Z</time></trkpt><trkpt lat="43.27983399622308" lon="11.352730693985318"><ele>230.0</ele><time>2026-04-11T07:46:47Z</time></trkpt><trkpt lat="43.27973841657007" lon="11.352706208274938"><ele>230.0</ele><time>2026-04-11T07:46:48Z</time></trkpt><trkpt lat="43.27964188137593" lon="11.352681057085832"><ele>229.25</ele><time>2026-04-11T07:46:49Z</time></trkpt><trkpt lat="43.27945408635928" lon="11.352645987291824"><ele>228.5</ele><time>2026-04-11T07:46:51Z</time></trkpt><trkpt lat="43.27935804650764" lon="11.35263210238253"><ele>227.75</ele><time>2026-04-11T07:46:52Z</time></trkpt><trkpt lat="43.27926457312141" lon="11.352625511741135"><ele>227.0</ele><time>2026-04-11T07:46:53Z</time></trkpt><trkpt lat="43.279169614900205" lon="11.352616114553603"><ele>227.0</ele><time>2026-04-11T07:46:54Z</time></trkpt><trkpt lat="43.27907687940328" lon="11.352609589613538"><ele>227.0</ele><time>2026-04-11T07:46:55Z</time></trkpt><trkpt lat="43.278983177072774" lon="11.352607912623064"><ele>227.0</ele><time>2026-04-11T07:46:56Z</time></trkpt><trkpt lat="43.27889133446111" lon="11.352609443295668"><ele>227.0</ele><time>2026-04-11T07:46:57Z</time></trkpt><trkpt lat="43.27878419804073" lon="11.352618720968067"><ele>227.0</ele><time>2026-04-11T07:46:58Z</time></trkpt><trkpt lat="43.27868119883655" lon="11.352652531711408"><ele>227.00000000000003</ele><time>2026-04-11T07:46:59Z</time></trkpt><trkpt lat="43.27859434204651" lon="11.352697483133165"><ele>227.0</ele><time>2026-04-11T07:47:00Z</time></trkpt><trkpt lat="43.27852263644444" lon="11.352749511679336"><ele>227.0</ele><time>2026-04-11T07:47:01Z</time></trkpt><trkpt lat="43.278441601687234" lon="11.352798786511533"><ele>227.0</ele><time>2026-04-11T07:47:02Z</time></trkpt><trkpt lat="43.27836050841781" lon="11.35284927069719"><ele>227.00000000000003</ele><time>2026-04-11T07:47:03Z</time></trkpt><trkpt lat="43.27827858411982" lon="11.352904528478687"><ele>227.0</ele><time>2026-04-11T07:47:04Z</time></trkpt><trkpt lat="43.2781888255054" lon="11.35295786460948"><ele>227.0</ele><time>2026-04-11T07:47:05Z</time></trkpt><trkpt lat="43.27810782747327" lon="11.353009744611109"><ele>227.0</ele><time>2026-04-11T07:47:06Z</time></trkpt><trkpt lat="43.27801721610768" lon="11.35306787299767"><ele>227.0</ele><time>2026-04-11T07:47:07Z</time></trkpt><trkpt lat="43.27793574043503" lon="11.353127755506987"><ele>227.0</ele><time>2026-04-11T07:47:08Z</time></trkpt><trkpt lat="43.277863238588196" lon="11.353146846543686"><ele>227.0</ele><time>2026-04-11T07:47:09Z</time></trkpt><trkpt lat="43.277779540661044" lon="11.353208588941076"><ele>228.0</ele><time>2026-04-11T07:47:10Z</time></trkpt><trkpt lat="43.27761040176663" lon="11.353324122538877"><ele>229.0</ele><time>2026-04-11T07:47:12Z</time></trkpt><trkpt lat="43.27752683757052" lon="11.353371202528848"><ele>230.0</ele><time>2026-04-11T07:47:13Z</time></trkpt><trkpt lat="43.27744721342103" lon="11.353424457335265"><ele>231.0</ele><time>2026-04-11T07:47:14Z</time></trkpt><trkpt lat="43.27735501490454" lon="11.353462082099949"><ele>231.0</ele><time>2026-04-11T07:47:15Z</time></trkpt><trkpt lat="43.27728107304478" lon="11.353511274418848"><ele>231.0</ele><time>2026-04-11T07:47:16Z</time></trkpt><trkpt lat="43.27719924375136" lon="11.35355925712365"><ele>231.0</ele><time>2026-04-11T07:47:17Z</time></trkpt><trkpt lat="43.27711282622292" lon="11.35359344397858"><ele>231.0</ele><time>2026-04-11T07:47:18Z</time></trkpt><trkpt lat="43.27702780779348" lon="11.353621571530471"><ele>231.0</ele><time>2026-04-11T07:47:19Z</time></trkpt><trkpt lat="43.27693797657349" lon="11.353649406552261"><ele>231.0</ele><time>2026-04-11T07:47:20Z</time></trkpt><trkpt lat="43.276850454986366" lon="11.353668596546068"><ele>231.20000000000002</ele><time>2026-04-11T07:47:21Z</time></trkpt><trkpt lat="43.27676024582158" lon="11.353685434765643"><ele>231.40000000000003</ele><time>2026-04-11T07:47:22Z</time></trkpt><trkpt lat="43.27667094569182" lon="11.353704660466581"><ele>231.6</ele><time>2026-04-11T07:47:23Z</time></trkpt><trkpt lat="43.27657974673571" lon="11.353719388270173"><ele>231.8</ele><time>2026-04-11T07:47:24Z</time></trkpt><trkpt lat="43.27648867819809" lon="11.353743172281858"><ele>232.0</ele><time>2026-04-11T07:47:25Z</time></trkpt><trkpt lat="43.27639696705646" lon="11.353760573249687"><ele>231.0</ele><time>2026-04-11T07:47:26Z</time></trkpt><trkpt lat="43.276304106038275" lon="11.353775972108703"><ele>230.0</ele><time>2026-04-11T07:47:27Z</time></trkpt><trkpt lat="43.27620776020118" lon="11.353797992905093"><ele>229.0</ele><time>2026-04-11T07:47:28Z</time></trkpt><trkpt lat="43.27611913068159" lon="11.353814027953232"><ele>228.0</ele><time>2026-04-11T07:47:29Z</time></trkpt><trkpt lat="43.27602485649177" lon="11.353828873162591"><ele>227.0</ele><time>2026-04-11T07:47:30Z</time></trkpt><trkpt lat="43.275932796434304" lon="11.35385166191145"><ele>226.0</ele><time>2026-04-11T07:47:31Z</time></trkpt><trkpt lat="43.275745764641734" lon="11.353887307226758"><ele>225.0</ele><time>2026-04-11T07:47:33Z</time></trkpt><trkpt lat="43.275653107627804" lon="11.353906689111904"><ele>224.0</ele><time>2026-04-11T07:47:34Z</time></trkpt><trkpt lat="43.275560091204966" lon="11.353916348863024"><ele>223.0</ele><time>2026-04-11T07:47:35Z</time></trkpt><trkpt lat="43.27547291328785" lon="11.353945705401626"><ele>222.8</ele><time>2026-04-11T07:47:36Z</time></trkpt><trkpt lat="43.27537920770274" lon="11.35396062258596"><ele>222.60000000000002</ele><time>2026-04-11T07:47:37Z</time></trkpt><trkpt lat="43.27528641295925" lon="11.353975068736887"><ele>222.39999999999998</ele><time>2026-04-11T07:47:38Z</time></trkpt><trkpt lat="43.27519080224761" lon="11.354005082128559"><ele>222.2</ele><time>2026-04-11T07:47:39Z</time></trkpt><trkpt lat="43.27510052067795" lon="11.354023460312458"><ele>222.0</ele><time>2026-04-11T07:47:40Z</time></trkpt><trkpt lat="43.27500733824752" lon="11.354042332032998"><ele>222.0</ele><time>2026-04-11T07:47:41Z</time></trkpt><trkpt lat="43.2749078244437" lon="11.354063410299627"><ele>222.0</ele><time>2026-04-11T07:47:42Z</time></trkpt><trkpt lat="43.274820465277756" lon="11.354093640664196"><ele>222.0</ele><time>2026-04-11T07:47:43Z</time></trkpt><trkpt lat="43.274744253431244" lon="11.354135888016117"><ele>222.0</ele><time>2026-04-11T07:47:44Z</time></trkpt><trkpt lat="43.27465183935327" lon="11.354179152614366"><ele>222.0</ele><time>2026-04-11T07:47:45Z</time></trkpt><trkpt lat="43.27456605170758" lon="11.354233706108548"><ele>222.6</ele><time>2026-04-11T07:47:46Z</time></trkpt><trkpt lat="43.27449067854356" lon="11.354314436398354"><ele>223.2</ele><time>2026-04-11T07:47:47Z</time></trkpt><trkpt lat="43.27441706117571" lon="11.354396828715643"><ele>223.8</ele><time>2026-04-11T07:47:48Z</time></trkpt><trkpt lat="43.274349753086305" lon="11.35447803806677"><ele>224.4</ele><time>2026-04-11T07:47:49Z</time></trkpt><trkpt lat="43.27427951360216" lon="11.354568701517081"><ele>225.0</ele><time>2026-04-11T07:47:50Z</time></trkpt><trkpt lat="43.27421691059365" lon="11.354660067621499"><ele>224.25</ele><time>2026-04-11T07:47:51Z</time></trkpt><trkpt lat="43.27416133026723" lon="11.354759469285298"><ele>223.5</ele><time>2026-04-11T07:47:52Z</time></trkpt><trkpt lat="43.27404204156364" lon="11.35494976586342"><ele>222.75</ele><time>2026-04-11T07:47:54Z</time></trkpt><trkpt lat="43.27397774336879" lon="11.35503572069187"><ele>222.0</ele><time>2026-04-11T07:47:55Z</time></trkpt><trkpt lat="43.273906737740546" lon="11.355116087453073"><ele>222.16666666666666</ele><time>2026-04-11T07:47:56Z</time></trkpt><trkpt lat="43.27384514208285" lon="11.355198892602015"><ele>222.33333333333331</ele><time>2026-04-11T07:47:57Z</time></trkpt><trkpt lat="43.27377560338168" lon="11.355269821243187"><ele>222.5</ele><time>2026-04-11T07:47:58Z</time></trkpt><trkpt lat="43.27370663113657" lon="11.35534175966867"><ele>222.66666666666666</ele><time>2026-04-11T07:47:59Z</time></trkpt><trkpt lat="43.27364277826315" lon="11.355416469049024"><ele>222.83333333333331</ele><time>2026-04-11T07:48:00Z</time></trkpt><trkpt lat="43.27357719067826" lon="11.355486809414923"><ele>223.0</ele><time>2026-04-11T07:48:01Z</time></trkpt><trkpt lat="43.273510311724145" lon="11.355550668890224"><ele>222.99999999999997</ele><time>2026-04-11T07:48:02Z</time></trkpt><trkpt lat="43.273446449493086" lon="11.355620851835287"><ele>223.0</ele><time>2026-04-11T07:48:03Z</time></trkpt><trkpt lat="43.27338523990582" lon="11.355695253171678"><ele>223.0</ele><time>2026-04-11T07:48:04Z</time></trkpt><trkpt lat="43.27332837499948" lon="11.355763839873303"><ele>223.0</ele><time>2026-04-11T07:48:05Z</time></trkpt><trkpt lat="43.273271266175854" lon="11.355825648743277"><ele>222.99999999999997</ele><time>2026-04-11T07:48:06Z</time></trkpt><trkpt lat="43.273221436079076" lon="11.35591784205114"><ele>223.0</ele><time>2026-04-11T07:48:07Z</time></trkpt><trkpt lat="43.273152363694926" lon="11.3559743828588"><ele>223.66666666666666</ele><time>2026-04-11T07:48:08Z</time></trkpt><trkpt lat="43.27309507429833" lon="11.356036187065577"><ele>224.33333333333331</ele><time>2026-04-11T07:48:09Z</time></trkpt><trkpt lat="43.27303357480271" lon="11.35610116164743"><ele>225.0</ele><time>2026-04-11T07:48:10Z</time></trkpt><trkpt lat="43.272971962125425" lon="11.35616644313099"><ele>225.66666666666669</ele><time>2026-04-11T07:48:11Z</time></trkpt><trkpt lat="43.27291042411544" lon="11.356235821870202"><ele>226.33333333333334</ele><time>2026-04-11T07:48:12Z</time></trkpt><trkpt lat="43.27285395745879" lon="11.356298003975168"><ele>227.0</ele><time>2026-04-11T07:48:13Z</time></trkpt><trkpt lat="43.272737263092395" lon="11.356423182258082"><ele>227.0</ele><time>2026-04-11T07:48:15Z</time></trkpt><trkpt lat="43.27268393365736" lon="11.356486656081312"><ele>227.00000000000003</ele><time>2026-04-11T07:48:16Z</time></trkpt><trkpt lat="43.27262672314269" lon="11.356544606905436"><ele>227.0</ele><time>2026-04-11T07:48:17Z</time></trkpt><trkpt lat="43.27256736196963" lon="11.356609503908642"><ele>227.0</ele><time>2026-04-11T07:48:18Z</time></trkpt><trkpt lat="43.27250168060321" lon="11.356671015384402"><ele>227.00000000000003</ele><time>2026-04-11T07:48:19Z</time></trkpt><trkpt lat="43.27245596836227" lon="11.356731926619958"><ele>227.0</ele><time>2026-04-11T07:48:20Z</time></trkpt><trkpt lat="43.27240024813476" lon="11.356793150603034"><ele>227.0</ele><time>2026-04-11T07:48:21Z</time></trkpt><trkpt lat="43.27234571910666" lon="11.356855980065786"><ele>227.00000000000003</ele><time>2026-04-11T07:48:22Z</time></trkpt><trkpt lat="43.272294250597426" lon="11.356916791067947"><ele>227.0</ele><time>2026-04-11T07:48:23Z</time></trkpt><trkpt lat="43.272219828232714" lon="11.356970273859602"><ele>227.0</ele><time>2026-04-11T07:48:24Z</time></trkpt><trkpt lat="43.27216608748391" lon="11.357025929173611"><ele>227.0</ele><time>2026-04-11T07:48:25Z</time></trkpt><trkpt lat="43.272120856127856" lon="11.357087473326999"><ele>227.00000000000003</ele><time>2026-04-11T07:48:26Z</time></trkpt><trkpt lat="43.27203217172857" lon="11.35720635694582"><ele>227.0</ele><time>2026-04-11T07:48:28Z</time></trkpt><trkpt lat="43.271978462839556" lon="11.357264321165516"><ele>226.2</ele><time>2026-04-11T07:48:29Z</time></trkpt><trkpt lat="43.27192767620892" lon="11.35731982019443"><ele>225.39999999999998</ele><time>2026-04-11T07:48:30Z</time></trkpt><trkpt lat="43.27181556569281" lon="11.357383199475361"><ele>224.60000000000002</ele><time>2026-04-11T07:48:32Z</time></trkpt><trkpt lat="43.27174844062675" lon="11.357357141239966"><ele>223.8</ele><time>2026-04-11T07:48:33Z</time></trkpt><trkpt lat="43.27168836472512" lon="11.357295268009608"><ele>223.0</ele><time>2026-04-11T07:48:34Z</time></trkpt><trkpt lat="43.271566200903436" lon="11.357166143521647"><ele>222.99999999999997</ele><time>2026-04-11T07:48:36Z</time></trkpt><trkpt lat="43.2715006368712" lon="11.35709890620341"><ele>223.0</ele><time>2026-04-11T07:48:37Z</time></trkpt><trkpt lat="43.27143535983599" lon="11.35702835064887"><ele>223.0</ele><time>2026-04-11T07:48:38Z</time></trkpt><trkpt lat="43.27137263057795" lon="11.356952582636065"><ele>223.0</ele><time>2026-04-11T07:48:39Z</time></trkpt><trkpt lat="43.271305924524015" lon="11.356883796590681"><ele>222.99999999999997</ele><time>2026-04-11T07:48:40Z</time></trkpt><trkpt lat="43.27124271826278" lon="11.35682129550779"><ele>223.0</ele><time>2026-04-11T07:48:41Z</time></trkpt><trkpt lat="43.27119452282865" lon="11.356753154380653"><ele>222.8</ele><time>2026-04-11T07:48:42Z</time></trkpt><trkpt lat="43.27111254647607" lon="11.356664981632196"><ele>222.60000000000002</ele><time>2026-04-11T07:48:44Z</time></trkpt><trkpt lat="43.27104472186145" lon="11.356584591278285"><ele>222.39999999999998</ele><time>2026-04-11T07:48:47Z</time></trkpt><trkpt lat="43.270983142597544" lon="11.356563252964701"><ele>222.2</ele><time>2026-04-11T07:49:01Z</time></trkpt><trkpt lat="43.27096946273906" lon="11.356528281386307"><ele>222.0</ele><time>2026-04-11T07:52:22Z</time></trkpt><trkpt lat="43.270831345450304" lon="11.356365634094361"><ele>220.33333333333334</ele><time>2026-04-11T07:52:25Z</time></trkpt><trkpt lat="43.27077217231394" lon="11.356303356612505"><ele>218.66666666666669</ele><time>2026-04-11T07:52:26Z</time></trkpt><trkpt lat="43.270701923055896" lon="11.356240914042493"><ele>217.0</ele><time>2026-04-11T07:52:27Z</time></trkpt><trkpt lat="43.27062895775491" lon="11.356177682570149"><ele>215.33333333333334</ele><time>2026-04-11T07:52:28Z</time></trkpt><trkpt lat="43.270556995367436" lon="11.356101480863588"><ele>213.66666666666669</ele><time>2026-04-11T07:52:29Z</time></trkpt><trkpt lat="43.27048622341209" lon="11.35602163306528"><ele>212.0</ele><time>2026-04-11T07:52:30Z</time></trkpt><trkpt lat="43.270412084392916" lon="11.355959641920917"><ele>211.6</ele><time>2026-04-11T07:52:31Z</time></trkpt><trkpt lat="43.27033108940854" lon="11.355918550078004"><ele>211.2</ele><time>2026-04-11T07:52:32Z</time></trkpt><trkpt lat="43.27024876120492" lon="11.35589783845785"><ele>210.8</ele><time>2026-04-11T07:52:33Z</time></trkpt><trkpt lat="43.2701565172735" lon="11.355892681206328"><ele>210.4</ele><time>2026-04-11T07:52:34Z</time></trkpt><trkpt lat="43.27006262155178" lon="11.355891364269628"><ele>210.0</ele><time>2026-04-11T07:52:35Z</time></trkpt><trkpt lat="43.269968200793556" lon="11.355900186680689"><ele>210.0</ele><time>2026-04-11T07:52:36Z</time></trkpt><trkpt lat="43.26987406185011" lon="11.355918491227996"><ele>210.0</ele><time>2026-04-11T07:52:37Z</time></trkpt><trkpt lat="43.26977786895031" lon="11.355944796856019"><ele>210.0</ele><time>2026-04-11T07:52:38Z</time></trkpt><trkpt lat="43.269681472296824" lon="11.355978667755323"><ele>210.0</ele><time>2026-04-11T07:52:39Z</time></trkpt><trkpt lat="43.26959003346134" lon="11.356033473965015"><ele>210.0</ele><time>2026-04-11T07:52:40Z</time></trkpt><trkpt lat="43.2694990827696" lon="11.356100075977238"><ele>208.0</ele><time>2026-04-11T07:52:41Z</time></trkpt><trkpt lat="43.26941543080588" lon="11.356183676573865"><ele>206.0</ele><time>2026-04-11T07:52:42Z</time></trkpt><trkpt lat="43.26933337957841" lon="11.356278680943939"><ele>204.0</ele><time>2026-04-11T07:52:43Z</time></trkpt><trkpt lat="43.26918814684566" lon="11.356500205898291"><ele>202.0</ele><time>2026-04-11T07:52:45Z</time></trkpt><trkpt lat="43.26912356588281" lon="11.356625938540821"><ele>202.0</ele><time>2026-04-11T07:52:46Z</time></trkpt><trkpt lat="43.269063256060676" lon="11.356756831640638"><ele>202.0</ele><time>2026-04-11T07:52:47Z</time></trkpt><trkpt lat="43.26901375323051" lon="11.356901623075423"><ele>202.0</ele><time>2026-04-11T07:52:48Z</time></trkpt><trkpt lat="43.26898394273783" lon="11.357047638557905"><ele>202.0</ele><time>2026-04-11T07:52:49Z</time></trkpt><trkpt lat="43.2689621748394" lon="11.357201349130506"><ele>202.5</ele><time>2026-04-11T07:52:50Z</time></trkpt><trkpt lat="43.26895295500582" lon="11.357364531086041"><ele>203.0</ele><time>2026-04-11T07:52:51Z</time></trkpt><trkpt lat="43.2689501216949" lon="11.357525117165318"><ele>203.5</ele><time>2026-04-11T07:52:52Z</time></trkpt><trkpt lat="43.26894862526052" lon="11.357685836394408"><ele>204.0</ele><time>2026-04-11T07:52:53Z</time></trkpt><trkpt lat="43.268941559181606" lon="11.357843267710066"><ele>200.25</ele><time>2026-04-11T07:52:54Z</time></trkpt><trkpt lat="43.268930084384706" lon="11.357999802593962"><ele>196.5</ele><time>2026-04-11T07:52:55Z</time></trkpt><trkpt lat="43.268924026201894" lon="11.358156720823382"><ele>192.75</ele><time>2026-04-11T07:52:56Z</time></trkpt><trkpt lat="43.268915557788844" lon="11.35831279200021"><ele>189.0</ele><time>2026-04-11T07:52:57Z</time></trkpt><trkpt lat="43.26889253068171" lon="11.358476827523315"><ele>189.0</ele><time>2026-04-11T07:52:58Z</time></trkpt><trkpt lat="43.26884960638313" lon="11.358632247475189"><ele>189.0</ele><time>2026-04-11T07:52:59Z</time></trkpt><trkpt lat="43.26879708440265" lon="11.358774969204323"><ele>189.0</ele><time>2026-04-11T07:53:00Z</time></trkpt><trkpt lat="43.26873895971386" lon="11.358909123100723"><ele>189.0</ele><time>2026-04-11T07:53:01Z</time></trkpt><trkpt lat="43.26866371269998" lon="11.359037206985798"><ele>189.33333333333334</ele><time>2026-04-11T07:53:02Z</time></trkpt><trkpt lat="43.26857049678178" lon="11.359145474839904"><ele>189.66666666666669</ele><time>2026-04-11T07:53:03Z</time></trkpt><trkpt lat="43.268464568761345" lon="11.359235159287042"><ele>190.0</ele><time>2026-04-11T07:53:04Z</time></trkpt><trkpt lat="43.268228009851015" lon="11.359377813914325"><ele>189.0</ele><time>2026-04-11T07:53:06Z</time></trkpt><trkpt lat="43.26810109751425" lon="11.359403684629104"><ele>188.0</ele><time>2026-04-11T07:53:07Z</time></trkpt><trkpt lat="43.26798250191828" lon="11.35940952578023"><ele>187.0</ele><time>2026-04-11T07:53:08Z</time></trkpt><trkpt lat="43.26786980535796" lon="11.359398824469704"><ele>186.0</ele><time>2026-04-11T07:53:09Z</time></trkpt><trkpt lat="43.26775330879349" lon="11.359366379900175"><ele>186.0</ele><time>2026-04-11T07:53:10Z</time></trkpt><trkpt lat="43.267641015997555" lon="11.359322256615084"><ele>186.0</ele><time>2026-04-11T07:53:11Z</time></trkpt><trkpt lat="43.26753039205093" lon="11.359274593132449"><ele>186.0</ele><time>2026-04-11T07:53:12Z</time></trkpt><trkpt lat="43.26742096111607" lon="11.35922468697576"><ele>186.0</ele><time>2026-04-11T07:53:13Z</time></trkpt><trkpt lat="43.267311059011426" lon="11.359175706243999"><ele>185.8</ele><time>2026-04-11T07:53:14Z</time></trkpt><trkpt lat="43.26720466569857" lon="11.359119194380758"><ele>185.60000000000002</ele><time>2026-04-11T07:53:15Z</time></trkpt><trkpt lat="43.26709579229611" lon="11.35908155740488"><ele>185.4</ele><time>2026-04-11T07:53:16Z</time></trkpt><trkpt lat="43.26699609038006" lon="11.359027891080428"><ele>185.2</ele><time>2026-04-11T07:53:17Z</time></trkpt><trkpt lat="43.266889707184745" lon="11.358993314810824"><ele>185.0</ele><time>2026-04-11T07:53:18Z</time></trkpt><trkpt lat="43.26678610436702" lon="11.358953083957328"><ele>185.0</ele><time>2026-04-11T07:53:19Z</time></trkpt><trkpt lat="43.266682661248026" lon="11.35890625546696"><ele>185.0</ele><time>2026-04-11T07:53:20Z</time></trkpt><trkpt lat="43.266585705532094" lon="11.358865933343827"><ele>185.0</ele><time>2026-04-11T07:53:21Z</time></trkpt><trkpt lat="43.266491937952914" lon="11.35881645345818"><ele>185.0</ele><time>2026-04-11T07:53:22Z</time></trkpt><trkpt lat="43.26638881003427" lon="11.358765574471974"><ele>185.0</ele><time>2026-04-11T07:53:23Z</time></trkpt><trkpt lat="43.26628936289243" lon="11.358736573932434"><ele>185.0</ele><time>2026-04-11T07:53:24Z</time></trkpt><trkpt lat="43.26619230336853" lon="11.358691375218665"><ele>185.0</ele><time>2026-04-11T07:53:25Z</time></trkpt><trkpt lat="43.265984672429994" lon="11.358598396068746"><ele>185.0</ele><time>2026-04-11T07:53:27Z</time></trkpt><trkpt lat="43.265878094121376" lon="11.358557893921832"><ele>185.0</ele><time>2026-04-11T07:53:28Z</time></trkpt><trkpt lat="43.26577858033394" lon="11.358502884549779"><ele>185.0</ele><time>2026-04-11T07:53:29Z</time></trkpt><trkpt lat="43.26567335167227" lon="11.358469241217495"><ele>185.0</ele><time>2026-04-11T07:53:30Z</time></trkpt><trkpt lat="43.26557688793122" lon="11.358432223876234"><ele>185.0</ele><time>2026-04-11T07:53:31Z</time></trkpt><trkpt lat="43.26546968435761" lon="11.3583945469203"><ele>185.0</ele><time>2026-04-11T07:53:32Z</time></trkpt><trkpt lat="43.265366420254765" lon="11.358351043749316"><ele>185.0</ele><time>2026-04-11T07:53:33Z</time></trkpt><trkpt lat="43.26526575398613" lon="11.358306167473526"><ele>184.8</ele><time>2026-04-11T07:53:34Z</time></trkpt><trkpt lat="43.26517283525337" lon="11.358259603573837"><ele>184.6</ele><time>2026-04-11T07:53:35Z</time></trkpt><trkpt lat="43.26506690371022" lon="11.358213647486554"><ele>184.39999999999998</ele><time>2026-04-11T07:53:36Z</time></trkpt><trkpt lat="43.264976674840774" lon="11.358176639200975"><ele>184.2</ele><time>2026-04-11T07:53:37Z</time></trkpt><trkpt lat="43.264880862135584" lon="11.358160741430172"><ele>184.0</ele><time>2026-04-11T07:53:38Z</time></trkpt><trkpt lat="43.26478443208989" lon="11.358184810230018"><ele>184.6</ele><time>2026-04-11T07:53:39Z</time></trkpt><trkpt lat="43.26469858884206" lon="11.358229379164204"><ele>185.2</ele><time>2026-04-11T07:53:40Z</time></trkpt><trkpt lat="43.26462185759214" lon="11.358295557930896"><ele>185.79999999999998</ele><time>2026-04-11T07:53:41Z</time></trkpt><trkpt lat="43.264544687703356" lon="11.358383977583495"><ele>186.39999999999998</ele><time>2026-04-11T07:53:42Z</time></trkpt><trkpt lat="43.26450783166571" lon="11.358479249226564"><ele>187.0</ele><time>2026-04-11T07:53:43Z</time></trkpt><trkpt lat="43.26446832817975" lon="11.358589496049778"><ele>187.0</ele><time>2026-04-11T07:53:44Z</time></trkpt><trkpt lat="43.264422218095575" lon="11.358684056336287"><ele>187.0</ele><time>2026-04-11T07:53:45Z</time></trkpt><trkpt lat="43.26437352844425" lon="11.35878511701849"><ele>187.0</ele><time>2026-04-11T07:53:46Z</time></trkpt><trkpt lat="43.2642624691432" lon="11.358970700382303"><ele>187.0</ele><time>2026-04-11T07:53:48Z</time></trkpt><trkpt lat="43.2642025936618" lon="11.359058218466563"><ele>187.0</ele><time>2026-04-11T07:53:49Z</time></trkpt><trkpt lat="43.264133601822465" lon="11.359139938693236"><ele>186.5</ele><time>2026-04-11T07:53:50Z</time></trkpt><trkpt lat="43.2640654592539" lon="11.359207679582674"><ele>186.0</ele><time>2026-04-11T07:53:51Z</time></trkpt><trkpt lat="43.263991734616674" lon="11.359261658695932"><ele>185.5</ele><time>2026-04-11T07:53:52Z</time></trkpt><trkpt lat="43.26391212963959" lon="11.359317515109774"><ele>185.0</ele><time>2026-04-11T07:53:53Z</time></trkpt><trkpt lat="43.2638342271252" lon="11.359375466924487"><ele>184.5</ele><time>2026-04-11T07:53:54Z</time></trkpt><trkpt lat="43.2637573730375" lon="11.35943031674509"><ele>184.0</ele><time>2026-04-11T07:53:55Z</time></trkpt><trkpt lat="43.26367853689595" lon="11.359486274011322"><ele>183.83333333333334</ele><time>2026-04-11T07:53:56Z</time></trkpt><trkpt lat="43.26360184114817" lon="11.359540507037345"><ele>183.66666666666669</ele><time>2026-04-11T07:53:57Z</time></trkpt><trkpt lat="43.26352280190816" lon="11.359599045706341"><ele>183.5</ele><time>2026-04-11T07:53:58Z</time></trkpt><trkpt lat="43.26344778667688" lon="11.359660705517003"><ele>183.33333333333334</ele><time>2026-04-11T07:53:59Z</time></trkpt><trkpt lat="43.26337208700704" lon="11.35972412486935"><ele>183.16666666666666</ele><time>2026-04-11T07:54:00Z</time></trkpt><trkpt lat="43.26329717164638" lon="11.359796333303521"><ele>183.0</ele><time>2026-04-11T07:54:01Z</time></trkpt><trkpt lat="43.26322564812619" lon="11.359869550150579"><ele>182.83333333333334</ele><time>2026-04-11T07:54:02Z</time></trkpt><trkpt lat="43.26315356851018" lon="11.359945570206078"><ele>182.66666666666666</ele><time>2026-04-11T07:54:03Z</time></trkpt><trkpt lat="43.26308250964477" lon="11.360018602769477"><ele>182.5</ele><time>2026-04-11T07:54:04Z</time></trkpt><trkpt lat="43.26300974954196" lon="11.36009671413389"><ele>182.33333333333331</ele><time>2026-04-11T07:54:05Z</time></trkpt><trkpt lat="43.26294674371445" lon="11.360171054195913"><ele>182.16666666666666</ele><time>2026-04-11T07:54:06Z</time></trkpt><trkpt lat="43.26287717835796" lon="11.360244355353899"><ele>182.0</ele><time>2026-04-11T07:54:07Z</time></trkpt><trkpt lat="43.26274386183839" lon="11.360397438791322"><ele>182.16666666666666</ele><time>2026-04-11T07:54:09Z</time></trkpt><trkpt lat="43.262680713653054" lon="11.360474366421503"><ele>182.33333333333331</ele><time>2026-04-11T07:54:10Z</time></trkpt><trkpt lat="43.26262354341615" lon="11.360553017246248"><ele>182.5</ele><time>2026-04-11T07:54:11Z</time></trkpt><trkpt lat="43.26256000013969" lon="11.36062156194781"><ele>182.66666666666666</ele><time>2026-04-11T07:54:12Z</time></trkpt><trkpt lat="43.26249429741791" lon="11.360702067526297"><ele>182.83333333333334</ele><time>2026-04-11T07:54:13Z</time></trkpt><trkpt lat="43.26244096590417" lon="11.360771037261477"><ele>183.0</ele><time>2026-04-11T07:54:14Z</time></trkpt><trkpt lat="43.26238672834585" lon="11.360850954600014"><ele>183.0</ele><time>2026-04-11T07:54:15Z</time></trkpt><trkpt lat="43.26233788234024" lon="11.360926783047038"><ele>183.0</ele><time>2026-04-11T07:54:16Z</time></trkpt><trkpt lat="43.26228177818063" lon="11.360993795993956"><ele>183.0</ele><time>2026-04-11T07:54:17Z</time></trkpt><trkpt lat="43.26222257698832" lon="11.361061238397763"><ele>183.0</ele><time>2026-04-11T07:54:18Z</time></trkpt><trkpt lat="43.26216874438684" lon="11.361133558961047"><ele>183.0</ele><time>2026-04-11T07:54:19Z</time></trkpt><trkpt lat="43.26210915950624" lon="11.361197847320545"><ele>183.0</ele><time>2026-04-11T07:54:20Z</time></trkpt><trkpt lat="43.26205158696325" lon="11.361264765071086"><ele>182.83333333333334</ele><time>2026-04-11T07:54:21Z</time></trkpt><trkpt lat="43.26198710654874" lon="11.361322461454865"><ele>182.66666666666666</ele><time>2026-04-11T07:54:22Z</time></trkpt><trkpt lat="43.26192072412619" lon="11.361380212789841"><ele>182.5</ele><time>2026-04-11T07:54:23Z</time></trkpt><trkpt lat="43.26185532482727" lon="11.36143371219193"><ele>182.33333333333331</ele><time>2026-04-11T07:54:24Z</time></trkpt><trkpt lat="43.26178901091425" lon="11.361486253514117"><ele>182.16666666666666</ele><time>2026-04-11T07:54:25Z</time></trkpt><trkpt lat="43.2617226153295" lon="11.36153601436869"><ele>182.0</ele><time>2026-04-11T07:54:26Z</time></trkpt><trkpt lat="43.26165668102895" lon="11.361588422690588"><ele>182.0</ele><time>2026-04-11T07:54:27Z</time></trkpt><trkpt lat="43.261586643707" lon="11.361633394223732"><ele>182.0</ele><time>2026-04-11T07:54:28Z</time></trkpt><trkpt lat="43.26144579531506" lon="11.361725150915335"><ele>182.0</ele><time>2026-04-11T07:54:30Z</time></trkpt><trkpt lat="43.26137361098274" lon="11.361763306284772"><ele>182.0</ele><time>2026-04-11T07:54:31Z</time></trkpt><trkpt lat="43.26130140340633" lon="11.361802563782938"><ele>182.0</ele><time>2026-04-11T07:54:32Z</time></trkpt><trkpt lat="43.261229073965495" lon="11.361836549906334"><ele>182.0</ele><time>2026-04-11T07:54:33Z</time></trkpt><trkpt lat="43.26115453998423" lon="11.361870425390439"><ele>182.0</ele><time>2026-04-11T07:54:34Z</time></trkpt><trkpt lat="43.2610798640248" lon="11.361895267868809"><ele>182.0</ele><time>2026-04-11T07:54:35Z</time></trkpt><trkpt lat="43.26100468848612" lon="11.36192122576839"><ele>182.0</ele><time>2026-04-11T07:54:36Z</time></trkpt><trkpt lat="43.26092805373684" lon="11.361935198720944"><ele>182.0</ele><time>2026-04-11T07:54:37Z</time></trkpt><trkpt lat="43.260855338755796" lon="11.361939387841566"><ele>182.0</ele><time>2026-04-11T07:54:38Z</time></trkpt><trkpt lat="43.26077695929791" lon="11.361942544048473"><ele>182.0</ele><time>2026-04-11T07:54:39Z</time></trkpt><trkpt lat="43.26070543994652" lon="11.361955990263661"><ele>182.0</ele><time>2026-04-11T07:54:40Z</time></trkpt><trkpt lat="43.26062496496118" lon="11.361950160505819"><ele>182.0</ele><time>2026-04-11T07:54:41Z</time></trkpt><trkpt lat="43.2605522703546" lon="11.361949230044099"><ele>182.0</ele><time>2026-04-11T07:54:42Z</time></trkpt><trkpt lat="43.26048224407485" lon="11.361927587656725"><ele>182.0</ele><time>2026-04-11T07:54:43Z</time></trkpt><trkpt lat="43.26036183118821" lon="11.361886926741866"><ele>182.0</ele><time>2026-04-11T07:54:45Z</time></trkpt><trkpt lat="43.26024161723547" lon="11.361860765359303"><ele>182.75</ele><time>2026-04-11T07:54:47Z</time></trkpt><trkpt lat="43.2601323623278" lon="11.36181958966787"><ele>183.5</ele><time>2026-04-11T07:54:49Z</time></trkpt><trkpt lat="43.25991945357963" lon="11.361775181236823"><ele>184.25</ele><time>2026-04-11T07:54:53Z</time></trkpt><trkpt lat="43.25981051582639" lon="11.361747532802754"><ele>185.0</ele><time>2026-04-11T07:54:55Z</time></trkpt><trkpt lat="43.25970190307657" lon="11.361695213354793"><ele>186.6</ele><time>2026-04-11T07:54:57Z</time></trkpt><trkpt lat="43.2596101426799" lon="11.361636006863783"><ele>188.2</ele><time>2026-04-11T07:54:59Z</time></trkpt><trkpt lat="43.25950229734055" lon="11.361597484042655"><ele>189.8</ele><time>2026-04-11T07:55:01Z</time></trkpt><trkpt lat="43.25940468249517" lon="11.361544417271835"><ele>191.4</ele><time>2026-04-11T07:55:03Z</time></trkpt><trkpt lat="43.25932243594543" lon="11.361499779634553"><ele>193.0</ele><time>2026-04-11T07:55:05Z</time></trkpt><trkpt lat="43.2592304325881" lon="11.361447680113319"><ele>193.0</ele><time>2026-04-11T07:55:07Z</time></trkpt><trkpt lat="43.25914177066235" lon="11.36140317427066"><ele>193.0</ele><time>2026-04-11T07:55:09Z</time></trkpt><trkpt lat="43.25905352972396" lon="11.361367772607235"><ele>193.0</ele><time>2026-04-11T07:55:11Z</time></trkpt><trkpt lat="43.258901692520816" lon="11.361278681299321"><ele>193.0</ele><time>2026-04-11T07:55:15Z</time></trkpt><trkpt lat="43.25883297432076" lon="11.36123423930746"><ele>193.0</ele><time>2026-04-11T07:55:17Z</time></trkpt><trkpt lat="43.258767080220615" lon="11.361181518494684"><ele>193.33333333333331</ele><time>2026-04-11T07:55:19Z</time></trkpt><trkpt lat="43.25871524585626" lon="11.361121560499198"><ele>193.66666666666666</ele><time>2026-04-11T07:55:21Z</time></trkpt><trkpt lat="43.25864814472816" lon="11.361053230074447"><ele>194.0</ele><time>2026-04-11T07:55:23Z</time></trkpt><trkpt lat="43.25858986088609" lon="11.360993864292679"><ele>194.33333333333331</ele><time>2026-04-11T07:55:25Z</time></trkpt><trkpt lat="43.25852739737454" lon="11.360936792747353"><ele>194.66666666666666</ele><time>2026-04-11T07:55:27Z</time></trkpt><trkpt lat="43.258461732684346" lon="11.36087915071656"><ele>195.0</ele><time>2026-04-11T07:55:29Z</time></trkpt><trkpt lat="43.25839924869928" lon="11.360822014313538"><ele>195.0</ele><time>2026-04-11T07:55:31Z</time></trkpt><trkpt lat="43.25832551619294" lon="11.360776929335742"><ele>195.0</ele><time>2026-04-11T07:55:33Z</time></trkpt><trkpt lat="43.25821117330696" lon="11.360642493999816"><ele>195.0</ele><time>2026-04-11T07:55:37Z</time></trkpt><trkpt lat="43.258149435943714" lon="11.360582561826304"><ele>195.0</ele><time>2026-04-11T07:55:39Z</time></trkpt><trkpt lat="43.25808865188882" lon="11.360526143061591"><ele>195.0</ele><time>2026-04-11T07:55:41Z</time></trkpt><trkpt lat="43.25802132568388" lon="11.360476020594202"><ele>195.0</ele><time>2026-04-11T07:55:43Z</time></trkpt><trkpt lat="43.257954671663896" lon="11.360430358467173"><ele>195.0</ele><time>2026-04-11T07:55:45Z</time></trkpt><trkpt lat="43.25788614770967" lon="11.360386033693043"><ele>195.0</ele><time>2026-04-11T07:55:47Z</time></trkpt><trkpt lat="43.25781493645494" lon="11.360346187831322"><ele>195.0</ele><time>2026-04-11T07:55:49Z</time></trkpt><trkpt lat="43.257747802018216" lon="11.360309921622873"><ele>195.0</ele><time>2026-04-11T07:55:51Z</time></trkpt><trkpt lat="43.25767137259627" lon="11.360277769751224"><ele>195.0</ele><time>2026-04-11T07:55:53Z</time></trkpt><trkpt lat="43.25759734833636" lon="11.360238303344374"><ele>195.0</ele><time>2026-04-11T07:55:55Z</time></trkpt><trkpt lat="43.25745074105988" lon="11.36017682441892"><ele>195.0</ele><time>2026-04-11T07:55:59Z</time></trkpt><trkpt lat="43.25737683708511" lon="11.36014360192847"><ele>195.0</ele><time>2026-04-11T07:56:01Z</time></trkpt><trkpt lat="43.257303240006266" lon="11.360116574629746"><ele>195.0</ele><time>2026-04-11T07:56:03Z</time></trkpt><trkpt lat="43.257228716904656" lon="11.360096676363709"><ele>195.0</ele><time>2026-04-11T07:56:05Z</time></trkpt><trkpt lat="43.25715128333703" lon="11.360081550659212"><ele>195.66666666666666</ele><time>2026-04-11T07:56:07Z</time></trkpt><trkpt lat="43.25707387486008" lon="11.360066747062165"><ele>196.33333333333331</ele><time>2026-04-11T07:56:09Z</time></trkpt><trkpt lat="43.25699472530457" lon="11.360059141616325"><ele>197.0</ele><time>2026-04-11T07:56:11Z</time></trkpt><trkpt lat="43.25691319967366" lon="11.360062283908025"><ele>197.66666666666666</ele><time>2026-04-11T07:56:13Z</time></trkpt><trkpt lat="43.2568428557497" lon="11.36005628584651"><ele>198.33333333333331</ele><time>2026-04-11T07:56:15Z</time></trkpt><trkpt lat="43.25676234978795" lon="11.360063043368077"><ele>199.0</ele><time>2026-04-11T07:56:17Z</time></trkpt><trkpt lat="43.256611684480355" lon="11.36009590993824"><ele>198.99999999999997</ele><time>2026-04-11T07:56:21Z</time></trkpt><trkpt lat="43.256537457497444" lon="11.360105090437923"><ele>199.0</ele><time>2026-04-11T07:56:23Z</time></trkpt><trkpt lat="43.25645883520924" lon="11.36011574950982"><ele>199.0</ele><time>2026-04-11T07:56:25Z</time></trkpt><trkpt lat="43.25638217742252" lon="11.360128886685581"><ele>199.0</ele><time>2026-04-11T07:56:27Z</time></trkpt><trkpt lat="43.25630703798603" lon="11.360147689219188"><ele>198.99999999999997</ele><time>2026-04-11T07:56:29Z</time></trkpt><trkpt lat="43.25624037085006" lon="11.360165851688636"><ele>199.0</ele><time>2026-04-11T07:56:31Z</time></trkpt><trkpt lat="43.25616436372749" lon="11.36019904949183"><ele>199.79999999999998</ele><time>2026-04-11T07:56:33Z</time></trkpt><trkpt lat="43.2560872924148" lon="11.360246807199049"><ele>200.6</ele><time>2026-04-11T07:56:35Z</time></trkpt><trkpt lat="43.255994734800694" lon="11.360298435991703"><ele>201.4</ele><time>2026-04-11T07:56:38Z</time></trkpt><trkpt lat="43.25585965417469" lon="11.360400810960892"><ele>202.2</ele><time>2026-04-11T07:56:42Z</time></trkpt><trkpt lat="43.255788650165464" lon="11.360448283757341"><ele>203.0</ele><time>2026-04-11T07:56:44Z</time></trkpt><trkpt lat="43.25572744434252" lon="11.360498564814183"><ele>203.33333333333334</ele><time>2026-04-11T07:56:46Z</time></trkpt><trkpt lat="43.25565330492595" lon="11.36054838247578"><ele>203.66666666666669</ele><time>2026-04-11T07:56:48Z</time></trkpt><trkpt lat="43.25558398762704" lon="11.36059878155363"><ele>204.0</ele><time>2026-04-11T07:56:50Z</time></trkpt><trkpt lat="43.25551475704878" lon="11.360644560809575"><ele>204.33333333333331</ele><time>2026-04-11T07:56:52Z</time></trkpt><trkpt lat="43.25544957979943" lon="11.360689362047252"><ele>204.66666666666666</ele><time>2026-04-11T07:56:54Z</time></trkpt><trkpt lat="43.25538144739256" lon="11.360748876274197"><ele>205.0</ele><time>2026-04-11T07:56:56Z</time></trkpt><trkpt lat="43.25531177354439" lon="11.360790356534883"><ele>206.8</ele><time>2026-04-11T07:56:58Z</time></trkpt><trkpt lat="43.25525466502096" lon="11.360859308332135"><ele>208.6</ele><time>2026-04-11T07:57:00Z</time></trkpt><trkpt lat="43.25513712294931" lon="11.361024270629315"><ele>210.39999999999998</ele><time>2026-04-11T07:57:05Z</time></trkpt><trkpt lat="43.25507591248794" lon="11.361104124308705"><ele>212.2</ele><time>2026-04-11T07:57:07Z</time></trkpt><trkpt lat="43.25501878945654" lon="11.36121395706172"><ele>214.0</ele><time>2026-04-11T07:57:10Z</time></trkpt><trkpt lat="43.25497505127514" lon="11.361285538251645"><ele>213.99999999999997</ele><time>2026-04-11T07:57:12Z</time></trkpt><trkpt lat="43.254931931994825" lon="11.361363329502122"><ele>214.0</ele><time>2026-04-11T07:57:14Z</time></trkpt><trkpt lat="43.25489187929766" lon="11.361444332159959"><ele>214.0</ele><time>2026-04-11T07:57:16Z</time></trkpt><trkpt lat="43.254853667102324" lon="11.36153012377965"><ele>214.0</ele><time>2026-04-11T07:57:18Z</time></trkpt><trkpt lat="43.254813207845295" lon="11.361611683544636"><ele>213.99999999999997</ele><time>2026-04-11T07:57:20Z</time></trkpt><trkpt lat="43.25477578937342" lon="11.36169251971687"><ele>214.0</ele><time>2026-04-11T07:57:22Z</time></trkpt><trkpt lat="43.25469208378834" lon="11.36186045533364"><ele>214.99999999999997</ele><time>2026-04-11T07:57:26Z</time></trkpt><trkpt lat="43.25462131685123" lon="11.361955209541833"><ele>216.0</ele><time>2026-04-11T07:57:29Z</time></trkpt><trkpt lat="43.25454849017522" lon="11.362050435403953"><ele>217.0</ele><time>2026-04-11T07:57:32Z</time></trkpt><trkpt lat="43.25447531676077" lon="11.36212536642512"><ele>218.0</ele><time>2026-04-11T07:57:35Z</time></trkpt><trkpt lat="43.25441742526685" lon="11.362163815198862"><ele>218.99999999999997</ele><time>2026-04-11T07:57:37Z</time></trkpt><trkpt lat="43.25435917751056" lon="11.362204370841612"><ele>220.0</ele><time>2026-04-11T07:57:39Z</time></trkpt><trkpt lat="43.2542904178992" lon="11.362258348080552"><ele>220.0</ele><time>2026-04-11T07:57:41Z</time></trkpt><trkpt lat="43.254164427981735" lon="11.362291707042548"><ele>220.0</ele><time>2026-04-11T07:57:43Z</time></trkpt><trkpt lat="43.254030774473556" lon="11.362343068163597"><ele>220.0</ele><time>2026-04-11T07:57:48Z</time></trkpt><trkpt lat="43.25396530200527" lon="11.362374857817953"><ele>220.0</ele><time>2026-04-11T07:57:50Z</time></trkpt><trkpt lat="43.25388741286547" lon="11.36237144514008"><ele>220.0</ele><time>2026-04-11T07:57:53Z</time></trkpt><trkpt lat="43.25382126345709" lon="11.362370124618993"><ele>221.0</ele><time>2026-04-11T07:57:55Z</time></trkpt><trkpt lat="43.25373715554722" lon="11.362376540995866"><ele>222.0</ele><time>2026-04-11T07:57:58Z</time></trkpt><trkpt lat="43.25364821607036" lon="11.362392188382941"><ele>223.0</ele><time>2026-04-11T07:58:01Z</time></trkpt><trkpt lat="43.2535876133432" lon="11.362416148219731"><ele>224.0</ele><time>2026-04-11T07:58:03Z</time></trkpt><trkpt lat="43.25350014855695" lon="11.362437977507241"><ele>225.0</ele><time>2026-04-11T07:58:06Z</time></trkpt><trkpt lat="43.253372983381446" lon="11.362454233834425"><ele>225.00000000000003</ele><time>2026-04-11T07:58:10Z</time></trkpt><trkpt lat="43.25331308654426" lon="11.362483027603954"><ele>225.0</ele><time>2026-04-11T07:58:12Z</time></trkpt><trkpt lat="43.253247985168535" lon="11.362505964470351"><ele>225.00000000000003</ele><time>2026-04-11T07:58:14Z</time></trkpt><trkpt lat="43.25318317949811" lon="11.362527200588021"><ele>225.00000000000003</ele><time>2026-04-11T07:58:16Z</time></trkpt><trkpt lat="43.25312003798087" lon="11.362548052041355"><ele>225.0</ele><time>2026-04-11T07:58:18Z</time></trkpt><trkpt lat="43.25303675454521" lon="11.362593359772822"><ele>225.00000000000003</ele><time>2026-04-11T07:58:21Z</time></trkpt><trkpt lat="43.25297718114798" lon="11.362638240485474"><ele>225.00000000000003</ele><time>2026-04-11T07:58:23Z</time></trkpt><trkpt lat="43.25291245020306" lon="11.362671635584448"><ele>225.6</ele><time>2026-04-11T07:58:26Z</time></trkpt><trkpt lat="43.25284180538147" lon="11.362700566055276"><ele>226.2</ele><time>2026-04-11T07:58:29Z</time></trkpt><trkpt lat="43.25269231990334" lon="11.362790560372915"><ele>226.8</ele><time>2026-04-11T07:58:36Z</time></trkpt><trkpt lat="43.25262374668124" lon="11.362836044123188"><ele>227.4</ele><time>2026-04-11T07:58:40Z</time></trkpt><trkpt lat="43.25255184935331" lon="11.3628939159692"><ele>228.0</ele><time>2026-04-11T07:58:44Z</time></trkpt><trkpt lat="43.25249391097103" lon="11.362950451352816"><ele>228.0</ele><time>2026-04-11T07:58:49Z</time></trkpt><trkpt lat="43.25243982073715" lon="11.363027366562616"><ele>228.0</ele><time>2026-04-11T07:58:53Z</time></trkpt><trkpt lat="43.25231466835797" lon="11.363124046085758"><ele>228.0</ele><time>2026-04-11T07:59:00Z</time></trkpt><trkpt lat="43.25225842500467" lon="11.363171806485923"><ele>228.0</ele><time>2026-04-11T07:59:03Z</time></trkpt><trkpt lat="43.2522053886642" lon="11.363241499445232"><ele>228.0</ele><time>2026-04-11T07:59:06Z</time></trkpt><trkpt lat="43.25213455401479" lon="11.36330685211409"><ele>228.0</ele><time>2026-04-11T07:59:09Z</time></trkpt><trkpt lat="43.252075657336945" lon="11.36336569732626"><ele>229.25</ele><time>2026-04-11T07:59:11Z</time></trkpt><trkpt lat="43.25201644606573" lon="11.363426437447213"><ele>230.5</ele><time>2026-04-11T07:59:13Z</time></trkpt><trkpt lat="43.25193463444485" lon="11.363499569453563"><ele>231.75</ele><time>2026-04-11T07:59:15Z</time></trkpt><trkpt lat="43.25168617607749" lon="11.363615188072982"><ele>233.0</ele><time>2026-04-11T07:59:19Z</time></trkpt><trkpt lat="43.251606219532675" lon="11.363627227884628"><ele>233.00000000000003</ele><time>2026-04-11T07:59:20Z</time></trkpt><trkpt lat="43.251528546033065" lon="11.363632516407714"><ele>233.0</ele><time>2026-04-11T07:59:21Z</time></trkpt><trkpt lat="43.25145322218324" lon="11.36362188772672"><ele>233.0</ele><time>2026-04-11T07:59:22Z</time></trkpt><trkpt lat="43.25135430819023" lon="11.36358062544287"><ele>233.0</ele><time>2026-04-11T07:59:23Z</time></trkpt><trkpt lat="43.25126841895902" lon="11.363544245644807"><ele>233.00000000000003</ele><time>2026-04-11T07:59:24Z</time></trkpt><trkpt lat="43.25117556397117" lon="11.363504513795919"><ele>233.0</ele><time>2026-04-11T07:59:25Z</time></trkpt><trkpt lat="43.251077677599476" lon="11.363467801390543"><ele>231.4</ele><time>2026-04-11T07:59:26Z</time></trkpt><trkpt lat="43.25098315968179" lon="11.363434010181255"><ele>229.8</ele><time>2026-04-11T07:59:27Z</time></trkpt><trkpt lat="43.250877834660606" lon="11.363375582401233"><ele>228.2</ele><time>2026-04-11T07:59:28Z</time></trkpt><trkpt lat="43.25077284114928" lon="11.363333065434986"><ele>226.6</ele><time>2026-04-11T07:59:29Z</time></trkpt><trkpt lat="43.25066449329708" lon="11.363286914455692"><ele>225.0</ele><time>2026-04-11T07:59:30Z</time></trkpt><trkpt lat="43.25056896534684" lon="11.363260603725964"><ele>224.6</ele><time>2026-04-11T07:59:31Z</time></trkpt><trkpt lat="43.25047097540156" lon="11.363237154233577"><ele>224.2</ele><time>2026-04-11T07:59:32Z</time></trkpt><trkpt lat="43.2503723636042" lon="11.363209859896289"><ele>223.8</ele><time>2026-04-11T07:59:33Z</time></trkpt><trkpt lat="43.250255754145236" lon="11.363201191054292"><ele>223.4</ele><time>2026-04-11T07:59:34Z</time></trkpt><trkpt lat="43.250161260378846" lon="11.36318038679944"><ele>223.0</ele><time>2026-04-11T07:59:35Z</time></trkpt><trkpt lat="43.250060086859015" lon="11.363147135618398"><ele>223.0</ele><time>2026-04-11T07:59:36Z</time></trkpt><trkpt lat="43.249867137369876" lon="11.363083870901646"><ele>223.0</ele><time>2026-04-11T07:59:38Z</time></trkpt><trkpt lat="43.249771586660835" lon="11.363060098223897"><ele>223.0</ele><time>2026-04-11T07:59:39Z</time></trkpt><trkpt lat="43.24966947814684" lon="11.363041137122686"><ele>223.0</ele><time>2026-04-11T07:59:40Z</time></trkpt><trkpt lat="43.24956980917602" lon="11.363059111129639"><ele>224.0</ele><time>2026-04-11T07:59:41Z</time></trkpt><trkpt lat="43.24948214900795" lon="11.363057882369972"><ele>225.0</ele><time>2026-04-11T07:59:42Z</time></trkpt><trkpt lat="43.24939349499102" lon="11.36308910025321"><ele>226.0</ele><time>2026-04-11T07:59:43Z</time></trkpt><trkpt lat="43.24930417758861" lon="11.363123260650234"><ele>227.0</ele><time>2026-04-11T07:59:44Z</time></trkpt><trkpt lat="43.249217624154895" lon="11.363177367724505"><ele>228.0</ele><time>2026-04-11T07:59:45Z</time></trkpt><trkpt lat="43.24913684906002" lon="11.363252272500302"><ele>228.0</ele><time>2026-04-11T07:59:46Z</time></trkpt><trkpt lat="43.24907973201439" lon="11.363307832784322"><ele>228.0</ele><time>2026-04-11T07:59:47Z</time></trkpt><trkpt lat="43.24902102354221" lon="11.363372885558636"><ele>228.0</ele><time>2026-04-11T07:59:48Z</time></trkpt><trkpt lat="43.24896623249618" lon="11.363443702573143"><ele>228.0</ele><time>2026-04-11T07:59:49Z</time></trkpt><trkpt lat="43.24891416545392" lon="11.36351804043608"><ele>228.0</ele><time>2026-04-11T07:59:50Z</time></trkpt><trkpt lat="43.24886547192029" lon="11.363592588625227"><ele>228.0</ele><time>2026-04-11T07:59:51Z</time></trkpt><trkpt lat="43.24881189802367" lon="11.363677444619253"><ele>228.0</ele><time>2026-04-11T07:59:52Z</time></trkpt><trkpt lat="43.24875413396895" lon="11.363756961787086"><ele>228.0</ele><time>2026-04-11T07:59:53Z</time></trkpt><trkpt lat="43.24870376131074" lon="11.363844138867124"><ele>228.0</ele><time>2026-04-11T07:59:54Z</time></trkpt><trkpt lat="43.24864138672486" lon="11.363931358323077"><ele>228.0</ele><time>2026-04-11T07:59:55Z</time></trkpt><trkpt lat="43.24858043312074" lon="11.364014890100451"><ele>228.0</ele><time>2026-04-11T07:59:56Z</time></trkpt><trkpt lat="43.248526422224685" lon="11.364090510866946"><ele>228.0</ele><time>2026-04-11T07:59:57Z</time></trkpt><trkpt lat="43.24841417077291" lon="11.36423289776779"><ele>227.83333333333334</ele><time>2026-04-11T07:59:59Z</time></trkpt><trkpt lat="43.24836033244023" lon="11.364301982335238"><ele>227.66666666666669</ele><time>2026-04-11T08:00:00Z</time></trkpt><trkpt lat="43.24831979193513" lon="11.36439277982691"><ele>227.5</ele><time>2026-04-11T08:00:01Z</time></trkpt><trkpt lat="43.24828165054914" lon="11.364492419115678"><ele>227.33333333333334</ele><time>2026-04-11T08:00:02Z</time></trkpt><trkpt lat="43.24825431220155" lon="11.364671913363859"><ele>227.16666666666669</ele><time>2026-04-11T08:00:04Z</time></trkpt><trkpt lat="43.24824782878148" lon="11.364780463530025"><ele>227.0</ele><time>2026-04-11T08:00:05Z</time></trkpt><trkpt lat="43.24824326829916" lon="11.36488641626548"><ele>226.66666666666669</ele><time>2026-04-11T08:00:06Z</time></trkpt><trkpt lat="43.24826685075973" lon="11.364973934675174"><ele>226.33333333333334</ele><time>2026-04-11T08:00:07Z</time></trkpt><trkpt lat="43.248271053857344" lon="11.365070781453522"><ele>226.0</ele><time>2026-04-11T08:00:08Z</time></trkpt><trkpt lat="43.24827383648942" lon="11.365159099331121"><ele>225.66666666666669</ele><time>2026-04-11T08:00:09Z</time></trkpt><trkpt lat="43.24824277159759" lon="11.365318853429814"><ele>225.33333333333334</ele><time>2026-04-11T08:00:11Z</time></trkpt><trkpt lat="43.248194642995436" lon="11.365456585528593"><ele>225.0</ele><time>2026-04-11T08:00:13Z</time></trkpt><trkpt lat="43.24812501999524" lon="11.365598425943798"><ele>224.6</ele><time>2026-04-11T08:00:15Z</time></trkpt><trkpt lat="43.24803709258308" lon="11.365719919550484"><ele>224.2</ele><time>2026-04-11T08:00:17Z</time></trkpt><trkpt lat="43.247992322797884" lon="11.365788468155342"><ele>223.8</ele><time>2026-04-11T08:00:18Z</time></trkpt><trkpt lat="43.24788292963363" lon="11.365915266062693"><ele>223.4</ele><time>2026-04-11T08:00:20Z</time></trkpt><trkpt lat="43.24781476538844" lon="11.365969274699465"><ele>223.0</ele><time>2026-04-11T08:00:21Z</time></trkpt><trkpt lat="43.24773706616042" lon="11.36600421206179"><ele>222.99999999999997</ele><time>2026-04-11T08:00:22Z</time></trkpt><trkpt lat="43.24765775812063" lon="11.366038762595915"><ele>223.0</ele><time>2026-04-11T08:00:23Z</time></trkpt><trkpt lat="43.24756848138859" lon="11.36606018985007"><ele>223.0</ele><time>2026-04-11T08:00:24Z</time></trkpt><trkpt lat="43.24748023529932" lon="11.366070202809476"><ele>223.0</ele><time>2026-04-11T08:00:25Z</time></trkpt><trkpt lat="43.247394761285946" lon="11.366090487652729"><ele>222.99999999999997</ele><time>2026-04-11T08:00:26Z</time></trkpt><trkpt lat="43.24730241031538" lon="11.366120516728992"><ele>223.0</ele><time>2026-04-11T08:00:27Z</time></trkpt><trkpt lat="43.24720463303571" lon="11.366165603302726"><ele>222.66666666666666</ele><time>2026-04-11T08:00:28Z</time></trkpt><trkpt lat="43.2471378934167" lon="11.366162783453257"><ele>222.33333333333331</ele><time>2026-04-11T08:00:29Z</time></trkpt><trkpt lat="43.24704994148875" lon="11.366166282451578"><ele>222.0</ele><time>2026-04-11T08:00:30Z</time></trkpt><trkpt lat="43.24696706915503" lon="11.366189639194097"><ele>221.66666666666669</ele><time>2026-04-11T08:00:31Z</time></trkpt><trkpt lat="43.24688887604876" lon="11.366216016324826"><ele>221.33333333333334</ele><time>2026-04-11T08:00:32Z</time></trkpt><trkpt lat="43.2468120007767" lon="11.366248026438301"><ele>221.0</ele><time>2026-04-11T08:00:33Z</time></trkpt><trkpt lat="43.2467364948588" lon="11.366276809792543"><ele>221.00000000000003</ele><time>2026-04-11T08:00:34Z</time></trkpt><trkpt lat="43.246663729695484" lon="11.366306682039998"><ele>221.0</ele><time>2026-04-11T08:00:35Z</time></trkpt><trkpt lat="43.24659351820291" lon="11.366341125841139"><ele>221.0</ele><time>2026-04-11T08:00:36Z</time></trkpt><trkpt lat="43.246530588275874" lon="11.366378265315907"><ele>221.0</ele><time>2026-04-11T08:00:37Z</time></trkpt><trkpt lat="43.24646874589046" lon="11.366408641517383"><ele>221.00000000000003</ele><time>2026-04-11T08:00:38Z</time></trkpt><trkpt lat="43.24639877762196" lon="11.366447824657863"><ele>221.0</ele><time>2026-04-11T08:00:39Z</time></trkpt><trkpt lat="43.24623865431797" lon="11.366564860044647"><ele>221.50000000000003</ele><time>2026-04-11T08:00:42Z</time></trkpt><trkpt lat="43.24614482576013" lon="11.366671124582567"><ele>222.0</ele><time>2026-04-11T08:00:44Z</time></trkpt><trkpt lat="43.24608842171519" lon="11.366724653005505"><ele>222.5</ele><time>2026-04-11T08:00:45Z</time></trkpt><trkpt lat="43.246022772450615" lon="11.366783487694065"><ele>223.0</ele><time>2026-04-11T08:00:46Z</time></trkpt><trkpt lat="43.24596658663232" lon="11.366856763993768"><ele>223.50000000000003</ele><time>2026-04-11T08:00:47Z</time></trkpt><trkpt lat="43.2459073728539" lon="11.366940083611388"><ele>224.0</ele><time>2026-04-11T08:00:48Z</time></trkpt><trkpt lat="43.24584417584745" lon="11.367018939750505"><ele>224.0</ele><time>2026-04-11T08:00:49Z</time></trkpt><trkpt lat="43.24577116862371" lon="11.367103128541409"><ele>223.99999999999997</ele><time>2026-04-11T08:00:50Z</time></trkpt><trkpt lat="43.24566322787093" lon="11.367149685524401"><ele>223.99999999999997</ele><time>2026-04-11T08:00:51Z</time></trkpt><trkpt lat="43.2455806808211" lon="11.367222771814031"><ele>224.0</ele><time>2026-04-11T08:00:52Z</time></trkpt><trkpt lat="43.24549044184577" lon="11.36728617990964"><ele>224.0</ele><time>2026-04-11T08:00:53Z</time></trkpt><trkpt lat="43.24539549606654" lon="11.367341594854038"><ele>223.2</ele><time>2026-04-11T08:00:54Z</time></trkpt><trkpt lat="43.245295465923526" lon="11.367389439923558"><ele>222.39999999999998</ele><time>2026-04-11T08:00:55Z</time></trkpt><trkpt lat="43.245199983863294" lon="11.367416262899384"><ele>221.6</ele><time>2026-04-11T08:00:56Z</time></trkpt><trkpt lat="43.24510230289811" lon="11.367449379000204"><ele>220.8</ele><time>2026-04-11T08:00:57Z</time></trkpt><trkpt lat="43.24500139398824" lon="11.367479931995618"><ele>220.0</ele><time>2026-04-11T08:00:58Z</time></trkpt><trkpt lat="43.24490535715095" lon="11.367509221395348"><ele>220.0</ele><time>2026-04-11T08:00:59Z</time></trkpt><trkpt lat="43.24481181314289" lon="11.367529297187165"><ele>220.0</ele><time>2026-04-11T08:01:00Z</time></trkpt><trkpt lat="43.24463797498078" lon="11.36756978235706"><ele>220.0</ele><time>2026-04-11T08:01:02Z</time></trkpt><trkpt lat="43.24455529152851" lon="11.367613733889185"><ele>220.0</ele><time>2026-04-11T08:01:03Z</time></trkpt><trkpt lat="43.24447839063107" lon="11.367643295181807"><ele>220.0</ele><time>2026-04-11T08:01:04Z</time></trkpt><trkpt lat="43.24441483410221" lon="11.367660308742392"><ele>220.6</ele><time>2026-04-11T08:01:05Z</time></trkpt><trkpt lat="43.2443487861291" lon="11.367675975606163"><ele>221.2</ele><time>2026-04-11T08:01:06Z</time></trkpt><trkpt lat="43.24424160086553" lon="11.367698175577807"><ele>221.8</ele><time>2026-04-11T08:01:08Z</time></trkpt><trkpt lat="43.244128330057585" lon="11.367751585642988"><ele>222.4</ele><time>2026-04-11T08:01:10Z</time></trkpt><trkpt lat="43.24402763626939" lon="11.367787071024683"><ele>223.0</ele><time>2026-04-11T08:01:12Z</time></trkpt><trkpt lat="43.24392025046734" lon="11.367842204049643"><ele>223.60000000000002</ele><time>2026-04-11T08:01:14Z</time></trkpt><trkpt lat="43.24382399680681" lon="11.367864371777026"><ele>224.20000000000002</ele><time>2026-04-11T08:01:16Z</time></trkpt><trkpt lat="43.243726492274675" lon="11.367872185384527"><ele>224.8</ele><time>2026-04-11T08:01:18Z</time></trkpt><trkpt lat="43.24362943953921" lon="11.36791525028401"><ele>225.4</ele><time>2026-04-11T08:01:20Z</time></trkpt><trkpt lat="43.243556898734305" lon="11.367937352008665"><ele>226.0</ele><time>2026-04-11T08:01:21Z</time></trkpt><trkpt lat="43.243425529232006" lon="11.36797510687288"><ele>226.0</ele><time>2026-04-11T08:01:23Z</time></trkpt><trkpt lat="43.24335240936637" lon="11.367987958544981"><ele>226.00000000000003</ele><time>2026-04-11T08:01:24Z</time></trkpt><trkpt lat="43.24320787777228" lon="11.368019495066296"><ele>226.00000000000003</ele><time>2026-04-11T08:01:26Z</time></trkpt><trkpt lat="43.243130181892965" lon="11.368035559093977"><ele>226.0</ele><time>2026-04-11T08:01:27Z</time></trkpt><trkpt lat="43.24305150106881" lon="11.368061488718794"><ele>226.0</ele><time>2026-04-11T08:01:28Z</time></trkpt><trkpt lat="43.24297253981462" lon="11.368093704260307"><ele>225.33333333333331</ele><time>2026-04-11T08:01:29Z</time></trkpt><trkpt lat="43.24289247625363" lon="11.368126527418745"><ele>224.66666666666666</ele><time>2026-04-11T08:01:30Z</time></trkpt><trkpt lat="43.24281450224301" lon="11.368169935780685"><ele>224.0</ele><time>2026-04-11T08:01:31Z</time></trkpt><trkpt lat="43.24273541617844" lon="11.368221282871616"><ele>223.33333333333331</ele><time>2026-04-11T08:01:32Z</time></trkpt><trkpt lat="43.24265955428294" lon="11.368285610863756"><ele>222.66666666666666</ele><time>2026-04-11T08:01:33Z</time></trkpt><trkpt lat="43.24258463536195" lon="11.36835520236485"><ele>222.0</ele><time>2026-04-11T08:01:34Z</time></trkpt><trkpt lat="43.242513373364595" lon="11.368419708182946"><ele>222.0</ele><time>2026-04-11T08:01:35Z</time></trkpt><trkpt lat="43.242441148853885" lon="11.368512172267588"><ele>222.0</ele><time>2026-04-11T08:01:36Z</time></trkpt><trkpt lat="43.24236908744967" lon="11.368606696121965"><ele>222.0</ele><time>2026-04-11T08:01:37Z</time></trkpt><trkpt lat="43.24229714123251" lon="11.368695666077626"><ele>222.0</ele><time>2026-04-11T08:01:38Z</time></trkpt><trkpt lat="43.24222181705875" lon="11.368788431869172"><ele>222.0</ele><time>2026-04-11T08:01:39Z</time></trkpt><trkpt lat="43.24214683635173" lon="11.368863949533072"><ele>221.5</ele><time>2026-04-11T08:01:40Z</time></trkpt><trkpt lat="43.24208941504945" lon="11.368952338803032"><ele>221.0</ele><time>2026-04-11T08:01:41Z</time></trkpt><trkpt lat="43.24202929208224" lon="11.369049890893521"><ele>220.5</ele><time>2026-04-11T08:01:42Z</time></trkpt><trkpt lat="43.241894122651225" lon="11.36922587777881"><ele>220.0</ele><time>2026-04-11T08:01:44Z</time></trkpt><trkpt lat="43.241826408846194" lon="11.36930962373553"><ele>219.99999999999997</ele><time>2026-04-11T08:01:45Z</time></trkpt><trkpt lat="43.241760929291154" lon="11.369388078917432"><ele>220.0</ele><time>2026-04-11T08:01:46Z</time></trkpt><trkpt lat="43.2416966346732" lon="11.369474409093433"><ele>220.0</ele><time>2026-04-11T08:01:47Z</time></trkpt><trkpt lat="43.24163515322949" lon="11.369557758143273"><ele>220.0</ele><time>2026-04-11T08:01:48Z</time></trkpt><trkpt lat="43.241569072204975" lon="11.369648009436236"><ele>219.99999999999997</ele><time>2026-04-11T08:01:49Z</time></trkpt><trkpt lat="43.241498594451734" lon="11.369729398214576"><ele>220.0</ele><time>2026-04-11T08:01:50Z</time></trkpt><trkpt lat="43.24142401960573" lon="11.369807379487183"><ele>219.0</ele><time>2026-04-11T08:01:51Z</time></trkpt><trkpt lat="43.24134960230148" lon="11.369888712117252"><ele>218.0</ele><time>2026-04-11T08:01:52Z</time></trkpt><trkpt lat="43.24127108719538" lon="11.369962553713481"><ele>217.0</ele><time>2026-04-11T08:01:53Z</time></trkpt><trkpt lat="43.24119414170364" lon="11.37004089437611"><ele>216.0</ele><time>2026-04-11T08:01:54Z</time></trkpt><trkpt lat="43.24111616374127" lon="11.370110955760316"><ele>215.0</ele><time>2026-04-11T08:01:55Z</time></trkpt><trkpt lat="43.2410411125352" lon="11.370181037502917"><ele>215.00000000000003</ele><time>2026-04-11T08:01:56Z</time></trkpt><trkpt lat="43.24096251764861" lon="11.370248073779395"><ele>215.0</ele><time>2026-04-11T08:01:57Z</time></trkpt><trkpt lat="43.24088540607879" lon="11.370314610103291"><ele>215.0</ele><time>2026-04-11T08:01:58Z</time></trkpt><trkpt lat="43.24081502307697" lon="11.37037692797546"><ele>215.0</ele><time>2026-04-11T08:01:59Z</time></trkpt><trkpt lat="43.24073519926553" lon="11.370440113126964"><ele>215.00000000000003</ele><time>2026-04-11T08:02:00Z</time></trkpt><trkpt lat="43.240665400124854" lon="11.370508342182289"><ele>215.0</ele><time>2026-04-11T08:02:01Z</time></trkpt><trkpt lat="43.24059808696764" lon="11.370575638416671"><ele>215.4</ele><time>2026-04-11T08:02:02Z</time></trkpt><trkpt lat="43.240541185745336" lon="11.370648694329308"><ele>215.8</ele><time>2026-04-11T08:02:03Z</time></trkpt><trkpt lat="43.240426203311294" lon="11.370812467027497"><ele>216.2</ele><time>2026-04-11T08:02:05Z</time></trkpt><trkpt lat="43.240362194132175" lon="11.3709077315187"><ele>216.6</ele><time>2026-04-11T08:02:06Z</time></trkpt><trkpt lat="43.240320004158015" lon="11.37098163731142"><ele>217.0</ele><time>2026-04-11T08:02:07Z</time></trkpt><trkpt lat="43.24027186872713" lon="11.371072406313676"><ele>216.99999999999997</ele><time>2026-04-11T08:02:08Z</time></trkpt><trkpt lat="43.24021971732452" lon="11.371166585893878"><ele>217.0</ele><time>2026-04-11T08:02:09Z</time></trkpt><trkpt lat="43.240170703518444" lon="11.371263838337477"><ele>217.0</ele><time>2026-04-11T08:02:10Z</time></trkpt><trkpt lat="43.240115502205434" lon="11.371356974699202"><ele>217.0</ele><time>2026-04-11T08:02:11Z</time></trkpt><trkpt lat="43.2400763169863" lon="11.371458980367066"><ele>216.99999999999997</ele><time>2026-04-11T08:02:12Z</time></trkpt><trkpt lat="43.24000821908601" lon="11.37154836957763"><ele>217.0</ele><time>2026-04-11T08:02:13Z</time></trkpt><trkpt lat="43.239955647592346" lon="11.371646518857817"><ele>216.39999999999998</ele><time>2026-04-11T08:02:14Z</time></trkpt><trkpt lat="43.23990713751611" lon="11.371748643629491"><ele>215.79999999999998</ele><time>2026-04-11T08:02:15Z</time></trkpt><trkpt lat="43.239856885979954" lon="11.371851923794468"><ele>215.2</ele><time>2026-04-11T08:02:16Z</time></trkpt><trkpt lat="43.23980482159592" lon="11.371953937260498"><ele>214.6</ele><time>2026-04-11T08:02:17Z</time></trkpt><trkpt lat="43.23974640444436" lon="11.372052630952197"><ele>214.0</ele><time>2026-04-11T08:02:18Z</time></trkpt><trkpt lat="43.239704482789755" lon="11.372159360874921"><ele>213.83333333333331</ele><time>2026-04-11T08:02:19Z</time></trkpt><trkpt lat="43.2396614814542" lon="11.372263219576052"><ele>213.66666666666666</ele><time>2026-04-11T08:02:20Z</time></trkpt><trkpt lat="43.23962042139594" lon="11.37236341943588"><ele>213.5</ele><time>2026-04-11T08:02:21Z</time></trkpt><trkpt lat="43.239575705216275" lon="11.372458812336186"><ele>213.33333333333331</ele><time>2026-04-11T08:02:22Z</time></trkpt><trkpt lat="43.23952584783575" lon="11.372546248858109"><ele>213.16666666666666</ele><time>2026-04-11T08:02:23Z</time></trkpt><trkpt lat="43.23945500569893" lon="11.372616857910758"><ele>213.0</ele><time>2026-04-11T08:02:24Z</time></trkpt><trkpt lat="43.2392867054448" lon="11.372684269007413"><ele>213.0</ele><time>2026-04-11T08:02:26Z</time></trkpt><trkpt lat="43.239195552634904" lon="11.372692655739819"><ele>213.0</ele><time>2026-04-11T08:02:27Z</time></trkpt><trkpt lat="43.23910167571901" lon="11.37269027368397"><ele>213.0</ele><time>2026-04-11T08:02:28Z</time></trkpt><trkpt lat="43.23900743210201" lon="11.372689657578157"><ele>213.0</ele><time>2026-04-11T08:02:29Z</time></trkpt><trkpt lat="43.23891078005268" lon="11.372691155721405"><ele>213.0</ele><time>2026-04-11T08:02:30Z</time></trkpt><trkpt lat="43.23881397868035" lon="11.372690782975177"><ele>213.0</ele><time>2026-04-11T08:02:31Z</time></trkpt><trkpt lat="43.23871705253103" lon="11.372700280555264"><ele>213.0</ele><time>2026-04-11T08:02:32Z</time></trkpt><trkpt lat="43.23862145497793" lon="11.372762453055122"><ele>213.0</ele><time>2026-04-11T08:02:33Z</time></trkpt><trkpt lat="43.23853318046467" lon="11.372817056410195"><ele>213.0</ele><time>2026-04-11T08:02:34Z</time></trkpt><trkpt lat="43.23844881511469" lon="11.372878828091608"><ele>213.0</ele><time>2026-04-11T08:02:35Z</time></trkpt><trkpt lat="43.23836721021182" lon="11.37294638335361"><ele>211.4</ele><time>2026-04-11T08:02:36Z</time></trkpt><trkpt lat="43.23829145913174" lon="11.373027790319973"><ele>209.8</ele><time>2026-04-11T08:02:37Z</time></trkpt><trkpt lat="43.23823352159284" lon="11.373125298390406"><ele>208.2</ele><time>2026-04-11T08:02:38Z</time></trkpt><trkpt lat="43.23819507419615" lon="11.373242190595054"><ele>206.6</ele><time>2026-04-11T08:02:39Z</time></trkpt><trkpt lat="43.23818811042211" lon="11.373366257976866"><ele>205.0</ele><time>2026-04-11T08:02:40Z</time></trkpt><trkpt lat="43.238198209798924" lon="11.373480341665747"><ele>205.0</ele><time>2026-04-11T08:02:41Z</time></trkpt><trkpt lat="43.238206706179795" lon="11.373603570264109"><ele>205.0</ele><time>2026-04-11T08:02:42Z</time></trkpt><trkpt lat="43.23822604564504" lon="11.373721959830581"><ele>205.0</ele><time>2026-04-11T08:02:43Z</time></trkpt><trkpt lat="43.23824251602867" lon="11.373842975164726"><ele>205.0</ele><time>2026-04-11T08:02:44Z</time></trkpt><trkpt lat="43.23825684411739" lon="11.373964910735518"><ele>205.0</ele><time>2026-04-11T08:02:45Z</time></trkpt><trkpt lat="43.23827518785471" lon="11.374216106873924"><ele>204.8</ele><time>2026-04-11T08:02:47Z</time></trkpt><trkpt lat="43.238281087387364" lon="11.374343116880267"><ele>204.6</ele><time>2026-04-11T08:02:48Z</time></trkpt><trkpt lat="43.23829037941312" lon="11.37446799715907"><ele>204.39999999999998</ele><time>2026-04-11T08:02:49Z</time></trkpt><trkpt lat="43.23830190815723" lon="11.374601237127008"><ele>204.2</ele><time>2026-04-11T08:02:50Z</time></trkpt><trkpt lat="43.23829975168137" lon="11.374732829465694"><ele>204.0</ele><time>2026-04-11T08:02:51Z</time></trkpt><trkpt lat="43.23828773468743" lon="11.374852862012615"><ele>204.0</ele><time>2026-04-11T08:02:52Z</time></trkpt><trkpt lat="43.23824846689857" lon="11.37497343416154"><ele>204.0</ele><time>2026-04-11T08:02:53Z</time></trkpt><trkpt lat="43.23818655473547" lon="11.375087104013113"><ele>204.0</ele><time>2026-04-11T08:02:54Z</time></trkpt><trkpt lat="43.238118058220195" lon="11.375164775558668"><ele>204.0</ele><time>2026-04-11T08:02:55Z</time></trkpt><trkpt lat="43.23804140137557" lon="11.37523332978082"><ele>204.0</ele><time>2026-04-11T08:02:56Z</time></trkpt><trkpt lat="43.23794994819544" lon="11.375293862700849"><ele>204.0</ele><time>2026-04-11T08:02:57Z</time></trkpt><trkpt lat="43.237872409641966" lon="11.375363509281119"><ele>204.0</ele><time>2026-04-11T08:02:58Z</time></trkpt><trkpt lat="43.23778986002744" lon="11.3754354185727"><ele>204.0</ele><time>2026-04-11T08:02:59Z</time></trkpt><trkpt lat="43.237707301880896" lon="11.37551121486438"><ele>204.0</ele><time>2026-04-11T08:03:00Z</time></trkpt><trkpt lat="43.23762977529895" lon="11.375591289763195"><ele>204.0</ele><time>2026-04-11T08:03:01Z</time></trkpt><trkpt lat="43.23755125282843" lon="11.375667558763467"><ele>203.0</ele><time>2026-04-11T08:03:02Z</time></trkpt><trkpt lat="43.23746969186028" lon="11.37574447726712"><ele>202.0</ele><time>2026-04-11T08:03:03Z</time></trkpt><trkpt lat="43.2373929897258" lon="11.37583722553436"><ele>201.0</ele><time>2026-04-11T08:03:04Z</time></trkpt><trkpt lat="43.23731322299291" lon="11.375927853755513"><ele>200.0</ele><time>2026-04-11T08:03:05Z</time></trkpt><trkpt lat="43.23724040026354" lon="11.376018003732684"><ele>199.0</ele><time>2026-04-11T08:03:06Z</time></trkpt><trkpt lat="43.23708883764213" lon="11.376193839371346"><ele>198.39999999999998</ele><time>2026-04-11T08:03:08Z</time></trkpt><trkpt lat="43.237002864902934" lon="11.376271570040121"><ele>197.8</ele><time>2026-04-11T08:03:09Z</time></trkpt><trkpt lat="43.23691210829687" lon="11.376327277042808"><ele>197.2</ele><time>2026-04-11T08:03:10Z</time></trkpt><trkpt lat="43.23680993141025" lon="11.376359303980447"><ele>196.60000000000002</ele><time>2026-04-11T08:03:11Z</time></trkpt><trkpt lat="43.236706033800196" lon="11.3763706000618"><ele>196.0</ele><time>2026-04-11T08:03:12Z</time></trkpt><trkpt lat="43.23660502903376" lon="11.37634564473963"><ele>196.0</ele><time>2026-04-11T08:03:13Z</time></trkpt><trkpt lat="43.23650725222553" lon="11.376310589833317"><ele>196.0</ele><time>2026-04-11T08:03:14Z</time></trkpt><trkpt lat="43.23641734137471" lon="11.376259847085645"><ele>196.0</ele><time>2026-04-11T08:03:15Z</time></trkpt><trkpt lat="43.236343333494375" lon="11.376178337418839"><ele>196.0</ele><time>2026-04-11T08:03:16Z</time></trkpt><trkpt lat="43.236283994137715" lon="11.376080086059561"><ele>196.0</ele><time>2026-04-11T08:03:17Z</time></trkpt><trkpt lat="43.23623968483329" lon="11.375965405625434"><ele>194.0</ele><time>2026-04-11T08:03:18Z</time></trkpt><trkpt lat="43.23621143083709" lon="11.375838803262626"><ele>192.0</ele><time>2026-04-11T08:03:19Z</time></trkpt><trkpt lat="43.23619727092323" lon="11.375709215467163"><ele>190.0</ele><time>2026-04-11T08:03:20Z</time></trkpt><trkpt lat="43.23619029156787" lon="11.375573479165544"><ele>188.0</ele><time>2026-04-11T08:03:21Z</time></trkpt><trkpt lat="43.236195883282385" lon="11.375437801698606"><ele>186.0</ele><time>2026-04-11T08:03:22Z</time></trkpt><trkpt lat="43.23621031517986" lon="11.375308356465439"><ele>185.20000000000002</ele><time>2026-04-11T08:03:23Z</time></trkpt><trkpt lat="43.23623891283856" lon="11.375188621500664"><ele>184.4</ele><time>2026-04-11T08:03:24Z</time></trkpt><trkpt lat="43.23628578410938" lon="11.375082064326515"><ele>183.6</ele><time>2026-04-11T08:03:25Z</time></trkpt><trkpt lat="43.23633596736302" lon="11.374977402731545"><ele>182.8</ele><time>2026-04-11T08:03:26Z</time></trkpt><trkpt lat="43.2363909748641" lon="11.374874863951216"><ele>182.0</ele><time>2026-04-11T08:03:27Z</time></trkpt><trkpt lat="43.236484671103476" lon="11.374648133090666"><ele>183.8</ele><time>2026-04-11T08:03:29Z</time></trkpt><trkpt lat="43.236512253901836" lon="11.374525546632801"><ele>185.6</ele><time>2026-04-11T08:03:30Z</time></trkpt><trkpt lat="43.236532483951144" lon="11.37439670835558"><ele>187.4</ele><time>2026-04-11T08:03:31Z</time></trkpt><trkpt lat="43.23654953371559" lon="11.374269580085263"><ele>189.20000000000002</ele><time>2026-04-11T08:03:32Z</time></trkpt><trkpt lat="43.236561836972314" lon="11.374139616584658"><ele>191.0</ele><time>2026-04-11T08:03:33Z</time></trkpt><trkpt lat="43.23656897689899" lon="11.374015729293669"><ele>191.0</ele><time>2026-04-11T08:03:34Z</time></trkpt><trkpt lat="43.23657408155495" lon="11.373898002871101"><ele>191.0</ele><time>2026-04-11T08:03:35Z</time></trkpt><trkpt lat="43.236561593239394" lon="11.373787728867033"><ele>191.0</ele><time>2026-04-11T08:03:36Z</time></trkpt><trkpt lat="43.236523273747956" lon="11.373669392914296"><ele>191.0</ele><time>2026-04-11T08:03:37Z</time></trkpt><trkpt lat="43.236471129144846" lon="11.373567014333654"><ele>191.0</ele><time>2026-04-11T08:03:38Z</time></trkpt><trkpt lat="43.23640499969079" lon="11.373480925733991"><ele>191.0</ele><time>2026-04-11T08:03:39Z</time></trkpt><trkpt lat="43.236326817277984" lon="11.373416997264961"><ele>189.20000000000002</ele><time>2026-04-11T08:03:40Z</time></trkpt><trkpt lat="43.23624609183115" lon="11.373379536097957"><ele>187.4</ele><time>2026-04-11T08:03:41Z</time></trkpt><trkpt lat="43.236157386173865" lon="11.37336466490945"><ele>185.6</ele><time>2026-04-11T08:03:42Z</time></trkpt><trkpt lat="43.23606660067489" lon="11.373369518112012"><ele>183.8</ele><time>2026-04-11T08:03:43Z</time></trkpt><trkpt lat="43.23597260132322" lon="11.373388845263912"><ele>182.0</ele><time>2026-04-11T08:03:44Z</time></trkpt><trkpt lat="43.235875125446555" lon="11.373407075495926"><ele>182.0</ele><time>2026-04-11T08:03:45Z</time></trkpt><trkpt lat="43.23577806254233" lon="11.373424096218567"><ele>182.0</ele><time>2026-04-11T08:03:46Z</time></trkpt><trkpt lat="43.23567748520546" lon="11.373434634523726"><ele>182.0</ele><time>2026-04-11T08:03:47Z</time></trkpt><trkpt lat="43.23557673596984" lon="11.37345095456689"><ele>182.0</ele><time>2026-04-11T08:03:48Z</time></trkpt><trkpt lat="43.23535845496698" lon="11.373466116237665"><ele>181.0</ele><time>2026-04-11T08:03:50Z</time></trkpt><trkpt lat="43.235254391120364" lon="11.373474307344395"><ele>180.0</ele><time>2026-04-11T08:03:51Z</time></trkpt><trkpt lat="43.23515018643943" lon="11.373467208778683"><ele>179.0</ele><time>2026-04-11T08:03:52Z</time></trkpt><trkpt lat="43.235044866860626" lon="11.373460517289235"><ele>178.0</ele><time>2026-04-11T08:03:53Z</time></trkpt><trkpt lat="43.23493969185297" lon="11.373482441638123"><ele>177.0</ele><time>2026-04-11T08:03:54Z</time></trkpt><trkpt lat="43.23482959599161" lon="11.373546114725219"><ele>177.2</ele><time>2026-04-11T08:03:55Z</time></trkpt><trkpt lat="43.23472168308728" lon="11.373524881091553"><ele>177.39999999999998</ele><time>2026-04-11T08:03:56Z</time></trkpt><trkpt lat="43.2346380645034" lon="11.373519769723494"><ele>177.60000000000002</ele><time>2026-04-11T08:03:57Z</time></trkpt><trkpt lat="43.23453263087477" lon="11.373526759600095"><ele>177.8</ele><time>2026-04-11T08:03:58Z</time></trkpt><trkpt lat="43.2344253455527" lon="11.373533630480923"><ele>178.0</ele><time>2026-04-11T08:03:59Z</time></trkpt><trkpt lat="43.234327701757884" lon="11.373546308527997"><ele>178.0</ele><time>2026-04-11T08:04:00Z</time></trkpt><trkpt lat="43.23422528669942" lon="11.373560209501553"><ele>178.0</ele><time>2026-04-11T08:04:01Z</time></trkpt><trkpt lat="43.234135272397175" lon="11.373561266331562"><ele>178.0</ele><time>2026-04-11T08:04:02Z</time></trkpt><trkpt lat="43.234052761888194" lon="11.373558113224572"><ele>178.0</ele><time>2026-04-11T08:04:03Z</time></trkpt><trkpt lat="43.233965296263385" lon="11.373567595656821"><ele>178.0</ele><time>2026-04-11T08:04:04Z</time></trkpt><trkpt lat="43.233880786270156" lon="11.373559225591508"><ele>178.0</ele><time>2026-04-11T08:04:05Z</time></trkpt><trkpt lat="43.23378617944101" lon="11.37357108119868"><ele>178.2</ele><time>2026-04-11T08:04:06Z</time></trkpt><trkpt lat="43.233707105509524" lon="11.373608641842317"><ele>178.4</ele><time>2026-04-11T08:04:07Z</time></trkpt><trkpt lat="43.233636669728575" lon="11.373626219005537"><ele>178.6</ele><time>2026-04-11T08:04:08Z</time></trkpt><trkpt lat="43.23355609511754" lon="11.3736678722139"><ele>178.79999999999998</ele><time>2026-04-11T08:04:09Z</time></trkpt><trkpt lat="43.23341588477461" lon="11.373777568006043"><ele>179.0</ele><time>2026-04-11T08:04:11Z</time></trkpt><trkpt lat="43.233338666815435" lon="11.373853231412088"><ele>179.0</ele><time>2026-04-11T08:04:12Z</time></trkpt><trkpt lat="43.23325837584691" lon="11.373908262450051"><ele>179.0</ele><time>2026-04-11T08:04:13Z</time></trkpt><trkpt lat="43.23318364901372" lon="11.37395809819886"><ele>179.0</ele><time>2026-04-11T08:04:14Z</time></trkpt><trkpt lat="43.23311001374724" lon="11.374014675721835"><ele>179.0</ele><time>2026-04-11T08:04:15Z</time></trkpt><trkpt lat="43.233040334918265" lon="11.374067601290696"><ele>179.0</ele><time>2026-04-11T08:04:16Z</time></trkpt><trkpt lat="43.23295816448355" lon="11.374118830318737"><ele>179.0</ele><time>2026-04-11T08:04:17Z</time></trkpt><trkpt lat="43.23289143748495" lon="11.374182462674252"><ele>179.0</ele><time>2026-04-11T08:04:18Z</time></trkpt><trkpt lat="43.232812327052" lon="11.374201854266746"><ele>179.0</ele><time>2026-04-11T08:04:19Z</time></trkpt><trkpt lat="43.232731963345955" lon="11.374252221747575"><ele>179.0</ele><time>2026-04-11T08:04:20Z</time></trkpt><trkpt lat="43.232656015413134" lon="11.374306647367135"><ele>179.0</ele><time>2026-04-11T08:04:21Z</time></trkpt><trkpt lat="43.23259820646053" lon="11.374368536242843"><ele>179.0</ele><time>2026-04-11T08:04:22Z</time></trkpt><trkpt lat="43.23252336334906" lon="11.374430805133457"><ele>179.0</ele><time>2026-04-11T08:04:23Z</time></trkpt><trkpt lat="43.23244842004772" lon="11.374489222431718"><ele>179.0</ele><time>2026-04-11T08:04:24Z</time></trkpt><trkpt lat="43.23238021228533" lon="11.374545781929038"><ele>179.0</ele><time>2026-04-11T08:04:25Z</time></trkpt><trkpt lat="43.2323111272056" lon="11.374607010269148"><ele>179.0</ele><time>2026-04-11T08:04:26Z</time></trkpt><trkpt lat="43.23223316497256" lon="11.374648195575826"><ele>179.0</ele><time>2026-04-11T08:04:27Z</time></trkpt><trkpt lat="43.23216624168781" lon="11.374693190718022"><ele>179.0</ele><time>2026-04-11T08:04:28Z</time></trkpt><trkpt lat="43.23209672853985" lon="11.374736934969542"><ele>179.0</ele><time>2026-04-11T08:04:29Z</time></trkpt><trkpt lat="43.232022341719244" lon="11.374772519114863"><ele>179.0</ele><time>2026-04-11T08:04:30Z</time></trkpt><trkpt lat="43.23188757743527" lon="11.37487601489767"><ele>179.0</ele><time>2026-04-11T08:04:32Z</time></trkpt><trkpt lat="43.23181728792223" lon="11.374923951952923"><ele>179.0</ele><time>2026-04-11T08:04:33Z</time></trkpt><trkpt lat="43.2317473040683" lon="11.374970929434523"><ele>179.0</ele><time>2026-04-11T08:04:34Z</time></trkpt><trkpt lat="43.23168120161767" lon="11.375024608179482"><ele>179.0</ele><time>2026-04-11T08:04:35Z</time></trkpt><trkpt lat="43.231616843998715" lon="11.375074717223004"><ele>179.0</ele><time>2026-04-11T08:04:36Z</time></trkpt><trkpt lat="43.23154964007035" lon="11.375120693546494"><ele>179.0</ele><time>2026-04-11T08:04:37Z</time></trkpt><trkpt lat="43.23148076711113" lon="11.375161062437394"><ele>179.0</ele><time>2026-04-11T08:04:38Z</time></trkpt><trkpt lat="43.231413377428204" lon="11.37521265145955"><ele>179.0</ele><time>2026-04-11T08:04:39Z</time></trkpt><trkpt lat="43.23134687342689" lon="11.375261953414293"><ele>179.0</ele><time>2026-04-11T08:04:40Z</time></trkpt><trkpt lat="43.231279489189035" lon="11.375312478869576"><ele>179.0</ele><time>2026-04-11T08:04:41Z</time></trkpt><trkpt lat="43.231210740566624" lon="11.375356810771573"><ele>179.0</ele><time>2026-04-11T08:04:42Z</time></trkpt><trkpt lat="43.231140855768786" lon="11.375405800953013"><ele>179.0</ele><time>2026-04-11T08:04:43Z</time></trkpt><trkpt lat="43.23107369615461" lon="11.375457021262376"><ele>179.0</ele><time>2026-04-11T08:04:44Z</time></trkpt><trkpt lat="43.23100512845489" lon="11.375508270137388"><ele>179.0</ele><time>2026-04-11T08:04:45Z</time></trkpt><trkpt lat="43.230939842873155" lon="11.375559772679729"><ele>179.0</ele><time>2026-04-11T08:04:46Z</time></trkpt><trkpt lat="43.230867855258474" lon="11.375606043423463"><ele>179.0</ele><time>2026-04-11T08:04:47Z</time></trkpt><trkpt lat="43.23080594676323" lon="11.37565552455819"><ele>179.0</ele><time>2026-04-11T08:04:48Z</time></trkpt><trkpt lat="43.230757959149216" lon="11.375717499145305"><ele>179.0</ele><time>2026-04-11T08:04:49Z</time></trkpt><trkpt lat="43.230690224816556" lon="11.375762432862222"><ele>179.0</ele><time>2026-04-11T08:04:50Z</time></trkpt><trkpt lat="43.23061836714549" lon="11.375803578540992"><ele>179.0</ele><time>2026-04-11T08:04:51Z</time></trkpt><trkpt lat="43.230485961004405" lon="11.37589491218486"><ele>179.0</ele><time>2026-04-11T08:04:53Z</time></trkpt><trkpt lat="43.23042132040708" lon="11.375938064733303"><ele>179.0</ele><time>2026-04-11T08:04:54Z</time></trkpt><trkpt lat="43.23035347885343" lon="11.375980220208891"><ele>179.71428571428572</ele><time>2026-04-11T08:04:55Z</time></trkpt><trkpt lat="43.23028801575085" lon="11.376026522099473"><ele>180.42857142857144</ele><time>2026-04-11T08:04:56Z</time></trkpt><trkpt lat="43.23022894896997" lon="11.376075541186154"><ele>181.14285714285717</ele><time>2026-04-11T08:04:57Z</time></trkpt><trkpt lat="43.23016444948048" lon="11.376128001530752"><ele>181.85714285714286</ele><time>2026-04-11T08:04:58Z</time></trkpt><trkpt lat="43.23010139812749" lon="11.376172481213054"><ele>182.57142857142856</ele><time>2026-04-11T08:04:59Z</time></trkpt><trkpt lat="43.23003862304372" lon="11.376222807650855"><ele>183.2857142857143</ele><time>2026-04-11T08:05:00Z</time></trkpt><trkpt lat="43.22997473622551" lon="11.37626307214814"><ele>184.0</ele><time>2026-04-11T08:05:01Z</time></trkpt><trkpt lat="43.229904530477114" lon="11.37631020361167"><ele>184.2857142857143</ele><time>2026-04-11T08:05:02Z</time></trkpt><trkpt lat="43.22984625819664" lon="11.376356164533584"><ele>184.57142857142856</ele><time>2026-04-11T08:05:03Z</time></trkpt><trkpt lat="43.2297872094624" lon="11.376404015583564"><ele>184.85714285714286</ele><time>2026-04-11T08:05:04Z</time></trkpt><trkpt lat="43.229730295249645" lon="11.376455778573385"><ele>185.14285714285717</ele><time>2026-04-11T08:05:05Z</time></trkpt><trkpt lat="43.229669322530114" lon="11.376503751993727"><ele>185.42857142857144</ele><time>2026-04-11T08:05:06Z</time></trkpt><trkpt lat="43.229606893553594" lon="11.376551790377885"><ele>185.71428571428572</ele><time>2026-04-11T08:05:07Z</time></trkpt><trkpt lat="43.22954950941459" lon="11.37660414142785"><ele>186.0</ele><time>2026-04-11T08:05:08Z</time></trkpt><trkpt lat="43.22949020516858" lon="11.376658092499921"><ele>186.0</ele><time>2026-04-11T08:05:09Z</time></trkpt><trkpt lat="43.22943280342133" lon="11.376707363805789"><ele>186.0</ele><time>2026-04-11T08:05:10Z</time></trkpt><trkpt lat="43.229374459830396" lon="11.376757965252066"><ele>186.0</ele><time>2026-04-11T08:05:11Z</time></trkpt><trkpt lat="43.22931503859031" lon="11.376803270183514"><ele>186.0</ele><time>2026-04-11T08:05:12Z</time></trkpt><trkpt lat="43.22919351467698" lon="11.376896467434655"><ele>186.0</ele><time>2026-04-11T08:05:14Z</time></trkpt><trkpt lat="43.22913146451157" lon="11.376946860517544"><ele>186.0</ele><time>2026-04-11T08:05:15Z</time></trkpt><trkpt lat="43.229070645123855" lon="11.376998634160715"><ele>186.0</ele><time>2026-04-11T08:05:16Z</time></trkpt><trkpt lat="43.22900829460307" lon="11.37703834147"><ele>186.0</ele><time>2026-04-11T08:05:17Z</time></trkpt><trkpt lat="43.2289423489846" lon="11.377073373381918"><ele>186.0</ele><time>2026-04-11T08:05:18Z</time></trkpt><trkpt lat="43.22881595816794" lon="11.377145288213054"><ele>186.0</ele><time>2026-04-11T08:05:20Z</time></trkpt><trkpt lat="43.22874671220983" lon="11.377170112056778"><ele>186.0</ele><time>2026-04-11T08:05:21Z</time></trkpt><trkpt lat="43.22867467175463" lon="11.377193136452473"><ele>186.0</ele><time>2026-04-11T08:05:22Z</time></trkpt><trkpt lat="43.22860290418829" lon="11.377214301565633"><ele>184.66666666666666</ele><time>2026-04-11T08:05:23Z</time></trkpt><trkpt lat="43.22853522688943" lon="11.377233119039007"><ele>183.33333333333334</ele><time>2026-04-11T08:05:24Z</time></trkpt><trkpt lat="43.22845818223433" lon="11.377235216769144"><ele>182.0</ele><time>2026-04-11T08:05:25Z</time></trkpt><trkpt lat="43.228382740108835" lon="11.377241073374911"><ele>180.66666666666669</ele><time>2026-04-11T08:05:26Z</time></trkpt><trkpt lat="43.228313173170676" lon="11.377246064324751"><ele>179.33333333333334</ele><time>2026-04-11T08:05:27Z</time></trkpt><trkpt lat="43.22824262478877" lon="11.37725412425535"><ele>178.0</ele><time>2026-04-11T08:05:28Z</time></trkpt><trkpt lat="43.228131461681556" lon="11.377264780010764"><ele>178.0</ele><time>2026-04-11T08:05:30Z</time></trkpt><trkpt lat="43.22804265274078" lon="11.377265771935985"><ele>178.0</ele><time>2026-04-11T08:05:31Z</time></trkpt><trkpt lat="43.22796804061011" lon="11.377269952061958"><ele>178.0</ele><time>2026-04-11T08:05:32Z</time></trkpt><trkpt lat="43.227895258282174" lon="11.377273565552525"><ele>178.0</ele><time>2026-04-11T08:05:33Z</time></trkpt><trkpt lat="43.22775213823785" lon="11.377283176139334"><ele>178.0</ele><time>2026-04-11T08:05:35Z</time></trkpt><trkpt lat="43.22767944845544" lon="11.37728697088186"><ele>177.99999999999997</ele><time>2026-04-11T08:05:36Z</time></trkpt><trkpt lat="43.22760739008316" lon="11.377295398041081"><ele>178.0</ele><time>2026-04-11T08:05:37Z</time></trkpt><trkpt lat="43.2275364527743" lon="11.37729686491614"><ele>178.0</ele><time>2026-04-11T08:05:38Z</time></trkpt><trkpt lat="43.22746991328357" lon="11.377291099742262"><ele>178.0</ele><time>2026-04-11T08:05:39Z</time></trkpt><trkpt lat="43.227399844650016" lon="11.377276359306054"><ele>178.0</ele><time>2026-04-11T08:05:40Z</time></trkpt><trkpt lat="43.227329306193745" lon="11.377256431797598"><ele>177.99999999999997</ele><time>2026-04-11T08:05:41Z</time></trkpt><trkpt lat="43.227249964375375" lon="11.377231585494114"><ele>178.0</ele><time>2026-04-11T08:05:42Z</time></trkpt><trkpt lat="43.22717847163463" lon="11.37720968244058"><ele>178.42857142857142</ele><time>2026-04-11T08:05:43Z</time></trkpt><trkpt lat="43.22711026701293" lon="11.37717454465546"><ele>178.85714285714286</ele><time>2026-04-11T08:05:44Z</time></trkpt><trkpt lat="43.22704552510997" lon="11.377130704253194"><ele>179.28571428571428</ele><time>2026-04-11T08:05:45Z</time></trkpt><trkpt lat="43.226981940463425" lon="11.377089221215588"><ele>179.71428571428572</ele><time>2026-04-11T08:05:46Z</time></trkpt><trkpt lat="43.226915727188185" lon="11.37705262956526"><ele>180.14285714285714</ele><time>2026-04-11T08:05:47Z</time></trkpt><trkpt lat="43.2268516351076" lon="11.37700780782397"><ele>180.57142857142856</ele><time>2026-04-11T08:05:48Z</time></trkpt><trkpt lat="43.2267896810103" lon="11.376962718930761"><ele>181.0</ele><time>2026-04-11T08:05:49Z</time></trkpt><trkpt lat="43.22672784691457" lon="11.376915914341858"><ele>181.0</ele><time>2026-04-11T08:05:50Z</time></trkpt><trkpt lat="43.22666760918132" lon="11.3768644719108"><ele>181.0</ele><time>2026-04-11T08:05:51Z</time></trkpt><trkpt lat="43.22661145974217" lon="11.37680515772292"><ele>181.0</ele><time>2026-04-11T08:05:52Z</time></trkpt><trkpt lat="43.226555161567376" lon="11.376747495499709"><ele>181.0</ele><time>2026-04-11T08:05:53Z</time></trkpt><trkpt lat="43.22649997590497" lon="11.376689937028882"><ele>181.0</ele><time>2026-04-11T08:05:54Z</time></trkpt><trkpt lat="43.22639713123795" lon="11.376563736275056"><ele>181.0</ele><time>2026-04-11T08:05:56Z</time></trkpt><trkpt lat="43.226347679533426" lon="11.376497138552654"><ele>180.71428571428572</ele><time>2026-04-11T08:05:57Z</time></trkpt><trkpt lat="43.22630447890551" lon="11.376423669178871"><ele>180.42857142857142</ele><time>2026-04-11T08:05:58Z</time></trkpt><trkpt lat="43.226261400664676" lon="11.376350533495996"><ele>180.14285714285717</ele><time>2026-04-11T08:05:59Z</time></trkpt><trkpt lat="43.22622363061114" lon="11.376271491564099"><ele>179.85714285714286</ele><time>2026-04-11T08:06:00Z</time></trkpt><trkpt lat="43.22618862631928" lon="11.376191228187881"><ele>179.57142857142858</ele><time>2026-04-11T08:06:01Z</time></trkpt><trkpt lat="43.2261597194495" lon="11.376105087062653"><ele>179.2857142857143</ele><time>2026-04-11T08:06:02Z</time></trkpt><trkpt lat="43.22613324908702" lon="11.376017319072274"><ele>179.0</ele><time>2026-04-11T08:06:03Z</time></trkpt><trkpt lat="43.226109780230765" lon="11.375931211058482"><ele>179.00000000000003</ele><time>2026-04-11T08:06:04Z</time></trkpt><trkpt lat="43.22608631089122" lon="11.375840087515757"><ele>179.0</ele><time>2026-04-11T08:06:05Z</time></trkpt><trkpt lat="43.22606536382236" lon="11.375749153631963"><ele>179.0</ele><time>2026-04-11T08:06:06Z</time></trkpt><trkpt lat="43.22604694602249" lon="11.375652081062734"><ele>179.0</ele><time>2026-04-11T08:06:07Z</time></trkpt><trkpt lat="43.22603543793323" lon="11.375553618171766"><ele>179.0</ele><time>2026-04-11T08:06:08Z</time></trkpt><trkpt lat="43.22602543129455" lon="11.375453409326413"><ele>179.00000000000003</ele><time>2026-04-11T08:06:09Z</time></trkpt><trkpt lat="43.22602282359832" lon="11.375360131810956"><ele>179.0</ele><time>2026-04-11T08:06:10Z</time></trkpt><trkpt lat="43.22602871447289" lon="11.375259326641002"><ele>178.83333333333331</ele><time>2026-04-11T08:06:11Z</time></trkpt><trkpt lat="43.22603799949358" lon="11.37516153087198"><ele>178.66666666666666</ele><time>2026-04-11T08:06:12Z</time></trkpt><trkpt lat="43.226045383510325" lon="11.375065525474152"><ele>178.5</ele><time>2026-04-11T08:06:13Z</time></trkpt><trkpt lat="43.22605516995925" lon="11.374967194563453"><ele>178.33333333333334</ele><time>2026-04-11T08:06:14Z</time></trkpt><trkpt lat="43.22606628144202" lon="11.37487071928104"><ele>178.16666666666669</ele><time>2026-04-11T08:06:15Z</time></trkpt><trkpt lat="43.22608095487338" lon="11.374668396432394"><ele>178.0</ele><time>2026-04-11T08:06:17Z</time></trkpt><trkpt lat="43.226095897549264" lon="11.374566583855128"><ele>177.85714285714283</ele><time>2026-04-11T08:06:18Z</time></trkpt><trkpt lat="43.22610344983622" lon="11.374470376617648"><ele>177.71428571428572</ele><time>2026-04-11T08:06:19Z</time></trkpt><trkpt lat="43.226109961670765" lon="11.374372826504997"><ele>177.57142857142856</ele><time>2026-04-11T08:06:20Z</time></trkpt><trkpt lat="43.2261172138424" lon="11.374273669449886"><ele>177.42857142857142</ele><time>2026-04-11T08:06:21Z</time></trkpt><trkpt lat="43.22612707308712" lon="11.374176409104876"><ele>177.28571428571428</ele><time>2026-04-11T08:06:22Z</time></trkpt><trkpt lat="43.226133458873186" lon="11.374076085834991"><ele>177.14285714285714</ele><time>2026-04-11T08:06:23Z</time></trkpt><trkpt lat="43.226134136623344" lon="11.37397699809903"><ele>177.0</ele><time>2026-04-11T08:06:24Z</time></trkpt><trkpt lat="43.22613319423863" lon="11.373877983836211"><ele>177.14285714285714</ele><time>2026-04-11T08:06:25Z</time></trkpt><trkpt lat="43.226126427152785" lon="11.373779385957636"><ele>177.28571428571428</ele><time>2026-04-11T08:06:26Z</time></trkpt><trkpt lat="43.22611947382101" lon="11.373680571446336"><ele>177.42857142857142</ele><time>2026-04-11T08:06:27Z</time></trkpt><trkpt lat="43.226107122622025" lon="11.373578925799398"><ele>177.57142857142856</ele><time>2026-04-11T08:06:28Z</time></trkpt><trkpt lat="43.226086605054604" lon="11.373481363122346"><ele>177.71428571428572</ele><time>2026-04-11T08:06:29Z</time></trkpt><trkpt lat="43.2260576234097" lon="11.373386552426126"><ele>177.85714285714283</ele><time>2026-04-11T08:06:30Z</time></trkpt><trkpt lat="43.22602638920074" lon="11.373294281324618"><ele>178.0</ele><time>2026-04-11T08:06:31Z</time></trkpt><trkpt lat="43.226000605084835" lon="11.37320280750931"><ele>178.0</ele><time>2026-04-11T08:06:32Z</time></trkpt><trkpt lat="43.22597316733747" lon="11.373107746602592"><ele>178.0</ele><time>2026-04-11T08:06:33Z</time></trkpt><trkpt lat="43.22594359728814" lon="11.37301442242958"><ele>178.0</ele><time>2026-04-11T08:06:34Z</time></trkpt><trkpt lat="43.225915528342924" lon="11.37291980760224"><ele>178.0</ele><time>2026-04-11T08:06:35Z</time></trkpt><trkpt lat="43.225885968512806" lon="11.372826248757853"><ele>178.0</ele><time>2026-04-11T08:06:36Z</time></trkpt><trkpt lat="43.225830230683904" lon="11.372638544952897"><ele>178.0</ele><time>2026-04-11T08:06:38Z</time></trkpt><trkpt lat="43.22579879032253" lon="11.372547993919577"><ele>178.42857142857142</ele><time>2026-04-11T08:06:39Z</time></trkpt><trkpt lat="43.22576762542957" lon="11.372457109290906"><ele>178.85714285714286</ele><time>2026-04-11T08:06:40Z</time></trkpt><trkpt lat="43.22573254994001" lon="11.372366797167054"><ele>179.28571428571428</ele><time>2026-04-11T08:06:41Z</time></trkpt><trkpt lat="43.22569158810409" lon="11.37228115931285"><ele>179.71428571428572</ele><time>2026-04-11T08:06:42Z</time></trkpt><trkpt lat="43.22564590836397" lon="11.372198859356963"><ele>180.14285714285714</ele><time>2026-04-11T08:06:43Z</time></trkpt><trkpt lat="43.22558595857459" lon="11.372139672321522"><ele>180.57142857142856</ele><time>2026-04-11T08:06:44Z</time></trkpt><trkpt lat="43.22551591699476" lon="11.372111485588302"><ele>181.0</ele><time>2026-04-11T08:06:45Z</time></trkpt><trkpt lat="43.225445870788626" lon="11.372122492996356"><ele>181.0</ele><time>2026-04-11T08:06:46Z</time></trkpt><trkpt lat="43.22538262564635" lon="11.372162654458224"><ele>181.0</ele><time>2026-04-11T08:06:47Z</time></trkpt><trkpt lat="43.22532599039067" lon="11.372235390612333"><ele>181.0</ele><time>2026-04-11T08:06:48Z</time></trkpt><trkpt lat="43.22528568894786" lon="11.372312145666191"><ele>181.0</ele><time>2026-04-11T08:06:49Z</time></trkpt><trkpt lat="43.2252570092437" lon="11.372400275077426"><ele>181.0</ele><time>2026-04-11T08:06:50Z</time></trkpt><trkpt lat="43.22523371616851" lon="11.372497791704653"><ele>181.0</ele><time>2026-04-11T08:06:51Z</time></trkpt><trkpt lat="43.225214638666046" lon="11.372581857281554"><ele>181.0</ele><time>2026-04-11T08:06:52Z</time></trkpt><trkpt lat="43.22517880020107" lon="11.372672983551558"><ele>180.8</ele><time>2026-04-11T08:06:53Z</time></trkpt><trkpt lat="43.2251521814536" lon="11.372755459517544"><ele>180.60000000000002</ele><time>2026-04-11T08:06:54Z</time></trkpt><trkpt lat="43.225113670461056" lon="11.372829312677851"><ele>180.4</ele><time>2026-04-11T08:06:55Z</time></trkpt><trkpt lat="43.22507548157455" lon="11.372904218140697"><ele>180.2</ele><time>2026-04-11T08:06:56Z</time></trkpt><trkpt lat="43.22501764818444" lon="11.373047023950296"><ele>180.0</ele><time>2026-04-11T08:06:58Z</time></trkpt><trkpt lat="43.224900112632604" lon="11.373256097838654"><ele>180.0</ele><time>2026-04-11T08:07:02Z</time></trkpt><trkpt lat="43.22484260985417" lon="11.373315510589855"><ele>180.0</ele><time>2026-04-11T08:07:04Z</time></trkpt><trkpt lat="43.22477488331881" lon="11.373363186873807"><ele>180.0</ele><time>2026-04-11T08:07:06Z</time></trkpt><trkpt lat="43.224708106204986" lon="11.373414631363367"><ele>180.0</ele><time>2026-04-11T08:07:09Z</time></trkpt><trkpt lat="43.224621600236055" lon="11.373453478932198"><ele>180.0</ele><time>2026-04-11T08:07:12Z</time></trkpt><trkpt lat="43.22454934642322" lon="11.373471754798429"><ele>180.0</ele><time>2026-04-11T08:07:15Z</time></trkpt><trkpt lat="43.22446234637079" lon="11.373501464473216"><ele>181.33333333333334</ele><time>2026-04-11T08:07:19Z</time></trkpt><trkpt lat="43.22430331129515" lon="11.37349428504555"><ele>182.66666666666666</ele><time>2026-04-11T08:07:26Z</time></trkpt><trkpt lat="43.224237569015706" lon="11.373484174026348"><ele>184.0</ele><time>2026-04-11T08:07:29Z</time></trkpt><trkpt lat="43.22417000266509" lon="11.373467886385683"><ele>185.33333333333331</ele><time>2026-04-11T08:07:32Z</time></trkpt><trkpt lat="43.22409975131926" lon="11.37344008535708"><ele>186.66666666666666</ele><time>2026-04-11T08:07:36Z</time></trkpt><trkpt lat="43.224037310855955" lon="11.373416643028293"><ele>188.0</ele><time>2026-04-11T08:07:39Z</time></trkpt><trkpt lat="43.223978180196504" lon="11.37336765998329"><ele>191.0</ele><time>2026-04-11T08:07:42Z</time></trkpt><trkpt lat="43.22385335452247" lon="11.373257359606209"><ele>194.0</ele><time>2026-04-11T08:07:49Z</time></trkpt><trkpt lat="43.22379124740765" lon="11.373209774830098"><ele>197.0</ele><time>2026-04-11T08:07:52Z</time></trkpt><trkpt lat="43.223757193327515" lon="11.37313573430506"><ele>200.0</ele><time>2026-04-11T08:07:55Z</time></trkpt><trkpt lat="43.223710267687544" lon="11.37306558284116"><ele>203.00000000000003</ele><time>2026-04-11T08:07:58Z</time></trkpt><trkpt lat="43.22368036091706" lon="11.372981038065868"><ele>206.0</ele><time>2026-04-11T08:08:01Z</time></trkpt><trkpt lat="43.22365548162942" lon="11.372888431048152"><ele>206.0</ele><time>2026-04-11T08:08:04Z</time></trkpt><trkpt lat="43.2235838051985" lon="11.372699066203081"><ele>206.0</ele><time>2026-04-11T08:08:12Z</time></trkpt><trkpt lat="43.22357900050617" lon="11.372595392783754"><ele>206.0</ele><time>2026-04-11T08:08:16Z</time></trkpt><trkpt lat="43.2235912916507" lon="11.372487108489267"><ele>206.0</ele><time>2026-04-11T08:08:20Z</time></trkpt><trkpt lat="43.223605318503225" lon="11.372391356177532"><ele>206.0</ele><time>2026-04-11T08:08:24Z</time></trkpt><trkpt lat="43.223620795115956" lon="11.37229377914821"><ele>206.00000000000003</ele><time>2026-04-11T08:08:28Z</time></trkpt><trkpt lat="43.223643342349206" lon="11.372088002431944"><ele>206.0</ele><time>2026-04-11T08:08:35Z</time></trkpt><trkpt lat="43.22364498371429" lon="11.371993450157202"><ele>206.0</ele><time>2026-04-11T08:08:38Z</time></trkpt><trkpt lat="43.22365334013582" lon="11.371893885195387"><ele>206.0</ele><time>2026-04-11T08:08:41Z</time></trkpt><trkpt lat="43.22363690658541" lon="11.371797624491803"><ele>206.00000000000003</ele><time>2026-04-11T08:08:44Z</time></trkpt><trkpt lat="43.22357791182527" lon="11.371763234776214"><ele>206.0</ele><time>2026-04-11T08:08:45Z</time></trkpt><trkpt lat="43.22360420964974" lon="11.3716726084044"><ele>206.00000000000003</ele><time>2026-04-11T08:08:47Z</time></trkpt><trkpt lat="43.22358247465581" lon="11.37158501215581"><ele>206.0</ele><time>2026-04-11T08:08:50Z</time></trkpt><trkpt lat="43.223507293581086" lon="11.371402284271788"><ele>206.0</ele><time>2026-04-11T08:08:56Z</time></trkpt><trkpt lat="43.22345013164926" lon="11.37134028081893"><ele>206.0</ele><time>2026-04-11T08:08:59Z</time></trkpt><trkpt lat="43.22340416466074" lon="11.371278767154209"><ele>206.00000000000003</ele><time>2026-04-11T08:09:02Z</time></trkpt><trkpt lat="43.223350801712485" lon="11.37121618144614"><ele>206.0</ele><time>2026-04-11T08:09:05Z</time></trkpt><trkpt lat="43.223285888942975" lon="11.3711709823903"><ele>205.20000000000002</ele><time>2026-04-11T08:09:08Z</time></trkpt><trkpt lat="43.223199305833575" lon="11.371161586155159"><ele>204.4</ele><time>2026-04-11T08:09:11Z</time></trkpt><trkpt lat="43.22305265383584" lon="11.371165519317033"><ele>203.6</ele><time>2026-04-11T08:09:17Z</time></trkpt><trkpt lat="43.222986621509996" lon="11.371196287092088"><ele>202.8</ele><time>2026-04-11T08:09:20Z</time></trkpt><trkpt lat="43.22291602426008" lon="11.37125410724909"><ele>202.0</ele><time>2026-04-11T08:09:23Z</time></trkpt><trkpt lat="43.22287571194963" lon="11.371325948761232"><ele>203.2</ele><time>2026-04-11T08:09:26Z</time></trkpt><trkpt lat="43.222825712872705" lon="11.371401893945446"><ele>204.39999999999998</ele><time>2026-04-11T08:09:29Z</time></trkpt><trkpt lat="43.222782794154234" lon="11.371482980527503"><ele>205.60000000000002</ele><time>2026-04-11T08:09:32Z</time></trkpt><trkpt lat="43.22268739692759" lon="11.371669365872737"><ele>206.8</ele><time>2026-04-11T08:09:38Z</time></trkpt><trkpt lat="43.222640952644696" lon="11.371765171150635"><ele>208.0</ele><time>2026-04-11T08:09:41Z</time></trkpt><trkpt lat="43.22258324868152" lon="11.371859266723321"><ele>208.0</ele><time>2026-04-11T08:09:44Z</time></trkpt><trkpt lat="43.22253279635067" lon="11.371950027880647"><ele>208.0</ele><time>2026-04-11T08:09:47Z</time></trkpt><trkpt lat="43.22247426861867" lon="11.372036285439462"><ele>208.0</ele><time>2026-04-11T08:09:50Z</time></trkpt><trkpt lat="43.22242117530178" lon="11.372109385357493"><ele>208.0</ele><time>2026-04-11T08:09:53Z</time></trkpt><trkpt lat="43.22231201296814" lon="11.372243256762868"><ele>208.0</ele><time>2026-04-11T08:09:59Z</time></trkpt><trkpt lat="43.22226496450003" lon="11.372306383927503"><ele>210.16666666666666</ele><time>2026-04-11T08:10:02Z</time></trkpt><trkpt lat="43.222207245683364" lon="11.372361609309404"><ele>212.33333333333331</ele><time>2026-04-11T08:10:05Z</time></trkpt><trkpt lat="43.222151448117785" lon="11.372415032241591"><ele>214.5</ele><time>2026-04-11T08:10:08Z</time></trkpt><trkpt lat="43.222090166653864" lon="11.372460310018296"><ele>216.66666666666669</ele><time>2026-04-11T08:10:11Z</time></trkpt><trkpt lat="43.22203347961012" lon="11.372504516682127"><ele>218.83333333333334</ele><time>2026-04-11T08:10:14Z</time></trkpt><trkpt lat="43.22191373958002" lon="11.37257298580474"><ele>221.0</ele><time>2026-04-11T08:10:20Z</time></trkpt><trkpt lat="43.221850515183625" lon="11.372600574094866"><ele>221.00000000000003</ele><time>2026-04-11T08:10:23Z</time></trkpt><trkpt lat="43.22179090998722" lon="11.372630713526757"><ele>221.0</ele><time>2026-04-11T08:10:26Z</time></trkpt><trkpt lat="43.22172783302642" lon="11.372646997477283"><ele>221.0</ele><time>2026-04-11T08:10:29Z</time></trkpt><trkpt lat="43.22163732329383" lon="11.372651783749697"><ele>221.0</ele><time>2026-04-11T08:10:33Z</time></trkpt><trkpt lat="43.22155525769954" lon="11.37266545989044"><ele>221.00000000000003</ele><time>2026-04-11T08:10:37Z</time></trkpt><trkpt lat="43.22142055297961" lon="11.372692937902537"><ele>221.0</ele><time>2026-04-11T08:10:43Z</time></trkpt><trkpt lat="43.22135416638361" lon="11.372708645874189"><ele>222.20000000000002</ele><time>2026-04-11T08:10:46Z</time></trkpt><trkpt lat="43.22128978093539" lon="11.372728391793517"><ele>223.40000000000003</ele><time>2026-04-11T08:10:49Z</time></trkpt><trkpt lat="43.22121458080964" lon="11.372742191357037"><ele>224.6</ele><time>2026-04-11T08:10:52Z</time></trkpt><trkpt lat="43.22113975115011" lon="11.372764112424832"><ele>225.8</ele><time>2026-04-11T08:10:55Z</time></trkpt><trkpt lat="43.2210549485643" lon="11.372793168543916"><ele>227.0</ele><time>2026-04-11T08:10:58Z</time></trkpt><trkpt lat="43.22090445469611" lon="11.37281551299723"><ele>227.0</ele><time>2026-04-11T08:11:03Z</time></trkpt><trkpt lat="43.22084248415741" lon="11.37283405628687"><ele>227.00000000000003</ele><time>2026-04-11T08:11:05Z</time></trkpt><trkpt lat="43.22077608657355" lon="11.372842309479427"><ele>227.0</ele><time>2026-04-11T08:11:07Z</time></trkpt><trkpt lat="43.22071147898882" lon="11.372855409406347"><ele>227.0</ele><time>2026-04-11T08:11:09Z</time></trkpt><trkpt lat="43.22064852661695" lon="11.37287307691306"><ele>227.00000000000003</ele><time>2026-04-11T08:11:11Z</time></trkpt><trkpt lat="43.22058097244173" lon="11.372889101546187"><ele>227.0</ele><time>2026-04-11T08:11:13Z</time></trkpt><trkpt lat="43.2204931305215" lon="11.372908260330401"><ele>227.0</ele><time>2026-04-11T08:11:16Z</time></trkpt><trkpt lat="43.22041636275946" lon="11.372921411245649"><ele>227.66666666666669</ele><time>2026-04-11T08:11:19Z</time></trkpt><trkpt lat="43.22028151396825" lon="11.372952382251977"><ele>228.33333333333334</ele><time>2026-04-11T08:11:25Z</time></trkpt><trkpt lat="43.220210851002854" lon="11.372971468832507"><ele>229.0</ele><time>2026-04-11T08:11:28Z</time></trkpt><trkpt lat="43.220129986786176" lon="11.372985119870796"><ele>229.66666666666669</ele><time>2026-04-11T08:11:32Z</time></trkpt><trkpt lat="43.220062577306855" lon="11.37300688405331"><ele>230.33333333333334</ele><time>2026-04-11T08:11:35Z</time></trkpt><trkpt lat="43.219994911849874" lon="11.37301504826927"><ele>231.0</ele><time>2026-04-11T08:11:38Z</time></trkpt><trkpt lat="43.219926147563825" lon="11.373035985225025"><ele>233.16666666666666</ele><time>2026-04-11T08:11:41Z</time></trkpt><trkpt lat="43.219781255764985" lon="11.37305015587024"><ele>235.33333333333331</ele><time>2026-04-11T08:11:48Z</time></trkpt><trkpt lat="43.2197168186069" lon="11.373060293397653"><ele>237.5</ele><time>2026-04-11T08:11:51Z</time></trkpt><trkpt lat="43.21965237605982" lon="11.373062629049969"><ele>239.66666666666666</ele><time>2026-04-11T08:11:55Z</time></trkpt><trkpt lat="43.219581123814265" lon="11.373065800950172"><ele>241.83333333333331</ele><time>2026-04-11T08:11:58Z</time></trkpt><trkpt lat="43.21951809235994" lon="11.373053631335704"><ele>244.0</ele><time>2026-04-11T08:12:01Z</time></trkpt><trkpt lat="43.21944939764103" lon="11.373046532525349"><ele>243.99999999999997</ele><time>2026-04-11T08:12:04Z</time></trkpt><trkpt lat="43.21932059823583" lon="11.373027729844363"><ele>244.0</ele><time>2026-04-11T08:12:10Z</time></trkpt><trkpt lat="43.219252427147424" lon="11.373040819642481"><ele>244.0</ele><time>2026-04-11T08:12:13Z</time></trkpt><trkpt lat="43.21917842914992" lon="11.373012614621263"><ele>244.0</ele><time>2026-04-11T08:12:16Z</time></trkpt><trkpt lat="43.21909405231485" lon="11.373002656645351"><ele>243.99999999999997</ele><time>2026-04-11T08:12:19Z</time></trkpt><trkpt lat="43.2190178249582" lon="11.373003877659261"><ele>244.0</ele><time>2026-04-11T08:12:22Z</time></trkpt><trkpt lat="43.21894130251116" lon="11.372986887987166"><ele>245.6</ele><time>2026-04-11T08:12:25Z</time></trkpt><trkpt lat="43.21882051878514" lon="11.37292918452045"><ele>247.2</ele><time>2026-04-11T08:12:29Z</time></trkpt><trkpt lat="43.21871203744411" lon="11.37287676583185"><ele>248.79999999999998</ele><time>2026-04-11T08:12:32Z</time></trkpt><trkpt lat="43.21864476774263" lon="11.372865831921377"><ele>250.39999999999998</ele><time>2026-04-11T08:12:34Z</time></trkpt><trkpt lat="43.21856150993003" lon="11.37281530309669"><ele>252.0</ele><time>2026-04-11T08:12:36Z</time></trkpt><trkpt lat="43.21846129404435" lon="11.37278736885974"><ele>252.0</ele><time>2026-04-11T08:12:38Z</time></trkpt><trkpt lat="43.218377000689124" lon="11.372734200060739"><ele>252.0</ele><time>2026-04-11T08:12:40Z</time></trkpt><trkpt lat="43.21828404852574" lon="11.372679404125236"><ele>252.0</ele><time>2026-04-11T08:12:42Z</time></trkpt><trkpt lat="43.21818806498894" lon="11.372625785970412"><ele>252.0</ele><time>2026-04-11T08:12:44Z</time></trkpt><trkpt lat="43.21808161039558" lon="11.372558600926794"><ele>252.0</ele><time>2026-04-11T08:12:46Z</time></trkpt><trkpt lat="43.2178708122396" lon="11.372445489599615"><ele>250.0</ele><time>2026-04-11T08:12:50Z</time></trkpt><trkpt lat="43.21775664986744" lon="11.372386450466085"><ele>248.0</ele><time>2026-04-11T08:12:52Z</time></trkpt><trkpt lat="43.217636333974234" lon="11.372348813544159"><ele>246.0</ele><time>2026-04-11T08:12:54Z</time></trkpt><trkpt lat="43.217515124870665" lon="11.372294171854103"><ele>244.0</ele><time>2026-04-11T08:12:56Z</time></trkpt><trkpt lat="43.2174532836809" lon="11.372253520382499"><ele>242.0</ele><time>2026-04-11T08:12:57Z</time></trkpt><trkpt lat="43.21739553989193" lon="11.372210667635287"><ele>241.50000000000003</ele><time>2026-04-11T08:12:58Z</time></trkpt><trkpt lat="43.21732608940791" lon="11.372181062785044"><ele>241.0</ele><time>2026-04-11T08:12:59Z</time></trkpt><trkpt lat="43.21721463930097" lon="11.372106931121786"><ele>240.5</ele><time>2026-04-11T08:13:01Z</time></trkpt><trkpt lat="43.21715278287429" lon="11.372071368602576"><ele>240.0</ele><time>2026-04-11T08:13:02Z</time></trkpt><trkpt lat="43.21708844047076" lon="11.372036822428935"><ele>239.50000000000003</ele><time>2026-04-11T08:13:03Z</time></trkpt><trkpt lat="43.21702084668565" lon="11.372001033350553"><ele>239.0</ele><time>2026-04-11T08:13:04Z</time></trkpt><trkpt lat="43.21695220712247" lon="11.371957738166605"><ele>238.83333333333334</ele><time>2026-04-11T08:13:05Z</time></trkpt><trkpt lat="43.216879819396674" lon="11.371932597242797"><ele>238.66666666666669</ele><time>2026-04-11T08:13:06Z</time></trkpt><trkpt lat="43.2168088208437" lon="11.371900189814507"><ele>238.5</ele><time>2026-04-11T08:13:07Z</time></trkpt><trkpt lat="43.21667649411131" lon="11.371827304706482"><ele>238.33333333333331</ele><time>2026-04-11T08:13:09Z</time></trkpt><trkpt lat="43.216607110079806" lon="11.371789041391015"><ele>238.16666666666666</ele><time>2026-04-11T08:13:10Z</time></trkpt><trkpt lat="43.21654949288485" lon="11.371752030756854"><ele>238.0</ele><time>2026-04-11T08:13:11Z</time></trkpt><trkpt lat="43.216477613386004" lon="11.371728442189568"><ele>238.99999999999997</ele><time>2026-04-11T08:13:12Z</time></trkpt><trkpt lat="43.21641168968391" lon="11.371700801183502"><ele>240.0</ele><time>2026-04-11T08:13:13Z</time></trkpt><trkpt lat="43.216348372828975" lon="11.37166596111035"><ele>241.0</ele><time>2026-04-11T08:13:14Z</time></trkpt><trkpt lat="43.216288141937596" lon="11.371631166832277"><ele>242.0</ele><time>2026-04-11T08:13:15Z</time></trkpt><trkpt lat="43.216225428063886" lon="11.371599684657612"><ele>242.99999999999997</ele><time>2026-04-11T08:13:16Z</time></trkpt><trkpt lat="43.216112068086574" lon="11.371538701773195"><ele>244.0</ele><time>2026-04-11T08:13:18Z</time></trkpt><trkpt lat="43.216007381701914" lon="11.371484368957672"><ele>244.0</ele><time>2026-04-11T08:13:20Z</time></trkpt><trkpt lat="43.21591385240304" lon="11.371432383851566"><ele>243.99999999999997</ele><time>2026-04-11T08:13:22Z</time></trkpt><trkpt lat="43.21583901891128" lon="11.371391216159076"><ele>243.99999999999997</ele><time>2026-04-11T08:13:24Z</time></trkpt><trkpt lat="43.215784302330995" lon="11.37134020318174"><ele>244.0</ele><time>2026-04-11T08:13:26Z</time></trkpt><trkpt lat="43.2157231362952" lon="11.371278093987728"><ele>244.0</ele><time>2026-04-11T08:13:28Z</time></trkpt><trkpt lat="43.215561307240435" lon="11.371070761916613"><ele>243.33333333333331</ele><time>2026-04-11T08:13:32Z</time></trkpt><trkpt lat="43.21545375088719" lon="11.370970316818893"><ele>242.66666666666666</ele><time>2026-04-11T08:13:34Z</time></trkpt><trkpt lat="43.21539889622187" lon="11.370909228125296"><ele>242.0</ele><time>2026-04-11T08:13:35Z</time></trkpt><trkpt lat="43.21533340684071" lon="11.370852128941868"><ele>241.33333333333331</ele><time>2026-04-11T08:13:36Z</time></trkpt><trkpt lat="43.21526827347083" lon="11.370799193808159"><ele>240.66666666666666</ele><time>2026-04-11T08:13:37Z</time></trkpt><trkpt lat="43.21519206247378" lon="11.370751451984946"><ele>240.0</ele><time>2026-04-11T08:13:38Z</time></trkpt><trkpt lat="43.21511366063596" lon="11.370692105718422"><ele>240.0</ele><time>2026-04-11T08:13:39Z</time></trkpt><trkpt lat="43.21502029759837" lon="11.370681958980532"><ele>240.0</ele><time>2026-04-11T08:13:40Z</time></trkpt><trkpt lat="43.21491654034936" lon="11.370653052410196"><ele>240.0</ele><time>2026-04-11T08:13:41Z</time></trkpt><trkpt lat="43.21481209683353" lon="11.370643478763728"><ele>240.0</ele><time>2026-04-11T08:13:42Z</time></trkpt><trkpt lat="43.21470750754506" lon="11.370662753082314"><ele>240.0</ele><time>2026-04-11T08:13:43Z</time></trkpt><trkpt lat="43.21460158957042" lon="11.370721873308018"><ele>237.0</ele><time>2026-04-11T08:13:44Z</time></trkpt><trkpt lat="43.214493077132985" lon="11.370794202235645"><ele>234.0</ele><time>2026-04-11T08:13:45Z</time></trkpt><trkpt lat="43.21438544934689" lon="11.370868830304417"><ele>231.0</ele><time>2026-04-11T08:13:46Z</time></trkpt><trkpt lat="43.21427300653543" lon="11.37093930006583"><ele>228.0</ele><time>2026-04-11T08:13:47Z</time></trkpt><trkpt lat="43.21416026470466" lon="11.371007625501557"><ele>228.0</ele><time>2026-04-11T08:13:48Z</time></trkpt><trkpt lat="43.214044038756775" lon="11.371082835697027"><ele>228.0</ele><time>2026-04-11T08:13:49Z</time></trkpt><trkpt lat="43.2138195731271" lon="11.371232718934074"><ele>228.0</ele><time>2026-04-11T08:13:51Z</time></trkpt><trkpt lat="43.21370390167053" lon="11.371307596014946"><ele>226.8</ele><time>2026-04-11T08:13:52Z</time></trkpt><trkpt lat="43.21360232269524" lon="11.37134498291521"><ele>225.60000000000002</ele><time>2026-04-11T08:13:53Z</time></trkpt><trkpt lat="43.21347666189911" lon="11.371370331642867"><ele>224.39999999999998</ele><time>2026-04-11T08:13:54Z</time></trkpt><trkpt lat="43.213381430301375" lon="11.371353463510479"><ele>223.2</ele><time>2026-04-11T08:13:55Z</time></trkpt><trkpt lat="43.21329434028643" lon="11.371291507178206"><ele>222.0</ele><time>2026-04-11T08:13:56Z</time></trkpt><trkpt lat="43.2132207041589" lon="11.371201008363231"><ele>222.0</ele><time>2026-04-11T08:13:57Z</time></trkpt><trkpt lat="43.21316246034858" lon="11.371101119267962"><ele>222.0</ele><time>2026-04-11T08:13:58Z</time></trkpt><trkpt lat="43.21313025165459" lon="11.37100717864212"><ele>222.0</ele><time>2026-04-11T08:13:59Z</time></trkpt><trkpt lat="43.21309375841973" lon="11.370914681113819"><ele>222.0</ele><time>2026-04-11T08:14:00Z</time></trkpt><trkpt lat="43.213049987983524" lon="11.370827025443722"><ele>222.0</ele><time>2026-04-11T08:14:01Z</time></trkpt><trkpt lat="43.21299909753785" lon="11.370743832734572"><ele>222.0</ele><time>2026-04-11T08:14:02Z</time></trkpt><trkpt lat="43.212951930543326" lon="11.370651350097033"><ele>222.0</ele><time>2026-04-11T08:14:03Z</time></trkpt><trkpt lat="43.21292585574804" lon="11.370556452685937"><ele>222.0</ele><time>2026-04-11T08:14:04Z</time></trkpt><trkpt lat="43.21288963976777" lon="11.370473630470382"><ele>222.0</ele><time>2026-04-11T08:14:05Z</time></trkpt><trkpt lat="43.21284904020402" lon="11.370390124021565"><ele>222.0</ele><time>2026-04-11T08:14:06Z</time></trkpt><trkpt lat="43.212809795360585" lon="11.370315705313164"><ele>222.0</ele><time>2026-04-11T08:14:07Z</time></trkpt><trkpt lat="43.21274947185301" lon="11.370187513932871"><ele>222.0</ele><time>2026-04-11T08:14:09Z</time></trkpt><trkpt lat="43.21270203035333" lon="11.37005221066745"><ele>222.6</ele><time>2026-04-11T08:14:11Z</time></trkpt><trkpt lat="43.21256959854236" lon="11.369862966389427"><ele>223.2</ele><time>2026-04-11T08:14:15Z</time></trkpt><trkpt lat="43.21251135259363" lon="11.369765416052765"><ele>223.8</ele><time>2026-04-11T08:14:17Z</time></trkpt><trkpt lat="43.21245240925005" lon="11.36969182722606"><ele>224.4</ele><time>2026-04-11T08:14:19Z</time></trkpt><trkpt lat="43.21240260618002" lon="11.369604388049972"><ele>225.0</ele><time>2026-04-11T08:14:21Z</time></trkpt><trkpt lat="43.21234954594715" lon="11.369518911897947"><ele>226.5</ele><time>2026-04-11T08:14:23Z</time></trkpt><trkpt lat="43.21229756789891" lon="11.36944455488241"><ele>228.0</ele><time>2026-04-11T08:14:25Z</time></trkpt><trkpt lat="43.2122260545814" lon="11.369375196889996"><ele>229.5</ele><time>2026-04-11T08:14:27Z</time></trkpt><trkpt lat="43.21218904678252" lon="11.369287458950996"><ele>231.0</ele><time>2026-04-11T08:14:29Z</time></trkpt><trkpt lat="43.21213086388737" lon="11.36921676883546"><ele>232.5</ele><time>2026-04-11T08:14:31Z</time></trkpt><trkpt lat="43.21207677206989" lon="11.369150068056198"><ele>234.0</ele><time>2026-04-11T08:14:33Z</time></trkpt><trkpt lat="43.21194134780564" lon="11.36902629489272"><ele>234.0</ele><time>2026-04-11T08:14:38Z</time></trkpt><trkpt lat="43.21187559210517" lon="11.3689737286707"><ele>234.0</ele><time>2026-04-11T08:14:40Z</time></trkpt><trkpt lat="43.21180624894198" lon="11.36891670353929"><ele>234.0</ele><time>2026-04-11T08:14:42Z</time></trkpt><trkpt lat="43.21174401012049" lon="11.368881085168049"><ele>234.0</ele><time>2026-04-11T08:14:44Z</time></trkpt><trkpt lat="43.21166858780952" lon="11.368837982397423"><ele>234.0</ele><time>2026-04-11T08:14:46Z</time></trkpt><trkpt lat="43.21159846352857" lon="11.368803591964094"><ele>234.0</ele><time>2026-04-11T08:14:48Z</time></trkpt><trkpt lat="43.21152571942015" lon="11.368755706517318"><ele>233.79999999999998</ele><time>2026-04-11T08:14:50Z</time></trkpt><trkpt lat="43.21145469791445" lon="11.368726305137393"><ele>233.59999999999997</ele><time>2026-04-11T08:14:52Z</time></trkpt><trkpt lat="43.21137697018761" lon="11.368694817038586"><ele>233.4</ele><time>2026-04-11T08:14:54Z</time></trkpt><trkpt lat="43.21120358256182" lon="11.3686361813816"><ele>233.2</ele><time>2026-04-11T08:14:58Z</time></trkpt><trkpt lat="43.211111528141195" lon="11.368612618657792"><ele>233.0</ele><time>2026-04-11T08:15:00Z</time></trkpt><trkpt lat="43.21102530743994" lon="11.368579111646904"><ele>233.00000000000003</ele><time>2026-04-11T08:15:02Z</time></trkpt><trkpt lat="43.210945572309186" lon="11.368551089949234"><ele>233.0</ele><time>2026-04-11T08:15:04Z</time></trkpt><trkpt lat="43.210860698883586" lon="11.368532432470696"><ele>233.0</ele><time>2026-04-11T08:15:06Z</time></trkpt><trkpt lat="43.21077177787332" lon="11.368522521023442"><ele>233.0</ele><time>2026-04-11T08:15:08Z</time></trkpt><trkpt lat="43.210690959758715" lon="11.368490074286266"><ele>233.00000000000003</ele><time>2026-04-11T08:15:10Z</time></trkpt><trkpt lat="43.21060348948794" lon="11.368445292814563"><ele>233.0</ele><time>2026-04-11T08:15:12Z</time></trkpt><trkpt lat="43.21051185814184" lon="11.3684018648728"><ele>232.5</ele><time>2026-04-11T08:15:14Z</time></trkpt><trkpt lat="43.21042173299003" lon="11.368377067359523"><ele>232.0</ele><time>2026-04-11T08:15:16Z</time></trkpt><trkpt lat="43.210225811997255" lon="11.368316923793998"><ele>231.5</ele><time>2026-04-11T08:15:20Z</time></trkpt><trkpt lat="43.21013831815736" lon="11.368285122425604"><ele>231.0</ele><time>2026-04-11T08:15:22Z</time></trkpt><trkpt lat="43.210044267749794" lon="11.368244810086384"><ele>231.0</ele><time>2026-04-11T08:15:24Z</time></trkpt><trkpt lat="43.209953255193376" lon="11.368212446858147"><ele>231.0</ele><time>2026-04-11T08:15:26Z</time></trkpt><trkpt lat="43.209862715918575" lon="11.368191075405422"><ele>231.0</ele><time>2026-04-11T08:15:28Z</time></trkpt><trkpt lat="43.209780878535014" lon="11.368184679391167"><ele>231.0</ele><time>2026-04-11T08:15:30Z</time></trkpt><trkpt lat="43.20970248876218" lon="11.368189516281463"><ele>231.0</ele><time>2026-04-11T08:15:32Z</time></trkpt><trkpt lat="43.20962658709732" lon="11.368226478858015"><ele>231.0</ele><time>2026-04-11T08:15:34Z</time></trkpt><trkpt lat="43.209574682929166" lon="11.368288773439119"><ele>233.8</ele><time>2026-04-11T08:15:36Z</time></trkpt><trkpt lat="43.20951233684717" lon="11.36839318381851"><ele>236.60000000000002</ele><time>2026-04-11T08:15:38Z</time></trkpt><trkpt lat="43.20941658041956" lon="11.368567072666876"><ele>239.4</ele><time>2026-04-11T08:15:42Z</time></trkpt><trkpt lat="43.20935487216875" lon="11.368653159377951"><ele>242.2</ele><time>2026-04-11T08:15:44Z</time></trkpt><trkpt lat="43.20928836170647" lon="11.368759095567416"><ele>245.0</ele><time>2026-04-11T08:15:46Z</time></trkpt><trkpt lat="43.20924777766743" lon="11.36884121711215"><ele>244.14285714285714</ele><time>2026-04-11T08:15:48Z</time></trkpt><trkpt lat="43.209172898083715" lon="11.368917074352202"><ele>243.28571428571428</ele><time>2026-04-11T08:15:50Z</time></trkpt><trkpt lat="43.209130499410676" lon="11.368994673206354"><ele>242.42857142857144</ele><time>2026-04-11T08:15:52Z</time></trkpt><trkpt lat="43.20907623255543" lon="11.369065122207827"><ele>241.57142857142858</ele><time>2026-04-11T08:15:54Z</time></trkpt><trkpt lat="43.209026372739444" lon="11.369131732346542"><ele>240.71428571428572</ele><time>2026-04-11T08:15:56Z</time></trkpt><trkpt lat="43.208975410090495" lon="11.369195524307022"><ele>239.8571428571429</ele><time>2026-04-11T08:15:58Z</time></trkpt><trkpt lat="43.20893178668102" lon="11.369267336657847"><ele>239.00000000000003</ele><time>2026-04-11T08:16:00Z</time></trkpt><trkpt lat="43.20883386506199" lon="11.369410190149845"><ele>241.33333333333334</ele><time>2026-04-11T08:16:04Z</time></trkpt><trkpt lat="43.2087792314848" lon="11.369482730155319"><ele>243.66666666666669</ele><time>2026-04-11T08:16:06Z</time></trkpt><trkpt lat="43.20872513049727" lon="11.369560404866938"><ele>246.0</ele><time>2026-04-11T08:16:08Z</time></trkpt><trkpt lat="43.208677029204146" lon="11.369633279666768"><ele>248.33333333333331</ele><time>2026-04-11T08:16:10Z</time></trkpt><trkpt lat="43.20863095233783" lon="11.36970270276138"><ele>250.66666666666666</ele><time>2026-04-11T08:16:12Z</time></trkpt><trkpt lat="43.20856741501154" lon="11.369786016071851"><ele>253.0</ele><time>2026-04-11T08:16:15Z</time></trkpt><trkpt lat="43.20850707264526" lon="11.369860385394265"><ele>253.0</ele><time>2026-04-11T08:16:18Z</time></trkpt><trkpt lat="43.20845663267051" lon="11.369939274809855"><ele>253.0</ele><time>2026-04-11T08:16:21Z</time></trkpt><trkpt lat="43.208338450752315" lon="11.370090976281192"><ele>253.0</ele><time>2026-04-11T08:16:27Z</time></trkpt><trkpt lat="43.2082947522565" lon="11.37017128800425"><ele>253.0</ele><time>2026-04-11T08:16:30Z</time></trkpt><trkpt lat="43.208239328715415" lon="11.37025009882949"><ele>253.0</ele><time>2026-04-11T08:16:33Z</time></trkpt><trkpt lat="43.20818242127455" lon="11.370322423911563"><ele>255.83333333333331</ele><time>2026-04-11T08:16:36Z</time></trkpt><trkpt lat="43.20812920491091" lon="11.3703975145694"><ele>258.66666666666663</ele><time>2026-04-11T08:16:39Z</time></trkpt><trkpt lat="43.20807791297499" lon="11.370470727853862"><ele>261.5</ele><time>2026-04-11T08:16:42Z</time></trkpt><trkpt lat="43.20796495887962" lon="11.37061536885636"><ele>264.3333333333333</ele><time>2026-04-11T08:16:49Z</time></trkpt><trkpt lat="43.207914546781616" lon="11.370692908767452"><ele>267.1666666666667</ele><time>2026-04-11T08:16:52Z</time></trkpt><trkpt lat="43.207871670793416" lon="11.370766843364246"><ele>270.0</ele><time>2026-04-11T08:16:55Z</time></trkpt><trkpt lat="43.20781945801173" lon="11.3708332589233"><ele>270.0</ele><time>2026-04-11T08:16:58Z</time></trkpt><trkpt lat="43.20776245287183" lon="11.370925582753461"><ele>270.0</ele><time>2026-04-11T08:17:02Z</time></trkpt><trkpt lat="43.20769822673667" lon="11.370989947088743"><ele>270.0</ele><time>2026-04-11T08:17:05Z</time></trkpt><trkpt lat="43.2075870321275" lon="11.371148435485717"><ele>270.0</ele><time>2026-04-11T08:17:13Z</time></trkpt><trkpt lat="43.207537126133396" lon="11.371226032270295"><ele>270.0</ele><time>2026-04-11T08:17:17Z</time></trkpt><trkpt lat="43.20748778722245" lon="11.3712950535177"><ele>268.1666666666667</ele><time>2026-04-11T08:17:21Z</time></trkpt><trkpt lat="43.20744094985784" lon="11.371361876437227"><ele>266.3333333333333</ele><time>2026-04-11T08:17:25Z</time></trkpt><trkpt lat="43.20738347277831" lon="11.371423219620628"><ele>264.5</ele><time>2026-04-11T08:17:29Z</time></trkpt><trkpt lat="43.20726864863002" lon="11.371555580911597"><ele>262.66666666666663</ele><time>2026-04-11T08:17:36Z</time></trkpt><trkpt lat="43.207224439539814" lon="11.371636498403495"><ele>260.8333333333333</ele><time>2026-04-11T08:17:39Z</time></trkpt><trkpt lat="43.207178303123015" lon="11.371726061373957"><ele>259.0</ele><time>2026-04-11T08:17:42Z</time></trkpt><trkpt lat="43.20713372298811" lon="11.371795171872918"><ele>261.4</ele><time>2026-04-11T08:17:44Z</time></trkpt><trkpt lat="43.2070738516348" lon="11.371903258036191"><ele>263.79999999999995</ele><time>2026-04-11T08:17:47Z</time></trkpt><trkpt lat="43.20704129052871" lon="11.371993888039412"><ele>266.20000000000005</ele><time>2026-04-11T08:17:49Z</time></trkpt><trkpt lat="43.206995533010925" lon="11.372077544890699"><ele>268.6</ele><time>2026-04-11T08:17:51Z</time></trkpt><trkpt lat="43.20689628371023" lon="11.372238336646767"><ele>271.0</ele><time>2026-04-11T08:17:55Z</time></trkpt><trkpt lat="43.20684615150301" lon="11.372330172014808"><ele>271.0</ele><time>2026-04-11T08:17:57Z</time></trkpt><trkpt lat="43.20679033820323" lon="11.372430159808308"><ele>271.0</ele><time>2026-04-11T08:17:59Z</time></trkpt><trkpt lat="43.206727954171306" lon="11.372543662902105"><ele>271.0</ele><time>2026-04-11T08:18:01Z</time></trkpt><trkpt lat="43.206630246947164" lon="11.372640217454958"><ele>271.0</ele><time>2026-04-11T08:18:03Z</time></trkpt><trkpt lat="43.20653925060447" lon="11.372748977580104"><ele>271.0</ele><time>2026-04-11T08:18:05Z</time></trkpt><trkpt lat="43.20643387752473" lon="11.37284447531244"><ele>270.2</ele><time>2026-04-11T08:18:07Z</time></trkpt><trkpt lat="43.20637814930736" lon="11.372890182242358"><ele>269.40000000000003</ele><time>2026-04-11T08:18:08Z</time></trkpt><trkpt lat="43.20627161365945" lon="11.372974635884987"><ele>268.6</ele><time>2026-04-11T08:18:10Z</time></trkpt><trkpt lat="43.20621065273231" lon="11.373017575699047"><ele>267.8</ele><time>2026-04-11T08:18:11Z</time></trkpt><trkpt lat="43.20615103394432" lon="11.373060127633213"><ele>267.0</ele><time>2026-04-11T08:18:12Z</time></trkpt><trkpt lat="43.20603508027045" lon="11.373135249262605"><ele>267.0</ele><time>2026-04-11T08:18:14Z</time></trkpt><trkpt lat="43.2059248631568" lon="11.37320007466468"><ele>267.0</ele><time>2026-04-11T08:18:16Z</time></trkpt><trkpt lat="43.205821303726516" lon="11.373275840163595"><ele>267.0</ele><time>2026-04-11T08:18:18Z</time></trkpt><trkpt lat="43.20576786078984" lon="11.373325266251216"><ele>267.0</ele><time>2026-04-11T08:18:19Z</time></trkpt><trkpt lat="43.20566713831042" lon="11.373419462451267"><ele>267.0</ele><time>2026-04-11T08:18:21Z</time></trkpt><trkpt lat="43.205612639486006" lon="11.373473056954259"><ele>267.1666666666667</ele><time>2026-04-11T08:18:22Z</time></trkpt><trkpt lat="43.20556074122787" lon="11.373541587783238"><ele>267.3333333333333</ele><time>2026-04-11T08:18:23Z</time></trkpt><trkpt lat="43.20549981784714" lon="11.373603108991166"><ele>267.5</ele><time>2026-04-11T08:18:24Z</time></trkpt><trkpt lat="43.20542384394222" lon="11.37366202630813"><ele>267.66666666666663</ele><time>2026-04-11T08:18:25Z</time></trkpt><trkpt lat="43.20535256910989" lon="11.373716621524817"><ele>267.8333333333333</ele><time>2026-04-11T08:18:26Z</time></trkpt><trkpt lat="43.20526165236698" lon="11.37374631011625"><ele>268.0</ele><time>2026-04-11T08:18:27Z</time></trkpt><trkpt lat="43.20516416334855" lon="11.37375551611899"><ele>268.0</ele><time>2026-04-11T08:18:28Z</time></trkpt><trkpt lat="43.20506892045648" lon="11.373749551365908"><ele>268.0</ele><time>2026-04-11T08:18:29Z</time></trkpt><trkpt lat="43.20497558343271" lon="11.373732074940072"><ele>268.0</ele><time>2026-04-11T08:18:30Z</time></trkpt><trkpt lat="43.20488716621186" lon="11.373719737906704"><ele>268.0</ele><time>2026-04-11T08:18:31Z</time></trkpt><trkpt lat="43.20479454444916" lon="11.373719688024178"><ele>268.0</ele><time>2026-04-11T08:18:32Z</time></trkpt><trkpt lat="43.20470452603694" lon="11.373723824267488"><ele>267.75</ele><time>2026-04-11T08:18:33Z</time></trkpt><trkpt lat="43.20452442093817" lon="11.373780388944356"><ele>267.5</ele><time>2026-04-11T08:18:35Z</time></trkpt><trkpt lat="43.20443323961128" lon="11.373819881034365"><ele>267.25</ele><time>2026-04-11T08:18:36Z</time></trkpt><trkpt lat="43.20434581697783" lon="11.373851196588486"><ele>267.0</ele><time>2026-04-11T08:18:37Z</time></trkpt><trkpt lat="43.204251268333465" lon="11.3738687466384"><ele>265.2</ele><time>2026-04-11T08:18:38Z</time></trkpt><trkpt lat="43.204153384253864" lon="11.373906723254473"><ele>263.4</ele><time>2026-04-11T08:18:39Z</time></trkpt><trkpt lat="43.20405485806191" lon="11.373945163251188"><ele>261.6</ele><time>2026-04-11T08:18:40Z</time></trkpt><trkpt lat="43.20395816852239" lon="11.37398710709852"><ele>259.8</ele><time>2026-04-11T08:18:41Z</time></trkpt><trkpt lat="43.203867552014124" lon="11.374023013228339"><ele>258.0</ele><time>2026-04-11T08:18:42Z</time></trkpt><trkpt lat="43.20377368083689" lon="11.37406507075189"><ele>258.0</ele><time>2026-04-11T08:18:43Z</time></trkpt><trkpt lat="43.203691056151406" lon="11.374112127868994"><ele>258.0</ele><time>2026-04-11T08:18:44Z</time></trkpt><trkpt lat="43.20361241056707" lon="11.374170372904425"><ele>258.0</ele><time>2026-04-11T08:18:45Z</time></trkpt><trkpt lat="43.203545217524784" lon="11.374235448869413"><ele>258.0</ele><time>2026-04-11T08:18:46Z</time></trkpt><trkpt lat="43.20347643473564" lon="11.374303711963929"><ele>258.0</ele><time>2026-04-11T08:18:47Z</time></trkpt><trkpt lat="43.20340580669821" lon="11.374373745943338"><ele>258.0</ele><time>2026-04-11T08:18:48Z</time></trkpt><trkpt lat="43.20333729841913" lon="11.374431202844987"><ele>258.0</ele><time>2026-04-11T08:18:49Z</time></trkpt><trkpt lat="43.20325858742895" lon="11.374472071021097"><ele>258.0</ele><time>2026-04-11T08:18:50Z</time></trkpt><trkpt lat="43.203185813402555" lon="11.374504427655728"><ele>258.0</ele><time>2026-04-11T08:18:51Z</time></trkpt><trkpt lat="43.20310081553674" lon="11.37451242841022"><ele>258.0</ele><time>2026-04-11T08:18:52Z</time></trkpt><trkpt lat="43.20303095042056" lon="11.374534315219979"><ele>258.0</ele><time>2026-04-11T08:18:53Z</time></trkpt><trkpt lat="43.202964684685426" lon="11.374551667922885"><ele>258.0</ele><time>2026-04-11T08:18:54Z</time></trkpt><trkpt lat="43.202829188472414" lon="11.374589083355863"><ele>256.8</ele><time>2026-04-11T08:18:56Z</time></trkpt><trkpt lat="43.202760048424445" lon="11.374601472370324"><ele>255.60000000000002</ele><time>2026-04-11T08:18:57Z</time></trkpt><trkpt lat="43.20269025972304" lon="11.374604240310166"><ele>254.39999999999998</ele><time>2026-04-11T08:18:58Z</time></trkpt><trkpt lat="43.202581775947806" lon="11.374656482125092"><ele>253.2</ele><time>2026-04-11T08:19:00Z</time></trkpt><trkpt lat="43.20247169115586" lon="11.374694244435936"><ele>252.0</ele><time>2026-04-11T08:19:02Z</time></trkpt><trkpt lat="43.20237806054525" lon="11.374706802351888"><ele>254.33333333333334</ele><time>2026-04-11T08:19:04Z</time></trkpt><trkpt lat="43.20230699678445" lon="11.374713386019613"><ele>256.6666666666667</ele><time>2026-04-11T08:19:06Z</time></trkpt><trkpt lat="43.20222725503356" lon="11.374738645567257"><ele>259.0</ele><time>2026-04-11T08:19:09Z</time></trkpt><trkpt lat="43.20215525938583" lon="11.374760597318613"><ele>261.33333333333337</ele><time>2026-04-11T08:19:12Z</time></trkpt><trkpt lat="43.2020900024131" lon="11.374789929684827"><ele>263.6666666666667</ele><time>2026-04-11T08:19:15Z</time></trkpt><trkpt lat="43.201961656978554" lon="11.374822521778631"><ele>266.0</ele><time>2026-04-11T08:19:21Z</time></trkpt><trkpt lat="43.20189324943837" lon="11.37484401520114"><ele>266.0</ele><time>2026-04-11T08:19:24Z</time></trkpt><trkpt lat="43.20182777314626" lon="11.374888050397674"><ele>266.0</ele><time>2026-04-11T08:19:27Z</time></trkpt><trkpt lat="43.201753158720614" lon="11.374919392918155"><ele>266.0</ele><time>2026-04-11T08:19:30Z</time></trkpt><trkpt lat="43.20169290781645" lon="11.374961035628846"><ele>266.0</ele><time>2026-04-11T08:19:33Z</time></trkpt><trkpt lat="43.20162424500477" lon="11.374997201942158"><ele>266.0</ele><time>2026-04-11T08:19:36Z</time></trkpt><trkpt lat="43.20150243620633" lon="11.3751024351596"><ele>266.0</ele><time>2026-04-11T08:19:42Z</time></trkpt><trkpt lat="43.201435418929584" lon="11.375143311597357"><ele>267.0</ele><time>2026-04-11T08:19:46Z</time></trkpt><trkpt lat="43.20136229890572" lon="11.375197499471849"><ele>268.0</ele><time>2026-04-11T08:19:50Z</time></trkpt><trkpt lat="43.2012865438501" lon="11.375239816235883"><ele>269.0</ele><time>2026-04-11T08:19:55Z</time></trkpt><trkpt lat="43.201220309046" lon="11.375300337612957"><ele>270.0</ele><time>2026-04-11T08:20:00Z</time></trkpt><trkpt lat="43.20108857047539" lon="11.375366664121179"><ele>271.0</ele><time>2026-04-11T08:20:08Z</time></trkpt><trkpt lat="43.20101743746719" lon="11.375379874115826"><ele>271.0</ele><time>2026-04-11T08:20:12Z</time></trkpt><trkpt lat="43.20095219548561" lon="11.375357269089744"><ele>271.0</ele><time>2026-04-11T08:20:16Z</time></trkpt><trkpt lat="43.20088662199507" lon="11.375339945889428"><ele>271.0</ele><time>2026-04-11T08:20:18Z</time></trkpt><trkpt lat="43.20079248662077" lon="11.375301906046875"><ele>271.0</ele><time>2026-04-11T08:20:20Z</time></trkpt><trkpt lat="43.20067964450553" lon="11.375233841004954"><ele>271.0</ele><time>2026-04-11T08:20:22Z</time></trkpt><trkpt lat="43.20054429071129" lon="11.375154830835834"><ele>268.0</ele><time>2026-04-11T08:20:24Z</time></trkpt><trkpt lat="43.200483592145346" lon="11.37511903736644"><ele>265.0</ele><time>2026-04-11T08:20:25Z</time></trkpt><trkpt lat="43.20042207582397" lon="11.37508157742371"><ele>262.0</ele><time>2026-04-11T08:20:26Z</time></trkpt><trkpt lat="43.200316287155815" lon="11.37500604922282"><ele>259.0</ele><time>2026-04-11T08:20:28Z</time></trkpt><trkpt lat="43.200198296522046" lon="11.374953070630053"><ele>256.0</ele><time>2026-04-11T08:20:30Z</time></trkpt><trkpt lat="43.200082288228806" lon="11.374953707338449"><ele>255.99999999999997</ele><time>2026-04-11T08:20:32Z</time></trkpt><trkpt lat="43.200024702259945" lon="11.375001252125495"><ele>256.0</ele><time>2026-04-11T08:20:33Z</time></trkpt><trkpt lat="43.19997134255072" lon="11.375080304605946"><ele>256.0</ele><time>2026-04-11T08:20:34Z</time></trkpt><trkpt lat="43.19992931769073" lon="11.375180822901763"><ele>256.0</ele><time>2026-04-11T08:20:35Z</time></trkpt><trkpt lat="43.19989185999623" lon="11.375298284398706"><ele>255.99999999999997</ele><time>2026-04-11T08:20:36Z</time></trkpt><trkpt lat="43.199842473185306" lon="11.375415779222202"><ele>256.0</ele><time>2026-04-11T08:20:37Z</time></trkpt><trkpt lat="43.1997738499892" lon="11.37551850536387"><ele>253.60000000000002</ele><time>2026-04-11T08:20:38Z</time></trkpt><trkpt lat="43.19971027362336" lon="11.375627985897312"><ele>251.20000000000002</ele><time>2026-04-11T08:20:39Z</time></trkpt><trkpt lat="43.19963442513839" lon="11.375723027349338"><ele>248.79999999999998</ele><time>2026-04-11T08:20:40Z</time></trkpt><trkpt lat="43.19955334506653" lon="11.375809663283178"><ele>246.39999999999998</ele><time>2026-04-11T08:20:41Z</time></trkpt><trkpt lat="43.199479614455356" lon="11.375905273609572"><ele>244.0</ele><time>2026-04-11T08:20:42Z</time></trkpt><trkpt lat="43.19939261362681" lon="11.375997217366178"><ele>244.0</ele><time>2026-04-11T08:20:43Z</time></trkpt><trkpt lat="43.199200801551626" lon="11.376158171360755"><ele>244.0</ele><time>2026-04-11T08:20:45Z</time></trkpt><trkpt lat="43.19908441885006" lon="11.376206494157302"><ele>244.0</ele><time>2026-04-11T08:20:46Z</time></trkpt><trkpt lat="43.19896192421084" lon="11.376232358867561"><ele>242.0</ele><time>2026-04-11T08:20:47Z</time></trkpt><trkpt lat="43.198838377106696" lon="11.37625623527478"><ele>240.0</ele><time>2026-04-11T08:20:48Z</time></trkpt><trkpt lat="43.19871485455334" lon="11.376279062359252"><ele>238.0</ele><time>2026-04-11T08:20:49Z</time></trkpt><trkpt lat="43.198590227354806" lon="11.376307302273963"><ele>236.0</ele><time>2026-04-11T08:20:50Z</time></trkpt><trkpt lat="43.19846721673682" lon="11.376341957256937"><ele>236.0</ele><time>2026-04-11T08:20:51Z</time></trkpt><trkpt lat="43.19835700543607" lon="11.37639090146952"><ele>236.0</ele><time>2026-04-11T08:20:52Z</time></trkpt><trkpt lat="43.19823751450968" lon="11.376466902808344"><ele>236.0</ele><time>2026-04-11T08:20:53Z</time></trkpt><trkpt lat="43.19815995442889" lon="11.376574974134048"><ele>236.0</ele><time>2026-04-11T08:20:54Z</time></trkpt><trkpt lat="43.19807886156779" lon="11.37668809038864"><ele>236.0</ele><time>2026-04-11T08:20:55Z</time></trkpt><trkpt lat="43.198007573579645" lon="11.376785099104932"><ele>236.00000000000003</ele><time>2026-04-11T08:20:56Z</time></trkpt><trkpt lat="43.197931525509965" lon="11.376870406532294"><ele>236.00000000000003</ele><time>2026-04-11T08:20:57Z</time></trkpt><trkpt lat="43.197857789985186" lon="11.376951591189645"><ele>236.0</ele><time>2026-04-11T08:20:58Z</time></trkpt><trkpt lat="43.197778930489" lon="11.377025410889546"><ele>236.0</ele><time>2026-04-11T08:20:59Z</time></trkpt><trkpt lat="43.19769615960761" lon="11.377088513974607"><ele>236.0</ele><time>2026-04-11T08:21:00Z</time></trkpt><trkpt lat="43.19760960132903" lon="11.377146596645986"><ele>236.00000000000003</ele><time>2026-04-11T08:21:01Z</time></trkpt><trkpt lat="43.1975182258221" lon="11.37719364100744"><ele>236.00000000000003</ele><time>2026-04-11T08:21:02Z</time></trkpt><trkpt lat="43.19742570011315" lon="11.377244701783916"><ele>236.0</ele><time>2026-04-11T08:21:03Z</time></trkpt><trkpt lat="43.197338218576" lon="11.377301666111988"><ele>236.0</ele><time>2026-04-11T08:21:04Z</time></trkpt><trkpt lat="43.19716177299545" lon="11.377422173715075"><ele>235.20000000000002</ele><time>2026-04-11T08:21:06Z</time></trkpt><trkpt lat="43.197072944609346" lon="11.377463669392624"><ele>234.40000000000003</ele><time>2026-04-11T08:21:07Z</time></trkpt><trkpt lat="43.19698033817031" lon="11.377527810346182"><ele>233.6</ele><time>2026-04-11T08:21:08Z</time></trkpt><trkpt lat="43.19690641491664" lon="11.377589680735955"><ele>232.8</ele><time>2026-04-11T08:21:09Z</time></trkpt><trkpt lat="43.196827390809545" lon="11.377651294233226"><ele>232.0</ele><time>2026-04-11T08:21:10Z</time></trkpt><trkpt lat="43.196745399837006" lon="11.37771418030518"><ele>232.0</ele><time>2026-04-11T08:21:11Z</time></trkpt><trkpt lat="43.19665951588042" lon="11.377778088079674"><ele>232.0</ele><time>2026-04-11T08:21:12Z</time></trkpt><trkpt lat="43.19657569892572" lon="11.37783831919906"><ele>232.0</ele><time>2026-04-11T08:21:13Z</time></trkpt><trkpt lat="43.196488716741335" lon="11.377899684469048"><ele>232.0</ele><time>2026-04-11T08:21:14Z</time></trkpt><trkpt lat="43.19639749265348" lon="11.377960718988055"><ele>232.0</ele><time>2026-04-11T08:21:15Z</time></trkpt><trkpt lat="43.19630723161748" lon="11.378023279553899"><ele>232.39999999999998</ele><time>2026-04-11T08:21:16Z</time></trkpt><trkpt lat="43.19621397065046" lon="11.378084486730604"><ele>232.79999999999998</ele><time>2026-04-11T08:21:17Z</time></trkpt><trkpt lat="43.196121986729615" lon="11.378147515180341"><ele>233.2</ele><time>2026-04-11T08:21:18Z</time></trkpt><trkpt lat="43.19603026961316" lon="11.378208450291346"><ele>233.6</ele><time>2026-04-11T08:21:19Z</time></trkpt><trkpt lat="43.195942836763834" lon="11.37827326100327"><ele>234.0</ele><time>2026-04-11T08:21:20Z</time></trkpt><trkpt lat="43.195853434274326" lon="11.3783239796556"><ele>234.0</ele><time>2026-04-11T08:21:21Z</time></trkpt><trkpt lat="43.195755863924866" lon="11.378363282636887"><ele>233.99999999999997</ele><time>2026-04-11T08:21:22Z</time></trkpt><trkpt lat="43.19564978868909" lon="11.37840243904371"><ele>233.99999999999997</ele><time>2026-04-11T08:21:23Z</time></trkpt><trkpt lat="43.19556088706826" lon="11.3784416333005"><ele>234.0</ele><time>2026-04-11T08:21:24Z</time></trkpt><trkpt lat="43.195474597453504" lon="11.378477617729697"><ele>234.0</ele><time>2026-04-11T08:21:25Z</time></trkpt><trkpt lat="43.195331792238996" lon="11.37856603957204"><ele>233.85714285714286</ele><time>2026-04-11T08:21:27Z</time></trkpt><trkpt lat="43.19524815670164" lon="11.378591612804907"><ele>233.71428571428572</ele><time>2026-04-11T08:21:28Z</time></trkpt><trkpt lat="43.19519527281743" lon="11.378662600427631"><ele>233.57142857142858</ele><time>2026-04-11T08:21:29Z</time></trkpt><trkpt lat="43.195152676984165" lon="11.378733138502648"><ele>233.42857142857144</ele><time>2026-04-11T08:21:30Z</time></trkpt><trkpt lat="43.195097149968674" lon="11.378792948352192"><ele>233.28571428571428</ele><time>2026-04-11T08:21:31Z</time></trkpt><trkpt lat="43.195042562180554" lon="11.37885514110697"><ele>233.14285714285717</ele><time>2026-04-11T08:21:32Z</time></trkpt><trkpt lat="43.19499127338685" lon="11.37892201252314"><ele>233.0</ele><time>2026-04-11T08:21:33Z</time></trkpt><trkpt lat="43.19493667662501" lon="11.378981990640282"><ele>233.0</ele><time>2026-04-11T08:21:34Z</time></trkpt><trkpt lat="43.1948876657023" lon="11.37904930062634"><ele>233.0</ele><time>2026-04-11T08:21:35Z</time></trkpt><trkpt lat="43.194840831033545" lon="11.379129490562025"><ele>233.0</ele><time>2026-04-11T08:21:36Z</time></trkpt><trkpt lat="43.19479560785407" lon="11.379206305992973"><ele>233.0</ele><time>2026-04-11T08:21:37Z</time></trkpt><trkpt lat="43.194754803383" lon="11.37927994127202"><ele>233.0</ele><time>2026-04-11T08:21:38Z</time></trkpt><trkpt lat="43.19472067976086" lon="11.379365341978449"><ele>233.0</ele><time>2026-04-11T08:21:39Z</time></trkpt><trkpt lat="43.194688401445376" lon="11.379452647317558"><ele>233.0</ele><time>2026-04-11T08:21:40Z</time></trkpt><trkpt lat="43.194659242996785" lon="11.379545804457738"><ele>231.8</ele><time>2026-04-11T08:21:41Z</time></trkpt><trkpt lat="43.194630815233275" lon="11.379649592307075"><ele>230.60000000000002</ele><time>2026-04-11T08:21:42Z</time></trkpt><trkpt lat="43.19460658961137" lon="11.379769441817604"><ele>229.39999999999998</ele><time>2026-04-11T08:21:43Z</time></trkpt><trkpt lat="43.19460065600594" lon="11.379893729714407"><ele>228.2</ele><time>2026-04-11T08:21:44Z</time></trkpt><trkpt lat="43.194569680566836" lon="11.38002057676765"><ele>227.0</ele><time>2026-04-11T08:21:45Z</time></trkpt><trkpt lat="43.19454903019921" lon="11.380160441964039"><ele>227.0</ele><time>2026-04-11T08:21:46Z</time></trkpt><trkpt lat="43.194513214492545" lon="11.380436569335458"><ele>227.0</ele><time>2026-04-11T08:21:48Z</time></trkpt><trkpt lat="43.19451525727686" lon="11.380546017758443"><ele>227.0</ele><time>2026-04-11T08:21:49Z</time></trkpt><trkpt lat="43.19450103636644" lon="11.380657237688016"><ele>227.0</ele><time>2026-04-11T08:21:50Z</time></trkpt><trkpt lat="43.19449381645887" lon="11.380773855816729"><ele>227.14285714285717</ele><time>2026-04-11T08:21:51Z</time></trkpt><trkpt lat="43.19447946940281" lon="11.380874932979351"><ele>227.2857142857143</ele><time>2026-04-11T08:21:52Z</time></trkpt><trkpt lat="43.19445883840785" lon="11.380967766108705"><ele>227.42857142857144</ele><time>2026-04-11T08:21:53Z</time></trkpt><trkpt lat="43.19442290865541" lon="11.381063912935547"><ele>227.57142857142856</ele><time>2026-04-11T08:21:54Z</time></trkpt><trkpt lat="43.194394605535855" lon="11.381155161783196"><ele>227.7142857142857</ele><time>2026-04-11T08:21:55Z</time></trkpt><trkpt lat="43.19437430019501" lon="11.381241441822137"><ele>227.85714285714283</ele><time>2026-04-11T08:21:56Z</time></trkpt><trkpt lat="43.194341843845486" lon="11.381351377512793"><ele>228.0</ele><time>2026-04-11T08:21:57Z</time></trkpt><trkpt lat="43.1943081531287" lon="11.381453182308212"><ele>228.0</ele><time>2026-04-11T08:21:58Z</time></trkpt><trkpt lat="43.194272823294" lon="11.381532171217394"><ele>228.0</ele><time>2026-04-11T08:21:59Z</time></trkpt><trkpt lat="43.19423934856108" lon="11.381631056360888"><ele>228.0</ele><time>2026-04-11T08:22:00Z</time></trkpt><trkpt lat="43.19420836653002" lon="11.381726839907166"><ele>228.0</ele><time>2026-04-11T08:22:01Z</time></trkpt><trkpt lat="43.19417479252264" lon="11.38182165812356"><ele>228.0</ele><time>2026-04-11T08:22:02Z</time></trkpt><trkpt lat="43.19414040201496" lon="11.38191922168947"><ele>228.0</ele><time>2026-04-11T08:22:03Z</time></trkpt><trkpt lat="43.19411019443508" lon="11.382021184834466"><ele>228.0</ele><time>2026-04-11T08:22:04Z</time></trkpt><trkpt lat="43.1940673446296" lon="11.382119157527047"><ele>228.0</ele><time>2026-04-11T08:22:05Z</time></trkpt><trkpt lat="43.194032071424765" lon="11.382228222447972"><ele>228.0</ele><time>2026-04-11T08:22:06Z</time></trkpt><trkpt lat="43.19399256063705" lon="11.382319935240986"><ele>228.0</ele><time>2026-04-11T08:22:07Z</time></trkpt><trkpt lat="43.193915787356545" lon="11.382532061133018"><ele>228.0</ele><time>2026-04-11T08:22:09Z</time></trkpt><trkpt lat="43.19387883204649" lon="11.382629588696876"><ele>227.7142857142857</ele><time>2026-04-11T08:22:10Z</time></trkpt><trkpt lat="43.19384186231331" lon="11.382726734074641"><ele>227.4285714285714</ele><time>2026-04-11T08:22:11Z</time></trkpt><trkpt lat="43.193806745882924" lon="11.382818721529503"><ele>227.14285714285714</ele><time>2026-04-11T08:22:12Z</time></trkpt><trkpt lat="43.19377738199961" lon="11.382912993508473"><ele>226.85714285714283</ele><time>2026-04-11T08:22:13Z</time></trkpt><trkpt lat="43.19374201907175" lon="11.382998491344894"><ele>226.57142857142856</ele><time>2026-04-11T08:22:14Z</time></trkpt><trkpt lat="43.19370767530215" lon="11.383084493492635"><ele>226.28571428571428</ele><time>2026-04-11T08:22:15Z</time></trkpt><trkpt lat="43.19367134818333" lon="11.383162025130078"><ele>226.0</ele><time>2026-04-11T08:22:16Z</time></trkpt><trkpt lat="43.19363561361686" lon="11.383234771203902"><ele>226.0</ele><time>2026-04-11T08:22:17Z</time></trkpt><trkpt lat="43.193586007448914" lon="11.383311871204175"><ele>226.00000000000003</ele><time>2026-04-11T08:22:18Z</time></trkpt><trkpt lat="43.19349306417347" lon="11.383405569266206"><ele>226.00000000000003</ele><time>2026-04-11T08:22:20Z</time></trkpt><trkpt lat="43.193384261027504" lon="11.383504328815642"><ele>226.0</ele><time>2026-04-11T08:22:22Z</time></trkpt><trkpt lat="43.1933148634761" lon="11.383526807413368"><ele>226.0</ele><time>2026-04-11T08:22:23Z</time></trkpt><trkpt lat="43.19325193535769" lon="11.383550636886776"><ele>226.0</ele><time>2026-04-11T08:22:24Z</time></trkpt><trkpt lat="43.19317555806968" lon="11.38357267610585"><ele>226.00000000000003</ele><time>2026-04-11T08:22:25Z</time></trkpt><trkpt lat="43.193107799489965" lon="11.383607167500829"><ele>226.00000000000003</ele><time>2026-04-11T08:22:26Z</time></trkpt><trkpt lat="43.193034045559976" lon="11.383643450401175"><ele>226.0</ele><time>2026-04-11T08:22:27Z</time></trkpt><trkpt lat="43.19295493869391" lon="11.383677640623452"><ele>226.0</ele><time>2026-04-11T08:22:28Z</time></trkpt><trkpt lat="43.192798454202496" lon="11.383757360746431"><ele>225.83333333333331</ele><time>2026-04-11T08:22:30Z</time></trkpt><trkpt lat="43.19272204489376" lon="11.383800032546302"><ele>225.66666666666666</ele><time>2026-04-11T08:22:31Z</time></trkpt><trkpt lat="43.192643901096574" lon="11.383842099777858"><ele>225.5</ele><time>2026-04-11T08:22:32Z</time></trkpt><trkpt lat="43.19255963312289" lon="11.383879371604209"><ele>225.33333333333331</ele><time>2026-04-11T08:22:33Z</time></trkpt><trkpt lat="43.192473977170955" lon="11.383912650313015"><ele>225.16666666666666</ele><time>2026-04-11T08:22:34Z</time></trkpt><trkpt lat="43.19238433082222" lon="11.383939171156102"><ele>225.0</ele><time>2026-04-11T08:22:35Z</time></trkpt><trkpt lat="43.19230803860277" lon="11.383950999668938"><ele>225.0</ele><time>2026-04-11T08:22:36Z</time></trkpt><trkpt lat="43.19221816960409" lon="11.383963568180969"><ele>225.0</ele><time>2026-04-11T08:22:37Z</time></trkpt><trkpt lat="43.19213381829036" lon="11.383956851942948"><ele>225.0</ele><time>2026-04-11T08:22:38Z</time></trkpt><trkpt lat="43.19203564596588" lon="11.383946296168702"><ele>225.0</ele><time>2026-04-11T08:22:39Z</time></trkpt><trkpt lat="43.191942883483" lon="11.3839368192507"><ele>225.0</ele><time>2026-04-11T08:22:40Z</time></trkpt><trkpt lat="43.19186103191451" lon="11.383944164458292"><ele>225.0</ele><time>2026-04-11T08:22:41Z</time></trkpt><trkpt lat="43.19178233130823" lon="11.383970894097294"><ele>225.0</ele><time>2026-04-11T08:22:42Z</time></trkpt><trkpt lat="43.19169614471764" lon="11.384026644115398"><ele>225.0</ele><time>2026-04-11T08:22:43Z</time></trkpt><trkpt lat="43.19164104402114" lon="11.384100969872213"><ele>225.0</ele><time>2026-04-11T08:22:44Z</time></trkpt><trkpt lat="43.19158163345644" lon="11.38417271882995"><ele>225.0</ele><time>2026-04-11T08:22:45Z</time></trkpt><trkpt lat="43.19152315139794" lon="11.384241098638194"><ele>225.0</ele><time>2026-04-11T08:22:46Z</time></trkpt><trkpt lat="43.19146819801791" lon="11.384323141139227"><ele>225.0</ele><time>2026-04-11T08:22:47Z</time></trkpt><trkpt lat="43.191418469247765" lon="11.38440674186941"><ele>225.75</ele><time>2026-04-11T08:22:48Z</time></trkpt><trkpt lat="43.191372662420335" lon="11.384490005086965"><ele>226.5</ele><time>2026-04-11T08:22:49Z</time></trkpt><trkpt lat="43.19121721137239" lon="11.384694968438046"><ele>227.25</ele><time>2026-04-11T08:22:52Z</time></trkpt><trkpt lat="43.1911666506147" lon="11.38478157591767"><ele>228.0</ele><time>2026-04-11T08:22:53Z</time></trkpt><trkpt lat="43.19110284378174" lon="11.384861781284302"><ele>228.0</ele><time>2026-04-11T08:22:54Z</time></trkpt><trkpt lat="43.191040314851776" lon="11.384940766925318"><ele>228.0</ele><time>2026-04-11T08:22:55Z</time></trkpt><trkpt lat="43.190975234846164" lon="11.385008261396163"><ele>228.0</ele><time>2026-04-11T08:22:56Z</time></trkpt><trkpt lat="43.19090747933822" lon="11.385073253153283"><ele>228.0</ele><time>2026-04-11T08:22:57Z</time></trkpt><trkpt lat="43.19084086218896" lon="11.385132245651784"><ele>228.0</ele><time>2026-04-11T08:22:58Z</time></trkpt><trkpt lat="43.19077120713597" lon="11.38519673546303"><ele>228.0</ele><time>2026-04-11T08:22:59Z</time></trkpt><trkpt lat="43.190703157319035" lon="11.38526578992428"><ele>228.66666666666666</ele><time>2026-04-11T08:23:00Z</time></trkpt><trkpt lat="43.19062596759649" lon="11.385323657517976"><ele>229.33333333333331</ele><time>2026-04-11T08:23:01Z</time></trkpt><trkpt lat="43.19055048073122" lon="11.385376569497154"><ele>230.0</ele><time>2026-04-11T08:23:02Z</time></trkpt><trkpt lat="43.19048174906942" lon="11.385418349667074"><ele>230.66666666666666</ele><time>2026-04-11T08:23:03Z</time></trkpt><trkpt lat="43.190402643090806" lon="11.385469165168807"><ele>231.33333333333331</ele><time>2026-04-11T08:23:04Z</time></trkpt><trkpt lat="43.190326008816676" lon="11.385508746826696"><ele>232.0</ele><time>2026-04-11T08:23:05Z</time></trkpt><trkpt lat="43.190246127212276" lon="11.385544139354712"><ele>230.0</ele><time>2026-04-11T08:23:06Z</time></trkpt><trkpt lat="43.19016722615562" lon="11.385587832208982"><ele>228.0</ele><time>2026-04-11T08:23:07Z</time></trkpt><trkpt lat="43.19008244294666" lon="11.385604348538008"><ele>226.0</ele><time>2026-04-11T08:23:08Z</time></trkpt><trkpt lat="43.190000447846" lon="11.385642317985777"><ele>224.0</ele><time>2026-04-11T08:23:09Z</time></trkpt><trkpt lat="43.189903610861876" lon="11.385636134293728"><ele>222.0</ele><time>2026-04-11T08:23:10Z</time></trkpt><trkpt lat="43.18974422209173" lon="11.385695374195548"><ele>221.5</ele><time>2026-04-11T08:23:12Z</time></trkpt><trkpt lat="43.189656700216425" lon="11.3856894405289"><ele>221.0</ele><time>2026-04-11T08:23:13Z</time></trkpt><trkpt lat="43.189573621697875" lon="11.38570361791935"><ele>220.5</ele><time>2026-04-11T08:23:14Z</time></trkpt><trkpt lat="43.18949459545351" lon="11.385718966693819"><ele>220.0</ele><time>2026-04-11T08:23:15Z</time></trkpt><trkpt lat="43.18941403193555" lon="11.385742595597934"><ele>219.5</ele><time>2026-04-11T08:23:16Z</time></trkpt><trkpt lat="43.189332623981315" lon="11.385764822226127"><ele>219.0</ele><time>2026-04-11T08:23:17Z</time></trkpt><trkpt lat="43.1892558016173" lon="11.385798094562524"><ele>219.0</ele><time>2026-04-11T08:23:18Z</time></trkpt><trkpt lat="43.189170261735526" lon="11.385818957243483"><ele>219.0</ele><time>2026-04-11T08:23:19Z</time></trkpt><trkpt lat="43.1890983059666" lon="11.385837319907106"><ele>219.0</ele><time>2026-04-11T08:23:20Z</time></trkpt><trkpt lat="43.189018726939835" lon="11.385860609542492"><ele>219.0</ele><time>2026-04-11T08:23:21Z</time></trkpt><trkpt lat="43.188936876915335" lon="11.385888388904064"><ele>219.0</ele><time>2026-04-11T08:23:22Z</time></trkpt><trkpt lat="43.188860923689354" lon="11.3859114727853"><ele>219.0</ele><time>2026-04-11T08:23:23Z</time></trkpt><trkpt lat="43.188790928945046" lon="11.385931857870016"><ele>220.39999999999998</ele><time>2026-04-11T08:23:24Z</time></trkpt><trkpt lat="43.18866681915537" lon="11.385945373970868"><ele>221.79999999999998</ele><time>2026-04-11T08:23:26Z</time></trkpt><trkpt lat="43.18857526796201" lon="11.385930275967523"><ele>223.20000000000002</ele><time>2026-04-11T08:23:28Z</time></trkpt><trkpt lat="43.18849848838318" lon="11.385908102407441"><ele>224.60000000000002</ele><time>2026-04-11T08:23:31Z</time></trkpt><trkpt lat="43.188373327189844" lon="11.385811290319037"><ele>226.0</ele><time>2026-04-11T08:23:39Z</time></trkpt><trkpt lat="43.188310189708055" lon="11.385774643126245"><ele>225.99999999999997</ele><time>2026-04-11T08:23:43Z</time></trkpt><trkpt lat="43.18827026910978" lon="11.385696955919265"><ele>226.0</ele><time>2026-04-11T08:23:48Z</time></trkpt><trkpt lat="43.188193084631436" lon="11.385693710159362"><ele>226.0</ele><time>2026-04-11T08:23:52Z</time></trkpt><trkpt lat="43.18809278027972" lon="11.385565897958427"><ele>226.0</ele><time>2026-04-11T08:24:01Z</time></trkpt><trkpt lat="43.18801837884917" lon="11.38551744792338"><ele>225.99999999999997</ele><time>2026-04-11T08:24:06Z</time></trkpt><trkpt lat="43.187945806327775" lon="11.385489456838084"><ele>226.0</ele><time>2026-04-11T08:24:11Z</time></trkpt><trkpt lat="43.18789291673699" lon="11.385419817226293"><ele>228.8</ele><time>2026-04-11T08:24:16Z</time></trkpt><trkpt lat="43.18776019526803" lon="11.385339876062993"><ele>231.60000000000002</ele><time>2026-04-11T08:24:25Z</time></trkpt><trkpt lat="43.18769717361047" lon="11.385329434764595"><ele>234.4</ele><time>2026-04-11T08:24:29Z</time></trkpt><trkpt lat="43.18763143623824" lon="11.385291225098813"><ele>237.2</ele><time>2026-04-11T08:24:34Z</time></trkpt><trkpt lat="43.18754772827978" lon="11.385256871521667"><ele>240.0</ele><time>2026-04-11T08:24:38Z</time></trkpt><trkpt lat="43.18740316725767" lon="11.385215611804131"><ele>241.33333333333334</ele><time>2026-04-11T08:24:50Z</time></trkpt><trkpt lat="43.187339798299035" lon="11.385214123860022"><ele>242.66666666666669</ele><time>2026-04-11T08:24:54Z</time></trkpt><trkpt lat="43.18725727776346" lon="11.38520736428195"><ele>244.0</ele><time>2026-04-11T08:24:59Z</time></trkpt><trkpt lat="43.187105706294695" lon="11.385216940642655"><ele>245.33333333333334</ele><time>2026-04-11T08:25:08Z</time></trkpt><trkpt lat="43.18703911258824" lon="11.385217832302018"><ele>246.66666666666669</ele><time>2026-04-11T08:25:12Z</time></trkpt><trkpt lat="43.18696475067989" lon="11.385251337723709"><ele>248.0</ele><time>2026-04-11T08:25:16Z</time></trkpt><trkpt lat="43.186883606737545" lon="11.385254530058155"><ele>248.0</ele><time>2026-04-11T08:25:20Z</time></trkpt><trkpt lat="43.18672564359939" lon="11.385315940104583"><ele>248.0</ele><time>2026-04-11T08:25:29Z</time></trkpt><trkpt lat="43.18664429122808" lon="11.385341310275825"><ele>248.0</ele><time>2026-04-11T08:25:33Z</time></trkpt><trkpt lat="43.18657953444893" lon="11.385326288062187"><ele>248.0</ele><time>2026-04-11T08:25:36Z</time></trkpt><trkpt lat="43.186507998752695" lon="11.385352796756791"><ele>248.0</ele><time>2026-04-11T08:25:39Z</time></trkpt><trkpt lat="43.186431480869615" lon="11.385367974923874"><ele>249.33333333333334</ele><time>2026-04-11T08:25:42Z</time></trkpt><trkpt lat="43.18627688970065" lon="11.385375150834582"><ele>250.66666666666669</ele><time>2026-04-11T08:25:47Z</time></trkpt><trkpt lat="43.186211501973034" lon="11.385388773078244"><ele>252.0</ele><time>2026-04-11T08:25:50Z</time></trkpt><trkpt lat="43.186136995081014" lon="11.385386450238428"><ele>253.33333333333331</ele><time>2026-04-11T08:25:53Z</time></trkpt><trkpt lat="43.186072836362534" lon="11.385393453592496"><ele>254.66666666666666</ele><time>2026-04-11T08:25:56Z</time></trkpt><trkpt lat="43.18599705456141" lon="11.385389878503993"><ele>256.0</ele><time>2026-04-11T08:26:00Z</time></trkpt><trkpt lat="43.185924328812504" lon="11.38539709539615"><ele>255.99999999999997</ele><time>2026-04-11T08:26:04Z</time></trkpt><trkpt lat="43.18578505554144" lon="11.385400629526215"><ele>256.0</ele><time>2026-04-11T08:26:12Z</time></trkpt><trkpt lat="43.18571937013949" lon="11.38539360835459"><ele>256.0</ele><time>2026-04-11T08:26:16Z</time></trkpt><trkpt lat="43.18565855626223" lon="11.3854169326887"><ele>256.0</ele><time>2026-04-11T08:26:20Z</time></trkpt><trkpt lat="43.18559198311985" lon="11.385429426962194"><ele>255.99999999999997</ele><time>2026-04-11T08:26:24Z</time></trkpt><trkpt lat="43.185526696169596" lon="11.385396330552727"><ele>256.0</ele><time>2026-04-11T08:26:28Z</time></trkpt><trkpt lat="43.18538551353235" lon="11.385341097513678"><ele>257.8333333333333</ele><time>2026-04-11T08:26:37Z</time></trkpt><trkpt lat="43.185328988059105" lon="11.385283559498234"><ele>259.66666666666663</ele><time>2026-04-11T08:26:41Z</time></trkpt><trkpt lat="43.185284552900086" lon="11.385208519652453"><ele>261.5</ele><time>2026-04-11T08:26:45Z</time></trkpt><trkpt lat="43.18522901710034" lon="11.38515106570347"><ele>263.3333333333333</ele><time>2026-04-11T08:26:49Z</time></trkpt><trkpt lat="43.18512863628154" lon="11.385013464886955"><ele>265.1666666666667</ele><time>2026-04-11T08:26:58Z</time></trkpt><trkpt lat="43.185078236444184" lon="11.384939343187135"><ele>267.0</ele><time>2026-04-11T08:27:03Z</time></trkpt><trkpt lat="43.18503209953872" lon="11.384858193186723"><ele>267.0</ele><time>2026-04-11T08:27:08Z</time></trkpt><trkpt lat="43.18497729734859" lon="11.384786842743393"><ele>267.0</ele><time>2026-04-11T08:27:13Z</time></trkpt><trkpt lat="43.1848941278017" lon="11.384635233143948"><ele>267.0</ele><time>2026-04-11T08:27:21Z</time></trkpt><trkpt lat="43.18484454466683" lon="11.384564924550157"><ele>267.0</ele><time>2026-04-11T08:27:25Z</time></trkpt><trkpt lat="43.184786856772675" lon="11.38449415440231"><ele>267.0</ele><time>2026-04-11T08:27:29Z</time></trkpt><trkpt lat="43.18473455206099" lon="11.38443989978421"><ele>267.0</ele><time>2026-04-11T08:27:32Z</time></trkpt><trkpt lat="43.1846708349208" lon="11.38435983552973"><ele>268.6</ele><time>2026-04-11T08:27:36Z</time></trkpt><trkpt lat="43.18454330965387" lon="11.384230320818382"><ele>270.2</ele><time>2026-04-11T08:27:42Z</time></trkpt><trkpt lat="43.18447703584864" lon="11.384153026752779"><ele>271.8</ele><time>2026-04-11T08:27:45Z</time></trkpt><trkpt lat="43.184408685598626" lon="11.3840845066255"><ele>273.4</ele><time>2026-04-11T08:27:48Z</time></trkpt><trkpt lat="43.18433196861172" lon="11.384019870503728"><ele>275.0</ele><time>2026-04-11T08:27:51Z</time></trkpt><trkpt lat="43.184252961553334" lon="11.383961626267684"><ele>275.0</ele><time>2026-04-11T08:27:54Z</time></trkpt><trkpt lat="43.184169833907525" lon="11.383913569494352"><ele>275.0</ele><time>2026-04-11T08:27:57Z</time></trkpt><trkpt lat="43.18402821503272" lon="11.383842331766758"><ele>275.0</ele><time>2026-04-11T08:28:02Z</time></trkpt><trkpt lat="43.183964302828066" lon="11.383826568893241"><ele>275.0</ele><time>2026-04-11T08:28:04Z</time></trkpt><trkpt lat="43.18389783245368" lon="11.38379153000699"><ele>275.0</ele><time>2026-04-11T08:28:06Z</time></trkpt><trkpt lat="43.18381700792428" lon="11.383766812174231"><ele>274.83333333333337</ele><time>2026-04-11T08:28:08Z</time></trkpt><trkpt lat="43.18374218025443" lon="11.38373774787598"><ele>274.6666666666667</ele><time>2026-04-11T08:28:10Z</time></trkpt><trkpt lat="43.18366849974236" lon="11.38371443969382"><ele>274.5</ele><time>2026-04-11T08:28:12Z</time></trkpt><trkpt lat="43.18359294487853" lon="11.383681696483807"><ele>274.3333333333333</ele><time>2026-04-11T08:28:14Z</time></trkpt><trkpt lat="43.18350637723276" lon="11.383647550982587"><ele>274.16666666666663</ele><time>2026-04-11T08:28:16Z</time></trkpt><trkpt lat="43.18342214572617" lon="11.383598026932184"><ele>274.0</ele><time>2026-04-11T08:28:20Z</time></trkpt><trkpt lat="43.183247297104906" lon="11.3835140816048"><ele>273.25</ele><time>2026-04-11T08:28:24Z</time></trkpt><trkpt lat="43.18313528698298" lon="11.383486877233745"><ele>272.5</ele><time>2026-04-11T08:28:25Z</time></trkpt><trkpt lat="43.18292243933995" lon="11.383410021986498"><ele>271.75</ele><time>2026-04-11T08:28:26Z</time></trkpt><trkpt lat="43.18282897289142" lon="11.383368967998042"><ele>271.0</ele><time>2026-04-11T08:28:27Z</time></trkpt><trkpt lat="43.182751115018526" lon="11.383330762674152"><ele>271.0</ele><time>2026-04-11T08:28:28Z</time></trkpt><trkpt lat="43.182668115773296" lon="11.383292828836993"><ele>271.0</ele><time>2026-04-11T08:28:29Z</time></trkpt><trkpt lat="43.182594048364145" lon="11.383249170641136"><ele>271.0</ele><time>2026-04-11T08:28:30Z</time></trkpt><trkpt lat="43.18252093691936" lon="11.383226073907682"><ele>271.0</ele><time>2026-04-11T08:28:31Z</time></trkpt><trkpt lat="43.18240708119915" lon="11.383195811632687"><ele>271.0</ele><time>2026-04-11T08:28:32Z</time></trkpt><trkpt lat="43.182330962319" lon="11.38316646167773"><ele>271.0</ele><time>2026-04-11T08:28:33Z</time></trkpt><trkpt lat="43.182264388331156" lon="11.383145121555271"><ele>270.66666666666663</ele><time>2026-04-11T08:28:34Z</time></trkpt><trkpt lat="43.18218247241196" lon="11.383120323472596"><ele>270.3333333333333</ele><time>2026-04-11T08:28:35Z</time></trkpt><trkpt lat="43.18210868994057" lon="11.383109284968171"><ele>270.0</ele><time>2026-04-11T08:28:36Z</time></trkpt><trkpt lat="43.182045174085346" lon="11.383090070149631"><ele>269.6666666666667</ele><time>2026-04-11T08:28:37Z</time></trkpt><trkpt lat="43.18197446268979" lon="11.383075127789667"><ele>269.33333333333337</ele><time>2026-04-11T08:28:38Z</time></trkpt><trkpt lat="43.18191076783116" lon="11.383056667545267"><ele>269.0</ele><time>2026-04-11T08:28:39Z</time></trkpt><trkpt lat="43.181803572538094" lon="11.38299177866714"><ele>268.4</ele><time>2026-04-11T08:28:41Z</time></trkpt><trkpt lat="43.181614805328245" lon="11.382998499126424"><ele>267.79999999999995</ele><time>2026-04-11T08:28:44Z</time></trkpt><trkpt lat="43.181552607653764" lon="11.382978836504837"><ele>267.20000000000005</ele><time>2026-04-11T08:28:45Z</time></trkpt><trkpt lat="43.18148765307301" lon="11.38297168490458"><ele>266.6</ele><time>2026-04-11T08:28:46Z</time></trkpt><trkpt lat="43.181391146910094" lon="11.382924792437803"><ele>266.0</ele><time>2026-04-11T08:28:48Z</time></trkpt><trkpt lat="43.181308561077145" lon="11.382893895421454"><ele>266.0</ele><time>2026-04-11T08:28:50Z</time></trkpt><trkpt lat="43.18122046879325" lon="11.382845035803863"><ele>266.0</ele><time>2026-04-11T08:28:52Z</time></trkpt><trkpt lat="43.18112542821997" lon="11.38281553531181"><ele>266.0</ele><time>2026-04-11T08:28:54Z</time></trkpt><trkpt lat="43.18101660798368" lon="11.382784891663412"><ele>266.0</ele><time>2026-04-11T08:28:56Z</time></trkpt><trkpt lat="43.18092980960525" lon="11.38267094256776"><ele>266.0</ele><time>2026-04-11T08:28:58Z</time></trkpt><trkpt lat="43.18085518722212" lon="11.382643829501868"><ele>266.0</ele><time>2026-04-11T08:29:00Z</time></trkpt><trkpt lat="43.180768609125906" lon="11.382710738723926"><ele>266.0</ele><time>2026-04-11T08:29:02Z</time></trkpt><trkpt lat="43.18056491780002" lon="11.382876564941123"><ele>266.0</ele><time>2026-04-11T08:29:06Z</time></trkpt><trkpt lat="43.180511284926766" lon="11.382922369302264"><ele>266.0</ele><time>2026-04-11T08:29:07Z</time></trkpt><trkpt lat="43.18042449056883" lon="11.383031783812235"><ele>266.0</ele><time>2026-04-11T08:29:09Z</time></trkpt><trkpt lat="43.18033069840501" lon="11.383115129770994"><ele>266.0</ele><time>2026-04-11T08:29:11Z</time></trkpt><trkpt lat="43.180240547213074" lon="11.383210012643168"><ele>266.0</ele><time>2026-04-11T08:29:13Z</time></trkpt><trkpt lat="43.18013577564924" lon="11.38329702298668"><ele>266.0</ele><time>2026-04-11T08:29:15Z</time></trkpt><trkpt lat="43.18003248627816" lon="11.383363193253086"><ele>266.0</ele><time>2026-04-11T08:29:17Z</time></trkpt><trkpt lat="43.17992756397423" lon="11.383428933925511"><ele>266.0</ele><time>2026-04-11T08:29:19Z</time></trkpt><trkpt lat="43.17981265921828" lon="11.383486192239864"><ele>266.0</ele><time>2026-04-11T08:29:21Z</time></trkpt><trkpt lat="43.179708716798615" lon="11.383551069516093"><ele>266.0</ele><time>2026-04-11T08:29:23Z</time></trkpt><trkpt lat="43.179545578068335" lon="11.383617298618798"><ele>265.40000000000003</ele><time>2026-04-11T08:29:26Z</time></trkpt><trkpt lat="43.17950247364592" lon="11.383698522389773"><ele>264.8</ele><time>2026-04-11T08:29:27Z</time></trkpt><trkpt lat="43.17939503961108" lon="11.383729083361656"><ele>264.20000000000005</ele><time>2026-04-11T08:29:29Z</time></trkpt><trkpt lat="43.179332496369675" lon="11.383742390432712"><ele>263.6</ele><time>2026-04-11T08:29:30Z</time></trkpt><trkpt lat="43.17922822168225" lon="11.383801004460306"><ele>263.0</ele><time>2026-04-11T08:29:32Z</time></trkpt><trkpt lat="43.17911720177907" lon="11.383860290320198"><ele>264.5</ele><time>2026-04-11T08:29:34Z</time></trkpt><trkpt lat="43.179002973527794" lon="11.38391877896619"><ele>266.0</ele><time>2026-04-11T08:29:36Z</time></trkpt><trkpt lat="43.17889458675331" lon="11.383991953266433"><ele>267.5</ele><time>2026-04-11T08:29:38Z</time></trkpt><trkpt lat="43.178797415121124" lon="11.384062538197176"><ele>269.0</ele><time>2026-04-11T08:29:40Z</time></trkpt><trkpt lat="43.178698475748185" lon="11.384157195297236"><ele>269.0</ele><time>2026-04-11T08:29:42Z</time></trkpt><trkpt lat="43.1786126219001" lon="11.384266740505877"><ele>269.0</ele><time>2026-04-11T08:29:44Z</time></trkpt><trkpt lat="43.178447669917425" lon="11.384485471756943"><ele>269.0</ele><time>2026-04-11T08:29:48Z</time></trkpt><trkpt lat="43.17836431208778" lon="11.384588137221941"><ele>269.0</ele><time>2026-04-11T08:29:50Z</time></trkpt><trkpt lat="43.178277615631664" lon="11.38470229449558"><ele>269.0</ele><time>2026-04-11T08:29:52Z</time></trkpt><trkpt lat="43.17818020023996" lon="11.384804614296277"><ele>269.0</ele><time>2026-04-11T08:29:54Z</time></trkpt><trkpt lat="43.17811677928318" lon="11.384845577021604"><ele>269.0</ele><time>2026-04-11T08:29:55Z</time></trkpt><trkpt lat="43.17801935841707" lon="11.384951409810396"><ele>269.0</ele><time>2026-04-11T08:29:57Z</time></trkpt><trkpt lat="43.17796140179019" lon="11.384992394111864"><ele>269.0</ele><time>2026-04-11T08:29:58Z</time></trkpt><trkpt lat="43.177903537053666" lon="11.385036475075594"><ele>269.0</ele><time>2026-04-11T08:29:59Z</time></trkpt><trkpt lat="43.17784599062828" lon="11.385081021526975"><ele>269.0</ele><time>2026-04-11T08:30:00Z</time></trkpt><trkpt lat="43.177738755963716" lon="11.385172919448008"><ele>269.0</ele><time>2026-04-11T08:30:02Z</time></trkpt><trkpt lat="43.17762799106524" lon="11.38525552225478"><ele>269.0</ele><time>2026-04-11T08:30:04Z</time></trkpt><trkpt lat="43.17755521232305" lon="11.385292521776027"><ele>269.0</ele><time>2026-04-11T08:30:05Z</time></trkpt><trkpt lat="43.17740499076" lon="11.385470819548884"><ele>269.0</ele><time>2026-04-11T08:30:08Z</time></trkpt><trkpt lat="43.17732273536376" lon="11.385601299872421"><ele>269.0</ele><time>2026-04-11T08:30:10Z</time></trkpt><trkpt lat="43.1772817740769" lon="11.385673544757907"><ele>269.0</ele><time>2026-04-11T08:30:11Z</time></trkpt><trkpt lat="43.17724556246991" lon="11.385749083815107"><ele>269.7142857142857</ele><time>2026-04-11T08:30:12Z</time></trkpt><trkpt lat="43.17720156705624" lon="11.385825462929027"><ele>270.42857142857144</ele><time>2026-04-11T08:30:13Z</time></trkpt><trkpt lat="43.177173342178314" lon="11.385909153124961"><ele>271.14285714285717</ele><time>2026-04-11T08:30:14Z</time></trkpt><trkpt lat="43.17714010424962" lon="11.38599448674144"><ele>271.8571428571429</ele><time>2026-04-11T08:30:15Z</time></trkpt><trkpt lat="43.17710717760554" lon="11.386082794501077"><ele>272.57142857142856</ele><time>2026-04-11T08:30:16Z</time></trkpt><trkpt lat="43.177069490339605" lon="11.386170385917913"><ele>273.28571428571433</ele><time>2026-04-11T08:30:17Z</time></trkpt><trkpt lat="43.17702884656265" lon="11.386253095447737"><ele>274.0</ele><time>2026-04-11T08:30:18Z</time></trkpt><trkpt lat="43.176995740065315" lon="11.386343334382172"><ele>273.66666666666663</ele><time>2026-04-11T08:30:19Z</time></trkpt><trkpt lat="43.17695811464199" lon="11.386435180085394"><ele>273.3333333333333</ele><time>2026-04-11T08:30:20Z</time></trkpt><trkpt lat="43.17692186485586" lon="11.386526746477335"><ele>273.0</ele><time>2026-04-11T08:30:21Z</time></trkpt><trkpt lat="43.17688145212571" lon="11.386614978290982"><ele>272.6666666666667</ele><time>2026-04-11T08:30:22Z</time></trkpt><trkpt lat="43.17684276074454" lon="11.386709266980056"><ele>272.33333333333337</ele><time>2026-04-11T08:30:23Z</time></trkpt><trkpt lat="43.17680942942781" lon="11.386792602840876"><ele>272.0</ele><time>2026-04-11T08:30:24Z</time></trkpt><trkpt lat="43.176774322008065" lon="11.386879780365415"><ele>272.0</ele><time>2026-04-11T08:30:25Z</time></trkpt><trkpt lat="43.17673687683042" lon="11.386966492946053"><ele>272.0</ele><time>2026-04-11T08:30:26Z</time></trkpt><trkpt lat="43.176667444785" lon="11.387130641289096"><ele>272.0</ele><time>2026-04-11T08:30:28Z</time></trkpt><trkpt lat="43.17663279894422" lon="11.387210307259112"><ele>272.0</ele><time>2026-04-11T08:30:29Z</time></trkpt><trkpt lat="43.17659747718164" lon="11.387292702457215"><ele>272.0</ele><time>2026-04-11T08:30:30Z</time></trkpt><trkpt lat="43.17657165195519" lon="11.387375331659486"><ele>272.0</ele><time>2026-04-11T08:30:31Z</time></trkpt><trkpt lat="43.17653672839902" lon="11.387454799882407"><ele>272.85714285714283</ele><time>2026-04-11T08:30:32Z</time></trkpt><trkpt lat="43.176501544871726" lon="11.387534981626978"><ele>273.7142857142857</ele><time>2026-04-11T08:30:33Z</time></trkpt><trkpt lat="43.176466660681015" lon="11.387615043099673"><ele>274.57142857142856</ele><time>2026-04-11T08:30:34Z</time></trkpt><trkpt lat="43.17643269473154" lon="11.387694611327506"><ele>275.42857142857144</ele><time>2026-04-11T08:30:35Z</time></trkpt><trkpt lat="43.17638639908848" lon="11.387757355206574"><ele>276.2857142857143</ele><time>2026-04-11T08:30:36Z</time></trkpt><trkpt lat="43.176339843828195" lon="11.387829130775811"><ele>277.1428571428571</ele><time>2026-04-11T08:30:37Z</time></trkpt><trkpt lat="43.17629391799654" lon="11.38789618940178"><ele>278.0</ele><time>2026-04-11T08:30:38Z</time></trkpt><trkpt lat="43.176251202556735" lon="11.3879614862832"><ele>277.42857142857144</ele><time>2026-04-11T08:30:39Z</time></trkpt><trkpt lat="43.17620172637846" lon="11.388017433977344"><ele>276.8571428571429</ele><time>2026-04-11T08:30:40Z</time></trkpt><trkpt lat="43.17614955710155" lon="11.388073395314667"><ele>276.28571428571433</ele><time>2026-04-11T08:30:41Z</time></trkpt><trkpt lat="43.17609748974452" lon="11.388121999066504"><ele>275.7142857142857</ele><time>2026-04-11T08:30:42Z</time></trkpt><trkpt lat="43.176045419676065" lon="11.388170731631314"><ele>275.14285714285717</ele><time>2026-04-11T08:30:43Z</time></trkpt><trkpt lat="43.17598819817404" lon="11.388210302565755"><ele>274.5714285714286</ele><time>2026-04-11T08:30:44Z</time></trkpt><trkpt lat="43.175932934719334" lon="11.388253644807927"><ele>274.0</ele><time>2026-04-11T08:30:45Z</time></trkpt><trkpt lat="43.17581708264204" lon="11.388317956215477"><ele>273.75</ele><time>2026-04-11T08:30:47Z</time></trkpt><trkpt lat="43.17563890216425" lon="11.388403061121517"><ele>273.5</ele><time>2026-04-11T08:30:50Z</time></trkpt><trkpt lat="43.17552637515835" lon="11.388455837476071"><ele>273.25</ele><time>2026-04-11T08:30:52Z</time></trkpt><trkpt lat="43.1754261473536" lon="11.388505214833174"><ele>273.0</ele><time>2026-04-11T08:30:54Z</time></trkpt><trkpt lat="43.17531944732439" lon="11.388548774468088"><ele>273.0</ele><time>2026-04-11T08:30:56Z</time></trkpt><trkpt lat="43.17520754362652" lon="11.388582433031008"><ele>273.0</ele><time>2026-04-11T08:30:58Z</time></trkpt><trkpt lat="43.17513244159585" lon="11.388649159532232"><ele>273.0</ele><time>2026-04-11T08:31:01Z</time></trkpt><trkpt lat="43.17501037840775" lon="11.388685087091883"><ele>273.0</ele><time>2026-04-11T08:31:04Z</time></trkpt><trkpt lat="43.1749035662189" lon="11.388723568859106"><ele>273.0</ele><time>2026-04-11T08:31:07Z</time></trkpt><trkpt lat="43.17481978494349" lon="11.38879103594639"><ele>274.5</ele><time>2026-04-11T08:31:10Z</time></trkpt><trkpt lat="43.17461914091266" lon="11.388863181600968"><ele>276.0</ele><time>2026-04-11T08:31:14Z</time></trkpt><trkpt lat="43.1745300925192" lon="11.388898410298369"><ele>277.5</ele><time>2026-04-11T08:31:16Z</time></trkpt><trkpt lat="43.174448703693116" lon="11.388934916208232"><ele>279.0</ele><time>2026-04-11T08:31:18Z</time></trkpt><trkpt lat="43.174373190224934" lon="11.388966776755849"><ele>279.0</ele><time>2026-04-11T08:31:20Z</time></trkpt><trkpt lat="43.17430291701826" lon="11.38898964322983"><ele>279.0</ele><time>2026-04-11T08:31:22Z</time></trkpt><trkpt lat="43.17422620157876" lon="11.389030879692411"><ele>279.0</ele><time>2026-04-11T08:31:24Z</time></trkpt><trkpt lat="43.17415112828155" lon="11.389066332236716"><ele>279.0</ele><time>2026-04-11T08:31:26Z</time></trkpt><trkpt lat="43.17409162054004" lon="11.389104269080521"><ele>279.0</ele><time>2026-04-11T08:31:28Z</time></trkpt><trkpt lat="43.17401683369731" lon="11.389157733752533"><ele>279.0</ele><time>2026-04-11T08:31:30Z</time></trkpt><trkpt lat="43.17394480260248" lon="11.389228960220462"><ele>280.4</ele><time>2026-04-11T08:31:32Z</time></trkpt><trkpt lat="43.173810994582034" lon="11.389357368729137"><ele>281.79999999999995</ele><time>2026-04-11T08:31:36Z</time></trkpt><trkpt lat="43.173752493970355" lon="11.389443446942359"><ele>283.20000000000005</ele><time>2026-04-11T08:31:38Z</time></trkpt><trkpt lat="43.17369388740653" lon="11.38952768598089"><ele>284.6</ele><time>2026-04-11T08:31:40Z</time></trkpt><trkpt lat="43.17366253279956" lon="11.389614296674408"><ele>286.0</ele><time>2026-04-11T08:31:43Z</time></trkpt><trkpt lat="43.17359168665887" lon="11.38974511945033"><ele>286.0</ele><time>2026-04-11T08:31:46Z</time></trkpt><trkpt lat="43.17351570611003" lon="11.389879044509074"><ele>286.0</ele><time>2026-04-11T08:31:49Z</time></trkpt><trkpt lat="43.17346384698046" lon="11.389941395726078"><ele>286.0</ele><time>2026-04-11T08:31:51Z</time></trkpt><trkpt lat="43.17341013716064" lon="11.390010657142293"><ele>286.0</ele><time>2026-04-11T08:31:53Z</time></trkpt><trkpt lat="43.173314841188386" lon="11.390196078135464"><ele>286.0</ele><time>2026-04-11T08:31:58Z</time></trkpt><trkpt lat="43.1732602993522" lon="11.390267752253033"><ele>285.99999999999994</ele><time>2026-04-11T08:32:01Z</time></trkpt><trkpt lat="43.173220722064116" lon="11.390336133699487"><ele>286.0</ele><time>2026-04-11T08:32:03Z</time></trkpt><trkpt lat="43.17317333943667" lon="11.390396530677402"><ele>286.0</ele><time>2026-04-11T08:32:05Z</time></trkpt><trkpt lat="43.173118486435854" lon="11.390488348383508"><ele>286.0</ele><time>2026-04-11T08:32:08Z</time></trkpt><trkpt lat="43.173063844853104" lon="11.390533661385977"><ele>286.0</ele><time>2026-04-11T08:32:10Z</time></trkpt><trkpt lat="43.173004506494635" lon="11.390596685482246"><ele>285.99999999999994</ele><time>2026-04-11T08:32:13Z</time></trkpt><trkpt lat="43.172941148532146" lon="11.390648998188999"><ele>286.0</ele><time>2026-04-11T08:32:16Z</time></trkpt><trkpt lat="43.17280125140575" lon="11.39071440579672"><ele>288.0</ele><time>2026-04-11T08:32:23Z</time></trkpt><trkpt lat="43.172724334332635" lon="11.39074017204132"><ele>290.0</ele><time>2026-04-11T08:32:27Z</time></trkpt><trkpt lat="43.17265279262697" lon="11.390778761017303"><ele>292.0</ele><time>2026-04-11T08:32:31Z</time></trkpt><trkpt lat="43.172583497419325" lon="11.390811263584796"><ele>294.0</ele><time>2026-04-11T08:32:35Z</time></trkpt><trkpt lat="43.172511752601636" lon="11.39083442604866"><ele>296.0</ele><time>2026-04-11T08:32:39Z</time></trkpt><trkpt lat="43.17239009023202" lon="11.390911319563063"><ele>298.0</ele><time>2026-04-11T08:32:47Z</time></trkpt><trkpt lat="43.1723270323172" lon="11.390954645361091"><ele>299.16666666666663</ele><time>2026-04-11T08:32:51Z</time></trkpt><trkpt lat="43.17226698975745" lon="11.390983396426089"><ele>300.3333333333333</ele><time>2026-04-11T08:32:55Z</time></trkpt><trkpt lat="43.17220200375605" lon="11.391007627281322"><ele>301.5</ele><time>2026-04-11T08:32:59Z</time></trkpt><trkpt lat="43.172137727595455" lon="11.391037077650784"><ele>302.6666666666667</ele><time>2026-04-11T08:33:03Z</time></trkpt><trkpt lat="43.17200136691581" lon="11.39109485598168"><ele>303.83333333333337</ele><time>2026-04-11T08:33:11Z</time></trkpt><trkpt lat="43.17192535462369" lon="11.391143086916319"><ele>305.0</ele><time>2026-04-11T08:33:15Z</time></trkpt><trkpt lat="43.17186200121107" lon="11.391159898821735"><ele>305.0</ele><time>2026-04-11T08:33:18Z</time></trkpt><trkpt lat="43.171789259314274" lon="11.39118502698012"><ele>305.0</ele><time>2026-04-11T08:33:21Z</time></trkpt><trkpt lat="43.171711302809165" lon="11.391229826747804"><ele>305.0</ele><time>2026-04-11T08:33:24Z</time></trkpt><trkpt lat="43.17155214922075" lon="11.391258728583676"><ele>305.0</ele><time>2026-04-11T08:33:29Z</time></trkpt><trkpt lat="43.171456348661266" lon="11.391290639393956"><ele>305.0</ele><time>2026-04-11T08:33:31Z</time></trkpt><trkpt lat="43.17138045809016" lon="11.391279642981049"><ele>304.4</ele><time>2026-04-11T08:33:34Z</time></trkpt><trkpt lat="43.171294195473216" lon="11.39125031182936"><ele>303.8</ele><time>2026-04-11T08:33:37Z</time></trkpt><trkpt lat="43.171144661904066" lon="11.391176610460604"><ele>303.2</ele><time>2026-04-11T08:33:39Z</time></trkpt><trkpt lat="43.17107975110699" lon="11.391145910463152"><ele>302.6</ele><time>2026-04-11T08:33:40Z</time></trkpt><trkpt lat="43.17097364768029" lon="11.391094376757309"><ele>302.0</ele><time>2026-04-11T08:33:42Z</time></trkpt><trkpt lat="43.17085860823983" lon="11.391049613297119"><ele>302.0</ele><time>2026-04-11T08:33:44Z</time></trkpt><trkpt lat="43.17074720534843" lon="11.390993088455142"><ele>302.0</ele><time>2026-04-11T08:33:46Z</time></trkpt><trkpt lat="43.170566778682456" lon="11.390905053709501"><ele>302.0</ele><time>2026-04-11T08:33:49Z</time></trkpt><trkpt lat="43.17050469095081" lon="11.390875200552452"><ele>302.0</ele><time>2026-04-11T08:33:50Z</time></trkpt><trkpt lat="43.17044143295102" lon="11.390834516859472"><ele>302.0</ele><time>2026-04-11T08:33:51Z</time></trkpt><trkpt lat="43.17037502745254" lon="11.390785928442662"><ele>302.0</ele><time>2026-04-11T08:33:52Z</time></trkpt><trkpt lat="43.17030910241946" lon="11.39072876042856"><ele>302.0</ele><time>2026-04-11T08:33:53Z</time></trkpt><trkpt lat="43.17023858316286" lon="11.390678032701262"><ele>302.0</ele><time>2026-04-11T08:33:54Z</time></trkpt><trkpt lat="43.17016721201589" lon="11.390620166530127"><ele>302.0</ele><time>2026-04-11T08:33:55Z</time></trkpt><trkpt lat="43.170093538197555" lon="11.390560218095011"><ele>302.0</ele><time>2026-04-11T08:33:56Z</time></trkpt><trkpt lat="43.17001463071072" lon="11.390491839834908"><ele>302.0</ele><time>2026-04-11T08:33:57Z</time></trkpt><trkpt lat="43.1699388508871" lon="11.390418416209934"><ele>299.6</ele><time>2026-04-11T08:33:58Z</time></trkpt><trkpt lat="43.16985280486316" lon="11.390352380947586"><ele>297.2</ele><time>2026-04-11T08:33:59Z</time></trkpt><trkpt lat="43.16976584186616" lon="11.390285067730893"><ele>294.8</ele><time>2026-04-11T08:34:00Z</time></trkpt><trkpt lat="43.169674706550566" lon="11.390213987269139"><ele>292.4</ele><time>2026-04-11T08:34:01Z</time></trkpt><trkpt lat="43.16958109487032" lon="11.390146449466169"><ele>290.0</ele><time>2026-04-11T08:34:02Z</time></trkpt><trkpt lat="43.169480069477736" lon="11.39009206429699"><ele>290.0</ele><time>2026-04-11T08:34:03Z</time></trkpt><trkpt lat="43.16936646308439" lon="11.390046481252506"><ele>290.0</ele><time>2026-04-11T08:34:04Z</time></trkpt><trkpt lat="43.16926196582095" lon="11.390007666810659"><ele>290.0</ele><time>2026-04-11T08:34:05Z</time></trkpt><trkpt lat="43.169159539272236" lon="11.389995558101434"><ele>290.0</ele><time>2026-04-11T08:34:06Z</time></trkpt><trkpt lat="43.169020450067556" lon="11.38996681750728"><ele>286.33333333333337</ele><time>2026-04-11T08:34:07Z</time></trkpt><trkpt lat="43.16876898103175" lon="11.389924039162372"><ele>282.6666666666667</ele><time>2026-04-11T08:34:09Z</time></trkpt><trkpt lat="43.16863574555062" lon="11.389919429337578"><ele>279.0</ele><time>2026-04-11T08:34:10Z</time></trkpt><trkpt lat="43.168501991894914" lon="11.389903926856492"><ele>279.0</ele><time>2026-04-11T08:34:11Z</time></trkpt><trkpt lat="43.16836791388799" lon="11.389901378310393"><ele>279.0</ele><time>2026-04-11T08:34:12Z</time></trkpt><trkpt lat="43.16822810657369" lon="11.389904871131407"><ele>279.0</ele><time>2026-04-11T08:34:13Z</time></trkpt><trkpt lat="43.168082362521936" lon="11.389892111958149"><ele>279.0</ele><time>2026-04-11T08:34:14Z</time></trkpt><trkpt lat="43.16793390567151" lon="11.389860342497041"><ele>277.5</ele><time>2026-04-11T08:34:15Z</time></trkpt><trkpt lat="43.16778699274702" lon="11.389858256316945"><ele>276.0</ele><time>2026-04-11T08:34:16Z</time></trkpt><trkpt lat="43.16764576771613" lon="11.389851337715852"><ele>274.5</ele><time>2026-04-11T08:34:17Z</time></trkpt><trkpt lat="43.167503482919734" lon="11.38984607895051"><ele>273.0</ele><time>2026-04-11T08:34:18Z</time></trkpt><trkpt lat="43.167362140763714" lon="11.38983628361286"><ele>273.25</ele><time>2026-04-11T08:34:19Z</time></trkpt><trkpt lat="43.16721438985353" lon="11.389825211139575"><ele>273.5</ele><time>2026-04-11T08:34:20Z</time></trkpt><trkpt lat="43.16707837726067" lon="11.389823535771448"><ele>273.75</ele><time>2026-04-11T08:34:21Z</time></trkpt><trkpt lat="43.1669439790922" lon="11.389836036408397"><ele>274.0</ele><time>2026-04-11T08:34:22Z</time></trkpt><trkpt lat="43.166813803872714" lon="11.389889266678207"><ele>274.0</ele><time>2026-04-11T08:34:23Z</time></trkpt><trkpt lat="43.1666963065438" lon="11.389966550897377"><ele>274.0</ele><time>2026-04-11T08:34:24Z</time></trkpt><trkpt lat="43.16656661274345" lon="11.390059485615573"><ele>274.0</ele><time>2026-04-11T08:34:25Z</time></trkpt><trkpt lat="43.16648479140921" lon="11.390159652800016"><ele>274.0</ele><time>2026-04-11T08:34:26Z</time></trkpt><trkpt lat="43.16641604607857" lon="11.39028455916297"><ele>274.75</ele><time>2026-04-11T08:34:27Z</time></trkpt><trkpt lat="43.166347010509114" lon="11.390410082432911"><ele>275.5</ele><time>2026-04-11T08:34:28Z</time></trkpt><trkpt lat="43.16617575945787" lon="11.39059407432197"><ele>276.25</ele><time>2026-04-11T08:34:30Z</time></trkpt><trkpt lat="43.16608294420459" lon="11.390653239439946"><ele>277.0</ele><time>2026-04-11T08:34:31Z</time></trkpt><trkpt lat="43.165997263782344" lon="11.390711984942092"><ele>276.4</ele><time>2026-04-11T08:34:32Z</time></trkpt><trkpt lat="43.1659081006742" lon="11.39076067448137"><ele>275.79999999999995</ele><time>2026-04-11T08:34:33Z</time></trkpt><trkpt lat="43.16581842600933" lon="11.390794012266614"><ele>275.2</ele><time>2026-04-11T08:34:34Z</time></trkpt><trkpt lat="43.16573199491213" lon="11.390828229272904"><ele>274.59999999999997</ele><time>2026-04-11T08:34:35Z</time></trkpt><trkpt lat="43.16564485649497" lon="11.39085157778693"><ele>274.0</ele><time>2026-04-11T08:34:36Z</time></trkpt><trkpt lat="43.1655599744646" lon="11.390875128029277"><ele>274.0</ele><time>2026-04-11T08:34:37Z</time></trkpt><trkpt lat="43.16547708979223" lon="11.390898965046084"><ele>274.0</ele><time>2026-04-11T08:34:38Z</time></trkpt><trkpt lat="43.16539329079614" lon="11.390924308193744"><ele>274.0</ele><time>2026-04-11T08:34:39Z</time></trkpt><trkpt lat="43.165310167444545" lon="11.390942032123448"><ele>274.0</ele><time>2026-04-11T08:34:40Z</time></trkpt><trkpt lat="43.16522967126013" lon="11.390952008969572"><ele>274.0</ele><time>2026-04-11T08:34:41Z</time></trkpt><trkpt lat="43.165146754763" lon="11.39097013095112"><ele>274.0</ele><time>2026-04-11T08:34:42Z</time></trkpt><trkpt lat="43.16506672360819" lon="11.390986616201337"><ele>274.0</ele><time>2026-04-11T08:34:43Z</time></trkpt><trkpt lat="43.16499307824251" lon="11.391002396789448"><ele>274.0</ele><time>2026-04-11T08:34:44Z</time></trkpt><trkpt lat="43.16492406140238" lon="11.391020755335736"><ele>274.0</ele><time>2026-04-11T08:34:45Z</time></trkpt><trkpt lat="43.16485703414874" lon="11.391038225101676"><ele>274.0</ele><time>2026-04-11T08:34:46Z</time></trkpt><trkpt lat="43.16479308586748" lon="11.391061617287061"><ele>274.0</ele><time>2026-04-11T08:34:47Z</time></trkpt><trkpt lat="43.164724283842524" lon="11.39108521175864"><ele>274.0</ele><time>2026-04-11T08:34:48Z</time></trkpt><trkpt lat="43.16448469564943" lon="11.391121536909587"><ele>274.2</ele><time>2026-04-11T08:34:52Z</time></trkpt><trkpt lat="43.164373664587046" lon="11.391156251065123"><ele>274.4</ele><time>2026-04-11T08:34:54Z</time></trkpt><trkpt lat="43.16426683729531" lon="11.391175493370124"><ele>274.6</ele><time>2026-04-11T08:34:56Z</time></trkpt><trkpt lat="43.1641711909577" lon="11.391201491834353"><ele>274.8</ele><time>2026-04-11T08:34:58Z</time></trkpt><trkpt lat="43.16407538766647" lon="11.391224832915153"><ele>275.0</ele><time>2026-04-11T08:35:00Z</time></trkpt><trkpt lat="43.16398173344203" lon="11.391247951963617"><ele>275.4</ele><time>2026-04-11T08:35:02Z</time></trkpt><trkpt lat="43.16389013211396" lon="11.39127198517173"><ele>275.8</ele><time>2026-04-11T08:35:04Z</time></trkpt><trkpt lat="43.16380114022403" lon="11.391296037011125"><ele>276.2</ele><time>2026-04-11T08:35:06Z</time></trkpt><trkpt lat="43.163712111769094" lon="11.391318713997864"><ele>276.6</ele><time>2026-04-11T08:35:08Z</time></trkpt><trkpt lat="43.16362515197111" lon="11.391343653556701"><ele>277.0</ele><time>2026-04-11T08:35:10Z</time></trkpt><trkpt lat="43.16344692614739" lon="11.391391472123859"><ele>277.0</ele><time>2026-04-11T08:35:14Z</time></trkpt><trkpt lat="43.16336050739086" lon="11.391416949835083"><ele>277.0</ele><time>2026-04-11T08:35:16Z</time></trkpt><trkpt lat="43.16327786292865" lon="11.391435090567787"><ele>277.0</ele><time>2026-04-11T08:35:18Z</time></trkpt><trkpt lat="43.1631979629194" lon="11.391453119802216"><ele>277.0</ele><time>2026-04-11T08:35:20Z</time></trkpt><trkpt lat="43.16312222167532" lon="11.391467264000358"><ele>277.0</ele><time>2026-04-11T08:35:22Z</time></trkpt><trkpt lat="43.163049361866214" lon="11.391490552044097"><ele>277.0</ele><time>2026-04-11T08:35:24Z</time></trkpt><trkpt lat="43.16298299551473" lon="11.391502489741955"><ele>277.8333333333333</ele><time>2026-04-11T08:35:26Z</time></trkpt><trkpt lat="43.162918395840435" lon="11.391511295072895"><ele>278.66666666666663</ele><time>2026-04-11T08:35:28Z</time></trkpt><trkpt lat="43.16285459711414" lon="11.391529954028666"><ele>279.5</ele><time>2026-04-11T08:35:30Z</time></trkpt><trkpt lat="43.162791825920024" lon="11.39154333006945"><ele>280.3333333333333</ele><time>2026-04-11T08:35:32Z</time></trkpt><trkpt lat="43.16265683417348" lon="11.391567781756173"><ele>281.1666666666667</ele><time>2026-04-11T08:35:36Z</time></trkpt><trkpt lat="43.16259053512361" lon="11.39157570973009"><ele>282.0</ele><time>2026-04-11T08:35:38Z</time></trkpt><trkpt lat="43.16252704703386" lon="11.391584839058563"><ele>282.0</ele><time>2026-04-11T08:35:40Z</time></trkpt><trkpt lat="43.16246406319092" lon="11.391591908851112"><ele>282.0</ele><time>2026-04-11T08:35:42Z</time></trkpt><trkpt lat="43.16236886517" lon="11.391607725455001"><ele>282.0</ele><time>2026-04-11T08:35:45Z</time></trkpt><trkpt lat="43.1623019845592" lon="11.391619080441776"><ele>282.0</ele><time>2026-04-11T08:35:47Z</time></trkpt><trkpt lat="43.16223446043502" lon="11.391621630809498"><ele>282.0</ele><time>2026-04-11T08:35:49Z</time></trkpt><trkpt lat="43.162166344323815" lon="11.391630013435183"><ele>282.0</ele><time>2026-04-11T08:35:51Z</time></trkpt><trkpt lat="43.16210026263795" lon="11.39165259808152"><ele>282.0</ele><time>2026-04-11T08:35:53Z</time></trkpt><trkpt lat="43.161937038175495" lon="11.391713253511465"><ele>282.0</ele><time>2026-04-11T08:35:57Z</time></trkpt><trkpt lat="43.16185752388178" lon="11.391775830699476"><ele>282.0</ele><time>2026-04-11T08:35:59Z</time></trkpt><trkpt lat="43.16177879796731" lon="11.39186773561611"><ele>282.0</ele><time>2026-04-11T08:36:01Z</time></trkpt><trkpt lat="43.16171529003977" lon="11.391985843163434"><ele>282.0</ele><time>2026-04-11T08:36:03Z</time></trkpt><trkpt lat="43.161674944238705" lon="11.392132496597595"><ele>282.0</ele><time>2026-04-11T08:36:05Z</time></trkpt><trkpt lat="43.161633872242305" lon="11.392278235881514"><ele>282.0</ele><time>2026-04-11T08:36:07Z</time></trkpt><trkpt lat="43.16159062430559" lon="11.392431459615462"><ele>282.0</ele><time>2026-04-11T08:36:09Z</time></trkpt><trkpt lat="43.161571143758664" lon="11.392514681414399"><ele>282.0</ele><time>2026-04-11T08:36:10Z</time></trkpt><trkpt lat="43.16154461020369" lon="11.392598614847852"><ele>282.0</ele><time>2026-04-11T08:36:11Z</time></trkpt><trkpt lat="43.16151299623872" lon="11.392680632837033"><ele>282.0</ele><time>2026-04-11T08:36:12Z</time></trkpt><trkpt lat="43.161472788010265" lon="11.392762539655273"><ele>282.0</ele><time>2026-04-11T08:36:13Z</time></trkpt><trkpt lat="43.16142556302844" lon="11.392835604301409"><ele>281.5</ele><time>2026-04-11T08:36:14Z</time></trkpt><trkpt lat="43.161308366454264" lon="11.392962767266278"><ele>281.0</ele><time>2026-04-11T08:36:16Z</time></trkpt><trkpt lat="43.16124180569426" lon="11.393011089262574"><ele>280.5</ele><time>2026-04-11T08:36:17Z</time></trkpt><trkpt lat="43.161175660560005" lon="11.393051390001453"><ele>280.0</ele><time>2026-04-11T08:36:18Z</time></trkpt><trkpt lat="43.16110644880301" lon="11.39308840949964"><ele>279.5</ele><time>2026-04-11T08:36:19Z</time></trkpt><trkpt lat="43.16103531370489" lon="11.393120056713263"><ele>279.0</ele><time>2026-04-11T08:36:20Z</time></trkpt><trkpt lat="43.1609655160061" lon="11.393147653914143"><ele>278.99999999999994</ele><time>2026-04-11T08:36:21Z</time></trkpt><trkpt lat="43.160894888615225" lon="11.393178487222102"><ele>279.0</ele><time>2026-04-11T08:36:22Z</time></trkpt><trkpt lat="43.16082591254451" lon="11.393209927717923"><ele>279.0</ele><time>2026-04-11T08:36:23Z</time></trkpt><trkpt lat="43.16076301276317" lon="11.393240098295657"><ele>279.0</ele><time>2026-04-11T08:36:24Z</time></trkpt><trkpt lat="43.16069323784771" lon="11.393271053039827"><ele>279.0</ele><time>2026-04-11T08:36:25Z</time></trkpt><trkpt lat="43.160620248349254" lon="11.393297816747564"><ele>278.99999999999994</ele><time>2026-04-11T08:36:26Z</time></trkpt><trkpt lat="43.16055116015618" lon="11.393329615738086"><ele>279.0</ele><time>2026-04-11T08:36:27Z</time></trkpt><trkpt lat="43.16047794434236" lon="11.393361291547091"><ele>278.6666666666667</ele><time>2026-04-11T08:36:28Z</time></trkpt><trkpt lat="43.160404643877804" lon="11.393393754747903"><ele>278.3333333333333</ele><time>2026-04-11T08:36:29Z</time></trkpt><trkpt lat="43.16033174448526" lon="11.393424768108916"><ele>278.0</ele><time>2026-04-11T08:36:30Z</time></trkpt><trkpt lat="43.160254959145476" lon="11.393455644975324"><ele>277.66666666666663</ele><time>2026-04-11T08:36:31Z</time></trkpt><trkpt lat="43.160182075673674" lon="11.393491170191622"><ele>277.3333333333333</ele><time>2026-04-11T08:36:32Z</time></trkpt><trkpt lat="43.16011146614286" lon="11.393525645570966"><ele>277.0</ele><time>2026-04-11T08:36:33Z</time></trkpt><trkpt lat="43.160037625197646" lon="11.393561691790064"><ele>277.0</ele><time>2026-04-11T08:36:34Z</time></trkpt><trkpt lat="43.15996500784954" lon="11.393595573032378"><ele>277.0</ele><time>2026-04-11T08:36:35Z</time></trkpt><trkpt lat="43.15981955525625" lon="11.393671230709666"><ele>277.0</ele><time>2026-04-11T08:36:37Z</time></trkpt><trkpt lat="43.15974950228772" lon="11.39371721404071"><ele>277.0</ele><time>2026-04-11T08:36:38Z</time></trkpt><trkpt lat="43.15968262418703" lon="11.393765066762645"><ele>277.0</ele><time>2026-04-11T08:36:39Z</time></trkpt><trkpt lat="43.15961464783481" lon="11.393810715716592"><ele>276.8333333333333</ele><time>2026-04-11T08:36:40Z</time></trkpt><trkpt lat="43.15954571823382" lon="11.393861726633771"><ele>276.66666666666663</ele><time>2026-04-11T08:36:41Z</time></trkpt><trkpt lat="43.15948020456374" lon="11.393918554623273"><ele>276.5</ele><time>2026-04-11T08:36:42Z</time></trkpt><trkpt lat="43.1594168271096" lon="11.393985870610745"><ele>276.3333333333333</ele><time>2026-04-11T08:36:43Z</time></trkpt><trkpt lat="43.15935220122623" lon="11.394052399546698"><ele>276.1666666666667</ele><time>2026-04-11T08:36:44Z</time></trkpt><trkpt lat="43.15928931142407" lon="11.394124054121368"><ele>276.0</ele><time>2026-04-11T08:36:45Z</time></trkpt><trkpt lat="43.15922365495981" lon="11.394200116408028"><ele>276.0</ele><time>2026-04-11T08:36:46Z</time></trkpt><trkpt lat="43.159165746393086" lon="11.394282932423346"><ele>276.0</ele><time>2026-04-11T08:36:47Z</time></trkpt><trkpt lat="43.159106907853314" lon="11.394366308033563"><ele>276.0</ele><time>2026-04-11T08:36:48Z</time></trkpt><trkpt lat="43.15905286509815" lon="11.394449140663689"><ele>276.0</ele><time>2026-04-11T08:36:49Z</time></trkpt><trkpt lat="43.15899798382795" lon="11.39453644468762"><ele>276.0</ele><time>2026-04-11T08:36:50Z</time></trkpt><trkpt lat="43.158945642752556" lon="11.394625626698907"><ele>276.0</ele><time>2026-04-11T08:36:51Z</time></trkpt><trkpt lat="43.158896846499125" lon="11.394719692874611"><ele>276.6</ele><time>2026-04-11T08:36:52Z</time></trkpt><trkpt lat="43.158853061939" lon="11.394818890743451"><ele>277.20000000000005</ele><time>2026-04-11T08:36:53Z</time></trkpt><trkpt lat="43.15881395996304" lon="11.394918143300185"><ele>277.79999999999995</ele><time>2026-04-11T08:36:54Z</time></trkpt><trkpt lat="43.15877874877917" lon="11.39501780457025"><ele>278.4</ele><time>2026-04-11T08:36:55Z</time></trkpt><trkpt lat="43.15875279261407" lon="11.39511973169116"><ele>279.0</ele><time>2026-04-11T08:36:56Z</time></trkpt><trkpt lat="43.15871623805014" lon="11.395334464577255"><ele>279.0</ele><time>2026-04-11T08:36:58Z</time></trkpt><trkpt lat="43.1587031977109" lon="11.395440257816553"><ele>279.0</ele><time>2026-04-11T08:36:59Z</time></trkpt><trkpt lat="43.15869571701255" lon="11.395544918564829"><ele>279.0</ele><time>2026-04-11T08:37:00Z</time></trkpt><trkpt lat="43.158689117176365" lon="11.39565213071214"><ele>279.0</ele><time>2026-04-11T08:37:01Z</time></trkpt><trkpt lat="43.1586872131276" lon="11.395755056633483"><ele>279.0</ele><time>2026-04-11T08:37:02Z</time></trkpt><trkpt lat="43.1586857517233" lon="11.395858346181923"><ele>279.0</ele><time>2026-04-11T08:37:03Z</time></trkpt><trkpt lat="43.15868817840045" lon="11.395961859016342"><ele>278.99999999999994</ele><time>2026-04-11T08:37:04Z</time></trkpt><trkpt lat="43.15868582273137" lon="11.396062689597256"><ele>279.0</ele><time>2026-04-11T08:37:05Z</time></trkpt><trkpt lat="43.15868115290551" lon="11.396160768379252"><ele>279.0</ele><time>2026-04-11T08:37:06Z</time></trkpt><trkpt lat="43.1586770436231" lon="11.396262922587097"><ele>279.0</ele><time>2026-04-11T08:37:07Z</time></trkpt><trkpt lat="43.158674099489794" lon="11.396364985621016"><ele>279.0</ele><time>2026-04-11T08:37:08Z</time></trkpt><trkpt lat="43.15867311123156" lon="11.396463574270902"><ele>278.99999999999994</ele><time>2026-04-11T08:37:09Z</time></trkpt><trkpt lat="43.15867393168487" lon="11.396564593812998"><ele>279.0</ele><time>2026-04-11T08:37:10Z</time></trkpt><trkpt lat="43.15867594738896" lon="11.396660765827418"><ele>279.1428571428571</ele><time>2026-04-11T08:37:11Z</time></trkpt><trkpt lat="43.15867525792896" lon="11.396761232137404"><ele>279.2857142857143</ele><time>2026-04-11T08:37:12Z</time></trkpt><trkpt lat="43.15867786627985" lon="11.396861808111396"><ele>279.42857142857144</ele><time>2026-04-11T08:37:13Z</time></trkpt><trkpt lat="43.158680016325825" lon="11.396960468723604"><ele>279.57142857142856</ele><time>2026-04-11T08:37:14Z</time></trkpt><trkpt lat="43.15867705916281" lon="11.397060897228327"><ele>279.7142857142857</ele><time>2026-04-11T08:37:15Z</time></trkpt><trkpt lat="43.15867417291459" lon="11.397161503094479"><ele>279.85714285714283</ele><time>2026-04-11T08:37:16Z</time></trkpt><trkpt lat="43.15867011278073" lon="11.39726211483368"><ele>280.0</ele><time>2026-04-11T08:37:17Z</time></trkpt><trkpt lat="43.15866723976245" lon="11.397463848303643"><ele>280.0</ele><time>2026-04-11T08:37:19Z</time></trkpt><trkpt lat="43.15867568613563" lon="11.397563362873344"><ele>280.0</ele><time>2026-04-11T08:37:20Z</time></trkpt><trkpt lat="43.15868244067662" lon="11.397657770075163"><ele>280.0</ele><time>2026-04-11T08:37:21Z</time></trkpt><trkpt lat="43.15869183739896" lon="11.397752253594193"><ele>280.0</ele><time>2026-04-11T08:37:22Z</time></trkpt><trkpt lat="43.158696670193926" lon="11.397846982047328"><ele>280.0</ele><time>2026-04-11T08:37:23Z</time></trkpt><trkpt lat="43.15870753283994" lon="11.397935023541951"><ele>280.0</ele><time>2026-04-11T08:37:24Z</time></trkpt><trkpt lat="43.15873970035723" lon="11.398092898086214"><ele>280.4</ele><time>2026-04-11T08:37:26Z</time></trkpt><trkpt lat="43.158759990530406" lon="11.39824294832118"><ele>280.8</ele><time>2026-04-11T08:37:28Z</time></trkpt><trkpt lat="43.15879144085056" lon="11.39837921439355"><ele>281.2</ele><time>2026-04-11T08:37:30Z</time></trkpt><trkpt lat="43.15882559797751" lon="11.39850571486157"><ele>281.6</ele><time>2026-04-11T08:37:32Z</time></trkpt><trkpt lat="43.158854928338044" lon="11.398624176209783"><ele>282.0</ele><time>2026-04-11T08:37:34Z</time></trkpt><trkpt lat="43.158881837680134" lon="11.398738406649446"><ele>282.3333333333333</ele><time>2026-04-11T08:37:36Z</time></trkpt><trkpt lat="43.158913487907704" lon="11.398846630580413"><ele>282.6666666666667</ele><time>2026-04-11T08:37:38Z</time></trkpt><trkpt lat="43.158922477577846" lon="11.399054092520014"><ele>283.0</ele><time>2026-04-11T08:37:42Z</time></trkpt><trkpt lat="43.15891777086101" lon="11.399156660656509"><ele>283.33333333333337</ele><time>2026-04-11T08:37:44Z</time></trkpt><trkpt lat="43.15891370436024" lon="11.399249571512282"><ele>283.6666666666667</ele><time>2026-04-11T08:37:46Z</time></trkpt><trkpt lat="43.15890175964491" lon="11.399340035017405"><ele>284.0</ele><time>2026-04-11T08:37:48Z</time></trkpt><trkpt lat="43.158877529703815" lon="11.39942306287697"><ele>284.0</ele><time>2026-04-11T08:37:50Z</time></trkpt><trkpt lat="43.15881705579828" lon="11.399516544743783"><ele>284.0</ele><time>2026-04-11T08:37:53Z</time></trkpt><trkpt lat="43.15876420295572" lon="11.399564636240028"><ele>284.0</ele><time>2026-04-11T08:37:55Z</time></trkpt><trkpt lat="43.15867590357282" lon="11.399604856673262"><ele>284.0</ele><time>2026-04-11T08:37:58Z</time></trkpt><trkpt lat="43.15858924639434" lon="11.399609136476291"><ele>284.0</ele><time>2026-04-11T08:38:01Z</time></trkpt><trkpt lat="43.15841799043613" lon="11.39959145928601"><ele>284.0</ele><time>2026-04-11T08:38:07Z</time></trkpt><trkpt lat="43.15832871250534" lon="11.399580000973147"><ele>284.0</ele><time>2026-04-11T08:38:10Z</time></trkpt><trkpt lat="43.15826464424251" lon="11.399581036319232"><ele>284.0</ele><time>2026-04-11T08:38:12Z</time></trkpt><trkpt lat="43.1582002065892" lon="11.399580527347554"><ele>284.0</ele><time>2026-04-11T08:38:14Z</time></trkpt><trkpt lat="43.1581237746153" lon="11.399603767160457"><ele>284.0</ele><time>2026-04-11T08:38:18Z</time></trkpt><trkpt lat="43.15805544963233" lon="11.399630853437463"><ele>284.0</ele><time>2026-04-11T08:38:21Z</time></trkpt><trkpt lat="43.15798604663808" lon="11.39968381543557"><ele>284.0</ele><time>2026-04-11T08:38:24Z</time></trkpt><trkpt lat="43.15784099116395" lon="11.399800320159038"><ele>285.0</ele><time>2026-04-11T08:38:29Z</time></trkpt><trkpt lat="43.157763510681036" lon="11.399866957861567"><ele>286.0</ele><time>2026-04-11T08:38:32Z</time></trkpt><trkpt lat="43.15771039851931" lon="11.399914015342198"><ele>287.0</ele><time>2026-04-11T08:38:34Z</time></trkpt><trkpt lat="43.15763113324425" lon="11.39997906321018"><ele>288.0</ele><time>2026-04-11T08:38:37Z</time></trkpt><trkpt lat="43.15755801467959" lon="11.400033499628329"><ele>289.0</ele><time>2026-04-11T08:38:40Z</time></trkpt><trkpt lat="43.1574765037453" lon="11.400086508582845"><ele>290.0</ele><time>2026-04-11T08:38:43Z</time></trkpt><trkpt lat="43.157402086524165" lon="11.400114476626527"><ele>290.8</ele><time>2026-04-11T08:38:46Z</time></trkpt><trkpt lat="43.15724801101734" lon="11.400135732694741"><ele>291.6</ele><time>2026-04-11T08:38:50Z</time></trkpt><trkpt lat="43.157160843595705" lon="11.400108690813113"><ele>292.4</ele><time>2026-04-11T08:38:53Z</time></trkpt><trkpt lat="43.157056370153015" lon="11.400073339424903"><ele>293.2</ele><time>2026-04-11T08:38:56Z</time></trkpt><trkpt lat="43.15699412092841" lon="11.400052157090755"><ele>294.0</ele><time>2026-04-11T08:38:57Z</time></trkpt><trkpt lat="43.15689601151147" lon="11.400018882631763"><ele>294.0</ele><time>2026-04-11T08:38:59Z</time></trkpt><trkpt lat="43.156806077413016" lon="11.39998969179619"><ele>294.0</ele><time>2026-04-11T08:39:01Z</time></trkpt><trkpt lat="43.15671783761471" lon="11.3999645873707"><ele>294.0</ele><time>2026-04-11T08:39:03Z</time></trkpt><trkpt lat="43.15663014511783" lon="11.399952648304788"><ele>294.0</ele><time>2026-04-11T08:39:05Z</time></trkpt><trkpt lat="43.15653904606686" lon="11.399954184263823"><ele>294.0</ele><time>2026-04-11T08:39:07Z</time></trkpt><trkpt lat="43.15638829338522" lon="11.40001872709662"><ele>296.59999999999997</ele><time>2026-04-11T08:39:11Z</time></trkpt><trkpt lat="43.15633318794818" lon="11.400101816326968"><ele>299.2</ele><time>2026-04-11T08:39:13Z</time></trkpt><trkpt lat="43.156297966958896" lon="11.40020589653335"><ele>301.79999999999995</ele><time>2026-04-11T08:39:15Z</time></trkpt><trkpt lat="43.156287297167374" lon="11.400329148690613"><ele>304.4</ele><time>2026-04-11T08:39:17Z</time></trkpt><trkpt lat="43.15630786339228" lon="11.400459102689503"><ele>307.0</ele><time>2026-04-11T08:39:19Z</time></trkpt><trkpt lat="43.156354495641835" lon="11.400603747844785"><ele>307.1428571428571</ele><time>2026-04-11T08:39:21Z</time></trkpt><trkpt lat="43.15639130084495" lon="11.400674009104366"><ele>307.2857142857143</ele><time>2026-04-11T08:39:22Z</time></trkpt><trkpt lat="43.156420804815966" lon="11.400754218028046"><ele>307.42857142857144</ele><time>2026-04-11T08:39:23Z</time></trkpt><trkpt lat="43.156459916535596" lon="11.400825465782274"><ele>307.57142857142856</ele><time>2026-04-11T08:39:24Z</time></trkpt><trkpt lat="43.156498154769814" lon="11.40090687650359"><ele>307.7142857142857</ele><time>2026-04-11T08:39:25Z</time></trkpt><trkpt lat="43.156541892973735" lon="11.400988715656124"><ele>307.85714285714283</ele><time>2026-04-11T08:39:26Z</time></trkpt><trkpt lat="43.15657919297234" lon="11.401075927529892"><ele>308.0</ele><time>2026-04-11T08:39:27Z</time></trkpt><trkpt lat="43.156616290219276" lon="11.401170418154601"><ele>303.4</ele><time>2026-04-11T08:39:28Z</time></trkpt><trkpt lat="43.15668440524407" lon="11.401372112570302"><ele>298.8</ele><time>2026-04-11T08:39:30Z</time></trkpt><trkpt lat="43.15671090570347" lon="11.401480483105457"><ele>294.2</ele><time>2026-04-11T08:39:31Z</time></trkpt><trkpt lat="43.1567294586502" lon="11.40159330775912"><ele>289.6</ele><time>2026-04-11T08:39:32Z</time></trkpt><trkpt lat="43.156727162796656" lon="11.401714935236194"><ele>285.0</ele><time>2026-04-11T08:39:33Z</time></trkpt><trkpt lat="43.156707717296186" lon="11.401834731066787"><ele>285.0</ele><time>2026-04-11T08:39:34Z</time></trkpt><trkpt lat="43.1566773981459" lon="11.401955565457538"><ele>285.0</ele><time>2026-04-11T08:39:35Z</time></trkpt><trkpt lat="43.15665386200824" lon="11.402075926040746"><ele>285.0</ele><time>2026-04-11T08:39:36Z</time></trkpt><trkpt lat="43.15663210444476" lon="11.40219829362159"><ele>285.0</ele><time>2026-04-11T08:39:37Z</time></trkpt><trkpt lat="43.15661329438151" lon="11.402322994959626"><ele>285.0</ele><time>2026-04-11T08:39:38Z</time></trkpt><trkpt lat="43.15659090454524" lon="11.402447777421637"><ele>284.6</ele><time>2026-04-11T08:39:39Z</time></trkpt><trkpt lat="43.15656617262499" lon="11.402572959235286"><ele>284.2</ele><time>2026-04-11T08:39:40Z</time></trkpt><trkpt lat="43.15654326830522" lon="11.402703319730179"><ele>283.8</ele><time>2026-04-11T08:39:41Z</time></trkpt><trkpt lat="43.15652553746925" lon="11.402830901368691"><ele>283.4</ele><time>2026-04-11T08:39:42Z</time></trkpt><trkpt lat="43.15650426405086" lon="11.402962117013468"><ele>283.0</ele><time>2026-04-11T08:39:43Z</time></trkpt><trkpt lat="43.156485445355116" lon="11.403096633009376"><ele>286.0</ele><time>2026-04-11T08:39:44Z</time></trkpt><trkpt lat="43.156469862182256" lon="11.403229739618455"><ele>289.0</ele><time>2026-04-11T08:39:45Z</time></trkpt><trkpt lat="43.15646161244178" lon="11.403360135546796"><ele>292.0</ele><time>2026-04-11T08:39:46Z</time></trkpt><trkpt lat="43.1564494468255" lon="11.403491699839966"><ele>295.0</ele><time>2026-04-11T08:39:47Z</time></trkpt><trkpt lat="43.15644453247899" lon="11.40362297502665"><ele>298.0</ele><time>2026-04-11T08:39:48Z</time></trkpt><trkpt lat="43.15643948868479" lon="11.40374948764125"><ele>296.5</ele><time>2026-04-11T08:39:49Z</time></trkpt><trkpt lat="43.156410086893885" lon="11.404007915310375"><ele>295.0</ele><time>2026-04-11T08:39:51Z</time></trkpt><trkpt lat="43.15638237260052" lon="11.404129716665837"><ele>293.5</ele><time>2026-04-11T08:39:52Z</time></trkpt><trkpt lat="43.15634752205421" lon="11.404250396083206"><ele>292.0</ele><time>2026-04-11T08:39:53Z</time></trkpt><trkpt lat="43.15629446520404" lon="11.404357250213943"><ele>292.0</ele><time>2026-04-11T08:39:54Z</time></trkpt><trkpt lat="43.15622994231144" lon="11.404447730481248"><ele>292.0</ele><time>2026-04-11T08:39:55Z</time></trkpt><trkpt lat="43.15615774845362" lon="11.404531736138606"><ele>292.0</ele><time>2026-04-11T08:39:56Z</time></trkpt><trkpt lat="43.1560848605184" lon="11.404601732260993"><ele>292.0</ele><time>2026-04-11T08:39:57Z</time></trkpt><trkpt lat="43.1560068213128" lon="11.404660574829023"><ele>292.0</ele><time>2026-04-11T08:39:58Z</time></trkpt><trkpt lat="43.15592928995643" lon="11.4047149629203"><ele>290.8333333333333</ele><time>2026-04-11T08:39:59Z</time></trkpt><trkpt lat="43.155854392536575" lon="11.404771614919445"><ele>289.66666666666663</ele><time>2026-04-11T08:40:00Z</time></trkpt><trkpt lat="43.15577803691164" lon="11.40481261023642"><ele>288.5</ele><time>2026-04-11T08:40:01Z</time></trkpt><trkpt lat="43.15569656706333" lon="11.404838408171926"><ele>287.3333333333333</ele><time>2026-04-11T08:40:02Z</time></trkpt><trkpt lat="43.15561132548111" lon="11.404847451331479"><ele>286.1666666666667</ele><time>2026-04-11T08:40:03Z</time></trkpt><trkpt lat="43.155533661209354" lon="11.404851345068334"><ele>285.0</ele><time>2026-04-11T08:40:04Z</time></trkpt><trkpt lat="43.15545378211878" lon="11.404851036239227"><ele>285.0</ele><time>2026-04-11T08:40:05Z</time></trkpt><trkpt lat="43.15537776059829" lon="11.404861114888625"><ele>285.0</ele><time>2026-04-11T08:40:06Z</time></trkpt><trkpt lat="43.155302247499755" lon="11.404877418756595"><ele>285.0</ele><time>2026-04-11T08:40:07Z</time></trkpt><trkpt lat="43.15523347977674" lon="11.404897607984939"><ele>285.0</ele><time>2026-04-11T08:40:08Z</time></trkpt><trkpt lat="43.15515769354885" lon="11.404933675259372"><ele>285.0</ele><time>2026-04-11T08:40:09Z</time></trkpt><trkpt lat="43.155026428512464" lon="11.404978355187449"><ele>285.0</ele><time>2026-04-11T08:40:11Z</time></trkpt><trkpt lat="43.15489880425525" lon="11.405043055899572"><ele>286.5</ele><time>2026-04-11T08:40:13Z</time></trkpt><trkpt lat="43.15483789713428" lon="11.405071002694614"><ele>288.0</ele><time>2026-04-11T08:40:14Z</time></trkpt><trkpt lat="43.15477798451061" lon="11.405099314880417"><ele>289.5</ele><time>2026-04-11T08:40:15Z</time></trkpt><trkpt lat="43.154658747204195" lon="11.40515483892371"><ele>291.0</ele><time>2026-04-11T08:40:17Z</time></trkpt><trkpt lat="43.15460088578688" lon="11.405190324007611"><ele>292.5</ele><time>2026-04-11T08:40:18Z</time></trkpt><trkpt lat="43.154499312015815" lon="11.405244905861437"><ele>294.0</ele><time>2026-04-11T08:40:20Z</time></trkpt><trkpt lat="43.15439977027236" lon="11.405307385780544"><ele>294.0</ele><time>2026-04-11T08:40:22Z</time></trkpt><trkpt lat="43.154312630246345" lon="11.405376911090851"><ele>294.0</ele><time>2026-04-11T08:40:24Z</time></trkpt><trkpt lat="43.15422756760899" lon="11.405453406426187"><ele>294.0</ele><time>2026-04-11T08:40:26Z</time></trkpt><trkpt lat="43.15414035740196" lon="11.405513778528267"><ele>294.0</ele><time>2026-04-11T08:40:28Z</time></trkpt><trkpt lat="43.15404059924772" lon="11.405575835694469"><ele>294.0</ele><time>2026-04-11T08:40:30Z</time></trkpt><trkpt lat="43.153935300261786" lon="11.405608009060511"><ele>292.0</ele><time>2026-04-11T08:40:32Z</time></trkpt><trkpt lat="43.15373341281732" lon="11.405634875754922"><ele>290.0</ele><time>2026-04-11T08:40:36Z</time></trkpt><trkpt lat="43.153635144369865" lon="11.405636344856848"><ele>288.0</ele><time>2026-04-11T08:40:38Z</time></trkpt><trkpt lat="43.15353951814778" lon="11.405649608507389"><ele>286.0</ele><time>2026-04-11T08:40:40Z</time></trkpt><trkpt lat="43.153443419824576" lon="11.405672662262353"><ele>286.0</ele><time>2026-04-11T08:40:42Z</time></trkpt><trkpt lat="43.153352631108255" lon="11.405714912698146"><ele>286.0</ele><time>2026-04-11T08:40:44Z</time></trkpt><trkpt lat="43.15326262306523" lon="11.405770064604232"><ele>286.0</ele><time>2026-04-11T08:40:46Z</time></trkpt><trkpt lat="43.15318320789973" lon="11.405833483974945"><ele>286.0</ele><time>2026-04-11T08:40:48Z</time></trkpt><trkpt lat="43.15311210301229" lon="11.405901291941097"><ele>286.0</ele><time>2026-04-11T08:40:50Z</time></trkpt><trkpt lat="43.15304054612835" lon="11.4059783332253"><ele>285.25</ele><time>2026-04-11T08:40:52Z</time></trkpt><trkpt lat="43.15297118967146" lon="11.40606577507552"><ele>284.5</ele><time>2026-04-11T08:40:54Z</time></trkpt><trkpt lat="43.15280538604332" lon="11.406215279721016"><ele>283.75</ele><time>2026-04-11T08:40:58Z</time></trkpt><trkpt lat="43.1527170001823" lon="11.406286081921454"><ele>283.0</ele><time>2026-04-11T08:41:00Z</time></trkpt><trkpt lat="43.1526230914176" lon="11.406356074781417"><ele>283.0</ele><time>2026-04-11T08:41:02Z</time></trkpt><trkpt lat="43.152521178096436" lon="11.406412236758332"><ele>283.0</ele><time>2026-04-11T08:41:04Z</time></trkpt><trkpt lat="43.15241354563699" lon="11.406466718712563"><ele>283.0</ele><time>2026-04-11T08:41:06Z</time></trkpt><trkpt lat="43.152302665377704" lon="11.406504070086598"><ele>283.0</ele><time>2026-04-11T08:41:08Z</time></trkpt><trkpt lat="43.152187380855" lon="11.406536872669708"><ele>283.0</ele><time>2026-04-11T08:41:10Z</time></trkpt><trkpt lat="43.15206637965161" lon="11.406552293480832"><ele>283.0</ele><time>2026-04-11T08:41:12Z</time></trkpt><trkpt lat="43.15194150583696" lon="11.406567480007388"><ele>283.0</ele><time>2026-04-11T08:41:14Z</time></trkpt><trkpt lat="43.151878138131586" lon="11.406570691692703"><ele>283.0</ele><time>2026-04-11T08:41:15Z</time></trkpt><trkpt lat="43.151745563759654" lon="11.40657730334679"><ele>283.0</ele><time>2026-04-11T08:41:17Z</time></trkpt><trkpt lat="43.15167460750237" lon="11.406581945618163"><ele>283.0</ele><time>2026-04-11T08:41:18Z</time></trkpt><trkpt lat="43.1516081236928" lon="11.406591381027035"><ele>283.0</ele><time>2026-04-11T08:41:19Z</time></trkpt><trkpt lat="43.151538558413414" lon="11.406601318778936"><ele>283.0</ele><time>2026-04-11T08:41:20Z</time></trkpt><trkpt lat="43.151471266192004" lon="11.406609475640998"><ele>283.0</ele><time>2026-04-11T08:41:21Z</time></trkpt><trkpt lat="43.15140650754432" lon="11.406624573626125"><ele>283.0</ele><time>2026-04-11T08:41:22Z</time></trkpt><trkpt lat="43.15134147173922" lon="11.40664511106895"><ele>283.0</ele><time>2026-04-11T08:41:23Z</time></trkpt><trkpt lat="43.15127825570774" lon="11.406664675931797"><ele>283.0</ele><time>2026-04-11T08:41:24Z</time></trkpt><trkpt lat="43.15115463230578" lon="11.40671074089723"><ele>282.7142857142857</ele><time>2026-04-11T08:41:26Z</time></trkpt><trkpt lat="43.15108930640675" lon="11.40672730881421"><ele>282.42857142857144</ele><time>2026-04-11T08:41:27Z</time></trkpt><trkpt lat="43.151017285888166" lon="11.406741151657478"><ele>282.14285714285717</ele><time>2026-04-11T08:41:28Z</time></trkpt><trkpt lat="43.150945063055815" lon="11.406749017662323"><ele>281.8571428571429</ele><time>2026-04-11T08:41:29Z</time></trkpt><trkpt lat="43.150875361415714" lon="11.406759114685434"><ele>281.57142857142856</ele><time>2026-04-11T08:41:30Z</time></trkpt><trkpt lat="43.15080303308286" lon="11.406765874088686"><ele>281.28571428571433</ele><time>2026-04-11T08:41:31Z</time></trkpt><trkpt lat="43.15072703680931" lon="11.406756092262972"><ele>281.0</ele><time>2026-04-11T08:41:32Z</time></trkpt><trkpt lat="43.15065256658309" lon="11.40674330244591"><ele>281.0</ele><time>2026-04-11T08:41:33Z</time></trkpt><trkpt lat="43.15057605555748" lon="11.406729387366491"><ele>281.0</ele><time>2026-04-11T08:41:34Z</time></trkpt><trkpt lat="43.15049829033963" lon="11.406712947402935"><ele>281.0</ele><time>2026-04-11T08:41:35Z</time></trkpt><trkpt lat="43.15042160833696" lon="11.40668971743405"><ele>281.0</ele><time>2026-04-11T08:41:36Z</time></trkpt><trkpt lat="43.15027364880705" lon="11.406633404991462"><ele>281.0</ele><time>2026-04-11T08:41:38Z</time></trkpt><trkpt lat="43.150208608818645" lon="11.406594503578168"><ele>281.00000000000006</ele><time>2026-04-11T08:41:39Z</time></trkpt><trkpt lat="43.150142809122215" lon="11.406543598176922"><ele>281.0</ele><time>2026-04-11T08:41:40Z</time></trkpt><trkpt lat="43.15009030308772" lon="11.406472747926225"><ele>281.0</ele><time>2026-04-11T08:41:41Z</time></trkpt><trkpt lat="43.15004187931931" lon="11.406392313175441"><ele>281.0</ele><time>2026-04-11T08:41:42Z</time></trkpt><trkpt lat="43.1500043662872" lon="11.406306331175205"><ele>281.0</ele><time>2026-04-11T08:41:43Z</time></trkpt><trkpt lat="43.14994468065023" lon="11.40624418791784"><ele>281.00000000000006</ele><time>2026-04-11T08:41:44Z</time></trkpt><trkpt lat="43.14988461257821" lon="11.406188179418043"><ele>281.0</ele><time>2026-04-11T08:41:45Z</time></trkpt><trkpt lat="43.14981769449201" lon="11.40615369587899"><ele>281.5714285714286</ele><time>2026-04-11T08:41:46Z</time></trkpt><trkpt lat="43.14974507112666" lon="11.40613394229566"><ele>282.14285714285717</ele><time>2026-04-11T08:41:47Z</time></trkpt><trkpt lat="43.14966085787845" lon="11.406135411044017"><ele>282.7142857142857</ele><time>2026-04-11T08:41:48Z</time></trkpt><trkpt lat="43.14959034395299" lon="11.406145823615681"><ele>283.28571428571433</ele><time>2026-04-11T08:41:49Z</time></trkpt><trkpt lat="43.149525056664054" lon="11.406178577261132"><ele>283.8571428571429</ele><time>2026-04-11T08:41:50Z</time></trkpt><trkpt lat="43.14946884663108" lon="11.406232364828004"><ele>284.42857142857144</ele><time>2026-04-11T08:41:51Z</time></trkpt><trkpt lat="43.14941666072496" lon="11.406294090486483"><ele>285.0</ele><time>2026-04-11T08:41:52Z</time></trkpt><trkpt lat="43.14936594145382" lon="11.406350530342"><ele>285.0</ele><time>2026-04-11T08:41:53Z</time></trkpt><trkpt lat="43.149292900968014" lon="11.406484932246778"><ele>285.0</ele><time>2026-04-11T08:41:55Z</time></trkpt><trkpt lat="43.14921070938362" lon="11.406603193048019"><ele>285.0</ele><time>2026-04-11T08:41:57Z</time></trkpt><trkpt lat="43.14902309001477" lon="11.406682451763018"><ele>285.0</ele><time>2026-04-11T08:42:00Z</time></trkpt><trkpt lat="43.14895851971646" lon="11.406692109420007"><ele>285.57142857142856</ele><time>2026-04-11T08:42:01Z</time></trkpt><trkpt lat="43.148891520505366" lon="11.406701759452293"><ele>286.14285714285717</ele><time>2026-04-11T08:42:02Z</time></trkpt><trkpt lat="43.14882853751108" lon="11.406713887027598"><ele>286.7142857142857</ele><time>2026-04-11T08:42:03Z</time></trkpt><trkpt lat="43.14876378603595" lon="11.40672567079234"><ele>287.2857142857143</ele><time>2026-04-11T08:42:04Z</time></trkpt><trkpt lat="43.14869872197881" lon="11.406735590350603"><ele>287.85714285714283</ele><time>2026-04-11T08:42:05Z</time></trkpt><trkpt lat="43.14863401649469" lon="11.406756846650751"><ele>288.42857142857144</ele><time>2026-04-11T08:42:06Z</time></trkpt><trkpt lat="43.1485684546676" lon="11.406790281218065"><ele>289.0</ele><time>2026-04-11T08:42:07Z</time></trkpt><trkpt lat="43.14850652150014" lon="11.40684651923996"><ele>289.0</ele><time>2026-04-11T08:42:08Z</time></trkpt><trkpt lat="43.148447092968034" lon="11.406908148191803"><ele>289.0</ele><time>2026-04-11T08:42:09Z</time></trkpt><trkpt lat="43.14839279638834" lon="11.406978197652949"><ele>289.0</ele><time>2026-04-11T08:42:10Z</time></trkpt><trkpt lat="43.14834566438189" lon="11.407061107641841"><ele>289.0</ele><time>2026-04-11T08:42:11Z</time></trkpt><trkpt lat="43.14830654446544" lon="11.407154812505834"><ele>289.0</ele><time>2026-04-11T08:42:12Z</time></trkpt><trkpt lat="43.14826475984136" lon="11.407246669860584"><ele>289.0</ele><time>2026-04-11T08:42:13Z</time></trkpt><trkpt lat="43.148225705545705" lon="11.407337161363738"><ele>289.59999999999997</ele><time>2026-04-11T08:42:14Z</time></trkpt><trkpt lat="43.1481858713758" lon="11.407430348295332"><ele>290.2</ele><time>2026-04-11T08:42:15Z</time></trkpt><trkpt lat="43.148145438809046" lon="11.407526725963013"><ele>290.79999999999995</ele><time>2026-04-11T08:42:16Z</time></trkpt><trkpt lat="43.14810378596893" lon="11.40761821609879"><ele>291.4</ele><time>2026-04-11T08:42:17Z</time></trkpt><trkpt lat="43.14806059107565" lon="11.407711440308905"><ele>292.0</ele><time>2026-04-11T08:42:18Z</time></trkpt><trkpt lat="43.14798333511481" lon="11.407906843139703"><ele>290.8</ele><time>2026-04-11T08:42:20Z</time></trkpt><trkpt lat="43.14795107420399" lon="11.408016381707286"><ele>289.6</ele><time>2026-04-11T08:42:21Z</time></trkpt><trkpt lat="43.14792461186369" lon="11.408133383786026"><ele>288.40000000000003</ele><time>2026-04-11T08:42:22Z</time></trkpt><trkpt lat="43.14790865437049" lon="11.408257829038426"><ele>287.2</ele><time>2026-04-11T08:42:23Z</time></trkpt><trkpt lat="43.14789676648727" lon="11.408384597996209"><ele>286.0</ele><time>2026-04-11T08:42:24Z</time></trkpt><trkpt lat="43.14788306441487" lon="11.408511250045425"><ele>286.0</ele><time>2026-04-11T08:42:25Z</time></trkpt><trkpt lat="43.14787169472683" lon="11.408639012513815"><ele>286.0</ele><time>2026-04-11T08:42:26Z</time></trkpt><trkpt lat="43.14785608236865" lon="11.408768289152993"><ele>286.0</ele><time>2026-04-11T08:42:27Z</time></trkpt><trkpt lat="43.14784572555825" lon="11.408902093954055"><ele>286.0</ele><time>2026-04-11T08:42:28Z</time></trkpt><trkpt lat="43.14783096887277" lon="11.40903715605656"><ele>286.0</ele><time>2026-04-11T08:42:29Z</time></trkpt><trkpt lat="43.14781540481656" lon="11.409175791383088"><ele>284.8</ele><time>2026-04-11T08:42:30Z</time></trkpt><trkpt lat="43.147793856933745" lon="11.409313721809976"><ele>283.6</ele><time>2026-04-11T08:42:31Z</time></trkpt><trkpt lat="43.14777114819022" lon="11.409454318673818"><ele>282.4</ele><time>2026-04-11T08:42:32Z</time></trkpt><trkpt lat="43.14774770819196" lon="11.409594609755795"><ele>281.2</ele><time>2026-04-11T08:42:33Z</time></trkpt><trkpt lat="43.14772961489713" lon="11.40973970787727"><ele>280.0</ele><time>2026-04-11T08:42:34Z</time></trkpt><trkpt lat="43.1477079591925" lon="11.409885862048199"><ele>278.25</ele><time>2026-04-11T08:42:35Z</time></trkpt><trkpt lat="43.147677265790946" lon="11.410032817219044"><ele>276.5</ele><time>2026-04-11T08:42:36Z</time></trkpt><trkpt lat="43.14763129867559" lon="11.410174685374594"><ele>274.75</ele><time>2026-04-11T08:42:37Z</time></trkpt><trkpt lat="43.14755705123892" lon="11.4103005189906"><ele>273.0</ele><time>2026-04-11T08:42:38Z</time></trkpt><trkpt lat="43.14747493588822" lon="11.410415418059436"><ele>270.6666666666667</ele><time>2026-04-11T08:42:39Z</time></trkpt><trkpt lat="43.147283498947154" lon="11.410592083706273"><ele>268.33333333333337</ele><time>2026-04-11T08:42:41Z</time></trkpt><trkpt lat="43.14717277372963" lon="11.410642952938712"><ele>266.0</ele><time>2026-04-11T08:42:42Z</time></trkpt><trkpt lat="43.14706274553862" lon="11.410697412062824"><ele>266.0</ele><time>2026-04-11T08:42:43Z</time></trkpt><trkpt lat="43.14695771225875" lon="11.410770819886965"><ele>266.0</ele><time>2026-04-11T08:42:44Z</time></trkpt><trkpt lat="43.146856196576294" lon="11.410854342034593"><ele>266.0</ele><time>2026-04-11T08:42:45Z</time></trkpt><trkpt lat="43.14675683863457" lon="11.41094605848092"><ele>266.0</ele><time>2026-04-11T08:42:46Z</time></trkpt><trkpt lat="43.14667045160828" lon="11.411056435944124"><ele>266.0</ele><time>2026-04-11T08:42:47Z</time></trkpt><trkpt lat="43.14658749933479" lon="11.41117433375368"><ele>266.0</ele><time>2026-04-11T08:42:48Z</time></trkpt><trkpt lat="43.14651394718517" lon="11.411302435287041"><ele>266.0</ele><time>2026-04-11T08:42:49Z</time></trkpt><trkpt lat="43.146439191779" lon="11.411434318998134"><ele>266.0</ele><time>2026-04-11T08:42:50Z</time></trkpt><trkpt lat="43.14636270303891" lon="11.411561077115339"><ele>264.75</ele><time>2026-04-11T08:42:51Z</time></trkpt><trkpt lat="43.14628702474559" lon="11.411690030034492"><ele>263.5</ele><time>2026-04-11T08:42:52Z</time></trkpt><trkpt lat="43.146217057905325" lon="11.411826400720827"><ele>262.25</ele><time>2026-04-11T08:42:53Z</time></trkpt><trkpt lat="43.14614285865033" lon="11.411955523125231"><ele>261.0</ele><time>2026-04-11T08:42:54Z</time></trkpt><trkpt lat="43.146071579403454" lon="11.412091442115656"><ele>259.0</ele><time>2026-04-11T08:42:55Z</time></trkpt><trkpt lat="43.14601301949076" lon="11.412238664471019"><ele>257.0</ele><time>2026-04-11T08:42:56Z</time></trkpt><trkpt lat="43.145962439722304" lon="11.412394708836581"><ele>255.0</ele><time>2026-04-11T08:42:57Z</time></trkpt><trkpt lat="43.145923833885824" lon="11.412557360352855"><ele>253.0</ele><time>2026-04-11T08:42:58Z</time></trkpt><trkpt lat="43.14589365273463" lon="11.412725567163124"><ele>253.0</ele><time>2026-04-11T08:42:59Z</time></trkpt><trkpt lat="43.14586405450355" lon="11.412890756404407"><ele>253.0</ele><time>2026-04-11T08:43:00Z</time></trkpt><trkpt lat="43.14578253902553" lon="11.413207604255808"><ele>253.0</ele><time>2026-04-11T08:43:02Z</time></trkpt><trkpt lat="43.145729802091" lon="11.413356647275412"><ele>251.25</ele><time>2026-04-11T08:43:03Z</time></trkpt><trkpt lat="43.14564603669271" lon="11.413493786328429"><ele>249.5</ele><time>2026-04-11T08:43:04Z</time></trkpt><trkpt lat="43.14555850079897" lon="11.413619939979714"><ele>247.75</ele><time>2026-04-11T08:43:05Z</time></trkpt><trkpt lat="43.14546679880295" lon="11.413737323489862"><ele>246.0</ele><time>2026-04-11T08:43:06Z</time></trkpt><trkpt lat="43.14538060148418" lon="11.413859469973554"><ele>245.0</ele><time>2026-04-11T08:43:07Z</time></trkpt><trkpt lat="43.14530387376779" lon="11.41398184397401"><ele>244.0</ele><time>2026-04-11T08:43:08Z</time></trkpt><trkpt lat="43.14525081102212" lon="11.414123902896117"><ele>243.0</ele><time>2026-04-11T08:43:09Z</time></trkpt><trkpt lat="43.145221485551254" lon="11.414282532635546"><ele>242.0</ele><time>2026-04-11T08:43:10Z</time></trkpt><trkpt lat="43.14521519760248" lon="11.414449908035568"><ele>242.0</ele><time>2026-04-11T08:43:11Z</time></trkpt><trkpt lat="43.14524000963968" lon="11.41461676582604"><ele>242.0</ele><time>2026-04-11T08:43:12Z</time></trkpt><trkpt lat="43.14528872024879" lon="11.414770096995996"><ele>242.0</ele><time>2026-04-11T08:43:13Z</time></trkpt><trkpt lat="43.14535360004955" lon="11.414882852365835"><ele>242.0</ele><time>2026-04-11T08:43:14Z</time></trkpt><trkpt lat="43.1454389215869" lon="11.41498354887689"><ele>242.75</ele><time>2026-04-11T08:43:15Z</time></trkpt><trkpt lat="43.14551906042704" lon="11.415090539020456"><ele>243.5</ele><time>2026-04-11T08:43:16Z</time></trkpt><trkpt lat="43.14559719044589" lon="11.41520517948069"><ele>244.25</ele><time>2026-04-11T08:43:17Z</time></trkpt><trkpt lat="43.145667833242115" lon="11.415327896719905"><ele>245.0</ele><time>2026-04-11T08:43:18Z</time></trkpt><trkpt lat="43.145724723673354" lon="11.415462455620425"><ele>243.0</ele><time>2026-04-11T08:43:19Z</time></trkpt><trkpt lat="43.14576684781873" lon="11.415610774420278"><ele>241.0</ele><time>2026-04-11T08:43:20Z</time></trkpt><trkpt lat="43.14580175711761" lon="11.415768516590617"><ele>239.0</ele><time>2026-04-11T08:43:21Z</time></trkpt><trkpt lat="43.14580253438895" lon="11.416090698554372"><ele>239.0</ele><time>2026-04-11T08:43:23Z</time></trkpt><trkpt lat="43.14578581736006" lon="11.416255477854973"><ele>239.0</ele><time>2026-04-11T08:43:24Z</time></trkpt><trkpt lat="43.14576682548272" lon="11.41641490489063"><ele>239.0</ele><time>2026-04-11T08:43:25Z</time></trkpt><trkpt lat="43.14574715072416" lon="11.416579211554481"><ele>239.0</ele><time>2026-04-11T08:43:26Z</time></trkpt><trkpt lat="43.14572876564685" lon="11.416744223701834"><ele>234.75</ele><time>2026-04-11T08:43:27Z</time></trkpt><trkpt lat="43.14570816631937" lon="11.416910649953826"><ele>230.5</ele><time>2026-04-11T08:43:28Z</time></trkpt><trkpt lat="43.145688129431456" lon="11.417078000022027"><ele>226.25</ele><time>2026-04-11T08:43:29Z</time></trkpt><trkpt lat="43.14565993653587" lon="11.417242096759997"><ele>222.0</ele><time>2026-04-11T08:43:30Z</time></trkpt><trkpt lat="43.145616298755435" lon="11.417405496820892"><ele>220.75</ele><time>2026-04-11T08:43:31Z</time></trkpt><trkpt lat="43.14556428209445" lon="11.417563785921182"><ele>219.5</ele><time>2026-04-11T08:43:32Z</time></trkpt><trkpt lat="43.145501821406384" lon="11.417715239555253"><ele>218.25</ele><time>2026-04-11T08:43:33Z</time></trkpt><trkpt lat="43.14544960280683" lon="11.417875182451768"><ele>217.0</ele><time>2026-04-11T08:43:34Z</time></trkpt><trkpt lat="43.14540304045611" lon="11.41803886199506"><ele>216.25</ele><time>2026-04-11T08:43:35Z</time></trkpt><trkpt lat="43.14536797783648" lon="11.418203678604163"><ele>215.5</ele><time>2026-04-11T08:43:36Z</time></trkpt><trkpt lat="43.14534966178885" lon="11.418379647140577"><ele>214.75</ele><time>2026-04-11T08:43:37Z</time></trkpt><trkpt lat="43.145346555511416" lon="11.418555109222822"><ele>214.0</ele><time>2026-04-11T08:43:38Z</time></trkpt><trkpt lat="43.145342105167195" lon="11.418728146688201"><ele>213.75</ele><time>2026-04-11T08:43:39Z</time></trkpt><trkpt lat="43.1453469080084" lon="11.418907074949088"><ele>213.5</ele><time>2026-04-11T08:43:40Z</time></trkpt><trkpt lat="43.14534165627278" lon="11.419085539939447"><ele>213.25</ele><time>2026-04-11T08:43:41Z</time></trkpt><trkpt lat="43.1453282850839" lon="11.41926544482386"><ele>213.0</ele><time>2026-04-11T08:43:42Z</time></trkpt><trkpt lat="43.145257132854674" lon="11.419613359156829"><ele>212.25</ele><time>2026-04-11T08:43:44Z</time></trkpt><trkpt lat="43.14520945138096" lon="11.419779806274104"><ele>211.5</ele><time>2026-04-11T08:43:45Z</time></trkpt><trkpt lat="43.14516837220829" lon="11.419946729585428"><ele>210.75</ele><time>2026-04-11T08:43:46Z</time></trkpt><trkpt lat="43.14514408647044" lon="11.42010890165211"><ele>210.0</ele><time>2026-04-11T08:43:47Z</time></trkpt><trkpt lat="43.14514053843117" lon="11.42027683501951"><ele>210.0</ele><time>2026-04-11T08:43:48Z</time></trkpt><trkpt lat="43.14514351534224" lon="11.420443649345884"><ele>210.0</ele><time>2026-04-11T08:43:49Z</time></trkpt><trkpt lat="43.145149932707426" lon="11.420610362892708"><ele>210.0</ele><time>2026-04-11T08:43:50Z</time></trkpt><trkpt lat="43.145157176456884" lon="11.420775435774242"><ele>210.0</ele><time>2026-04-11T08:43:51Z</time></trkpt><trkpt lat="43.14515763446264" lon="11.420921157804969"><ele>209.5</ele><time>2026-04-11T08:43:52Z</time></trkpt><trkpt lat="43.14515042517743" lon="11.421063475796316"><ele>209.0</ele><time>2026-04-11T08:43:53Z</time></trkpt><trkpt lat="43.14515540660277" lon="11.421176292929589"><ele>208.5</ele><time>2026-04-11T08:43:54Z</time></trkpt><trkpt lat="43.14518051623961" lon="11.421286967110001"><ele>208.0</ele><time>2026-04-11T08:43:55Z</time></trkpt><trkpt lat="43.14521629977809" lon="11.42138577579278"><ele>207.5</ele><time>2026-04-11T08:43:56Z</time></trkpt><trkpt lat="43.14525547583991" lon="11.421477205437316"><ele>207.0</ele><time>2026-04-11T08:43:57Z</time></trkpt><trkpt lat="43.14528508991418" lon="11.42157129132401"><ele>206.83333333333334</ele><time>2026-04-11T08:43:58Z</time></trkpt><trkpt lat="43.14531536056927" lon="11.421656814422448"><ele>206.66666666666669</ele><time>2026-04-11T08:43:59Z</time></trkpt><trkpt lat="43.14533678535058" lon="11.421739990154686"><ele>206.5</ele><time>2026-04-11T08:44:00Z</time></trkpt><trkpt lat="43.14533421087316" lon="11.421882035832787"><ele>206.33333333333334</ele><time>2026-04-11T08:44:02Z</time></trkpt><trkpt lat="43.145295743617915" lon="11.4219693241642"><ele>206.16666666666669</ele><time>2026-04-11T08:44:04Z</time></trkpt><trkpt lat="43.14519817004818" lon="11.422093763999118"><ele>206.0</ele><time>2026-04-11T08:44:11Z</time></trkpt><trkpt lat="43.1452302033335" lon="11.422229804701528"><ele>206.0</ele><time>2026-04-11T08:45:12Z</time></trkpt><trkpt lat="43.14531496953551" lon="11.421917843051117"><ele>206.0</ele><time>2026-04-11T08:51:00Z</time></trkpt><trkpt lat="43.14548447046816" lon="11.422121523290503"><ele>206.50000000000003</ele><time>2026-04-11T08:51:06Z</time></trkpt><trkpt lat="43.1455212365421" lon="11.42226777682793"><ele>207.0</ele><time>2026-04-11T08:51:08Z</time></trkpt><trkpt lat="43.14555087309403" lon="11.422344459011263"><ele>207.5</ele><time>2026-04-11T08:51:09Z</time></trkpt><trkpt lat="43.14558488259456" lon="11.422424098126776"><ele>208.0</ele><time>2026-04-11T08:51:10Z</time></trkpt><trkpt lat="43.14561817553249" lon="11.422505992886046"><ele>208.50000000000003</ele><time>2026-04-11T08:51:11Z</time></trkpt><trkpt lat="43.1456475505565" lon="11.422592851386355"><ele>209.0</ele><time>2026-04-11T08:51:12Z</time></trkpt><trkpt lat="43.14567542199873" lon="11.422679085714291"><ele>209.00000000000003</ele><time>2026-04-11T08:51:13Z</time></trkpt><trkpt lat="43.14570303397636" lon="11.422764975848771"><ele>209.0</ele><time>2026-04-11T08:51:14Z</time></trkpt><trkpt lat="43.14573000691965" lon="11.422852509185175"><ele>209.0</ele><time>2026-04-11T08:51:15Z</time></trkpt><trkpt lat="43.1457598061769" lon="11.422939773733225"><ele>209.0</ele><time>2026-04-11T08:51:16Z</time></trkpt><trkpt lat="43.14579349550238" lon="11.423023260165845"><ele>209.00000000000003</ele><time>2026-04-11T08:51:17Z</time></trkpt><trkpt lat="43.145825314332015" lon="11.423110084544101"><ele>209.0</ele><time>2026-04-11T08:51:18Z</time></trkpt><trkpt lat="43.145886020969094" lon="11.423277116766384"><ele>208.71428571428572</ele><time>2026-04-11T08:51:20Z</time></trkpt><trkpt lat="43.14591336281153" lon="11.42337215203652"><ele>208.42857142857142</ele><time>2026-04-11T08:51:21Z</time></trkpt><trkpt lat="43.14593601480774" lon="11.423466220906388"><ele>208.14285714285717</ele><time>2026-04-11T08:51:22Z</time></trkpt><trkpt lat="43.145951562066166" lon="11.423560193044318"><ele>207.85714285714286</ele><time>2026-04-11T08:51:23Z</time></trkpt><trkpt lat="43.145963504404236" lon="11.423655971028408"><ele>207.57142857142858</ele><time>2026-04-11T08:51:24Z</time></trkpt><trkpt lat="43.145970277798355" lon="11.423752615044126"><ele>207.2857142857143</ele><time>2026-04-11T08:51:25Z</time></trkpt><trkpt lat="43.14596835502533" lon="11.4238517029993"><ele>207.0</ele><time>2026-04-11T08:51:26Z</time></trkpt><trkpt lat="43.14596132621223" lon="11.423948551015899"><ele>206.85714285714286</ele><time>2026-04-11T08:51:27Z</time></trkpt><trkpt lat="43.145945871153955" lon="11.424041083957965"><ele>206.71428571428572</ele><time>2026-04-11T08:51:28Z</time></trkpt><trkpt lat="43.1459265228304" lon="11.424139322625228"><ele>206.57142857142856</ele><time>2026-04-11T08:51:29Z</time></trkpt><trkpt lat="43.14589896466673" lon="11.424231010912182"><ele>206.42857142857144</ele><time>2026-04-11T08:51:30Z</time></trkpt><trkpt lat="43.14586544392665" lon="11.424318192315125"><ele>206.28571428571428</ele><time>2026-04-11T08:51:31Z</time></trkpt><trkpt lat="43.14582498474387" lon="11.424402317401075"><ele>206.14285714285714</ele><time>2026-04-11T08:51:32Z</time></trkpt><trkpt lat="43.14578454914542" lon="11.424482940419985"><ele>206.0</ele><time>2026-04-11T08:51:33Z</time></trkpt><trkpt lat="43.145744523809775" lon="11.424568162657799"><ele>208.33333333333334</ele><time>2026-04-11T08:51:34Z</time></trkpt><trkpt lat="43.14569638650632" lon="11.424648843958083"><ele>210.66666666666669</ele><time>2026-04-11T08:51:35Z</time></trkpt><trkpt lat="43.145642806465304" lon="11.42473021011897"><ele>213.0</ele><time>2026-04-11T08:51:36Z</time></trkpt><trkpt lat="43.14559071720793" lon="11.424802395037405"><ele>215.33333333333331</ele><time>2026-04-11T08:51:37Z</time></trkpt><trkpt lat="43.145552501545126" lon="11.42487288168359"><ele>217.66666666666666</ele><time>2026-04-11T08:51:38Z</time></trkpt><trkpt lat="43.14553524183503" lon="11.424970742529322"><ele>220.0</ele><time>2026-04-11T08:51:39Z</time></trkpt><trkpt lat="43.145558489755906" lon="11.42517032769288"><ele>219.99999999999997</ele><time>2026-04-11T08:51:41Z</time></trkpt><trkpt lat="43.14560597341486" lon="11.425251799815072"><ele>220.0</ele><time>2026-04-11T08:51:42Z</time></trkpt><trkpt lat="43.14566833397347" lon="11.425308550865232"><ele>220.0</ele><time>2026-04-11T08:51:43Z</time></trkpt><trkpt lat="43.1457348688884" lon="11.42534079817516"><ele>220.0</ele><time>2026-04-11T08:51:44Z</time></trkpt><trkpt lat="43.14580452657788" lon="11.42537824739383"><ele>219.99999999999997</ele><time>2026-04-11T08:51:45Z</time></trkpt><trkpt lat="43.14588603642737" lon="11.425426752672548"><ele>220.0</ele><time>2026-04-11T08:51:46Z</time></trkpt><trkpt lat="43.14601545089207" lon="11.425490723722747"><ele>218.99999999999997</ele><time>2026-04-11T08:51:48Z</time></trkpt><trkpt lat="43.146082599226055" lon="11.425542591313436"><ele>218.0</ele><time>2026-04-11T08:51:49Z</time></trkpt><trkpt lat="43.14614250959455" lon="11.425596708927047"><ele>217.0</ele><time>2026-04-11T08:51:50Z</time></trkpt><trkpt lat="43.14619940395971" lon="11.425658479600862"><ele>216.0</ele><time>2026-04-11T08:51:51Z</time></trkpt><trkpt lat="43.14625378961542" lon="11.425727302011401"><ele>215.0</ele><time>2026-04-11T08:51:52Z</time></trkpt><trkpt lat="43.14631003523725" lon="11.425798746976971"><ele>213.99999999999997</ele><time>2026-04-11T08:51:53Z</time></trkpt><trkpt lat="43.1463661524347" lon="11.425865171049391"><ele>213.0</ele><time>2026-04-11T08:51:54Z</time></trkpt><trkpt lat="43.14642333174374" lon="11.425929458786477"><ele>213.0</ele><time>2026-04-11T08:51:55Z</time></trkpt><trkpt lat="43.146481082763756" lon="11.425995089391808"><ele>213.0</ele><time>2026-04-11T08:51:56Z</time></trkpt><trkpt lat="43.14653939502289" lon="11.426060629727917"><ele>213.0</ele><time>2026-04-11T08:51:57Z</time></trkpt><trkpt lat="43.14659641349442" lon="11.426121800722159"><ele>213.0</ele><time>2026-04-11T08:51:58Z</time></trkpt><trkpt lat="43.146657086564105" lon="11.426181212798562"><ele>213.0</ele><time>2026-04-11T08:51:59Z</time></trkpt><trkpt lat="43.146717758841625" lon="11.42623353762505"><ele>213.0</ele><time>2026-04-11T08:52:00Z</time></trkpt><trkpt lat="43.14684006806688" lon="11.426332747751653"><ele>212.85714285714283</ele><time>2026-04-11T08:52:02Z</time></trkpt><trkpt lat="43.14690515890146" lon="11.426378694758101"><ele>212.71428571428572</ele><time>2026-04-11T08:52:03Z</time></trkpt><trkpt lat="43.14697045380234" lon="11.426423150685826"><ele>212.57142857142856</ele><time>2026-04-11T08:52:04Z</time></trkpt><trkpt lat="43.14703860494985" lon="11.426472471295481"><ele>212.42857142857142</ele><time>2026-04-11T08:52:05Z</time></trkpt><trkpt lat="43.14710319822122" lon="11.42651630721851"><ele>212.28571428571428</ele><time>2026-04-11T08:52:06Z</time></trkpt><trkpt lat="43.14716350466364" lon="11.426576268464053"><ele>212.14285714285714</ele><time>2026-04-11T08:52:07Z</time></trkpt><trkpt lat="43.147218009288544" lon="11.4266393177338"><ele>212.0</ele><time>2026-04-11T08:52:08Z</time></trkpt><trkpt lat="43.14727335863876" lon="11.426711610047553"><ele>212.00000000000003</ele><time>2026-04-11T08:52:09Z</time></trkpt><trkpt lat="43.147330587523726" lon="11.426782863515713"><ele>212.0</ele><time>2026-04-11T08:52:10Z</time></trkpt><trkpt lat="43.14738676904751" lon="11.426853082296866"><ele>212.0</ele><time>2026-04-11T08:52:11Z</time></trkpt><trkpt lat="43.14744215272308" lon="11.426927499849999"><ele>212.0</ele><time>2026-04-11T08:52:12Z</time></trkpt><trkpt lat="43.14749591360032" lon="11.426997068597379"><ele>212.00000000000003</ele><time>2026-04-11T08:52:13Z</time></trkpt><trkpt lat="43.147552922644046" lon="11.427062094066738"><ele>212.0</ele><time>2026-04-11T08:52:14Z</time></trkpt><trkpt lat="43.14761560392486" lon="11.427116595731874"><ele>211.2</ele><time>2026-04-11T08:52:15Z</time></trkpt><trkpt lat="43.147685699292886" lon="11.42715702714564"><ele>210.39999999999998</ele><time>2026-04-11T08:52:16Z</time></trkpt><trkpt lat="43.14777693604756" lon="11.427176516586545"><ele>209.60000000000002</ele><time>2026-04-11T08:52:17Z</time></trkpt><trkpt lat="43.14785037606983" lon="11.427198090404742"><ele>208.8</ele><time>2026-04-11T08:52:18Z</time></trkpt><trkpt lat="43.147983852692875" lon="11.427223424991372"><ele>208.0</ele><time>2026-04-11T08:52:20Z</time></trkpt><trkpt lat="43.14806049652106" lon="11.427242532674061"><ele>207.4</ele><time>2026-04-11T08:52:21Z</time></trkpt><trkpt lat="43.14821088636561" lon="11.427303468837902"><ele>206.8</ele><time>2026-04-11T08:52:23Z</time></trkpt><trkpt lat="43.14828259211712" lon="11.427332217013097"><ele>206.2</ele><time>2026-04-11T08:52:24Z</time></trkpt><trkpt lat="43.14835032878626" lon="11.42736434563604"><ele>205.6</ele><time>2026-04-11T08:52:25Z</time></trkpt><trkpt lat="43.14842718092686" lon="11.427402921557995"><ele>205.0</ele><time>2026-04-11T08:52:26Z</time></trkpt><trkpt lat="43.148505185761756" lon="11.42743981872899"><ele>204.99999999999997</ele><time>2026-04-11T08:52:27Z</time></trkpt><trkpt lat="43.148574754419556" lon="11.427484603683247"><ele>205.0</ele><time>2026-04-11T08:52:28Z</time></trkpt><trkpt lat="43.148652715799884" lon="11.427530400158288"><ele>205.0</ele><time>2026-04-11T08:52:29Z</time></trkpt><trkpt lat="43.148729691376175" lon="11.42756903947648"><ele>205.0</ele><time>2026-04-11T08:52:30Z</time></trkpt><trkpt lat="43.14881464728028" lon="11.427609447917774"><ele>204.99999999999997</ele><time>2026-04-11T08:52:31Z</time></trkpt><trkpt lat="43.14891371931766" lon="11.427668136754887"><ele>205.0</ele><time>2026-04-11T08:52:32Z</time></trkpt><trkpt lat="43.148992454507464" lon="11.427715759663284"><ele>204.83333333333331</ele><time>2026-04-11T08:52:33Z</time></trkpt><trkpt lat="43.14906668556168" lon="11.427750482775496"><ele>204.66666666666666</ele><time>2026-04-11T08:52:34Z</time></trkpt><trkpt lat="43.149148131270046" lon="11.42779708290689"><ele>204.5</ele><time>2026-04-11T08:52:35Z</time></trkpt><trkpt lat="43.14922694932394" lon="11.427881597311346"><ele>204.33333333333331</ele><time>2026-04-11T08:52:36Z</time></trkpt><trkpt lat="43.149296068187645" lon="11.42793085477061"><ele>204.16666666666666</ele><time>2026-04-11T08:52:37Z</time></trkpt><trkpt lat="43.14937176432805" lon="11.427980289001415"><ele>204.0</ele><time>2026-04-11T08:52:38Z</time></trkpt><trkpt lat="43.14944995803338" lon="11.42806539074044"><ele>202.0</ele><time>2026-04-11T08:52:39Z</time></trkpt><trkpt lat="43.149516247390835" lon="11.4281531355528"><ele>200.0</ele><time>2026-04-11T08:52:40Z</time></trkpt><trkpt lat="43.1495889448643" lon="11.428243379532658"><ele>198.0</ele><time>2026-04-11T08:52:41Z</time></trkpt><trkpt lat="43.1496591473535" lon="11.428320953142196"><ele>196.0</ele><time>2026-04-11T08:52:42Z</time></trkpt><trkpt lat="43.149788797056964" lon="11.428429033848435"><ele>194.0</ele><time>2026-04-11T08:52:44Z</time></trkpt><trkpt lat="43.149874146504004" lon="11.428542110996071"><ele>194.79999999999998</ele><time>2026-04-11T08:52:45Z</time></trkpt><trkpt lat="43.149953458025834" lon="11.4286119643812"><ele>195.6</ele><time>2026-04-11T08:52:46Z</time></trkpt><trkpt lat="43.150026373452626" lon="11.428693187160405"><ele>196.4</ele><time>2026-04-11T08:52:47Z</time></trkpt><trkpt lat="43.15009345462941" lon="11.42878919523268"><ele>197.2</ele><time>2026-04-11T08:52:48Z</time></trkpt><trkpt lat="43.15015273991851" lon="11.428891296230429"><ele>198.0</ele><time>2026-04-11T08:52:49Z</time></trkpt><trkpt lat="43.15020427478801" lon="11.42900305617547"><ele>196.2</ele><time>2026-04-11T08:52:50Z</time></trkpt><trkpt lat="43.15025713773351" lon="11.429117590216148"><ele>194.4</ele><time>2026-04-11T08:52:51Z</time></trkpt><trkpt lat="43.15031845532304" lon="11.429225657993136"><ele>192.6</ele><time>2026-04-11T08:52:52Z</time></trkpt><trkpt lat="43.15038501302238" lon="11.429331226808824"><ele>190.79999999999998</ele><time>2026-04-11T08:52:53Z</time></trkpt><trkpt lat="43.150451840913306" lon="11.42943538332082"><ele>189.0</ele><time>2026-04-11T08:52:54Z</time></trkpt><trkpt lat="43.150523652080324" lon="11.42953001672008"><ele>189.0</ele><time>2026-04-11T08:52:55Z</time></trkpt><trkpt lat="43.15060050665347" lon="11.42961762665879"><ele>189.0</ele><time>2026-04-11T08:52:56Z</time></trkpt><trkpt lat="43.15067498718169" lon="11.42970342626277"><ele>189.0</ele><time>2026-04-11T08:52:57Z</time></trkpt><trkpt lat="43.150752769212815" lon="11.429785212506877"><ele>189.0</ele><time>2026-04-11T08:52:58Z</time></trkpt><trkpt lat="43.1508355959807" lon="11.429863870396373"><ele>189.0</ele><time>2026-04-11T08:52:59Z</time></trkpt><trkpt lat="43.15092424122226" lon="11.429933159433086"><ele>189.25</ele><time>2026-04-11T08:53:00Z</time></trkpt><trkpt lat="43.15100151483442" lon="11.430009887538422"><ele>189.5</ele><time>2026-04-11T08:53:01Z</time></trkpt><trkpt lat="43.15106813215244" lon="11.43010620001258"><ele>189.75</ele><time>2026-04-11T08:53:02Z</time></trkpt><trkpt lat="43.15112369845801" lon="11.430222571731994"><ele>190.0</ele><time>2026-04-11T08:53:03Z</time></trkpt><trkpt lat="43.15116836580276" lon="11.430487975859792"><ele>188.6</ele><time>2026-04-11T08:53:05Z</time></trkpt><trkpt lat="43.15115911589643" lon="11.430618594096472"><ele>187.2</ele><time>2026-04-11T08:53:06Z</time></trkpt><trkpt lat="43.15114152180412" lon="11.430755862719671"><ele>185.8</ele><time>2026-04-11T08:53:07Z</time></trkpt><trkpt lat="43.15112449617286" lon="11.430892181218777"><ele>184.4</ele><time>2026-04-11T08:53:08Z</time></trkpt><trkpt lat="43.151108539389746" lon="11.431032867383934"><ele>183.0</ele><time>2026-04-11T08:53:09Z</time></trkpt><trkpt lat="43.15109280202039" lon="11.431172788267231"><ele>181.8</ele><time>2026-04-11T08:53:10Z</time></trkpt><trkpt lat="43.151086182960505" lon="11.431315714236543"><ele>180.60000000000002</ele><time>2026-04-11T08:53:11Z</time></trkpt><trkpt lat="43.151086181076565" lon="11.431460998055764"><ele>179.39999999999998</ele><time>2026-04-11T08:53:12Z</time></trkpt><trkpt lat="43.15109043413235" lon="11.431600476600984"><ele>178.2</ele><time>2026-04-11T08:53:13Z</time></trkpt><trkpt lat="43.15110234651429" lon="11.431741341039364"><ele>177.0</ele><time>2026-04-11T08:53:14Z</time></trkpt><trkpt lat="43.151120691207346" lon="11.431877842019777"><ele>177.0</ele><time>2026-04-11T08:53:15Z</time></trkpt><trkpt lat="43.15114230588342" lon="11.432013768991176"><ele>177.0</ele><time>2026-04-11T08:53:16Z</time></trkpt><trkpt lat="43.15114910899722" lon="11.432158155078701"><ele>177.0</ele><time>2026-04-11T08:53:17Z</time></trkpt><trkpt lat="43.15113454262603" lon="11.43230209654386"><ele>177.0</ele><time>2026-04-11T08:53:18Z</time></trkpt><trkpt lat="43.15111711193679" lon="11.432435764776583"><ele>177.0</ele><time>2026-04-11T08:53:19Z</time></trkpt><trkpt lat="43.15111003431944" lon="11.432552873364733"><ele>176.39999999999998</ele><time>2026-04-11T08:53:20Z</time></trkpt><trkpt lat="43.15111840816472" lon="11.432667468061245"><ele>175.79999999999998</ele><time>2026-04-11T08:53:21Z</time></trkpt><trkpt lat="43.15114730510269" lon="11.432782880306434"><ele>175.2</ele><time>2026-04-11T08:53:22Z</time></trkpt><trkpt lat="43.151192842546706" lon="11.432892288156852"><ele>174.6</ele><time>2026-04-11T08:53:23Z</time></trkpt><trkpt lat="43.15125063681055" lon="11.432990632257576"><ele>174.0</ele><time>2026-04-11T08:53:24Z</time></trkpt><trkpt lat="43.151392863206446" lon="11.433165456246508"><ele>173.2</ele><time>2026-04-11T08:53:26Z</time></trkpt><trkpt lat="43.151469440579675" lon="11.433250287026928"><ele>172.39999999999998</ele><time>2026-04-11T08:53:27Z</time></trkpt><trkpt lat="43.15154734150638" lon="11.433327573379582"><ele>171.6</ele><time>2026-04-11T08:53:28Z</time></trkpt><trkpt lat="43.151629157578" lon="11.433399070833447"><ele>170.8</ele><time>2026-04-11T08:53:29Z</time></trkpt><trkpt lat="43.151711034837646" lon="11.433461202283896"><ele>170.0</ele><time>2026-04-11T08:53:30Z</time></trkpt><trkpt lat="43.15178713787754" lon="11.433509184599375"><ele>171.6</ele><time>2026-04-11T08:53:31Z</time></trkpt><trkpt lat="43.15186465116017" lon="11.433532725033313"><ele>173.2</ele><time>2026-04-11T08:53:32Z</time></trkpt><trkpt lat="43.151938594784966" lon="11.433551698429339"><ele>174.8</ele><time>2026-04-11T08:53:33Z</time></trkpt><trkpt lat="43.15202243596556" lon="11.433534797439327"><ele>176.4</ele><time>2026-04-11T08:53:34Z</time></trkpt><trkpt lat="43.152107760779025" lon="11.433513713675406"><ele>178.0</ele><time>2026-04-11T08:53:35Z</time></trkpt><trkpt lat="43.15221732599695" lon="11.43335667541601"><ele>178.0</ele><time>2026-04-11T08:53:37Z</time></trkpt><trkpt lat="43.15228643560815" lon="11.433267856422958"><ele>178.0</ele><time>2026-04-11T08:53:38Z</time></trkpt><trkpt lat="43.152351939793995" lon="11.433179220463375"><ele>178.0</ele><time>2026-04-11T08:53:39Z</time></trkpt><trkpt lat="43.15241571698168" lon="11.433095034022273"><ele>178.0</ele><time>2026-04-11T08:53:40Z</time></trkpt><trkpt lat="43.1524816730541" lon="11.433011989528822"><ele>178.0</ele><time>2026-04-11T08:53:41Z</time></trkpt><trkpt lat="43.15254770560041" lon="11.432953491451247"><ele>178.0</ele><time>2026-04-11T08:53:42Z</time></trkpt><trkpt lat="43.152612188661635" lon="11.432921079187953"><ele>178.4</ele><time>2026-04-11T08:53:43Z</time></trkpt><trkpt lat="43.152689236697064" lon="11.432920076939618"><ele>178.8</ele><time>2026-04-11T08:53:44Z</time></trkpt><trkpt lat="43.15276797283983" lon="11.432980530043828"><ele>179.2</ele><time>2026-04-11T08:53:45Z</time></trkpt><trkpt lat="43.15280963140792" lon="11.433186020606335"><ele>179.6</ele><time>2026-04-11T08:53:47Z</time></trkpt><trkpt lat="43.15278826227364" lon="11.433284633567167"><ele>180.0</ele><time>2026-04-11T08:53:48Z</time></trkpt><trkpt lat="43.15274827039556" lon="11.433376024711533"><ele>179.66666666666666</ele><time>2026-04-11T08:53:49Z</time></trkpt><trkpt lat="43.15269232146217" lon="11.433450936418492"><ele>179.33333333333334</ele><time>2026-04-11T08:53:50Z</time></trkpt><trkpt lat="43.152625230785986" lon="11.433515038189443"><ele>179.0</ele><time>2026-04-11T08:53:51Z</time></trkpt><trkpt lat="43.15255507055289" lon="11.43357984965608"><ele>178.66666666666669</ele><time>2026-04-11T08:53:52Z</time></trkpt><trkpt lat="43.152484343788835" lon="11.433646575520454"><ele>178.33333333333334</ele><time>2026-04-11T08:53:53Z</time></trkpt><trkpt lat="43.15241884690373" lon="11.43372762751306"><ele>178.0</ele><time>2026-04-11T08:53:54Z</time></trkpt><trkpt lat="43.15234786521048" lon="11.433803221882478"><ele>176.0</ele><time>2026-04-11T08:53:55Z</time></trkpt><trkpt lat="43.15228404620316" lon="11.433894796265186"><ele>174.0</ele><time>2026-04-11T08:53:56Z</time></trkpt><trkpt lat="43.15221779326299" lon="11.433982277113136"><ele>172.0</ele><time>2026-04-11T08:53:57Z</time></trkpt><trkpt lat="43.15214977104815" lon="11.434068834127125"><ele>170.0</ele><time>2026-04-11T08:53:58Z</time></trkpt><trkpt lat="43.152080521897474" lon="11.434159170793373"><ele>168.0</ele><time>2026-04-11T08:53:59Z</time></trkpt><trkpt lat="43.15200507510353" lon="11.43424266144423"><ele>168.0</ele><time>2026-04-11T08:54:00Z</time></trkpt><trkpt lat="43.15193021605513" lon="11.434330369985549"><ele>168.0</ele><time>2026-04-11T08:54:01Z</time></trkpt><trkpt lat="43.151854556271516" lon="11.434421743756706"><ele>168.0</ele><time>2026-04-11T08:54:02Z</time></trkpt><trkpt lat="43.15178054134335" lon="11.434513267097788"><ele>168.0</ele><time>2026-04-11T08:54:03Z</time></trkpt><trkpt lat="43.15171123697278" lon="11.43461529480256"><ele>168.0</ele><time>2026-04-11T08:54:04Z</time></trkpt><trkpt lat="43.1516477622817" lon="11.434727283651654"><ele>165.75</ele><time>2026-04-11T08:54:05Z</time></trkpt><trkpt lat="43.15160416562246" lon="11.434845657876448"><ele>163.5</ele><time>2026-04-11T08:54:06Z</time></trkpt><trkpt lat="43.1515642040543" lon="11.435101281839303"><ele>161.25</ele><time>2026-04-11T08:54:08Z</time></trkpt><trkpt lat="43.15156912237629" lon="11.435237120712873"><ele>159.0</ele><time>2026-04-11T08:54:09Z</time></trkpt><trkpt lat="43.15158284407798" lon="11.43537372181256"><ele>158.6</ele><time>2026-04-11T08:54:10Z</time></trkpt><trkpt lat="43.15160238509313" lon="11.435507554434512"><ele>158.2</ele><time>2026-04-11T08:54:11Z</time></trkpt><trkpt lat="43.15162465651685" lon="11.435639920143885"><ele>157.79999999999998</ele><time>2026-04-11T08:54:12Z</time></trkpt><trkpt lat="43.15164799723739" lon="11.435767151381175"><ele>157.4</ele><time>2026-04-11T08:54:13Z</time></trkpt><trkpt lat="43.151667525574894" lon="11.435898846080335"><ele>157.0</ele><time>2026-04-11T08:54:14Z</time></trkpt><trkpt lat="43.15168420172714" lon="11.43602425357127"><ele>157.0</ele><time>2026-04-11T08:54:15Z</time></trkpt><trkpt lat="43.15169949019608" lon="11.436149680624816"><ele>157.0</ele><time>2026-04-11T08:54:16Z</time></trkpt><trkpt lat="43.15171465578334" lon="11.436274154613558"><ele>157.0</ele><time>2026-04-11T08:54:17Z</time></trkpt><trkpt lat="43.15173284534206" lon="11.436391591205183"><ele>157.0</ele><time>2026-04-11T08:54:18Z</time></trkpt><trkpt lat="43.151744583654654" lon="11.43651994258789"><ele>157.0</ele><time>2026-04-11T08:54:19Z</time></trkpt><trkpt lat="43.1517635368224" lon="11.436634816303071"><ele>156.83333333333334</ele><time>2026-04-11T08:54:20Z</time></trkpt><trkpt lat="43.15178098935835" lon="11.4367523286095"><ele>156.66666666666669</ele><time>2026-04-11T08:54:21Z</time></trkpt><trkpt lat="43.15180164311776" lon="11.4368672990956"><ele>156.5</ele><time>2026-04-11T08:54:22Z</time></trkpt><trkpt lat="43.15181538048803" lon="11.436979917925147"><ele>156.33333333333334</ele><time>2026-04-11T08:54:23Z</time></trkpt><trkpt lat="43.151833309519375" lon="11.437092872752597"><ele>156.16666666666666</ele><time>2026-04-11T08:54:24Z</time></trkpt><trkpt lat="43.1518499543302" lon="11.437205099449615"><ele>156.0</ele><time>2026-04-11T08:54:25Z</time></trkpt><trkpt lat="43.151865572061276" lon="11.437316756045748"><ele>156.0</ele><time>2026-04-11T08:54:26Z</time></trkpt><trkpt lat="43.151883851263" lon="11.437425359451435"><ele>156.0</ele><time>2026-04-11T08:54:27Z</time></trkpt><trkpt lat="43.15191979228844" lon="11.437644612099826"><ele>156.0</ele><time>2026-04-11T08:54:29Z</time></trkpt><trkpt lat="43.151936311258154" lon="11.437753480322954"><ele>156.0</ele><time>2026-04-11T08:54:30Z</time></trkpt><trkpt lat="43.151946123026626" lon="11.437859750569803"><ele>156.0</ele><time>2026-04-11T08:54:31Z</time></trkpt><trkpt lat="43.15195804684825" lon="11.437969801792104"><ele>156.83333333333334</ele><time>2026-04-11T08:54:32Z</time></trkpt><trkpt lat="43.151971048406544" lon="11.438068464663722"><ele>157.66666666666666</ele><time>2026-04-11T08:54:33Z</time></trkpt><trkpt lat="43.152008272650235" lon="11.43825089003"><ele>158.5</ele><time>2026-04-11T08:54:35Z</time></trkpt><trkpt lat="43.15203870978905" lon="11.438357988003007"><ele>159.33333333333331</ele><time>2026-04-11T08:54:36Z</time></trkpt><trkpt lat="43.152007077568655" lon="11.438457738194034"><ele>160.16666666666666</ele><time>2026-04-11T08:54:37Z</time></trkpt><trkpt lat="43.151983444794645" lon="11.438550107208457"><ele>161.0</ele><time>2026-04-11T08:54:38Z</time></trkpt><trkpt lat="43.15195650930288" lon="11.43863954611605"><ele>161.0</ele><time>2026-04-11T08:54:39Z</time></trkpt><trkpt lat="43.15192481792756" lon="11.438724732786488"><ele>161.0</ele><time>2026-04-11T08:54:40Z</time></trkpt><trkpt lat="43.15188712590044" lon="11.438798543360818"><ele>161.0</ele><time>2026-04-11T08:54:41Z</time></trkpt><trkpt lat="43.15181342557566" lon="11.438913092931584"><ele>161.0</ele><time>2026-04-11T08:54:43Z</time></trkpt><trkpt lat="43.1517307588573" lon="11.439030364213806"><ele>161.0</ele><time>2026-04-11T08:54:45Z</time></trkpt><trkpt lat="43.15167213194314" lon="11.43915517296684"><ele>161.75</ele><time>2026-04-11T08:54:47Z</time></trkpt><trkpt lat="43.15160917280034" lon="11.439229040026392"><ele>162.5</ele><time>2026-04-11T08:54:49Z</time></trkpt><trkpt lat="43.1514871122407" lon="11.439433107441095"><ele>163.25</ele><time>2026-04-11T08:54:53Z</time></trkpt><trkpt lat="43.15142692708951" lon="11.43953436012012"><ele>164.0</ele><time>2026-04-11T08:54:55Z</time></trkpt><trkpt lat="43.15136716287083" lon="11.439631174414295"><ele>163.6</ele><time>2026-04-11T08:54:57Z</time></trkpt><trkpt lat="43.15131363437881" lon="11.43974357522157"><ele>163.2</ele><time>2026-04-11T08:54:59Z</time></trkpt><trkpt lat="43.151251926249735" lon="11.43985142475796"><ele>162.79999999999998</ele><time>2026-04-11T08:55:01Z</time></trkpt><trkpt lat="43.15120353702132" lon="11.439961095155459"><ele>162.39999999999998</ele><time>2026-04-11T08:55:03Z</time></trkpt><trkpt lat="43.15115132402698" lon="11.440083734955964"><ele>162.0</ele><time>2026-04-11T08:55:05Z</time></trkpt><trkpt lat="43.15110374139382" lon="11.440210553873667"><ele>162.0</ele><time>2026-04-11T08:55:07Z</time></trkpt><trkpt lat="43.15105694404031" lon="11.440342410994203"><ele>162.0</ele><time>2026-04-11T08:55:09Z</time></trkpt><trkpt lat="43.15101355720346" lon="11.44048082675012"><ele>162.0</ele><time>2026-04-11T08:55:11Z</time></trkpt><trkpt lat="43.1508688582137" lon="11.440728745898605"><ele>162.0</ele><time>2026-04-11T08:55:15Z</time></trkpt><trkpt lat="43.15077670022899" lon="11.440825675689016"><ele>162.2</ele><time>2026-04-11T08:55:17Z</time></trkpt><trkpt lat="43.150678543113095" lon="11.440916299261053"><ele>162.39999999999998</ele><time>2026-04-11T08:55:19Z</time></trkpt><trkpt lat="43.15057763040818" lon="11.440981610446904"><ele>162.60000000000002</ele><time>2026-04-11T08:55:21Z</time></trkpt><trkpt lat="43.150478341061664" lon="11.441047057123239"><ele>162.8</ele><time>2026-04-11T08:55:23Z</time></trkpt><trkpt lat="43.15038430385386" lon="11.441101150574397"><ele>163.0</ele><time>2026-04-11T08:55:25Z</time></trkpt><trkpt lat="43.15028865453519" lon="11.441195278089909"><ele>163.0</ele><time>2026-04-11T08:55:27Z</time></trkpt><trkpt lat="43.15018781588056" lon="11.441270449027892"><ele>163.0</ele><time>2026-04-11T08:55:29Z</time></trkpt><trkpt lat="43.15008711795662" lon="11.441350377283264"><ele>163.0</ele><time>2026-04-11T08:55:31Z</time></trkpt><trkpt lat="43.149983704670255" lon="11.44142210687103"><ele>163.0</ele><time>2026-04-11T08:55:33Z</time></trkpt><trkpt lat="43.14979028519368" lon="11.441598743188049"><ele>163.0</ele><time>2026-04-11T08:55:37Z</time></trkpt><trkpt lat="43.14968299274288" lon="11.441672304606602"><ele>163.0</ele><time>2026-04-11T08:55:39Z</time></trkpt><trkpt lat="43.1495836178723" lon="11.441753674636306"><ele>163.0</ele><time>2026-04-11T08:55:41Z</time></trkpt><trkpt lat="43.149484312493655" lon="11.441833144646507"><ele>163.0</ele><time>2026-04-11T08:55:43Z</time></trkpt><trkpt lat="43.14938667285359" lon="11.441914587177159"><ele>163.0</ele><time>2026-04-11T08:55:45Z</time></trkpt><trkpt lat="43.149288406126225" lon="11.441996858108284"><ele>163.0</ele><time>2026-04-11T08:55:47Z</time></trkpt><trkpt lat="43.14918706798486" lon="11.442073623337615"><ele>163.0</ele><time>2026-04-11T08:55:49Z</time></trkpt><trkpt lat="43.14908739037366" lon="11.44215643969201"><ele>163.0</ele><time>2026-04-11T08:55:51Z</time></trkpt><trkpt lat="43.14899345254899" lon="11.442241086103332"><ele>163.33333333333334</ele><time>2026-04-11T08:55:53Z</time></trkpt><trkpt lat="43.148896247502904" lon="11.442324083337782"><ele>163.66666666666666</ele><time>2026-04-11T08:55:55Z</time></trkpt><trkpt lat="43.14871174573269" lon="11.442512021448763"><ele>164.0</ele><time>2026-04-11T08:55:59Z</time></trkpt><trkpt lat="43.14863523717301" lon="11.44262756119178"><ele>164.0</ele><time>2026-04-11T08:56:01Z</time></trkpt><trkpt lat="43.1485471759159" lon="11.442723683188458"><ele>164.0</ele><time>2026-04-11T08:56:03Z</time></trkpt><trkpt lat="43.14847180920387" lon="11.442851050788434"><ele>164.0</ele><time>2026-04-11T08:56:05Z</time></trkpt><trkpt lat="43.14840656418984" lon="11.442977460443087"><ele>164.0</ele><time>2026-04-11T08:56:07Z</time></trkpt><trkpt lat="43.14832591706649" lon="11.443089772033767"><ele>163.75</ele><time>2026-04-11T08:56:09Z</time></trkpt><trkpt lat="43.14824724597459" lon="11.44321288516389"><ele>163.5</ele><time>2026-04-11T08:56:11Z</time></trkpt><trkpt lat="43.14817070712442" lon="11.443339682862334"><ele>163.25</ele><time>2026-04-11T08:56:13Z</time></trkpt><trkpt lat="43.14810283252413" lon="11.443470843877035"><ele>163.0</ele><time>2026-04-11T08:56:15Z</time></trkpt><trkpt lat="43.148054998287726" lon="11.443622323620307"><ele>163.33333333333334</ele><time>2026-04-11T08:56:17Z</time></trkpt><trkpt lat="43.14810009092761" lon="11.443942054301877"><ele>163.66666666666666</ele><time>2026-04-11T08:56:21Z</time></trkpt><trkpt lat="43.14813527071742" lon="11.444083044363246"><ele>164.0</ele><time>2026-04-11T08:56:23Z</time></trkpt><trkpt lat="43.14819270697337" lon="11.444233511777245"><ele>163.99999999999997</ele><time>2026-04-11T08:56:25Z</time></trkpt><trkpt lat="43.148215016920545" lon="11.444315933229564"><ele>164.0</ele><time>2026-04-11T08:56:26Z</time></trkpt><trkpt lat="43.14822393085178" lon="11.444403575134556"><ele>164.0</ele><time>2026-04-11T08:56:27Z</time></trkpt><trkpt lat="43.14822420653056" lon="11.444492629803829"><ele>164.0</ele><time>2026-04-11T08:56:28Z</time></trkpt><trkpt lat="43.14820661147075" lon="11.444575788979353"><ele>164.0</ele><time>2026-04-11T08:56:29Z</time></trkpt><trkpt lat="43.14817704551996" lon="11.444657499966857"><ele>163.99999999999997</ele><time>2026-04-11T08:56:30Z</time></trkpt><trkpt lat="43.14813560960195" lon="11.444724902340019"><ele>164.0</ele><time>2026-04-11T08:56:31Z</time></trkpt><trkpt lat="43.148006916320355" lon="11.444803389235284"><ele>164.0</ele><time>2026-04-11T08:56:33Z</time></trkpt><trkpt lat="43.147890433768396" lon="11.444793253305502"><ele>164.0</ele><time>2026-04-11T08:56:35Z</time></trkpt><trkpt lat="43.147772821788095" lon="11.444751006720288"><ele>164.0</ele><time>2026-04-11T08:56:37Z</time></trkpt><trkpt lat="43.147654877375466" lon="11.444697940597518"><ele>164.0</ele><time>2026-04-11T08:56:39Z</time></trkpt><trkpt lat="43.147473872908314" lon="11.444602139973613"><ele>163.66666666666666</ele><time>2026-04-11T08:56:42Z</time></trkpt><trkpt lat="43.14734970715659" lon="11.444555938867557"><ele>163.33333333333331</ele><time>2026-04-11T08:56:44Z</time></trkpt><trkpt lat="43.14728723598374" lon="11.44454453129646"><ele>163.0</ele><time>2026-04-11T08:56:45Z</time></trkpt><trkpt lat="43.14716447204701" lon="11.44452784383221"><ele>162.66666666666666</ele><time>2026-04-11T08:56:47Z</time></trkpt><trkpt lat="43.14709693509968" lon="11.444520079917114"><ele>162.33333333333334</ele><time>2026-04-11T08:56:48Z</time></trkpt><trkpt lat="43.1470322566399" lon="11.444511797711776"><ele>162.0</ele><time>2026-04-11T08:56:49Z</time></trkpt><trkpt lat="43.14696713464328" lon="11.444501777580536"><ele>162.0</ele><time>2026-04-11T08:56:50Z</time></trkpt><trkpt lat="43.14689813064785" lon="11.444499506179243"><ele>162.0</ele><time>2026-04-11T08:56:51Z</time></trkpt><trkpt lat="43.14683115616036" lon="11.444501045948316"><ele>162.0</ele><time>2026-04-11T08:56:52Z</time></trkpt><trkpt lat="43.14676616318866" lon="11.444505760583858"><ele>162.0</ele><time>2026-04-11T08:56:53Z</time></trkpt><trkpt lat="43.14670076060321" lon="11.444516531715536"><ele>162.0</ele><time>2026-04-11T08:56:54Z</time></trkpt><trkpt lat="43.14663204680865" lon="11.444524690556287"><ele>162.0</ele><time>2026-04-11T08:56:55Z</time></trkpt><trkpt lat="43.14656576757402" lon="11.444539324059155"><ele>162.0</ele><time>2026-04-11T08:56:56Z</time></trkpt><trkpt lat="43.14650034132935" lon="11.444560173774711"><ele>162.0</ele><time>2026-04-11T08:56:57Z</time></trkpt><trkpt lat="43.14643833324081" lon="11.44459020415226"><ele>162.0</ele><time>2026-04-11T08:56:58Z</time></trkpt><trkpt lat="43.14637571260626" lon="11.444621240492783"><ele>162.0</ele><time>2026-04-11T08:56:59Z</time></trkpt><trkpt lat="43.14632036437631" lon="11.444662969718316"><ele>162.0</ele><time>2026-04-11T08:57:00Z</time></trkpt><trkpt lat="43.14622366502327" lon="11.444787160688461"><ele>162.0</ele><time>2026-04-11T08:57:02Z</time></trkpt><trkpt lat="43.146196409519355" lon="11.444871858104891"><ele>162.0</ele><time>2026-04-11T08:57:03Z</time></trkpt><trkpt lat="43.146167434193174" lon="11.444951072946484"><ele>162.0</ele><time>2026-04-11T08:57:04Z</time></trkpt><trkpt lat="43.14613378704086" lon="11.445034507447534"><ele>162.0</ele><time>2026-04-11T08:57:05Z</time></trkpt><trkpt lat="43.146118354298274" lon="11.445121451035405"><ele>162.0</ele><time>2026-04-11T08:57:06Z</time></trkpt><trkpt lat="43.14610932705046" lon="11.445209096807512"><ele>162.0</ele><time>2026-04-11T08:57:07Z</time></trkpt><trkpt lat="43.14610722940354" lon="11.445301361859523"><ele>162.0</ele><time>2026-04-11T08:57:08Z</time></trkpt><trkpt lat="43.14611577608001" lon="11.445388683036885"><ele>162.0</ele><time>2026-04-11T08:57:09Z</time></trkpt><trkpt lat="43.14613165434702" lon="11.445478553639726"><ele>162.0</ele><time>2026-04-11T08:57:10Z</time></trkpt><trkpt lat="43.14615219542049" lon="11.445563843439324"><ele>161.83333333333334</ele><time>2026-04-11T08:57:11Z</time></trkpt><trkpt lat="43.14620048265508" lon="11.445726715263174"><ele>161.66666666666666</ele><time>2026-04-11T08:57:13Z</time></trkpt><trkpt lat="43.146219983574845" lon="11.44581637456636"><ele>161.5</ele><time>2026-04-11T08:57:14Z</time></trkpt><trkpt lat="43.14624277900776" lon="11.445902103110212"><ele>161.33333333333331</ele><time>2026-04-11T08:57:15Z</time></trkpt><trkpt lat="43.146264410614755" lon="11.445983912816208"><ele>161.16666666666666</ele><time>2026-04-11T08:57:16Z</time></trkpt><trkpt lat="43.146282695110834" lon="11.446066772696982"><ele>161.0</ele><time>2026-04-11T08:57:17Z</time></trkpt><trkpt lat="43.14630312481245" lon="11.446151749788168"><ele>161.0</ele><time>2026-04-11T08:57:18Z</time></trkpt><trkpt lat="43.146326254480734" lon="11.446235942859701"><ele>161.0</ele><time>2026-04-11T08:57:19Z</time></trkpt><trkpt lat="43.14634749381267" lon="11.446319727644598"><ele>161.0</ele><time>2026-04-11T08:57:20Z</time></trkpt><trkpt lat="43.14636900646026" lon="11.44640692801361"><ele>161.0</ele><time>2026-04-11T08:57:21Z</time></trkpt><trkpt lat="43.14641600411207" lon="11.446571670908769"><ele>161.0</ele><time>2026-04-11T08:57:23Z</time></trkpt><trkpt lat="43.14642318906873" lon="11.446758557465408"><ele>161.71428571428572</ele><time>2026-04-11T08:57:25Z</time></trkpt><trkpt lat="43.14639014314845" lon="11.446841336848687"><ele>162.42857142857144</ele><time>2026-04-11T08:57:26Z</time></trkpt><trkpt lat="43.14635332991242" lon="11.446914670285775"><ele>163.14285714285714</ele><time>2026-04-11T08:57:27Z</time></trkpt><trkpt lat="43.14628728828626" lon="11.446935235307816"><ele>163.85714285714286</ele><time>2026-04-11T08:57:28Z</time></trkpt><trkpt lat="43.14622126816495" lon="11.4469266382223"><ele>164.57142857142858</ele><time>2026-04-11T08:57:29Z</time></trkpt><trkpt lat="43.146154718014294" lon="11.44689841454836"><ele>165.28571428571428</ele><time>2026-04-11T08:57:30Z</time></trkpt><trkpt lat="43.14609442449401" lon="11.446865667501132"><ele>166.0</ele><time>2026-04-11T08:57:31Z</time></trkpt><trkpt lat="43.14603248385216" lon="11.446847136494544"><ele>166.0</ele><time>2026-04-11T08:57:32Z</time></trkpt><trkpt lat="43.14596725757865" lon="11.44683672964986"><ele>166.0</ele><time>2026-04-11T08:57:33Z</time></trkpt><trkpt lat="43.145897895308714" lon="11.446833736113938"><ele>166.0</ele><time>2026-04-11T08:57:34Z</time></trkpt><trkpt lat="43.14577504194854" lon="11.446838281712184"><ele>166.0</ele><time>2026-04-11T08:57:36Z</time></trkpt><trkpt lat="43.14570744113476" lon="11.44684493095225"><ele>166.0</ele><time>2026-04-11T08:57:37Z</time></trkpt><trkpt lat="43.14563913983232" lon="11.446859019690011"><ele>166.0</ele><time>2026-04-11T08:57:38Z</time></trkpt><trkpt lat="43.145572113258574" lon="11.446876037272544"><ele>166.33333333333334</ele><time>2026-04-11T08:57:39Z</time></trkpt><trkpt lat="43.14550703971218" lon="11.446900409151283"><ele>166.66666666666669</ele><time>2026-04-11T08:57:40Z</time></trkpt><trkpt lat="43.1454445693765" lon="11.44693096445393"><ele>167.0</ele><time>2026-04-11T08:57:41Z</time></trkpt><trkpt lat="43.14538595349614" lon="11.446976544705356"><ele>167.33333333333334</ele><time>2026-04-11T08:57:42Z</time></trkpt><trkpt lat="43.14527772907562" lon="11.44708829359576"><ele>167.66666666666666</ele><time>2026-04-11T08:57:44Z</time></trkpt><trkpt lat="43.145226535098324" lon="11.447146162368218"><ele>168.0</ele><time>2026-04-11T08:57:45Z</time></trkpt><trkpt lat="43.14517264503783" lon="11.447207098624961"><ele>168.0</ele><time>2026-04-11T08:57:46Z</time></trkpt><trkpt lat="43.14511821339036" lon="11.447268815377491"><ele>168.0</ele><time>2026-04-11T08:57:47Z</time></trkpt><trkpt lat="43.14506448774834" lon="11.447327091541839"><ele>168.0</ele><time>2026-04-11T08:57:48Z</time></trkpt><trkpt lat="43.14501337280349" lon="11.447392320094972"><ele>168.0</ele><time>2026-04-11T08:57:49Z</time></trkpt><trkpt lat="43.14496520073932" lon="11.447454075815827"><ele>168.0</ele><time>2026-04-11T08:57:50Z</time></trkpt><trkpt lat="43.14492960642675" lon="11.447604323005697"><ele>168.0</ele><time>2026-04-11T08:57:52Z</time></trkpt><trkpt lat="43.14492876346726" lon="11.447775988818623"><ele>168.0</ele><time>2026-04-11T08:57:54Z</time></trkpt><trkpt lat="43.144941440082064" lon="11.44791605416361"><ele>168.0</ele><time>2026-04-11T08:57:56Z</time></trkpt><trkpt lat="43.144909276168896" lon="11.44804372398901"><ele>168.0</ele><time>2026-04-11T08:57:58Z</time></trkpt><trkpt lat="43.1448997433442" lon="11.448193717070664"><ele>168.0</ele><time>2026-04-11T08:58:00Z</time></trkpt><trkpt lat="43.14488433772725" lon="11.44834042914133"><ele>168.0</ele><time>2026-04-11T08:58:02Z</time></trkpt><trkpt lat="43.1448426683376" lon="11.448405924329204"><ele>167.75</ele><time>2026-04-11T08:58:03Z</time></trkpt><trkpt lat="43.14464025615028" lon="11.448560673654042"><ele>167.5</ele><time>2026-04-11T08:58:07Z</time></trkpt><trkpt lat="43.144574240690055" lon="11.448563749886947"><ele>167.25</ele><time>2026-04-11T08:58:08Z</time></trkpt><trkpt lat="43.14445411662181" lon="11.448571364875706"><ele>167.0</ele><time>2026-04-11T08:58:10Z</time></trkpt><trkpt lat="43.14433875463494" lon="11.44855304583536"><ele>167.0</ele><time>2026-04-11T08:58:12Z</time></trkpt><trkpt lat="43.14427451379072" lon="11.448543068647664"><ele>167.0</ele><time>2026-04-11T08:58:13Z</time></trkpt><trkpt lat="43.14415848182949" lon="11.44848082141755"><ele>167.0</ele><time>2026-04-11T08:58:15Z</time></trkpt><trkpt lat="43.14400953988612" lon="11.448460374699195"><ele>167.0</ele><time>2026-04-11T08:58:17Z</time></trkpt><trkpt lat="43.14394375991943" lon="11.448443797252692"><ele>167.0</ele><time>2026-04-11T08:58:18Z</time></trkpt><trkpt lat="43.14385296168411" lon="11.448343539815221"><ele>168.0</ele><time>2026-04-11T08:58:20Z</time></trkpt><trkpt lat="43.14379852376427" lon="11.448299083303926"><ele>169.0</ele><time>2026-04-11T08:58:21Z</time></trkpt><trkpt lat="43.1437344769517" lon="11.448267764022802"><ele>170.0</ele><time>2026-04-11T08:58:22Z</time></trkpt><trkpt lat="43.143673699699676" lon="11.448226718156302"><ele>171.0</ele><time>2026-04-11T08:58:23Z</time></trkpt><trkpt lat="43.14356683717866" lon="11.448137787140201"><ele>172.0</ele><time>2026-04-11T08:58:25Z</time></trkpt><trkpt lat="43.143446637435794" lon="11.448056282007936"><ele>172.0</ele><time>2026-04-11T08:58:27Z</time></trkpt><trkpt lat="43.143387721144535" lon="11.448010818932895"><ele>172.0</ele><time>2026-04-11T08:58:28Z</time></trkpt><trkpt lat="43.14332753746696" lon="11.447968950568573"><ele>172.0</ele><time>2026-04-11T08:58:29Z</time></trkpt><trkpt lat="43.143221889074226" lon="11.4478813620983"><ele>172.0</ele><time>2026-04-11T08:58:31Z</time></trkpt><trkpt lat="43.14310345112474" lon="11.447802138443024"><ele>172.0</ele><time>2026-04-11T08:58:33Z</time></trkpt><trkpt lat="43.143040488510785" lon="11.447762192551313"><ele>170.5</ele><time>2026-04-11T08:58:34Z</time></trkpt><trkpt lat="43.14291329066504" lon="11.447719796190233"><ele>169.0</ele><time>2026-04-11T08:58:36Z</time></trkpt><trkpt lat="43.142849286733764" lon="11.447696754230485"><ele>167.5</ele><time>2026-04-11T08:58:37Z</time></trkpt><trkpt lat="43.14278557648139" lon="11.447689534813076"><ele>166.0</ele><time>2026-04-11T08:58:38Z</time></trkpt><trkpt lat="43.14271553044624" lon="11.447673370511332"><ele>164.5</ele><time>2026-04-11T08:58:39Z</time></trkpt><trkpt lat="43.142638797651735" lon="11.44768317568503"><ele>163.0</ele><time>2026-04-11T08:58:40Z</time></trkpt><trkpt lat="43.142507662128914" lon="11.44769366144335"><ele>163.0</ele><time>2026-04-11T08:58:42Z</time></trkpt><trkpt lat="43.142437019416214" lon="11.447719162172085"><ele>163.0</ele><time>2026-04-11T08:58:43Z</time></trkpt><trkpt lat="43.14236769763508" lon="11.44772776167074"><ele>163.0</ele><time>2026-04-11T08:58:44Z</time></trkpt><trkpt lat="43.142300727798855" lon="11.447747292839935"><ele>163.0</ele><time>2026-04-11T08:58:45Z</time></trkpt><trkpt lat="43.142236404889275" lon="11.447771264508983"><ele>163.0</ele><time>2026-04-11T08:58:46Z</time></trkpt><trkpt lat="43.14209887272335" lon="11.44781364046078"><ele>163.0</ele><time>2026-04-11T08:58:48Z</time></trkpt><trkpt lat="43.14202984980611" lon="11.447837988628942"><ele>162.83333333333334</ele><time>2026-04-11T08:58:49Z</time></trkpt><trkpt lat="43.14196326151803" lon="11.447862099510864"><ele>162.66666666666669</ele><time>2026-04-11T08:58:50Z</time></trkpt><trkpt lat="43.14189375955918" lon="11.447887004504972"><ele>162.5</ele><time>2026-04-11T08:58:51Z</time></trkpt><trkpt lat="43.14182657315404" lon="11.447910061649473"><ele>162.33333333333334</ele><time>2026-04-11T08:58:52Z</time></trkpt><trkpt lat="43.141709076791706" lon="11.44797479997059"><ele>162.16666666666666</ele><time>2026-04-11T08:58:54Z</time></trkpt><trkpt lat="43.141625168106586" lon="11.447985957629614"><ele>162.0</ele><time>2026-04-11T08:58:55Z</time></trkpt><trkpt lat="43.141553980152295" lon="11.448001597514338"><ele>163.28571428571428</ele><time>2026-04-11T08:58:56Z</time></trkpt><trkpt lat="43.14147992807206" lon="11.448021771129811"><ele>164.57142857142856</ele><time>2026-04-11T08:58:57Z</time></trkpt><trkpt lat="43.141411146800905" lon="11.448035656554314"><ele>165.85714285714283</ele><time>2026-04-11T08:58:58Z</time></trkpt><trkpt lat="43.141342095675384" lon="11.4480542917232"><ele>167.14285714285714</ele><time>2026-04-11T08:58:59Z</time></trkpt><trkpt lat="43.141272295132275" lon="11.448068012901413"><ele>168.42857142857142</ele><time>2026-04-11T08:59:00Z</time></trkpt><trkpt lat="43.14120399812868" lon="11.448084447659626"><ele>169.7142857142857</ele><time>2026-04-11T08:59:01Z</time></trkpt><trkpt lat="43.14113487635842" lon="11.448088145418023"><ele>171.0</ele><time>2026-04-11T08:59:02Z</time></trkpt><trkpt lat="43.14106909961476" lon="11.448098876730198"><ele>171.0</ele><time>2026-04-11T08:59:03Z</time></trkpt><trkpt lat="43.1410035122575" lon="11.448110204478631"><ele>171.0</ele><time>2026-04-11T08:59:04Z</time></trkpt><trkpt lat="43.14093856045494" lon="11.448119326657592"><ele>171.0</ele><time>2026-04-11T08:59:05Z</time></trkpt><trkpt lat="43.14081635308997" lon="11.448142661987227"><ele>171.0</ele><time>2026-04-11T08:59:07Z</time></trkpt><trkpt lat="43.140589098852004" lon="11.448170176231958"><ele>170.5</ele><time>2026-04-11T08:59:11Z</time></trkpt><trkpt lat="43.140457964116024" lon="11.448160414584654"><ele>170.0</ele><time>2026-04-11T08:59:13Z</time></trkpt><trkpt lat="43.1403970002813" lon="11.448137033814161"><ele>169.5</ele><time>2026-04-11T08:59:14Z</time></trkpt><trkpt lat="43.14033405863666" lon="11.448109349564865"><ele>169.0</ele><time>2026-04-11T08:59:15Z</time></trkpt><trkpt lat="43.140264208198296" lon="11.448097122128319"><ele>168.5</ele><time>2026-04-11T08:59:16Z</time></trkpt><trkpt lat="43.14019752337789" lon="11.448054204515765"><ele>168.0</ele><time>2026-04-11T08:59:17Z</time></trkpt><trkpt lat="43.1401273088414" lon="11.44801633172999"><ele>168.0</ele><time>2026-04-11T08:59:18Z</time></trkpt><trkpt lat="43.1400631370891" lon="11.447978639912906"><ele>168.0</ele><time>2026-04-11T08:59:19Z</time></trkpt><trkpt lat="43.13999903909199" lon="11.44794072333738"><ele>168.0</ele><time>2026-04-11T08:59:20Z</time></trkpt><trkpt lat="43.13992714265071" lon="11.447894126466457"><ele>168.0</ele><time>2026-04-11T08:59:21Z</time></trkpt><trkpt lat="43.13985774712631" lon="11.447838736709206"><ele>168.0</ele><time>2026-04-11T08:59:22Z</time></trkpt><trkpt lat="43.13978872611965" lon="11.447790383705993"><ele>168.0</ele><time>2026-04-11T08:59:23Z</time></trkpt><trkpt lat="43.13971143368428" lon="11.447753180711684"><ele>166.4</ele><time>2026-04-11T08:59:24Z</time></trkpt><trkpt lat="43.13962414279923" lon="11.447762010132136"><ele>164.8</ele><time>2026-04-11T08:59:25Z</time></trkpt><trkpt lat="43.13955895319042" lon="11.447796203591416"><ele>163.2</ele><time>2026-04-11T08:59:26Z</time></trkpt><trkpt lat="43.13949465729459" lon="11.447853264609886"><ele>161.6</ele><time>2026-04-11T08:59:27Z</time></trkpt><trkpt lat="43.13944078828958" lon="11.44793204889047"><ele>160.0</ele><time>2026-04-11T08:59:28Z</time></trkpt><trkpt lat="43.13933994158142" lon="11.448115856544401"><ele>160.0</ele><time>2026-04-11T08:59:30Z</time></trkpt><trkpt lat="43.13932274894319" lon="11.448266314537204"><ele>160.0</ele><time>2026-04-11T08:59:31Z</time></trkpt><trkpt lat="43.13932429669929" lon="11.448371376327843"><ele>160.0</ele><time>2026-04-11T08:59:32Z</time></trkpt><trkpt lat="43.139315975002425" lon="11.448483090438845"><ele>160.0</ele><time>2026-04-11T08:59:33Z</time></trkpt><trkpt lat="43.13931227678403" lon="11.448596964348104"><ele>160.0</ele><time>2026-04-11T08:59:34Z</time></trkpt><trkpt lat="43.13930516223658" lon="11.44871080254573"><ele>160.0</ele><time>2026-04-11T08:59:35Z</time></trkpt><trkpt lat="43.13929960127956" lon="11.448827583613"><ele>160.0</ele><time>2026-04-11T08:59:36Z</time></trkpt><trkpt lat="43.139299806973774" lon="11.448949671438118"><ele>160.0</ele><time>2026-04-11T08:59:37Z</time></trkpt><trkpt lat="43.13929880683156" lon="11.4490726548143"><ele>160.0</ele><time>2026-04-11T08:59:38Z</time></trkpt><trkpt lat="43.13929088216675" lon="11.449182770360368"><ele>160.0</ele><time>2026-04-11T08:59:39Z</time></trkpt><trkpt lat="43.139293600769314" lon="11.449309982736255"><ele>160.0</ele><time>2026-04-11T08:59:40Z</time></trkpt><trkpt lat="43.13929336008679" lon="11.44942894337009"><ele>160.0</ele><time>2026-04-11T08:59:41Z</time></trkpt><trkpt lat="43.139287305411564" lon="11.449553903200924"><ele>160.0</ele><time>2026-04-11T08:59:42Z</time></trkpt><trkpt lat="43.1392818268995" lon="11.449675928066128"><ele>160.0</ele><time>2026-04-11T08:59:43Z</time></trkpt><trkpt lat="43.13928402376177" lon="11.44979417575901"><ele>160.0</ele><time>2026-04-11T08:59:44Z</time></trkpt><trkpt lat="43.13928625090172" lon="11.449911492472422"><ele>160.0</ele><time>2026-04-11T08:59:45Z</time></trkpt><trkpt lat="43.13928680922651" lon="11.450031767423065"><ele>160.0</ele><time>2026-04-11T08:59:46Z</time></trkpt><trkpt lat="43.13928872334407" lon="11.450150319848714"><ele>160.0</ele><time>2026-04-11T08:59:47Z</time></trkpt><trkpt lat="43.139296285901715" lon="11.450270331151007"><ele>160.0</ele><time>2026-04-11T08:59:48Z</time></trkpt><trkpt lat="43.13930701226435" lon="11.45038679382896"><ele>160.0</ele><time>2026-04-11T08:59:49Z</time></trkpt><trkpt lat="43.139303878232205" lon="11.450622627426341"><ele>160.0</ele><time>2026-04-11T08:59:51Z</time></trkpt><trkpt lat="43.1392918885453" lon="11.450743771254988"><ele>160.0</ele><time>2026-04-11T08:59:52Z</time></trkpt><trkpt lat="43.13926786410655" lon="11.450858156522441"><ele>160.0</ele><time>2026-04-11T08:59:53Z</time></trkpt><trkpt lat="43.139225141305154" lon="11.450961890902706"><ele>160.33333333333334</ele><time>2026-04-11T08:59:54Z</time></trkpt><trkpt lat="43.139176645746986" lon="11.451059576746957"><ele>160.66666666666669</ele><time>2026-04-11T08:59:55Z</time></trkpt><trkpt lat="43.139129282531506" lon="11.451151614581123"><ele>161.0</ele><time>2026-04-11T08:59:56Z</time></trkpt><trkpt lat="43.13907792285184" lon="11.451237654363153"><ele>161.33333333333334</ele><time>2026-04-11T08:59:57Z</time></trkpt><trkpt lat="43.13903193461698" lon="11.451331369395206"><ele>161.66666666666666</ele><time>2026-04-11T08:59:58Z</time></trkpt><trkpt lat="43.13898933654633" lon="11.451428261482256"><ele>162.0</ele><time>2026-04-11T08:59:59Z</time></trkpt><trkpt lat="43.13894084147853" lon="11.451520956075184"><ele>160.83333333333334</ele><time>2026-04-11T09:00:00Z</time></trkpt><trkpt lat="43.13888828652963" lon="11.451614059555045"><ele>159.66666666666666</ele><time>2026-04-11T09:00:01Z</time></trkpt><trkpt lat="43.13884400884024" lon="11.451705077754177"><ele>158.5</ele><time>2026-04-11T09:00:02Z</time></trkpt><trkpt lat="43.138801845841954" lon="11.451797997730454"><ele>157.33333333333331</ele><time>2026-04-11T09:00:03Z</time></trkpt><trkpt lat="43.13874854772527" lon="11.45188765551425"><ele>156.16666666666666</ele><time>2026-04-11T09:00:04Z</time></trkpt><trkpt lat="43.138693795576174" lon="11.451973308462314"><ele>155.0</ele><time>2026-04-11T09:00:05Z</time></trkpt><trkpt lat="43.1386390943502" lon="11.452056588740133"><ele>155.8</ele><time>2026-04-11T09:00:06Z</time></trkpt><trkpt lat="43.13858410192298" lon="11.452138690666168"><ele>156.6</ele><time>2026-04-11T09:00:07Z</time></trkpt><trkpt lat="43.13852995309617" lon="11.452219148410947"><ele>157.4</ele><time>2026-04-11T09:00:08Z</time></trkpt><trkpt lat="43.1384732927789" lon="11.452296870076125"><ele>158.2</ele><time>2026-04-11T09:00:09Z</time></trkpt><trkpt lat="43.13841261672167" lon="11.452370105734271"><ele>159.0</ele><time>2026-04-11T09:00:10Z</time></trkpt><trkpt lat="43.138289471067985" lon="11.45251981965184"><ele>159.0</ele><time>2026-04-11T09:00:12Z</time></trkpt><trkpt lat="43.138229705849966" lon="11.452580996432433"><ele>159.0</ele><time>2026-04-11T09:00:13Z</time></trkpt><trkpt lat="43.138157779968736" lon="11.452647453971522"><ele>159.0</ele><time>2026-04-11T09:00:14Z</time></trkpt><trkpt lat="43.138080004838834" lon="11.452691243303859"><ele>159.0</ele><time>2026-04-11T09:00:15Z</time></trkpt><trkpt lat="43.13800694242174" lon="11.452754089185122"><ele>159.0</ele><time>2026-04-11T09:00:16Z</time></trkpt><trkpt lat="43.13792585917869" lon="11.452807228989027"><ele>159.0</ele><time>2026-04-11T09:00:17Z</time></trkpt><trkpt lat="43.13784642848161" lon="11.452850401043252"><ele>159.33333333333334</ele><time>2026-04-11T09:00:18Z</time></trkpt><trkpt lat="43.137760720119495" lon="11.452890844369364"><ele>159.66666666666666</ele><time>2026-04-11T09:00:19Z</time></trkpt><trkpt lat="43.13767725964199" lon="11.45293358298663"><ele>160.0</ele><time>2026-04-11T09:00:20Z</time></trkpt><trkpt lat="43.13759627301604" lon="11.452984486296058"><ele>160.33333333333331</ele><time>2026-04-11T09:00:21Z</time></trkpt><trkpt lat="43.13751321815082" lon="11.453016613648929"><ele>160.66666666666666</ele><time>2026-04-11T09:00:22Z</time></trkpt><trkpt lat="43.1374335886038" lon="11.453076272146884"><ele>161.0</ele><time>2026-04-11T09:00:23Z</time></trkpt><trkpt lat="43.137357806210666" lon="11.453138337385374"><ele>159.66666666666666</ele><time>2026-04-11T09:00:24Z</time></trkpt><trkpt lat="43.13728395674316" lon="11.453206140824745"><ele>158.33333333333331</ele><time>2026-04-11T09:00:25Z</time></trkpt><trkpt lat="43.137211415857834" lon="11.453277255497047"><ele>157.0</ele><time>2026-04-11T09:00:26Z</time></trkpt><trkpt lat="43.137138477406225" lon="11.453348112925063"><ele>155.66666666666666</ele><time>2026-04-11T09:00:27Z</time></trkpt><trkpt lat="43.13706748243492" lon="11.453419783468387"><ele>154.33333333333334</ele><time>2026-04-11T09:00:28Z</time></trkpt><trkpt lat="43.136996204313945" lon="11.453490331372254"><ele>153.0</ele><time>2026-04-11T09:00:29Z</time></trkpt><trkpt lat="43.13692897449624" lon="11.453560139858343"><ele>153.0</ele><time>2026-04-11T09:00:30Z</time></trkpt><trkpt lat="43.13686022334184" lon="11.45362806351143"><ele>153.0</ele><time>2026-04-11T09:00:31Z</time></trkpt><trkpt lat="43.13672760882868" lon="11.453768764730661"><ele>153.0</ele><time>2026-04-11T09:00:33Z</time></trkpt><trkpt lat="43.136667619161834" lon="11.453846642703637"><ele>153.0</ele><time>2026-04-11T09:00:34Z</time></trkpt><trkpt lat="43.13660158648278" lon="11.4539238666905"><ele>153.0</ele><time>2026-04-11T09:00:35Z</time></trkpt><trkpt lat="43.1365410194608" lon="11.454013675147394"><ele>152.66666666666666</ele><time>2026-04-11T09:00:36Z</time></trkpt><trkpt lat="43.13648552789528" lon="11.454095581217834"><ele>152.33333333333334</ele><time>2026-04-11T09:00:37Z</time></trkpt><trkpt lat="43.13642882249404" lon="11.454182612209511"><ele>152.0</ele><time>2026-04-11T09:00:38Z</time></trkpt><trkpt lat="43.13637713527094" lon="11.454275708915496"><ele>151.66666666666669</ele><time>2026-04-11T09:00:39Z</time></trkpt><trkpt lat="43.13633083253436" lon="11.45437045184487"><ele>151.33333333333334</ele><time>2026-04-11T09:00:40Z</time></trkpt><trkpt lat="43.13627690625077" lon="11.454457988898184"><ele>151.0</ele><time>2026-04-11T09:00:41Z</time></trkpt><trkpt lat="43.136227343593305" lon="11.454551630702976"><ele>151.83333333333334</ele><time>2026-04-11T09:00:42Z</time></trkpt><trkpt lat="43.136182352240745" lon="11.454643901919596"><ele>152.66666666666669</ele><time>2026-04-11T09:00:43Z</time></trkpt><trkpt lat="43.13613994925177" lon="11.454740547348543"><ele>153.5</ele><time>2026-04-11T09:00:44Z</time></trkpt><trkpt lat="43.13609961710671" lon="11.454842907939362"><ele>154.33333333333334</ele><time>2026-04-11T09:00:45Z</time></trkpt><trkpt lat="43.13605742355346" lon="11.45494225420541"><ele>155.16666666666666</ele><time>2026-04-11T09:00:46Z</time></trkpt><trkpt lat="43.136013149685105" lon="11.45503537170427"><ele>156.0</ele><time>2026-04-11T09:00:47Z</time></trkpt><trkpt lat="43.13597198983778" lon="11.455127906459095"><ele>156.0</ele><time>2026-04-11T09:00:48Z</time></trkpt><trkpt lat="43.13592618375099" lon="11.455224522082313"><ele>156.0</ele><time>2026-04-11T09:00:49Z</time></trkpt><trkpt lat="43.13588004441246" lon="11.455318785102442"><ele>156.0</ele><time>2026-04-11T09:00:50Z</time></trkpt><trkpt lat="43.13582487925655" lon="11.455404958304984"><ele>156.0</ele><time>2026-04-11T09:00:51Z</time></trkpt><trkpt lat="43.13577234990976" lon="11.45549229238065"><ele>156.0</ele><time>2026-04-11T09:00:52Z</time></trkpt><trkpt lat="43.13565501291641" lon="11.455644181364002"><ele>155.33333333333334</ele><time>2026-04-11T09:00:54Z</time></trkpt><trkpt lat="43.135593219896805" lon="11.455707506212663"><ele>154.66666666666666</ele><time>2026-04-11T09:00:55Z</time></trkpt><trkpt lat="43.13553014364092" lon="11.455768440955366"><ele>154.0</ele><time>2026-04-11T09:00:56Z</time></trkpt><trkpt lat="43.135465764191636" lon="11.455828071183358"><ele>153.33333333333331</ele><time>2026-04-11T09:00:57Z</time></trkpt><trkpt lat="43.13540675559609" lon="11.455897675539553"><ele>152.66666666666666</ele><time>2026-04-11T09:00:58Z</time></trkpt><trkpt lat="43.13534515745378" lon="11.455962749672468"><ele>152.0</ele><time>2026-04-11T09:00:59Z</time></trkpt><trkpt lat="43.13528110325884" lon="11.456023424364433"><ele>152.0</ele><time>2026-04-11T09:01:00Z</time></trkpt><trkpt lat="43.13521544026864" lon="11.456086458150228"><ele>152.0</ele><time>2026-04-11T09:01:01Z</time></trkpt><trkpt lat="43.13515213778771" lon="11.456149021600142"><ele>152.0</ele><time>2026-04-11T09:01:02Z</time></trkpt><trkpt lat="43.135087000504015" lon="11.456210407288891"><ele>152.0</ele><time>2026-04-11T09:01:03Z</time></trkpt><trkpt lat="43.13502592414127" lon="11.456275517761526"><ele>152.0</ele><time>2026-04-11T09:01:04Z</time></trkpt><trkpt lat="43.13496317802716" lon="11.456342596855919"><ele>152.0</ele><time>2026-04-11T09:01:05Z</time></trkpt><trkpt lat="43.13490343308422" lon="11.45641102581698"><ele>152.0</ele><time>2026-04-11T09:01:06Z</time></trkpt><trkpt lat="43.13483719123968" lon="11.456474946812408"><ele>152.0</ele><time>2026-04-11T09:01:07Z</time></trkpt><trkpt lat="43.134772348887196" lon="11.456533908013823"><ele>152.0</ele><time>2026-04-11T09:01:08Z</time></trkpt><trkpt lat="43.134707420468175" lon="11.45660324224713"><ele>152.0</ele><time>2026-04-11T09:01:09Z</time></trkpt><trkpt lat="43.13464423012481" lon="11.456670700499068"><ele>152.0</ele><time>2026-04-11T09:01:10Z</time></trkpt><trkpt lat="43.1345770752214" lon="11.456733818693627"><ele>152.0</ele><time>2026-04-11T09:01:11Z</time></trkpt><trkpt lat="43.13451298908037" lon="11.456799535825436"><ele>152.0</ele><time>2026-04-11T09:01:12Z</time></trkpt><trkpt lat="43.13444894628002" lon="11.45686318363725"><ele>152.0</ele><time>2026-04-11T09:01:13Z</time></trkpt><trkpt lat="43.13431646927923" lon="11.456989407573536"><ele>152.0</ele><time>2026-04-11T09:01:15Z</time></trkpt><trkpt lat="43.134255984210675" lon="11.457058838791445"><ele>152.0</ele><time>2026-04-11T09:01:16Z</time></trkpt><trkpt lat="43.13419004710907" lon="11.457126448448523"><ele>152.0</ele><time>2026-04-11T09:01:17Z</time></trkpt><trkpt lat="43.13412288065128" lon="11.45718706592843"><ele>151.66666666666666</ele><time>2026-04-11T09:01:18Z</time></trkpt><trkpt lat="43.134057530814935" lon="11.457254173197605"><ele>151.33333333333331</ele><time>2026-04-11T09:01:19Z</time></trkpt><trkpt lat="43.1339925826867" lon="11.45732228130761"><ele>151.0</ele><time>2026-04-11T09:01:20Z</time></trkpt><trkpt lat="43.133925119310916" lon="11.45738858761338"><ele>150.66666666666666</ele><time>2026-04-11T09:01:21Z</time></trkpt><trkpt lat="43.13385744513044" lon="11.457452454388363"><ele>150.33333333333334</ele><time>2026-04-11T09:01:22Z</time></trkpt><trkpt lat="43.13378973158644" lon="11.45751902713015"><ele>150.0</ele><time>2026-04-11T09:01:23Z</time></trkpt><trkpt lat="43.13372350856586" lon="11.457585568390668"><ele>150.0</ele><time>2026-04-11T09:01:24Z</time></trkpt><trkpt lat="43.133655410170036" lon="11.457647126591203"><ele>150.0</ele><time>2026-04-11T09:01:25Z</time></trkpt><trkpt lat="43.13358802258744" lon="11.457708642768905"><ele>150.0</ele><time>2026-04-11T09:01:26Z</time></trkpt><trkpt lat="43.13351889035473" lon="11.457765663469047"><ele>150.0</ele><time>2026-04-11T09:01:27Z</time></trkpt><trkpt lat="43.133451536871384" lon="11.45781981394821"><ele>150.0</ele><time>2026-04-11T09:01:28Z</time></trkpt><trkpt lat="43.13338231681223" lon="11.45787597130666"><ele>150.0</ele><time>2026-04-11T09:01:29Z</time></trkpt><trkpt lat="43.133317901360556" lon="11.457940916998417"><ele>149.4</ele><time>2026-04-11T09:01:30Z</time></trkpt><trkpt lat="43.133252443087805" lon="11.45800377402421"><ele>148.8</ele><time>2026-04-11T09:01:31Z</time></trkpt><trkpt lat="43.13318883745114" lon="11.458066370894008"><ele>148.2</ele><time>2026-04-11T09:01:32Z</time></trkpt><trkpt lat="43.13312201886826" lon="11.458131808647677"><ele>147.6</ele><time>2026-04-11T09:01:33Z</time></trkpt><trkpt lat="43.13307448362666" lon="11.458226952475618"><ele>147.0</ele><time>2026-04-11T09:01:34Z</time></trkpt><trkpt lat="43.13295078195765" lon="11.458365478862532"><ele>147.0</ele><time>2026-04-11T09:01:36Z</time></trkpt><trkpt lat="43.132887323440556" lon="11.4584396244201"><ele>147.0</ele><time>2026-04-11T09:01:37Z</time></trkpt><trkpt lat="43.13282456569964" lon="11.458513001946601"><ele>147.0</ele><time>2026-04-11T09:01:38Z</time></trkpt><trkpt lat="43.13276712502054" lon="11.458591078148364"><ele>147.0</ele><time>2026-04-11T09:01:39Z</time></trkpt><trkpt lat="43.13270509934722" lon="11.458649709871567"><ele>147.0</ele><time>2026-04-11T09:01:40Z</time></trkpt><trkpt lat="43.13265579052317" lon="11.458743318111438"><ele>147.0</ele><time>2026-04-11T09:01:41Z</time></trkpt><trkpt lat="43.132604603782376" lon="11.458833669896695"><ele>148.0</ele><time>2026-04-11T09:01:42Z</time></trkpt><trkpt lat="43.13255812810509" lon="11.45897405583872"><ele>149.0</ele><time>2026-04-11T09:01:43Z</time></trkpt><trkpt lat="43.132522144132786" lon="11.459075899816181"><ele>150.0</ele><time>2026-04-11T09:01:44Z</time></trkpt><trkpt lat="43.13247303084222" lon="11.45924244758025"><ele>151.0</ele><time>2026-04-11T09:01:46Z</time></trkpt><trkpt lat="43.1324528773736" lon="11.459327764244458"><ele>152.0</ele><time>2026-04-11T09:01:47Z</time></trkpt><trkpt lat="43.13244260326359" lon="11.459414284513947"><ele>152.0</ele><time>2026-04-11T09:01:48Z</time></trkpt><trkpt lat="43.13242236582318" lon="11.459496845951334"><ele>152.0</ele><time>2026-04-11T09:01:49Z</time></trkpt><trkpt lat="43.1324111565975" lon="11.459609470181706"><ele>152.0</ele><time>2026-04-11T09:01:50Z</time></trkpt><trkpt lat="43.13238753126294" lon="11.459700781497986"><ele>152.0</ele><time>2026-04-11T09:01:51Z</time></trkpt><trkpt lat="43.13236482228376" lon="11.459783206951816"><ele>152.0</ele><time>2026-04-11T09:01:52Z</time></trkpt><trkpt lat="43.132337080943955" lon="11.459889374105693"><ele>152.0</ele><time>2026-04-11T09:01:53Z</time></trkpt><trkpt lat="43.132327957414205" lon="11.459978939070403"><ele>152.0</ele><time>2026-04-11T09:01:54Z</time></trkpt><trkpt lat="43.132290789435714" lon="11.460076163901924"><ele>150.5</ele><time>2026-04-11T09:01:55Z</time></trkpt><trkpt lat="43.132225576915246" lon="11.460318825371159"><ele>149.0</ele><time>2026-04-11T09:01:58Z</time></trkpt><trkpt lat="43.13219112944214" lon="11.46044975259505"><ele>147.5</ele><time>2026-04-11T09:02:00Z</time></trkpt><trkpt lat="43.13216378092148" lon="11.460533715148822"><ele>146.0</ele><time>2026-04-11T09:02:01Z</time></trkpt><trkpt lat="43.13214067949122" lon="11.460682942016945"><ele>146.0</ele><time>2026-04-11T09:02:03Z</time></trkpt><trkpt lat="43.13211750552837" lon="11.460765243871112"><ele>146.0</ele><time>2026-04-11T09:02:04Z</time></trkpt><trkpt lat="43.132108923079" lon="11.460850985342418"><ele>146.0</ele><time>2026-04-11T09:02:05Z</time></trkpt><trkpt lat="43.13210953481958" lon="11.46093800650509"><ele>146.0</ele><time>2026-04-11T09:02:06Z</time></trkpt><trkpt lat="43.13211597502065" lon="11.461029363996968"><ele>146.0</ele><time>2026-04-11T09:02:07Z</time></trkpt><trkpt lat="43.132124128070465" lon="11.461128061817712"><ele>146.0</ele><time>2026-04-11T09:02:08Z</time></trkpt><trkpt lat="43.13213415365212" lon="11.461227393939364"><ele>146.0</ele><time>2026-04-11T09:02:09Z</time></trkpt><trkpt lat="43.13214024134817" lon="11.461331468848089"><ele>146.0</ele><time>2026-04-11T09:02:10Z</time></trkpt><trkpt lat="43.132141511319915" lon="11.461442072837794"><ele>146.0</ele><time>2026-04-11T09:02:11Z</time></trkpt><trkpt lat="43.132171289532444" lon="11.461537523312316"><ele>146.0</ele><time>2026-04-11T09:02:12Z</time></trkpt><trkpt lat="43.13218704797266" lon="11.461627196242691"><ele>146.0</ele><time>2026-04-11T09:02:13Z</time></trkpt><trkpt lat="43.13217584407035" lon="11.461757871699254"><ele>146.0</ele><time>2026-04-11T09:02:15Z</time></trkpt><trkpt lat="43.132149494172666" lon="11.461858743964003"><ele>146.0</ele><time>2026-04-11T09:02:17Z</time></trkpt><trkpt lat="43.132022497111706" lon="11.461791296166492"><ele>146.0</ele><time>2026-04-11T09:02:21Z</time></trkpt><trkpt lat="43.13197445588948" lon="11.461667688128287"><ele>146.0</ele><time>2026-04-11T09:02:23Z</time></trkpt><trkpt lat="43.1318854245166" lon="11.46157485983723"><ele>146.0</ele><time>2026-04-11T09:02:25Z</time></trkpt><trkpt lat="43.13176902873572" lon="11.461535542896458"><ele>146.0</ele><time>2026-04-11T09:02:27Z</time></trkpt><trkpt lat="43.13163692095913" lon="11.461534208017103"><ele>146.0</ele><time>2026-04-11T09:02:29Z</time></trkpt><trkpt lat="43.13156381680665" lon="11.46152220065126"><ele>146.0</ele><time>2026-04-11T09:02:30Z</time></trkpt><trkpt lat="43.13148885094653" lon="11.461494675219615"><ele>146.0</ele><time>2026-04-11T09:02:31Z</time></trkpt><trkpt lat="43.13140510189905" lon="11.461458614732782"><ele>146.0</ele><time>2026-04-11T09:02:32Z</time></trkpt><trkpt lat="43.131333179823955" lon="11.461397943405593"><ele>146.0</ele><time>2026-04-11T09:02:33Z</time></trkpt><trkpt lat="43.131272642315814" lon="11.461313429886722"><ele>146.0</ele><time>2026-04-11T09:02:34Z</time></trkpt><trkpt lat="43.13122483539337" lon="11.461213025719575"><ele>145.4</ele><time>2026-04-11T09:02:35Z</time></trkpt><trkpt lat="43.131180370546" lon="11.46111807780164"><ele>144.8</ele><time>2026-04-11T09:02:36Z</time></trkpt><trkpt lat="43.131135581799235" lon="11.461031168592282"><ele>144.20000000000002</ele><time>2026-04-11T09:02:37Z</time></trkpt><trkpt lat="43.13108919579172" lon="11.460950379400694"><ele>143.6</ele><time>2026-04-11T09:02:38Z</time></trkpt><trkpt lat="43.13097218370448" lon="11.460825124199484"><ele>143.0</ele><time>2026-04-11T09:02:40Z</time></trkpt><trkpt lat="43.130903581545326" lon="11.460789511055086"><ele>142.99999999999997</ele><time>2026-04-11T09:02:41Z</time></trkpt><trkpt lat="43.13083232590534" lon="11.460773936633393"><ele>143.0</ele><time>2026-04-11T09:02:42Z</time></trkpt><trkpt lat="43.13075870834424" lon="11.460769550996256"><ele>143.0</ele><time>2026-04-11T09:02:43Z</time></trkpt><trkpt lat="43.130689904382955" lon="11.460761596363621"><ele>143.0</ele><time>2026-04-11T09:02:44Z</time></trkpt><trkpt lat="43.130617575356055" lon="11.46073104442618"><ele>143.0</ele><time>2026-04-11T09:02:45Z</time></trkpt><trkpt lat="43.13055439015304" lon="11.460689325066973"><ele>142.99999999999997</ele><time>2026-04-11T09:02:46Z</time></trkpt><trkpt lat="43.13050805502902" lon="11.460623767874955"><ele>143.0</ele><time>2026-04-11T09:02:47Z</time></trkpt><trkpt lat="43.130472992224796" lon="11.46055056819521"><ele>142.83333333333331</ele><time>2026-04-11T09:02:48Z</time></trkpt><trkpt lat="43.130440584151515" lon="11.460476582408983"><ele>142.66666666666666</ele><time>2026-04-11T09:02:49Z</time></trkpt><trkpt lat="43.130408385576445" lon="11.460312721709828"><ele>142.5</ele><time>2026-04-11T09:02:51Z</time></trkpt><trkpt lat="43.13038969511681" lon="11.460224861803098"><ele>142.33333333333334</ele><time>2026-04-11T09:02:52Z</time></trkpt><trkpt lat="43.130356236285905" lon="11.460056635821305"><ele>142.16666666666669</ele><time>2026-04-11T09:02:54Z</time></trkpt><trkpt lat="43.13034055170482" lon="11.459972114561573"><ele>142.0</ele><time>2026-04-11T09:02:55Z</time></trkpt><trkpt lat="43.13031713279353" lon="11.45988557526468"><ele>142.4</ele><time>2026-04-11T09:02:56Z</time></trkpt><trkpt lat="43.130300408356824" lon="11.459800162881288"><ele>142.79999999999998</ele><time>2026-04-11T09:02:57Z</time></trkpt><trkpt lat="43.130284614582834" lon="11.459712435383112"><ele>143.2</ele><time>2026-04-11T09:02:58Z</time></trkpt><trkpt lat="43.13026304640108" lon="11.459626083430118"><ele>143.6</ele><time>2026-04-11T09:02:59Z</time></trkpt><trkpt lat="43.13021941650587" lon="11.459367802945751"><ele>144.0</ele><time>2026-04-11T09:03:02Z</time></trkpt><trkpt lat="43.13017237690843" lon="11.459226651215333"><ele>144.2</ele><time>2026-04-11T09:03:04Z</time></trkpt><trkpt lat="43.130153550189796" lon="11.459082930201726"><ele>144.4</ele><time>2026-04-11T09:03:06Z</time></trkpt><trkpt lat="43.13013105205739" lon="11.458950641040854"><ele>144.6</ele><time>2026-04-11T09:03:08Z</time></trkpt><trkpt lat="43.13010035120473" lon="11.458827885234093"><ele>144.8</ele><time>2026-04-11T09:03:10Z</time></trkpt><trkpt lat="43.13007447804198" lon="11.458711166083777"><ele>145.0</ele><time>2026-04-11T09:03:12Z</time></trkpt><trkpt lat="43.1300547168509" lon="11.458607314617057"><ele>146.0</ele><time>2026-04-11T09:03:14Z</time></trkpt><trkpt lat="43.13002656412374" lon="11.458517652457775"><ele>147.0</ele><time>2026-04-11T09:03:16Z</time></trkpt><trkpt lat="43.13001986181828" lon="11.458404922920499"><ele>148.0</ele><time>2026-04-11T09:03:19Z</time></trkpt><trkpt lat="43.13003223065742" lon="11.458307115127266"><ele>149.0</ele><time>2026-04-11T09:03:22Z</time></trkpt><trkpt lat="43.12996175610563" lon="11.458143107405396"><ele>150.0</ele><time>2026-04-11T09:03:28Z</time></trkpt><trkpt lat="43.12993104319355" lon="11.458040401301366"><ele>151.0</ele><time>2026-04-11T09:03:31Z</time></trkpt><trkpt lat="43.129886637686006" lon="11.457954088714397"><ele>152.66666666666669</ele><time>2026-04-11T09:03:34Z</time></trkpt><trkpt lat="43.12984409744675" lon="11.457884025854632"><ele>154.33333333333334</ele><time>2026-04-11T09:03:37Z</time></trkpt><trkpt lat="43.129806691414686" lon="11.457812281653364"><ele>156.0</ele><time>2026-04-11T09:03:40Z</time></trkpt><trkpt lat="43.129760290774485" lon="11.457744002292833"><ele>157.66666666666666</ele><time>2026-04-11T09:03:43Z</time></trkpt><trkpt lat="43.12966083930921" lon="11.457585557165803"><ele>159.33333333333331</ele><time>2026-04-11T09:03:50Z</time></trkpt><trkpt lat="43.12962194387995" lon="11.45751006854038"><ele>161.0</ele><time>2026-04-11T09:03:53Z</time></trkpt><trkpt lat="43.12958361224647" lon="11.457438596911652"><ele>161.0</ele><time>2026-04-11T09:03:56Z</time></trkpt><trkpt lat="43.129545418544566" lon="11.457367800860283"><ele>161.0</ele><time>2026-04-11T09:03:59Z</time></trkpt><trkpt lat="43.129503879615875" lon="11.457300525680322"><ele>161.0</ele><time>2026-04-11T09:04:03Z</time></trkpt><trkpt lat="43.12945224790866" lon="11.45723371034542"><ele>161.0</ele><time>2026-04-11T09:04:06Z</time></trkpt><trkpt lat="43.129379838730486" lon="11.457062385465953"><ele>161.0</ele><time>2026-04-11T09:04:13Z</time></trkpt><trkpt lat="43.129308980603554" lon="11.457011528998676"><ele>161.0</ele><time>2026-04-11T09:04:16Z</time></trkpt><trkpt lat="43.129307645344255" lon="11.456919109213148"><ele>161.33333333333331</ele><time>2026-04-11T09:04:19Z</time></trkpt><trkpt lat="43.12925593063647" lon="11.456836794162705"><ele>161.66666666666666</ele><time>2026-04-11T09:04:22Z</time></trkpt><trkpt lat="43.12921322666019" lon="11.456757230272839"><ele>162.0</ele><time>2026-04-11T09:04:25Z</time></trkpt><trkpt lat="43.12917095041509" lon="11.456682720645269"><ele>162.33333333333334</ele><time>2026-04-11T09:04:28Z</time></trkpt><trkpt lat="43.12908004621913" lon="11.456535197744884"><ele>162.66666666666669</ele><time>2026-04-11T09:04:34Z</time></trkpt><trkpt lat="43.12903288068444" lon="11.456445582586216"><ele>163.0</ele><time>2026-04-11T09:04:38Z</time></trkpt><trkpt lat="43.12898389428228" lon="11.456362000322049"><ele>165.0</ele><time>2026-04-11T09:04:42Z</time></trkpt><trkpt lat="43.12893044149541" lon="11.456280393418794"><ele>167.0</ele><time>2026-04-11T09:04:46Z</time></trkpt><trkpt lat="43.12889161888833" lon="11.456203122644734"><ele>169.0</ele><time>2026-04-11T09:04:50Z</time></trkpt><trkpt lat="43.128798066962" lon="11.456050049759442"><ele>171.0</ele><time>2026-04-11T09:04:58Z</time></trkpt><trkpt lat="43.128758922454644" lon="11.455957309213641"><ele>173.0</ele><time>2026-04-11T09:05:02Z</time></trkpt><trkpt lat="43.12871241384638" lon="11.455879976995897"><ele>175.0</ele><time>2026-04-11T09:05:06Z</time></trkpt><trkpt lat="43.12866432660132" lon="11.45580195790577"><ele>175.0</ele><time>2026-04-11T09:05:10Z</time></trkpt><trkpt lat="43.128620346399735" lon="11.455730940696617"><ele>175.0</ele><time>2026-04-11T09:05:14Z</time></trkpt><trkpt lat="43.12852173979085" lon="11.455574183948459"><ele>175.0</ele><time>2026-04-11T09:05:22Z</time></trkpt><trkpt lat="43.128461717965756" lon="11.455513699083088"><ele>175.0</ele><time>2026-04-11T09:05:27Z</time></trkpt><trkpt lat="43.128407772086426" lon="11.455463063439245"><ele>175.0</ele><time>2026-04-11T09:05:30Z</time></trkpt><trkpt lat="43.12835333204294" lon="11.455407499567132"><ele>175.0</ele><time>2026-04-11T09:05:34Z</time></trkpt><trkpt lat="43.12828203667586" lon="11.455366565079027"><ele>178.0</ele><time>2026-04-11T09:05:38Z</time></trkpt><trkpt lat="43.12813770192581" lon="11.455336662496897"><ele>181.0</ele><time>2026-04-11T09:05:46Z</time></trkpt><trkpt lat="43.12807218259478" lon="11.455298248643308"><ele>184.0</ele><time>2026-04-11T09:05:50Z</time></trkpt><trkpt lat="43.128001181382125" lon="11.455270825884744"><ele>187.0</ele><time>2026-04-11T09:05:54Z</time></trkpt><trkpt lat="43.1279309080709" lon="11.455234487544848"><ele>189.99999999999997</ele><time>2026-04-11T09:05:58Z</time></trkpt><trkpt lat="43.127861690766004" lon="11.455194914653125"><ele>193.0</ele><time>2026-04-11T09:06:02Z</time></trkpt><trkpt lat="43.12773878704957" lon="11.455132761768336"><ele>192.99999999999997</ele><time>2026-04-11T09:06:10Z</time></trkpt><trkpt lat="43.127678235430444" lon="11.455106135722994"><ele>193.0</ele><time>2026-04-11T09:06:14Z</time></trkpt><trkpt lat="43.127617708316464" lon="11.455080367540647"><ele>193.0</ele><time>2026-04-11T09:06:18Z</time></trkpt><trkpt lat="43.12754463424515" lon="11.455056554516869"><ele>193.0</ele><time>2026-04-11T09:06:23Z</time></trkpt><trkpt lat="43.12743367825297" lon="11.454973374039048"><ele>192.99999999999997</ele><time>2026-04-11T09:06:31Z</time></trkpt><trkpt lat="43.12736995619495" lon="11.454954364045197"><ele>193.0</ele><time>2026-04-11T09:06:35Z</time></trkpt><trkpt lat="43.12730510902246" lon="11.454913608570521"><ele>194.83333333333331</ele><time>2026-04-11T09:06:39Z</time></trkpt><trkpt lat="43.12725264588068" lon="11.454860181191526"><ele>196.66666666666666</ele><time>2026-04-11T09:06:44Z</time></trkpt><trkpt lat="43.12712582009176" lon="11.454739500398496"><ele>198.5</ele><time>2026-04-11T09:06:54Z</time></trkpt><trkpt lat="43.127066003796706" lon="11.454681433054214"><ele>200.33333333333331</ele><time>2026-04-11T09:06:58Z</time></trkpt><trkpt lat="43.12703022078736" lon="11.45460020246232"><ele>202.16666666666666</ele><time>2026-04-11T09:07:02Z</time></trkpt><trkpt lat="43.126988997436285" lon="11.454526102025959"><ele>204.0</ele><time>2026-04-11T09:07:06Z</time></trkpt><trkpt lat="43.12691926152107" lon="11.454368218112625"><ele>205.5</ele><time>2026-04-11T09:07:14Z</time></trkpt><trkpt lat="43.12688354845258" lon="11.454293145882797"><ele>207.0</ele><time>2026-04-11T09:07:18Z</time></trkpt><trkpt lat="43.1268539176571" lon="11.454213326124401"><ele>208.5</ele><time>2026-04-11T09:07:22Z</time></trkpt><trkpt lat="43.12683596054074" lon="11.45412283286162"><ele>210.0</ele><time>2026-04-11T09:07:26Z</time></trkpt><trkpt lat="43.12682356945954" lon="11.454030879078482"><ele>211.5</ele><time>2026-04-11T09:07:30Z</time></trkpt><trkpt lat="43.126804934123186" lon="11.45384334993382"><ele>213.0</ele><time>2026-04-11T09:07:38Z</time></trkpt><trkpt lat="43.12680750565416" lon="11.453750730185584"><ele>214.0</ele><time>2026-04-11T09:07:42Z</time></trkpt><trkpt lat="43.126789904136444" lon="11.453662952000295"><ele>215.0</ele><time>2026-04-11T09:07:46Z</time></trkpt><trkpt lat="43.12680076906545" lon="11.453562608382471"><ele>216.0</ele><time>2026-04-11T09:07:50Z</time></trkpt><trkpt lat="43.12679628542654" lon="11.453466490026676"><ele>217.0</ele><time>2026-04-11T09:07:54Z</time></trkpt><trkpt lat="43.12678864184908" lon="11.453283953042398"><ele>218.0</ele><time>2026-04-11T09:08:02Z</time></trkpt><trkpt lat="43.12678823905467" lon="11.453183563089294"><ele>219.0</ele><time>2026-04-11T09:08:06Z</time></trkpt><trkpt lat="43.12678813280172" lon="11.453087612605367"><ele>219.0</ele><time>2026-04-11T09:08:10Z</time></trkpt><trkpt lat="43.12678241974605" lon="11.45298981680103"><ele>219.0</ele><time>2026-04-11T09:08:14Z</time></trkpt><trkpt lat="43.12678591951178" lon="11.452893002323714"><ele>219.0</ele><time>2026-04-11T09:08:18Z</time></trkpt><trkpt lat="43.12678600552391" lon="11.452701693565219"><ele>219.0</ele><time>2026-04-11T09:08:25Z</time></trkpt><trkpt lat="43.12680239585834" lon="11.45260287790739"><ele>219.0</ele><time>2026-04-11T09:08:28Z</time></trkpt><trkpt lat="43.12679728509083" lon="11.452492594657063"><ele>219.0</ele><time>2026-04-11T09:08:31Z</time></trkpt><trkpt lat="43.12679603715149" lon="11.45237046706099"><ele>219.6</ele><time>2026-04-11T09:08:34Z</time></trkpt><trkpt lat="43.126783652459416" lon="11.452245654664877"><ele>220.2</ele><time>2026-04-11T09:08:37Z</time></trkpt><trkpt lat="43.12678522989754" lon="11.45212673034441"><ele>220.79999999999998</ele><time>2026-04-11T09:08:40Z</time></trkpt><trkpt lat="43.12675926786655" lon="11.451894101672368"><ele>221.39999999999998</ele><time>2026-04-11T09:08:46Z</time></trkpt><trkpt lat="43.12674694349812" lon="11.451776507784066"><ele>222.0</ele><time>2026-04-11T09:08:49Z</time></trkpt><trkpt lat="43.126742320586246" lon="11.451659966185632"><ele>222.6</ele><time>2026-04-11T09:08:52Z</time></trkpt><trkpt lat="43.12672367099055" lon="11.451541659840066"><ele>223.2</ele><time>2026-04-11T09:08:55Z</time></trkpt><trkpt lat="43.12670716222333" lon="11.45142789139334"><ele>223.8</ele><time>2026-04-11T09:08:58Z</time></trkpt><trkpt lat="43.12668977025982" lon="11.451305122551691"><ele>224.4</ele><time>2026-04-11T09:09:01Z</time></trkpt><trkpt lat="43.126629138002194" lon="11.45108360730777"><ele>225.0</ele><time>2026-04-11T09:09:07Z</time></trkpt><trkpt lat="43.12661377293708" lon="11.450997672918922"><ele>225.0</ele><time>2026-04-11T09:09:10Z</time></trkpt><trkpt lat="43.12657584005605" lon="11.45087813149772"><ele>225.0</ele><time>2026-04-11T09:09:14Z</time></trkpt><trkpt lat="43.12654527307014" lon="11.450797224846779"><ele>225.0</ele><time>2026-04-11T09:09:16Z</time></trkpt><trkpt lat="43.12651837425513" lon="11.450700631301718"><ele>225.0</ele><time>2026-04-11T09:09:19Z</time></trkpt><trkpt lat="43.12648648122519" lon="11.450604682142705"><ele>225.0</ele><time>2026-04-11T09:09:22Z</time></trkpt><trkpt lat="43.12642909480492" lon="11.450422051718562"><ele>226.0</ele><time>2026-04-11T09:09:28Z</time></trkpt><trkpt lat="43.1264021802601" lon="11.450325216937975"><ele>227.0</ele><time>2026-04-11T09:09:31Z</time></trkpt><trkpt lat="43.12636097365603" lon="11.450233156072446"><ele>228.0</ele><time>2026-04-11T09:09:34Z</time></trkpt><trkpt lat="43.12633443776387" lon="11.450148411926827"><ele>229.0</ele><time>2026-04-11T09:09:37Z</time></trkpt><trkpt lat="43.12631507782981" lon="11.450055377598575"><ele>230.0</ele><time>2026-04-11T09:09:40Z</time></trkpt><trkpt lat="43.12628047779185" lon="11.449960268799733"><ele>231.0</ele><time>2026-04-11T09:09:43Z</time></trkpt><trkpt lat="43.1262488466411" lon="11.4497672789755"><ele>231.0</ele><time>2026-04-11T09:09:48Z</time></trkpt><trkpt lat="43.126222548732294" lon="11.449660170991663"><ele>231.0</ele><time>2026-04-11T09:09:52Z</time></trkpt><trkpt lat="43.126190747376704" lon="11.449564134688394"><ele>231.0</ele><time>2026-04-11T09:09:55Z</time></trkpt><trkpt lat="43.12614499778577" lon="11.449462718669727"><ele>231.0</ele><time>2026-04-11T09:09:59Z</time></trkpt><trkpt lat="43.12609559381915" lon="11.449391745031505"><ele>231.0</ele><time>2026-04-11T09:10:03Z</time></trkpt><trkpt lat="43.12602750799522" lon="11.449326690939637"><ele>231.0</ele><time>2026-04-11T09:10:06Z</time></trkpt><trkpt lat="43.12589501716245" lon="11.449220421169908"><ele>232.14285714285714</ele><time>2026-04-11T09:10:12Z</time></trkpt><trkpt lat="43.12583589183896" lon="11.449174721406846"><ele>233.28571428571428</ele><time>2026-04-11T09:10:14Z</time></trkpt><trkpt lat="43.1257787895214" lon="11.449133395257087"><ele>234.42857142857144</ele><time>2026-04-11T09:10:16Z</time></trkpt><trkpt lat="43.125690693026115" lon="11.449094115690489"><ele>235.57142857142858</ele><time>2026-04-11T09:10:19Z</time></trkpt><trkpt lat="43.12562684076539" lon="11.44906575155844"><ele>236.71428571428572</ele><time>2026-04-11T09:10:21Z</time></trkpt><trkpt lat="43.125551640762126" lon="11.44904717756806"><ele>237.8571428571429</ele><time>2026-04-11T09:10:23Z</time></trkpt><trkpt lat="43.125475653500764" lon="11.449023225881671"><ele>239.00000000000003</ele><time>2026-04-11T09:10:25Z</time></trkpt><trkpt lat="43.12539250775133" lon="11.44899167578969"><ele>239.0</ele><time>2026-04-11T09:10:27Z</time></trkpt><trkpt lat="43.12523296119562" lon="11.448931354043784"><ele>238.99999999999997</ele><time>2026-04-11T09:10:31Z</time></trkpt><trkpt lat="43.12514420318324" lon="11.4488992567831"><ele>238.99999999999997</ele><time>2026-04-11T09:10:33Z</time></trkpt><trkpt lat="43.12506803332076" lon="11.44883124546611"><ele>239.0</ele><time>2026-04-11T09:10:35Z</time></trkpt><trkpt lat="43.124980757478056" lon="11.448784820482073"><ele>239.0</ele><time>2026-04-11T09:10:37Z</time></trkpt><trkpt lat="43.12489715623592" lon="11.448714928849483"><ele>239.2</ele><time>2026-04-11T09:10:39Z</time></trkpt><trkpt lat="43.12482843391498" lon="11.448700552447372"><ele>239.39999999999998</ele><time>2026-04-11T09:10:42Z</time></trkpt><trkpt lat="43.124759784634335" lon="11.448726268463536"><ele>239.6</ele><time>2026-04-11T09:10:44Z</time></trkpt><trkpt lat="43.124686895332395" lon="11.44872612824716"><ele>239.8</ele><time>2026-04-11T09:10:46Z</time></trkpt><trkpt lat="43.124604530997324" lon="11.448781617190003"><ele>240.0</ele><time>2026-04-11T09:10:48Z</time></trkpt><trkpt lat="43.12448390172829" lon="11.448944744968395"><ele>239.5</ele><time>2026-04-11T09:10:51Z</time></trkpt><trkpt lat="43.12443863876804" lon="11.44901125329946"><ele>239.0</ele><time>2026-04-11T09:10:52Z</time></trkpt><trkpt lat="43.12439207153434" lon="11.449088693295591"><ele>238.5</ele><time>2026-04-11T09:10:53Z</time></trkpt><trkpt lat="43.12433170568265" lon="11.4491492451056"><ele>238.0</ele><time>2026-04-11T09:10:54Z</time></trkpt><trkpt lat="43.12426321916169" lon="11.449202652115334"><ele>237.5</ele><time>2026-04-11T09:10:55Z</time></trkpt><trkpt lat="43.124132920752515" lon="11.449228647691344"><ele>237.0</ele><time>2026-04-11T09:10:57Z</time></trkpt><trkpt lat="43.12406478287645" lon="11.449229775644248"><ele>236.39999999999998</ele><time>2026-04-11T09:10:58Z</time></trkpt><trkpt lat="43.12394050547071" lon="11.449197928484924"><ele>235.79999999999998</ele><time>2026-04-11T09:11:00Z</time></trkpt><trkpt lat="43.12387484373494" lon="11.449180180861859"><ele>235.2</ele><time>2026-04-11T09:11:01Z</time></trkpt><trkpt lat="43.123808009614514" lon="11.449173067019228"><ele>234.6</ele><time>2026-04-11T09:11:02Z</time></trkpt><trkpt lat="43.12374299157747" lon="11.449152679298766"><ele>234.0</ele><time>2026-04-11T09:11:03Z</time></trkpt><trkpt lat="43.123614891760134" lon="11.449098088745025"><ele>234.0</ele><time>2026-04-11T09:11:05Z</time></trkpt><trkpt lat="43.12354762439956" lon="11.44907118477774"><ele>234.0</ele><time>2026-04-11T09:11:06Z</time></trkpt><trkpt lat="43.12347787270773" lon="11.449048646793944"><ele>234.0</ele><time>2026-04-11T09:11:07Z</time></trkpt><trkpt lat="43.123414640290356" lon="11.449027108637583"><ele>234.0</ele><time>2026-04-11T09:11:08Z</time></trkpt><trkpt lat="43.12334100782715" lon="11.449001879706618"><ele>234.0</ele><time>2026-04-11T09:11:09Z</time></trkpt><trkpt lat="43.12320187352888" lon="11.448954047978724"><ele>234.0</ele><time>2026-04-11T09:11:11Z</time></trkpt><trkpt lat="43.123127284669565" lon="11.448921385548788"><ele>233.5</ele><time>2026-04-11T09:11:12Z</time></trkpt><trkpt lat="43.1230560856791" lon="11.448889590843564"><ele>233.0</ele><time>2026-04-11T09:11:13Z</time></trkpt><trkpt lat="43.122976033317485" lon="11.448861165699789"><ele>232.5</ele><time>2026-04-11T09:11:14Z</time></trkpt><trkpt lat="43.122905405078875" lon="11.448839661878841"><ele>232.0</ele><time>2026-04-11T09:11:14.999Z</time></trkpt><trkpt lat="43.1228257260651" lon="11.448810823258377"><ele>231.5</ele><time>2026-04-11T09:11:15.999Z</time></trkpt><trkpt lat="43.12274513022441" lon="11.44878435470404"><ele>231.0</ele><time>2026-04-11T09:11:16.999Z</time></trkpt><trkpt lat="43.12266193758361" lon="11.44875144917175"><ele>230.8</ele><time>2026-04-11T09:11:17.999Z</time></trkpt><trkpt lat="43.12257841795374" lon="11.448722098404502"><ele>230.60000000000002</ele><time>2026-04-11T09:11:18.999Z</time></trkpt><trkpt lat="43.1224990358348" lon="11.44869608059297"><ele>230.4</ele><time>2026-04-11T09:11:19.999Z</time></trkpt><trkpt lat="43.1224209805656" lon="11.44867038690635"><ele>230.2</ele><time>2026-04-11T09:11:20.999Z</time></trkpt><trkpt lat="43.12232345269512" lon="11.448640986564962"><ele>230.0</ele><time>2026-04-11T09:11:21.999Z</time></trkpt><trkpt lat="43.122222470440335" lon="11.448605069258843"><ele>228.8</ele><time>2026-04-11T09:11:22.999Z</time></trkpt><trkpt lat="43.12211514062219" lon="11.448571717595822"><ele>227.6</ele><time>2026-04-11T09:11:23.999Z</time></trkpt><trkpt lat="43.12201451812138" lon="11.44853120335691"><ele>226.39999999999998</ele><time>2026-04-11T09:11:25Z</time></trkpt><trkpt lat="43.12191113916276" lon="11.448491597404857"><ele>225.2</ele><time>2026-04-11T09:11:26Z</time></trkpt><trkpt lat="43.12180435584163" lon="11.448450242341028"><ele>224.0</ele><time>2026-04-11T09:11:27Z</time></trkpt><trkpt lat="43.12169342822821" lon="11.448396705213604"><ele>224.0</ele><time>2026-04-11T09:11:28Z</time></trkpt><trkpt lat="43.12158682560282" lon="11.448340178893824"><ele>224.0</ele><time>2026-04-11T09:11:29Z</time></trkpt><trkpt lat="43.121482444663556" lon="11.44827339330468"><ele>224.0</ele><time>2026-04-11T09:11:30Z</time></trkpt><trkpt lat="43.12133616526726" lon="11.448038317057586"><ele>222.25</ele><time>2026-04-11T09:11:32Z</time></trkpt><trkpt lat="43.12127631213619" lon="11.447903956830865"><ele>220.5</ele><time>2026-04-11T09:11:33Z</time></trkpt><trkpt lat="43.121231739410405" lon="11.447759042542044"><ele>218.75</ele><time>2026-04-11T09:11:34Z</time></trkpt><trkpt lat="43.1211930291272" lon="11.4476132980024"><ele>217.0</ele><time>2026-04-11T09:11:35Z</time></trkpt><trkpt lat="43.12115138376325" lon="11.447471465105973"><ele>217.0</ele><time>2026-04-11T09:11:36Z</time></trkpt><trkpt lat="43.121108033951934" lon="11.447327558205005"><ele>217.0</ele><time>2026-04-11T09:11:37Z</time></trkpt><trkpt lat="43.121066174241335" lon="11.44718038345292"><ele>217.0</ele><time>2026-04-11T09:11:38Z</time></trkpt><trkpt lat="43.12101915920243" lon="11.447034888449666"><ele>217.0</ele><time>2026-04-11T09:11:39Z</time></trkpt><trkpt lat="43.120976062185676" lon="11.44688587813077"><ele>216.0</ele><time>2026-04-11T09:11:40Z</time></trkpt><trkpt lat="43.12093667608938" lon="11.446735680904808"><ele>215.0</ele><time>2026-04-11T09:11:41Z</time></trkpt><trkpt lat="43.1208902552179" lon="11.446586471792088"><ele>214.0</ele><time>2026-04-11T09:11:42Z</time></trkpt><trkpt lat="43.12083614415195" lon="11.446438668737654"><ele>213.0</ele><time>2026-04-11T09:11:43Z</time></trkpt><trkpt lat="43.12077879955552" lon="11.44629094428675"><ele>212.60000000000002</ele><time>2026-04-11T09:11:44Z</time></trkpt><trkpt lat="43.12073527317518" lon="11.446149291273484"><ele>212.20000000000002</ele><time>2026-04-11T09:11:45Z</time></trkpt><trkpt lat="43.12070355322651" lon="11.446008384014798"><ele>211.8</ele><time>2026-04-11T09:11:46Z</time></trkpt><trkpt lat="43.12069665141214" lon="11.445855440558006"><ele>211.4</ele><time>2026-04-11T09:11:47Z</time></trkpt><trkpt lat="43.12071733872012" lon="11.445698631610421"><ele>211.0</ele><time>2026-04-11T09:11:48Z</time></trkpt><trkpt lat="43.120765601268964" lon="11.445540746543932"><ele>211.0</ele><time>2026-04-11T09:11:49Z</time></trkpt><trkpt lat="43.120826139300995" lon="11.445389554540736"><ele>211.0</ele><time>2026-04-11T09:11:50Z</time></trkpt><trkpt lat="43.120879471296654" lon="11.445239742633156"><ele>211.0</ele><time>2026-04-11T09:11:51Z</time></trkpt><trkpt lat="43.12092201678858" lon="11.444925500786072"><ele>211.0</ele><time>2026-04-11T09:11:53Z</time></trkpt><trkpt lat="43.12090538346607" lon="11.44474883613689"><ele>211.0</ele><time>2026-04-11T09:11:54Z</time></trkpt><trkpt lat="43.12085487632113" lon="11.444610976946766"><ele>211.0</ele><time>2026-04-11T09:11:55Z</time></trkpt><trkpt lat="43.12077110864803" lon="11.444497700075908"><ele>211.0</ele><time>2026-04-11T09:11:56Z</time></trkpt><trkpt lat="43.12063689188873" lon="11.444435409845772"><ele>209.25</ele><time>2026-04-11T09:11:57Z</time></trkpt><trkpt lat="43.12052487316991" lon="11.444354748125452"><ele>207.5</ele><time>2026-04-11T09:11:58Z</time></trkpt><trkpt lat="43.120411909146824" lon="11.444281998157022"><ele>205.75</ele><time>2026-04-11T09:11:59Z</time></trkpt><trkpt lat="43.12029326070524" lon="11.44422842027627"><ele>204.0</ele><time>2026-04-11T09:12:00Z</time></trkpt><trkpt lat="43.120162978750336" lon="11.444140520557717"><ele>204.0</ele><time>2026-04-11T09:12:01Z</time></trkpt><trkpt lat="43.120044048454474" lon="11.444058754966544"><ele>204.0</ele><time>2026-04-11T09:12:02Z</time></trkpt><trkpt lat="43.11992233748572" lon="11.443975116522468"><ele>204.0</ele><time>2026-04-11T09:12:03Z</time></trkpt><trkpt lat="43.119797785045634" lon="11.443896126417338"><ele>204.0</ele><time>2026-04-11T09:12:04Z</time></trkpt><trkpt lat="43.11967931832678" lon="11.443819953701876"><ele>200.75</ele><time>2026-04-11T09:12:05Z</time></trkpt><trkpt lat="43.11955669009043" lon="11.443730975808903"><ele>197.5</ele><time>2026-04-11T09:12:06Z</time></trkpt><trkpt lat="43.119428292355174" lon="11.443641480255266"><ele>194.25</ele><time>2026-04-11T09:12:07Z</time></trkpt><trkpt lat="43.11930921001001" lon="11.44356021239291"><ele>191.0</ele><time>2026-04-11T09:12:08Z</time></trkpt><trkpt lat="43.119182941616074" lon="11.443461387376527"><ele>191.0</ele><time>2026-04-11T09:12:09Z</time></trkpt><trkpt lat="43.1190685438244" lon="11.443358981187453"><ele>191.0</ele><time>2026-04-11T09:12:10Z</time></trkpt><trkpt lat="43.118954460433486" lon="11.443246330048288"><ele>191.0</ele><time>2026-04-11T09:12:11Z</time></trkpt><trkpt lat="43.11884466102726" lon="11.443125714095736"><ele>191.0</ele><time>2026-04-11T09:12:12Z</time></trkpt><trkpt lat="43.118662944019135" lon="11.442869042839634"><ele>188.0</ele><time>2026-04-11T09:12:14Z</time></trkpt><trkpt lat="43.118577783669814" lon="11.44277634014143"><ele>185.0</ele><time>2026-04-11T09:12:15Z</time></trkpt><trkpt lat="43.11849312302872" lon="11.442689883041684"><ele>182.0</ele><time>2026-04-11T09:12:16Z</time></trkpt><trkpt lat="43.11840917488506" lon="11.442608247122948"><ele>179.0</ele><time>2026-04-11T09:12:17Z</time></trkpt><trkpt lat="43.118316190130706" lon="11.442526252804877"><ele>176.0</ele><time>2026-04-11T09:12:18Z</time></trkpt><trkpt lat="43.11821978807801" lon="11.442455810645013"><ele>176.0</ele><time>2026-04-11T09:12:19Z</time></trkpt><trkpt lat="43.11815072520624" lon="11.442385170479731"><ele>176.0</ele><time>2026-04-11T09:12:20Z</time></trkpt><trkpt lat="43.11806121063696" lon="11.442303899972003"><ele>176.0</ele><time>2026-04-11T09:12:21Z</time></trkpt><trkpt lat="43.11795406796431" lon="11.442235418166241"><ele>176.0</ele><time>2026-04-11T09:12:22Z</time></trkpt><trkpt lat="43.1178571931715" lon="11.442163313515653"><ele>176.0</ele><time>2026-04-11T09:12:23Z</time></trkpt><trkpt lat="43.117768238707505" lon="11.442095369366529"><ele>173.8</ele><time>2026-04-11T09:12:24Z</time></trkpt><trkpt lat="43.117690602334164" lon="11.442038025585305"><ele>171.60000000000002</ele><time>2026-04-11T09:12:25Z</time></trkpt><trkpt lat="43.11761089121835" lon="11.441987924328254"><ele>169.4</ele><time>2026-04-11T09:12:26Z</time></trkpt><trkpt lat="43.117525704837526" lon="11.441942367018779"><ele>167.2</ele><time>2026-04-11T09:12:27Z</time></trkpt><trkpt lat="43.11743861152807" lon="11.441918907351706"><ele>165.0</ele><time>2026-04-11T09:12:28Z</time></trkpt><trkpt lat="43.11734007991399" lon="11.441932889259315"><ele>165.6</ele><time>2026-04-11T09:12:29Z</time></trkpt><trkpt lat="43.1172503387468" lon="11.441966252484844"><ele>166.2</ele><time>2026-04-11T09:12:30Z</time></trkpt><trkpt lat="43.1171491261191" lon="11.442011752634945"><ele>166.8</ele><time>2026-04-11T09:12:31Z</time></trkpt><trkpt lat="43.11705313359712" lon="11.44208452955508"><ele>167.4</ele><time>2026-04-11T09:12:32Z</time></trkpt><trkpt lat="43.11695733774189" lon="11.442153407656255"><ele>168.0</ele><time>2026-04-11T09:12:33Z</time></trkpt><trkpt lat="43.11676325530635" lon="11.442267369616834"><ele>168.0</ele><time>2026-04-11T09:12:35Z</time></trkpt><trkpt lat="43.11667783446759" lon="11.44228682147439"><ele>168.0</ele><time>2026-04-11T09:12:36Z</time></trkpt><trkpt lat="43.11658993300943" lon="11.442268544295517"><ele>168.0</ele><time>2026-04-11T09:12:37Z</time></trkpt><trkpt lat="43.11650845724218" lon="11.442202807141534"><ele>168.0</ele><time>2026-04-11T09:12:38Z</time></trkpt><trkpt lat="43.11643622235153" lon="11.442118499410396"><ele>168.0</ele><time>2026-04-11T09:12:39Z</time></trkpt><trkpt lat="43.11637596815283" lon="11.442015396146866"><ele>166.20000000000002</ele><time>2026-04-11T09:12:40Z</time></trkpt><trkpt lat="43.11630605798144" lon="11.441940390870569"><ele>164.4</ele><time>2026-04-11T09:12:41Z</time></trkpt><trkpt lat="43.11623491783345" lon="11.441862407343912"><ele>162.60000000000002</ele><time>2026-04-11T09:12:42Z</time></trkpt><trkpt lat="43.11615241427001" lon="11.441758414581074"><ele>160.8</ele><time>2026-04-11T09:12:43Z</time></trkpt><trkpt lat="43.116067159174165" lon="11.441664818728588"><ele>159.0</ele><time>2026-04-11T09:12:44Z</time></trkpt><trkpt lat="43.11598982311876" lon="11.441580797236417"><ele>159.0</ele><time>2026-04-11T09:12:45Z</time></trkpt><trkpt lat="43.1159153700503" lon="11.441500662564305"><ele>159.0</ele><time>2026-04-11T09:12:46Z</time></trkpt><trkpt lat="43.11584094577071" lon="11.441404162158562"><ele>159.0</ele><time>2026-04-11T09:12:47Z</time></trkpt><trkpt lat="43.11576420461761" lon="11.441318504215134"><ele>159.0</ele><time>2026-04-11T09:12:48Z</time></trkpt><trkpt lat="43.11569176483442" lon="11.44123782172426"><ele>159.0</ele><time>2026-04-11T09:12:49Z</time></trkpt><trkpt lat="43.11562319897674" lon="11.441179802303157"><ele>156.6</ele><time>2026-04-11T09:12:50Z</time></trkpt><trkpt lat="43.11552464369045" lon="11.441179009449028"><ele>154.2</ele><time>2026-04-11T09:12:51Z</time></trkpt><trkpt lat="43.115420986427225" lon="11.441187896647403"><ele>151.79999999999998</ele><time>2026-04-11T09:12:52Z</time></trkpt><trkpt lat="43.115326706172596" lon="11.441217425370743"><ele>149.4</ele><time>2026-04-11T09:12:53Z</time></trkpt><trkpt lat="43.11523416951336" lon="11.441237725604452"><ele>147.0</ele><time>2026-04-11T09:12:54Z</time></trkpt><trkpt lat="43.11504319125483" lon="11.44128759434436"><ele>148.0</ele><time>2026-04-11T09:12:56Z</time></trkpt><trkpt lat="43.114952126315124" lon="11.441305391491474"><ele>149.0</ele><time>2026-04-11T09:12:57Z</time></trkpt><trkpt lat="43.114863029813634" lon="11.44131692417407"><ele>150.0</ele><time>2026-04-11T09:12:58Z</time></trkpt><trkpt lat="43.114772678361675" lon="11.441329953396973"><ele>151.0</ele><time>2026-04-11T09:12:59Z</time></trkpt><trkpt lat="43.11467760813594" lon="11.441341444632192"><ele>152.0</ele><time>2026-04-11T09:13:00Z</time></trkpt><trkpt lat="43.114586926701975" lon="11.441335202042263"><ele>149.79999999999998</ele><time>2026-04-11T09:13:01Z</time></trkpt><trkpt lat="43.11449439866877" lon="11.441338152040084"><ele>147.6</ele><time>2026-04-11T09:13:02Z</time></trkpt><trkpt lat="43.11439839661868" lon="11.441345219219519"><ele>145.39999999999998</ele><time>2026-04-11T09:13:03Z</time></trkpt><trkpt lat="43.11430494943599" lon="11.441352291677815"><ele>143.2</ele><time>2026-04-11T09:13:04Z</time></trkpt><trkpt lat="43.11422412739519" lon="11.44134756182292"><ele>141.0</ele><time>2026-04-11T09:13:05Z</time></trkpt><trkpt lat="43.11412746255194" lon="11.441357769892031"><ele>140.4</ele><time>2026-04-11T09:13:06Z</time></trkpt><trkpt lat="43.114024518702784" lon="11.441364745879262"><ele>139.8</ele><time>2026-04-11T09:13:07Z</time></trkpt><trkpt lat="43.1139241040756" lon="11.441377721044303"><ele>139.20000000000002</ele><time>2026-04-11T09:13:08Z</time></trkpt><trkpt lat="43.113825974562346" lon="11.441386987290667"><ele>138.6</ele><time>2026-04-11T09:13:09Z</time></trkpt><trkpt lat="43.11373030701206" lon="11.441403022825192"><ele>138.0</ele><time>2026-04-11T09:13:10Z</time></trkpt><trkpt lat="43.113633919061584" lon="11.441421369020766"><ele>138.0</ele><time>2026-04-11T09:13:11Z</time></trkpt><trkpt lat="43.11353436276209" lon="11.44142893477349"><ele>138.0</ele><time>2026-04-11T09:13:12Z</time></trkpt><trkpt lat="43.11343583077201" lon="11.441432010021359"><ele>138.0</ele><time>2026-04-11T09:13:13Z</time></trkpt><trkpt lat="43.11333825677906" lon="11.441429198534788"><ele>138.0</ele><time>2026-04-11T09:13:14Z</time></trkpt><trkpt lat="43.11323855060196" lon="11.441436503248307"><ele>138.0</ele><time>2026-04-11T09:13:15Z</time></trkpt><trkpt lat="43.113031510297894" lon="11.441452973647973"><ele>137.8</ele><time>2026-04-11T09:13:17Z</time></trkpt><trkpt lat="43.1129367081252" lon="11.441477928734866"><ele>137.60000000000002</ele><time>2026-04-11T09:13:18Z</time></trkpt><trkpt lat="43.11284092203332" lon="11.44148820704851"><ele>137.39999999999998</ele><time>2026-04-11T09:13:19Z</time></trkpt><trkpt lat="43.11274556206765" lon="11.441490869574075"><ele>137.2</ele><time>2026-04-11T09:13:20Z</time></trkpt><trkpt lat="43.112651530289895" lon="11.441499571443359"><ele>137.0</ele><time>2026-04-11T09:13:21Z</time></trkpt><trkpt lat="43.112556911783706" lon="11.4415055997448"><ele>137.0</ele><time>2026-04-11T09:13:22Z</time></trkpt><trkpt lat="43.11245959708587" lon="11.441509525829497"><ele>137.0</ele><time>2026-04-11T09:13:23Z</time></trkpt><trkpt lat="43.11236314047975" lon="11.441518031168519"><ele>137.0</ele><time>2026-04-11T09:13:24Z</time></trkpt><trkpt lat="43.11226635541873" lon="11.441533717130573"><ele>137.0</ele><time>2026-04-11T09:13:25Z</time></trkpt><trkpt lat="43.11216803516599" lon="11.441540450342558"><ele>137.0</ele><time>2026-04-11T09:13:26Z</time></trkpt><trkpt lat="43.11207794891273" lon="11.441560352704451"><ele>136.79999999999998</ele><time>2026-04-11T09:13:27Z</time></trkpt><trkpt lat="43.11198261063734" lon="11.441569644366819"><ele>136.6</ele><time>2026-04-11T09:13:28Z</time></trkpt><trkpt lat="43.111889057745515" lon="11.44157815484369"><ele>136.39999999999998</ele><time>2026-04-11T09:13:29Z</time></trkpt><trkpt lat="43.1117952527767" lon="11.441587043318004"><ele>136.2</ele><time>2026-04-11T09:13:30Z</time></trkpt><trkpt lat="43.111704783393606" lon="11.441588206184054"><ele>136.0</ele><time>2026-04-11T09:13:31Z</time></trkpt><trkpt lat="43.111617544051256" lon="11.44159798724542"><ele>135.8</ele><time>2026-04-11T09:13:32Z</time></trkpt><trkpt lat="43.11152808355261" lon="11.441606745597687"><ele>135.6</ele><time>2026-04-11T09:13:33Z</time></trkpt><trkpt lat="43.11143438772562" lon="11.441613698094757"><ele>135.4</ele><time>2026-04-11T09:13:34Z</time></trkpt><trkpt lat="43.11135559347765" lon="11.441633356275767"><ele>135.2</ele><time>2026-04-11T09:13:35Z</time></trkpt><trkpt lat="43.11125973794668" lon="11.441657282586727"><ele>135.0</ele><time>2026-04-11T09:13:36Z</time></trkpt><trkpt lat="43.11110410162068" lon="11.441707216353102"><ele>135.0</ele><time>2026-04-11T09:13:38Z</time></trkpt><trkpt lat="43.11102304694608" lon="11.441721648322096"><ele>135.0</ele><time>2026-04-11T09:13:39Z</time></trkpt><trkpt lat="43.11093798964994" lon="11.441725053084765"><ele>135.0</ele><time>2026-04-11T09:13:40Z</time></trkpt><trkpt lat="43.110848127750494" lon="11.441720882781278"><ele>135.0</ele><time>2026-04-11T09:13:41Z</time></trkpt><trkpt lat="43.1107547915843" lon="11.4417100981256"><ele>135.0</ele><time>2026-04-11T09:13:42Z</time></trkpt><trkpt lat="43.1106679107736" lon="11.44170902637717"><ele>135.0</ele><time>2026-04-11T09:13:43Z</time></trkpt><trkpt lat="43.110578991986515" lon="11.44170483835165"><ele>134.66666666666666</ele><time>2026-04-11T09:13:44Z</time></trkpt><trkpt lat="43.11049179483509" lon="11.441704014992833"><ele>134.33333333333334</ele><time>2026-04-11T09:13:45Z</time></trkpt><trkpt lat="43.11039931458902" lon="11.441699765021575"><ele>134.0</ele><time>2026-04-11T09:13:46Z</time></trkpt><trkpt lat="43.11031002127151" lon="11.441705695733285"><ele>133.66666666666669</ele><time>2026-04-11T09:13:47Z</time></trkpt><trkpt lat="43.1102249218837" lon="11.44172461765313"><ele>133.33333333333334</ele><time>2026-04-11T09:13:48Z</time></trkpt><trkpt lat="43.11013688935401" lon="11.441743685282727"><ele>133.0</ele><time>2026-04-11T09:13:49Z</time></trkpt><trkpt lat="43.11005180841006" lon="11.441770123420234"><ele>133.0</ele><time>2026-04-11T09:13:50Z</time></trkpt><trkpt lat="43.109967794415574" lon="11.441798555230728"><ele>133.0</ele><time>2026-04-11T09:13:51Z</time></trkpt><trkpt lat="43.10988636804033" lon="11.441834580915405"><ele>133.0</ele><time>2026-04-11T09:13:52Z</time></trkpt><trkpt lat="43.109800792689995" lon="11.441869517854805"><ele>133.0</ele><time>2026-04-11T09:13:53Z</time></trkpt><trkpt lat="43.10972193316479" lon="11.441906779806768"><ele>133.0</ele><time>2026-04-11T09:13:54Z</time></trkpt><trkpt lat="43.109641143055725" lon="11.44194057038176"><ele>133.0</ele><time>2026-04-11T09:13:55Z</time></trkpt><trkpt lat="43.109563746957654" lon="11.44197977046141"><ele>133.0</ele><time>2026-04-11T09:13:56Z</time></trkpt><trkpt lat="43.10948639822062" lon="11.442020116790658"><ele>133.0</ele><time>2026-04-11T09:13:57Z</time></trkpt><trkpt lat="43.10932701137434" lon="11.44208218910721"><ele>133.0</ele><time>2026-04-11T09:13:59Z</time></trkpt><trkpt lat="43.10924506267699" lon="11.442108013676245"><ele>133.0</ele><time>2026-04-11T09:14:00Z</time></trkpt><trkpt lat="43.10916908597097" lon="11.44213353045753"><ele>133.0</ele><time>2026-04-11T09:14:01Z</time></trkpt><trkpt lat="43.109091651019945" lon="11.442159178598564"><ele>133.0</ele><time>2026-04-11T09:14:02Z</time></trkpt><trkpt lat="43.109013210340535" lon="11.442174996749022"><ele>133.0</ele><time>2026-04-11T09:14:03Z</time></trkpt><trkpt lat="43.108936609645944" lon="11.44219106864407"><ele>133.0</ele><time>2026-04-11T09:14:04Z</time></trkpt><trkpt lat="43.10886372917906" lon="11.442216991858599"><ele>133.0</ele><time>2026-04-11T09:14:05Z</time></trkpt><trkpt lat="43.10878832463014" lon="11.442236439501043"><ele>133.0</ele><time>2026-04-11T09:14:06Z</time></trkpt><trkpt lat="43.10871274863331" lon="11.442264668025269"><ele>133.0</ele><time>2026-04-11T09:14:07Z</time></trkpt><trkpt lat="43.10863909509359" lon="11.442284495603365"><ele>133.0</ele><time>2026-04-11T09:14:08Z</time></trkpt><trkpt lat="43.1085660537018" lon="11.442306393191217"><ele>133.0</ele><time>2026-04-11T09:14:09Z</time></trkpt><trkpt lat="43.108494637939664" lon="11.442325006562264"><ele>133.0</ele><time>2026-04-11T09:14:10Z</time></trkpt><trkpt lat="43.10842094576604" lon="11.442336458361495"><ele>133.0</ele><time>2026-04-11T09:14:11Z</time></trkpt><trkpt lat="43.10834717665053" lon="11.442346340935973"><ele>133.0</ele><time>2026-04-11T09:14:12Z</time></trkpt><trkpt lat="43.10827270644405" lon="11.44236747553706"><ele>133.0</ele><time>2026-04-11T09:14:13Z</time></trkpt><trkpt lat="43.10819733411835" lon="11.442390175478284"><ele>133.0</ele><time>2026-04-11T09:14:14Z</time></trkpt><trkpt lat="43.108122251646485" lon="11.442403988041752"><ele>133.20000000000002</ele><time>2026-04-11T09:14:15Z</time></trkpt><trkpt lat="43.10804517630193" lon="11.442418256569223"><ele>133.4</ele><time>2026-04-11T09:14:16Z</time></trkpt><trkpt lat="43.1079723710266" lon="11.442437100164188"><ele>133.60000000000002</ele><time>2026-04-11T09:14:17Z</time></trkpt><trkpt lat="43.107895956754824" lon="11.442441039678753"><ele>133.8</ele><time>2026-04-11T09:14:18Z</time></trkpt><trkpt lat="43.10774766951611" lon="11.442453829652125"><ele>134.0</ele><time>2026-04-11T09:14:20Z</time></trkpt><trkpt lat="43.10767133064154" lon="11.442454599975198"><ele>134.0</ele><time>2026-04-11T09:14:21Z</time></trkpt><trkpt lat="43.10759113519191" lon="11.442446470473117"><ele>134.0</ele><time>2026-04-11T09:14:22Z</time></trkpt><trkpt lat="43.10751397089395" lon="11.442425489826132"><ele>134.0</ele><time>2026-04-11T09:14:23Z</time></trkpt><trkpt lat="43.107439694323446" lon="11.44238131232489"><ele>134.0</ele><time>2026-04-11T09:14:24Z</time></trkpt><trkpt lat="43.107368106804145" lon="11.442319399198091"><ele>134.0</ele><time>2026-04-11T09:14:25Z</time></trkpt><trkpt lat="43.10730504742725" lon="11.442242837043008"><ele>134.0</ele><time>2026-04-11T09:14:26Z</time></trkpt><trkpt lat="43.10724549346252" lon="11.442152330236732"><ele>133.5</ele><time>2026-04-11T09:14:27Z</time></trkpt><trkpt lat="43.107185167078654" lon="11.442056809841354"><ele>133.0</ele><time>2026-04-11T09:14:28Z</time></trkpt><trkpt lat="43.107124964111144" lon="11.441967936134503"><ele>132.5</ele><time>2026-04-11T09:14:29Z</time></trkpt><trkpt lat="43.107066992034866" lon="11.441880648886238"><ele>132.0</ele><time>2026-04-11T09:14:30Z</time></trkpt><trkpt lat="43.107015709943276" lon="11.4417893668095"><ele>131.5</ele><time>2026-04-11T09:14:31Z</time></trkpt><trkpt lat="43.106960550817966" lon="11.441691403944114"><ele>131.0</ele><time>2026-04-11T09:14:32Z</time></trkpt><trkpt lat="43.10689856458163" lon="11.441606071934137"><ele>131.0</ele><time>2026-04-11T09:14:33Z</time></trkpt><trkpt lat="43.106836679129735" lon="11.44152351021151"><ele>131.0</ele><time>2026-04-11T09:14:34Z</time></trkpt><trkpt lat="43.10678111267367" lon="11.44143234817439"><ele>131.0</ele><time>2026-04-11T09:14:35Z</time></trkpt><trkpt lat="43.10672158556424" lon="11.441356193101406"><ele>131.0</ele><time>2026-04-11T09:14:36Z</time></trkpt><trkpt lat="43.1066592509305" lon="11.44126923292233"><ele>131.0</ele><time>2026-04-11T09:14:37Z</time></trkpt><trkpt lat="43.106592827239986" lon="11.441216801767617"><ele>131.0</ele><time>2026-04-11T09:14:38Z</time></trkpt><trkpt lat="43.10654059288693" lon="11.441133204989494"><ele>131.0</ele><time>2026-04-11T09:14:39Z</time></trkpt><trkpt lat="43.10642890843511" lon="11.44096586635344"><ele>131.0</ele><time>2026-04-11T09:14:41Z</time></trkpt><trkpt lat="43.10637042401485" lon="11.440895036927367"><ele>131.0</ele><time>2026-04-11T09:14:42Z</time></trkpt><trkpt lat="43.1063151109485" lon="11.440820016148319"><ele>131.0</ele><time>2026-04-11T09:14:43Z</time></trkpt><trkpt lat="43.10626446384782" lon="11.4407354255615"><ele>131.0</ele><time>2026-04-11T09:14:44Z</time></trkpt><trkpt lat="43.10621324066672" lon="11.440649142247118"><ele>131.0</ele><time>2026-04-11T09:14:45Z</time></trkpt><trkpt lat="43.10615649910955" lon="11.44057202645691"><ele>131.0</ele><time>2026-04-11T09:14:46Z</time></trkpt><trkpt lat="43.10611119432388" lon="11.440501652022995"><ele>131.0</ele><time>2026-04-11T09:14:47Z</time></trkpt><trkpt lat="43.106066025261285" lon="11.440428418992612"><ele>131.0</ele><time>2026-04-11T09:14:48Z</time></trkpt><trkpt lat="43.10602079631959" lon="11.440360652434133"><ele>131.0</ele><time>2026-04-11T09:14:49Z</time></trkpt><trkpt lat="43.1059689929952" lon="11.440303040841064"><ele>131.0</ele><time>2026-04-11T09:14:50Z</time></trkpt><trkpt lat="43.10591421617689" lon="11.440217286208075"><ele>131.0</ele><time>2026-04-11T09:14:51Z</time></trkpt><trkpt lat="43.10585289941106" lon="11.440149177987035"><ele>131.0</ele><time>2026-04-11T09:14:52Z</time></trkpt><trkpt lat="43.105802461176516" lon="11.440069962465548"><ele>131.0</ele><time>2026-04-11T09:14:53Z</time></trkpt><trkpt lat="43.10575734933712" lon="11.439987786311335"><ele>131.0</ele><time>2026-04-11T09:14:54Z</time></trkpt><trkpt lat="43.10570038340005" lon="11.439931085817024"><ele>131.0</ele><time>2026-04-11T09:14:55Z</time></trkpt><trkpt lat="43.10564853792458" lon="11.439868011786444"><ele>131.0</ele><time>2026-04-11T09:14:56Z</time></trkpt><trkpt lat="43.10559715513281" lon="11.439807249768286"><ele>131.0</ele><time>2026-04-11T09:14:57Z</time></trkpt><trkpt lat="43.105544208512136" lon="11.439736518527093"><ele>131.0</ele><time>2026-04-11T09:14:58Z</time></trkpt><trkpt lat="43.105489667736535" lon="11.439670402105573"><ele>130.6</ele><time>2026-04-11T09:14:59Z</time></trkpt><trkpt lat="43.10543925332866" lon="11.43958950249964"><ele>130.2</ele><time>2026-04-11T09:15:00Z</time></trkpt><trkpt lat="43.10529289561577" lon="11.439417974644833"><ele>129.8</ele><time>2026-04-11T09:15:03Z</time></trkpt><trkpt lat="43.105246991378856" lon="11.439356765760545"><ele>129.4</ele><time>2026-04-11T09:15:04Z</time></trkpt><trkpt lat="43.105215097372145" lon="11.439278698762331"><ele>129.0</ele><time>2026-04-11T09:15:05Z</time></trkpt><trkpt lat="43.10514043837168" lon="11.439142313508935"><ele>128.99999999999997</ele><time>2026-04-11T09:15:07Z</time></trkpt><trkpt lat="43.10509601305343" lon="11.439075816253407"><ele>129.0</ele><time>2026-04-11T09:15:08Z</time></trkpt><trkpt lat="43.10505401031652" lon="11.439009042390623"><ele>129.0</ele><time>2026-04-11T09:15:09Z</time></trkpt><trkpt lat="43.105007301261445" lon="11.438938954939294"><ele>129.0</ele><time>2026-04-11T09:15:10Z</time></trkpt><trkpt lat="43.104964420061755" lon="11.438868083083138"><ele>129.0</ele><time>2026-04-11T09:15:11Z</time></trkpt><trkpt lat="43.104907561358615" lon="11.43879684328072"><ele>128.99999999999997</ele><time>2026-04-11T09:15:12Z</time></trkpt><trkpt lat="43.1048530973554" lon="11.438742461848639"><ele>129.0</ele><time>2026-04-11T09:15:13Z</time></trkpt><trkpt lat="43.104801922447294" lon="11.438649640037402"><ele>129.28571428571428</ele><time>2026-04-11T09:15:14Z</time></trkpt><trkpt lat="43.104750744256044" lon="11.438570597366164"><ele>129.57142857142856</ele><time>2026-04-11T09:15:15Z</time></trkpt><trkpt lat="43.10470861874618" lon="11.43850322266224"><ele>129.85714285714286</ele><time>2026-04-11T09:15:16Z</time></trkpt><trkpt lat="43.10465901407369" lon="11.438437229478918"><ele>130.14285714285714</ele><time>2026-04-11T09:15:17Z</time></trkpt><trkpt lat="43.10461712060276" lon="11.43835737165263"><ele>130.42857142857144</ele><time>2026-04-11T09:15:18Z</time></trkpt><trkpt lat="43.104572657478364" lon="11.438279159692206"><ele>130.71428571428572</ele><time>2026-04-11T09:15:19Z</time></trkpt><trkpt lat="43.10452209723519" lon="11.438211038900372"><ele>131.0</ele><time>2026-04-11T09:15:20Z</time></trkpt><trkpt lat="43.1044733533995" lon="11.438144850534172"><ele>131.0</ele><time>2026-04-11T09:15:21Z</time></trkpt><trkpt lat="43.104282606303094" lon="11.437882359500191"><ele>131.0</ele><time>2026-04-11T09:15:25Z</time></trkpt><trkpt lat="43.10423456426509" lon="11.437802865534424"><ele>131.0</ele><time>2026-04-11T09:15:26Z</time></trkpt><trkpt lat="43.10413872003518" lon="11.437688572236654"><ele>131.0</ele><time>2026-04-11T09:15:28Z</time></trkpt><trkpt lat="43.10408748808736" lon="11.437619103196061"><ele>131.0</ele><time>2026-04-11T09:15:29Z</time></trkpt><trkpt lat="43.104046257481365" lon="11.4375468922017"><ele>131.0</ele><time>2026-04-11T09:15:30Z</time></trkpt><trkpt lat="43.10400564829591" lon="11.437480845619763"><ele>131.0</ele><time>2026-04-11T09:15:31Z</time></trkpt><trkpt lat="43.10396230825181" lon="11.437410672436473"><ele>131.0</ele><time>2026-04-11T09:15:32Z</time></trkpt><trkpt lat="43.10389750489863" lon="11.437364243115542"><ele>131.0</ele><time>2026-04-11T09:15:33Z</time></trkpt><trkpt lat="43.10380528600883" lon="11.437229771360693"><ele>131.6</ele><time>2026-04-11T09:15:35Z</time></trkpt><trkpt lat="43.103723128281324" lon="11.437113207133846"><ele>132.2</ele><time>2026-04-11T09:15:37Z</time></trkpt><trkpt lat="43.10364296127631" lon="11.43699013407884"><ele>132.8</ele><time>2026-04-11T09:15:39Z</time></trkpt><trkpt lat="43.10359756861443" lon="11.436929318300189"><ele>133.4</ele><time>2026-04-11T09:15:40Z</time></trkpt><trkpt lat="43.10352472637161" lon="11.436815415334147"><ele>134.0</ele><time>2026-04-11T09:15:42Z</time></trkpt><trkpt lat="43.10336118125278" lon="11.436584848457581"><ele>134.0</ele><time>2026-04-11T09:15:46Z</time></trkpt><trkpt lat="43.10328737605436" lon="11.436480128331237"><ele>134.0</ele><time>2026-04-11T09:15:48Z</time></trkpt><trkpt lat="43.10321366101495" lon="11.436364003005167"><ele>134.0</ele><time>2026-04-11T09:15:50Z</time></trkpt><trkpt lat="43.1031304450906" lon="11.43624898851779"><ele>134.0</ele><time>2026-04-11T09:15:52Z</time></trkpt><trkpt lat="43.10303998027137" lon="11.436137784481614"><ele>134.5</ele><time>2026-04-11T09:15:54Z</time></trkpt><trkpt lat="43.1029570508073" lon="11.43601994384262"><ele>135.0</ele><time>2026-04-11T09:15:56Z</time></trkpt><trkpt lat="43.10287616298492" lon="11.435909308477926"><ele>135.5</ele><time>2026-04-11T09:15:58Z</time></trkpt><trkpt lat="43.1028105411963" lon="11.435774383553147"><ele>136.0</ele><time>2026-04-11T09:16:00Z</time></trkpt><trkpt lat="43.10272201504075" lon="11.435680143862017"><ele>136.0</ele><time>2026-04-11T09:16:02Z</time></trkpt><trkpt lat="43.10263881712296" lon="11.43557980544779"><ele>136.0</ele><time>2026-04-11T09:16:04Z</time></trkpt><trkpt lat="43.10249372800576" lon="11.435374582416324"><ele>136.0</ele><time>2026-04-11T09:16:08Z</time></trkpt><trkpt lat="43.10243028832703" lon="11.435282075154886"><ele>136.0</ele><time>2026-04-11T09:16:10Z</time></trkpt><trkpt lat="43.1023654178112" lon="11.435169610597738"><ele>136.6</ele><time>2026-04-11T09:16:12Z</time></trkpt><trkpt lat="43.10230964310609" lon="11.435052316022484"><ele>137.2</ele><time>2026-04-11T09:16:14Z</time></trkpt><trkpt lat="43.102257083759426" lon="11.434921238114363"><ele>137.8</ele><time>2026-04-11T09:16:16Z</time></trkpt><trkpt lat="43.10218824320616" lon="11.434821009887488"><ele>138.4</ele><time>2026-04-11T09:16:18Z</time></trkpt><trkpt lat="43.1021833865279" lon="11.434704416945689"><ele>139.0</ele><time>2026-04-11T09:16:20Z</time></trkpt><trkpt lat="43.10219999292525" lon="11.434595322101176"><ele>140.0</ele><time>2026-04-11T09:16:22Z</time></trkpt><trkpt lat="43.10219341347041" lon="11.434477053743356"><ele>141.0</ele><time>2026-04-11T09:16:25Z</time></trkpt><trkpt lat="43.102190284369236" lon="11.434329785354198"><ele>142.0</ele><time>2026-04-11T09:16:28Z</time></trkpt><trkpt lat="43.10224230833715" lon="11.434233234888666"><ele>143.0</ele><time>2026-04-11T09:16:31Z</time></trkpt><trkpt lat="43.10228339054276" lon="11.43414302287161"><ele>144.0</ele><time>2026-04-11T09:16:33Z</time></trkpt><trkpt lat="43.10230069810516" lon="11.434041355545244"><ele>145.0</ele><time>2026-04-11T09:16:35Z</time></trkpt><trkpt lat="43.102308553004" lon="11.433954374338382"><ele>145.0</ele><time>2026-04-11T09:16:37Z</time></trkpt><trkpt lat="43.10231549556072" lon="11.43385128880717"><ele>145.0</ele><time>2026-04-11T09:16:39Z</time></trkpt><trkpt lat="43.102334347186115" lon="11.433743917803062"><ele>145.0</ele><time>2026-04-11T09:16:41Z</time></trkpt><trkpt lat="43.10235420048146" lon="11.433650035493287"><ele>145.0</ele><time>2026-04-11T09:16:43Z</time></trkpt><trkpt lat="43.102353959022466" lon="11.433547748396842"><ele>145.0</ele><time>2026-04-11T09:16:45Z</time></trkpt><trkpt lat="43.10234557003784" lon="11.433458730082481"><ele>145.0</ele><time>2026-04-11T09:16:47Z</time></trkpt><trkpt lat="43.1023408172104" lon="11.433277420180282"><ele>145.14285714285714</ele><time>2026-04-11T09:16:51Z</time></trkpt><trkpt lat="43.102327596639284" lon="11.433191448416137"><ele>145.2857142857143</ele><time>2026-04-11T09:16:53Z</time></trkpt><trkpt lat="43.10232192692478" lon="11.433100994704887"><ele>145.42857142857144</ele><time>2026-04-11T09:16:55Z</time></trkpt><trkpt lat="43.10228289556605" lon="11.433009579978098"><ele>145.57142857142858</ele><time>2026-04-11T09:16:57Z</time></trkpt><trkpt lat="43.102260934595726" lon="11.432927442365438"><ele>145.71428571428572</ele><time>2026-04-11T09:16:59Z</time></trkpt><trkpt lat="43.10224189659582" lon="11.432833331179534"><ele>145.85714285714286</ele><time>2026-04-11T09:17:01Z</time></trkpt><trkpt lat="43.10220321778228" lon="11.432755106370378"><ele>146.0</ele><time>2026-04-11T09:17:03Z</time></trkpt><trkpt lat="43.10213670483217" lon="11.432657984594632"><ele>146.0</ele><time>2026-04-11T09:17:06Z</time></trkpt><trkpt lat="43.10208598824013" lon="11.432592228744122"><ele>146.0</ele><time>2026-04-11T09:17:08Z</time></trkpt><trkpt lat="43.10192191152309" lon="11.432474773518036"><ele>146.0</ele><time>2026-04-11T09:17:15Z</time></trkpt><trkpt lat="43.10185407090744" lon="11.432451020055654"><ele>146.0</ele><time>2026-04-11T09:17:17Z</time></trkpt><trkpt lat="43.101772096777545" lon="11.432447924944949"><ele>146.0</ele><time>2026-04-11T09:17:20Z</time></trkpt><trkpt lat="43.101691588614685" lon="11.432458193271442"><ele>146.0</ele><time>2026-04-11T09:17:23Z</time></trkpt><trkpt lat="43.10161559055249" lon="11.432423079540657"><ele>146.0</ele><time>2026-04-11T09:17:25Z</time></trkpt><trkpt lat="43.10153498096538" lon="11.432418409292241"><ele>146.0</ele><time>2026-04-11T09:17:28Z</time></trkpt><trkpt lat="43.101445086731104" lon="11.432433256390077"><ele>146.0</ele><time>2026-04-11T09:17:31Z</time></trkpt><trkpt lat="43.10128890946129" lon="11.432387275938556"><ele>146.0</ele><time>2026-04-11T09:17:36Z</time></trkpt><trkpt lat="43.10122128735846" lon="11.432393099026608"><ele>146.85714285714286</ele><time>2026-04-11T09:17:38Z</time></trkpt><trkpt lat="43.10115677580685" lon="11.432379164405358"><ele>147.71428571428572</ele><time>2026-04-11T09:17:40Z</time></trkpt><trkpt lat="43.10108293076397" lon="11.432364721732739"><ele>148.57142857142856</ele><time>2026-04-11T09:17:42Z</time></trkpt><trkpt lat="43.10101680648041" lon="11.43236286461148"><ele>149.42857142857144</ele><time>2026-04-11T09:17:44Z</time></trkpt><trkpt lat="43.10095291137917" lon="11.432362873592375"><ele>150.2857142857143</ele><time>2026-04-11T09:17:46Z</time></trkpt><trkpt lat="43.10087127458676" lon="11.432367730059767"><ele>151.14285714285714</ele><time>2026-04-11T09:17:48Z</time></trkpt><trkpt lat="43.1008055733533" lon="11.432345922671479"><ele>152.0</ele><time>2026-04-11T09:17:51Z</time></trkpt><trkpt lat="43.10072005941048" lon="11.43233605467911"><ele>153.2</ele><time>2026-04-11T09:17:53Z</time></trkpt><trkpt lat="43.10057637251196" lon="11.432334519185435"><ele>154.39999999999998</ele><time>2026-04-11T09:17:57Z</time></trkpt><trkpt lat="43.100483501807325" lon="11.432318446893252"><ele>155.60000000000002</ele><time>2026-04-11T09:18:00Z</time></trkpt><trkpt lat="43.10039818512288" lon="11.432311993396057"><ele>156.8</ele><time>2026-04-11T09:18:03Z</time></trkpt><trkpt lat="43.10033271356796" lon="11.432311713092457"><ele>158.0</ele><time>2026-04-11T09:18:05Z</time></trkpt><trkpt lat="43.10024032436014" lon="11.432303363663424"><ele>158.0</ele><time>2026-04-11T09:18:08Z</time></trkpt><trkpt lat="43.100163831630205" lon="11.432289423195778"><ele>158.0</ele><time>2026-04-11T09:18:11Z</time></trkpt><trkpt lat="43.10008518123926" lon="11.432290496968749"><ele>158.0</ele><time>2026-04-11T09:18:14Z</time></trkpt><trkpt lat="43.09992092174455" lon="11.432272089973019"><ele>158.0</ele><time>2026-04-11T09:18:20Z</time></trkpt><trkpt lat="43.09983558297058" lon="11.43226358961027"><ele>158.0</ele><time>2026-04-11T09:18:23Z</time></trkpt><trkpt lat="43.09975291116202" lon="11.432274482385877"><ele>158.60000000000002</ele><time>2026-04-11T09:18:26Z</time></trkpt><trkpt lat="43.09967407767947" lon="11.432257688158309"><ele>159.20000000000002</ele><time>2026-04-11T09:18:29Z</time></trkpt><trkpt lat="43.099599035133146" lon="11.432241886661918"><ele>159.8</ele><time>2026-04-11T09:18:32Z</time></trkpt><trkpt lat="43.09952636468303" lon="11.43223492495611"><ele>160.4</ele><time>2026-04-11T09:18:35Z</time></trkpt><trkpt lat="43.099377955865236" lon="11.432197393224252"><ele>161.0</ele><time>2026-04-11T09:18:41Z</time></trkpt><trkpt lat="43.099296057836035" lon="11.432202604206896"><ele>161.0</ele><time>2026-04-11T09:18:44Z</time></trkpt><trkpt lat="43.09921826566943" lon="11.432213024579085"><ele>161.0</ele><time>2026-04-11T09:18:47Z</time></trkpt><trkpt lat="43.099151799692336" lon="11.432208432133596"><ele>161.0</ele><time>2026-04-11T09:18:50Z</time></trkpt><trkpt lat="43.09907702019403" lon="11.432191035214919"><ele>161.0</ele><time>2026-04-11T09:18:53Z</time></trkpt><trkpt lat="43.099005855776156" lon="11.432196623202131"><ele>161.0</ele><time>2026-04-11T09:18:56Z</time></trkpt><trkpt lat="43.098853536786216" lon="11.432165400043665"><ele>161.0</ele><time>2026-04-11T09:19:02Z</time></trkpt><trkpt lat="43.09878189247537" lon="11.432176169533353"><ele>160.33333333333331</ele><time>2026-04-11T09:19:05Z</time></trkpt><trkpt lat="43.09869886608401" lon="11.4321427424762"><ele>159.66666666666666</ele><time>2026-04-11T09:19:08Z</time></trkpt><trkpt lat="43.0986190548255" lon="11.432088528679822"><ele>159.0</ele><time>2026-04-11T09:19:11Z</time></trkpt><trkpt lat="43.09856101728395" lon="11.432053899377056"><ele>158.33333333333334</ele><time>2026-04-11T09:19:13Z</time></trkpt><trkpt lat="43.098505175291855" lon="11.432004191738642"><ele>157.66666666666669</ele><time>2026-04-11T09:19:15Z</time></trkpt><trkpt lat="43.09844583976818" lon="11.43196828987733"><ele>157.0</ele><time>2026-04-11T09:19:17Z</time></trkpt><trkpt lat="43.09833923510872" lon="11.43186066391152"><ele>158.0</ele><time>2026-04-11T09:19:21Z</time></trkpt><trkpt lat="43.09828115012593" lon="11.431812379609687"><ele>159.0</ele><time>2026-04-11T09:19:23Z</time></trkpt><trkpt lat="43.09820129651039" lon="11.431752097937972"><ele>160.0</ele><time>2026-04-11T09:19:26Z</time></trkpt><trkpt lat="43.09814256924088" lon="11.43169522372965"><ele>161.0</ele><time>2026-04-11T09:19:28Z</time></trkpt><trkpt lat="43.09808060046135" lon="11.431641684607731"><ele>162.0</ele><time>2026-04-11T09:19:30Z</time></trkpt><trkpt lat="43.09801297213681" lon="11.431591190111794"><ele>163.0</ele><time>2026-04-11T09:19:32Z</time></trkpt><trkpt lat="43.097943878689165" lon="11.43155121985275"><ele>163.0</ele><time>2026-04-11T09:19:34Z</time></trkpt><trkpt lat="43.09788411597021" lon="11.431476901704098"><ele>163.0</ele><time>2026-04-11T09:19:36Z</time></trkpt><trkpt lat="43.09782296047586" lon="11.431425547034664"><ele>163.0</ele><time>2026-04-11T09:19:38Z</time></trkpt><trkpt lat="43.09768259996796" lon="11.431329951865846"><ele>163.0</ele><time>2026-04-11T09:19:42Z</time></trkpt><trkpt lat="43.09761508725631" lon="11.43126903435344"><ele>163.0</ele><time>2026-04-11T09:19:44Z</time></trkpt><trkpt lat="43.09754307486585" lon="11.431210141305236"><ele>163.66666666666669</ele><time>2026-04-11T09:19:46Z</time></trkpt><trkpt lat="43.097486858540336" lon="11.431145949562861"><ele>164.33333333333334</ele><time>2026-04-11T09:19:48Z</time></trkpt><trkpt lat="43.0974082338704" lon="11.431107500360252"><ele>165.0</ele><time>2026-04-11T09:19:51Z</time></trkpt><trkpt lat="43.09735023657987" lon="11.4310586355267"><ele>165.66666666666666</ele><time>2026-04-11T09:19:54Z</time></trkpt><trkpt lat="43.09726352567293" lon="11.430990031481581"><ele>166.33333333333331</ele><time>2026-04-11T09:19:57Z</time></trkpt><trkpt lat="43.0971893827085" lon="11.430957911629035"><ele>167.0</ele><time>2026-04-11T09:20:00Z</time></trkpt><trkpt lat="43.09706637399255" lon="11.430833319709219"><ele>167.0</ele><time>2026-04-11T09:20:04Z</time></trkpt><trkpt lat="43.09696758510424" lon="11.430736309557739"><ele>167.0</ele><time>2026-04-11T09:20:06Z</time></trkpt><trkpt lat="43.09688856850143" lon="11.430654275545415"><ele>167.0</ele><time>2026-04-11T09:20:08Z</time></trkpt><trkpt lat="43.09683453007291" lon="11.430603178778943"><ele>167.0</ele><time>2026-04-11T09:20:09Z</time></trkpt><trkpt lat="43.09676821900761" lon="11.430505285551355"><ele>167.0</ele><time>2026-04-11T09:20:11Z</time></trkpt><trkpt lat="43.09669506701317" lon="11.430410218470493"><ele>167.8</ele><time>2026-04-11T09:20:13Z</time></trkpt><trkpt lat="43.09661532649654" lon="11.43036524150846"><ele>168.6</ele><time>2026-04-11T09:20:15Z</time></trkpt><trkpt lat="43.09656125377407" lon="11.430282695609675"><ele>169.4</ele><time>2026-04-11T09:20:17Z</time></trkpt><trkpt lat="43.09649309560727" lon="11.430226811059635"><ele>170.20000000000002</ele><time>2026-04-11T09:20:19Z</time></trkpt><trkpt lat="43.09640781178779" lon="11.430125949226914"><ele>171.0</ele><time>2026-04-11T09:20:22Z</time></trkpt><trkpt lat="43.096293506088664" lon="11.42995464737595"><ele>171.0</ele><time>2026-04-11T09:20:26Z</time></trkpt><trkpt lat="43.0962345906151" lon="11.429892671959752"><ele>171.0</ele><time>2026-04-11T09:20:28Z</time></trkpt><trkpt lat="43.09616847267996" lon="11.42981264628373"><ele>171.0</ele><time>2026-04-11T09:20:30Z</time></trkpt><trkpt lat="43.09611107275643" lon="11.429742156877822"><ele>171.0</ele><time>2026-04-11T09:20:32Z</time></trkpt><trkpt lat="43.09603457120758" lon="11.429677640429848"><ele>171.0</ele><time>2026-04-11T09:20:36Z</time></trkpt><trkpt lat="43.095971674298966" lon="11.42960513851932"><ele>171.0</ele><time>2026-04-11T09:20:39Z</time></trkpt><trkpt lat="43.09588188810108" lon="11.429552435770027"><ele>172.0</ele><time>2026-04-11T09:20:42Z</time></trkpt><trkpt lat="43.095810766334516" lon="11.42949078265394"><ele>173.0</ele><time>2026-04-11T09:20:45Z</time></trkpt><trkpt lat="43.09564406789353" lon="11.42935730227784"><ele>174.0</ele><time>2026-04-11T09:20:51Z</time></trkpt><trkpt lat="43.095573461493096" lon="11.429321233529208"><ele>175.0</ele><time>2026-04-11T09:20:53Z</time></trkpt><trkpt lat="43.09547160535151" lon="11.429259931421875"><ele>175.8</ele><time>2026-04-11T09:20:57Z</time></trkpt><trkpt lat="43.09539360758636" lon="11.429190817348225"><ele>176.6</ele><time>2026-04-11T09:21:00Z</time></trkpt><trkpt lat="43.0953227679756" lon="11.429124105436873"><ele>177.39999999999998</ele><time>2026-04-11T09:21:03Z</time></trkpt><trkpt lat="43.095259385283306" lon="11.429082451095207"><ele>178.2</ele><time>2026-04-11T09:21:05Z</time></trkpt><trkpt lat="43.095196097403786" lon="11.429043628649605"><ele>179.0</ele><time>2026-04-11T09:21:07Z</time></trkpt><trkpt lat="43.09504258362085" lon="11.428918075298263"><ele>179.0</ele><time>2026-04-11T09:21:13Z</time></trkpt><trkpt lat="43.09497917407828" lon="11.428871415294559"><ele>179.0</ele><time>2026-04-11T09:21:15Z</time></trkpt><trkpt lat="43.09492525256277" lon="11.428818618738033"><ele>179.0</ele><time>2026-04-11T09:21:17Z</time></trkpt><trkpt lat="43.09483933421223" lon="11.42877184263326"><ele>179.0</ele><time>2026-04-11T09:21:20Z</time></trkpt><trkpt lat="43.094768310165776" lon="11.428732468448038"><ele>179.0</ele><time>2026-04-11T09:21:22Z</time></trkpt><trkpt lat="43.09468862976568" lon="11.428652700324593"><ele>179.0</ele><time>2026-04-11T09:21:24Z</time></trkpt><trkpt lat="43.094618960325015" lon="11.428596031268322"><ele>180.39999999999998</ele><time>2026-04-11T09:21:26Z</time></trkpt><trkpt lat="43.094550396536675" lon="11.42854335674256"><ele>181.8</ele><time>2026-04-11T09:21:28Z</time></trkpt><trkpt lat="43.09442447960601" lon="11.428434449000141"><ele>183.2</ele><time>2026-04-11T09:21:32Z</time></trkpt><trkpt lat="43.094360771717376" lon="11.428406234428428"><ele>184.60000000000002</ele><time>2026-04-11T09:21:34Z</time></trkpt><trkpt lat="43.094279707619634" lon="11.428341620901847"><ele>186.0</ele><time>2026-04-11T09:21:37Z</time></trkpt><trkpt lat="43.094188408818546" lon="11.428309734980182"><ele>186.0</ele><time>2026-04-11T09:21:40Z</time></trkpt><trkpt lat="43.09412637590425" lon="11.428261192687648"><ele>186.0</ele><time>2026-04-11T09:21:43Z</time></trkpt><trkpt lat="43.094069544146826" lon="11.428207699880671"><ele>186.0</ele><time>2026-04-11T09:21:46Z</time></trkpt><trkpt lat="43.094000320122994" lon="11.428154170711531"><ele>186.0</ele><time>2026-04-11T09:21:49Z</time></trkpt><trkpt lat="43.093857121296544" lon="11.42805104044994"><ele>186.0</ele><time>2026-04-11T09:21:56Z</time></trkpt><trkpt lat="43.093801312561276" lon="11.428009367864984"><ele>186.0</ele><time>2026-04-11T09:21:58Z</time></trkpt><trkpt lat="43.093739507563846" lon="11.427965812129104"><ele>187.0</ele><time>2026-04-11T09:22:01Z</time></trkpt><trkpt lat="43.093667285305266" lon="11.427906361431218"><ele>188.0</ele><time>2026-04-11T09:22:04Z</time></trkpt><trkpt lat="43.093608715694174" lon="11.427871290541644"><ele>189.0</ele><time>2026-04-11T09:22:06Z</time></trkpt><trkpt lat="43.09353618084771" lon="11.427802138848909"><ele>190.0</ele><time>2026-04-11T09:22:09Z</time></trkpt><trkpt lat="43.09345591280432" lon="11.427766147614433"><ele>191.0</ele><time>2026-04-11T09:22:12Z</time></trkpt><trkpt lat="43.09332123248811" lon="11.42766050070405"><ele>191.0</ele><time>2026-04-11T09:22:16Z</time></trkpt><trkpt lat="43.093265793047316" lon="11.427610812185796"><ele>191.0</ele><time>2026-04-11T09:22:18Z</time></trkpt><trkpt lat="43.093203959706074" lon="11.42758302547049"><ele>191.0</ele><time>2026-04-11T09:22:20Z</time></trkpt><trkpt lat="43.093152181485706" lon="11.427530187400299"><ele>191.0</ele><time>2026-04-11T09:22:22Z</time></trkpt><trkpt lat="43.093091771614624" lon="11.427481908952407"><ele>191.0</ele><time>2026-04-11T09:22:25Z</time></trkpt><trkpt lat="43.09300504081672" lon="11.4274262685761"><ele>191.0</ele><time>2026-04-11T09:22:28Z</time></trkpt><trkpt lat="43.09293626334351" lon="11.427381146852031"><ele>191.0</ele><time>2026-04-11T09:22:32Z</time></trkpt><trkpt lat="43.09287929203926" lon="11.42733651309844"><ele>191.60000000000002</ele><time>2026-04-11T09:22:35Z</time></trkpt><trkpt lat="43.0927350200646" lon="11.427245407568256"><ele>192.2</ele><time>2026-04-11T09:22:41Z</time></trkpt><trkpt lat="43.0926724722938" lon="11.427187887391979"><ele>192.8</ele><time>2026-04-11T09:22:44Z</time></trkpt><trkpt lat="43.0926012108381" lon="11.427137684865148"><ele>193.39999999999998</ele><time>2026-04-11T09:22:47Z</time></trkpt><trkpt lat="43.092531181043476" lon="11.427079987823811"><ele>194.0</ele><time>2026-04-11T09:22:50Z</time></trkpt><trkpt lat="43.09245768978639" lon="11.427037682098044"><ele>195.2</ele><time>2026-04-11T09:22:53Z</time></trkpt><trkpt lat="43.0923968062074" lon="11.426984303014295"><ele>196.39999999999998</ele><time>2026-04-11T09:22:56Z</time></trkpt><trkpt lat="43.09225002119341" lon="11.42686788836069"><ele>197.6</ele><time>2026-04-11T09:23:02Z</time></trkpt><trkpt lat="43.09217831904625" lon="11.42682611091049"><ele>198.8</ele><time>2026-04-11T09:23:05Z</time></trkpt><trkpt lat="43.09211131985933" lon="11.426775702203471"><ele>200.0</ele><time>2026-04-11T09:23:08Z</time></trkpt><trkpt lat="43.0920387814717" lon="11.426716393840737"><ele>200.0</ele><time>2026-04-11T09:23:11Z</time></trkpt><trkpt lat="43.09196209396922" lon="11.426658715020617"><ele>200.0</ele><time>2026-04-11T09:23:14Z</time></trkpt><trkpt lat="43.09189007563437" lon="11.426614342628122"><ele>200.0</ele><time>2026-04-11T09:23:17Z</time></trkpt><trkpt lat="43.09176385317117" lon="11.426504169110393"><ele>200.0</ele><time>2026-04-11T09:23:22Z</time></trkpt><trkpt lat="43.09168757259547" lon="11.426454723056057"><ele>200.0</ele><time>2026-04-11T09:23:25Z</time></trkpt><trkpt lat="43.09161709402339" lon="11.426409856700133"><ele>199.8</ele><time>2026-04-11T09:23:28Z</time></trkpt><trkpt lat="43.09155113930605" lon="11.42635901031414"><ele>199.6</ele><time>2026-04-11T09:23:31Z</time></trkpt><trkpt lat="43.09147720412312" lon="11.42628698064236"><ele>199.39999999999998</ele><time>2026-04-11T09:23:34Z</time></trkpt><trkpt lat="43.09139710433084" lon="11.42622459070997"><ele>199.2</ele><time>2026-04-11T09:23:37Z</time></trkpt><trkpt lat="43.09132881422805" lon="11.426150252874491"><ele>199.0</ele><time>2026-04-11T09:23:40Z</time></trkpt><trkpt lat="43.09118584329813" lon="11.426075168808497"><ele>199.66666666666666</ele><time>2026-04-11T09:23:45Z</time></trkpt><trkpt lat="43.09111890855982" lon="11.426092064484001"><ele>200.33333333333331</ele><time>2026-04-11T09:23:47Z</time></trkpt><trkpt lat="43.09104015204501" lon="11.42605181444597"><ele>201.0</ele><time>2026-04-11T09:23:50Z</time></trkpt><trkpt lat="43.09095921634494" lon="11.426021172253707"><ele>201.66666666666669</ele><time>2026-04-11T09:23:53Z</time></trkpt><trkpt lat="43.09086666540307" lon="11.426002111690206"><ele>202.33333333333334</ele><time>2026-04-11T09:23:56Z</time></trkpt><trkpt lat="43.09078488772863" lon="11.425959809289484"><ele>203.0</ele><time>2026-04-11T09:23:59Z</time></trkpt><trkpt lat="43.0906912102244" lon="11.425931745793417"><ele>204.2</ele><time>2026-04-11T09:24:02Z</time></trkpt><trkpt lat="43.090551446689" lon="11.425901405671276"><ele>205.4</ele><time>2026-04-11T09:24:06Z</time></trkpt><trkpt lat="43.09046498811651" lon="11.425863369260721"><ele>206.6</ele><time>2026-04-11T09:24:09Z</time></trkpt><trkpt lat="43.09037666185502" lon="11.425844258282556"><ele>207.79999999999998</ele><time>2026-04-11T09:24:12Z</time></trkpt><trkpt lat="43.09030390280991" lon="11.425824781563886"><ele>209.0</ele><time>2026-04-11T09:24:15Z</time></trkpt><trkpt lat="43.09022795162475" lon="11.425813351043145"><ele>209.0</ele><time>2026-04-11T09:24:18Z</time></trkpt><trkpt lat="43.09014956643444" lon="11.425776961451666"><ele>209.0</ele><time>2026-04-11T09:24:21Z</time></trkpt><trkpt lat="43.09006546733264" lon="11.425748868750158"><ele>209.0</ele><time>2026-04-11T09:24:24Z</time></trkpt><trkpt lat="43.08990218105605" lon="11.425664733865657"><ele>209.0</ele><time>2026-04-11T09:24:28Z</time></trkpt><trkpt lat="43.08981560958872" lon="11.425645412686317"><ele>209.0</ele><time>2026-04-11T09:24:31Z</time></trkpt><trkpt lat="43.0897192508643" lon="11.425637361498762"><ele>209.83333333333334</ele><time>2026-04-11T09:24:35Z</time></trkpt><trkpt lat="43.08964372443377" lon="11.42560404356587"><ele>210.66666666666669</ele><time>2026-04-11T09:24:38Z</time></trkpt><trkpt lat="43.0895688087642" lon="11.425575695484179"><ele>211.5</ele><time>2026-04-11T09:24:41Z</time></trkpt><trkpt lat="43.08949808773612" lon="11.425576737024794"><ele>212.33333333333331</ele><time>2026-04-11T09:24:44Z</time></trkpt><trkpt lat="43.08942554139352" lon="11.425541121839176"><ele>213.16666666666666</ele><time>2026-04-11T09:24:47Z</time></trkpt><trkpt lat="43.089289814322655" lon="11.425522095291935"><ele>214.0</ele><time>2026-04-11T09:24:52Z</time></trkpt><trkpt lat="43.08921689890797" lon="11.425483523393135"><ele>215.79999999999998</ele><time>2026-04-11T09:24:55Z</time></trkpt><trkpt lat="43.089146299900285" lon="11.425421913445065"><ele>217.59999999999997</ele><time>2026-04-11T09:24:58Z</time></trkpt><trkpt lat="43.0890659116415" lon="11.425394396599579"><ele>219.4</ele><time>2026-04-11T09:25:02Z</time></trkpt><trkpt lat="43.089001967765284" lon="11.425334825247695"><ele>221.2</ele><time>2026-04-11T09:25:06Z</time></trkpt><trkpt lat="43.08896111382846" lon="11.425262517120448"><ele>223.0</ele><time>2026-04-11T09:25:09Z</time></trkpt><trkpt lat="43.08895286914258" lon="11.425056103708608"><ele>225.83333333333331</ele><time>2026-04-11T09:25:17Z</time></trkpt><trkpt lat="43.08894754156388" lon="11.42495596114429"><ele>228.66666666666666</ele><time>2026-04-11T09:25:21Z</time></trkpt><trkpt lat="43.08895894268408" lon="11.424854851246954"><ele>231.5</ele><time>2026-04-11T09:25:25Z</time></trkpt><trkpt lat="43.088987532972446" lon="11.424768771729383"><ele>234.33333333333331</ele><time>2026-04-11T09:25:28Z</time></trkpt><trkpt lat="43.08899726458282" lon="11.424661254784608"><ele>237.16666666666666</ele><time>2026-04-11T09:25:32Z</time></trkpt><trkpt lat="43.08902328983208" lon="11.424470799381696"><ele>240.0</ele><time>2026-04-11T09:25:40Z</time></trkpt><trkpt lat="43.08903810695965" lon="11.42437923167757"><ele>239.66666666666666</ele><time>2026-04-11T09:25:44Z</time></trkpt><trkpt lat="43.08905943978286" lon="11.424285379521297"><ele>239.33333333333331</ele><time>2026-04-11T09:25:47Z</time></trkpt><trkpt lat="43.089073761596545" lon="11.424199260680515"><ele>239.0</ele><time>2026-04-11T09:25:50Z</time></trkpt><trkpt lat="43.08908761194658" lon="11.424108407517524"><ele>238.66666666666666</ele><time>2026-04-11T09:25:53Z</time></trkpt><trkpt lat="43.089122010713425" lon="11.423941071050985"><ele>238.33333333333331</ele><time>2026-04-11T09:25:59Z</time></trkpt><trkpt lat="43.08914333959511" lon="11.423830514876013"><ele>238.0</ele><time>2026-04-11T09:26:03Z</time></trkpt><trkpt lat="43.08915116250883" lon="11.42372698698905"><ele>237.99999999999997</ele><time>2026-04-11T09:26:07Z</time></trkpt><trkpt lat="43.08915986072739" lon="11.423621178328252"><ele>238.0</ele><time>2026-04-11T09:26:11Z</time></trkpt><trkpt lat="43.08917410831305" lon="11.423527075019091"><ele>238.0</ele><time>2026-04-11T09:26:15Z</time></trkpt><trkpt lat="43.089180876977494" lon="11.423332894309354"><ele>238.0</ele><time>2026-04-11T09:26:23Z</time></trkpt><trkpt lat="43.08916937558606" lon="11.423234971917054"><ele>237.99999999999997</ele><time>2026-04-11T09:26:27Z</time></trkpt><trkpt lat="43.08914619267532" lon="11.423144911662726"><ele>238.0</ele><time>2026-04-11T09:26:31Z</time></trkpt><trkpt lat="43.089111555285584" lon="11.423060168020744"><ele>241.99999999999997</ele><time>2026-04-11T09:26:35Z</time></trkpt><trkpt lat="43.08908421774324" lon="11.422981814474769"><ele>246.0</ele><time>2026-04-11T09:26:39Z</time></trkpt><trkpt lat="43.08901676538123" lon="11.422815899641744"><ele>250.0</ele><time>2026-04-11T09:26:47Z</time></trkpt><trkpt lat="43.08898164237458" lon="11.422727794710534"><ele>254.0</ele><time>2026-04-11T09:26:51Z</time></trkpt><trkpt lat="43.08894805371941" lon="11.422640363125714"><ele>258.0</ele><time>2026-04-11T09:26:55Z</time></trkpt><trkpt lat="43.088917664577394" lon="11.422560069907124"><ele>262.0</ele><time>2026-04-11T09:26:59Z</time></trkpt><trkpt lat="43.08888682102354" lon="11.42246629459808"><ele>262.2</ele><time>2026-04-11T09:27:03Z</time></trkpt><trkpt lat="43.088808766677595" lon="11.422279723926929"><ele>262.4</ele><time>2026-04-11T09:27:12Z</time></trkpt><trkpt lat="43.088775696307074" lon="11.422187640257144"><ele>262.6</ele><time>2026-04-11T09:27:16Z</time></trkpt><trkpt lat="43.08874057555761" lon="11.42208774354818"><ele>262.8</ele><time>2026-04-11T09:27:20Z</time></trkpt><trkpt lat="43.0887054592219" lon="11.421998168945501"><ele>263.0</ele><time>2026-04-11T09:27:24Z</time></trkpt><trkpt lat="43.088626457330776" lon="11.421843798088293"><ele>262.0</ele><time>2026-04-11T09:27:32Z</time></trkpt><trkpt lat="43.08857580331568" lon="11.421782424633141"><ele>261.0</ele><time>2026-04-11T09:27:36Z</time></trkpt><trkpt lat="43.088528935559964" lon="11.42172293215546"><ele>260.0</ele><time>2026-04-11T09:27:40Z</time></trkpt><trkpt lat="43.08845917453564" lon="11.421692290317003"><ele>259.0</ele><time>2026-04-11T09:27:44Z</time></trkpt><trkpt lat="43.088379855293745" lon="11.421666715367396"><ele>258.0</ele><time>2026-04-11T09:27:48Z</time></trkpt><trkpt lat="43.08825387194649" lon="11.42172114401118"><ele>257.0</ele><time>2026-04-11T09:27:56Z</time></trkpt><trkpt lat="43.08821561616912" lon="11.421794020084826"><ele>261.4</ele><time>2026-04-11T09:28:00Z</time></trkpt><trkpt lat="43.088204137614554" lon="11.421888084840282"><ele>265.79999999999995</ele><time>2026-04-11T09:28:04Z</time></trkpt><trkpt lat="43.08814928184641" lon="11.421979325235137"><ele>270.2</ele><time>2026-04-11T09:28:09Z</time></trkpt><trkpt lat="43.08807918051376" lon="11.422147917903791"><ele>274.59999999999997</ele><time>2026-04-11T09:28:17Z</time></trkpt><trkpt lat="43.088074368577644" lon="11.422249833878542"><ele>279.0</ele><time>2026-04-11T09:28:21Z</time></trkpt><trkpt lat="43.08805282840393" lon="11.422358495776622"><ele>279.59999999999997</ele><time>2026-04-11T09:28:25Z</time></trkpt><trkpt lat="43.08802332218618" lon="11.422458112705055"><ele>280.2</ele><time>2026-04-11T09:28:29Z</time></trkpt><trkpt lat="43.08800689963756" lon="11.422548428261097"><ele>280.79999999999995</ele><time>2026-04-11T09:28:33Z</time></trkpt><trkpt lat="43.087961435253874" lon="11.422752299268502"><ele>281.4</ele><time>2026-04-11T09:28:41Z</time></trkpt><trkpt lat="43.087931927457454" lon="11.422847764032989"><ele>282.0</ele><time>2026-04-11T09:28:45Z</time></trkpt><trkpt lat="43.08791130258753" lon="11.42296217417395"><ele>282.1666666666667</ele><time>2026-04-11T09:28:49Z</time></trkpt><trkpt lat="43.08788242591407" lon="11.423049656105002"><ele>282.3333333333333</ele><time>2026-04-11T09:28:53Z</time></trkpt><trkpt lat="43.087844329466904" lon="11.42313970583047"><ele>282.5</ele><time>2026-04-11T09:28:57Z</time></trkpt><trkpt lat="43.08777848725692" lon="11.423299785375699"><ele>282.66666666666663</ele><time>2026-04-11T09:29:05Z</time></trkpt><trkpt lat="43.08774334090757" lon="11.423383541069576"><ele>282.8333333333333</ele><time>2026-04-11T09:29:09Z</time></trkpt><trkpt lat="43.08769374906397" lon="11.423449430019462"><ele>283.0</ele><time>2026-04-11T09:29:13Z</time></trkpt><trkpt lat="43.08765475490431" lon="11.423528036574856"><ele>283.0</ele><time>2026-04-11T09:29:17Z</time></trkpt><trkpt lat="43.08758126157889" lon="11.423547746644056"><ele>283.0</ele><time>2026-04-11T09:29:21Z</time></trkpt><trkpt lat="43.087477446299026" lon="11.42340967675798"><ele>283.0</ele><time>2026-04-11T09:29:29Z</time></trkpt><trkpt lat="43.08748487970097" lon="11.423315826459506"><ele>283.0</ele><time>2026-04-11T09:29:33Z</time></trkpt><trkpt lat="43.08747666765758" lon="11.42322246697393"><ele>283.0</ele><time>2026-04-11T09:29:37Z</time></trkpt><trkpt lat="43.08745608024387" lon="11.423121713643654"><ele>283.0</ele><time>2026-04-11T09:29:42Z</time></trkpt><trkpt lat="43.08741697040539" lon="11.422946628372436"><ele>287.5</ele><time>2026-04-11T09:29:51Z</time></trkpt><trkpt lat="43.087403988622945" lon="11.422821875790774"><ele>292.0</ele><time>2026-04-11T09:29:56Z</time></trkpt><trkpt lat="43.087370163511146" lon="11.422727263536396"><ele>296.5</ele><time>2026-04-11T09:30:01Z</time></trkpt><trkpt lat="43.08732990243151" lon="11.422641682440554"><ele>301.0</ele><time>2026-04-11T09:30:05Z</time></trkpt><trkpt lat="43.087209401056384" lon="11.42259353795109"><ele>305.5</ele><time>2026-04-11T09:30:13Z</time></trkpt><trkpt lat="43.08715150643711" lon="11.42263097057758"><ele>310.0</ele><time>2026-04-11T09:30:17Z</time></trkpt><trkpt lat="43.08714042199151" lon="11.42272767045281"><ele>310.0</ele><time>2026-04-11T09:30:21Z</time></trkpt><trkpt lat="43.087128557422204" lon="11.422816532662614"><ele>310.0</ele><time>2026-04-11T09:30:25Z</time></trkpt><trkpt lat="43.087120365614894" lon="11.42290962137486"><ele>310.0</ele><time>2026-04-11T09:30:29Z</time></trkpt><trkpt lat="43.087090491086414" lon="11.423079678398778"><ele>310.0</ele><time>2026-04-11T09:30:37Z</time></trkpt><trkpt lat="43.08706785134629" lon="11.423181243832287"><ele>310.0</ele><time>2026-04-11T09:30:42Z</time></trkpt><trkpt lat="43.087047528959175" lon="11.423270160439746"><ele>310.0</ele><time>2026-04-11T09:30:46Z</time></trkpt><trkpt lat="43.08703149192377" lon="11.423362585527011"><ele>310.0</ele><time>2026-04-11T09:30:50Z</time></trkpt><trkpt lat="43.08699714949467" lon="11.42355561083644"><ele>310.0</ele><time>2026-04-11T09:30:58Z</time></trkpt><trkpt lat="43.086966824184955" lon="11.423649055484505"><ele>310.0</ele><time>2026-04-11T09:31:02Z</time></trkpt><trkpt lat="43.08692415513655" lon="11.423729942430933"><ele>310.0</ele><time>2026-04-11T09:31:06Z</time></trkpt><trkpt lat="43.086871207682876" lon="11.423799261769737"><ele>310.0</ele><time>2026-04-11T09:31:10Z</time></trkpt><trkpt lat="43.086809454577654" lon="11.423842472969804"><ele>310.0</ele><time>2026-04-11T09:31:14Z</time></trkpt><trkpt lat="43.08667249871161" lon="11.42385195935558"><ele>310.0</ele><time>2026-04-11T09:31:22Z</time></trkpt><trkpt lat="43.086606115353355" lon="11.423813068263401"><ele>310.0</ele><time>2026-04-11T09:31:26Z</time></trkpt><trkpt lat="43.086541362333065" lon="11.423771228447736"><ele>310.0</ele><time>2026-04-11T09:31:31Z</time></trkpt><trkpt lat="43.08648659492598" lon="11.423724344551779"><ele>310.0</ele><time>2026-04-11T09:31:35Z</time></trkpt><trkpt lat="43.086370678962" lon="11.423618614667806"><ele>310.0</ele><time>2026-04-11T09:31:43Z</time></trkpt><trkpt lat="43.086381986723566" lon="11.423504486386072"><ele>310.0</ele><time>2026-04-11T09:31:47Z</time></trkpt><trkpt lat="43.08641659157075" lon="11.423411203213073"><ele>313.0</ele><time>2026-04-11T09:31:51Z</time></trkpt><trkpt lat="43.086446503513" lon="11.423323954575507"><ele>316.0</ele><time>2026-04-11T09:31:55Z</time></trkpt><trkpt lat="43.08648441265486" lon="11.423245003665143"><ele>319.0</ele><time>2026-04-11T09:31:59Z</time></trkpt><trkpt lat="43.086542713979064" lon="11.423068792952522"><ele>322.0</ele><time>2026-04-11T09:32:07Z</time></trkpt><trkpt lat="43.08654880951751" lon="11.422968336113483"><ele>325.0</ele><time>2026-04-11T09:32:11Z</time></trkpt><trkpt lat="43.08656025071061" lon="11.4228738888102"><ele>328.0</ele><time>2026-04-11T09:32:15Z</time></trkpt><trkpt lat="43.086538344507815" lon="11.422780142173119"><ele>328.0</ele><time>2026-04-11T09:32:19Z</time></trkpt><trkpt lat="43.086511384149595" lon="11.42269278689256"><ele>328.0</ele><time>2026-04-11T09:32:23Z</time></trkpt><trkpt lat="43.08639145057576" lon="11.422587005501523"><ele>328.0</ele><time>2026-04-11T09:32:31Z</time></trkpt><trkpt lat="43.086318902814334" lon="11.422582117645433"><ele>328.0</ele><time>2026-04-11T09:32:35Z</time></trkpt><trkpt lat="43.08625633901054" lon="11.422624364508048"><ele>328.0</ele><time>2026-04-11T09:32:39Z</time></trkpt><trkpt lat="43.08620599780621" lon="11.422690374046113"><ele>328.0</ele><time>2026-04-11T09:32:43Z</time></trkpt><trkpt lat="43.08616125578176" lon="11.422765335045678"><ele>328.0</ele><time>2026-04-11T09:32:47Z</time></trkpt><trkpt lat="43.08607889090234" lon="11.42293769796795"><ele>328.0</ele><time>2026-04-11T09:32:55Z</time></trkpt><trkpt lat="43.086036558116135" lon="11.423019532982055"><ele>328.0</ele><time>2026-04-11T09:32:59Z</time></trkpt><trkpt lat="43.08598894521065" lon="11.423096098058576"><ele>328.0</ele><time>2026-04-11T09:33:03Z</time></trkpt><trkpt lat="43.08593102047356" lon="11.423164777492797"><ele>328.0</ele><time>2026-04-11T09:33:07Z</time></trkpt><trkpt lat="43.08586971568425" lon="11.423217830707028"><ele>328.0</ele><time>2026-04-11T09:33:11Z</time></trkpt><trkpt lat="43.08573647787786" lon="11.42323050613563"><ele>330.8333333333333</ele><time>2026-04-11T09:33:19Z</time></trkpt><trkpt lat="43.08567935341656" lon="11.423192730433502"><ele>333.66666666666663</ele><time>2026-04-11T09:33:23Z</time></trkpt><trkpt lat="43.085614180111484" lon="11.423132862426419"><ele>336.5</ele><time>2026-04-11T09:33:27Z</time></trkpt><trkpt lat="43.08559622954369" lon="11.423032337968166"><ele>339.3333333333333</ele><time>2026-04-11T09:33:31Z</time></trkpt><trkpt lat="43.08556754801005" lon="11.422943059708649"><ele>342.1666666666667</ele><time>2026-04-11T09:33:35Z</time></trkpt><trkpt lat="43.085522234131" lon="11.422772760426792"><ele>345.0</ele><time>2026-04-11T09:33:43Z</time></trkpt><trkpt lat="43.08549520897931" lon="11.42266834731052"><ele>345.6666666666667</ele><time>2026-04-11T09:33:48Z</time></trkpt><trkpt lat="43.085474561352875" lon="11.422563687100109"><ele>346.3333333333333</ele><time>2026-04-11T09:33:52Z</time></trkpt><trkpt lat="43.08544798037704" lon="11.422473811809752"><ele>347.0</ele><time>2026-04-11T09:33:56Z</time></trkpt><trkpt lat="43.08539692965858" lon="11.422299830049402"><ele>347.66666666666663</ele><time>2026-04-11T09:34:02Z</time></trkpt><trkpt lat="43.08536775646059" lon="11.422194624205945"><ele>348.3333333333333</ele><time>2026-04-11T09:34:05Z</time></trkpt><trkpt lat="43.085336878528416" lon="11.422108284891166"><ele>349.0</ele><time>2026-04-11T09:34:09Z</time></trkpt><trkpt lat="43.085286628207264" lon="11.42201153022221"><ele>348.2</ele><time>2026-04-11T09:34:12Z</time></trkpt><trkpt lat="43.08521764015204" lon="11.421940197548157"><ele>347.4</ele><time>2026-04-11T09:34:15Z</time></trkpt><trkpt lat="43.08514738700564" lon="11.421852893006982"><ele>346.6</ele><time>2026-04-11T09:34:18Z</time></trkpt><trkpt lat="43.0850231670991" lon="11.42176893122886"><ele>345.8</ele><time>2026-04-11T09:34:22Z</time></trkpt><trkpt lat="43.08494891202423" lon="11.421720911428206"><ele>345.0</ele><time>2026-04-11T09:34:24Z</time></trkpt><trkpt lat="43.08485780017397" lon="11.421676560084476"><ele>345.0</ele><time>2026-04-11T09:34:27Z</time></trkpt><trkpt lat="43.084786586953804" lon="11.42163918088206"><ele>345.0</ele><time>2026-04-11T09:34:29Z</time></trkpt><trkpt lat="43.08470128837298" lon="11.421612592303495"><ele>345.0</ele><time>2026-04-11T09:34:31Z</time></trkpt><trkpt lat="43.08461140680498" lon="11.421564804926867"><ele>345.0</ele><time>2026-04-11T09:34:33Z</time></trkpt><trkpt lat="43.08451375548706" lon="11.421511774836972"><ele>345.0</ele><time>2026-04-11T09:34:35Z</time></trkpt><trkpt lat="43.084407959918636" lon="11.421462070405198"><ele>345.0</ele><time>2026-04-11T09:34:37Z</time></trkpt><trkpt lat="43.084309505301526" lon="11.421397879994773"><ele>345.0</ele><time>2026-04-11T09:34:39Z</time></trkpt><trkpt lat="43.08413300922299" lon="11.421261000659792"><ele>345.0</ele><time>2026-04-11T09:34:43Z</time></trkpt><trkpt lat="43.084053659290795" lon="11.421186786927613"><ele>345.0</ele><time>2026-04-11T09:34:45Z</time></trkpt><trkpt lat="43.08399352156128" lon="11.421134013560955"><ele>345.3333333333333</ele><time>2026-04-11T09:34:47Z</time></trkpt><trkpt lat="43.08391772001275" lon="11.421064748349187"><ele>345.6666666666667</ele><time>2026-04-11T09:34:50Z</time></trkpt><trkpt lat="43.08385131171865" lon="11.421027883537246"><ele>346.0</ele><time>2026-04-11T09:34:53Z</time></trkpt><trkpt lat="43.08378681289159" lon="11.420987069323854"><ele>346.33333333333337</ele><time>2026-04-11T09:34:56Z</time></trkpt><trkpt lat="43.08371415349929" lon="11.420959411597611"><ele>346.6666666666667</ele><time>2026-04-11T09:34:59Z</time></trkpt><trkpt lat="43.08364176702961" lon="11.420921850824575"><ele>347.0</ele><time>2026-04-11T09:35:03Z</time></trkpt><trkpt lat="43.08348615410059" lon="11.420892020771259"><ele>347.0</ele><time>2026-04-11T09:35:10Z</time></trkpt><trkpt lat="43.08341448191049" lon="11.420852202925515"><ele>347.0</ele><time>2026-04-11T09:35:14Z</time></trkpt><trkpt lat="43.08334609390579" lon="11.420823252302313"><ele>347.0</ele><time>2026-04-11T09:35:17Z</time></trkpt><trkpt lat="43.083261658846" lon="11.420788938530212"><ele>347.0</ele><time>2026-04-11T09:35:20Z</time></trkpt><trkpt lat="43.083185091341" lon="11.420766012887624"><ele>347.0</ele><time>2026-04-11T09:35:24Z</time></trkpt><trkpt lat="43.08304494966454" lon="11.42072284248916"><ele>348.6</ele><time>2026-04-11T09:35:31Z</time></trkpt><trkpt lat="43.08297820586528" lon="11.420698304812609"><ele>350.20000000000005</ele><time>2026-04-11T09:35:34Z</time></trkpt><trkpt lat="43.08288843714519" lon="11.420672071355117"><ele>351.8</ele><time>2026-04-11T09:35:38Z</time></trkpt><trkpt lat="43.082816177395486" lon="11.42064267837952"><ele>353.4</ele><time>2026-04-11T09:35:42Z</time></trkpt><trkpt lat="43.08274529702859" lon="11.420631584337734"><ele>355.0</ele><time>2026-04-11T09:35:46Z</time></trkpt><trkpt lat="43.08258396618135" lon="11.420580128219605"><ele>355.0</ele><time>2026-04-11T09:35:55Z</time></trkpt><trkpt lat="43.08250824868737" lon="11.420559257119601"><ele>355.0</ele><time>2026-04-11T09:35:59Z</time></trkpt><trkpt lat="43.082437888949634" lon="11.420581663516328"><ele>355.0</ele><time>2026-04-11T09:36:02Z</time></trkpt><trkpt lat="43.08238000196751" lon="11.420545354272424"><ele>355.0</ele><time>2026-04-11T09:36:04Z</time></trkpt><trkpt lat="43.08229886664456" lon="11.420545184622904"><ele>355.0</ele><time>2026-04-11T09:36:07Z</time></trkpt><trkpt lat="43.08215246383953" lon="11.420536320194783"><ele>355.0</ele><time>2026-04-11T09:36:12Z</time></trkpt><trkpt lat="43.08204700668319" lon="11.420538712486186"><ele>354.8333333333333</ele><time>2026-04-11T09:36:15Z</time></trkpt><trkpt lat="43.0819805820334" lon="11.420536818444955"><ele>354.66666666666663</ele><time>2026-04-11T09:36:17Z</time></trkpt><trkpt lat="43.081898746465896" lon="11.420493356288738"><ele>354.5</ele><time>2026-04-11T09:36:20Z</time></trkpt><trkpt lat="43.08183533567193" lon="11.420472447905256"><ele>354.3333333333333</ele><time>2026-04-11T09:36:23Z</time></trkpt><trkpt lat="43.081769968089475" lon="11.420435681014427"><ele>354.1666666666667</ele><time>2026-04-11T09:36:26Z</time></trkpt><trkpt lat="43.08169279418066" lon="11.420364546510932"><ele>354.0</ele><time>2026-04-11T09:36:29Z</time></trkpt><trkpt lat="43.081565002226874" lon="11.42025026930227"><ele>356.6666666666667</ele><time>2026-04-11T09:36:35Z</time></trkpt><trkpt lat="43.08153211037678" lon="11.420169919796152"><ele>359.3333333333333</ele><time>2026-04-11T09:36:38Z</time></trkpt><trkpt lat="43.08148133329192" lon="11.420115405231774"><ele>362.0</ele><time>2026-04-11T09:36:41Z</time></trkpt><trkpt lat="43.08142572824448" lon="11.420034220379037"><ele>364.66666666666663</ele><time>2026-04-11T09:36:45Z</time></trkpt><trkpt lat="43.081371522089206" lon="11.41996506550024"><ele>367.3333333333333</ele><time>2026-04-11T09:36:49Z</time></trkpt><trkpt lat="43.081327405967585" lon="11.419881170323746"><ele>370.0</ele><time>2026-04-11T09:36:53Z</time></trkpt><trkpt lat="43.08122596177474" lon="11.419731719239222"><ele>370.0</ele><time>2026-04-11T09:37:01Z</time></trkpt><trkpt lat="43.08118538774302" lon="11.419662583391524"><ele>370.0</ele><time>2026-04-11T09:37:04Z</time></trkpt><trkpt lat="43.08112938927482" lon="11.419614615831765"><ele>370.0</ele><time>2026-04-11T09:37:07Z</time></trkpt><trkpt lat="43.081069509887165" lon="11.419563442606597"><ele>370.0</ele><time>2026-04-11T09:37:11Z</time></trkpt><trkpt lat="43.08100469767615" lon="11.41950520436694"><ele>370.0</ele><time>2026-04-11T09:37:14Z</time></trkpt><trkpt lat="43.080852308990416" lon="11.419433582542693"><ele>370.0</ele><time>2026-04-11T09:37:22Z</time></trkpt><trkpt lat="43.08078500577218" lon="11.419399979539671"><ele>372.5</ele><time>2026-04-11T09:37:26Z</time></trkpt><trkpt lat="43.08069689931271" lon="11.419388362697646"><ele>375.0</ele><time>2026-04-11T09:37:31Z</time></trkpt><trkpt lat="43.08063558538823" lon="11.419366644322553"><ele>377.5</ele><time>2026-04-11T09:37:35Z</time></trkpt><trkpt lat="43.08049816989592" lon="11.41933036274683"><ele>380.0</ele><time>2026-04-11T09:37:43Z</time></trkpt><trkpt lat="43.080429626135775" lon="11.419312650665375"><ele>382.50000000000006</ele><time>2026-04-11T09:37:47Z</time></trkpt><trkpt lat="43.08035844842244" lon="11.419253092116474"><ele>385.0</ele><time>2026-04-11T09:37:52Z</time></trkpt><trkpt lat="43.08028943512874" lon="11.419221807197687"><ele>385.0</ele><time>2026-04-11T09:37:57Z</time></trkpt><trkpt lat="43.080220755343774" lon="11.419076413018184"><ele>385.0</ele><time>2026-04-11T09:38:05Z</time></trkpt><trkpt lat="43.08019009978727" lon="11.418994256818078"><ele>385.0</ele><time>2026-04-11T09:38:09Z</time></trkpt><trkpt lat="43.0801303982809" lon="11.418920478628573"><ele>385.0</ele><time>2026-04-11T09:38:14Z</time></trkpt><trkpt lat="43.08009112954373" lon="11.418852007747187"><ele>385.0</ele><time>2026-04-11T09:38:18Z</time></trkpt><trkpt lat="43.07998422708399" lon="11.418722256670863"><ele>387.00000000000006</ele><time>2026-04-11T09:38:28Z</time></trkpt><trkpt lat="43.07993153938135" lon="11.418647989738123"><ele>389.0</ele><time>2026-04-11T09:38:32Z</time></trkpt><trkpt lat="43.07987086155819" lon="11.418602911016585"><ele>391.0</ele><time>2026-04-11T09:38:36Z</time></trkpt><trkpt lat="43.07980739208556" lon="11.418577784567331"><ele>393.0</ele><time>2026-04-11T09:38:40Z</time></trkpt><trkpt lat="43.07966647665427" lon="11.418529418836552"><ele>395.00000000000006</ele><time>2026-04-11T09:38:49Z</time></trkpt><trkpt lat="43.079604724762184" lon="11.418486174979929"><ele>397.0</ele><time>2026-04-11T09:38:53Z</time></trkpt><trkpt lat="43.079539754231575" lon="11.418448091886335"><ele>397.0</ele><time>2026-04-11T09:38:56Z</time></trkpt><trkpt lat="43.07946541024421" lon="11.418418153238514"><ele>397.0</ele><time>2026-04-11T09:39:00Z</time></trkpt><trkpt lat="43.079387539087634" lon="11.418388322369438"><ele>397.0</ele><time>2026-04-11T09:39:04Z</time></trkpt><trkpt lat="43.079235281802035" lon="11.418281356254727"><ele>397.0</ele><time>2026-04-11T09:39:12Z</time></trkpt><trkpt lat="43.07918188931348" lon="11.418207533645178"><ele>397.0</ele><time>2026-04-11T09:39:16Z</time></trkpt><trkpt lat="43.079116396711704" lon="11.418158003894511"><ele>396.6666666666667</ele><time>2026-04-11T09:39:20Z</time></trkpt><trkpt lat="43.07906268461883" lon="11.418108702385227"><ele>396.33333333333337</ele><time>2026-04-11T09:39:24Z</time></trkpt><trkpt lat="43.07900622195218" lon="11.41804620640737"><ele>396.0</ele><time>2026-04-11T09:39:28Z</time></trkpt><trkpt lat="43.078867892594495" lon="11.417996620503585"><ele>395.66666666666663</ele><time>2026-04-11T09:39:36Z</time></trkpt><trkpt lat="43.0787990391648" lon="11.417986017626683"><ele>395.3333333333333</ele><time>2026-04-11T09:39:39Z</time></trkpt><trkpt lat="43.07873395955763" lon="11.417941077146518"><ele>395.0</ele><time>2026-04-11T09:39:43Z</time></trkpt><trkpt lat="43.07866651126422" lon="11.417944111440509"><ele>394.99999999999994</ele><time>2026-04-11T09:39:47Z</time></trkpt><trkpt lat="43.07858625275086" lon="11.417951884387618"><ele>395.0</ele><time>2026-04-11T09:39:52Z</time></trkpt><trkpt lat="43.07845715662418" lon="11.417930398045623"><ele>395.0</ele><time>2026-04-11T09:40:00Z</time></trkpt><trkpt lat="43.07839009951788" lon="11.417916940799673"><ele>395.0</ele><time>2026-04-11T09:40:04Z</time></trkpt><trkpt lat="43.07832639208294" lon="11.417915019458217"><ele>394.99999999999994</ele><time>2026-04-11T09:40:08Z</time></trkpt><trkpt lat="43.07825769491357" lon="11.417905238718694"><ele>395.0</ele><time>2026-04-11T09:40:12Z</time></trkpt><trkpt lat="43.07819140143524" lon="11.417902259346087"><ele>397.8</ele><time>2026-04-11T09:40:16Z</time></trkpt><trkpt lat="43.07805296640197" lon="11.417872604715155"><ele>400.6</ele><time>2026-04-11T09:40:24Z</time></trkpt><trkpt lat="43.07798407140502" lon="11.417877291288534"><ele>403.4</ele><time>2026-04-11T09:40:29Z</time></trkpt><trkpt lat="43.07791535745361" lon="11.417873250851317"><ele>406.2</ele><time>2026-04-11T09:40:33Z</time></trkpt><trkpt lat="43.07785240369818" lon="11.417887258568923"><ele>409.0</ele><time>2026-04-11T09:40:37Z</time></trkpt><trkpt lat="43.07771289599648" lon="11.417919947160117"><ele>409.00000000000006</ele><time>2026-04-11T09:40:44Z</time></trkpt><trkpt lat="43.07765085847798" lon="11.41790048078685"><ele>409.0</ele><time>2026-04-11T09:40:47Z</time></trkpt><trkpt lat="43.07759124250422" lon="11.417872650792088"><ele>409.0</ele><time>2026-04-11T09:40:50Z</time></trkpt><trkpt lat="43.077516634801704" lon="11.41787781660612"><ele>409.0</ele><time>2026-04-11T09:40:53Z</time></trkpt><trkpt lat="43.07743886085411" lon="11.41787073736082"><ele>409.00000000000006</ele><time>2026-04-11T09:40:57Z</time></trkpt><trkpt lat="43.077376426966104" lon="11.417801569424084"><ele>409.0</ele><time>2026-04-11T09:41:00Z</time></trkpt><trkpt lat="43.077236602250565" lon="11.417696807826204"><ele>412.00000000000006</ele><time>2026-04-11T09:41:07Z</time></trkpt><trkpt lat="43.077179195421884" lon="11.417638200612599"><ele>415.0</ele><time>2026-04-11T09:41:10Z</time></trkpt><trkpt lat="43.077102349706045" lon="11.417584110535559"><ele>418.0</ele><time>2026-04-11T09:41:13Z</time></trkpt><trkpt lat="43.07702993762353" lon="11.417546536822638"><ele>421.0</ele><time>2026-04-11T09:41:16Z</time></trkpt><trkpt lat="43.07695991738502" lon="11.417490560248336"><ele>424.00000000000006</ele><time>2026-04-11T09:41:19Z</time></trkpt><trkpt lat="43.07691427371053" lon="11.417402321771663"><ele>427.0</ele><time>2026-04-11T09:41:22Z</time></trkpt><trkpt lat="43.076866467154495" lon="11.417220304876562"><ele>427.50000000000006</ele><time>2026-04-11T09:41:28Z</time></trkpt><trkpt lat="43.076837365125876" lon="11.417128853776646"><ele>428.0</ele><time>2026-04-11T09:41:32Z</time></trkpt><trkpt lat="43.0768175915575" lon="11.417044559456942"><ele>428.5</ele><time>2026-04-11T09:41:36Z</time></trkpt><trkpt lat="43.0767785379842" lon="11.416976833620286"><ele>429.0</ele><time>2026-04-11T09:41:40Z</time></trkpt><trkpt lat="43.07672688027516" lon="11.416910264062546"><ele>429.50000000000006</ele><time>2026-04-11T09:41:44Z</time></trkpt><trkpt lat="43.0765909459338" lon="11.416852479643152"><ele>430.0</ele><time>2026-04-11T09:41:53Z</time></trkpt><trkpt lat="43.07652368196797" lon="11.416820264494925"><ele>430.00000000000006</ele><time>2026-04-11T09:41:57Z</time></trkpt><trkpt lat="43.0764566487864" lon="11.41679875975904"><ele>430.0</ele><time>2026-04-11T09:42:01Z</time></trkpt><trkpt lat="43.07639125519491" lon="11.41678574501209"><ele>430.0</ele><time>2026-04-11T09:42:05Z</time></trkpt><trkpt lat="43.076262445634576" lon="11.416740050499858"><ele>430.0</ele><time>2026-04-11T09:42:13Z</time></trkpt><trkpt lat="43.07618142294045" lon="11.416730364944195"><ele>430.00000000000006</ele><time>2026-04-11T09:42:17Z</time></trkpt><trkpt lat="43.07609765980658" lon="11.41667924915815"><ele>430.0</ele><time>2026-04-11T09:42:21Z</time></trkpt><trkpt lat="43.076030406156406" lon="11.41661813371704"><ele>430.00000000000006</ele><time>2026-04-11T09:42:25Z</time></trkpt><trkpt lat="43.07596055124962" lon="11.416585673689275"><ele>430.0</ele><time>2026-04-11T09:42:28Z</time></trkpt><trkpt lat="43.075833321281614" lon="11.4164932523224"><ele>430.0</ele><time>2026-04-11T09:42:34Z</time></trkpt><trkpt lat="43.07577777649173" lon="11.416442534371258"><ele>430.0</ele><time>2026-04-11T09:42:37Z</time></trkpt><trkpt lat="43.07570583881335" lon="11.41639362586591"><ele>430.00000000000006</ele><time>2026-04-11T09:42:41Z</time></trkpt><trkpt lat="43.07564751899132" lon="11.41635864246346"><ele>430.0</ele><time>2026-04-11T09:42:45Z</time></trkpt><trkpt lat="43.075580584862216" lon="11.416306677070626"><ele>431.0</ele><time>2026-04-11T09:42:49Z</time></trkpt><trkpt lat="43.07545780292601" lon="11.416207689404944"><ele>432.0</ele><time>2026-04-11T09:42:56Z</time></trkpt><trkpt lat="43.075390487072255" lon="11.416146479949761"><ele>433.0</ele><time>2026-04-11T09:43:00Z</time></trkpt><trkpt lat="43.075320674591765" lon="11.41610265477013"><ele>434.0</ele><time>2026-04-11T09:43:04Z</time></trkpt><trkpt lat="43.07525480291956" lon="11.41604238492379"><ele>435.0</ele><time>2026-04-11T09:43:08Z</time></trkpt><trkpt lat="43.07518624606006" lon="11.416004729476498"><ele>435.0</ele><time>2026-04-11T09:43:12Z</time></trkpt><trkpt lat="43.07505263818205" lon="11.415902808044883"><ele>435.0</ele><time>2026-04-11T09:43:20Z</time></trkpt><trkpt lat="43.07497613973998" lon="11.415873419522349"><ele>435.0</ele><time>2026-04-11T09:43:24Z</time></trkpt><trkpt lat="43.07490271348095" lon="11.415847390409253"><ele>435.0</ele><time>2026-04-11T09:43:28Z</time></trkpt><trkpt lat="43.07483396668767" lon="11.415797635750023"><ele>435.0</ele><time>2026-04-11T09:43:32Z</time></trkpt><trkpt lat="43.074766639653326" lon="11.415783598166813"><ele>436.0</ele><time>2026-04-11T09:43:37Z</time></trkpt><trkpt lat="43.07461871933132" lon="11.415740646001074"><ele>437.0</ele><time>2026-04-11T09:43:46Z</time></trkpt><trkpt lat="43.07455329960077" lon="11.41572600768994"><ele>438.0</ele><time>2026-04-11T09:43:50Z</time></trkpt><trkpt lat="43.074478427598706" lon="11.415700118625962"><ele>439.0</ele><time>2026-04-11T09:43:55Z</time></trkpt><trkpt lat="43.07440536316227" lon="11.415689202704446"><ele>440.0</ele><time>2026-04-11T09:44:00Z</time></trkpt><trkpt lat="43.074356578673836" lon="11.415509640736708"><ele>441.66666666666663</ele><time>2026-04-11T09:44:09Z</time></trkpt><trkpt lat="43.07433820953676" lon="11.415401583308071"><ele>443.3333333333333</ele><time>2026-04-11T09:44:14Z</time></trkpt><trkpt lat="43.07436868852672" lon="11.415316753138786"><ele>445.0</ele><time>2026-04-11T09:44:19Z</time></trkpt><trkpt lat="43.074363622417565" lon="11.415200648650801"><ele>446.66666666666663</ele><time>2026-04-11T09:44:24Z</time></trkpt><trkpt lat="43.07435856393827" lon="11.41501962777293"><ele>448.3333333333333</ele><time>2026-04-11T09:44:33Z</time></trkpt><trkpt lat="43.07434277161828" lon="11.414933151125151"><ele>450.0</ele><time>2026-04-11T09:44:37Z</time></trkpt><trkpt lat="43.07432271074411" lon="11.414846525590628"><ele>450.0</ele><time>2026-04-11T09:44:41Z</time></trkpt><trkpt lat="43.07429711531639" lon="11.414764738187186"><ele>450.0</ele><time>2026-04-11T09:44:45Z</time></trkpt><trkpt lat="43.07423887399479" lon="11.414576344695849"><ele>450.0</ele><time>2026-04-11T09:44:55Z</time></trkpt><trkpt lat="43.0741965839611" lon="11.414503180381125"><ele>450.0</ele><time>2026-04-11T09:45:00Z</time></trkpt><trkpt lat="43.07413967594195" lon="11.414431555043253"><ele>450.0</ele><time>2026-04-11T09:45:05Z</time></trkpt><trkpt lat="43.074067975955394" lon="11.414385726279312"><ele>450.0</ele><time>2026-04-11T09:45:10Z</time></trkpt><trkpt lat="43.073912041839954" lon="11.414359557494464"><ele>453.0</ele><time>2026-04-11T09:45:20Z</time></trkpt><trkpt lat="43.07384360037539" lon="11.414360862984463"><ele>456.0</ele><time>2026-04-11T09:45:25Z</time></trkpt><trkpt lat="43.0737749240548" lon="11.414352874206578"><ele>459.0</ele><time>2026-04-11T09:45:30Z</time></trkpt><trkpt lat="43.073690977792786" lon="11.414342548442004"><ele>462.0</ele><time>2026-04-11T09:45:35Z</time></trkpt><trkpt lat="43.07353971396737" lon="11.414339435755522"><ele>465.0</ele><time>2026-04-11T09:45:45Z</time></trkpt><trkpt lat="43.07347412567536" lon="11.414332410496655"><ele>468.0</ele><time>2026-04-11T09:45:50Z</time></trkpt><trkpt lat="43.073411144966414" lon="11.414300922653844"><ele>468.0</ele><time>2026-04-11T09:45:53Z</time></trkpt><trkpt lat="43.07333897404962" lon="11.414275668864272"><ele>468.0</ele><time>2026-04-11T09:45:57Z</time></trkpt><trkpt lat="43.07318289074559" lon="11.414247397132133"><ele>468.0</ele><time>2026-04-11T09:46:06Z</time></trkpt><trkpt lat="43.07311480304773" lon="11.414244573805659"><ele>468.0</ele><time>2026-04-11T09:46:10Z</time></trkpt><trkpt lat="43.07304878296945" lon="11.414261312480248"><ele>468.0</ele><time>2026-04-11T09:46:14Z</time></trkpt><trkpt lat="43.07297623087806" lon="11.41425943186158"><ele>468.0</ele><time>2026-04-11T09:46:17Z</time></trkpt><trkpt lat="43.072910448021496" lon="11.41427589419045"><ele>469.4</ele><time>2026-04-11T09:46:21Z</time></trkpt><trkpt lat="43.072752249990074" lon="11.414281855287637"><ele>470.79999999999995</ele><time>2026-04-11T09:46:31Z</time></trkpt><trkpt lat="43.072689366211385" lon="11.414269946495155"><ele>472.2</ele><time>2026-04-11T09:46:34Z</time></trkpt><trkpt lat="43.07261897558442" lon="11.414255947102895"><ele>473.6</ele><time>2026-04-11T09:46:39Z</time></trkpt><trkpt lat="43.072562298302906" lon="11.414212285698396"><ele>475.0</ele><time>2026-04-11T09:46:43Z</time></trkpt><trkpt lat="43.07243355629581" lon="11.414149261807713"><ele>475.0</ele><time>2026-04-11T09:46:50Z</time></trkpt><trkpt lat="43.072366606309544" lon="11.414104115390465"><ele>475.0</ele><time>2026-04-11T09:46:54Z</time></trkpt><trkpt lat="43.07230629376488" lon="11.414065419843029"><ele>475.0</ele><time>2026-04-11T09:46:58Z</time></trkpt><trkpt lat="43.07222820883163" lon="11.414028484276974"><ele>475.0</ele><time>2026-04-11T09:47:02Z</time></trkpt><trkpt lat="43.0721674629003" lon="11.413966034363451"><ele>475.0</ele><time>2026-04-11T09:47:05Z</time></trkpt><trkpt lat="43.071994384306045" lon="11.413894035081178"><ele>475.0</ele><time>2026-04-11T09:47:10Z</time></trkpt><trkpt lat="43.07190081032655" lon="11.413859000628804"><ele>475.0</ele><time>2026-04-11T09:47:12Z</time></trkpt><trkpt lat="43.07180663335637" lon="11.413801500351443"><ele>475.0</ele><time>2026-04-11T09:47:14Z</time></trkpt><trkpt lat="43.07171387919312" lon="11.413719729452803"><ele>475.0</ele><time>2026-04-11T09:47:16Z</time></trkpt><trkpt lat="43.0716111012427" lon="11.413634879801174"><ele>475.0</ele><time>2026-04-11T09:47:18Z</time></trkpt><trkpt lat="43.071509401612346" lon="11.413562843936273"><ele>477.75</ele><time>2026-04-11T09:47:20Z</time></trkpt><trkpt lat="43.07140589645011" lon="11.413512532787646"><ele>480.5</ele><time>2026-04-11T09:47:22Z</time></trkpt><trkpt lat="43.0713042824088" lon="11.413532220599109"><ele>483.25</ele><time>2026-04-11T09:47:24Z</time></trkpt><trkpt lat="43.071227170603926" lon="11.413553330159395"><ele>486.0</ele><time>2026-04-11T09:47:26Z</time></trkpt><trkpt lat="43.07106249314633" lon="11.413579445252667"><ele>486.0</ele><time>2026-04-11T09:47:31Z</time></trkpt><trkpt lat="43.07099231152215" lon="11.413552843885547"><ele>486.0</ele><time>2026-04-11T09:47:34Z</time></trkpt><trkpt lat="43.07093004412175" lon="11.413494738568003"><ele>486.0</ele><time>2026-04-11T09:47:37Z</time></trkpt><trkpt lat="43.07086462214364" lon="11.41344855712967"><ele>486.0</ele><time>2026-04-11T09:47:41Z</time></trkpt><trkpt lat="43.070802849760014" lon="11.413386201237925"><ele>486.0</ele><time>2026-04-11T09:47:44Z</time></trkpt><trkpt lat="43.07075058631536" lon="11.413326651907633"><ele>486.0</ele><time>2026-04-11T09:47:48Z</time></trkpt><trkpt lat="43.07065703692674" lon="11.41317637865731"><ele>487.5</ele><time>2026-04-11T09:47:55Z</time></trkpt><trkpt lat="43.070609330542716" lon="11.413119154473721"><ele>489.0</ele><time>2026-04-11T09:47:58Z</time></trkpt><trkpt lat="43.07056164746837" lon="11.413051783909859"><ele>490.5</ele><time>2026-04-11T09:48:02Z</time></trkpt><trkpt lat="43.07050323199346" lon="11.412992672690919"><ele>492.0</ele><time>2026-04-11T09:48:06Z</time></trkpt><trkpt lat="43.07043517456022" lon="11.412934348626399"><ele>493.5</ele><time>2026-04-11T09:48:09Z</time></trkpt><trkpt lat="43.07028200046975" lon="11.41290903215803"><ele>495.0</ele><time>2026-04-11T09:48:18Z</time></trkpt><trkpt lat="43.070217308100354" lon="11.412975632917034"><ele>495.0</ele><time>2026-04-11T09:48:22Z</time></trkpt><trkpt lat="43.07017619955895" lon="11.413055494693166"><ele>495.0</ele><time>2026-04-11T09:48:26Z</time></trkpt><trkpt lat="43.07013462127194" lon="11.413158433633532"><ele>495.0</ele><time>2026-04-11T09:48:29Z</time></trkpt><trkpt lat="43.070101828280215" lon="11.413242104499016"><ele>495.0</ele><time>2026-04-11T09:48:33Z</time></trkpt><trkpt lat="43.07003117657346" lon="11.41339808047358"><ele>495.0</ele><time>2026-04-11T09:48:39Z</time></trkpt><trkpt lat="43.07000668536408" lon="11.413510624873952"><ele>495.0</ele><time>2026-04-11T09:48:42Z</time></trkpt><trkpt lat="43.069988503079514" lon="11.413614861083051"><ele>495.0</ele><time>2026-04-11T09:48:46Z</time></trkpt><trkpt lat="43.07001088148119" lon="11.41373904548661"><ele>495.0</ele><time>2026-04-11T09:48:49Z</time></trkpt><trkpt lat="43.070009630634736" lon="11.413842517697047"><ele>495.0</ele><time>2026-04-11T09:48:53Z</time></trkpt><trkpt lat="43.07001636978874" lon="11.413960309028464"><ele>495.0</ele><time>2026-04-11T09:48:56Z</time></trkpt><trkpt lat="43.070020630157515" lon="11.41417703519743"><ele>495.0</ele><time>2026-04-11T09:49:02Z</time></trkpt><trkpt lat="43.07001199938517" lon="11.414298349449222"><ele>494.8</ele><time>2026-04-11T09:49:05Z</time></trkpt><trkpt lat="43.069996071117906" lon="11.41441842095303"><ele>494.6</ele><time>2026-04-11T09:49:08Z</time></trkpt><trkpt lat="43.06996795743681" lon="11.41452211545262"><ele>494.4</ele><time>2026-04-11T09:49:11Z</time></trkpt><trkpt lat="43.0699248360432" lon="11.414618888813823"><ele>494.2</ele><time>2026-04-11T09:49:14Z</time></trkpt><trkpt lat="43.069906813727094" lon="11.414712709558877"><ele>494.0</ele><time>2026-04-11T09:49:17Z</time></trkpt><trkpt lat="43.06981545387006" lon="11.414883391588598"><ele>494.8333333333333</ele><time>2026-04-11T09:49:23Z</time></trkpt><trkpt lat="43.069748725262556" lon="11.41495164994671"><ele>495.66666666666663</ele><time>2026-04-11T09:49:26Z</time></trkpt><trkpt lat="43.06967408163279" lon="11.415013905187182"><ele>496.5</ele><time>2026-04-11T09:49:29Z</time></trkpt><trkpt lat="43.06960465808643" lon="11.415068998251238"><ele>497.33333333333337</ele><time>2026-04-11T09:49:32Z</time></trkpt><trkpt lat="43.069531236851084" lon="11.415108743313196"><ele>498.1666666666667</ele><time>2026-04-11T09:49:36Z</time></trkpt><trkpt lat="43.06946290699398" lon="11.415180405120083"><ele>499.0</ele><time>2026-04-11T09:49:39Z</time></trkpt><trkpt lat="43.069362405044735" lon="11.415297211156398"><ele>499.0</ele><time>2026-04-11T09:49:43Z</time></trkpt><trkpt lat="43.069307527365034" lon="11.415351004619177"><ele>499.0</ele><time>2026-04-11T09:49:45Z</time></trkpt><trkpt lat="43.06923980588691" lon="11.4153922586971"><ele>499.0</ele><time>2026-04-11T09:49:47Z</time></trkpt><trkpt lat="43.06900969505379" lon="11.41552049209763"><ele>499.0</ele><time>2026-04-11T09:49:49Z</time></trkpt><trkpt lat="43.0689106143311" lon="11.415535688882612"><ele>497.1666666666667</ele><time>2026-04-11T09:49:51Z</time></trkpt><trkpt lat="43.06880782351633" lon="11.41555838530175"><ele>495.33333333333337</ele><time>2026-04-11T09:49:53Z</time></trkpt><trkpt lat="43.06869676081695" lon="11.41561502717567"><ele>493.5</ele><time>2026-04-11T09:49:55Z</time></trkpt><trkpt lat="43.068627266125766" lon="11.415639083474192"><ele>491.66666666666663</ele><time>2026-04-11T09:49:56Z</time></trkpt><trkpt lat="43.06856839163104" lon="11.415676472304035"><ele>489.8333333333333</ele><time>2026-04-11T09:49:57Z</time></trkpt><trkpt lat="43.06851454023875" lon="11.415754047364135"><ele>488.0</ele><time>2026-04-11T09:49:58Z</time></trkpt><trkpt lat="43.0684198855764" lon="11.415860852971297"><ele>488.0</ele><time>2026-04-11T09:50:00Z</time></trkpt><trkpt lat="43.068327468781455" lon="11.415994243806669"><ele>487.99999999999994</ele><time>2026-04-11T09:50:02Z</time></trkpt><trkpt lat="43.06827294742691" lon="11.416046286083555"><ele>487.99999999999994</ele><time>2026-04-11T09:50:03Z</time></trkpt><trkpt lat="43.06818073079905" lon="11.416151098312094"><ele>488.0</ele><time>2026-04-11T09:50:05Z</time></trkpt><trkpt lat="43.06812297530876" lon="11.416193696445113"><ele>488.0</ele><time>2026-04-11T09:50:06Z</time></trkpt><trkpt lat="43.06802435227093" lon="11.416281306257531"><ele>489.79999999999995</ele><time>2026-04-11T09:50:08Z</time></trkpt><trkpt lat="43.06790576835847" lon="11.416354073774135"><ele>491.59999999999997</ele><time>2026-04-11T09:50:10Z</time></trkpt><trkpt lat="43.06780907078413" lon="11.416427331507366"><ele>493.40000000000003</ele><time>2026-04-11T09:50:12Z</time></trkpt><trkpt lat="43.067756350239186" lon="11.416533994429955"><ele>495.20000000000005</ele><time>2026-04-11T09:50:14Z</time></trkpt><trkpt lat="43.06772442750018" lon="11.416633613565553"><ele>497.0</ele><time>2026-04-11T09:50:16Z</time></trkpt><trkpt lat="43.06769536627191" lon="11.41672576480762"><ele>496.99999999999994</ele><time>2026-04-11T09:50:18Z</time></trkpt><trkpt lat="43.06767170787383" lon="11.416806835828092"><ele>497.0</ele><time>2026-04-11T09:50:20Z</time></trkpt><trkpt lat="43.06765728375235" lon="11.416908826168058"><ele>497.0</ele><time>2026-04-11T09:50:22Z</time></trkpt><trkpt lat="43.06757524243929" lon="11.417088313862351"><ele>497.0</ele><time>2026-04-11T09:50:27Z</time></trkpt><trkpt lat="43.067536805232685" lon="11.417175019951303"><ele>496.99999999999994</ele><time>2026-04-11T09:50:29Z</time></trkpt><trkpt lat="43.067488814074224" lon="11.417261096513476"><ele>497.0</ele><time>2026-04-11T09:50:31Z</time></trkpt><trkpt lat="43.06743791847506" lon="11.41732152343443"><ele>498.16666666666663</ele><time>2026-04-11T09:50:33Z</time></trkpt><trkpt lat="43.06735387018294" lon="11.417421376817957"><ele>499.3333333333333</ele><time>2026-04-11T09:50:35Z</time></trkpt><trkpt lat="43.06728777509857" lon="11.41747808560288"><ele>500.5</ele><time>2026-04-11T09:50:37Z</time></trkpt><trkpt lat="43.06722027414431" lon="11.417507911763462"><ele>501.66666666666663</ele><time>2026-04-11T09:50:39Z</time></trkpt><trkpt lat="43.06713731530884" lon="11.41756012505038"><ele>502.8333333333333</ele><time>2026-04-11T09:50:42Z</time></trkpt><trkpt lat="43.06707139224197" lon="11.417590043562795"><ele>504.0</ele><time>2026-04-11T09:50:44Z</time></trkpt><trkpt lat="43.06690559883007" lon="11.417667233908976"><ele>504.0</ele><time>2026-04-11T09:50:48Z</time></trkpt><trkpt lat="43.06683997272307" lon="11.417771846581166"><ele>504.0</ele><time>2026-04-11T09:50:52Z</time></trkpt><trkpt lat="43.06680176260178" lon="11.417879933494682"><ele>504.0</ele><time>2026-04-11T09:50:55Z</time></trkpt><trkpt lat="43.06676994957076" lon="11.417980821379222"><ele>504.0</ele><time>2026-04-11T09:50:57Z</time></trkpt><trkpt lat="43.06673288930773" lon="11.418068316535047"><ele>504.0</ele><time>2026-04-11T09:50:58Z</time></trkpt><trkpt lat="43.066681851467365" lon="11.418208380214221"><ele>502.25</ele><time>2026-04-11T09:51:00Z</time></trkpt><trkpt lat="43.06664087255649" lon="11.418364484582671"><ele>500.5</ele><time>2026-04-11T09:51:02Z</time></trkpt><trkpt lat="43.06661320363807" lon="11.418524088899973"><ele>498.75</ele><time>2026-04-11T09:51:04Z</time></trkpt><trkpt lat="43.06659158509693" lon="11.418680581916115"><ele>497.0</ele><time>2026-04-11T09:51:06Z</time></trkpt><trkpt lat="43.06657461146841" lon="11.418959346363641"><ele>493.8</ele><time>2026-04-11T09:51:10Z</time></trkpt><trkpt lat="43.06657429466709" lon="11.419077703565765"><ele>490.6</ele><time>2026-04-11T09:51:12Z</time></trkpt><trkpt lat="43.06657472286659" lon="11.419193929724825"><ele>487.40000000000003</ele><time>2026-04-11T09:51:14Z</time></trkpt><trkpt lat="43.066580152473115" lon="11.419312846432277"><ele>484.20000000000005</ele><time>2026-04-11T09:51:16Z</time></trkpt><trkpt lat="43.066572866436864" lon="11.419437515140485"><ele>481.0</ele><time>2026-04-11T09:51:18Z</time></trkpt><trkpt lat="43.06658830640891" lon="11.41958056871499"><ele>481.8</ele><time>2026-04-11T09:51:20Z</time></trkpt><trkpt lat="43.06658261172132" lon="11.419734880994632"><ele>482.6</ele><time>2026-04-11T09:51:22Z</time></trkpt><trkpt lat="43.066573018463565" lon="11.419896793089624"><ele>483.4</ele><time>2026-04-11T09:51:24Z</time></trkpt><trkpt lat="43.06652500344675" lon="11.420038027595432"><ele>484.2</ele><time>2026-04-11T09:51:26Z</time></trkpt><trkpt lat="43.06647321928836" lon="11.420116100840788"><ele>485.0</ele><time>2026-04-11T09:51:27Z</time></trkpt><trkpt lat="43.06635036091399" lon="11.420347767505978"><ele>484.99999999999994</ele><time>2026-04-11T09:51:31Z</time></trkpt><trkpt lat="43.0662981263669" lon="11.420397843711937"><ele>485.0</ele><time>2026-04-11T09:51:32Z</time></trkpt><trkpt lat="43.06627966108543" lon="11.420482615963559"><ele>485.0</ele><time>2026-04-11T09:51:33Z</time></trkpt><trkpt lat="43.066257765826954" lon="11.420564885775189"><ele>485.0</ele><time>2026-04-11T09:51:34Z</time></trkpt><trkpt lat="43.06619022241454" lon="11.420713425627843"><ele>484.99999999999994</ele><time>2026-04-11T09:51:36Z</time></trkpt><trkpt lat="43.066151548270994" lon="11.420785359726384"><ele>485.0</ele><time>2026-04-11T09:51:37Z</time></trkpt><trkpt lat="43.06607620375156" lon="11.420923347892323"><ele>486.4</ele><time>2026-04-11T09:51:39Z</time></trkpt><trkpt lat="43.065996807350075" lon="11.421053848354326"><ele>487.8</ele><time>2026-04-11T09:51:41Z</time></trkpt><trkpt lat="43.065921193246346" lon="11.421188321481278"><ele>489.20000000000005</ele><time>2026-04-11T09:51:43Z</time></trkpt><trkpt lat="43.06588448367837" lon="11.421267009635999"><ele>490.6</ele><time>2026-04-11T09:51:44Z</time></trkpt><trkpt lat="43.06584297208149" lon="11.42134310544689"><ele>492.0</ele><time>2026-04-11T09:51:45Z</time></trkpt><trkpt lat="43.06580258348962" lon="11.421420236644025"><ele>490.8</ele><time>2026-04-11T09:51:46Z</time></trkpt><trkpt lat="43.06576826246856" lon="11.421510308582318"><ele>489.6</ele><time>2026-04-11T09:51:47Z</time></trkpt><trkpt lat="43.06573391393504" lon="11.421604414187673"><ele>488.40000000000003</ele><time>2026-04-11T09:51:48Z</time></trkpt><trkpt lat="43.06563660196181" lon="11.421765403259322"><ele>487.20000000000005</ele><time>2026-04-11T09:51:50Z</time></trkpt><trkpt lat="43.06557306680996" lon="11.421824694264588"><ele>486.0</ele><time>2026-04-11T09:51:51Z</time></trkpt><trkpt lat="43.06551209750029" lon="11.421878797602385"><ele>486.0</ele><time>2026-04-11T09:51:52Z</time></trkpt><trkpt lat="43.06545382495881" lon="11.421936878400174"><ele>486.0</ele><time>2026-04-11T09:51:53Z</time></trkpt><trkpt lat="43.0653963205936" lon="11.421995366211663"><ele>486.0</ele><time>2026-04-11T09:51:54Z</time></trkpt><trkpt lat="43.06533234038806" lon="11.422062400839861"><ele>486.0</ele><time>2026-04-11T09:51:55Z</time></trkpt><trkpt lat="43.0652634300602" lon="11.4221282770654"><ele>486.0</ele><time>2026-04-11T09:51:56Z</time></trkpt><trkpt lat="43.06517355123655" lon="11.42217142524045"><ele>486.0</ele><time>2026-04-11T09:51:57Z</time></trkpt><trkpt lat="43.065089721055635" lon="11.422193721133961"><ele>486.0</ele><time>2026-04-11T09:51:58Z</time></trkpt><trkpt lat="43.065002927984494" lon="11.422210161102832"><ele>486.0</ele><time>2026-04-11T09:51:59Z</time></trkpt><trkpt lat="43.0649130637873" lon="11.422218550447457"><ele>486.0</ele><time>2026-04-11T09:52:00Z</time></trkpt><trkpt lat="43.06482765622176" lon="11.422211283005845"><ele>486.0</ele><time>2026-04-11T09:52:01Z</time></trkpt><trkpt lat="43.06473635766349" lon="11.422211649432558"><ele>486.0</ele><time>2026-04-11T09:52:02Z</time></trkpt><trkpt lat="43.06464047283914" lon="11.42221182911422"><ele>486.0</ele><time>2026-04-11T09:52:03Z</time></trkpt><trkpt lat="43.06453955233687" lon="11.42220332976013"><ele>486.0</ele><time>2026-04-11T09:52:04Z</time></trkpt><trkpt lat="43.064432094108106" lon="11.422172598470677"><ele>486.0</ele><time>2026-04-11T09:52:05Z</time></trkpt><trkpt lat="43.06433442734851" lon="11.422130454255479"><ele>486.0</ele><time>2026-04-11T09:52:06Z</time></trkpt><trkpt lat="43.06423435571152" lon="11.422077784510709"><ele>486.0</ele><time>2026-04-11T09:52:07Z</time></trkpt><trkpt lat="43.0641332509142" lon="11.422001175488111"><ele>483.20000000000005</ele><time>2026-04-11T09:52:08Z</time></trkpt><trkpt lat="43.06405627539677" lon="11.421964509385116"><ele>480.40000000000003</ele><time>2026-04-11T09:52:09Z</time></trkpt><trkpt lat="43.063892237400005" lon="11.421919852378835"><ele>477.6</ele><time>2026-04-11T09:52:11Z</time></trkpt><trkpt lat="43.06380126723619" lon="11.421928817772155"><ele>474.8</ele><time>2026-04-11T09:52:12Z</time></trkpt><trkpt lat="43.06370703601232" lon="11.421962967564028"><ele>472.0</ele><time>2026-04-11T09:52:13Z</time></trkpt><trkpt lat="43.06363575628915" lon="11.42199382393181"><ele>472.00000000000006</ele><time>2026-04-11T09:52:14Z</time></trkpt><trkpt lat="43.063575341468045" lon="11.422021489230149"><ele>472.0</ele><time>2026-04-11T09:52:15Z</time></trkpt><trkpt lat="43.06350458582254" lon="11.4221669418994"><ele>472.0</ele><time>2026-04-11T09:52:17Z</time></trkpt><trkpt lat="43.06347591639961" lon="11.422254616768452"><ele>472.0</ele><time>2026-04-11T09:52:18Z</time></trkpt><trkpt lat="43.06349034854115" lon="11.422350535501133"><ele>472.00000000000006</ele><time>2026-04-11T09:52:19Z</time></trkpt><trkpt lat="43.06351402963141" lon="11.422440343527992"><ele>472.0</ele><time>2026-04-11T09:52:20Z</time></trkpt><trkpt lat="43.06353101725594" lon="11.422525628104491"><ele>472.00000000000006</ele><time>2026-04-11T09:52:21Z</time></trkpt><trkpt lat="43.063554339620346" lon="11.422653499436619"><ele>472.0</ele><time>2026-04-11T09:52:22Z</time></trkpt><trkpt lat="43.06357432528106" lon="11.422759305902208"><ele>472.0</ele><time>2026-04-11T09:52:23Z</time></trkpt><trkpt lat="43.06354824781522" lon="11.422869988314401"><ele>472.0</ele><time>2026-04-11T09:52:24Z</time></trkpt><trkpt lat="43.063532953017706" lon="11.423010248619777"><ele>472.00000000000006</ele><time>2026-04-11T09:52:25Z</time></trkpt><trkpt lat="43.06348934227759" lon="11.423109518943658"><ele>472.0</ele><time>2026-04-11T09:52:26Z</time></trkpt><trkpt lat="43.06344007060276" lon="11.423217771245021"><ele>471.40000000000003</ele><time>2026-04-11T09:52:27Z</time></trkpt><trkpt lat="43.063383922811774" lon="11.423302871722996"><ele>470.80000000000007</ele><time>2026-04-11T09:52:28Z</time></trkpt><trkpt lat="43.06337152328459" lon="11.423402560477834"><ele>470.2</ele><time>2026-04-11T09:52:29Z</time></trkpt><trkpt lat="43.06335415462352" lon="11.423499572050934"><ele>469.6</ele><time>2026-04-11T09:52:30Z</time></trkpt><trkpt lat="43.063383630572254" lon="11.423786742869504"><ele>469.0</ele><time>2026-04-11T09:52:33Z</time></trkpt><trkpt lat="43.06340890482231" lon="11.423875374447507"><ele>468.2</ele><time>2026-04-11T09:52:34Z</time></trkpt><trkpt lat="43.06343024786449" lon="11.423957952215385"><ele>467.4</ele><time>2026-04-11T09:52:35Z</time></trkpt><trkpt lat="43.063432610565734" lon="11.424117577974382"><ele>466.6</ele><time>2026-04-11T09:52:37Z</time></trkpt><trkpt lat="43.0633997864038" lon="11.42422004308562"><ele>465.8</ele><time>2026-04-11T09:52:38Z</time></trkpt><trkpt lat="43.06335251490385" lon="11.424331978957783"><ele>465.0</ele><time>2026-04-11T09:52:39Z</time></trkpt><trkpt lat="43.063316189719735" lon="11.424450133585157"><ele>465.0</ele><time>2026-04-11T09:52:40Z</time></trkpt><trkpt lat="43.06329468467004" lon="11.424579173460437"><ele>465.0</ele><time>2026-04-11T09:52:41Z</time></trkpt><trkpt lat="43.06327664714131" lon="11.424698266515435"><ele>465.0</ele><time>2026-04-11T09:52:42Z</time></trkpt><trkpt lat="43.063264189179336" lon="11.424825992601434"><ele>465.0</ele><time>2026-04-11T09:52:43Z</time></trkpt><trkpt lat="43.063244388814894" lon="11.42495296988502"><ele>465.0</ele><time>2026-04-11T09:52:44Z</time></trkpt><trkpt lat="43.06320760513767" lon="11.425057979918781"><ele>465.2</ele><time>2026-04-11T09:52:45Z</time></trkpt><trkpt lat="43.06316189719306" lon="11.425181492768422"><ele>465.4</ele><time>2026-04-11T09:52:46Z</time></trkpt><trkpt lat="43.06310211048362" lon="11.425284382354322"><ele>465.6</ele><time>2026-04-11T09:52:47Z</time></trkpt><trkpt lat="43.06304831398416" lon="11.425386993898172"><ele>465.8</ele><time>2026-04-11T09:52:48Z</time></trkpt><trkpt lat="43.06299607106155" lon="11.425471503760413"><ele>466.0</ele><time>2026-04-11T09:52:49Z</time></trkpt><trkpt lat="43.06294398765367" lon="11.425555157793097"><ele>466.0</ele><time>2026-04-11T09:52:50Z</time></trkpt><trkpt lat="43.06290208561862" lon="11.425640767080331"><ele>466.0</ele><time>2026-04-11T09:52:51Z</time></trkpt><trkpt lat="43.06284615432268" lon="11.425887062936857"><ele>466.0</ele><time>2026-04-11T09:52:54Z</time></trkpt><trkpt lat="43.06283737767595" lon="11.426014644023397"><ele>466.0</ele><time>2026-04-11T09:52:56Z</time></trkpt><trkpt lat="43.062836797396855" lon="11.42612082433798"><ele>466.0</ele><time>2026-04-11T09:52:58Z</time></trkpt><trkpt lat="43.0628402067742" lon="11.426237622707255"><ele>466.8</ele><time>2026-04-11T09:53:00Z</time></trkpt><trkpt lat="43.062846632189455" lon="11.42636220917124"><ele>467.6</ele><time>2026-04-11T09:53:02Z</time></trkpt><trkpt lat="43.06286878253031" lon="11.426484927558429"><ele>468.4</ele><time>2026-04-11T09:53:04Z</time></trkpt><trkpt lat="43.06288043087977" lon="11.426616783433545"><ele>469.2</ele><time>2026-04-11T09:53:06Z</time></trkpt><trkpt lat="43.06289684104556" lon="11.426753542930074"><ele>470.0</ele><time>2026-04-11T09:53:08Z</time></trkpt><trkpt lat="43.06291586837155" lon="11.426880507821254"><ele>470.0</ele><time>2026-04-11T09:53:10Z</time></trkpt><trkpt lat="43.06291170980933" lon="11.427012209690595"><ele>470.0</ele><time>2026-04-11T09:53:12Z</time></trkpt><trkpt lat="43.06283882461205" lon="11.427213029697663"><ele>470.0</ele><time>2026-04-11T09:53:16Z</time></trkpt><trkpt lat="43.06278488023976" lon="11.427288165266889"><ele>470.0</ele><time>2026-04-11T09:53:20Z</time></trkpt><trkpt lat="43.062718497543635" lon="11.427350974863668"><ele>470.0</ele><time>2026-04-11T09:53:23Z</time></trkpt><trkpt lat="43.06264209797837" lon="11.427381273104674"><ele>470.0</ele><time>2026-04-11T09:53:26Z</time></trkpt><trkpt lat="43.06254978075806" lon="11.427416850276693"><ele>470.0</ele><time>2026-04-11T09:53:29Z</time></trkpt><trkpt lat="43.06247873903294" lon="11.427444547453117"><ele>470.0</ele><time>2026-04-11T09:53:31Z</time></trkpt><trkpt lat="43.062412006912844" lon="11.427474752215097"><ele>470.0</ele><time>2026-04-11T09:53:33Z</time></trkpt><trkpt lat="43.06220818474061" lon="11.427562362162881"><ele>469.99999999999994</ele><time>2026-04-11T09:53:38Z</time></trkpt><trkpt lat="43.06212790892533" lon="11.427598726653288"><ele>470.0</ele><time>2026-04-11T09:53:41Z</time></trkpt><trkpt lat="43.06206638085132" lon="11.427616958910818"><ele>470.0</ele><time>2026-04-11T09:53:42Z</time></trkpt><trkpt lat="43.0619897986518" lon="11.427596846134415"><ele>470.0</ele><time>2026-04-11T09:53:43Z</time></trkpt><trkpt lat="43.06189174525797" lon="11.427547979001346"><ele>469.99999999999994</ele><time>2026-04-11T09:53:45Z</time></trkpt><trkpt lat="43.06179748962145" lon="11.427505120174152"><ele>470.0</ele><time>2026-04-11T09:53:47Z</time></trkpt><trkpt lat="43.06169732877872" lon="11.42744084142897"><ele>470.25</ele><time>2026-04-11T09:53:49Z</time></trkpt><trkpt lat="43.061583711411934" lon="11.427363981218896"><ele>470.5</ele><time>2026-04-11T09:53:51Z</time></trkpt><trkpt lat="43.06146853943207" lon="11.427330430297935"><ele>470.75</ele><time>2026-04-11T09:53:53Z</time></trkpt><trkpt lat="43.061352485654965" lon="11.427352459706647"><ele>471.0</ele><time>2026-04-11T09:53:55Z</time></trkpt><trkpt lat="43.061126023696104" lon="11.427420176712495"><ele>471.0</ele><time>2026-04-11T09:53:59Z</time></trkpt><trkpt lat="43.061033696302985" lon="11.42745588145156"><ele>471.0</ele><time>2026-04-11T09:54:01Z</time></trkpt><trkpt lat="43.06094038648798" lon="11.427484634287417"><ele>471.0</ele><time>2026-04-11T09:54:03Z</time></trkpt><trkpt lat="43.060860767389165" lon="11.427479396798061"><ele>471.0</ele><time>2026-04-11T09:54:05Z</time></trkpt><trkpt lat="43.06078872898799" lon="11.427436511410267"><ele>471.0</ele><time>2026-04-11T09:54:07Z</time></trkpt><trkpt lat="43.060716053315204" lon="11.427377313265003"><ele>471.0</ele><time>2026-04-11T09:54:09Z</time></trkpt><trkpt lat="43.06063272558448" lon="11.427314764360482"><ele>472.3333333333333</ele><time>2026-04-11T09:54:11Z</time></trkpt><trkpt lat="43.06055525940591" lon="11.427255366384472"><ele>473.66666666666663</ele><time>2026-04-11T09:54:13Z</time></trkpt><trkpt lat="43.060477612459465" lon="11.427232225040912"><ele>475.0</ele><time>2026-04-11T09:54:16Z</time></trkpt><trkpt lat="43.0603846639113" lon="11.427339645042677"><ele>476.3333333333333</ele><time>2026-04-11T09:54:21Z</time></trkpt><trkpt lat="43.06037209115838" lon="11.427431048439228"><ele>477.66666666666663</ele><time>2026-04-11T09:54:23Z</time></trkpt><trkpt lat="43.06036329851844" lon="11.427547888957498"><ele>479.0</ele><time>2026-04-11T09:54:26Z</time></trkpt><trkpt lat="43.060303105119615" lon="11.427660570086486"><ele>478.99999999999994</ele><time>2026-04-11T09:54:28Z</time></trkpt><trkpt lat="43.060246373861325" lon="11.427704810718609"><ele>479.0</ele><time>2026-04-11T09:54:30Z</time></trkpt><trkpt lat="43.06016129609071" lon="11.427753340437476"><ele>479.0</ele><time>2026-04-11T09:54:33Z</time></trkpt><trkpt lat="43.06008823576727" lon="11.427799152790554"><ele>479.0</ele><time>2026-04-11T09:54:35Z</time></trkpt><trkpt lat="43.060028398481485" lon="11.427839516412469"><ele>478.99999999999994</ele><time>2026-04-11T09:54:36Z</time></trkpt><trkpt lat="43.059935732695834" lon="11.427865701951845"><ele>479.0</ele><time>2026-04-11T09:54:38Z</time></trkpt><trkpt lat="43.05980087074517" lon="11.427802275554333"><ele>479.8333333333333</ele><time>2026-04-11T09:54:43Z</time></trkpt><trkpt lat="43.059735362776934" lon="11.427719050133396"><ele>480.66666666666663</ele><time>2026-04-11T09:54:46Z</time></trkpt><trkpt lat="43.05967563562772" lon="11.42761617545306"><ele>481.5</ele><time>2026-04-11T09:54:49Z</time></trkpt><trkpt lat="43.05961789789044" lon="11.427552720584304"><ele>482.33333333333337</ele><time>2026-04-11T09:54:52Z</time></trkpt><trkpt lat="43.059558760188715" lon="11.427476385166877"><ele>483.1666666666667</ele><time>2026-04-11T09:54:55Z</time></trkpt><trkpt lat="43.05950983421133" lon="11.427418786512485"><ele>484.0</ele><time>2026-04-11T09:54:57Z</time></trkpt><trkpt lat="43.05945682463618" lon="11.427371910949345"><ele>484.0</ele><time>2026-04-11T09:54:59Z</time></trkpt><trkpt lat="43.05931866065359" lon="11.427285220861807"><ele>484.0</ele><time>2026-04-11T09:55:04Z</time></trkpt><trkpt lat="43.05924726362964" lon="11.427334635645007"><ele>484.0</ele><time>2026-04-11T09:55:07Z</time></trkpt><trkpt lat="43.05917533023103" lon="11.427388241591025"><ele>484.0</ele><time>2026-04-11T09:55:10Z</time></trkpt><trkpt lat="43.059124342400615" lon="11.427478726820349"><ele>484.0</ele><time>2026-04-11T09:55:13Z</time></trkpt><trkpt lat="43.05911758192087" lon="11.427581292827059"><ele>484.0</ele><time>2026-04-11T09:55:16Z</time></trkpt><trkpt lat="43.05914350056379" lon="11.427669433766093"><ele>484.0</ele><time>2026-04-11T09:55:18Z</time></trkpt><trkpt lat="43.059177279553914" lon="11.427773600415321"><ele>484.0</ele><time>2026-04-11T09:55:20Z</time></trkpt><trkpt lat="43.059211381873006" lon="11.4280057923187"><ele>484.0</ele><time>2026-04-11T09:55:24Z</time></trkpt><trkpt lat="43.059172754057734" lon="11.428383136335757"><ele>485.4</ele><time>2026-04-11T09:55:27Z</time></trkpt><trkpt lat="43.05906016796162" lon="11.428446647949537"><ele>486.79999999999995</ele><time>2026-04-11T09:55:29Z</time></trkpt><trkpt lat="43.058954559337394" lon="11.428454997517813"><ele>488.20000000000005</ele><time>2026-04-11T09:55:31Z</time></trkpt><trkpt lat="43.0588655266861" lon="11.428478359515562"><ele>489.6</ele><time>2026-04-11T09:55:33Z</time></trkpt><trkpt lat="43.058789509006075" lon="11.42853665734617"><ele>491.0</ele><time>2026-04-11T09:55:35Z</time></trkpt><trkpt lat="43.05873308773874" lon="11.428604997137978"><ele>491.0</ele><time>2026-04-11T09:55:37Z</time></trkpt><trkpt lat="43.05868017130907" lon="11.428682403304043"><ele>491.0</ele><time>2026-04-11T09:55:39Z</time></trkpt><trkpt lat="43.05864070385498" lon="11.428774408687858"><ele>491.0</ele><time>2026-04-11T09:55:41Z</time></trkpt><trkpt lat="43.05856610204933" lon="11.4289574956329"><ele>491.0</ele><time>2026-04-11T09:55:45Z</time></trkpt><trkpt lat="43.05853791103485" lon="11.42907053326395"><ele>491.0</ele><time>2026-04-11T09:55:48Z</time></trkpt><trkpt lat="43.0585237800022" lon="11.429157224443124"><ele>490.16666666666663</ele><time>2026-04-11T09:55:51Z</time></trkpt><trkpt lat="43.05849090869239" lon="11.42926989473757"><ele>489.3333333333333</ele><time>2026-04-11T09:55:54Z</time></trkpt><trkpt lat="43.05848295276499" lon="11.429357608372204"><ele>488.5</ele><time>2026-04-11T09:55:56Z</time></trkpt><trkpt lat="43.05843670628632" lon="11.429512339147522"><ele>487.66666666666663</ele><time>2026-04-11T09:55:58Z</time></trkpt><trkpt lat="43.058408236069575" lon="11.429605092595956"><ele>486.8333333333333</ele><time>2026-04-11T09:56:01Z</time></trkpt><trkpt lat="43.05839642671662" lon="11.42969319275162"><ele>486.0</ele><time>2026-04-11T09:56:03Z</time></trkpt><trkpt lat="43.058354507802555" lon="11.429940681711917"><ele>486.0</ele><time>2026-04-11T09:56:09Z</time></trkpt><trkpt lat="43.05835462956777" lon="11.43003039079518"><ele>486.0</ele><time>2026-04-11T09:56:11Z</time></trkpt><trkpt lat="43.058358950276435" lon="11.430135004718727"><ele>486.0</ele><time>2026-04-11T09:56:13Z</time></trkpt><trkpt lat="43.05836169863796" lon="11.430231806612968"><ele>486.0</ele><time>2026-04-11T09:56:14Z</time></trkpt><trkpt lat="43.058301575952036" lon="11.430452103507678"><ele>486.0</ele><time>2026-04-11T09:56:15Z</time></trkpt><trkpt lat="43.0583072096872" lon="11.430580041625852"><ele>485.8333333333333</ele><time>2026-04-11T09:56:17Z</time></trkpt><trkpt lat="43.05831749684745" lon="11.43074198086874"><ele>485.66666666666663</ele><time>2026-04-11T09:56:19Z</time></trkpt><trkpt lat="43.058310119460984" lon="11.430834688117322"><ele>485.5</ele><time>2026-04-11T09:56:20Z</time></trkpt><trkpt lat="43.058283001641435" lon="11.430917469001951"><ele>485.3333333333333</ele><time>2026-04-11T09:56:21Z</time></trkpt><trkpt lat="43.058240430702504" lon="11.430987076734361"><ele>485.16666666666663</ele><time>2026-04-11T09:56:22Z</time></trkpt><trkpt lat="43.05818457366567" lon="11.431039334005662"><ele>485.0</ele><time>2026-04-11T09:56:23Z</time></trkpt><trkpt lat="43.05812310638694" lon="11.431074447671874"><ele>484.0</ele><time>2026-04-11T09:56:24Z</time></trkpt><trkpt lat="43.0579394407633" lon="11.431102339528726"><ele>483.0</ele><time>2026-04-11T09:56:26Z</time></trkpt><trkpt lat="43.057882418057254" lon="11.431152214565532"><ele>482.0</ele><time>2026-04-11T09:56:27Z</time></trkpt><trkpt lat="43.057775611133046" lon="11.431231586639498"><ele>481.0</ele><time>2026-04-11T09:56:29Z</time></trkpt><trkpt lat="43.05770859515689" lon="11.43124777076373"><ele>480.0</ele><time>2026-04-11T09:56:30Z</time></trkpt><trkpt lat="43.05761378416391" lon="11.43129541532986"><ele>481.3333333333333</ele><time>2026-04-11T09:56:32Z</time></trkpt><trkpt lat="43.057569081132684" lon="11.431361204490981"><ele>482.66666666666663</ele><time>2026-04-11T09:56:33Z</time></trkpt><trkpt lat="43.057495104737356" lon="11.431439139084796"><ele>484.0</ele><time>2026-04-11T09:56:35Z</time></trkpt><trkpt lat="43.05743776809416" lon="11.431518535693247"><ele>485.3333333333333</ele><time>2026-04-11T09:56:37Z</time></trkpt><trkpt lat="43.05737220703656" lon="11.431611146976747"><ele>486.66666666666663</ele><time>2026-04-11T09:56:40Z</time></trkpt><trkpt lat="43.057317579277296" lon="11.431672428706575"><ele>488.0</ele><time>2026-04-11T09:56:42Z</time></trkpt><trkpt lat="43.057264668939396" lon="11.43177515551558"><ele>488.2</ele><time>2026-04-11T09:56:45Z</time></trkpt><trkpt lat="43.05716122772851" lon="11.431941419151567"><ele>488.4</ele><time>2026-04-11T09:56:49Z</time></trkpt><trkpt lat="43.05712257825162" lon="11.432034164825637"><ele>488.59999999999997</ele><time>2026-04-11T09:56:51Z</time></trkpt><trkpt lat="43.057086135489456" lon="11.432131127063704"><ele>488.79999999999995</ele><time>2026-04-11T09:56:54Z</time></trkpt><trkpt lat="43.057036559960224" lon="11.432228139897111"><ele>489.0</ele><time>2026-04-11T09:56:57Z</time></trkpt><trkpt lat="43.0569848492986" lon="11.432311053163119"><ele>489.75</ele><time>2026-04-11T09:56:59Z</time></trkpt><trkpt lat="43.05703196512101" lon="11.432214302616137"><ele>490.5</ele><time>2026-04-11T09:57:06Z</time></trkpt><trkpt lat="43.056864034925155" lon="11.43225404061546"><ele>491.25</ele><time>2026-04-11T09:57:12Z</time></trkpt><trkpt lat="43.056761651718055" lon="11.432272050674346"><ele>492.0</ele><time>2026-04-11T09:57:14Z</time></trkpt><trkpt lat="43.05666893835431" lon="11.432227795649666"><ele>491.6666666666667</ele><time>2026-04-11T09:57:16Z</time></trkpt><trkpt lat="43.05661832381204" lon="11.432171242106026"><ele>491.33333333333337</ele><time>2026-04-11T09:57:17Z</time></trkpt><trkpt lat="43.05655779414971" lon="11.432110169638465"><ele>491.0</ele><time>2026-04-11T09:57:18Z</time></trkpt><trkpt lat="43.05647923555469" lon="11.432049892423976"><ele>490.6666666666667</ele><time>2026-04-11T09:57:19Z</time></trkpt><trkpt lat="43.05641128588527" lon="11.432002354689056"><ele>490.33333333333337</ele><time>2026-04-11T09:57:20Z</time></trkpt><trkpt lat="43.05634990054034" lon="11.431967413147214"><ele>490.0</ele><time>2026-04-11T09:57:21Z</time></trkpt><trkpt lat="43.05625810102691" lon="11.431920174203567"><ele>488.83333333333337</ele><time>2026-04-11T09:57:22Z</time></trkpt><trkpt lat="43.056170046726" lon="11.43188239699817"><ele>487.6666666666667</ele><time>2026-04-11T09:57:23Z</time></trkpt><trkpt lat="43.0561173861653" lon="11.431831600505534"><ele>486.5</ele><time>2026-04-11T09:57:24Z</time></trkpt><trkpt lat="43.05603140248423" lon="11.431809663159722"><ele>485.33333333333337</ele><time>2026-04-11T09:57:25Z</time></trkpt><trkpt lat="43.055924017751195" lon="11.43179533119059"><ele>484.1666666666667</ele><time>2026-04-11T09:57:26Z</time></trkpt><trkpt lat="43.055830324530454" lon="11.431765133006648"><ele>483.0</ele><time>2026-04-11T09:57:27Z</time></trkpt><trkpt lat="43.055635614440334" lon="11.43172747123333"><ele>482.1666666666667</ele><time>2026-04-11T09:57:29Z</time></trkpt><trkpt lat="43.05554109848433" lon="11.431716465264598"><ele>481.33333333333337</ele><time>2026-04-11T09:57:30Z</time></trkpt><trkpt lat="43.05544907089919" lon="11.43170270671714"><ele>480.5</ele><time>2026-04-11T09:57:31Z</time></trkpt><trkpt lat="43.05539389270721" lon="11.431614526166841"><ele>479.6666666666667</ele><time>2026-04-11T09:57:32Z</time></trkpt><trkpt lat="43.05531216722423" lon="11.431516461952974"><ele>478.83333333333337</ele><time>2026-04-11T09:57:34Z</time></trkpt><trkpt lat="43.05527521815545" lon="11.431439560442302"><ele>478.0</ele><time>2026-04-11T09:57:35Z</time></trkpt><trkpt lat="43.05523083588493" lon="11.431371124747837"><ele>478.0</ele><time>2026-04-11T09:57:36Z</time></trkpt><trkpt lat="43.05516882836539" lon="11.431318387144206"><ele>477.99999999999994</ele><time>2026-04-11T09:57:37Z</time></trkpt><trkpt lat="43.05504593614792" lon="11.43118765046648"><ele>477.99999999999994</ele><time>2026-04-11T09:57:39Z</time></trkpt><trkpt lat="43.05498665130818" lon="11.431107953471672"><ele>478.0</ele><time>2026-04-11T09:57:40Z</time></trkpt><trkpt lat="43.0549221975451" lon="11.43102837051392"><ele>478.0</ele><time>2026-04-11T09:57:41Z</time></trkpt><trkpt lat="43.054871959702155" lon="11.430975045691778"><ele>475.59999999999997</ele><time>2026-04-11T09:57:42Z</time></trkpt><trkpt lat="43.054795114287046" lon="11.430923988604508"><ele>473.19999999999993</ele><time>2026-04-11T09:57:43Z</time></trkpt><trkpt lat="43.05471723127785" lon="11.43088732553412"><ele>470.8</ele><time>2026-04-11T09:57:44Z</time></trkpt><trkpt lat="43.05462356352275" lon="11.43086565583048"><ele>468.4</ele><time>2026-04-11T09:57:45Z</time></trkpt><trkpt lat="43.05452323679998" lon="11.430846947855594"><ele>466.0</ele><time>2026-04-11T09:57:46Z</time></trkpt><trkpt lat="43.05443309745636" lon="11.43083077459843"><ele>466.0</ele><time>2026-04-11T09:57:47Z</time></trkpt><trkpt lat="43.05433964939512" lon="11.430814937001285"><ele>466.0</ele><time>2026-04-11T09:57:48Z</time></trkpt><trkpt lat="43.05415279529396" lon="11.430773032099097"><ele>466.0</ele><time>2026-04-11T09:57:50Z</time></trkpt><trkpt lat="43.054057616201355" lon="11.430761013740161"><ele>466.0</ele><time>2026-04-11T09:57:51Z</time></trkpt><trkpt lat="43.053962548724186" lon="11.430751006894544"><ele>464.6666666666667</ele><time>2026-04-11T09:57:52Z</time></trkpt><trkpt lat="43.053868542773635" lon="11.43074630323621"><ele>463.33333333333337</ele><time>2026-04-11T09:57:53Z</time></trkpt><trkpt lat="43.05377819756221" lon="11.430744040927067"><ele>462.0</ele><time>2026-04-11T09:57:54Z</time></trkpt><trkpt lat="43.05369506679952" lon="11.430737964533645"><ele>460.66666666666663</ele><time>2026-04-11T09:57:55Z</time></trkpt><trkpt lat="43.05360932654078" lon="11.430734190786524"><ele>459.3333333333333</ele><time>2026-04-11T09:57:56Z</time></trkpt><trkpt lat="43.05352606107972" lon="11.430706609623577"><ele>458.0</ele><time>2026-04-11T09:57:57Z</time></trkpt><trkpt lat="43.05344200040152" lon="11.430661563227373"><ele>457.99999999999994</ele><time>2026-04-11T09:57:58Z</time></trkpt><trkpt lat="43.05336394360827" lon="11.430604797506371"><ele>458.0</ele><time>2026-04-11T09:57:59Z</time></trkpt><trkpt lat="43.05328801295826" lon="11.430557271219236"><ele>458.0</ele><time>2026-04-11T09:58:00Z</time></trkpt><trkpt lat="43.05321307680956" lon="11.430503944542869"><ele>458.0</ele><time>2026-04-11T09:58:01Z</time></trkpt><trkpt lat="43.05314241419683" lon="11.43047360464132"><ele>457.99999999999994</ele><time>2026-04-11T09:58:02Z</time></trkpt><trkpt lat="43.05306097579594" lon="11.430447431601161"><ele>458.0</ele><time>2026-04-11T09:58:03Z</time></trkpt><trkpt lat="43.0529787563063" lon="11.430407525660595"><ele>455.59999999999997</ele><time>2026-04-11T09:58:04Z</time></trkpt><trkpt lat="43.052891815996205" lon="11.430350271813197"><ele>453.19999999999993</ele><time>2026-04-11T09:58:05Z</time></trkpt><trkpt lat="43.05279233452712" lon="11.430273918937438"><ele>450.8</ele><time>2026-04-11T09:58:06Z</time></trkpt><trkpt lat="43.05269673944728" lon="11.430196824290093"><ele>448.4</ele><time>2026-04-11T09:58:07Z</time></trkpt><trkpt lat="43.05259194079026" lon="11.430126133758035"><ele>446.0</ele><time>2026-04-11T09:58:08Z</time></trkpt><trkpt lat="43.05248291327969" lon="11.430066096117018"><ele>441.3333333333333</ele><time>2026-04-11T09:58:09Z</time></trkpt><trkpt lat="43.05225543059292" lon="11.429945551601856"><ele>436.66666666666663</ele><time>2026-04-11T09:58:11Z</time></trkpt><trkpt lat="43.05214120369499" lon="11.429889918449565"><ele>432.0</ele><time>2026-04-11T09:58:12Z</time></trkpt><trkpt lat="43.052029647334244" lon="11.429840567375813"><ele>432.0</ele><time>2026-04-11T09:58:13Z</time></trkpt><trkpt lat="43.05191458478224" lon="11.429808294076826"><ele>432.00000000000006</ele><time>2026-04-11T09:58:14Z</time></trkpt><trkpt lat="43.05180207591502" lon="11.42978003226458"><ele>432.00000000000006</ele><time>2026-04-11T09:58:15Z</time></trkpt><trkpt lat="43.05170766830954" lon="11.429748842286038"><ele>432.0</ele><time>2026-04-11T09:58:16Z</time></trkpt><trkpt lat="43.051608587222276" lon="11.429708325537112"><ele>432.0</ele><time>2026-04-11T09:58:17Z</time></trkpt><trkpt lat="43.05151800290707" lon="11.42966637480822"><ele>432.8</ele><time>2026-04-11T09:58:18Z</time></trkpt><trkpt lat="43.051424746329594" lon="11.429608836418529"><ele>433.6</ele><time>2026-04-11T09:58:19Z</time></trkpt><trkpt lat="43.05133882108855" lon="11.429545136969546"><ele>434.40000000000003</ele><time>2026-04-11T09:58:20Z</time></trkpt><trkpt lat="43.051259136863784" lon="11.429473013522939"><ele>435.20000000000005</ele><time>2026-04-11T09:58:21Z</time></trkpt><trkpt lat="43.051178860799304" lon="11.429400580315571"><ele>436.0</ele><time>2026-04-11T09:58:22Z</time></trkpt><trkpt lat="43.05111187405559" lon="11.429330820093979"><ele>436.00000000000006</ele><time>2026-04-11T09:58:23Z</time></trkpt><trkpt lat="43.05104918699455" lon="11.4292536491351"><ele>436.0</ele><time>2026-04-11T09:58:24Z</time></trkpt><trkpt lat="43.050985478599905" lon="11.429179724885417"><ele>436.0</ele><time>2026-04-11T09:58:25Z</time></trkpt><trkpt lat="43.05093142170031" lon="11.429103196335571"><ele>436.0</ele><time>2026-04-11T09:58:26Z</time></trkpt><trkpt lat="43.05087623368914" lon="11.429039386163574"><ele>436.00000000000006</ele><time>2026-04-11T09:58:27Z</time></trkpt><trkpt lat="43.05082766658723" lon="11.428982663423021"><ele>436.0</ele><time>2026-04-11T09:58:28Z</time></trkpt><trkpt lat="43.05074361965227" lon="11.42889951848739"><ele>436.25</ele><time>2026-04-11T09:58:30Z</time></trkpt><trkpt lat="43.05059370231681" lon="11.428776733512134"><ele>436.5</ele><time>2026-04-11T09:58:34Z</time></trkpt><trkpt lat="43.05050839002741" lon="11.428702449623424"><ele>436.75</ele><time>2026-04-11T09:58:36Z</time></trkpt><trkpt lat="43.05041692968288" lon="11.428609780826722"><ele>437.0</ele><time>2026-04-11T09:58:38Z</time></trkpt><trkpt lat="43.05032119643282" lon="11.42851515221847"><ele>437.0</ele><time>2026-04-11T09:58:40Z</time></trkpt><trkpt lat="43.05022697220218" lon="11.428413162973566"><ele>437.00000000000006</ele><time>2026-04-11T09:58:42Z</time></trkpt><trkpt lat="43.05011276826019" lon="11.428341169291508"><ele>437.00000000000006</ele><time>2026-04-11T09:58:44Z</time></trkpt><trkpt lat="43.050052680211515" lon="11.42831330520866"><ele>437.0</ele><time>2026-04-11T09:58:45Z</time></trkpt><trkpt lat="43.04998359573506" lon="11.428295456479251"><ele>437.0</ele><time>2026-04-11T09:58:46Z</time></trkpt><trkpt lat="43.04990187644404" lon="11.428285217427081"><ele>438.0</ele><time>2026-04-11T09:58:47Z</time></trkpt><trkpt lat="43.049821866420565" lon="11.428262406442514"><ele>439.00000000000006</ele><time>2026-04-11T09:58:48Z</time></trkpt><trkpt lat="43.04974646068879" lon="11.428219984460753"><ele>440.00000000000006</ele><time>2026-04-11T09:58:49Z</time></trkpt><trkpt lat="43.049673638622735" lon="11.428145928909252"><ele>441.0</ele><time>2026-04-11T09:58:50Z</time></trkpt><trkpt lat="43.049607391395256" lon="11.428070913599788"><ele>442.0</ele><time>2026-04-11T09:58:51Z</time></trkpt><trkpt lat="43.049499036870834" lon="11.427908111755736"><ele>439.6666666666667</ele><time>2026-04-11T09:58:53Z</time></trkpt><trkpt lat="43.04944268529291" lon="11.427833746264"><ele>437.33333333333337</ele><time>2026-04-11T09:58:54Z</time></trkpt><trkpt lat="43.04937987778006" lon="11.42777020681994"><ele>435.0</ele><time>2026-04-11T09:58:55Z</time></trkpt><trkpt lat="43.04930866799738" lon="11.427704342923008"><ele>432.66666666666663</ele><time>2026-04-11T09:58:56Z</time></trkpt><trkpt lat="43.04923264130344" lon="11.427638111585441"><ele>430.3333333333333</ele><time>2026-04-11T09:58:57Z</time></trkpt><trkpt lat="43.049149832646485" lon="11.427583267596447"><ele>428.0</ele><time>2026-04-11T09:58:58Z</time></trkpt><trkpt lat="43.04905608287516" lon="11.427523035844205"><ele>427.79999999999995</ele><time>2026-04-11T09:58:59Z</time></trkpt><trkpt lat="43.04896792925251" lon="11.427446467257779"><ele>427.59999999999997</ele><time>2026-04-11T09:59:00Z</time></trkpt><trkpt lat="43.04888925097456" lon="11.427373268132678"><ele>427.40000000000003</ele><time>2026-04-11T09:59:01Z</time></trkpt><trkpt lat="43.04881767905997" lon="11.427290190652467"><ele>427.20000000000005</ele><time>2026-04-11T09:59:02Z</time></trkpt><trkpt lat="43.04874786701902" lon="11.427189191807582"><ele>427.0</ele><time>2026-04-11T09:59:03Z</time></trkpt><trkpt lat="43.048701188995565" lon="11.427074025461318"><ele>425.20000000000005</ele><time>2026-04-11T09:59:04Z</time></trkpt><trkpt lat="43.0486515549836" lon="11.426966575812068"><ele>423.40000000000003</ele><time>2026-04-11T09:59:05Z</time></trkpt><trkpt lat="43.04859110765064" lon="11.42686798666946"><ele>421.6</ele><time>2026-04-11T09:59:06Z</time></trkpt><trkpt lat="43.04850765808748" lon="11.426768430686574"><ele>419.79999999999995</ele><time>2026-04-11T09:59:07Z</time></trkpt><trkpt lat="43.04843933215661" lon="11.426669129659672"><ele>418.0</ele><time>2026-04-11T09:59:08Z</time></trkpt><trkpt lat="43.048365840789124" lon="11.426559052685379"><ele>418.0</ele><time>2026-04-11T09:59:09Z</time></trkpt><trkpt lat="43.048307650009185" lon="11.426439762158923"><ele>418.0</ele><time>2026-04-11T09:59:10Z</time></trkpt><trkpt lat="43.04825656375555" lon="11.426318641766954"><ele>418.0</ele><time>2026-04-11T09:59:11Z</time></trkpt><trkpt lat="43.04822088009682" lon="11.42620538459384"><ele>418.0</ele><time>2026-04-11T09:59:12Z</time></trkpt><trkpt lat="43.04814685872232" lon="11.426008312554714"><ele>415.79999999999995</ele><time>2026-04-11T09:59:14Z</time></trkpt><trkpt lat="43.048095438283944" lon="11.425912367804445"><ele>413.6</ele><time>2026-04-11T09:59:15Z</time></trkpt><trkpt lat="43.04803801646019" lon="11.425813275472303"><ele>411.4</ele><time>2026-04-11T09:59:16Z</time></trkpt><trkpt lat="43.04798420177534" lon="11.425709489879546"><ele>409.20000000000005</ele><time>2026-04-11T09:59:17Z</time></trkpt><trkpt lat="43.04793616905015" lon="11.425601910599626"><ele>407.0</ele><time>2026-04-11T09:59:18Z</time></trkpt><trkpt lat="43.0478763886748" lon="11.42550375087078"><ele>405.0</ele><time>2026-04-11T09:59:19Z</time></trkpt><trkpt lat="43.04781796737198" lon="11.425403611777726"><ele>403.0</ele><time>2026-04-11T09:59:20Z</time></trkpt><trkpt lat="43.0477472202575" lon="11.425305666068128"><ele>401.0</ele><time>2026-04-11T09:59:21Z</time></trkpt><trkpt lat="43.04768825433741" lon="11.425206533448945"><ele>399.0</ele><time>2026-04-11T09:59:22Z</time></trkpt><trkpt lat="43.04763122789047" lon="11.425110483933395"><ele>397.0</ele><time>2026-04-11T09:59:23Z</time></trkpt><trkpt lat="43.047576353033456" lon="11.425024911321717"><ele>397.00000000000006</ele><time>2026-04-11T09:59:24Z</time></trkpt><trkpt lat="43.04750690428017" lon="11.424946767214466"><ele>397.0</ele><time>2026-04-11T09:59:25Z</time></trkpt><trkpt lat="43.04745464789609" lon="11.424849278024185"><ele>397.0</ele><time>2026-04-11T09:59:26Z</time></trkpt><trkpt lat="43.047396330733655" lon="11.424769666189054"><ele>397.0</ele><time>2026-04-11T09:59:27Z</time></trkpt><trkpt lat="43.04733186456316" lon="11.424704127155259"><ele>397.00000000000006</ele><time>2026-04-11T09:59:28Z</time></trkpt><trkpt lat="43.047255699460784" lon="11.424646780510248"><ele>397.0</ele><time>2026-04-11T09:59:29Z</time></trkpt><trkpt lat="43.047169751622114" lon="11.424593721646453"><ele>395.0</ele><time>2026-04-11T09:59:30Z</time></trkpt><trkpt lat="43.04708797941527" lon="11.424536841718089"><ele>393.0</ele><time>2026-04-11T09:59:31Z</time></trkpt><trkpt lat="43.04700381552372" lon="11.424452704520144"><ele>391.0</ele><time>2026-04-11T09:59:32Z</time></trkpt><trkpt lat="43.04693539114572" lon="11.424341080862302"><ele>389.0</ele><time>2026-04-11T09:59:33Z</time></trkpt><trkpt lat="43.04685459287346" lon="11.424079631033935"><ele>389.0</ele><time>2026-04-11T09:59:35Z</time></trkpt><trkpt lat="43.04681144833985" lon="11.423944665670694"><ele>389.0</ele><time>2026-04-11T09:59:36Z</time></trkpt><trkpt lat="43.04677669054224" lon="11.423813672132205"><ele>389.0</ele><time>2026-04-11T09:59:37Z</time></trkpt><trkpt lat="43.046733835266366" lon="11.423692591178394"><ele>389.0</ele><time>2026-04-11T09:59:38Z</time></trkpt><trkpt lat="43.04669473488231" lon="11.423575142635077"><ele>389.0</ele><time>2026-04-11T09:59:39Z</time></trkpt><trkpt lat="43.04665781726119" lon="11.423468637699893"><ele>388.66666666666663</ele><time>2026-04-11T09:59:40Z</time></trkpt><trkpt lat="43.04661773397445" lon="11.423374075591411"><ele>388.3333333333333</ele><time>2026-04-11T09:59:41Z</time></trkpt><trkpt lat="43.04658892691561" lon="11.423289764271374"><ele>388.0</ele><time>2026-04-11T09:59:42Z</time></trkpt><trkpt lat="43.04654871209368" lon="11.423144978577001"><ele>387.66666666666663</ele><time>2026-04-11T09:59:44Z</time></trkpt><trkpt lat="43.04654452854138" lon="11.423029010323628"><ele>387.3333333333333</ele><time>2026-04-11T09:59:46Z</time></trkpt><trkpt lat="43.04649811700105" lon="11.42293900600819"><ele>387.0</ele><time>2026-04-11T09:59:49Z</time></trkpt><trkpt lat="43.04644235050003" lon="11.422872845637258"><ele>389.1666666666667</ele><time>2026-04-11T09:59:53Z</time></trkpt><trkpt lat="43.04641299918808" lon="11.422795014454561"><ele>391.33333333333337</ele><time>2026-04-11T09:59:57Z</time></trkpt><trkpt lat="43.046300085419276" lon="11.422723196120819"><ele>393.5</ele><time>2026-04-11T10:00:04Z</time></trkpt><trkpt lat="43.04623134573285" lon="11.422718984589883"><ele>395.6666666666667</ele><time>2026-04-11T10:00:07Z</time></trkpt><trkpt lat="43.04615473227537" lon="11.422697988544929"><ele>397.83333333333337</ele><time>2026-04-11T10:00:10Z</time></trkpt><trkpt lat="43.04607270474641" lon="11.422686976975212"><ele>400.0</ele><time>2026-04-11T10:00:13Z</time></trkpt><trkpt lat="43.045993209912865" lon="11.42268102073843"><ele>400.00000000000006</ele><time>2026-04-11T10:00:16Z</time></trkpt><trkpt lat="43.04590772815264" lon="11.422658584522399"><ele>400.0</ele><time>2026-04-11T10:00:19Z</time></trkpt><trkpt lat="43.045773778892226" lon="11.42261527549603"><ele>400.0</ele><time>2026-04-11T10:00:26Z</time></trkpt><trkpt lat="43.04570555126394" lon="11.422564974766598"><ele>400.0</ele><time>2026-04-11T10:00:29Z</time></trkpt><trkpt lat="43.04564537414628" lon="11.422510434245014"><ele>400.00000000000006</ele><time>2026-04-11T10:00:32Z</time></trkpt><trkpt lat="43.04559188210065" lon="11.422442104694014"><ele>400.0</ele><time>2026-04-11T10:00:35Z</time></trkpt><trkpt lat="43.04552147718218" lon="11.42236838502409"><ele>397.0</ele><time>2026-04-11T10:00:38Z</time></trkpt><trkpt lat="43.045482775065494" lon="11.422298138715062"><ele>394.0</ele><time>2026-04-11T10:00:40Z</time></trkpt><trkpt lat="43.04527743986307" lon="11.421948491970285"><ele>391.0</ele><time>2026-04-11T10:00:44Z</time></trkpt><trkpt lat="43.045223551427696" lon="11.421815624424848"><ele>391.0</ele><time>2026-04-11T10:00:46Z</time></trkpt><trkpt lat="43.04518203509641" lon="11.421650050683098"><ele>391.0</ele><time>2026-04-11T10:00:48Z</time></trkpt><trkpt lat="43.04515046264459" lon="11.421572290465212"><ele>391.0</ele><time>2026-04-11T10:00:49Z</time></trkpt><trkpt lat="43.04512227394677" lon="11.421494849985615"><ele>391.0</ele><time>2026-04-11T10:00:50Z</time></trkpt><trkpt lat="43.045072239747476" lon="11.421332473216191"><ele>391.0</ele><time>2026-04-11T10:00:52Z</time></trkpt><trkpt lat="43.04505121923666" lon="11.42124301281355"><ele>391.0</ele><time>2026-04-11T10:00:53Z</time></trkpt><trkpt lat="43.04502196005542" lon="11.421157007961805"><ele>391.0</ele><time>2026-04-11T10:00:54Z</time></trkpt><trkpt lat="43.04497821896155" lon="11.420995705189682"><ele>391.0</ele><time>2026-04-11T10:00:56Z</time></trkpt><trkpt lat="43.04493852388803" lon="11.420869108227"><ele>391.0</ele><time>2026-04-11T10:00:58Z</time></trkpt><trkpt lat="43.04497055175726" lon="11.420747804673287"><ele>391.0</ele><time>2026-04-11T10:01:00Z</time></trkpt><trkpt lat="43.045000893177814" lon="11.420652095613091"><ele>391.0</ele><time>2026-04-11T10:01:02Z</time></trkpt><trkpt lat="43.04515547411518" lon="11.420557253891507"><ele>391.0</ele><time>2026-04-11T10:01:06Z</time></trkpt><trkpt lat="43.04521675809514" lon="11.42050098433586"><ele>391.0</ele><time>2026-04-11T10:01:08Z</time></trkpt><trkpt lat="43.0452008771564" lon="11.420398889301907"><ele>391.0</ele><time>2026-04-11T10:01:11Z</time></trkpt><trkpt lat="43.045178357953084" lon="11.420301769343403"><ele>391.0</ele><time>2026-04-11T10:01:14Z</time></trkpt><trkpt lat="43.045141067212676" lon="11.42016865580154"><ele>390.33333333333337</ele><time>2026-04-11T10:01:17Z</time></trkpt><trkpt lat="43.04507734219699" lon="11.42006234591416"><ele>389.6666666666667</ele><time>2026-04-11T10:01:19Z</time></trkpt><trkpt lat="43.04503861552242" lon="11.419975250143855"><ele>389.0</ele><time>2026-04-11T10:01:20Z</time></trkpt><trkpt lat="43.04500501502355" lon="11.41988126331246"><ele>388.33333333333337</ele><time>2026-04-11T10:01:21Z</time></trkpt><trkpt lat="43.04496453979028" lon="11.419788147833906"><ele>387.6666666666667</ele><time>2026-04-11T10:01:22Z</time></trkpt><trkpt lat="43.04492926087554" lon="11.419697614830733"><ele>387.0</ele><time>2026-04-11T10:01:23Z</time></trkpt><trkpt lat="43.044853169918056" lon="11.419490487029892"><ele>383.8</ele><time>2026-04-11T10:01:25Z</time></trkpt><trkpt lat="43.04480158363969" lon="11.419376025217792"><ele>380.6</ele><time>2026-04-11T10:01:26Z</time></trkpt><trkpt lat="43.04474497349995" lon="11.419255136722807"><ele>377.40000000000003</ele><time>2026-04-11T10:01:27Z</time></trkpt><trkpt lat="43.044683295343084" lon="11.419126540642239"><ele>374.20000000000005</ele><time>2026-04-11T10:01:28Z</time></trkpt><trkpt lat="43.04462751362073" lon="11.418994278313521"><ele>371.0</ele><time>2026-04-11T10:01:29Z</time></trkpt><trkpt lat="43.044571556916566" lon="11.41886016670989"><ele>371.4</ele><time>2026-04-11T10:01:30Z</time></trkpt><trkpt lat="43.04451938777595" lon="11.418728011566456"><ele>371.8</ele><time>2026-04-11T10:01:31Z</time></trkpt><trkpt lat="43.044466466824595" lon="11.418596222190668"><ele>372.2</ele><time>2026-04-11T10:01:32Z</time></trkpt><trkpt lat="43.044410605255464" lon="11.418475096171168"><ele>372.59999999999997</ele><time>2026-04-11T10:01:33Z</time></trkpt><trkpt lat="43.044358393120966" lon="11.418361691109567"><ele>373.0</ele><time>2026-04-11T10:01:34Z</time></trkpt><trkpt lat="43.04431276653199" lon="11.418261067564869"><ele>373.0</ele><time>2026-04-11T10:01:35Z</time></trkpt><trkpt lat="43.04426378213202" lon="11.418162888394917"><ele>373.0</ele><time>2026-04-11T10:01:36Z</time></trkpt><trkpt lat="43.04423311030694" lon="11.418063593204291"><ele>373.0</ele><time>2026-04-11T10:01:37Z</time></trkpt><trkpt lat="43.04420169669106" lon="11.417969246545795"><ele>373.0</ele><time>2026-04-11T10:01:38Z</time></trkpt><trkpt lat="43.044166938359936" lon="11.417876052783072"><ele>373.0</ele><time>2026-04-11T10:01:39Z</time></trkpt><trkpt lat="43.04413274093572" lon="11.417785276299746"><ele>373.0</ele><time>2026-04-11T10:01:40Z</time></trkpt><trkpt lat="43.04409739712659" lon="11.417699734073016"><ele>371.59999999999997</ele><time>2026-04-11T10:01:41Z</time></trkpt><trkpt lat="43.04405634613109" lon="11.417614350884374"><ele>370.2</ele><time>2026-04-11T10:01:42Z</time></trkpt><trkpt lat="43.04400978217224" lon="11.417528608785522"><ele>368.8</ele><time>2026-04-11T10:01:43Z</time></trkpt><trkpt lat="43.043958258688825" lon="11.417441910954198"><ele>367.4</ele><time>2026-04-11T10:01:44Z</time></trkpt><trkpt lat="43.04385768786754" lon="11.417273738252494"><ele>366.0</ele><time>2026-04-11T10:01:46Z</time></trkpt><trkpt lat="43.04381124691239" lon="11.417189338961848"><ele>366.3333333333333</ele><time>2026-04-11T10:01:47Z</time></trkpt><trkpt lat="43.043759476867294" lon="11.4171030735914"><ele>366.6666666666667</ele><time>2026-04-11T10:01:48Z</time></trkpt><trkpt lat="43.043701959904666" lon="11.417022113193912"><ele>367.0</ele><time>2026-04-11T10:01:49Z</time></trkpt><trkpt lat="43.04364812228417" lon="11.416931954204626"><ele>367.33333333333337</ele><time>2026-04-11T10:01:50Z</time></trkpt><trkpt lat="43.04359799686163" lon="11.416842589055562"><ele>367.6666666666667</ele><time>2026-04-11T10:01:51Z</time></trkpt><trkpt lat="43.043544078333156" lon="11.416758696942747"><ele>368.0</ele><time>2026-04-11T10:01:52Z</time></trkpt><trkpt lat="43.04348996378092" lon="11.416670472633205"><ele>368.0</ele><time>2026-04-11T10:01:53Z</time></trkpt><trkpt lat="43.043441790248416" lon="11.416593295343098"><ele>368.0</ele><time>2026-04-11T10:01:54Z</time></trkpt><trkpt lat="43.043395787601284" lon="11.41651025988227"><ele>368.0</ele><time>2026-04-11T10:01:55Z</time></trkpt><trkpt lat="43.04334678319717" lon="11.416422235637352"><ele>368.0</ele><time>2026-04-11T10:01:56Z</time></trkpt><trkpt lat="43.043313812801486" lon="11.416321391597581"><ele>368.0</ele><time>2026-04-11T10:01:57Z</time></trkpt><trkpt lat="43.04328304054354" lon="11.416216227632741"><ele>368.0</ele><time>2026-04-11T10:01:58Z</time></trkpt><trkpt lat="43.04325198077994" lon="11.416104484722638"><ele>366.59999999999997</ele><time>2026-04-11T10:01:59Z</time></trkpt><trkpt lat="43.04321823820924" lon="11.415997608877916"><ele>365.2</ele><time>2026-04-11T10:02:00Z</time></trkpt><trkpt lat="43.04316725234967" lon="11.415893486470715"><ele>363.8</ele><time>2026-04-11T10:02:01Z</time></trkpt><trkpt lat="43.04311022857213" lon="11.415793606488643"><ele>362.4</ele><time>2026-04-11T10:02:02Z</time></trkpt><trkpt lat="43.04305778040535" lon="11.415691295361487"><ele>361.0</ele><time>2026-04-11T10:02:03Z</time></trkpt><trkpt lat="43.04300763890617" lon="11.415589247995285"><ele>360.75</ele><time>2026-04-11T10:02:04Z</time></trkpt><trkpt lat="43.042954474009164" lon="11.415482604162516"><ele>360.5</ele><time>2026-04-11T10:02:05Z</time></trkpt><trkpt lat="43.0428493243925" lon="11.41525088073437"><ele>360.25</ele><time>2026-04-11T10:02:07Z</time></trkpt><trkpt lat="43.042794857713304" lon="11.415136562904417"><ele>360.0</ele><time>2026-04-11T10:02:08Z</time></trkpt><trkpt lat="43.04273989079829" lon="11.415033151215823"><ele>360.0</ele><time>2026-04-11T10:02:09Z</time></trkpt><trkpt lat="43.04267524639682" lon="11.414942268141175"><ele>360.0</ele><time>2026-04-11T10:02:10Z</time></trkpt><trkpt lat="43.0426104982101" lon="11.41485853268842"><ele>360.0</ele><time>2026-04-11T10:02:11Z</time></trkpt><trkpt lat="43.04254876014739" lon="11.414775405655346"><ele>360.0</ele><time>2026-04-11T10:02:12Z</time></trkpt><trkpt lat="43.04248604091465" lon="11.414700800520658"><ele>360.0</ele><time>2026-04-11T10:02:13Z</time></trkpt><trkpt lat="43.04242243380751" lon="11.414631185325067"><ele>360.0</ele><time>2026-04-11T10:02:14Z</time></trkpt><trkpt lat="43.04236477945828" lon="11.414568036456165"><ele>358.5</ele><time>2026-04-11T10:02:15Z</time></trkpt><trkpt lat="43.042313743667215" lon="11.414479270398397"><ele>357.0</ele><time>2026-04-11T10:02:16Z</time></trkpt><trkpt lat="43.04225652645742" lon="11.414410275431115"><ele>355.5</ele><time>2026-04-11T10:02:17Z</time></trkpt><trkpt lat="43.04219645920368" lon="11.41433726154212"><ele>354.0</ele><time>2026-04-11T10:02:18Z</time></trkpt><trkpt lat="43.042142575940204" lon="11.414261509482815"><ele>352.5</ele><time>2026-04-11T10:02:19Z</time></trkpt><trkpt lat="43.04209005033768" lon="11.414174061332913"><ele>351.0</ele><time>2026-04-11T10:02:20Z</time></trkpt><trkpt lat="43.042041376723354" lon="11.414069373587473"><ele>351.0</ele><time>2026-04-11T10:02:21Z</time></trkpt><trkpt lat="43.04201777652078" lon="11.413932371348324"><ele>351.0</ele><time>2026-04-11T10:02:22Z</time></trkpt><trkpt lat="43.041975968470254" lon="11.413814887952292"><ele>351.0</ele><time>2026-04-11T10:02:23Z</time></trkpt><trkpt lat="43.04192929964916" lon="11.413689683541989"><ele>351.0</ele><time>2026-04-11T10:02:24Z</time></trkpt><trkpt lat="43.04188890343174" lon="11.4135620383301"><ele>351.0</ele><time>2026-04-11T10:02:25Z</time></trkpt><trkpt lat="43.04184624271431" lon="11.413428030411106"><ele>349.5</ele><time>2026-04-11T10:02:26Z</time></trkpt><trkpt lat="43.04174670713023" lon="11.413161717620328"><ele>348.0</ele><time>2026-04-11T10:02:28Z</time></trkpt><trkpt lat="43.04170354824248" lon="11.413034133571282"><ele>346.5</ele><time>2026-04-11T10:02:29Z</time></trkpt><trkpt lat="43.04166659030986" lon="11.412910604504678"><ele>345.0</ele><time>2026-04-11T10:02:30Z</time></trkpt><trkpt lat="43.0416335417072" lon="11.412785808588032"><ele>342.2</ele><time>2026-04-11T10:02:31Z</time></trkpt><trkpt lat="43.04160529024317" lon="11.412661976542154"><ele>339.4</ele><time>2026-04-11T10:02:32Z</time></trkpt><trkpt lat="43.04157482839351" lon="11.412529435597474"><ele>336.6</ele><time>2026-04-11T10:02:33Z</time></trkpt><trkpt lat="43.04155982288995" lon="11.41238509359667"><ele>333.8</ele><time>2026-04-11T10:02:34Z</time></trkpt><trkpt lat="43.041546398348444" lon="11.41223225903863"><ele>331.0</ele><time>2026-04-11T10:02:35Z</time></trkpt><trkpt lat="43.04154485275154" lon="11.412080335099526"><ele>329.6</ele><time>2026-04-11T10:02:36Z</time></trkpt><trkpt lat="43.041546392084605" lon="11.411928486865488"><ele>328.20000000000005</ele><time>2026-04-11T10:02:37Z</time></trkpt><trkpt lat="43.04155050785985" lon="11.411777276152076"><ele>326.79999999999995</ele><time>2026-04-11T10:02:38Z</time></trkpt><trkpt lat="43.04155763429964" lon="11.41162661860787"><ele>325.4</ele><time>2026-04-11T10:02:39Z</time></trkpt><trkpt lat="43.04156302075431" lon="11.411484804957631"><ele>324.0</ele><time>2026-04-11T10:02:40Z</time></trkpt><trkpt lat="43.0415640765123" lon="11.411347682938912"><ele>323.6666666666667</ele><time>2026-04-11T10:02:41Z</time></trkpt><trkpt lat="43.041567296439446" lon="11.411221173946947"><ele>323.3333333333333</ele><time>2026-04-11T10:02:42Z</time></trkpt><trkpt lat="43.041577775047735" lon="11.411101010747366"><ele>323.0</ele><time>2026-04-11T10:02:43Z</time></trkpt><trkpt lat="43.04158813668828" lon="11.41098087840797"><ele>322.66666666666663</ele><time>2026-04-11T10:02:44Z</time></trkpt><trkpt lat="43.04160161464078" lon="11.410867050174247"><ele>322.3333333333333</ele><time>2026-04-11T10:02:45Z</time></trkpt><trkpt lat="43.04161032851328" lon="11.410748020669434"><ele>322.0</ele><time>2026-04-11T10:02:46Z</time></trkpt><trkpt lat="43.041627013910436" lon="11.410640945196693"><ele>321.8</ele><time>2026-04-11T10:02:47Z</time></trkpt><trkpt lat="43.0416608545811" lon="11.410432328538949"><ele>321.6</ele><time>2026-04-11T10:02:49Z</time></trkpt><trkpt lat="43.041675537151974" lon="11.41032740204172"><ele>321.40000000000003</ele><time>2026-04-11T10:02:50Z</time></trkpt><trkpt lat="43.04168878963428" lon="11.410220370532025"><ele>321.20000000000005</ele><time>2026-04-11T10:02:51Z</time></trkpt><trkpt lat="43.04169901477926" lon="11.41011053385291"><ele>321.0</ele><time>2026-04-11T10:02:52Z</time></trkpt><trkpt lat="43.04170942080221" lon="11.410009513622695"><ele>321.0</ele><time>2026-04-11T10:02:53Z</time></trkpt><trkpt lat="43.04172108121663" lon="11.409908598355644"><ele>321.0</ele><time>2026-04-11T10:02:54Z</time></trkpt><trkpt lat="43.04173468934866" lon="11.409810572671583"><ele>321.0</ele><time>2026-04-11T10:02:55Z</time></trkpt><trkpt lat="43.04175043868597" lon="11.409703384237526"><ele>321.0</ele><time>2026-04-11T10:02:56Z</time></trkpt><trkpt lat="43.04176229478969" lon="11.409596639472612"><ele>321.0</ele><time>2026-04-11T10:02:57Z</time></trkpt><trkpt lat="43.04176219976045" lon="11.40947115021444"><ele>321.0</ele><time>2026-04-11T10:02:58Z</time></trkpt><trkpt lat="43.041762997399154" lon="11.409342305343683"><ele>319.6666666666667</ele><time>2026-04-11T10:02:59Z</time></trkpt><trkpt lat="43.04176842613982" lon="11.409215403660829"><ele>318.3333333333333</ele><time>2026-04-11T10:03:00Z</time></trkpt><trkpt lat="43.04176882929291" lon="11.4090925969318"><ele>317.0</ele><time>2026-04-11T10:03:01Z</time></trkpt><trkpt lat="43.04177198111583" lon="11.408989083358009"><ele>315.66666666666663</ele><time>2026-04-11T10:03:02Z</time></trkpt><trkpt lat="43.0417745043309" lon="11.408877645204711"><ele>314.3333333333333</ele><time>2026-04-11T10:03:03Z</time></trkpt><trkpt lat="43.0417830740782" lon="11.408759759864697"><ele>313.0</ele><time>2026-04-11T10:03:04Z</time></trkpt><trkpt lat="43.04178719756" lon="11.408641724122253"><ele>311.0</ele><time>2026-04-11T10:03:05Z</time></trkpt><trkpt lat="43.04178700493293" lon="11.408508111020728"><ele>309.0</ele><time>2026-04-11T10:03:06Z</time></trkpt><trkpt lat="43.04179194773279" lon="11.408370742652567"><ele>307.0</ele><time>2026-04-11T10:03:07Z</time></trkpt><trkpt lat="43.04179562494064" lon="11.408241135824957"><ele>305.0</ele><time>2026-04-11T10:03:08Z</time></trkpt><trkpt lat="43.04180479002368" lon="11.40801401544911"><ele>303.7142857142857</ele><time>2026-04-11T10:03:10Z</time></trkpt><trkpt lat="43.041801409060724" lon="11.40792285819294"><ele>302.4285714285714</ele><time>2026-04-11T10:03:11Z</time></trkpt><trkpt lat="43.04177939669435" lon="11.40783701310653"><ele>301.1428571428571</ele><time>2026-04-11T10:03:12Z</time></trkpt><trkpt lat="43.04173504644697" lon="11.407756979308601"><ele>299.8571428571429</ele><time>2026-04-11T10:03:13Z</time></trkpt><trkpt lat="43.04167158543124" lon="11.407696655873938"><ele>298.57142857142856</ele><time>2026-04-11T10:03:14Z</time></trkpt><trkpt lat="43.041594512264204" lon="11.40766578981356"><ele>297.2857142857143</ele><time>2026-04-11T10:03:15Z</time></trkpt><trkpt lat="43.041511889632375" lon="11.407639173746922"><ele>296.0</ele><time>2026-04-11T10:03:16Z</time></trkpt><trkpt lat="43.041431437159446" lon="11.407657628582946"><ele>296.0</ele><time>2026-04-11T10:03:17Z</time></trkpt><trkpt lat="43.0413556963068" lon="11.40766503649638"><ele>296.0</ele><time>2026-04-11T10:03:18Z</time></trkpt><trkpt lat="43.04126678207767" lon="11.407646011848621"><ele>296.0</ele><time>2026-04-11T10:03:19Z</time></trkpt><trkpt lat="43.04118492100619" lon="11.407629753139583"><ele>296.0</ele><time>2026-04-11T10:03:20Z</time></trkpt><trkpt lat="43.04109567717812" lon="11.407603049251936"><ele>296.0</ele><time>2026-04-11T10:03:21Z</time></trkpt><trkpt lat="43.041005087197085" lon="11.407573030536632"><ele>296.0</ele><time>2026-04-11T10:03:22Z</time></trkpt><trkpt lat="43.04090720972321" lon="11.407547856694567"><ele>296.0</ele><time>2026-04-11T10:03:23Z</time></trkpt><trkpt lat="43.04081115157787" lon="11.407532359600687"><ele>296.0</ele><time>2026-04-11T10:03:24Z</time></trkpt><trkpt lat="43.04071607888154" lon="11.407533031652184"><ele>296.0</ele><time>2026-04-11T10:03:25Z</time></trkpt><trkpt lat="43.04062569922568" lon="11.4075403749651"><ele>296.0</ele><time>2026-04-11T10:03:26Z</time></trkpt><trkpt lat="43.04053678593216" lon="11.407549300844954"><ele>296.0</ele><time>2026-04-11T10:03:27Z</time></trkpt><trkpt lat="43.04045215608419" lon="11.407581655340458"><ele>295.0</ele><time>2026-04-11T10:03:28Z</time></trkpt><trkpt lat="43.04037326165675" lon="11.40763305054223"><ele>294.0</ele><time>2026-04-11T10:03:29Z</time></trkpt><trkpt lat="43.04022245987892" lon="11.407761492166156"><ele>293.0</ele><time>2026-04-11T10:03:31Z</time></trkpt><trkpt lat="43.04014577111805" lon="11.407820745389554"><ele>292.0</ele><time>2026-04-11T10:03:32Z</time></trkpt><trkpt lat="43.040070928068715" lon="11.407872710858229"><ele>291.0</ele><time>2026-04-11T10:03:33Z</time></trkpt><trkpt lat="43.03999633815686" lon="11.407915502944538"><ele>290.6666666666667</ele><time>2026-04-11T10:03:34Z</time></trkpt><trkpt lat="43.039926523726464" lon="11.407958162934097"><ele>290.3333333333333</ele><time>2026-04-11T10:03:35Z</time></trkpt><trkpt lat="43.03985255062622" lon="11.407994601401503"><ele>290.0</ele><time>2026-04-11T10:03:36Z</time></trkpt><trkpt lat="43.03978233626597" lon="11.408026303375687"><ele>289.66666666666663</ele><time>2026-04-11T10:03:37Z</time></trkpt><trkpt lat="43.039706792639066" lon="11.408046238165246"><ele>289.3333333333333</ele><time>2026-04-11T10:03:38Z</time></trkpt><trkpt lat="43.039620126194144" lon="11.408049152707127"><ele>289.0</ele><time>2026-04-11T10:03:39Z</time></trkpt><trkpt lat="43.03953316043756" lon="11.40807701674048"><ele>289.0</ele><time>2026-04-11T10:03:40Z</time></trkpt><trkpt lat="43.03943810413989" lon="11.408103864702962"><ele>289.0</ele><time>2026-04-11T10:03:41Z</time></trkpt><trkpt lat="43.03934584382725" lon="11.408117611030264"><ele>289.0</ele><time>2026-04-11T10:03:42Z</time></trkpt><trkpt lat="43.03925692473653" lon="11.408144055815372"><ele>289.0</ele><time>2026-04-11T10:03:43Z</time></trkpt><trkpt lat="43.03917088143322" lon="11.408166923552328"><ele>289.0</ele><time>2026-04-11T10:03:44Z</time></trkpt><trkpt lat="43.039089052983805" lon="11.408195885176415"><ele>287.4</ele><time>2026-04-11T10:03:45Z</time></trkpt><trkpt lat="43.039003110642014" lon="11.408240349234609"><ele>285.79999999999995</ele><time>2026-04-11T10:03:46Z</time></trkpt><trkpt lat="43.038917849352636" lon="11.408286306667938"><ele>284.20000000000005</ele><time>2026-04-11T10:03:47Z</time></trkpt><trkpt lat="43.038826619551806" lon="11.408342563376035"><ele>282.6</ele><time>2026-04-11T10:03:48Z</time></trkpt><trkpt lat="43.03874211549875" lon="11.408391220219237"><ele>281.0</ele><time>2026-04-11T10:03:49Z</time></trkpt><trkpt lat="43.03865680985437" lon="11.408446648948582"><ele>281.0</ele><time>2026-04-11T10:03:50Z</time></trkpt><trkpt lat="43.03847187880118" lon="11.408560998117219"><ele>281.0</ele><time>2026-04-11T10:03:52Z</time></trkpt><trkpt lat="43.0383790414453" lon="11.408620567759984"><ele>281.0</ele><time>2026-04-11T10:03:53Z</time></trkpt><trkpt lat="43.038289817631444" lon="11.408686212050434"><ele>281.0</ele><time>2026-04-11T10:03:54Z</time></trkpt><trkpt lat="43.03820496014034" lon="11.408775836900382"><ele>280.2</ele><time>2026-04-11T10:03:55Z</time></trkpt><trkpt lat="43.03813358247869" lon="11.408870674183436"><ele>279.40000000000003</ele><time>2026-04-11T10:03:56Z</time></trkpt><trkpt lat="43.03807216749608" lon="11.408970359179259"><ele>278.6</ele><time>2026-04-11T10:03:57Z</time></trkpt><trkpt lat="43.0380076617645" lon="11.409063132177886"><ele>277.8</ele><time>2026-04-11T10:03:58Z</time></trkpt><trkpt lat="43.03794089790938" lon="11.409147806765741"><ele>277.0</ele><time>2026-04-11T10:03:59Z</time></trkpt><trkpt lat="43.03787927248528" lon="11.40922895638905"><ele>277.0</ele><time>2026-04-11T10:04:00Z</time></trkpt><trkpt lat="43.03782136011039" lon="11.409309235569257"><ele>277.0</ele><time>2026-04-11T10:04:01Z</time></trkpt><trkpt lat="43.037762495430016" lon="11.409384846105326"><ele>277.0</ele><time>2026-04-11T10:04:02Z</time></trkpt><trkpt lat="43.03770019611736" lon="11.409449272688079"><ele>277.0</ele><time>2026-04-11T10:04:03Z</time></trkpt><trkpt lat="43.037636217825195" lon="11.409484298947461"><ele>277.0</ele><time>2026-04-11T10:04:04Z</time></trkpt><trkpt lat="43.03756397404753" lon="11.40948728454198"><ele>277.0</ele><time>2026-04-11T10:04:05Z</time></trkpt><trkpt lat="43.03749325387501" lon="11.40944269480264"><ele>276.66666666666663</ele><time>2026-04-11T10:04:06Z</time></trkpt><trkpt lat="43.03743370481856" lon="11.40936697018621"><ele>276.3333333333333</ele><time>2026-04-11T10:04:07Z</time></trkpt><trkpt lat="43.0373783883877" lon="11.409278350722312"><ele>276.0</ele><time>2026-04-11T10:04:08Z</time></trkpt><trkpt lat="43.03732840622872" lon="11.409182713183764"><ele>275.6666666666667</ele><time>2026-04-11T10:04:09Z</time></trkpt><trkpt lat="43.03727355936592" lon="11.409091745468837"><ele>275.33333333333337</ele><time>2026-04-11T10:04:10Z</time></trkpt><trkpt lat="43.03722066212097" lon="11.409001960555447"><ele>275.0</ele><time>2026-04-11T10:04:11Z</time></trkpt><trkpt lat="43.03709716947684" lon="11.408823453813064"><ele>274.0</ele><time>2026-04-11T10:04:13Z</time></trkpt><trkpt lat="43.037039342605425" lon="11.408728298787594"><ele>273.0</ele><time>2026-04-11T10:04:14Z</time></trkpt><trkpt lat="43.036976910536886" lon="11.40863425427238"><ele>272.0</ele><time>2026-04-11T10:04:15Z</time></trkpt><trkpt lat="43.03691279629398" lon="11.408536075016565"><ele>271.0</ele><time>2026-04-11T10:04:16Z</time></trkpt><trkpt lat="43.03685003085691" lon="11.408442338270957"><ele>270.0</ele><time>2026-04-11T10:04:17Z</time></trkpt><trkpt lat="43.036790899380215" lon="11.40833636096763"><ele>270.0</ele><time>2026-04-11T10:04:18Z</time></trkpt><trkpt lat="43.03673884838224" lon="11.408250084404791"><ele>270.0</ele><time>2026-04-11T10:04:19Z</time></trkpt><trkpt lat="43.03663724520929" lon="11.408180135444987"><ele>270.0</ele><time>2026-04-11T10:04:21Z</time></trkpt><trkpt lat="43.03653101502158" lon="11.408238923362381"><ele>270.0</ele><time>2026-04-11T10:04:23Z</time></trkpt><trkpt lat="43.03645224431492" lon="11.408347559781372"><ele>270.0</ele><time>2026-04-11T10:04:25Z</time></trkpt><trkpt lat="43.03638524596911" lon="11.408453625070559"><ele>270.5</ele><time>2026-04-11T10:04:27Z</time></trkpt><trkpt lat="43.036310873916804" lon="11.408563566499447"><ele>271.0</ele><time>2026-04-11T10:04:29Z</time></trkpt><trkpt lat="43.03623986491766" lon="11.408671043498565"><ele>271.5</ele><time>2026-04-11T10:04:31Z</time></trkpt><trkpt lat="43.036164925171704" lon="11.40877085948116"><ele>272.0</ele><time>2026-04-11T10:04:33Z</time></trkpt><trkpt lat="43.03601651129465" lon="11.408985491283223"><ele>272.0</ele><time>2026-04-11T10:04:37Z</time></trkpt><trkpt lat="43.03594332991757" lon="11.409093664028475"><ele>272.0</ele><time>2026-04-11T10:04:39Z</time></trkpt><trkpt lat="43.035871046362814" lon="11.409179442887249"><ele>272.0</ele><time>2026-04-11T10:04:41Z</time></trkpt><trkpt lat="43.0358056417461" lon="11.409270973360382"><ele>272.0</ele><time>2026-04-11T10:04:43Z</time></trkpt><trkpt lat="43.03574106545678" lon="11.409355117876672"><ele>272.0</ele><time>2026-04-11T10:04:45Z</time></trkpt><trkpt lat="43.035679213881906" lon="11.409427216685502"><ele>271.6</ele><time>2026-04-11T10:04:47Z</time></trkpt><trkpt lat="43.03562794234312" lon="11.409496942042786"><ele>271.2</ele><time>2026-04-11T10:04:49Z</time></trkpt><trkpt lat="43.035552107780184" lon="11.409562679760224"><ele>270.8</ele><time>2026-04-11T10:04:52Z</time></trkpt><trkpt lat="43.03547767324467" lon="11.409630147538008"><ele>270.4</ele><time>2026-04-11T10:04:55Z</time></trkpt><trkpt lat="43.0353295609452" lon="11.409758999607096"><ele>270.0</ele><time>2026-04-11T10:05:01Z</time></trkpt><trkpt lat="43.03526113861964" lon="11.409824437885863"><ele>270.6666666666667</ele><time>2026-04-11T10:05:05Z</time></trkpt><trkpt lat="43.035215145026015" lon="11.409885342706298"><ele>271.3333333333333</ele><time>2026-04-11T10:05:08Z</time></trkpt><trkpt lat="43.035166477088175" lon="11.409942301713013"><ele>272.0</ele><time>2026-04-11T10:05:11Z</time></trkpt><trkpt lat="43.035083851895294" lon="11.409985145308097"><ele>272.66666666666663</ele><time>2026-04-11T10:05:14Z</time></trkpt><trkpt lat="43.03502035797942" lon="11.41001563344653"><ele>273.3333333333333</ele><time>2026-04-11T10:05:16Z</time></trkpt><trkpt lat="43.03488765313303" lon="11.410098036645564"><ele>274.0</ele><time>2026-04-11T10:05:20Z</time></trkpt><trkpt lat="43.03483143400634" lon="11.410140069077059"><ele>274.0</ele><time>2026-04-11T10:05:22Z</time></trkpt><trkpt lat="43.0347718024657" lon="11.410171247441562"><ele>274.0</ele><time>2026-04-11T10:05:24Z</time></trkpt><trkpt lat="43.03471052396996" lon="11.410211651122967"><ele>274.0</ele><time>2026-04-11T10:05:26Z</time></trkpt><trkpt lat="43.03463257757137" lon="11.41024766172597"><ele>274.0</ele><time>2026-04-11T10:05:28Z</time></trkpt><trkpt lat="43.03455542829167" lon="11.410300472232612"><ele>274.0</ele><time>2026-04-11T10:05:30Z</time></trkpt><trkpt lat="43.034486131883625" lon="11.410328408627889"><ele>274.0</ele><time>2026-04-11T10:05:33Z</time></trkpt><trkpt lat="43.03438628578535" lon="11.410363997469558"><ele>274.0</ele><time>2026-04-11T10:05:36Z</time></trkpt><trkpt lat="43.03431553601583" lon="11.410400348820225"><ele>274.0</ele><time>2026-04-11T10:05:37Z</time></trkpt><trkpt lat="43.03414222654458" lon="11.410418781069975"><ele>274.0</ele><time>2026-04-11T10:05:39Z</time></trkpt><trkpt lat="43.034060034075516" lon="11.410434344536128"><ele>274.0</ele><time>2026-04-11T10:05:40Z</time></trkpt><trkpt lat="43.03397816609558" lon="11.41044833687941"><ele>274.0</ele><time>2026-04-11T10:05:41Z</time></trkpt><trkpt lat="43.03388786691114" lon="11.410450871693456"><ele>273.8333333333333</ele><time>2026-04-11T10:05:42Z</time></trkpt><trkpt lat="43.03380207195293" lon="11.410451952287959"><ele>273.66666666666663</ele><time>2026-04-11T10:05:43Z</time></trkpt><trkpt lat="43.03370873887628" lon="11.410468067096655"><ele>273.5</ele><time>2026-04-11T10:05:44Z</time></trkpt><trkpt lat="43.03363198209628" lon="11.410480643617504"><ele>273.3333333333333</ele><time>2026-04-11T10:05:45Z</time></trkpt><trkpt lat="43.033553040956384" lon="11.41050669069898"><ele>273.1666666666667</ele><time>2026-04-11T10:05:46Z</time></trkpt><trkpt lat="43.0334653073249" lon="11.410529261097922"><ele>273.0</ele><time>2026-04-11T10:05:47Z</time></trkpt><trkpt lat="43.03338782749754" lon="11.410547175634381"><ele>271.0</ele><time>2026-04-11T10:05:48Z</time></trkpt><trkpt lat="43.03328711897053" lon="11.410565428171383"><ele>269.0</ele><time>2026-04-11T10:05:49Z</time></trkpt><trkpt lat="43.033180349654046" lon="11.410575074014487"><ele>267.0</ele><time>2026-04-11T10:05:50Z</time></trkpt><trkpt lat="43.033083623450594" lon="11.410577445623074"><ele>265.0</ele><time>2026-04-11T10:05:51Z</time></trkpt><trkpt lat="43.032974223454474" lon="11.410591572483767"><ele>263.0</ele><time>2026-04-11T10:05:52Z</time></trkpt><trkpt lat="43.03287068172104" lon="11.410603362203478"><ele>263.0</ele><time>2026-04-11T10:05:53Z</time></trkpt><trkpt lat="43.0327622665134" lon="11.410621837658518"><ele>263.0</ele><time>2026-04-11T10:05:54Z</time></trkpt><trkpt lat="43.03266362877684" lon="11.410645174176086"><ele>263.0</ele><time>2026-04-11T10:05:55Z</time></trkpt><trkpt lat="43.03255790331496" lon="11.410666244752024"><ele>263.0</ele><time>2026-04-11T10:05:56Z</time></trkpt><trkpt lat="43.03245598989633" lon="11.410701830589455"><ele>263.0</ele><time>2026-04-11T10:05:57Z</time></trkpt><trkpt lat="43.032351542331526" lon="11.410740334010587"><ele>260.25</ele><time>2026-04-11T10:05:58Z</time></trkpt><trkpt lat="43.032132866690795" lon="11.410838563152307"><ele>257.5</ele><time>2026-04-11T10:06:00Z</time></trkpt><trkpt lat="43.03203702726135" lon="11.410872953529253"><ele>254.75</ele><time>2026-04-11T10:06:01Z</time></trkpt><trkpt lat="43.03193395936243" lon="11.410927368021019"><ele>252.0</ele><time>2026-04-11T10:06:02Z</time></trkpt><trkpt lat="43.03184972296091" lon="11.410989117257516"><ele>252.0</ele><time>2026-04-11T10:06:03Z</time></trkpt><trkpt lat="43.03176956391094" lon="11.411026061691082"><ele>252.0</ele><time>2026-04-11T10:06:04Z</time></trkpt><trkpt lat="43.03168578548983" lon="11.411055991853086"><ele>252.0</ele><time>2026-04-11T10:06:05Z</time></trkpt><trkpt lat="43.03159927035733" lon="11.411091610767793"><ele>252.0</ele><time>2026-04-11T10:06:06Z</time></trkpt><trkpt lat="43.03151293025933" lon="11.41112829687308"><ele>252.0</ele><time>2026-04-11T10:06:07Z</time></trkpt><trkpt lat="43.03142380457803" lon="11.411159585714188"><ele>252.0</ele><time>2026-04-11T10:06:08Z</time></trkpt><trkpt lat="43.031333880147116" lon="11.411188719930893"><ele>252.16666666666666</ele><time>2026-04-11T10:06:09Z</time></trkpt><trkpt lat="43.0312469522797" lon="11.411220459128756"><ele>252.33333333333331</ele><time>2026-04-11T10:06:10Z</time></trkpt><trkpt lat="43.03116171146532" lon="11.411254347844453"><ele>252.5</ele><time>2026-04-11T10:06:11Z</time></trkpt><trkpt lat="43.03107753370676" lon="11.41128644983242"><ele>252.66666666666666</ele><time>2026-04-11T10:06:12Z</time></trkpt><trkpt lat="43.03099103415191" lon="11.41131454041279"><ele>252.83333333333331</ele><time>2026-04-11T10:06:13Z</time></trkpt><trkpt lat="43.03090683397662" lon="11.411346150795183"><ele>253.0</ele><time>2026-04-11T10:06:14Z</time></trkpt><trkpt lat="43.030826921477285" lon="11.411381797527458"><ele>250.2</ele><time>2026-04-11T10:06:15Z</time></trkpt><trkpt lat="43.030749080272024" lon="11.411427416779514"><ele>247.4</ele><time>2026-04-11T10:06:16Z</time></trkpt><trkpt lat="43.0306716891995" lon="11.411479038020437"><ele>244.59999999999997</ele><time>2026-04-11T10:06:17Z</time></trkpt><trkpt lat="43.03059501419644" lon="11.411544807331863"><ele>241.79999999999998</ele><time>2026-04-11T10:06:18Z</time></trkpt><trkpt lat="43.030515848633456" lon="11.411621962973795"><ele>239.0</ele><time>2026-04-11T10:06:19Z</time></trkpt><trkpt lat="43.03036685770644" lon="11.411778252784197"><ele>239.0</ele><time>2026-04-11T10:06:21Z</time></trkpt><trkpt lat="43.03029461452114" lon="11.411859558317332"><ele>238.99999999999997</ele><time>2026-04-11T10:06:22Z</time></trkpt><trkpt lat="43.03022388545767" lon="11.41195126704372"><ele>238.99999999999997</ele><time>2026-04-11T10:06:23Z</time></trkpt><trkpt lat="43.03014997809446" lon="11.412052342365362"><ele>239.0</ele><time>2026-04-11T10:06:24Z</time></trkpt><trkpt lat="43.030074228658066" lon="11.412165137554949"><ele>239.0</ele><time>2026-04-11T10:06:25Z</time></trkpt><trkpt lat="43.03000501007485" lon="11.412292606696536"><ele>237.6</ele><time>2026-04-11T10:06:26Z</time></trkpt><trkpt lat="43.02993696717394" lon="11.412425281051943"><ele>236.2</ele><time>2026-04-11T10:06:27Z</time></trkpt><trkpt lat="43.029874136945985" lon="11.412556362621588"><ele>234.79999999999998</ele><time>2026-04-11T10:06:28Z</time></trkpt><trkpt lat="43.02981539282271" lon="11.412668385028034"><ele>233.39999999999998</ele><time>2026-04-11T10:06:29Z</time></trkpt><trkpt lat="43.029760296325534" lon="11.412775491852406"><ele>232.0</ele><time>2026-04-11T10:06:30Z</time></trkpt><trkpt lat="43.02970827048602" lon="11.412869224648325"><ele>231.99999999999997</ele><time>2026-04-11T10:06:31Z</time></trkpt><trkpt lat="43.029666070488396" lon="11.41294594896908"><ele>232.0</ele><time>2026-04-11T10:06:32Z</time></trkpt><trkpt lat="43.0296303832248" lon="11.413022007951906"><ele>232.0</ele><time>2026-04-11T10:06:33Z</time></trkpt><trkpt lat="43.02956464575601" lon="11.413145347504413"><ele>232.0</ele><time>2026-04-11T10:06:35Z</time></trkpt><trkpt lat="43.02949688640432" lon="11.413243620508036"><ele>231.99999999999997</ele><time>2026-04-11T10:06:37Z</time></trkpt><trkpt lat="43.029449894609456" lon="11.41335246952494"><ele>232.0</ele><time>2026-04-11T10:06:39Z</time></trkpt><trkpt lat="43.02939346716321" lon="11.413437884679603"><ele>233.0</ele><time>2026-04-11T10:06:41Z</time></trkpt><trkpt lat="43.02928963923374" lon="11.413591155756512"><ele>234.0</ele><time>2026-04-11T10:06:45Z</time></trkpt><trkpt lat="43.029243408333734" lon="11.413671897093737"><ele>235.0</ele><time>2026-04-11T10:06:47Z</time></trkpt><trkpt lat="43.02919313566605" lon="11.413751769950299"><ele>236.0</ele><time>2026-04-11T10:06:49Z</time></trkpt><trkpt lat="43.02914538374877" lon="11.413834465038738"><ele>237.0</ele><time>2026-04-11T10:06:51Z</time></trkpt><trkpt lat="43.02907817358595" lon="11.413915620108694"><ele>237.0</ele><time>2026-04-11T10:06:53Z</time></trkpt><trkpt lat="43.02903743024693" lon="11.414012323272699"><ele>237.0</ele><time>2026-04-11T10:06:55Z</time></trkpt><trkpt lat="43.02898039999554" lon="11.4141220165243"><ele>237.0</ele><time>2026-04-11T10:06:57Z</time></trkpt><trkpt lat="43.02893353604446" lon="11.414214266082844"><ele>237.0</ele><time>2026-04-11T10:07:00Z</time></trkpt><trkpt lat="43.02888984817568" lon="11.414294287221168"><ele>237.0</ele><time>2026-04-11T10:07:01Z</time></trkpt><trkpt lat="43.0288380574373" lon="11.414356423802031"><ele>237.0</ele><time>2026-04-11T10:07:02Z</time></trkpt><trkpt lat="43.028699950530566" lon="11.41456143351414"><ele>238.16666666666666</ele><time>2026-04-11T10:07:06Z</time></trkpt><trkpt lat="43.02863599668159" lon="11.414674465726579"><ele>239.33333333333331</ele><time>2026-04-11T10:07:08Z</time></trkpt><trkpt lat="43.028576641994036" lon="11.414778468025276"><ele>240.5</ele><time>2026-04-11T10:07:10Z</time></trkpt><trkpt lat="43.02851892465858" lon="11.41487409997214"><ele>241.66666666666666</ele><time>2026-04-11T10:07:12Z</time></trkpt><trkpt lat="43.028466333613366" lon="11.41494867187611"><ele>242.83333333333331</ele><time>2026-04-11T10:07:14Z</time></trkpt><trkpt lat="43.02842108615025" lon="11.41501312726821"><ele>244.0</ele><time>2026-04-11T10:07:16Z</time></trkpt><trkpt lat="43.0283694636985" lon="11.415096874512697"><ele>244.0</ele><time>2026-04-11T10:07:19Z</time></trkpt><trkpt lat="43.028320526129406" lon="11.415177027082011"><ele>243.99999999999997</ele><time>2026-04-11T10:07:22Z</time></trkpt><trkpt lat="43.02826974635008" lon="11.415254318009536"><ele>243.99999999999997</ele><time>2026-04-11T10:07:25Z</time></trkpt><trkpt lat="43.028167100755034" lon="11.41540806380086"><ele>244.0</ele><time>2026-04-11T10:07:31Z</time></trkpt><trkpt lat="43.0281170552933" lon="11.415485546165895"><ele>244.0</ele><time>2026-04-11T10:07:34Z</time></trkpt><trkpt lat="43.028071561064074" lon="11.415566375181093"><ele>244.16666666666666</ele><time>2026-04-11T10:07:38Z</time></trkpt><trkpt lat="43.02802840615697" lon="11.415656650339264"><ele>244.33333333333331</ele><time>2026-04-11T10:07:41Z</time></trkpt><trkpt lat="43.02797592881349" lon="11.415739048936349"><ele>244.5</ele><time>2026-04-11T10:07:45Z</time></trkpt><trkpt lat="43.027930250958086" lon="11.415822667700823"><ele>244.66666666666669</ele><time>2026-04-11T10:07:47Z</time></trkpt><trkpt lat="43.02784501836814" lon="11.41596495706207"><ele>244.83333333333334</ele><time>2026-04-11T10:07:51Z</time></trkpt><trkpt lat="43.02779726987482" lon="11.416046174907171"><ele>245.0</ele><time>2026-04-11T10:07:53Z</time></trkpt><trkpt lat="43.02774584944187" lon="11.416132649627967"><ele>245.0</ele><time>2026-04-11T10:07:55Z</time></trkpt><trkpt lat="43.02769192319944" lon="11.41622599964034"><ele>245.0</ele><time>2026-04-11T10:07:57Z</time></trkpt><trkpt lat="43.02763210026443" lon="11.41633618919717"><ele>245.0</ele><time>2026-04-11T10:07:59Z</time></trkpt><trkpt lat="43.027561537371604" lon="11.416463442893248"><ele>245.0</ele><time>2026-04-11T10:08:01Z</time></trkpt><trkpt lat="43.02748241748572" lon="11.416596139796004"><ele>245.0</ele><time>2026-04-11T10:08:03Z</time></trkpt><trkpt lat="43.02744326105799" lon="11.416666559134802"><ele>245.0</ele><time>2026-04-11T10:08:04Z</time></trkpt><trkpt lat="43.0273737445381" lon="11.416797600999436"><ele>245.0</ele><time>2026-04-11T10:08:06Z</time></trkpt><trkpt lat="43.02730256496358" lon="11.416917307736913"><ele>245.0</ele><time>2026-04-11T10:08:08Z</time></trkpt><trkpt lat="43.02716665885502" lon="11.41717903483823"><ele>245.00000000000003</ele><time>2026-04-11T10:08:12Z</time></trkpt><trkpt lat="43.027095369668714" lon="11.41730558231888"><ele>245.0</ele><time>2026-04-11T10:08:14Z</time></trkpt><trkpt lat="43.02704826800778" lon="11.417365687964907"><ele>245.0</ele><time>2026-04-11T10:08:15Z</time></trkpt><trkpt lat="43.02696615804123" lon="11.417489020769326"><ele>245.0</ele><time>2026-04-11T10:08:17Z</time></trkpt><trkpt lat="43.02691862472975" lon="11.41755119031332"><ele>245.00000000000003</ele><time>2026-04-11T10:08:18Z</time></trkpt><trkpt lat="43.026875589853034" lon="11.417615865091644"><ele>245.0</ele><time>2026-04-11T10:08:19Z</time></trkpt><trkpt lat="43.02683120775624" lon="11.417677736757406"><ele>245.0</ele><time>2026-04-11T10:08:20Z</time></trkpt><trkpt lat="43.02678374618281" lon="11.417741166534993"><ele>245.0</ele><time>2026-04-11T10:08:21Z</time></trkpt><trkpt lat="43.02673162257731" lon="11.417799516089815"><ele>245.0</ele><time>2026-04-11T10:08:22Z</time></trkpt><trkpt lat="43.026647382874195" lon="11.41791449531869"><ele>245.0</ele><time>2026-04-11T10:08:24Z</time></trkpt><trkpt lat="43.0265600209459" lon="11.418022421286569"><ele>245.0</ele><time>2026-04-11T10:08:26Z</time></trkpt><trkpt lat="43.02646695710364" lon="11.41812850030232"><ele>245.2</ele><time>2026-04-11T10:08:28Z</time></trkpt><trkpt lat="43.02639327406742" lon="11.418216428784062"><ele>245.4</ele><time>2026-04-11T10:08:30Z</time></trkpt><trkpt lat="43.02627572777304" lon="11.418371816336311"><ele>245.60000000000002</ele><time>2026-04-11T10:08:34Z</time></trkpt><trkpt lat="43.026212940305896" lon="11.418453431834923"><ele>245.8</ele><time>2026-04-11T10:08:36Z</time></trkpt><trkpt lat="43.026133462365955" lon="11.418533707352797"><ele>246.0</ele><time>2026-04-11T10:08:38Z</time></trkpt><trkpt lat="43.026058614422546" lon="11.41863333518865"><ele>246.0</ele><time>2026-04-11T10:08:40Z</time></trkpt><trkpt lat="43.02597776495356" lon="11.418753459855862"><ele>246.0</ele><time>2026-04-11T10:08:42Z</time></trkpt><trkpt lat="43.02593325183369" lon="11.4188176690174"><ele>246.0</ele><time>2026-04-11T10:08:43Z</time></trkpt><trkpt lat="43.025880360010305" lon="11.418879857278071"><ele>246.0</ele><time>2026-04-11T10:08:44Z</time></trkpt><trkpt lat="43.02582604162587" lon="11.418947669914596"><ele>246.0</ele><time>2026-04-11T10:08:45Z</time></trkpt><trkpt lat="43.02576973062456" lon="11.419021991043776"><ele>246.0</ele><time>2026-04-11T10:08:46Z</time></trkpt><trkpt lat="43.025705746959545" lon="11.419096197666255"><ele>243.60000000000002</ele><time>2026-04-11T10:08:47Z</time></trkpt><trkpt lat="43.02564084900591" lon="11.419175285616587"><ele>241.20000000000002</ele><time>2026-04-11T10:08:48Z</time></trkpt><trkpt lat="43.02557964199056" lon="11.419254635627532"><ele>238.79999999999998</ele><time>2026-04-11T10:08:49Z</time></trkpt><trkpt lat="43.02551438119372" lon="11.419333098837583"><ele>236.39999999999998</ele><time>2026-04-11T10:08:50Z</time></trkpt><trkpt lat="43.025443412235205" lon="11.419416796099075"><ele>234.0</ele><time>2026-04-11T10:08:51Z</time></trkpt><trkpt lat="43.02531351691353" lon="11.41958091527687"><ele>233.5</ele><time>2026-04-11T10:08:53Z</time></trkpt><trkpt lat="43.02524903890122" lon="11.419658770700448"><ele>233.0</ele><time>2026-04-11T10:08:54Z</time></trkpt><trkpt lat="43.02518982434518" lon="11.419734105942727"><ele>232.5</ele><time>2026-04-11T10:08:55Z</time></trkpt><trkpt lat="43.025120759218005" lon="11.419812621440036"><ele>232.0</ele><time>2026-04-11T10:08:56Z</time></trkpt><trkpt lat="43.02504986501481" lon="11.419885799874464"><ele>231.5</ele><time>2026-04-11T10:08:57Z</time></trkpt><trkpt lat="43.02497341018868" lon="11.419951167092703"><ele>231.0</ele><time>2026-04-11T10:08:58Z</time></trkpt><trkpt lat="43.02488946009915" lon="11.420009008859639"><ele>231.0</ele><time>2026-04-11T10:08:59Z</time></trkpt><trkpt lat="43.02480158225056" lon="11.420041434614662"><ele>231.00000000000003</ele><time>2026-04-11T10:09:00Z</time></trkpt><trkpt lat="43.02471153257307" lon="11.42005937777346"><ele>231.00000000000003</ele><time>2026-04-11T10:09:01Z</time></trkpt><trkpt lat="43.02461884400218" lon="11.420061770693787"><ele>231.0</ele><time>2026-04-11T10:09:02Z</time></trkpt><trkpt lat="43.02452239555235" lon="11.420064158062255"><ele>231.0</ele><time>2026-04-11T10:09:03Z</time></trkpt><trkpt lat="43.02442240923066" lon="11.420068293868708"><ele>231.0</ele><time>2026-04-11T10:09:04Z</time></trkpt><trkpt lat="43.024321116105384" lon="11.420077442423437"><ele>231.00000000000003</ele><time>2026-04-11T10:09:05Z</time></trkpt><trkpt lat="43.02423046227134" lon="11.42008132396346"><ele>231.00000000000003</ele><time>2026-04-11T10:09:06Z</time></trkpt><trkpt lat="43.02413311311392" lon="11.420088746420403"><ele>231.0</ele><time>2026-04-11T10:09:07Z</time></trkpt><trkpt lat="43.02403216413165" lon="11.420089893505628"><ele>231.0</ele><time>2026-04-11T10:09:08Z</time></trkpt><trkpt lat="43.02393059681667" lon="11.420095272836113"><ele>229.75</ele><time>2026-04-11T10:09:09Z</time></trkpt><trkpt lat="43.02382574068344" lon="11.42008935830372"><ele>228.5</ele><time>2026-04-11T10:09:10Z</time></trkpt><trkpt lat="43.02372067983587" lon="11.420078019706482"><ele>227.25</ele><time>2026-04-11T10:09:11Z</time></trkpt><trkpt lat="43.023619430962086" lon="11.420059142013429"><ele>226.0</ele><time>2026-04-11T10:09:12Z</time></trkpt><trkpt lat="43.02340927283413" lon="11.420000643830477"><ele>226.20000000000002</ele><time>2026-04-11T10:09:14Z</time></trkpt><trkpt lat="43.0233092185692" lon="11.419951428523161"><ele>226.40000000000003</ele><time>2026-04-11T10:09:15Z</time></trkpt><trkpt lat="43.023216071679215" lon="11.419883189224555"><ele>226.6</ele><time>2026-04-11T10:09:16Z</time></trkpt><trkpt lat="43.023122554045564" lon="11.419813099099391"><ele>226.8</ele><time>2026-04-11T10:09:17Z</time></trkpt><trkpt lat="43.02303169977833" lon="11.419739094609469"><ele>227.0</ele><time>2026-04-11T10:09:18Z</time></trkpt><trkpt lat="43.02293758461277" lon="11.419676047803875"><ele>225.39999999999998</ele><time>2026-04-11T10:09:19Z</time></trkpt><trkpt lat="43.022847470470616" lon="11.419611660615475"><ele>223.79999999999998</ele><time>2026-04-11T10:09:20Z</time></trkpt><trkpt lat="43.02276178296008" lon="11.419545087205073"><ele>222.2</ele><time>2026-04-11T10:09:21Z</time></trkpt><trkpt lat="43.02267491848191" lon="11.419472109311602"><ele>220.6</ele><time>2026-04-11T10:09:22Z</time></trkpt><trkpt lat="43.02259047236951" lon="11.419400796412146"><ele>219.0</ele><time>2026-04-11T10:09:23Z</time></trkpt><trkpt lat="43.02250977654016" lon="11.419333847571759"><ele>220.0</ele><time>2026-04-11T10:09:24Z</time></trkpt><trkpt lat="43.02242324959278" lon="11.419268411124042"><ele>220.99999999999997</ele><time>2026-04-11T10:09:25Z</time></trkpt><trkpt lat="43.022339768108104" lon="11.419204953064009"><ele>221.99999999999997</ele><time>2026-04-11T10:09:26Z</time></trkpt><trkpt lat="43.02225825496894" lon="11.419141107234084"><ele>223.0</ele><time>2026-04-11T10:09:27Z</time></trkpt><trkpt lat="43.0221840455104" lon="11.419073046751127"><ele>224.0</ele><time>2026-04-11T10:09:28Z</time></trkpt><trkpt lat="43.02210872862814" lon="11.419011527705527"><ele>224.0</ele><time>2026-04-11T10:09:29Z</time></trkpt><trkpt lat="43.022034310670385" lon="11.418953049051499"><ele>223.99999999999997</ele><time>2026-04-11T10:09:30Z</time></trkpt><trkpt lat="43.02196322030135" lon="11.418907693796518"><ele>223.99999999999997</ele><time>2026-04-11T10:09:31Z</time></trkpt><trkpt lat="43.021889565418135" lon="11.418864794349584"><ele>224.0</ele><time>2026-04-11T10:09:32Z</time></trkpt><trkpt lat="43.02182165212845" lon="11.418827978023362"><ele>224.0</ele><time>2026-04-11T10:09:33Z</time></trkpt><trkpt lat="43.02168281412544" lon="11.418759896158708"><ele>223.16666666666669</ele><time>2026-04-11T10:09:35Z</time></trkpt><trkpt lat="43.02161133387512" lon="11.418726356248339"><ele>222.33333333333334</ele><time>2026-04-11T10:09:36Z</time></trkpt><trkpt lat="43.021539565802705" lon="11.418699891067016"><ele>221.5</ele><time>2026-04-11T10:09:37Z</time></trkpt><trkpt lat="43.02147198105169" lon="11.418678500170465"><ele>220.66666666666669</ele><time>2026-04-11T10:09:38Z</time></trkpt><trkpt lat="43.02140863238818" lon="11.418654418070746"><ele>219.83333333333334</ele><time>2026-04-11T10:09:39Z</time></trkpt><trkpt lat="43.02134489960418" lon="11.41862992274223"><ele>219.0</ele><time>2026-04-11T10:09:40Z</time></trkpt><trkpt lat="43.02122807759737" lon="11.418616234526075"><ele>219.0</ele><time>2026-04-11T10:09:42Z</time></trkpt><trkpt lat="43.02114805356818" lon="11.418652966638748"><ele>219.0</ele><time>2026-04-11T10:09:44Z</time></trkpt><trkpt lat="43.021147713077724" lon="11.41876186732853"><ele>219.0</ele><time>2026-04-11T10:09:46Z</time></trkpt><trkpt lat="43.02117976535029" lon="11.4188775073841"><ele>219.0</ele><time>2026-04-11T10:09:49Z</time></trkpt><trkpt lat="43.02122318017369" lon="11.41894044441604"><ele>219.0</ele><time>2026-04-11T10:09:51Z</time></trkpt><trkpt lat="43.02128046941132" lon="11.41903104715049"><ele>219.0</ele><time>2026-04-11T10:09:54Z</time></trkpt><trkpt lat="43.02137373462136" lon="11.419212387376893"><ele>220.33333333333334</ele><time>2026-04-11T10:10:01Z</time></trkpt><trkpt lat="43.0214131384049" lon="11.419288548644172"><ele>221.66666666666669</ele><time>2026-04-11T10:10:04Z</time></trkpt><trkpt lat="43.02145113854092" lon="11.419360633020013"><ele>223.0</ele><time>2026-04-11T10:10:07Z</time></trkpt><trkpt lat="43.021501720157175" lon="11.419453913864224"><ele>224.33333333333334</ele><time>2026-04-11T10:10:10Z</time></trkpt><trkpt lat="43.02155608894101" lon="11.419543873134081"><ele>225.66666666666669</ele><time>2026-04-11T10:10:14Z</time></trkpt><trkpt lat="43.02161094102964" lon="11.419647190853121"><ele>227.0</ele><time>2026-04-11T10:10:17Z</time></trkpt><trkpt lat="43.021700951911285" lon="11.419787145072478"><ele>227.83333333333334</ele><time>2026-04-11T10:10:23Z</time></trkpt><trkpt lat="43.021752132203645" lon="11.419879286324042"><ele>228.66666666666669</ele><time>2026-04-11T10:10:26Z</time></trkpt><trkpt lat="43.02179679989825" lon="11.41994897506131"><ele>229.5</ele><time>2026-04-11T10:10:29Z</time></trkpt><trkpt lat="43.02184016613711" lon="11.420031674598809"><ele>230.33333333333331</ele><time>2026-04-11T10:10:32Z</time></trkpt><trkpt lat="43.02188601232884" lon="11.42010687526942"><ele>231.16666666666666</ele><time>2026-04-11T10:10:34Z</time></trkpt><trkpt lat="43.02194967889721" lon="11.420224232415578"><ele>232.0</ele><time>2026-04-11T10:10:37Z</time></trkpt><trkpt lat="43.02201365048145" lon="11.420335135345589"><ele>232.0</ele><time>2026-04-11T10:10:39Z</time></trkpt><trkpt lat="43.02212587557747" lon="11.420510527141275"><ele>232.0</ele><time>2026-04-11T10:10:42Z</time></trkpt><trkpt lat="43.02220409720906" lon="11.420638695568945"><ele>232.0</ele><time>2026-04-11T10:10:44Z</time></trkpt><trkpt lat="43.02223909039008" lon="11.420711419387631"><ele>232.0</ele><time>2026-04-11T10:10:45Z</time></trkpt><trkpt lat="43.022274443766875" lon="11.420796556922346"><ele>232.0</ele><time>2026-04-11T10:10:46Z</time></trkpt><trkpt lat="43.02230871297467" lon="11.420888604979753"><ele>231.99999999999997</ele><time>2026-04-11T10:10:47Z</time></trkpt><trkpt lat="43.02233958735996" lon="11.420989843927401"><ele>232.0</ele><time>2026-04-11T10:10:48Z</time></trkpt><trkpt lat="43.02234920762284" lon="11.421106157264896"><ele>232.0</ele><time>2026-04-11T10:10:49Z</time></trkpt><trkpt lat="43.02234570626546" lon="11.42122364865153"><ele>232.0</ele><time>2026-04-11T10:10:50Z</time></trkpt><trkpt lat="43.02232810395872" lon="11.421347955657874"><ele>231.99999999999997</ele><time>2026-04-11T10:10:51Z</time></trkpt><trkpt lat="43.0222979906461" lon="11.421471716220545"><ele>232.0</ele><time>2026-04-11T10:10:52Z</time></trkpt><trkpt lat="43.022257672736025" lon="11.421593822226908"><ele>230.0</ele><time>2026-04-11T10:10:53Z</time></trkpt><trkpt lat="43.0222067994185" lon="11.421717429218537"><ele>228.0</ele><time>2026-04-11T10:10:54Z</time></trkpt><trkpt lat="43.02215039751347" lon="11.421843567837447"><ele>226.0</ele><time>2026-04-11T10:10:55Z</time></trkpt><trkpt lat="43.022094329597074" lon="11.421971010767573"><ele>224.0</ele><time>2026-04-11T10:10:56Z</time></trkpt><trkpt lat="43.02202547954955" lon="11.422094707007417"><ele>222.0</ele><time>2026-04-11T10:10:57Z</time></trkpt><trkpt lat="43.0219635986764" lon="11.4222270660435"><ele>220.0</ele><time>2026-04-11T10:10:58Z</time></trkpt><trkpt lat="43.02190607396402" lon="11.422362988618074"><ele>218.0</ele><time>2026-04-11T10:10:59Z</time></trkpt><trkpt lat="43.02185275223492" lon="11.422502915132343"><ele>216.0</ele><time>2026-04-11T10:11:00Z</time></trkpt><trkpt lat="43.02172545664865" lon="11.422772652126984"><ele>216.0</ele><time>2026-04-11T10:11:02Z</time></trkpt><trkpt lat="43.02167754702666" lon="11.42290187768366"><ele>216.00000000000003</ele><time>2026-04-11T10:11:03Z</time></trkpt><trkpt lat="43.02162366088328" lon="11.42302454242483"><ele>216.00000000000003</ele><time>2026-04-11T10:11:04Z</time></trkpt><trkpt lat="43.02157141799942" lon="11.423139182902611"><ele>216.0</ele><time>2026-04-11T10:11:05Z</time></trkpt><trkpt lat="43.02152529635585" lon="11.423233806324177"><ele>216.0</ele><time>2026-04-11T10:11:06Z</time></trkpt><trkpt lat="43.021481080542834" lon="11.423343025098301"><ele>216.33333333333334</ele><time>2026-04-11T10:11:07Z</time></trkpt><trkpt lat="43.02143578651891" lon="11.423435466411222"><ele>216.66666666666669</ele><time>2026-04-11T10:11:08Z</time></trkpt><trkpt lat="43.02137768425021" lon="11.423550522835223"><ele>217.0</ele><time>2026-04-11T10:11:09Z</time></trkpt><trkpt lat="43.021325333146166" lon="11.423635333059172"><ele>217.33333333333334</ele><time>2026-04-11T10:11:10Z</time></trkpt><trkpt lat="43.021270496642316" lon="11.423711253870426"><ele>217.66666666666669</ele><time>2026-04-11T10:11:11Z</time></trkpt><trkpt lat="43.02121830607821" lon="11.423788252176097"><ele>218.0</ele><time>2026-04-11T10:11:12Z</time></trkpt><trkpt lat="43.02117179289492" lon="11.423857714371547"><ele>218.00000000000003</ele><time>2026-04-11T10:11:13Z</time></trkpt><trkpt lat="43.02112406519283" lon="11.423915920688772"><ele>218.0</ele><time>2026-04-11T10:11:14Z</time></trkpt><trkpt lat="43.02107444904439" lon="11.423975312568693"><ele>218.0</ele><time>2026-04-11T10:11:15Z</time></trkpt><trkpt lat="43.020999191607736" lon="11.424058082128616"><ele>218.0</ele><time>2026-04-11T10:11:17Z</time></trkpt><trkpt lat="43.02094980615959" lon="11.424140364753532"><ele>218.00000000000003</ele><time>2026-04-11T10:11:19Z</time></trkpt><trkpt lat="43.02088919401496" lon="11.424201931847067"><ele>218.0</ele><time>2026-04-11T10:11:21Z</time></trkpt><trkpt lat="43.020784050032" lon="11.424328964278887"><ele>218.14285714285714</ele><time>2026-04-11T10:11:26Z</time></trkpt><trkpt lat="43.02073049424328" lon="11.424385343297114"><ele>218.28571428571428</ele><time>2026-04-11T10:11:29Z</time></trkpt><trkpt lat="43.02068181122852" lon="11.42445357310992"><ele>218.42857142857144</ele><time>2026-04-11T10:11:32Z</time></trkpt><trkpt lat="43.020639685500186" lon="11.424522907095367"><ele>218.57142857142856</ele><time>2026-04-11T10:11:35Z</time></trkpt><trkpt lat="43.020583153146575" lon="11.424584084803419"><ele>218.7142857142857</ele><time>2026-04-11T10:11:38Z</time></trkpt><trkpt lat="43.02052616331074" lon="11.424624580314665"><ele>218.85714285714286</ele><time>2026-04-11T10:11:41Z</time></trkpt><trkpt lat="43.02047331067585" lon="11.424704784761797"><ele>219.0</ele><time>2026-04-11T10:11:45Z</time></trkpt><trkpt lat="43.0203594952349" lon="11.424858242456786"><ele>220.33333333333334</ele><time>2026-04-11T10:11:53Z</time></trkpt><trkpt lat="43.02032930771146" lon="11.424939256866354"><ele>221.66666666666669</ele><time>2026-04-11T10:11:57Z</time></trkpt><trkpt lat="43.020287508377336" lon="11.425031992406941"><ele>223.0</ele><time>2026-04-11T10:12:01Z</time></trkpt><trkpt lat="43.02023730115973" lon="11.42510342553043"><ele>224.33333333333334</ele><time>2026-04-11T10:12:04Z</time></trkpt><trkpt lat="43.020189179769" lon="11.425175599284863"><ele>225.66666666666669</ele><time>2026-04-11T10:12:07Z</time></trkpt><trkpt lat="43.02010089194663" lon="11.425353090552743"><ele>227.0</ele><time>2026-04-11T10:12:14Z</time></trkpt><trkpt lat="43.02008762265824" lon="11.425446450066824"><ele>228.50000000000003</ele><time>2026-04-11T10:12:18Z</time></trkpt><trkpt lat="43.02002198105049" lon="11.42551139842599"><ele>230.0</ele><time>2026-04-11T10:12:22Z</time></trkpt><trkpt lat="43.01997914134311" lon="11.425593141553579"><ele>231.5</ele><time>2026-04-11T10:12:26Z</time></trkpt><trkpt lat="43.01994391088605" lon="11.425682225304824"><ele>233.0</ele><time>2026-04-11T10:12:30Z</time></trkpt><trkpt lat="43.01986366116845" lon="11.425848129782445"><ele>234.50000000000003</ele><time>2026-04-11T10:12:38Z</time></trkpt><trkpt lat="43.01983017313923" lon="11.42592379732588"><ele>236.0</ele><time>2026-04-11T10:12:41Z</time></trkpt><trkpt lat="43.01978789133215" lon="11.426018135080714"><ele>236.66666666666669</ele><time>2026-04-11T10:12:45Z</time></trkpt><trkpt lat="43.019755296896065" lon="11.426096822939837"><ele>237.33333333333334</ele><time>2026-04-11T10:12:49Z</time></trkpt><trkpt lat="43.019717891270965" lon="11.42617972045345"><ele>238.0</ele><time>2026-04-11T10:12:53Z</time></trkpt><trkpt lat="43.01964113414312" lon="11.426337061975936"><ele>238.66666666666669</ele><time>2026-04-11T10:13:01Z</time></trkpt><trkpt lat="43.01960004950673" lon="11.42643258428354"><ele>239.33333333333334</ele><time>2026-04-11T10:13:06Z</time></trkpt><trkpt lat="43.01956940683965" lon="11.426508680980927"><ele>240.0</ele><time>2026-04-11T10:13:10Z</time></trkpt><trkpt lat="43.01953769232815" lon="11.426587607645223"><ele>240.66666666666666</ele><time>2026-04-11T10:13:14Z</time></trkpt><trkpt lat="43.01945952909728" lon="11.426757773453994"><ele>241.33333333333331</ele><time>2026-04-11T10:13:21Z</time></trkpt><trkpt lat="43.01941840823981" lon="11.426836629641684"><ele>242.0</ele><time>2026-04-11T10:13:25Z</time></trkpt><trkpt lat="43.01938671399671" lon="11.426929395126988"><ele>242.66666666666666</ele><time>2026-04-11T10:13:29Z</time></trkpt><trkpt lat="43.0193402183516" lon="11.427009508709878"><ele>243.33333333333331</ele><time>2026-04-11T10:13:33Z</time></trkpt><trkpt lat="43.019308832023434" lon="11.42708839948592"><ele>244.0</ele><time>2026-04-11T10:13:37Z</time></trkpt><trkpt lat="43.0192384460013" lon="11.427257491329474"><ele>245.2</ele><time>2026-04-11T10:13:45Z</time></trkpt><trkpt lat="43.01919390851052" lon="11.427329589841623"><ele>246.39999999999998</ele><time>2026-04-11T10:13:49Z</time></trkpt><trkpt lat="43.01915466536172" lon="11.42742041566168"><ele>247.6</ele><time>2026-04-11T10:13:54Z</time></trkpt><trkpt lat="43.01912196642152" lon="11.427520178838039"><ele>248.8</ele><time>2026-04-11T10:13:58Z</time></trkpt><trkpt lat="43.01904578581328" lon="11.427708005076036"><ele>250.0</ele><time>2026-04-11T10:14:07Z</time></trkpt><trkpt lat="43.019024500377675" lon="11.42780047062305"><ele>250.33333333333331</ele><time>2026-04-11T10:14:11Z</time></trkpt><trkpt lat="43.01897555228729" lon="11.427867041127977"><ele>250.66666666666666</ele><time>2026-04-11T10:14:15Z</time></trkpt><trkpt lat="43.018950431946244" lon="11.427958767666311"><ele>251.0</ele><time>2026-04-11T10:14:19Z</time></trkpt><trkpt lat="43.01891681581202" lon="11.428143784200678"><ele>251.33333333333331</ele><time>2026-04-11T10:14:27Z</time></trkpt><trkpt lat="43.018872611745984" lon="11.42822764719051"><ele>251.66666666666666</ele><time>2026-04-11T10:14:31Z</time></trkpt><trkpt lat="43.01885559253048" lon="11.42831594820209"><ele>252.0</ele><time>2026-04-11T10:14:35Z</time></trkpt><trkpt lat="43.018836763358834" lon="11.428400069518032"><ele>252.0</ele><time>2026-04-11T10:14:38Z</time></trkpt><trkpt lat="43.018809578928376" lon="11.428517185781338"><ele>252.0</ele><time>2026-04-11T10:14:41Z</time></trkpt><trkpt lat="43.01875452769509" lon="11.42873413164377"><ele>252.0</ele><time>2026-04-11T10:14:46Z</time></trkpt><trkpt lat="43.01871683630321" lon="11.42885432308662"><ele>252.0</ele><time>2026-04-11T10:14:48Z</time></trkpt><trkpt lat="43.01869097407921" lon="11.428943497924458"><ele>252.0</ele><time>2026-04-11T10:14:50Z</time></trkpt><trkpt lat="43.01863568991124" lon="11.42914315348448"><ele>251.66666666666666</ele><time>2026-04-11T10:14:52Z</time></trkpt><trkpt lat="43.01859507183464" lon="11.429232726129072"><ele>251.33333333333331</ele><time>2026-04-11T10:14:53Z</time></trkpt><trkpt lat="43.01856117647084" lon="11.429321878803295"><ele>251.0</ele><time>2026-04-11T10:14:54Z</time></trkpt><trkpt lat="43.0185186634843" lon="11.429489493747893"><ele>250.66666666666666</ele><time>2026-04-11T10:14:56Z</time></trkpt><trkpt lat="43.01848885573533" lon="11.429576748974043"><ele>250.33333333333331</ele><time>2026-04-11T10:14:57Z</time></trkpt><trkpt lat="43.01846035189367" lon="11.429663343381598"><ele>250.0</ele><time>2026-04-11T10:14:58Z</time></trkpt><trkpt lat="43.018432010832434" lon="11.429752995530164"><ele>249.66666666666666</ele><time>2026-04-11T10:14:59Z</time></trkpt><trkpt lat="43.01840314197118" lon="11.42984559392317"><ele>249.33333333333331</ele><time>2026-04-11T10:15:00Z</time></trkpt><trkpt lat="43.018368990884525" lon="11.429936307590841"><ele>249.0</ele><time>2026-04-11T10:15:01Z</time></trkpt><trkpt lat="43.018338623625645" lon="11.43003067905634"><ele>248.66666666666669</ele><time>2026-04-11T10:15:02Z</time></trkpt><trkpt lat="43.018295585827474" lon="11.430221330092728"><ele>248.33333333333334</ele><time>2026-04-11T10:15:04Z</time></trkpt><trkpt lat="43.018260574722774" lon="11.430316522105402"><ele>248.0</ele><time>2026-04-11T10:15:05Z</time></trkpt><trkpt lat="43.018239804309324" lon="11.43041149815406"><ele>247.00000000000003</ele><time>2026-04-11T10:15:06Z</time></trkpt><trkpt lat="43.01820779881349" lon="11.430516643580408"><ele>246.0</ele><time>2026-04-11T10:15:07Z</time></trkpt><trkpt lat="43.01818034641917" lon="11.4306171676363"><ele>245.0</ele><time>2026-04-11T10:15:08Z</time></trkpt><trkpt lat="43.01815431020087" lon="11.430718374230327"><ele>244.0</ele><time>2026-04-11T10:15:09Z</time></trkpt><trkpt lat="43.018126777622" lon="11.430824181662468"><ele>243.00000000000003</ele><time>2026-04-11T10:15:10Z</time></trkpt><trkpt lat="43.01810250651994" lon="11.430934310830462"><ele>242.0</ele><time>2026-04-11T10:15:11Z</time></trkpt><trkpt lat="43.018067402778165" lon="11.431037653770856"><ele>242.0</ele><time>2026-04-11T10:15:12Z</time></trkpt><trkpt lat="43.0180307568674" lon="11.431141124579085"><ele>242.0</ele><time>2026-04-11T10:15:13Z</time></trkpt><trkpt lat="43.017992030492" lon="11.431245042484301"><ele>242.0</ele><time>2026-04-11T10:15:14Z</time></trkpt><trkpt lat="43.01795284191322" lon="11.431365181796803"><ele>242.0</ele><time>2026-04-11T10:15:15Z</time></trkpt><trkpt lat="43.01792077907875" lon="11.431498215201785"><ele>242.0</ele><time>2026-04-11T10:15:16Z</time></trkpt><trkpt lat="43.017870459160946" lon="11.431599429668557"><ele>241.50000000000003</ele><time>2026-04-11T10:15:17Z</time></trkpt><trkpt lat="43.01782907778525" lon="11.43169868665131"><ele>241.0</ele><time>2026-04-11T10:15:18Z</time></trkpt><trkpt lat="43.01780037016337" lon="11.431805361340682"><ele>240.5</ele><time>2026-04-11T10:15:19Z</time></trkpt><trkpt lat="43.01776782959137" lon="11.431916194778157"><ele>240.0</ele><time>2026-04-11T10:15:20Z</time></trkpt><trkpt lat="43.01773615954221" lon="11.432024736998619"><ele>239.50000000000003</ele><time>2026-04-11T10:15:21Z</time></trkpt><trkpt lat="43.017717205062745" lon="11.432139865179074"><ele>239.0</ele><time>2026-04-11T10:15:22Z</time></trkpt><trkpt lat="43.01769810598048" lon="11.43224471116294"><ele>239.00000000000003</ele><time>2026-04-11T10:15:23Z</time></trkpt><trkpt lat="43.01764640316808" lon="11.432437327669751"><ele>239.0</ele><time>2026-04-11T10:15:25Z</time></trkpt><trkpt lat="43.01761278412136" lon="11.432525316391633"><ele>239.0</ele><time>2026-04-11T10:15:26Z</time></trkpt><trkpt lat="43.01758048310972" lon="11.43261814025998"><ele>239.0</ele><time>2026-04-11T10:15:27Z</time></trkpt><trkpt lat="43.01755368828151" lon="11.43270540254315"><ele>239.00000000000003</ele><time>2026-04-11T10:15:28Z</time></trkpt><trkpt lat="43.017526991294524" lon="11.432793260378096"><ele>239.0</ele><time>2026-04-11T10:15:29Z</time></trkpt><trkpt lat="43.017509103205185" lon="11.43287912446199"><ele>240.0</ele><time>2026-04-11T10:15:30Z</time></trkpt><trkpt lat="43.01746846550691" lon="11.433038392987317"><ele>241.0</ele><time>2026-04-11T10:15:32Z</time></trkpt><trkpt lat="43.01742201662099" lon="11.433187303679544"><ele>242.0</ele><time>2026-04-11T10:15:34Z</time></trkpt><trkpt lat="43.01737524404342" lon="11.43333205161467"><ele>243.0</ele><time>2026-04-11T10:15:36Z</time></trkpt><trkpt lat="43.01733364596228" lon="11.433471348977529"><ele>243.0</ele><time>2026-04-11T10:15:38Z</time></trkpt><trkpt lat="43.01729156924429" lon="11.433597805114639"><ele>243.0</ele><time>2026-04-11T10:15:40Z</time></trkpt><trkpt lat="43.017252908457166" lon="11.433705534614793"><ele>243.0</ele><time>2026-04-11T10:15:42Z</time></trkpt><trkpt lat="43.01723053884585" lon="11.43379622628494"><ele>243.0</ele><time>2026-04-11T10:15:44Z</time></trkpt><trkpt lat="43.01717533028249" lon="11.43400878463845"><ele>243.0</ele><time>2026-04-11T10:15:50Z</time></trkpt><trkpt lat="43.017148969763056" lon="11.434097356534453"><ele>244.0</ele><time>2026-04-11T10:15:53Z</time></trkpt><trkpt lat="43.01712342874703" lon="11.434176760970125"><ele>245.0</ele><time>2026-04-11T10:15:56Z</time></trkpt><trkpt lat="43.017098511805486" lon="11.43426647332155"><ele>246.0</ele><time>2026-04-11T10:15:59Z</time></trkpt><trkpt lat="43.017063592541426" lon="11.434364163268969"><ele>247.0</ele><time>2026-04-11T10:16:02Z</time></trkpt><trkpt lat="43.01703982596594" lon="11.434463184253902"><ele>248.0</ele><time>2026-04-11T10:16:04Z</time></trkpt><trkpt lat="43.017002342805796" lon="11.434562081519068"><ele>249.0</ele><time>2026-04-11T10:16:07Z</time></trkpt><trkpt lat="43.016944590391994" lon="11.434749816339108"><ele>249.33333333333334</ele><time>2026-04-11T10:16:13Z</time></trkpt><trkpt lat="43.01691963450616" lon="11.434837076979528"><ele>249.66666666666669</ele><time>2026-04-11T10:16:16Z</time></trkpt><trkpt lat="43.01688708779929" lon="11.434921605427148"><ele>250.0</ele><time>2026-04-11T10:16:19Z</time></trkpt><trkpt lat="43.01686995107236" lon="11.435007729210088"><ele>250.33333333333334</ele><time>2026-04-11T10:16:22Z</time></trkpt><trkpt lat="43.01683735739683" lon="11.435083054384794"><ele>250.66666666666669</ele><time>2026-04-11T10:16:25Z</time></trkpt><trkpt lat="43.0168185849995" lon="11.435165332913554"><ele>251.0</ele><time>2026-04-11T10:16:28Z</time></trkpt><trkpt lat="43.01676397879429" lon="11.43535525449149"><ele>251.0</ele><time>2026-04-11T10:16:35Z</time></trkpt><trkpt lat="43.016736530288945" lon="11.435466094768561"><ele>251.00000000000003</ele><time>2026-04-11T10:16:39Z</time></trkpt><trkpt lat="43.01671071072989" lon="11.43556102568059"><ele>251.00000000000003</ele><time>2026-04-11T10:16:43Z</time></trkpt><trkpt lat="43.01669016996076" lon="11.435663996105788"><ele>251.0</ele><time>2026-04-11T10:16:46Z</time></trkpt><trkpt lat="43.01665909132314" lon="11.435738936550775"><ele>251.0</ele><time>2026-04-11T10:16:49Z</time></trkpt><trkpt lat="43.016610681109846" lon="11.435934343011397"><ele>251.83333333333334</ele><time>2026-04-11T10:16:56Z</time></trkpt><trkpt lat="43.01657785341729" lon="11.436036680743532"><ele>252.66666666666669</ele><time>2026-04-11T10:17:00Z</time></trkpt><trkpt lat="43.016550194721454" lon="11.436122033809147"><ele>253.5</ele><time>2026-04-11T10:17:03Z</time></trkpt><trkpt lat="43.016526639781844" lon="11.43620532029675"><ele>254.33333333333331</ele><time>2026-04-11T10:17:06Z</time></trkpt><trkpt lat="43.016495963204335" lon="11.43631498127193"><ele>255.16666666666666</ele><time>2026-04-11T10:17:10Z</time></trkpt><trkpt lat="43.016438981075986" lon="11.436491248472551"><ele>256.0</ele><time>2026-04-11T10:17:15Z</time></trkpt><trkpt lat="43.01641229140468" lon="11.43658635162185"><ele>256.5</ele><time>2026-04-11T10:17:18Z</time></trkpt><trkpt lat="43.016378203024246" lon="11.43667778918515"><ele>257.0</ele><time>2026-04-11T10:17:21Z</time></trkpt><trkpt lat="43.016355087728826" lon="11.436766733897759"><ele>257.5</ele><time>2026-04-11T10:17:24Z</time></trkpt><trkpt lat="43.01632724676357" lon="11.436850547720617"><ele>258.0</ele><time>2026-04-11T10:17:27Z</time></trkpt><trkpt lat="43.01630407012837" lon="11.43693986187234"><ele>258.5</ele><time>2026-04-11T10:17:30Z</time></trkpt><trkpt lat="43.01627690784525" lon="11.437022492517363"><ele>259.0</ele><time>2026-04-11T10:17:33Z</time></trkpt><trkpt lat="43.01621403256185" lon="11.437216906566011"><ele>260.0</ele><time>2026-04-11T10:17:40Z</time></trkpt><trkpt lat="43.0161882392588" lon="11.437305165680355"><ele>261.0</ele><time>2026-04-11T10:17:43Z</time></trkpt><trkpt lat="43.01616513163744" lon="11.437387580156562"><ele>262.0</ele><time>2026-04-11T10:17:46Z</time></trkpt><trkpt lat="43.016138869390794" lon="11.437471752928419"><ele>263.0</ele><time>2026-04-11T10:17:49Z</time></trkpt><trkpt lat="43.016114209053676" lon="11.437557558201606"><ele>264.0</ele><time>2026-04-11T10:17:52Z</time></trkpt><trkpt lat="43.01609369754486" lon="11.437646591830477"><ele>265.0</ele><time>2026-04-11T10:17:55Z</time></trkpt><trkpt lat="43.01603985008962" lon="11.437838381145863"><ele>265.0</ele><time>2026-04-11T10:18:02Z</time></trkpt><trkpt lat="43.01601765720919" lon="11.437923867510134"><ele>265.0</ele><time>2026-04-11T10:18:05Z</time></trkpt><trkpt lat="43.01598934136339" lon="11.438022337782872"><ele>265.0</ele><time>2026-04-11T10:18:08Z</time></trkpt><trkpt lat="43.015956664464255" lon="11.43812304317447"><ele>265.0</ele><time>2026-04-11T10:18:12Z</time></trkpt><trkpt lat="43.01592365570956" lon="11.438208096943827"><ele>265.0</ele><time>2026-04-11T10:18:15Z</time></trkpt><trkpt lat="43.01590182007312" lon="11.438293492691143"><ele>265.0</ele><time>2026-04-11T10:18:18Z</time></trkpt><trkpt lat="43.01585087406886" lon="11.438462460793156"><ele>265.8333333333333</ele><time>2026-04-11T10:18:24Z</time></trkpt><trkpt lat="43.01583263698453" lon="11.438545629646203"><ele>266.66666666666663</ele><time>2026-04-11T10:18:27Z</time></trkpt><trkpt lat="43.01579563566072" lon="11.438628762023907"><ele>267.5</ele><time>2026-04-11T10:18:30Z</time></trkpt><trkpt lat="43.015758967342116" lon="11.438699125350023"><ele>268.3333333333333</ele><time>2026-04-11T10:18:33Z</time></trkpt><trkpt lat="43.01568824107884" lon="11.438735112455358"><ele>269.1666666666667</ele><time>2026-04-11T10:18:36Z</time></trkpt><trkpt lat="43.015625106449136" lon="11.438714000071915"><ele>270.0</ele><time>2026-04-11T10:18:39Z</time></trkpt><trkpt lat="43.01554546720022" lon="11.438553186569443"><ele>270.8</ele><time>2026-04-11T10:18:44Z</time></trkpt><trkpt lat="43.01550830371268" lon="11.438462205528914"><ele>271.6</ele><time>2026-04-11T10:18:46Z</time></trkpt><trkpt lat="43.015461606094846" lon="11.438368160641764"><ele>272.4</ele><time>2026-04-11T10:18:48Z</time></trkpt><trkpt lat="43.015414164655375" lon="11.438265911472595"><ele>273.2</ele><time>2026-04-11T10:18:50Z</time></trkpt><trkpt lat="43.015354324536844" lon="11.438145086231607"><ele>274.0</ele><time>2026-04-11T10:18:52Z</time></trkpt><trkpt lat="43.01528783527898" lon="11.43801439275663"><ele>273.14285714285717</ele><time>2026-04-11T10:18:54Z</time></trkpt><trkpt lat="43.01525103405743" lon="11.437938617647267"><ele>272.2857142857143</ele><time>2026-04-11T10:18:55Z</time></trkpt><trkpt lat="43.01521599893675" lon="11.43786218500398"><ele>271.42857142857144</ele><time>2026-04-11T10:18:56Z</time></trkpt><trkpt lat="43.01518014111209" lon="11.437780881405626"><ele>270.57142857142856</ele><time>2026-04-11T10:18:57Z</time></trkpt><trkpt lat="43.0151469161264" lon="11.437694008239191"><ele>269.7142857142857</ele><time>2026-04-11T10:18:58Z</time></trkpt><trkpt lat="43.01510603259913" lon="11.437598271837777"><ele>268.8571428571429</ele><time>2026-04-11T10:18:59Z</time></trkpt><trkpt lat="43.01507843007847" lon="11.43750447798876"><ele>268.0</ele><time>2026-04-11T10:19:00Z</time></trkpt><trkpt lat="43.015021556619814" lon="11.437292497928295"><ele>268.0</ele><time>2026-04-11T10:19:02Z</time></trkpt><trkpt lat="43.014999585757096" lon="11.437179980554724"><ele>268.0</ele><time>2026-04-11T10:19:03Z</time></trkpt><trkpt lat="43.014982794129615" lon="11.437060314605981"><ele>268.0</ele><time>2026-04-11T10:19:04Z</time></trkpt><trkpt lat="43.014963744825145" lon="11.4369373497367"><ele>268.0</ele><time>2026-04-11T10:19:05Z</time></trkpt><trkpt lat="43.014955034459206" lon="11.436820544720673"><ele>268.0</ele><time>2026-04-11T10:19:06Z</time></trkpt><trkpt lat="43.014942486118244" lon="11.436706391525371"><ele>268.0</ele><time>2026-04-11T10:19:07Z</time></trkpt><trkpt lat="43.014933167113924" lon="11.436588401173529"><ele>266.5</ele><time>2026-04-11T10:19:08Z</time></trkpt><trkpt lat="43.014925727007565" lon="11.436474476957148"><ele>265.0</ele><time>2026-04-11T10:19:09Z</time></trkpt><trkpt lat="43.01492144531491" lon="11.436358635447142"><ele>263.5</ele><time>2026-04-11T10:19:10Z</time></trkpt><trkpt lat="43.014920163655546" lon="11.436246440488713"><ele>262.0</ele><time>2026-04-11T10:19:11Z</time></trkpt><trkpt lat="43.01491662744798" lon="11.43612738811114"><ele>260.5</ele><time>2026-04-11T10:19:12Z</time></trkpt><trkpt lat="43.0149138300327" lon="11.436014749827079"><ele>259.0</ele><time>2026-04-11T10:19:13Z</time></trkpt><trkpt lat="43.01491261080031" lon="11.435895086437721"><ele>258.59999999999997</ele><time>2026-04-11T10:19:14Z</time></trkpt><trkpt lat="43.01491119165237" lon="11.435779557473431"><ele>258.2</ele><time>2026-04-11T10:19:15Z</time></trkpt><trkpt lat="43.01490671728887" lon="11.435658303728216"><ele>257.79999999999995</ele><time>2026-04-11T10:19:16Z</time></trkpt><trkpt lat="43.01490305457167" lon="11.435537560292609"><ele>257.4</ele><time>2026-04-11T10:19:17Z</time></trkpt><trkpt lat="43.01489536591083" lon="11.435411232139165"><ele>257.0</ele><time>2026-04-11T10:19:18Z</time></trkpt><trkpt lat="43.01488096122621" lon="11.435281613597159"><ele>256.75</ele><time>2026-04-11T10:19:19Z</time></trkpt><trkpt lat="43.01486665231939" lon="11.435156331459625"><ele>256.5</ele><time>2026-04-11T10:19:20Z</time></trkpt><trkpt lat="43.014852296630885" lon="11.435023586566224"><ele>256.25</ele><time>2026-04-11T10:19:21Z</time></trkpt><trkpt lat="43.014822197635596" lon="11.434745601731159"><ele>256.0</ele><time>2026-04-11T10:19:23Z</time></trkpt><trkpt lat="43.01479950284416" lon="11.434594944046282"><ele>255.8</ele><time>2026-04-11T10:19:24Z</time></trkpt><trkpt lat="43.01478236361864" lon="11.434446354310612"><ele>255.60000000000002</ele><time>2026-04-11T10:19:25Z</time></trkpt><trkpt lat="43.014765655843384" lon="11.43430548664598"><ele>255.4</ele><time>2026-04-11T10:19:26Z</time></trkpt><trkpt lat="43.01475634306569" lon="11.43418052143001"><ele>255.2</ele><time>2026-04-11T10:19:27Z</time></trkpt><trkpt lat="43.014744075888174" lon="11.434055463196282"><ele>255.0</ele><time>2026-04-11T10:19:28Z</time></trkpt><trkpt lat="43.01474868790962" lon="11.433930065264532"><ele>255.0</ele><time>2026-04-11T10:19:29Z</time></trkpt><trkpt lat="43.014756576019074" lon="11.433806591935928"><ele>255.0</ele><time>2026-04-11T10:19:30Z</time></trkpt><trkpt lat="43.01478567469256" lon="11.433692438866485"><ele>255.0</ele><time>2026-04-11T10:19:31Z</time></trkpt><trkpt lat="43.01482561943817" lon="11.433577800834803"><ele>255.0</ele><time>2026-04-11T10:19:32Z</time></trkpt><trkpt lat="43.01487229134921" lon="11.433470634383582"><ele>255.0</ele><time>2026-04-11T10:19:33Z</time></trkpt><trkpt lat="43.01491268717275" lon="11.433361966669613"><ele>254.2</ele><time>2026-04-11T10:19:34Z</time></trkpt><trkpt lat="43.014953764307975" lon="11.433250702552625"><ele>253.4</ele><time>2026-04-11T10:19:35Z</time></trkpt><trkpt lat="43.01498621520979" lon="11.433129942433805"><ele>252.60000000000002</ele><time>2026-04-11T10:19:36Z</time></trkpt><trkpt lat="43.01501157762873" lon="11.433002771813477"><ele>251.8</ele><time>2026-04-11T10:19:37Z</time></trkpt><trkpt lat="43.015023458221506" lon="11.432869521234167"><ele>251.0</ele><time>2026-04-11T10:19:38Z</time></trkpt><trkpt lat="43.015023848042645" lon="11.432734374593906"><ele>250.25</ele><time>2026-04-11T10:19:39Z</time></trkpt><trkpt lat="43.0150133817566" lon="11.432603686599665"><ele>249.5</ele><time>2026-04-11T10:19:40Z</time></trkpt><trkpt lat="43.014996582279814" lon="11.432471573108819"><ele>248.75</ele><time>2026-04-11T10:19:41Z</time></trkpt><trkpt lat="43.01497766864187" lon="11.43233600683265"><ele>248.0</ele><time>2026-04-11T10:19:42Z</time></trkpt><trkpt lat="43.014932616806824" lon="11.432059735229641"><ele>247.4</ele><time>2026-04-11T10:19:44Z</time></trkpt><trkpt lat="43.01490625107792" lon="11.431915458198826"><ele>246.8</ele><time>2026-04-11T10:19:45Z</time></trkpt><trkpt lat="43.01487866562472" lon="11.431768313352698"><ele>246.2</ele><time>2026-04-11T10:19:46Z</time></trkpt><trkpt lat="43.01485366527823" lon="11.431621471202902"><ele>245.6</ele><time>2026-04-11T10:19:47Z</time></trkpt><trkpt lat="43.014825771666146" lon="11.431468178313605"><ele>245.0</ele><time>2026-04-11T10:19:48Z</time></trkpt><trkpt lat="43.014803051061904" lon="11.431312169762585"><ele>243.75</ele><time>2026-04-11T10:19:49Z</time></trkpt><trkpt lat="43.01477378921049" lon="11.431158086884135"><ele>242.5</ele><time>2026-04-11T10:19:50Z</time></trkpt><trkpt lat="43.01473698778819" lon="11.431007528105784"><ele>241.25</ele><time>2026-04-11T10:19:51Z</time></trkpt><trkpt lat="43.01468825485384" lon="11.430866907251621"><ele>240.0</ele><time>2026-04-11T10:19:52Z</time></trkpt><trkpt lat="43.01462199320073" lon="11.430743944494065"><ele>240.0</ele><time>2026-04-11T10:19:53Z</time></trkpt><trkpt lat="43.01453951649673" lon="11.430649915935579"><ele>240.0</ele><time>2026-04-11T10:19:54Z</time></trkpt><trkpt lat="43.01445263423541" lon="11.430578875113785"><ele>240.0</ele><time>2026-04-11T10:19:55Z</time></trkpt><trkpt lat="43.01436890368601" lon="11.430529707557211"><ele>240.0</ele><time>2026-04-11T10:19:56Z</time></trkpt><trkpt lat="43.01428611485526" lon="11.430486017598382"><ele>240.0</ele><time>2026-04-11T10:19:57Z</time></trkpt><trkpt lat="43.01420966235253" lon="11.430418605874605"><ele>239.2</ele><time>2026-04-11T10:19:58Z</time></trkpt><trkpt lat="43.014147164518654" lon="11.430318263964722"><ele>238.4</ele><time>2026-04-11T10:19:59Z</time></trkpt><trkpt lat="43.014091884117214" lon="11.430204721639845"><ele>237.60000000000002</ele><time>2026-04-11T10:20:00Z</time></trkpt><trkpt lat="43.014038877869574" lon="11.43008670555738"><ele>236.8</ele><time>2026-04-11T10:20:01Z</time></trkpt><trkpt lat="43.01399199695956" lon="11.429949752537496"><ele>236.0</ele><time>2026-04-11T10:20:02Z</time></trkpt><trkpt lat="43.01394866032478" lon="11.429816664075817"><ele>234.5</ele><time>2026-04-11T10:20:03Z</time></trkpt><trkpt lat="43.01388717135549" lon="11.429520774177364"><ele>233.0</ele><time>2026-04-11T10:20:05Z</time></trkpt><trkpt lat="43.013844237772624" lon="11.429390102465359"><ele>231.5</ele><time>2026-04-11T10:20:06Z</time></trkpt><trkpt lat="43.01378331645839" lon="11.429273657513374"><ele>230.0</ele><time>2026-04-11T10:20:07Z</time></trkpt><trkpt lat="43.01371529342086" lon="11.42917614749877"><ele>230.0</ele><time>2026-04-11T10:20:08Z</time></trkpt><trkpt lat="43.01363505491104" lon="11.429105261046695"><ele>230.0</ele><time>2026-04-11T10:20:09Z</time></trkpt><trkpt lat="43.013544142116565" lon="11.429044818125496"><ele>230.0</ele><time>2026-04-11T10:20:10Z</time></trkpt><trkpt lat="43.01345805454117" lon="11.429003724692597"><ele>230.0</ele><time>2026-04-11T10:20:11Z</time></trkpt><trkpt lat="43.01337276714085" lon="11.428953706267755"><ele>230.0</ele><time>2026-04-11T10:20:12Z</time></trkpt><trkpt lat="43.013288587943315" lon="11.4289002423318"><ele>230.0</ele><time>2026-04-11T10:20:13Z</time></trkpt><trkpt lat="43.013197337250105" lon="11.428854371254868"><ele>230.0</ele><time>2026-04-11T10:20:14Z</time></trkpt><trkpt lat="43.01310502344783" lon="11.428814687391347"><ele>230.0</ele><time>2026-04-11T10:20:15Z</time></trkpt><trkpt lat="43.01301255781942" lon="11.42878588078966"><ele>230.0</ele><time>2026-04-11T10:20:16Z</time></trkpt><trkpt lat="43.01292494855648" lon="11.42874723597902"><ele>230.0</ele><time>2026-04-11T10:20:17Z</time></trkpt><trkpt lat="43.0128290545114" lon="11.428742784396459"><ele>229.66666666666669</ele><time>2026-04-11T10:20:18Z</time></trkpt><trkpt lat="43.01274654676965" lon="11.42870107875124"><ele>229.33333333333334</ele><time>2026-04-11T10:20:19Z</time></trkpt><trkpt lat="43.012673787365145" lon="11.428664144714515"><ele>229.0</ele><time>2026-04-11T10:20:20Z</time></trkpt><trkpt lat="43.01259240243731" lon="11.428632398680122"><ele>228.66666666666669</ele><time>2026-04-11T10:20:21Z</time></trkpt><trkpt lat="43.01251708106449" lon="11.42859543295353"><ele>228.33333333333334</ele><time>2026-04-11T10:20:22Z</time></trkpt><trkpt lat="43.0124485242024" lon="11.42855774106349"><ele>228.0</ele><time>2026-04-11T10:20:23Z</time></trkpt><trkpt lat="43.01238378012164" lon="11.428511728812973"><ele>228.0</ele><time>2026-04-11T10:20:24Z</time></trkpt><trkpt lat="43.01225588258216" lon="11.428410853461548"><ele>228.0</ele><time>2026-04-11T10:20:26Z</time></trkpt><trkpt lat="43.01219099132034" lon="11.428356530079443"><ele>228.0</ele><time>2026-04-11T10:20:27Z</time></trkpt><trkpt lat="43.01212835051044" lon="11.428290940403183"><ele>228.0</ele><time>2026-04-11T10:20:28Z</time></trkpt><trkpt lat="43.012069647920036" lon="11.428218120692241"><ele>228.0</ele><time>2026-04-11T10:20:29Z</time></trkpt><trkpt lat="43.01200431547064" lon="11.428155884090506"><ele>228.0</ele><time>2026-04-11T10:20:30Z</time></trkpt><trkpt lat="43.01193853732144" lon="11.428098009161321"><ele>227.99999999999997</ele><time>2026-04-11T10:20:31Z</time></trkpt><trkpt lat="43.011875460634876" lon="11.428040690984918"><ele>228.0</ele><time>2026-04-11T10:20:32Z</time></trkpt><trkpt lat="43.01181618778312" lon="11.427977062994348"><ele>228.0</ele><time>2026-04-11T10:20:33Z</time></trkpt><trkpt lat="43.011756360984435" lon="11.427920785156324"><ele>227.99999999999997</ele><time>2026-04-11T10:20:34Z</time></trkpt><trkpt lat="43.01170347475049" lon="11.427857288660267"><ele>228.0</ele><time>2026-04-11T10:20:35Z</time></trkpt><trkpt lat="43.01164939169673" lon="11.427804264484536"><ele>228.0</ele><time>2026-04-11T10:20:36Z</time></trkpt><trkpt lat="43.01159333757255" lon="11.427751168422779"><ele>227.66666666666666</ele><time>2026-04-11T10:20:37Z</time></trkpt><trkpt lat="43.01153749680809" lon="11.427695472993795"><ele>227.33333333333331</ele><time>2026-04-11T10:20:38Z</time></trkpt><trkpt lat="43.011483135326266" lon="11.427629532461152"><ele>227.0</ele><time>2026-04-11T10:20:39Z</time></trkpt><trkpt lat="43.011433280106836" lon="11.427551278940346"><ele>226.66666666666666</ele><time>2026-04-11T10:20:40Z</time></trkpt><trkpt lat="43.01138234435312" lon="11.427467658829578"><ele>226.33333333333331</ele><time>2026-04-11T10:20:41Z</time></trkpt><trkpt lat="43.01133046970862" lon="11.427386446499447"><ele>226.0</ele><time>2026-04-11T10:20:42Z</time></trkpt><trkpt lat="43.011281269922705" lon="11.427305529074172"><ele>226.0</ele><time>2026-04-11T10:20:43Z</time></trkpt><trkpt lat="43.01123969802153" lon="11.4272164672868"><ele>226.00000000000003</ele><time>2026-04-11T10:20:44Z</time></trkpt><trkpt lat="43.01119835917712" lon="11.427127265205375"><ele>226.00000000000003</ele><time>2026-04-11T10:20:45Z</time></trkpt><trkpt lat="43.01111421222782" lon="11.426951848835431"><ele>226.0</ele><time>2026-04-11T10:20:47Z</time></trkpt><trkpt lat="43.01107892023158" lon="11.42686450938346"><ele>226.0</ele><time>2026-04-11T10:20:48Z</time></trkpt><trkpt lat="43.01105363675364" lon="11.426772213704128"><ele>226.16666666666666</ele><time>2026-04-11T10:20:49Z</time></trkpt><trkpt lat="43.011018544676844" lon="11.426693426159131"><ele>226.33333333333331</ele><time>2026-04-11T10:20:50Z</time></trkpt><trkpt lat="43.0109757777695" lon="11.426624769642226"><ele>226.5</ele><time>2026-04-11T10:20:51Z</time></trkpt><trkpt lat="43.01089910128804" lon="11.42648962447591"><ele>226.66666666666669</ele><time>2026-04-11T10:20:53Z</time></trkpt><trkpt lat="43.010859324365306" lon="11.426415354661508"><ele>226.83333333333334</ele><time>2026-04-11T10:20:54Z</time></trkpt><trkpt lat="43.010829986904916" lon="11.426331885346867"><ele>227.0</ele><time>2026-04-11T10:20:55Z</time></trkpt><trkpt lat="43.010785258075806" lon="11.42626036616975"><ele>227.0</ele><time>2026-04-11T10:20:56Z</time></trkpt><trkpt lat="43.01074229857297" lon="11.426185367635336"><ele>227.00000000000003</ele><time>2026-04-11T10:20:57Z</time></trkpt><trkpt lat="43.010701641224145" lon="11.426107665006217"><ele>227.0</ele><time>2026-04-11T10:20:58Z</time></trkpt><trkpt lat="43.01065355767982" lon="11.426034952055291"><ele>227.0</ele><time>2026-04-11T10:20:59Z</time></trkpt><trkpt lat="43.01061018372958" lon="11.425962444086533"><ele>227.00000000000003</ele><time>2026-04-11T10:21:00Z</time></trkpt><trkpt lat="43.010570195030546" lon="11.42589204226318"><ele>227.0</ele><time>2026-04-11T10:21:01Z</time></trkpt><trkpt lat="43.010534103561156" lon="11.425819699508455"><ele>227.0</ele><time>2026-04-11T10:21:02Z</time></trkpt><trkpt lat="43.01046315016115" lon="11.42568540323575"><ele>227.0</ele><time>2026-04-11T10:21:04Z</time></trkpt><trkpt lat="43.01040972636173" lon="11.425530334596738"><ele>227.0</ele><time>2026-04-11T10:21:06Z</time></trkpt><trkpt lat="43.01036256662794" lon="11.42534364296775"><ele>227.0</ele><time>2026-04-11T10:21:08Z</time></trkpt><trkpt lat="43.01034137157138" lon="11.425246441102757"><ele>227.0</ele><time>2026-04-11T10:21:09Z</time></trkpt><trkpt lat="43.01032570069372" lon="11.425138634604718"><ele>227.0</ele><time>2026-04-11T10:21:10Z</time></trkpt><trkpt lat="43.01030919447514" lon="11.425034322014756"><ele>226.50000000000003</ele><time>2026-04-11T10:21:11Z</time></trkpt><trkpt lat="43.01028009661716" lon="11.424917946035476"><ele>226.0</ele><time>2026-04-11T10:21:12Z</time></trkpt><trkpt lat="43.010252718711904" lon="11.424802735645095"><ele>225.5</ele><time>2026-04-11T10:21:13Z</time></trkpt><trkpt lat="43.01023949124554" lon="11.424699816221855"><ele>225.0</ele><time>2026-04-11T10:21:14Z</time></trkpt><trkpt lat="43.01021826912307" lon="11.424573772137418"><ele>224.50000000000003</ele><time>2026-04-11T10:21:15Z</time></trkpt><trkpt lat="43.01019269902797" lon="11.42445580645743"><ele>224.0</ele><time>2026-04-11T10:21:16Z</time></trkpt><trkpt lat="43.010165786955774" lon="11.424344817007645"><ele>223.39999999999998</ele><time>2026-04-11T10:21:17Z</time></trkpt><trkpt lat="43.010145233651954" lon="11.424230906413934"><ele>222.79999999999998</ele><time>2026-04-11T10:21:18Z</time></trkpt><trkpt lat="43.01012555976298" lon="11.424113780896104"><ele>222.20000000000002</ele><time>2026-04-11T10:21:19Z</time></trkpt><trkpt lat="43.01009971532409" lon="11.42399621560889"><ele>221.60000000000002</ele><time>2026-04-11T10:21:20Z</time></trkpt><trkpt lat="43.0100672909754" lon="11.423878295551722"><ele>221.0</ele><time>2026-04-11T10:21:21Z</time></trkpt><trkpt lat="43.010036045270795" lon="11.423752364092227"><ele>220.60000000000002</ele><time>2026-04-11T10:21:22Z</time></trkpt><trkpt lat="43.01000935879987" lon="11.423616619980864"><ele>220.20000000000002</ele><time>2026-04-11T10:21:23Z</time></trkpt><trkpt lat="43.00998547498414" lon="11.423474792437485"><ele>219.79999999999998</ele><time>2026-04-11T10:21:24Z</time></trkpt><trkpt lat="43.00995685525707" lon="11.423341625324445"><ele>219.39999999999998</ele><time>2026-04-11T10:21:25Z</time></trkpt><trkpt lat="43.00992711971278" lon="11.423201533313327"><ele>219.0</ele><time>2026-04-11T10:21:26Z</time></trkpt><trkpt lat="43.00989115216677" lon="11.423087220703453"><ele>218.2</ele><time>2026-04-11T10:21:27Z</time></trkpt><trkpt lat="43.00982359850187" lon="11.422879617568807"><ele>217.39999999999998</ele><time>2026-04-11T10:21:29Z</time></trkpt><trkpt lat="43.009779325087685" lon="11.422787183128523"><ele>216.6</ele><time>2026-04-11T10:21:30Z</time></trkpt><trkpt lat="43.00974708292586" lon="11.42269214290373"><ele>215.8</ele><time>2026-04-11T10:21:31Z</time></trkpt><trkpt lat="43.009715687039694" lon="11.422590411393621"><ele>215.0</ele><time>2026-04-11T10:21:32Z</time></trkpt><trkpt lat="43.0096873434659" lon="11.422485455124924"><ele>215.00000000000003</ele><time>2026-04-11T10:21:33Z</time></trkpt><trkpt lat="43.009659251657304" lon="11.422385564055691"><ele>215.0</ele><time>2026-04-11T10:21:34Z</time></trkpt><trkpt lat="43.00961997729147" lon="11.422288061606777"><ele>215.0</ele><time>2026-04-11T10:21:35Z</time></trkpt><trkpt lat="43.00958882924228" lon="11.422191940816615"><ele>215.0</ele><time>2026-04-11T10:21:36Z</time></trkpt><trkpt lat="43.00955339352639" lon="11.422098485629776"><ele>215.00000000000003</ele><time>2026-04-11T10:21:37Z</time></trkpt><trkpt lat="43.009533547814144" lon="11.422013411561752"><ele>215.0</ele><time>2026-04-11T10:21:38Z</time></trkpt><trkpt lat="43.009494103417914" lon="11.42192339880408"><ele>215.8</ele><time>2026-04-11T10:21:39Z</time></trkpt><trkpt lat="43.009435749579204" lon="11.421754808424279"><ele>216.6</ele><time>2026-04-11T10:21:41Z</time></trkpt><trkpt lat="43.00938231595185" lon="11.421618222173363"><ele>217.39999999999998</ele><time>2026-04-11T10:21:43Z</time></trkpt><trkpt lat="43.00933407943262" lon="11.42149094844708"><ele>218.2</ele><time>2026-04-11T10:21:45Z</time></trkpt><trkpt lat="43.009267474418415" lon="11.421400293746872"><ele>219.0</ele><time>2026-04-11T10:21:47Z</time></trkpt><trkpt lat="43.00920064173482" lon="11.421329618174658"><ele>220.16666666666666</ele><time>2026-04-11T10:21:49Z</time></trkpt><trkpt lat="43.00908484915931" lon="11.421215514295382"><ele>221.33333333333331</ele><time>2026-04-11T10:21:54Z</time></trkpt><trkpt lat="43.00901425985296" lon="11.421172053470407"><ele>222.5</ele><time>2026-04-11T10:21:57Z</time></trkpt><trkpt lat="43.00894741666984" lon="11.42114321607207"><ele>223.66666666666666</ele><time>2026-04-11T10:22:00Z</time></trkpt><trkpt lat="43.00889106245252" lon="11.421095879261934"><ele>224.83333333333331</ele><time>2026-04-11T10:22:03Z</time></trkpt><trkpt lat="43.00882596045265" lon="11.421083627347475"><ele>226.0</ele><time>2026-04-11T10:22:06Z</time></trkpt><trkpt lat="43.008765311962286" lon="11.421047128001154"><ele>226.0</ele><time>2026-04-11T10:22:09Z</time></trkpt><trkpt lat="43.008700561375754" lon="11.420988639194638"><ele>226.00000000000003</ele><time>2026-04-11T10:22:12Z</time></trkpt><trkpt lat="43.008566922995705" lon="11.420878828205183"><ele>226.00000000000003</ele><time>2026-04-11T10:22:18Z</time></trkpt><trkpt lat="43.00849835491699" lon="11.420820551593312"><ele>226.0</ele><time>2026-04-11T10:22:21Z</time></trkpt><trkpt lat="43.00843182369101" lon="11.420741767064632"><ele>226.0</ele><time>2026-04-11T10:22:24Z</time></trkpt><trkpt lat="43.00835599297953" lon="11.42068164683857"><ele>227.20000000000002</ele><time>2026-04-11T10:22:27Z</time></trkpt><trkpt lat="43.00828363716591" lon="11.42061842845206"><ele>228.40000000000003</ele><time>2026-04-11T10:22:30Z</time></trkpt><trkpt lat="43.008216171398" lon="11.420561164237753"><ele>229.6</ele><time>2026-04-11T10:22:33Z</time></trkpt><trkpt lat="43.008087858453024" lon="11.420454679795135"><ele>230.8</ele><time>2026-04-11T10:22:39Z</time></trkpt><trkpt lat="43.00801737012747" lon="11.42040293561843"><ele>232.0</ele><time>2026-04-11T10:22:42Z</time></trkpt><trkpt lat="43.00796309603518" lon="11.420356569316773"><ele>232.33333333333331</ele><time>2026-04-11T10:22:45Z</time></trkpt><trkpt lat="43.00790327209115" lon="11.42030230275577"><ele>232.66666666666666</ele><time>2026-04-11T10:22:48Z</time></trkpt><trkpt lat="43.00784031932315" lon="11.420252448848025"><ele>233.0</ele><time>2026-04-11T10:22:51Z</time></trkpt><trkpt lat="43.00778035995757" lon="11.42020143177047"><ele>233.33333333333331</ele><time>2026-04-11T10:22:54Z</time></trkpt><trkpt lat="43.00765617597847" lon="11.420097314883037"><ele>233.66666666666666</ele><time>2026-04-11T10:23:01Z</time></trkpt><trkpt lat="43.007603144972315" lon="11.420048369770797"><ele>234.0</ele><time>2026-04-11T10:23:04Z</time></trkpt><trkpt lat="43.007531342411184" lon="11.419988181385563"><ele>233.79999999999998</ele><time>2026-04-11T10:23:08Z</time></trkpt><trkpt lat="43.007478312170505" lon="11.419936460547659"><ele>233.59999999999997</ele><time>2026-04-11T10:23:11Z</time></trkpt><trkpt lat="43.00742253361051" lon="11.419892316997768"><ele>233.4</ele><time>2026-04-11T10:23:14Z</time></trkpt><trkpt lat="43.00736802498748" lon="11.419845448720041"><ele>233.2</ele><time>2026-04-11T10:23:17Z</time></trkpt><trkpt lat="43.00722412517908" lon="11.419744813568558"><ele>233.0</ele><time>2026-04-11T10:23:23Z</time></trkpt><trkpt lat="43.00713156399609" lon="11.419675589394956"><ele>232.5</ele><time>2026-04-11T10:23:25Z</time></trkpt><trkpt lat="43.007003274712986" lon="11.419564215099243"><ele>232.0</ele><time>2026-04-11T10:23:27Z</time></trkpt><trkpt lat="43.00693564656297" lon="11.419479403674286"><ele>231.5</ele><time>2026-04-11T10:23:29Z</time></trkpt><trkpt lat="43.00685168546845" lon="11.419395347079712"><ele>231.0</ele><time>2026-04-11T10:23:31Z</time></trkpt><trkpt lat="43.00677159413209" lon="11.419287661215982"><ele>231.0</ele><time>2026-04-11T10:23:33Z</time></trkpt><trkpt lat="43.00672195839553" lon="11.419225221073908"><ele>231.0</ele><time>2026-04-11T10:23:34Z</time></trkpt><trkpt lat="43.0066706965482" lon="11.419164859747596"><ele>231.0</ele><time>2026-04-11T10:23:35Z</time></trkpt><trkpt lat="43.00662042709328" lon="11.419107815681317"><ele>231.0</ele><time>2026-04-11T10:23:36Z</time></trkpt><trkpt lat="43.006581769331056" lon="11.419037483609555"><ele>231.0</ele><time>2026-04-11T10:23:37Z</time></trkpt><trkpt lat="43.00653410818774" lon="11.41897943247007"><ele>231.0</ele><time>2026-04-11T10:23:38Z</time></trkpt><trkpt lat="43.00645845265143" lon="11.418828329147498"><ele>230.66666666666666</ele><time>2026-04-11T10:23:40Z</time></trkpt><trkpt lat="43.006418848138246" lon="11.418760435741534"><ele>230.33333333333331</ele><time>2026-04-11T10:23:41Z</time></trkpt><trkpt lat="43.00634435900302" lon="11.41862071792088"><ele>230.0</ele><time>2026-04-11T10:23:43Z</time></trkpt><trkpt lat="43.00630681885931" lon="11.418549022729302"><ele>229.66666666666666</ele><time>2026-04-11T10:23:44Z</time></trkpt><trkpt lat="43.006268587914604" lon="11.41847910081844"><ele>229.33333333333331</ele><time>2026-04-11T10:23:45Z</time></trkpt><trkpt lat="43.00622432638339" lon="11.418384384104835"><ele>229.0</ele><time>2026-04-11T10:23:46Z</time></trkpt><trkpt lat="43.00618620109644" lon="11.418305018633747"><ele>228.99999999999997</ele><time>2026-04-11T10:23:47Z</time></trkpt><trkpt lat="43.00614465544514" lon="11.418208836573445"><ele>229.0</ele><time>2026-04-11T10:23:48Z</time></trkpt><trkpt lat="43.00609532291896" lon="11.418125080711155"><ele>229.0</ele><time>2026-04-11T10:23:49Z</time></trkpt><trkpt lat="43.00604861018119" lon="11.418027921536217"><ele>229.0</ele><time>2026-04-11T10:23:50Z</time></trkpt><trkpt lat="43.00599242958081" lon="11.417936409029268"><ele>228.99999999999997</ele><time>2026-04-11T10:23:51Z</time></trkpt><trkpt lat="43.0059439002827" lon="11.417843038927513"><ele>229.0</ele><time>2026-04-11T10:23:52Z</time></trkpt><trkpt lat="43.00590357460186" lon="11.417765099692975"><ele>228.49999999999997</ele><time>2026-04-11T10:23:53Z</time></trkpt><trkpt lat="43.00587204357998" lon="11.417678066994045"><ele>228.0</ele><time>2026-04-11T10:23:54Z</time></trkpt><trkpt lat="43.00581456713797" lon="11.417583154220951"><ele>227.5</ele><time>2026-04-11T10:23:55Z</time></trkpt><trkpt lat="43.00576042971446" lon="11.417494148741484"><ele>227.0</ele><time>2026-04-11T10:23:56Z</time></trkpt><trkpt lat="43.00573508476928" lon="11.417398232171255"><ele>226.49999999999997</ele><time>2026-04-11T10:23:57Z</time></trkpt><trkpt lat="43.00568083627802" lon="11.417290814160912"><ele>226.0</ele><time>2026-04-11T10:23:58Z</time></trkpt><trkpt lat="43.005624026588336" lon="11.417183171462492"><ele>225.25</ele><time>2026-04-11T10:23:59Z</time></trkpt><trkpt lat="43.00552096468147" lon="11.416961045736452"><ele>224.5</ele><time>2026-04-11T10:24:01Z</time></trkpt><trkpt lat="43.0054677411327" lon="11.416861090814697"><ele>223.75</ele><time>2026-04-11T10:24:02Z</time></trkpt><trkpt lat="43.00541030502931" lon="11.416760139457164"><ele>223.0</ele><time>2026-04-11T10:24:03Z</time></trkpt><trkpt lat="43.00535300464221" lon="11.416662374117523"><ele>222.99999999999997</ele><time>2026-04-11T10:24:04Z</time></trkpt><trkpt lat="43.00531031060207" lon="11.416564020993492"><ele>223.0</ele><time>2026-04-11T10:24:05Z</time></trkpt><trkpt lat="43.00527171845461" lon="11.416474058318302"><ele>223.0</ele><time>2026-04-11T10:24:06Z</time></trkpt><trkpt lat="43.00523225049736" lon="11.416381682222868"><ele>223.0</ele><time>2026-04-11T10:24:07Z</time></trkpt><trkpt lat="43.0051977695253" lon="11.41629859961177"><ele>222.99999999999997</ele><time>2026-04-11T10:24:08Z</time></trkpt><trkpt lat="43.00516851979459" lon="11.41621423036402"><ele>223.0</ele><time>2026-04-11T10:24:09Z</time></trkpt><trkpt lat="43.00511705834223" lon="11.416083575361663"><ele>223.2</ele><time>2026-04-11T10:24:11Z</time></trkpt><trkpt lat="43.005073752670214" lon="11.415977162225532"><ele>223.4</ele><time>2026-04-11T10:24:13Z</time></trkpt><trkpt lat="43.00503246878163" lon="11.415897581895537"><ele>223.59999999999997</ele><time>2026-04-11T10:24:15Z</time></trkpt><trkpt lat="43.00498871329564" lon="11.415792710163663"><ele>223.79999999999998</ele><time>2026-04-11T10:24:18Z</time></trkpt><trkpt lat="43.00494083034104" lon="11.415699322491953"><ele>224.0</ele><time>2026-04-11T10:24:21Z</time></trkpt><trkpt lat="43.00486062641341" lon="11.41550646983705"><ele>224.85714285714286</ele><time>2026-04-11T10:24:27Z</time></trkpt><trkpt lat="43.004815662364685" lon="11.415404392939175"><ele>225.71428571428572</ele><time>2026-04-11T10:24:30Z</time></trkpt><trkpt lat="43.004780225798655" lon="11.41532018883508"><ele>226.57142857142856</ele><time>2026-04-11T10:24:33Z</time></trkpt><trkpt lat="43.00473898619752" lon="11.41524903214904"><ele>227.42857142857142</ele><time>2026-04-11T10:24:35Z</time></trkpt><trkpt lat="43.004702963677495" lon="11.415168510289915"><ele>228.28571428571428</ele><time>2026-04-11T10:24:37Z</time></trkpt><trkpt lat="43.004661272444814" lon="11.415085476286373"><ele>229.1428571428571</ele><time>2026-04-11T10:24:39Z</time></trkpt><trkpt lat="43.00461595599869" lon="11.415007736622488"><ele>229.99999999999997</ele><time>2026-04-11T10:24:41Z</time></trkpt><trkpt lat="43.00456832106548" lon="11.414924159850436"><ele>230.0</ele><time>2026-04-11T10:24:43Z</time></trkpt><trkpt lat="43.00447433968839" lon="11.414759597088647"><ele>230.0</ele><time>2026-04-11T10:24:47Z</time></trkpt><trkpt lat="43.004420296805584" lon="11.414650525959518"><ele>230.0</ele><time>2026-04-11T10:24:49Z</time></trkpt><trkpt lat="43.00437315243905" lon="11.414543008178823"><ele>230.0</ele><time>2026-04-11T10:24:51Z</time></trkpt><trkpt lat="43.004325805515656" lon="11.414459857114128"><ele>230.0</ele><time>2026-04-11T10:24:53Z</time></trkpt><trkpt lat="43.00427140065691" lon="11.414374453618546"><ele>230.6</ele><time>2026-04-11T10:24:56Z</time></trkpt><trkpt lat="43.00421720243739" lon="11.414273568970248"><ele>231.2</ele><time>2026-04-11T10:24:59Z</time></trkpt><trkpt lat="43.00417159247759" lon="11.414186942442136"><ele>231.8</ele><time>2026-04-11T10:25:02Z</time></trkpt><trkpt lat="43.00412286870521" lon="11.414109881001488"><ele>232.4</ele><time>2026-04-11T10:25:05Z</time></trkpt><trkpt lat="43.004039855526806" lon="11.413946048554726"><ele>233.0</ele><time>2026-04-11T10:25:10Z</time></trkpt><trkpt lat="43.003999487232555" lon="11.41386883733276"><ele>232.85714285714286</ele><time>2026-04-11T10:25:12Z</time></trkpt><trkpt lat="43.00394965565324" lon="11.41379208256082"><ele>232.71428571428572</ele><time>2026-04-11T10:25:15Z</time></trkpt><trkpt lat="43.00390028397138" lon="11.41370093342983"><ele>232.57142857142858</ele><time>2026-04-11T10:25:18Z</time></trkpt><trkpt lat="43.00385273723048" lon="11.413625353201972"><ele>232.42857142857144</ele><time>2026-04-11T10:25:20Z</time></trkpt><trkpt lat="43.00381257321335" lon="11.413554916573453"><ele>232.28571428571428</ele><time>2026-04-11T10:25:23Z</time></trkpt><trkpt lat="43.003766051010885" lon="11.413483827410081"><ele>232.14285714285717</ele><time>2026-04-11T10:25:25Z</time></trkpt><trkpt lat="43.00372409914464" lon="11.413401756169455"><ele>232.00000000000003</ele><time>2026-04-11T10:25:28Z</time></trkpt><trkpt lat="43.003618848503784" lon="11.413215792745142"><ele>232.0</ele><time>2026-04-11T10:25:33Z</time></trkpt><trkpt lat="43.00356331608393" lon="11.413120443302695"><ele>232.0</ele><time>2026-04-11T10:25:35Z</time></trkpt><trkpt lat="43.00350308626256" lon="11.413010706550706"><ele>232.0</ele><time>2026-04-11T10:25:37Z</time></trkpt><trkpt lat="43.00345381847642" lon="11.412920252641579"><ele>232.0</ele><time>2026-04-11T10:25:39Z</time></trkpt><trkpt lat="43.00340503606516" lon="11.412829032320783"><ele>232.0</ele><time>2026-04-11T10:25:40Z</time></trkpt><trkpt lat="43.00333245179307" lon="11.412727019485322"><ele>232.0</ele><time>2026-04-11T10:25:42Z</time></trkpt><trkpt lat="43.00327060406387" lon="11.412614632049323"><ele>232.0</ele><time>2026-04-11T10:25:44Z</time></trkpt><trkpt lat="43.00320866883864" lon="11.412496343383312"><ele>232.0</ele><time>2026-04-11T10:25:46Z</time></trkpt><trkpt lat="43.00314612272399" lon="11.412377543452097"><ele>232.0</ele><time>2026-04-11T10:25:48Z</time></trkpt><trkpt lat="43.00309267401004" lon="11.412266185104373"><ele>232.0</ele><time>2026-04-11T10:25:50Z</time></trkpt><trkpt lat="43.00298396102448" lon="11.412077455462683"><ele>232.8571428571429</ele><time>2026-04-11T10:25:54Z</time></trkpt><trkpt lat="43.00293376393874" lon="11.412001479033185"><ele>233.71428571428572</ele><time>2026-04-11T10:25:56Z</time></trkpt><trkpt lat="43.002893264905644" lon="11.4119221362859"><ele>234.57142857142858</ele><time>2026-04-11T10:25:58Z</time></trkpt><trkpt lat="43.00285090588945" lon="11.411843440030125"><ele>235.42857142857144</ele><time>2026-04-11T10:26:00Z</time></trkpt><trkpt lat="43.002804344326094" lon="11.411769862714609"><ele>236.28571428571428</ele><time>2026-04-11T10:26:02Z</time></trkpt><trkpt lat="43.00275943697519" lon="11.411696330611248"><ele>237.14285714285714</ele><time>2026-04-11T10:26:04Z</time></trkpt><trkpt lat="43.00271905369776" lon="11.411619312951126"><ele>238.0</ele><time>2026-04-11T10:26:06Z</time></trkpt><trkpt lat="43.00267217193086" lon="11.411533447755932"><ele>238.0</ele><time>2026-04-11T10:26:09Z</time></trkpt><trkpt lat="43.0026188681155" lon="11.411440022890096"><ele>238.0</ele><time>2026-04-11T10:26:12Z</time></trkpt><trkpt lat="43.00252070516682" lon="11.411274723649653"><ele>238.0</ele><time>2026-04-11T10:26:17Z</time></trkpt><trkpt lat="43.002479467734496" lon="11.411192094883878"><ele>238.0</ele><time>2026-04-11T10:26:19Z</time></trkpt><trkpt lat="43.002434463068525" lon="11.411114786373014"><ele>238.0</ele><time>2026-04-11T10:26:21Z</time></trkpt><trkpt lat="43.002391271059196" lon="11.411037266811638"><ele>238.16666666666666</ele><time>2026-04-11T10:26:23Z</time></trkpt><trkpt lat="43.002333820605394" lon="11.410966692987053"><ele>238.33333333333331</ele><time>2026-04-11T10:26:25Z</time></trkpt><trkpt lat="43.00227732981414" lon="11.410889138133248"><ele>238.5</ele><time>2026-04-11T10:26:27Z</time></trkpt><trkpt lat="43.002212027978025" lon="11.410829480978773"><ele>238.66666666666669</ele><time>2026-04-11T10:26:29Z</time></trkpt><trkpt lat="43.00213884373836" lon="11.410794943075288"><ele>238.83333333333334</ele><time>2026-04-11T10:26:31Z</time></trkpt><trkpt lat="43.002065524998415" lon="11.410756217896656"><ele>239.0</ele><time>2026-04-11T10:26:33Z</time></trkpt><trkpt lat="43.00189779709475" lon="11.41072279345863"><ele>239.0</ele><time>2026-04-11T10:26:37Z</time></trkpt><trkpt lat="43.00166941796179" lon="11.410661772762925"><ele>239.0</ele><time>2026-04-11T10:26:39Z</time></trkpt><trkpt lat="43.00157176847774" lon="11.410700791332332"><ele>239.0</ele><time>2026-04-11T10:26:41Z</time></trkpt><trkpt lat="43.00146933409398" lon="11.410711874382049"><ele>239.0</ele><time>2026-04-11T10:26:43Z</time></trkpt><trkpt lat="43.001369510495834" lon="11.410733382692209"><ele>238.79999999999998</ele><time>2026-04-11T10:26:45Z</time></trkpt><trkpt lat="43.00126787236971" lon="11.410751731047768"><ele>238.59999999999997</ele><time>2026-04-11T10:26:47Z</time></trkpt><trkpt lat="43.001166559649306" lon="11.410779174401885"><ele>238.4</ele><time>2026-04-11T10:26:49Z</time></trkpt><trkpt lat="43.00106549670191" lon="11.410799168708202"><ele>238.2</ele><time>2026-04-11T10:26:51Z</time></trkpt><trkpt lat="43.00097099883032" lon="11.410835710657349"><ele>238.0</ele><time>2026-04-11T10:26:53Z</time></trkpt><trkpt lat="43.00087722496877" lon="11.410847675282872"><ele>238.8</ele><time>2026-04-11T10:26:55Z</time></trkpt><trkpt lat="43.00070146500501" lon="11.410883889478326"><ele>239.60000000000002</ele><time>2026-04-11T10:26:59Z</time></trkpt><trkpt lat="43.00061347639685" lon="11.410903881092207"><ele>240.39999999999998</ele><time>2026-04-11T10:27:01Z</time></trkpt><trkpt lat="43.000525153971694" lon="11.410919388716604"><ele>241.2</ele><time>2026-04-11T10:27:03Z</time></trkpt><trkpt lat="43.00044233733804" lon="11.410936523629662"><ele>242.0</ele><time>2026-04-11T10:27:05Z</time></trkpt><trkpt lat="43.00035867929251" lon="11.410952487538225"><ele>242.0</ele><time>2026-04-11T10:27:07Z</time></trkpt><trkpt lat="43.00028178703569" lon="11.410961155603513"><ele>242.0</ele><time>2026-04-11T10:27:09Z</time></trkpt><trkpt lat="43.00020051430472" lon="11.410984322792515"><ele>242.0</ele><time>2026-04-11T10:27:12Z</time></trkpt><trkpt lat="43.00011123752543" lon="11.410976759587024"><ele>242.0</ele><time>2026-04-11T10:27:14Z</time></trkpt><trkpt lat="43.000042626480294" lon="11.411002197495502"><ele>242.0</ele><time>2026-04-11T10:27:16Z</time></trkpt><trkpt lat="42.999863467466255" lon="11.411039613100737"><ele>242.00000000000003</ele><time>2026-04-11T10:27:21Z</time></trkpt><trkpt lat="42.9997981446216" lon="11.411050229572394"><ele>242.0</ele><time>2026-04-11T10:27:24Z</time></trkpt><trkpt lat="42.99972418095929" lon="11.411050055429493"><ele>242.0</ele><time>2026-04-11T10:27:26Z</time></trkpt><trkpt lat="42.99965918699824" lon="11.411068180802284"><ele>242.0</ele><time>2026-04-11T10:27:28Z</time></trkpt><trkpt lat="42.999562069267995" lon="11.41110397602325"><ele>242.00000000000003</ele><time>2026-04-11T10:27:31Z</time></trkpt><trkpt lat="42.99948312129085" lon="11.411122635572369"><ele>242.0</ele><time>2026-04-11T10:27:34Z</time></trkpt><trkpt lat="42.99938411611328" lon="11.411133891333776"><ele>242.0</ele><time>2026-04-11T10:27:37Z</time></trkpt><trkpt lat="42.999226693658194" lon="11.411166340131857"><ele>242.0</ele><time>2026-04-11T10:27:42Z</time></trkpt><trkpt lat="42.999143873512786" lon="11.411187126625856"><ele>242.0</ele><time>2026-04-11T10:27:45Z</time></trkpt><trkpt lat="42.99906318234696" lon="11.41120970198819"><ele>242.0</ele><time>2026-04-11T10:27:48Z</time></trkpt><trkpt lat="42.998972037480534" lon="11.411224381395712"><ele>242.0</ele><time>2026-04-11T10:27:52Z</time></trkpt><trkpt lat="42.99889094706956" lon="11.411239639179817"><ele>242.33333333333334</ele><time>2026-04-11T10:27:55Z</time></trkpt><trkpt lat="42.99881725349365" lon="11.41125353961116"><ele>242.66666666666669</ele><time>2026-04-11T10:27:58Z</time></trkpt><trkpt lat="42.998686051776566" lon="11.411280961043275"><ele>243.0</ele><time>2026-04-11T10:28:03Z</time></trkpt><trkpt lat="42.998619534543025" lon="11.411290355904672"><ele>243.33333333333331</ele><time>2026-04-11T10:28:05Z</time></trkpt><trkpt lat="42.99854382249217" lon="11.411312135130448"><ele>243.66666666666666</ele><time>2026-04-11T10:28:08Z</time></trkpt><trkpt lat="42.99847400557391" lon="11.411309085810375"><ele>244.0</ele><time>2026-04-11T10:28:11Z</time></trkpt><trkpt lat="42.998404634287624" lon="11.411320427001845"><ele>245.6</ele><time>2026-04-11T10:28:13Z</time></trkpt><trkpt lat="42.998330356910074" lon="11.411342158953437"><ele>247.2</ele><time>2026-04-11T10:28:16Z</time></trkpt><trkpt lat="42.99824884186401" lon="11.41137098038067"><ele>248.79999999999998</ele><time>2026-04-11T10:28:19Z</time></trkpt><trkpt lat="42.99807986547377" lon="11.41139506180617"><ele>250.39999999999998</ele><time>2026-04-11T10:28:23Z</time></trkpt><trkpt lat="42.99800581637711" lon="11.411416303977997"><ele>252.0</ele><time>2026-04-11T10:28:25Z</time></trkpt><trkpt lat="42.99793673174886" lon="11.411430721454545"><ele>252.0</ele><time>2026-04-11T10:28:27Z</time></trkpt><trkpt lat="42.997867595166376" lon="11.411445844522573"><ele>252.0</ele><time>2026-04-11T10:28:29Z</time></trkpt><trkpt lat="42.997787111913034" lon="11.411467412041345"><ele>252.0</ele><time>2026-04-11T10:28:31Z</time></trkpt><trkpt lat="42.99772340847915" lon="11.411478182471111"><ele>252.0</ele><time>2026-04-11T10:28:34Z</time></trkpt><trkpt lat="42.99763526240479" lon="11.411492627600492"><ele>252.0</ele><time>2026-04-11T10:28:37Z</time></trkpt><trkpt lat="42.99752534302506" lon="11.411527117259222"><ele>252.0</ele><time>2026-04-11T10:28:39Z</time></trkpt><trkpt lat="42.99744005275176" lon="11.41153755545961"><ele>252.0</ele><time>2026-04-11T10:28:41Z</time></trkpt><trkpt lat="42.99726963320849" lon="11.411575254619278"><ele>252.0</ele><time>2026-04-11T10:28:45Z</time></trkpt><trkpt lat="42.99718449475997" lon="11.411593698496304"><ele>252.0</ele><time>2026-04-11T10:28:47Z</time></trkpt><trkpt lat="42.99710521140231" lon="11.411593861118984"><ele>252.0</ele><time>2026-04-11T10:28:49Z</time></trkpt><trkpt lat="42.99702753050465" lon="11.411608559624522"><ele>252.0</ele><time>2026-04-11T10:28:51Z</time></trkpt><trkpt lat="42.996955825826184" lon="11.411606450962166"><ele>252.0</ele><time>2026-04-11T10:28:53Z</time></trkpt><trkpt lat="42.996887445986886" lon="11.411615048909553"><ele>252.0</ele><time>2026-04-11T10:28:55Z</time></trkpt><trkpt lat="42.99679544503635" lon="11.411632479566821"><ele>252.0</ele><time>2026-04-11T10:28:58Z</time></trkpt><trkpt lat="42.99670484563226" lon="11.411637673072077"><ele>252.0</ele><time>2026-04-11T10:29:01Z</time></trkpt><trkpt lat="42.9966405721205" lon="11.411650696607191"><ele>252.0</ele><time>2026-04-11T10:29:03Z</time></trkpt><trkpt lat="42.99649813925149" lon="11.411692277899853"><ele>252.5</ele><time>2026-04-11T10:29:10Z</time></trkpt><trkpt lat="42.99641277560219" lon="11.411727417329288"><ele>253.0</ele><time>2026-04-11T10:29:12Z</time></trkpt><trkpt lat="42.99633794615413" lon="11.41175514741906"><ele>253.5</ele><time>2026-04-11T10:29:14Z</time></trkpt><trkpt lat="42.99625778487228" lon="11.411788632994536"><ele>254.0</ele><time>2026-04-11T10:29:16Z</time></trkpt><trkpt lat="42.99616405226058" lon="11.411817787630989"><ele>254.5</ele><time>2026-04-11T10:29:18Z</time></trkpt><trkpt lat="42.996065187435185" lon="11.411853296706202"><ele>255.0</ele><time>2026-04-11T10:29:20Z</time></trkpt><trkpt lat="42.99596676301048" lon="11.411895523272724"><ele>255.0</ele><time>2026-04-11T10:29:22Z</time></trkpt><trkpt lat="42.99587621407081" lon="11.411933539037712"><ele>255.0</ele><time>2026-04-11T10:29:24Z</time></trkpt><trkpt lat="42.99568919281207" lon="11.412000198820747"><ele>255.0</ele><time>2026-04-11T10:29:28Z</time></trkpt><trkpt lat="42.99558084913593" lon="11.412027885798901"><ele>255.0</ele><time>2026-04-11T10:29:30Z</time></trkpt><trkpt lat="42.995464184478514" lon="11.412070103688846"><ele>254.71428571428572</ele><time>2026-04-11T10:29:32Z</time></trkpt><trkpt lat="42.995401688789684" lon="11.412082491525338"><ele>254.42857142857144</ele><time>2026-04-11T10:29:33Z</time></trkpt><trkpt lat="42.99533925239302" lon="11.41209802200732"><ele>254.14285714285717</ele><time>2026-04-11T10:29:34Z</time></trkpt><trkpt lat="42.99527571714535" lon="11.412113588404296"><ele>253.8571428571429</ele><time>2026-04-11T10:29:35Z</time></trkpt><trkpt lat="42.995210477854144" lon="11.41212096193366"><ele>253.57142857142858</ele><time>2026-04-11T10:29:36Z</time></trkpt><trkpt lat="42.995145530351245" lon="11.412123304777543"><ele>253.28571428571433</ele><time>2026-04-11T10:29:37Z</time></trkpt><trkpt lat="42.995078851857734" lon="11.412125224482962"><ele>253.00000000000003</ele><time>2026-04-11T10:29:38Z</time></trkpt><trkpt lat="42.99500995553877" lon="11.41211745923299"><ele>252.66666666666666</ele><time>2026-04-11T10:29:39Z</time></trkpt><trkpt lat="42.994942044354126" lon="11.412106580977296"><ele>252.33333333333331</ele><time>2026-04-11T10:29:40Z</time></trkpt><trkpt lat="42.99487286318926" lon="11.412090742123137"><ele>252.0</ele><time>2026-04-11T10:29:41Z</time></trkpt><trkpt lat="42.99480138961244" lon="11.412049982799315"><ele>251.66666666666669</ele><time>2026-04-11T10:29:42Z</time></trkpt><trkpt lat="42.99473428303223" lon="11.411997530204191"><ele>251.33333333333334</ele><time>2026-04-11T10:29:43Z</time></trkpt><trkpt lat="42.99466266443264" lon="11.411947423580573"><ele>251.0</ele><time>2026-04-11T10:29:44Z</time></trkpt><trkpt lat="42.994587904285495" lon="11.411894871931889"><ele>251.0</ele><time>2026-04-11T10:29:45Z</time></trkpt><trkpt lat="42.99443740597026" lon="11.411796103105617"><ele>251.00000000000003</ele><time>2026-04-11T10:29:47Z</time></trkpt><trkpt lat="42.99436501382483" lon="11.41174148848715"><ele>251.00000000000003</ele><time>2026-04-11T10:29:48Z</time></trkpt><trkpt lat="42.99429191603445" lon="11.411681907421405"><ele>251.0</ele><time>2026-04-11T10:29:49Z</time></trkpt><trkpt lat="42.99421865259006" lon="11.411618246630987"><ele>251.0</ele><time>2026-04-11T10:29:50Z</time></trkpt><trkpt lat="42.99414554743777" lon="11.411545514677297"><ele>250.8</ele><time>2026-04-11T10:29:51Z</time></trkpt><trkpt lat="42.99406106529313" lon="11.411493082911138"><ele>250.60000000000002</ele><time>2026-04-11T10:29:52Z</time></trkpt><trkpt lat="42.99398229734441" lon="11.411429806950947"><ele>250.4</ele><time>2026-04-11T10:29:53Z</time></trkpt><trkpt lat="42.9939083026961" lon="11.411359576690321"><ele>250.2</ele><time>2026-04-11T10:29:54Z</time></trkpt><trkpt lat="42.99382971291022" lon="11.41128171782418"><ele>250.0</ele><time>2026-04-11T10:29:55Z</time></trkpt><trkpt lat="42.99375471129385" lon="11.411203944214003"><ele>249.2</ele><time>2026-04-11T10:29:56Z</time></trkpt><trkpt lat="42.99367495827261" lon="11.411128075470632"><ele>248.4</ele><time>2026-04-11T10:29:57Z</time></trkpt><trkpt lat="42.99359684888587" lon="11.411051917620924"><ele>247.60000000000002</ele><time>2026-04-11T10:29:58Z</time></trkpt><trkpt lat="42.993524946789265" lon="11.41097727382725"><ele>246.8</ele><time>2026-04-11T10:29:59Z</time></trkpt><trkpt lat="42.99345279364755" lon="11.410894968797622"><ele>246.0</ele><time>2026-04-11T10:30:00Z</time></trkpt><trkpt lat="42.993376430685075" lon="11.410817560672085"><ele>246.0</ele><time>2026-04-11T10:30:01Z</time></trkpt><trkpt lat="42.99330947463472" lon="11.410737156520552"><ele>246.0</ele><time>2026-04-11T10:30:02Z</time></trkpt><trkpt lat="42.99324196636705" lon="11.410661318001274"><ele>246.0</ele><time>2026-04-11T10:30:03Z</time></trkpt><trkpt lat="42.993165813379086" lon="11.410593975337438"><ele>246.0</ele><time>2026-04-11T10:30:04Z</time></trkpt><trkpt lat="42.99308546351625" lon="11.410544676641042"><ele>246.0</ele><time>2026-04-11T10:30:05Z</time></trkpt><trkpt lat="42.99299952889505" lon="11.410501432107415"><ele>246.0</ele><time>2026-04-11T10:30:06Z</time></trkpt><trkpt lat="42.99283395920836" lon="11.410439684204631"><ele>245.66666666666666</ele><time>2026-04-11T10:30:08Z</time></trkpt><trkpt lat="42.99275812153399" lon="11.410412194528277"><ele>245.33333333333331</ele><time>2026-04-11T10:30:09Z</time></trkpt><trkpt lat="42.99266638566876" lon="11.410401355495049"><ele>245.0</ele><time>2026-04-11T10:30:10Z</time></trkpt><trkpt lat="42.99259884165511" lon="11.410392567018263"><ele>244.66666666666666</ele><time>2026-04-11T10:30:11Z</time></trkpt><trkpt lat="42.992504488992644" lon="11.410384542321168"><ele>244.33333333333331</ele><time>2026-04-11T10:30:12Z</time></trkpt><trkpt lat="42.99242768545144" lon="11.410374930748457"><ele>244.0</ele><time>2026-04-11T10:30:13Z</time></trkpt><trkpt lat="42.99235010469684" lon="11.410364661485884"><ele>243.99999999999997</ele><time>2026-04-11T10:30:14Z</time></trkpt><trkpt lat="42.99227292037917" lon="11.410347774491102"><ele>244.0</ele><time>2026-04-11T10:30:15Z</time></trkpt><trkpt lat="42.99219806786492" lon="11.410338594734062"><ele>243.99999999999997</ele><time>2026-04-11T10:30:16Z</time></trkpt><trkpt lat="42.99212526905981" lon="11.410342338906155"><ele>243.99999999999997</ele><time>2026-04-11T10:30:17Z</time></trkpt><trkpt lat="42.99205466040077" lon="11.410340444917308"><ele>244.0</ele><time>2026-04-11T10:30:18Z</time></trkpt><trkpt lat="42.99198536278522" lon="11.410336484622706"><ele>243.99999999999997</ele><time>2026-04-11T10:30:19Z</time></trkpt><trkpt lat="42.991916089103796" lon="11.410332234818245"><ele>243.99999999999997</ele><time>2026-04-11T10:30:20Z</time></trkpt><trkpt lat="42.99184088081349" lon="11.410346847930539"><ele>243.99999999999997</ele><time>2026-04-11T10:30:21Z</time></trkpt><trkpt lat="42.99177284748152" lon="11.410361542169943"><ele>244.0</ele><time>2026-04-11T10:30:22Z</time></trkpt><trkpt lat="42.991708913610374" lon="11.410356059223178"><ele>244.0</ele><time>2026-04-11T10:30:23Z</time></trkpt><trkpt lat="42.99163706341809" lon="11.410384510002185"><ele>244.0</ele><time>2026-04-11T10:30:24Z</time></trkpt><trkpt lat="42.99152535941961" lon="11.410379277719475"><ele>243.99999999999997</ele><time>2026-04-11T10:30:26Z</time></trkpt><trkpt lat="42.99146088412333" lon="11.410381129777146"><ele>244.0</ele><time>2026-04-11T10:30:27Z</time></trkpt><trkpt lat="42.99132685855514" lon="11.410362347603014"><ele>244.16666666666666</ele><time>2026-04-11T10:30:29Z</time></trkpt><trkpt lat="42.99125283804824" lon="11.410353062457537"><ele>244.33333333333331</ele><time>2026-04-11T10:30:30Z</time></trkpt><trkpt lat="42.99117935942171" lon="11.410345469881099"><ele>244.5</ele><time>2026-04-11T10:30:31Z</time></trkpt><trkpt lat="42.99110272066213" lon="11.410338398310062"><ele>244.66666666666669</ele><time>2026-04-11T10:30:32Z</time></trkpt><trkpt lat="42.991025697405036" lon="11.410319999363482"><ele>244.83333333333334</ele><time>2026-04-11T10:30:33Z</time></trkpt><trkpt lat="42.99094708405061" lon="11.410306728844976"><ele>245.0</ele><time>2026-04-11T10:30:34Z</time></trkpt><trkpt lat="42.990864438511835" lon="11.410296590867492"><ele>244.85714285714286</ele><time>2026-04-11T10:30:35Z</time></trkpt><trkpt lat="42.990797158798365" lon="11.410287792087216"><ele>244.71428571428572</ele><time>2026-04-11T10:30:36Z</time></trkpt><trkpt lat="42.99071926470319" lon="11.410258819053265"><ele>244.57142857142856</ele><time>2026-04-11T10:30:37Z</time></trkpt><trkpt lat="42.99064880972197" lon="11.410250699717453"><ele>244.42857142857142</ele><time>2026-04-11T10:30:38Z</time></trkpt><trkpt lat="42.99058057919961" lon="11.41024367265712"><ele>244.28571428571428</ele><time>2026-04-11T10:30:39Z</time></trkpt><trkpt lat="42.99051231022276" lon="11.410240784138084"><ele>244.1428571428571</ele><time>2026-04-11T10:30:40Z</time></trkpt><trkpt lat="42.99044934484346" lon="11.410235998753654"><ele>243.99999999999997</ele><time>2026-04-11T10:30:41Z</time></trkpt><trkpt lat="42.99038646987336" lon="11.410228251829805"><ele>244.0</ele><time>2026-04-11T10:30:42Z</time></trkpt><trkpt lat="42.99026390214363" lon="11.410225982822174"><ele>244.0</ele><time>2026-04-11T10:30:44Z</time></trkpt><trkpt lat="42.99014129384936" lon="11.410248697157304"><ele>244.0</ele><time>2026-04-11T10:30:46Z</time></trkpt><trkpt lat="42.99003230973981" lon="11.410282016227601"><ele>244.0</ele><time>2026-04-11T10:30:48Z</time></trkpt><trkpt lat="42.989825522838686" lon="11.410394769597726"><ele>243.99999999999997</ele><time>2026-04-11T10:30:52Z</time></trkpt><trkpt lat="42.989714727450846" lon="11.41043664237757"><ele>244.0</ele><time>2026-04-11T10:30:54Z</time></trkpt><trkpt lat="42.98965150495384" lon="11.410444682306542"><ele>244.0</ele><time>2026-04-11T10:30:55Z</time></trkpt><trkpt lat="42.98958349460207" lon="11.410452836214676"><ele>244.0</ele><time>2026-04-11T10:30:56Z</time></trkpt><trkpt lat="42.989515468054314" lon="11.410459302353024"><ele>243.99999999999997</ele><time>2026-04-11T10:30:57Z</time></trkpt><trkpt lat="42.9894370638761" lon="11.410474574177142"><ele>244.0</ele><time>2026-04-11T10:30:58Z</time></trkpt><trkpt lat="42.989355169991356" lon="11.410478368617573"><ele>244.0</ele><time>2026-04-11T10:30:59Z</time></trkpt><trkpt lat="42.98927023079977" lon="11.410487103768718"><ele>243.99999999999997</ele><time>2026-04-11T10:31:00Z</time></trkpt><trkpt lat="42.98917428134197" lon="11.410494835138044"><ele>243.99999999999997</ele><time>2026-04-11T10:31:01Z</time></trkpt><trkpt lat="42.98908097850267" lon="11.410497786210314"><ele>244.0</ele><time>2026-04-11T10:31:02Z</time></trkpt><trkpt lat="42.988986196819646" lon="11.410485464543203"><ele>244.0</ele><time>2026-04-11T10:31:03Z</time></trkpt><trkpt lat="42.98888390628459" lon="11.410469348698815"><ele>242.79999999999998</ele><time>2026-04-11T10:31:04Z</time></trkpt><trkpt lat="42.98877907518962" lon="11.410463388176746"><ele>241.59999999999997</ele><time>2026-04-11T10:31:05Z</time></trkpt><trkpt lat="42.98866751230598" lon="11.410442166883458"><ele>240.4</ele><time>2026-04-11T10:31:06Z</time></trkpt><trkpt lat="42.988563012509445" lon="11.410427842253208"><ele>239.2</ele><time>2026-04-11T10:31:07Z</time></trkpt><trkpt lat="42.98846148485597" lon="11.410403412176393"><ele>238.0</ele><time>2026-04-11T10:31:08Z</time></trkpt><trkpt lat="42.98835686913688" lon="11.410387882294765"><ele>237.0</ele><time>2026-04-11T10:31:09Z</time></trkpt><trkpt lat="42.98815958171966" lon="11.410342754373497"><ele>236.0</ele><time>2026-04-11T10:31:11Z</time></trkpt><trkpt lat="42.98805735841326" lon="11.410326222929735"><ele>235.0</ele><time>2026-04-11T10:31:12Z</time></trkpt><trkpt lat="42.9879520728115" lon="11.410306859838233"><ele>234.0</ele><time>2026-04-11T10:31:13Z</time></trkpt><trkpt lat="42.987860149611976" lon="11.410289363690758"><ele>234.0</ele><time>2026-04-11T10:31:14Z</time></trkpt><trkpt lat="42.98776391300237" lon="11.410273648367774"><ele>233.99999999999997</ele><time>2026-04-11T10:31:15Z</time></trkpt><trkpt lat="42.987667391451865" lon="11.410255300328505"><ele>233.99999999999997</ele><time>2026-04-11T10:31:16Z</time></trkpt><trkpt lat="42.9875722385057" lon="11.410228713768163"><ele>234.0</ele><time>2026-04-11T10:31:17Z</time></trkpt><trkpt lat="42.98747947510026" lon="11.410208730611023"><ele>234.0</ele><time>2026-04-11T10:31:18Z</time></trkpt><trkpt lat="42.98738463878542" lon="11.410191947304355"><ele>234.39999999999998</ele><time>2026-04-11T10:31:19Z</time></trkpt><trkpt lat="42.98729498253526" lon="11.410173079783975"><ele>234.79999999999998</ele><time>2026-04-11T10:31:20Z</time></trkpt><trkpt lat="42.98720311925866" lon="11.410166073633098"><ele>235.20000000000002</ele><time>2026-04-11T10:31:21Z</time></trkpt><trkpt lat="42.987114777012884" lon="11.410134820438214"><ele>235.60000000000002</ele><time>2026-04-11T10:31:22Z</time></trkpt><trkpt lat="42.98702250901175" lon="11.410107382844112"><ele>236.0</ele><time>2026-04-11T10:31:23Z</time></trkpt><trkpt lat="42.986930465500706" lon="11.410087139308303"><ele>236.0</ele><time>2026-04-11T10:31:24Z</time></trkpt><trkpt lat="42.98684092888274" lon="11.410068857314684"><ele>236.00000000000003</ele><time>2026-04-11T10:31:25Z</time></trkpt><trkpt lat="42.986746743599205" lon="11.410060012763859"><ele>236.00000000000003</ele><time>2026-04-11T10:31:26Z</time></trkpt><trkpt lat="42.986657830282134" lon="11.410036975886813"><ele>236.0</ele><time>2026-04-11T10:31:27Z</time></trkpt><trkpt lat="42.986566600326086" lon="11.41001041052174"><ele>236.0</ele><time>2026-04-11T10:31:28Z</time></trkpt><trkpt lat="42.9864836940669" lon="11.409988376300669"><ele>235.20000000000002</ele><time>2026-04-11T10:31:29Z</time></trkpt><trkpt lat="42.98639572731408" lon="11.409962877670976"><ele>234.40000000000003</ele><time>2026-04-11T10:31:30Z</time></trkpt><trkpt lat="42.98622722870617" lon="11.409908839134818"><ele>233.6</ele><time>2026-04-11T10:31:32Z</time></trkpt><trkpt lat="42.986146199122025" lon="11.40988503705738"><ele>232.8</ele><time>2026-04-11T10:31:33Z</time></trkpt><trkpt lat="42.98606649828794" lon="11.409850110071705"><ele>232.0</ele><time>2026-04-11T10:31:34Z</time></trkpt><trkpt lat="42.985990740507745" lon="11.409806389355639"><ele>231.99999999999997</ele><time>2026-04-11T10:31:35Z</time></trkpt><trkpt lat="42.985916408347464" lon="11.409757128284477"><ele>232.0</ele><time>2026-04-11T10:31:36Z</time></trkpt><trkpt lat="42.98584126772278" lon="11.40971460937564"><ele>232.0</ele><time>2026-04-11T10:31:37Z</time></trkpt><trkpt lat="42.98576763637897" lon="11.409668928398066"><ele>232.0</ele><time>2026-04-11T10:31:38Z</time></trkpt><trkpt lat="42.985697274837584" lon="11.409626674574218"><ele>231.99999999999997</ele><time>2026-04-11T10:31:39Z</time></trkpt><trkpt lat="42.9856288149649" lon="11.409580660929473"><ele>232.0</ele><time>2026-04-11T10:31:40Z</time></trkpt><trkpt lat="42.985556317764775" lon="11.409542901045818"><ele>230.2</ele><time>2026-04-11T10:31:41Z</time></trkpt><trkpt lat="42.98547622910336" lon="11.409510715265794"><ele>228.39999999999998</ele><time>2026-04-11T10:31:42Z</time></trkpt><trkpt lat="42.98538407715666" lon="11.409482501433443"><ele>226.60000000000002</ele><time>2026-04-11T10:31:43Z</time></trkpt><trkpt lat="42.98528346944721" lon="11.409445510094141"><ele>224.8</ele><time>2026-04-11T10:31:44Z</time></trkpt><trkpt lat="42.985176098633666" lon="11.40941248927814"><ele>223.0</ele><time>2026-04-11T10:31:45Z</time></trkpt><trkpt lat="42.985069331799366" lon="11.409373814404326"><ele>222.5</ele><time>2026-04-11T10:31:46Z</time></trkpt><trkpt lat="42.98495463940815" lon="11.409337163164274"><ele>222.0</ele><time>2026-04-11T10:31:47Z</time></trkpt><trkpt lat="42.984837304337866" lon="11.40928652934779"><ele>221.5</ele><time>2026-04-11T10:31:48Z</time></trkpt><trkpt lat="42.98471083242415" lon="11.409227894280846"><ele>221.0</ele><time>2026-04-11T10:31:49Z</time></trkpt><trkpt lat="42.98458899925249" lon="11.409155746783906"><ele>221.0</ele><time>2026-04-11T10:31:50Z</time></trkpt><trkpt lat="42.984473362241786" lon="11.409065974585067"><ele>221.0</ele><time>2026-04-11T10:31:51Z</time></trkpt><trkpt lat="42.98424034408677" lon="11.40887800592447"><ele>221.0</ele><time>2026-04-11T10:31:53Z</time></trkpt><trkpt lat="42.98412977681428" lon="11.408785830931004"><ele>218.0</ele><time>2026-04-11T10:31:54Z</time></trkpt><trkpt lat="42.984020414565876" lon="11.408689287463291"><ele>215.0</ele><time>2026-04-11T10:31:55Z</time></trkpt><trkpt lat="42.98391671423812" lon="11.40860479642345"><ele>212.0</ele><time>2026-04-11T10:31:56Z</time></trkpt><trkpt lat="42.98380640361076" lon="11.408521806172812"><ele>209.0</ele><time>2026-04-11T10:31:57Z</time></trkpt><trkpt lat="42.983706149848864" lon="11.408435116641781"><ele>209.0</ele><time>2026-04-11T10:31:58Z</time></trkpt><trkpt lat="42.9836040332644" lon="11.408354322175976"><ele>209.0</ele><time>2026-04-11T10:31:59Z</time></trkpt><trkpt lat="42.98350086377873" lon="11.408266858953425"><ele>209.0</ele><time>2026-04-11T10:32:00Z</time></trkpt><trkpt lat="42.98340705791484" lon="11.408183086617894"><ele>209.0</ele><time>2026-04-11T10:32:01Z</time></trkpt><trkpt lat="42.983312147986766" lon="11.408101590239523"><ele>209.39999999999998</ele><time>2026-04-11T10:32:02Z</time></trkpt><trkpt lat="42.98321747710535" lon="11.408024738088372"><ele>209.8</ele><time>2026-04-11T10:32:03Z</time></trkpt><trkpt lat="42.98311817943541" lon="11.40795647459948"><ele>210.2</ele><time>2026-04-11T10:32:04Z</time></trkpt><trkpt lat="42.98302546028942" lon="11.407885044333083"><ele>210.60000000000002</ele><time>2026-04-11T10:32:05Z</time></trkpt><trkpt lat="42.98293301492169" lon="11.407810603150503"><ele>211.0</ele><time>2026-04-11T10:32:06Z</time></trkpt><trkpt lat="42.982844689551804" lon="11.407739534366613"><ele>210.0</ele><time>2026-04-11T10:32:07Z</time></trkpt><trkpt lat="42.982750478050924" lon="11.407659706078373"><ele>209.0</ele><time>2026-04-11T10:32:08Z</time></trkpt><trkpt lat="42.98265876317612" lon="11.40758593526608"><ele>208.0</ele><time>2026-04-11T10:32:09Z</time></trkpt><trkpt lat="42.98257439343723" lon="11.407526725481803"><ele>207.0</ele><time>2026-04-11T10:32:10Z</time></trkpt><trkpt lat="42.9824918619836" lon="11.40751410466623"><ele>206.0</ele><time>2026-04-11T10:32:11Z</time></trkpt><trkpt lat="42.98241310878433" lon="11.40756966179966"><ele>206.0</ele><time>2026-04-11T10:32:12Z</time></trkpt><trkpt lat="42.98232473706943" lon="11.407775687737063"><ele>206.0</ele><time>2026-04-11T10:32:14Z</time></trkpt><trkpt lat="42.982293846929686" lon="11.407896140651632"><ele>206.0</ele><time>2026-04-11T10:32:15Z</time></trkpt><trkpt lat="42.982258233674195" lon="11.408010268133228"><ele>206.0</ele><time>2026-04-11T10:32:16Z</time></trkpt><trkpt lat="42.9822189272186" lon="11.408118451796309"><ele>206.0</ele><time>2026-04-11T10:32:17Z</time></trkpt><trkpt lat="42.98217603879332" lon="11.408234864075975"><ele>206.66666666666669</ele><time>2026-04-11T10:32:18Z</time></trkpt><trkpt lat="42.98213389350442" lon="11.408343963429303"><ele>207.33333333333334</ele><time>2026-04-11T10:32:19Z</time></trkpt><trkpt lat="42.982093129309206" lon="11.408456423324914"><ele>208.0</ele><time>2026-04-11T10:32:20Z</time></trkpt><trkpt lat="42.98204598705984" lon="11.408559538056274"><ele>208.66666666666669</ele><time>2026-04-11T10:32:21Z</time></trkpt><trkpt lat="42.98198698700233" lon="11.408642548034626"><ele>209.33333333333334</ele><time>2026-04-11T10:32:22Z</time></trkpt><trkpt lat="42.981923147215745" lon="11.408712033071783"><ele>210.0</ele><time>2026-04-11T10:32:23Z</time></trkpt><trkpt lat="42.98185629275433" lon="11.408771434360157"><ele>210.28571428571428</ele><time>2026-04-11T10:32:24Z</time></trkpt><trkpt lat="42.98179073745671" lon="11.408829419633818"><ele>210.57142857142856</ele><time>2026-04-11T10:32:25Z</time></trkpt><trkpt lat="42.98172579150561" lon="11.408881318368941"><ele>210.85714285714286</ele><time>2026-04-11T10:32:26Z</time></trkpt><trkpt lat="42.98166054813419" lon="11.408925717459722"><ele>211.14285714285714</ele><time>2026-04-11T10:32:27Z</time></trkpt><trkpt lat="42.981596344400785" lon="11.408958470286665"><ele>211.42857142857142</ele><time>2026-04-11T10:32:28Z</time></trkpt><trkpt lat="42.981533249517796" lon="11.408983819921275"><ele>211.71428571428572</ele><time>2026-04-11T10:32:29Z</time></trkpt><trkpt lat="42.98146970374673" lon="11.408999443046826"><ele>212.0</ele><time>2026-04-11T10:32:30Z</time></trkpt><trkpt lat="42.981351762479434" lon="11.409024764558486"><ele>212.6</ele><time>2026-04-11T10:32:32Z</time></trkpt><trkpt lat="42.981280984008194" lon="11.4090184984773"><ele>213.2</ele><time>2026-04-11T10:32:33Z</time></trkpt><trkpt lat="42.98110460218073" lon="11.409070236215502"><ele>213.8</ele><time>2026-04-11T10:32:36Z</time></trkpt><trkpt lat="42.98098085709994" lon="11.409076637499938"><ele>214.4</ele><time>2026-04-11T10:32:38Z</time></trkpt><trkpt lat="42.98091421155726" lon="11.409089106939923"><ele>215.0</ele><time>2026-04-11T10:32:39Z</time></trkpt><trkpt lat="42.98083112113226" lon="11.409082908238037"><ele>215.33333333333334</ele><time>2026-04-11T10:32:40Z</time></trkpt><trkpt lat="42.980711384684724" lon="11.409138814854614"><ele>215.66666666666669</ele><time>2026-04-11T10:32:42Z</time></trkpt><trkpt lat="42.98064291703857" lon="11.409161586543878"><ele>216.0</ele><time>2026-04-11T10:32:43Z</time></trkpt><trkpt lat="42.98057337991944" lon="11.409204579210236"><ele>216.33333333333331</ele><time>2026-04-11T10:32:44Z</time></trkpt><trkpt lat="42.980504280025144" lon="11.409200440580186"><ele>216.66666666666666</ele><time>2026-04-11T10:32:45Z</time></trkpt><trkpt lat="42.98042889452295" lon="11.40921513413072"><ele>217.0</ele><time>2026-04-11T10:32:46Z</time></trkpt><trkpt lat="42.980352726187995" lon="11.409249330229217"><ele>217.0</ele><time>2026-04-11T10:32:47Z</time></trkpt><trkpt lat="42.980271996485364" lon="11.40928200131416"><ele>217.0</ele><time>2026-04-11T10:32:48Z</time></trkpt><trkpt lat="42.98018568444982" lon="11.409311680072163"><ele>217.0</ele><time>2026-04-11T10:32:49Z</time></trkpt><trkpt lat="42.98008612665639" lon="11.409334807288591"><ele>217.0</ele><time>2026-04-11T10:32:50Z</time></trkpt><trkpt lat="42.97997745522734" lon="11.409333938435935"><ele>217.0</ele><time>2026-04-11T10:32:51Z</time></trkpt><trkpt lat="42.97986448966179" lon="11.409318467101484"><ele>215.25</ele><time>2026-04-11T10:32:52Z</time></trkpt><trkpt lat="42.97975000249009" lon="11.409300512984277"><ele>213.5</ele><time>2026-04-11T10:32:53Z</time></trkpt><trkpt lat="42.97964512556397" lon="11.409275016347522"><ele>211.75</ele><time>2026-04-11T10:32:54Z</time></trkpt><trkpt lat="42.97945865453105" lon="11.40924248712982"><ele>210.0</ele><time>2026-04-11T10:32:56Z</time></trkpt><trkpt lat="42.97934512216477" lon="11.4092639653401"><ele>210.0</ele><time>2026-04-11T10:32:57Z</time></trkpt><trkpt lat="42.979226511112" lon="11.409292046572794"><ele>210.0</ele><time>2026-04-11T10:32:58Z</time></trkpt><trkpt lat="42.979115430233605" lon="11.409317874667506"><ele>210.0</ele><time>2026-04-11T10:32:59Z</time></trkpt><trkpt lat="42.97900187156356" lon="11.409364006018274"><ele>210.0</ele><time>2026-04-11T10:33:00Z</time></trkpt><trkpt lat="42.978891701310445" lon="11.409418809473195"><ele>207.5</ele><time>2026-04-11T10:33:01Z</time></trkpt><trkpt lat="42.97878667792682" lon="11.409460588522673"><ele>205.0</ele><time>2026-04-11T10:33:02Z</time></trkpt><trkpt lat="42.9786776539333" lon="11.409489489257627"><ele>202.5</ele><time>2026-04-11T10:33:03Z</time></trkpt><trkpt lat="42.978561987752954" lon="11.40948879659319"><ele>200.0</ele><time>2026-04-11T10:33:04Z</time></trkpt><trkpt lat="42.97844168595781" lon="11.409442648490495"><ele>197.75</ele><time>2026-04-11T10:33:05Z</time></trkpt><trkpt lat="42.97832442803751" lon="11.409379871312787"><ele>195.5</ele><time>2026-04-11T10:33:06Z</time></trkpt><trkpt lat="42.97820388787826" lon="11.409316184314756"><ele>193.25</ele><time>2026-04-11T10:33:07Z</time></trkpt><trkpt lat="42.9780876367242" lon="11.409253303312049"><ele>191.0</ele><time>2026-04-11T10:33:08Z</time></trkpt><trkpt lat="42.97796901003588" lon="11.409197017837704"><ele>191.0</ele><time>2026-04-11T10:33:09Z</time></trkpt><trkpt lat="42.97783343277717" lon="11.40914142395814"><ele>191.0</ele><time>2026-04-11T10:33:10Z</time></trkpt><trkpt lat="42.97770656099937" lon="11.409077424858754"><ele>191.0</ele><time>2026-04-11T10:33:11Z</time></trkpt><trkpt lat="42.977569798164104" lon="11.409035245889756"><ele>191.0</ele><time>2026-04-11T10:33:12Z</time></trkpt><trkpt lat="42.97744025240136" lon="11.408961993531499"><ele>188.66666666666666</ele><time>2026-04-11T10:33:13Z</time></trkpt><trkpt lat="42.97731914196215" lon="11.408893177519007"><ele>186.33333333333334</ele><time>2026-04-11T10:33:14Z</time></trkpt><trkpt lat="42.97720148715728" lon="11.408799487217896"><ele>184.0</ele><time>2026-04-11T10:33:15Z</time></trkpt><trkpt lat="42.976955144207345" lon="11.408651694075424"><ele>182.6</ele><time>2026-04-11T10:33:17Z</time></trkpt><trkpt lat="42.97684765488201" lon="11.408596545728113"><ele>181.2</ele><time>2026-04-11T10:33:18Z</time></trkpt><trkpt lat="42.97675169224704" lon="11.408542346561903"><ele>179.79999999999998</ele><time>2026-04-11T10:33:19Z</time></trkpt><trkpt lat="42.97664952995565" lon="11.408535194558526"><ele>178.39999999999998</ele><time>2026-04-11T10:33:20Z</time></trkpt><trkpt lat="42.976556574783395" lon="11.408546256001118"><ele>177.0</ele><time>2026-04-11T10:33:21Z</time></trkpt><trkpt lat="42.976471065727196" lon="11.40858426514134"><ele>176.6</ele><time>2026-04-11T10:33:22Z</time></trkpt><trkpt lat="42.97640559465239" lon="11.408684942573304"><ele>176.2</ele><time>2026-04-11T10:33:23Z</time></trkpt><trkpt lat="42.97636714051135" lon="11.40880102068911"><ele>175.8</ele><time>2026-04-11T10:33:24Z</time></trkpt><trkpt lat="42.976357689383654" lon="11.408928816301271"><ele>175.4</ele><time>2026-04-11T10:33:25Z</time></trkpt><trkpt lat="42.976357548776996" lon="11.409045220387828"><ele>175.0</ele><time>2026-04-11T10:33:26Z</time></trkpt><trkpt lat="42.976358811496446" lon="11.40915442120685"><ele>175.0</ele><time>2026-04-11T10:33:27Z</time></trkpt><trkpt lat="42.97634159775129" lon="11.409257753718894"><ele>175.0</ele><time>2026-04-11T10:33:28Z</time></trkpt><trkpt lat="42.97630677345987" lon="11.409364037990967"><ele>175.0</ele><time>2026-04-11T10:33:29Z</time></trkpt><trkpt lat="42.97627085476208" lon="11.40946732322141"><ele>175.0</ele><time>2026-04-11T10:33:30Z</time></trkpt><trkpt lat="42.97621871129755" lon="11.409555699975389"><ele>175.0</ele><time>2026-04-11T10:33:31Z</time></trkpt><trkpt lat="42.97616367295396" lon="11.409644869480594"><ele>175.0</ele><time>2026-04-11T10:33:32Z</time></trkpt><trkpt lat="42.97611882818233" lon="11.409732722557251"><ele>176.0</ele><time>2026-04-11T10:33:33Z</time></trkpt><trkpt lat="42.97606705108437" lon="11.409828620729662"><ele>177.0</ele><time>2026-04-11T10:33:34Z</time></trkpt><trkpt lat="42.975995656524574" lon="11.40990275330845"><ele>178.0</ele><time>2026-04-11T10:33:35Z</time></trkpt><trkpt lat="42.97590406551609" lon="11.409955478637537"><ele>179.0</ele><time>2026-04-11T10:33:36Z</time></trkpt><trkpt lat="42.97570588912054" lon="11.41005057110631"><ele>176.0</ele><time>2026-04-11T10:33:38Z</time></trkpt><trkpt lat="42.97560840260047" lon="11.410105777486956"><ele>173.0</ele><time>2026-04-11T10:33:39Z</time></trkpt><trkpt lat="42.975514600157375" lon="11.410164112895599"><ele>170.0</ele><time>2026-04-11T10:33:40Z</time></trkpt><trkpt lat="42.97542198625115" lon="11.410224595692"><ele>167.0</ele><time>2026-04-11T10:33:41Z</time></trkpt><trkpt lat="42.97533465120789" lon="11.410300723394231"><ele>164.0</ele><time>2026-04-11T10:33:42Z</time></trkpt><trkpt lat="42.97526987086393" lon="11.410424926261461"><ele>164.75</ele><time>2026-04-11T10:33:43Z</time></trkpt><trkpt lat="42.975229327428956" lon="11.410575432317305"><ele>165.5</ele><time>2026-04-11T10:33:44Z</time></trkpt><trkpt lat="42.97519469545814" lon="11.410733944364992"><ele>166.25</ele><time>2026-04-11T10:33:45Z</time></trkpt><trkpt lat="42.975144650347836" lon="11.410885542407538"><ele>167.0</ele><time>2026-04-11T10:33:46Z</time></trkpt><trkpt lat="42.97508023824198" lon="11.411032664496842"><ele>164.25</ele><time>2026-04-11T10:33:47Z</time></trkpt><trkpt lat="42.97498851161956" lon="11.411164283796255"><ele>161.5</ele><time>2026-04-11T10:33:48Z</time></trkpt><trkpt lat="42.974889398739805" lon="11.411271545849182"><ele>158.75</ele><time>2026-04-11T10:33:49Z</time></trkpt><trkpt lat="42.974791105539" lon="11.411377285700006"><ele>156.0</ele><time>2026-04-11T10:33:50Z</time></trkpt><trkpt lat="42.97469805058335" lon="11.411493416159738"><ele>156.0</ele><time>2026-04-11T10:33:51Z</time></trkpt><trkpt lat="42.974604319197965" lon="11.411613245170457"><ele>156.0</ele><time>2026-04-11T10:33:52Z</time></trkpt><trkpt lat="42.9745086214624" lon="11.411732073649487"><ele>156.0</ele><time>2026-04-11T10:33:53Z</time></trkpt><trkpt lat="42.974415223684595" lon="11.411855423177268"><ele>156.0</ele><time>2026-04-11T10:33:54Z</time></trkpt><trkpt lat="42.97431793393101" lon="11.41197685167377"><ele>156.0</ele><time>2026-04-11T10:33:55Z</time></trkpt><trkpt lat="42.97421442869793" lon="11.412098846216692"><ele>156.0</ele><time>2026-04-11T10:33:56Z</time></trkpt><trkpt lat="42.974114865781715" lon="11.412219820267937"><ele>156.0</ele><time>2026-04-11T10:33:57Z</time></trkpt><trkpt lat="42.97391000587984" lon="11.41245802651778"><ele>153.5</ele><time>2026-04-11T10:33:59Z</time></trkpt><trkpt lat="42.973807386978315" lon="11.412582902686669"><ele>151.0</ele><time>2026-04-11T10:34:00Z</time></trkpt><trkpt lat="42.973706533335694" lon="11.412707254464655"><ele>148.5</ele><time>2026-04-11T10:34:01Z</time></trkpt><trkpt lat="42.9736036469824" lon="11.412835704987673"><ele>146.0</ele><time>2026-04-11T10:34:02Z</time></trkpt><trkpt lat="42.97349859552423" lon="11.412971749320802"><ele>144.75</ele><time>2026-04-11T10:34:03Z</time></trkpt><trkpt lat="42.973392569097314" lon="11.41309865637582"><ele>143.5</ele><time>2026-04-11T10:34:04Z</time></trkpt><trkpt lat="42.97329087350441" lon="11.413234156713475"><ele>142.25</ele><time>2026-04-11T10:34:05Z</time></trkpt><trkpt lat="42.973184017910405" lon="11.413366649070083"><ele>141.0</ele><time>2026-04-11T10:34:06Z</time></trkpt><trkpt lat="42.973074081080604" lon="11.41350165137748"><ele>139.66666666666666</ele><time>2026-04-11T10:34:07Z</time></trkpt><trkpt lat="42.972964293729135" lon="11.413640012135396"><ele>138.33333333333331</ele><time>2026-04-11T10:34:08Z</time></trkpt><trkpt lat="42.972850944649736" lon="11.4137775305076"><ele>137.0</ele><time>2026-04-11T10:34:09Z</time></trkpt><trkpt lat="42.97273784171341" lon="11.413918582579893"><ele>135.0</ele><time>2026-04-11T10:34:10Z</time></trkpt><trkpt lat="42.97262671643633" lon="11.414062660917098"><ele>133.0</ele><time>2026-04-11T10:34:11Z</time></trkpt><trkpt lat="42.972533113751474" lon="11.414194790384864"><ele>131.0</ele><time>2026-04-11T10:34:12Z</time></trkpt><trkpt lat="42.972435958297346" lon="11.414325089311756"><ele>129.0</ele><time>2026-04-11T10:34:13Z</time></trkpt><trkpt lat="42.97234054219053" lon="11.4144541511787"><ele>129.0</ele><time>2026-04-11T10:34:14Z</time></trkpt><trkpt lat="42.97223787452292" lon="11.414581845527685"><ele>129.0</ele><time>2026-04-11T10:34:15Z</time></trkpt><trkpt lat="42.972128723349535" lon="11.414693167053802"><ele>129.0</ele><time>2026-04-11T10:34:16Z</time></trkpt><trkpt lat="42.97200920208576" lon="11.414794290380845"><ele>129.0</ele><time>2026-04-11T10:34:17Z</time></trkpt><trkpt lat="42.97188251753632" lon="11.414888420365946"><ele>126.33333333333334</ele><time>2026-04-11T10:34:18Z</time></trkpt><trkpt lat="42.97163065427199" lon="11.415069942020144"><ele>123.66666666666667</ele><time>2026-04-11T10:34:20Z</time></trkpt><trkpt lat="42.971504455160314" lon="11.415144818187887"><ele>121.0</ele><time>2026-04-11T10:34:21Z</time></trkpt><trkpt lat="42.97137909266761" lon="11.41521830165816"><ele>121.0</ele><time>2026-04-11T10:34:22Z</time></trkpt><trkpt lat="42.971256468276636" lon="11.415294771631604"><ele>121.0</ele><time>2026-04-11T10:34:23Z</time></trkpt><trkpt lat="42.971134337550325" lon="11.415368448527204"><ele>121.0</ele><time>2026-04-11T10:34:24Z</time></trkpt><trkpt lat="42.97101498049659" lon="11.415441814411572"><ele>121.0</ele><time>2026-04-11T10:34:25Z</time></trkpt><trkpt lat="42.970897637186035" lon="11.415510290849372"><ele>119.5</ele><time>2026-04-11T10:34:26Z</time></trkpt><trkpt lat="42.97078322503507" lon="11.415581823969648"><ele>118.0</ele><time>2026-04-11T10:34:27Z</time></trkpt><trkpt lat="42.97066858115547" lon="11.415648782904345"><ele>116.5</ele><time>2026-04-11T10:34:28Z</time></trkpt><trkpt lat="42.970551301867125" lon="11.415708387586196"><ele>115.0</ele><time>2026-04-11T10:34:29Z</time></trkpt><trkpt lat="42.97043678560602" lon="11.415774880631814"><ele>115.0</ele><time>2026-04-11T10:34:30Z</time></trkpt><trkpt lat="42.97032695493622" lon="11.415843902158597"><ele>115.0</ele><time>2026-04-11T10:34:31Z</time></trkpt><trkpt lat="42.97021782091006" lon="11.415907971647158"><ele>115.0</ele><time>2026-04-11T10:34:32Z</time></trkpt><trkpt lat="42.970114784657845" lon="11.415990131279644"><ele>115.0</ele><time>2026-04-11T10:34:33Z</time></trkpt><trkpt lat="42.9699983865534" lon="11.416032793224218"><ele>114.5</ele><time>2026-04-11T10:34:34Z</time></trkpt><trkpt lat="42.96988844733797" lon="11.416105263324063"><ele>114.0</ele><time>2026-04-11T10:34:35Z</time></trkpt><trkpt lat="42.96977810235665" lon="11.416171073961314"><ele>113.5</ele><time>2026-04-11T10:34:36Z</time></trkpt><trkpt lat="42.96966301208704" lon="11.416234418916027"><ele>113.0</ele><time>2026-04-11T10:34:37Z</time></trkpt><trkpt lat="42.96955122521516" lon="11.41628876422834"><ele>113.0</ele><time>2026-04-11T10:34:38Z</time></trkpt><trkpt lat="42.96944172160088" lon="11.416344629327561"><ele>113.0</ele><time>2026-04-11T10:34:39Z</time></trkpt><trkpt lat="42.969230172278095" lon="11.416455740551338"><ele>113.0</ele><time>2026-04-11T10:34:41Z</time></trkpt><trkpt lat="42.96913583818791" lon="11.416522517881933"><ele>112.66666666666666</ele><time>2026-04-11T10:34:42Z</time></trkpt><trkpt lat="42.969057933537144" lon="11.416589140808417"><ele>112.33333333333333</ele><time>2026-04-11T10:34:43Z</time></trkpt><trkpt lat="42.96898315605098" lon="11.416657038632222"><ele>112.0</ele><time>2026-04-11T10:34:44Z</time></trkpt><trkpt lat="42.96891463120292" lon="11.416730218417676"><ele>111.66666666666666</ele><time>2026-04-11T10:34:45Z</time></trkpt><trkpt lat="42.96885026867065" lon="11.416808744316645"><ele>111.33333333333333</ele><time>2026-04-11T10:34:46Z</time></trkpt><trkpt lat="42.96879540188891" lon="11.41690146094411"><ele>111.0</ele><time>2026-04-11T10:34:47Z</time></trkpt><trkpt lat="42.96876081574006" lon="11.417007546566966"><ele>111.0</ele><time>2026-04-11T10:34:48Z</time></trkpt><trkpt lat="42.96875530546996" lon="11.41712849327677"><ele>111.0</ele><time>2026-04-11T10:34:49Z</time></trkpt><trkpt lat="42.96876984521047" lon="11.41724894546308"><ele>111.0</ele><time>2026-04-11T10:34:50Z</time></trkpt><trkpt lat="42.96879240300674" lon="11.417358921432221"><ele>111.0</ele><time>2026-04-11T10:34:51Z</time></trkpt><trkpt lat="42.96881329079297" lon="11.417451294596402"><ele>111.0</ele><time>2026-04-11T10:34:52Z</time></trkpt><trkpt lat="42.96885468182348" lon="11.417591872472274"><ele>111.0</ele><time>2026-04-11T10:34:54Z</time></trkpt><trkpt lat="42.96889036908485" lon="11.417675218376276"><ele>111.33333333333333</ele><time>2026-04-11T10:34:56Z</time></trkpt><trkpt lat="42.968928372348884" lon="11.41776191901242"><ele>111.66666666666666</ele><time>2026-04-11T10:35:00Z</time></trkpt><trkpt lat="42.96897590782889" lon="11.417938537904934"><ele>112.0</ele><time>2026-04-11T10:35:08Z</time></trkpt><trkpt lat="42.96896365680696" lon="11.418037292815168"><ele>112.33333333333333</ele><time>2026-04-11T10:35:12Z</time></trkpt><trkpt lat="42.96894981829698" lon="11.418128166243143"><ele>112.66666666666666</ele><time>2026-04-11T10:35:16Z</time></trkpt><trkpt lat="42.96891588293705" lon="11.418205228478548"><ele>113.0</ele><time>2026-04-11T10:35:20Z</time></trkpt><trkpt lat="42.968867855779955" lon="11.418280307877309"><ele>115.80000000000001</ele><time>2026-04-11T10:35:24Z</time></trkpt><trkpt lat="42.96876401326607" lon="11.41840760994877"><ele>118.60000000000001</ele><time>2026-04-11T10:35:32Z</time></trkpt><trkpt lat="42.96871113800309" lon="11.41846283948279"><ele>121.39999999999999</ele><time>2026-04-11T10:35:36Z</time></trkpt><trkpt lat="42.96865282704723" lon="11.41853004042113"><ele>124.19999999999999</ele><time>2026-04-11T10:35:41Z</time></trkpt><trkpt lat="42.96859437868051" lon="11.418595210917983"><ele>127.0</ele><time>2026-04-11T10:35:46Z</time></trkpt><trkpt lat="42.968486486603716" lon="11.418750815954896"><ele>128.79999999999998</ele><time>2026-04-11T10:35:56Z</time></trkpt><trkpt lat="42.96843041110119" lon="11.418836913639941"><ele>130.6</ele><time>2026-04-11T10:36:01Z</time></trkpt><trkpt lat="42.96840858967898" lon="11.41892041431208"><ele>132.39999999999998</ele><time>2026-04-11T10:36:05Z</time></trkpt><trkpt lat="42.9683897417033" lon="11.419023011490374"><ele>134.2</ele><time>2026-04-11T10:36:11Z</time></trkpt><trkpt lat="42.968351281006164" lon="11.419232233794046"><ele>136.0</ele><time>2026-04-11T10:36:20Z</time></trkpt><trkpt lat="42.96832928784447" lon="11.4193164904897"><ele>136.0</ele><time>2026-04-11T10:36:24Z</time></trkpt><trkpt lat="42.968310599711224" lon="11.419407478953246"><ele>136.0</ele><time>2026-04-11T10:36:28Z</time></trkpt><trkpt lat="42.96830667477615" lon="11.41951654916683"><ele>136.0</ele><time>2026-04-11T10:36:32Z</time></trkpt><trkpt lat="42.96832631647978" lon="11.419723471924296"><ele>136.0</ele><time>2026-04-11T10:36:38Z</time></trkpt><trkpt lat="42.96833792117096" lon="11.419817602508518"><ele>136.0</ele><time>2026-04-11T10:36:40Z</time></trkpt><trkpt lat="42.96835478027652" lon="11.419934203320718"><ele>136.5</ele><time>2026-04-11T10:36:41Z</time></trkpt><trkpt lat="42.96837525195572" lon="11.420077056449403"><ele>137.0</ele><time>2026-04-11T10:36:43Z</time></trkpt><trkpt lat="42.968408423540524" lon="11.420318673157938"><ele>137.5</ele><time>2026-04-11T10:36:44Z</time></trkpt><trkpt lat="42.96843063296827" lon="11.42043403770393"><ele>138.0</ele><time>2026-04-11T10:36:45Z</time></trkpt><trkpt lat="42.968458727319046" lon="11.420542829707502"><ele>138.0</ele><time>2026-04-11T10:36:46Z</time></trkpt><trkpt lat="42.9684932966107" lon="11.420660737356563"><ele>138.0</ele><time>2026-04-11T10:36:47Z</time></trkpt><trkpt lat="42.968525912513186" lon="11.420792771759304"><ele>138.0</ele><time>2026-04-11T10:36:48Z</time></trkpt><trkpt lat="42.96854293817759" lon="11.420932339079588"><ele>138.0</ele><time>2026-04-11T10:36:49Z</time></trkpt><trkpt lat="42.96857591183307" lon="11.421053497382239"><ele>138.0</ele><time>2026-04-11T10:36:50Z</time></trkpt><trkpt lat="42.96860578226544" lon="11.421174472722177"><ele>138.0</ele><time>2026-04-11T10:36:51Z</time></trkpt><trkpt lat="42.96863082027316" lon="11.421298267260433"><ele>138.0</ele><time>2026-04-11T10:36:52Z</time></trkpt><trkpt lat="42.9686544380789" lon="11.421416951591723"><ele>138.0</ele><time>2026-04-11T10:36:53Z</time></trkpt><trkpt lat="42.968699324534946" lon="11.421651028969826"><ele>138.0</ele><time>2026-04-11T10:36:55Z</time></trkpt><trkpt lat="42.9687316985953" lon="11.421762423228143"><ele>138.0</ele><time>2026-04-11T10:36:56Z</time></trkpt><trkpt lat="42.96875915821386" lon="11.421869972386549"><ele>138.33333333333334</ele><time>2026-04-11T10:36:57Z</time></trkpt><trkpt lat="42.968782213436455" lon="11.421985638381878"><ele>138.66666666666666</ele><time>2026-04-11T10:36:58Z</time></trkpt><trkpt lat="42.9688034218977" lon="11.422100549235301"><ele>139.0</ele><time>2026-04-11T10:36:59Z</time></trkpt><trkpt lat="42.96882789118176" lon="11.422216255384738"><ele>139.33333333333331</ele><time>2026-04-11T10:37:00Z</time></trkpt><trkpt lat="42.96884915223442" lon="11.422332736580119"><ele>139.66666666666666</ele><time>2026-04-11T10:37:01Z</time></trkpt><trkpt lat="42.968864390847486" lon="11.422444691126383"><ele>140.0</ele><time>2026-04-11T10:37:02Z</time></trkpt><trkpt lat="42.96885093635772" lon="11.422558759518614"><ele>140.0</ele><time>2026-04-11T10:37:03Z</time></trkpt><trkpt lat="42.968849970055516" lon="11.422663627446717"><ele>140.0</ele><time>2026-04-11T10:37:04Z</time></trkpt><trkpt lat="42.968861613113795" lon="11.422789317173725"><ele>140.0</ele><time>2026-04-11T10:37:05Z</time></trkpt><trkpt lat="42.96885913168058" lon="11.422890523936688"><ele>140.0</ele><time>2026-04-11T10:37:06Z</time></trkpt><trkpt lat="42.96885310698227" lon="11.422989507575398"><ele>140.0</ele><time>2026-04-11T10:37:07Z</time></trkpt><trkpt lat="42.96884036480294" lon="11.4230851542621"><ele>140.0</ele><time>2026-04-11T10:37:08Z</time></trkpt><trkpt lat="42.96882683178431" lon="11.423169818356412"><ele>140.33333333333331</ele><time>2026-04-11T10:37:09Z</time></trkpt><trkpt lat="42.968811414024636" lon="11.42325563278981"><ele>140.66666666666666</ele><time>2026-04-11T10:37:10Z</time></trkpt><trkpt lat="42.96879690167143" lon="11.423412437253885"><ele>141.0</ele><time>2026-04-11T10:37:12Z</time></trkpt><trkpt lat="42.968787705420624" lon="11.423499317319193"><ele>141.33333333333334</ele><time>2026-04-11T10:37:13Z</time></trkpt><trkpt lat="42.96878664378566" lon="11.423587278726627"><ele>141.66666666666669</ele><time>2026-04-11T10:37:14Z</time></trkpt><trkpt lat="42.96875981623131" lon="11.423766266117498"><ele>142.0</ele><time>2026-04-11T10:37:16Z</time></trkpt><trkpt lat="42.96873622794377" lon="11.423854219331693"><ele>142.14285714285714</ele><time>2026-04-11T10:37:17Z</time></trkpt><trkpt lat="42.9687228117444" lon="11.42395040689685"><ele>142.28571428571428</ele><time>2026-04-11T10:37:18Z</time></trkpt><trkpt lat="42.968711915060666" lon="11.42404336007921"><ele>142.42857142857142</ele><time>2026-04-11T10:37:19Z</time></trkpt><trkpt lat="42.96869141228247" lon="11.424131101211536"><ele>142.57142857142856</ele><time>2026-04-11T10:37:20Z</time></trkpt><trkpt lat="42.96865674087829" lon="11.424219508289763"><ele>142.71428571428572</ele><time>2026-04-11T10:37:21Z</time></trkpt><trkpt lat="42.96862987355182" lon="11.424306402841763"><ele>142.85714285714283</ele><time>2026-04-11T10:37:22Z</time></trkpt><trkpt lat="42.96859783810033" lon="11.424391573229904"><ele>143.0</ele><time>2026-04-11T10:37:23Z</time></trkpt><trkpt lat="42.96855420228329" lon="11.424469908072384"><ele>143.0</ele><time>2026-04-11T10:37:24Z</time></trkpt><trkpt lat="42.96853447135613" lon="11.424554629843545"><ele>143.0</ele><time>2026-04-11T10:37:25Z</time></trkpt><trkpt lat="42.9685041798963" lon="11.424642162293038"><ele>143.0</ele><time>2026-04-11T10:37:26Z</time></trkpt><trkpt lat="42.96846008851876" lon="11.424727701590706"><ele>143.0</ele><time>2026-04-11T10:37:27Z</time></trkpt><trkpt lat="42.96841810082112" lon="11.424824457887818"><ele>143.0</ele><time>2026-04-11T10:37:28Z</time></trkpt><trkpt lat="42.96839736146836" lon="11.42492100252224"><ele>143.0</ele><time>2026-04-11T10:37:29Z</time></trkpt><trkpt lat="42.9683605958896" lon="11.425024899064901"><ele>140.66666666666666</ele><time>2026-04-11T10:37:30Z</time></trkpt><trkpt lat="42.96831164345853" lon="11.425129065826715"><ele>138.33333333333331</ele><time>2026-04-11T10:37:31Z</time></trkpt><trkpt lat="42.96826846427851" lon="11.425232272788922"><ele>136.0</ele><time>2026-04-11T10:37:32Z</time></trkpt><trkpt lat="42.968236118642494" lon="11.425339865479991"><ele>133.66666666666666</ele><time>2026-04-11T10:37:33Z</time></trkpt><trkpt lat="42.96820225420706" lon="11.425440166291807"><ele>131.33333333333334</ele><time>2026-04-11T10:37:34Z</time></trkpt><trkpt lat="42.9681621307495" lon="11.425546135555546"><ele>129.0</ele><time>2026-04-11T10:37:35Z</time></trkpt><trkpt lat="42.968091499803315" lon="11.425773599997894"><ele>128.6</ele><time>2026-04-11T10:37:37Z</time></trkpt><trkpt lat="42.968055401071716" lon="11.425899923963726"><ele>128.2</ele><time>2026-04-11T10:37:38Z</time></trkpt><trkpt lat="42.96801439870462" lon="11.426032500132957"><ele>127.79999999999998</ele><time>2026-04-11T10:37:39Z</time></trkpt><trkpt lat="42.96797024426311" lon="11.426176343826269"><ele>127.39999999999999</ele><time>2026-04-11T10:37:40Z</time></trkpt><trkpt lat="42.96792889480607" lon="11.426312326509455"><ele>127.0</ele><time>2026-04-11T10:37:41Z</time></trkpt><trkpt lat="42.96786109630973" lon="11.426436610008984"><ele>128.6</ele><time>2026-04-11T10:37:42Z</time></trkpt><trkpt lat="42.96777405647564" lon="11.426554192601898"><ele>130.2</ele><time>2026-04-11T10:37:43Z</time></trkpt><trkpt lat="42.96769394625507" lon="11.426650515650225"><ele>131.8</ele><time>2026-04-11T10:37:44Z</time></trkpt><trkpt lat="42.967625727608336" lon="11.426723441351076"><ele>133.4</ele><time>2026-04-11T10:37:45Z</time></trkpt><trkpt lat="42.96757460216144" lon="11.426773648389172"><ele>135.0</ele><time>2026-04-11T10:37:46Z</time></trkpt><trkpt lat="42.96751733692519" lon="11.426862249998505"><ele>136.0</ele><time>2026-04-11T10:37:48Z</time></trkpt><trkpt lat="42.96751477047291" lon="11.426977002135908"><ele>137.0</ele><time>2026-04-11T10:37:50Z</time></trkpt><trkpt lat="42.96751716888926" lon="11.427074780225457"><ele>138.0</ele><time>2026-04-11T10:37:52Z</time></trkpt><trkpt lat="42.96754775387786" lon="11.42715596836553"><ele>139.0</ele><time>2026-04-11T10:37:54Z</time></trkpt><trkpt lat="42.9675663866949" lon="11.427270868952172"><ele>140.0</ele><time>2026-04-11T10:37:57Z</time></trkpt><trkpt lat="42.96761354170008" lon="11.427452494361853"><ele>140.0</ele><time>2026-04-11T10:38:03Z</time></trkpt><trkpt lat="42.96763636004769" lon="11.427542642244035"><ele>140.0</ele><time>2026-04-11T10:38:06Z</time></trkpt><trkpt lat="42.96762379371748" lon="11.427643919661438"><ele>140.0</ele><time>2026-04-11T10:38:09Z</time></trkpt><trkpt lat="42.967641840694846" lon="11.427751303989082"><ele>140.0</ele><time>2026-04-11T10:38:13Z</time></trkpt><trkpt lat="42.96766090594602" lon="11.427840780395183"><ele>140.0</ele><time>2026-04-11T10:38:16Z</time></trkpt><trkpt lat="42.9676679779022" lon="11.427933462028122"><ele>140.0</ele><time>2026-04-11T10:38:19Z</time></trkpt><trkpt lat="42.96768049132199" lon="11.427747731194962"><ele>140.0</ele><time>2026-04-11T10:38:28Z</time></trkpt><trkpt lat="42.967661498204045" lon="11.4276180127551"><ele>140.0</ele><time>2026-04-11T10:38:30Z</time></trkpt><trkpt lat="42.96763116145809" lon="11.42745014951264"><ele>140.0</ele><time>2026-04-11T10:38:32Z</time></trkpt><trkpt lat="42.96761359091263" lon="11.427365257777788"><ele>140.0</ele><time>2026-04-11T10:38:33Z</time></trkpt><trkpt lat="42.967595719695936" lon="11.427264687271418"><ele>140.0</ele><time>2026-04-11T10:38:34Z</time></trkpt><trkpt lat="42.96757304577826" lon="11.427166444786764"><ele>140.0</ele><time>2026-04-11T10:38:35Z</time></trkpt><trkpt lat="42.96754127845539" lon="11.427080217160027"><ele>136.6</ele><time>2026-04-11T10:38:36Z</time></trkpt><trkpt lat="42.96747662894435" lon="11.426958536528108"><ele>133.2</ele><time>2026-04-11T10:38:38Z</time></trkpt><trkpt lat="42.96740686030991" lon="11.426992616391725"><ele>129.8</ele><time>2026-04-11T10:38:40Z</time></trkpt><trkpt lat="42.967314810798996" lon="11.42716619637245"><ele>126.4</ele><time>2026-04-11T10:38:42Z</time></trkpt><trkpt lat="42.967265452519655" lon="11.427251137466651"><ele>123.0</ele><time>2026-04-11T10:38:43Z</time></trkpt><trkpt lat="42.967208692487425" lon="11.427336511297149"><ele>123.0</ele><time>2026-04-11T10:38:44Z</time></trkpt><trkpt lat="42.96715328737222" lon="11.42743065863939"><ele>123.00000000000001</ele><time>2026-04-11T10:38:45Z</time></trkpt><trkpt lat="42.967097248508026" lon="11.427531715506502"><ele>123.00000000000001</ele><time>2026-04-11T10:38:46Z</time></trkpt><trkpt lat="42.96702977072816" lon="11.427636966244624"><ele>123.0</ele><time>2026-04-11T10:38:47Z</time></trkpt><trkpt lat="42.966967626910154" lon="11.427744415368647"><ele>123.0</ele><time>2026-04-11T10:38:48Z</time></trkpt><trkpt lat="42.96690811610934" lon="11.427854207959916"><ele>123.0</ele><time>2026-04-11T10:38:49Z</time></trkpt><trkpt lat="42.966837752265164" lon="11.42795655030926"><ele>123.00000000000001</ele><time>2026-04-11T10:38:50Z</time></trkpt><trkpt lat="42.966777885126" lon="11.428062914064515"><ele>123.00000000000001</ele><time>2026-04-11T10:38:51Z</time></trkpt><trkpt lat="42.966720462104604" lon="11.428154246382025"><ele>123.0</ele><time>2026-04-11T10:38:52Z</time></trkpt><trkpt lat="42.96667184024931" lon="11.42822109780946"><ele>123.0</ele><time>2026-04-11T10:38:53Z</time></trkpt><trkpt lat="42.966588847244786" lon="11.428339918149195"><ele>121.66666666666667</ele><time>2026-04-11T10:38:55Z</time></trkpt><trkpt lat="42.966561474153266" lon="11.42842324136727"><ele>120.33333333333334</ele><time>2026-04-11T10:38:56Z</time></trkpt><trkpt lat="42.96653667998222" lon="11.428515285507006"><ele>119.0</ele><time>2026-04-11T10:38:57Z</time></trkpt><trkpt lat="42.96651176498001" lon="11.428611780944454"><ele>117.66666666666667</ele><time>2026-04-11T10:38:58Z</time></trkpt><trkpt lat="42.96649241437231" lon="11.42870760857279"><ele>116.33333333333334</ele><time>2026-04-11T10:38:59Z</time></trkpt><trkpt lat="42.966472845115014" lon="11.428795327479952"><ele>115.0</ele><time>2026-04-11T10:39:00Z</time></trkpt><trkpt lat="42.966446954065766" lon="11.428960848670565"><ele>115.0</ele><time>2026-04-11T10:39:02Z</time></trkpt><trkpt lat="42.96638757106725" lon="11.429214937060625"><ele>115.0</ele><time>2026-04-11T10:39:06Z</time></trkpt><trkpt lat="42.96638381376649" lon="11.429325394571984"><ele>115.0</ele><time>2026-04-11T10:39:08Z</time></trkpt><trkpt lat="42.96637679099526" lon="11.429432629888005"><ele>115.0</ele><time>2026-04-11T10:39:10Z</time></trkpt><trkpt lat="42.96637156444432" lon="11.429540009621816"><ele>115.0</ele><time>2026-04-11T10:39:12Z</time></trkpt><trkpt lat="42.96636457960874" lon="11.429657098542181"><ele>114.8</ele><time>2026-04-11T10:39:14Z</time></trkpt><trkpt lat="42.96638366819096" lon="11.429772905351165"><ele>114.6</ele><time>2026-04-11T10:39:16Z</time></trkpt><trkpt lat="42.96638290022391" lon="11.429888405794806"><ele>114.4</ele><time>2026-04-11T10:39:18Z</time></trkpt><trkpt lat="42.96639033106542" lon="11.43001165983585"><ele>114.2</ele><time>2026-04-11T10:39:20Z</time></trkpt><trkpt lat="42.96641306169519" lon="11.430093302053198"><ele>114.0</ele><time>2026-04-11T10:39:23Z</time></trkpt><trkpt lat="42.966432745155686" lon="11.430319012510383"><ele>114.0</ele><time>2026-04-11T10:39:27Z</time></trkpt><trkpt lat="42.96644109033228" lon="11.430423671235287"><ele>114.0</ele><time>2026-04-11T10:39:29Z</time></trkpt><trkpt lat="42.96647672697657" lon="11.43052694527156"><ele>114.0</ele><time>2026-04-11T10:39:32Z</time></trkpt><trkpt lat="42.96647890161525" lon="11.430648990875584"><ele>114.0</ele><time>2026-04-11T10:39:35Z</time></trkpt><trkpt lat="42.96649688577571" lon="11.430747879938302"><ele>114.0</ele><time>2026-04-11T10:39:37Z</time></trkpt><trkpt lat="42.96650440887792" lon="11.430847563040365"><ele>114.0</ele><time>2026-04-11T10:39:38Z</time></trkpt><trkpt lat="42.96653919421436" lon="11.430955712313818"><ele>114.0</ele><time>2026-04-11T10:39:40Z</time></trkpt><trkpt lat="42.96655314608045" lon="11.431089929955036"><ele>114.0</ele><time>2026-04-11T10:39:42Z</time></trkpt><trkpt lat="42.96657491592404" lon="11.431181493290882"><ele>114.0</ele><time>2026-04-11T10:39:43Z</time></trkpt><trkpt lat="42.966595901653676" lon="11.431331848520966"><ele>114.0</ele><time>2026-04-11T10:39:45Z</time></trkpt><trkpt lat="42.96663121918" lon="11.431649232582043"><ele>113.6</ele><time>2026-04-11T10:39:49Z</time></trkpt><trkpt lat="42.9666247669833" lon="11.431734868902359"><ele>113.2</ele><time>2026-04-11T10:39:50Z</time></trkpt><trkpt lat="42.96661399564375" lon="11.431896843690714"><ele>112.79999999999998</ele><time>2026-04-11T10:39:52Z</time></trkpt><trkpt lat="42.96659096048395" lon="11.432061693761442"><ele>112.39999999999999</ele><time>2026-04-11T10:39:54Z</time></trkpt><trkpt lat="42.966581919578026" lon="11.432147106575433"><ele>112.0</ele><time>2026-04-11T10:39:55Z</time></trkpt><trkpt lat="42.96656642835421" lon="11.432314223402905"><ele>112.0</ele><time>2026-04-11T10:39:57Z</time></trkpt><trkpt lat="42.966556784480254" lon="11.432486515677937"><ele>111.99999999999999</ele><time>2026-04-11T10:39:59Z</time></trkpt><trkpt lat="42.96654755966832" lon="11.4325738020697"><ele>111.99999999999999</ele><time>2026-04-11T10:40:00Z</time></trkpt><trkpt lat="42.96652762063601" lon="11.43273838475334"><ele>112.0</ele><time>2026-04-11T10:40:02Z</time></trkpt><trkpt lat="42.96651630496821" lon="11.43290372562604"><ele>112.0</ele><time>2026-04-11T10:40:04Z</time></trkpt><trkpt lat="42.96650006750464" lon="11.433062549899269"><ele>112.25</ele><time>2026-04-11T10:40:06Z</time></trkpt><trkpt lat="42.966461283021474" lon="11.43333858833158"><ele>112.5</ele><time>2026-04-11T10:40:10Z</time></trkpt><trkpt lat="42.96645510756621" lon="11.433466404989769"><ele>112.75</ele><time>2026-04-11T10:40:12Z</time></trkpt><trkpt lat="42.96644867573713" lon="11.4335868645984"><ele>113.0</ele><time>2026-04-11T10:40:14Z</time></trkpt><trkpt lat="42.96643270535454" lon="11.433688494081258"><ele>113.0</ele><time>2026-04-11T10:40:16Z</time></trkpt><trkpt lat="42.96642412464205" lon="11.43379078620328"><ele>113.0</ele><time>2026-04-11T10:40:18Z</time></trkpt><trkpt lat="42.96642266880486" lon="11.43389043401829"><ele>113.0</ele><time>2026-04-11T10:40:20Z</time></trkpt><trkpt lat="42.96641096938872" lon="11.433978380140864"><ele>113.0</ele><time>2026-04-11T10:40:22Z</time></trkpt><trkpt lat="42.96640844080668" lon="11.434066977146731"><ele>113.0</ele><time>2026-04-11T10:40:24Z</time></trkpt><trkpt lat="42.966415346374255" lon="11.434153617110109"><ele>113.0</ele><time>2026-04-11T10:40:26Z</time></trkpt><trkpt lat="42.96642728997676" lon="11.43427341012801"><ele>113.0</ele><time>2026-04-11T10:40:30Z</time></trkpt><trkpt lat="42.96648997399348" lon="11.434490282919633"><ele>113.49999999999999</ele><time>2026-04-11T10:40:35Z</time></trkpt><trkpt lat="42.96653431674914" lon="11.4345681001633"><ele>114.0</ele><time>2026-04-11T10:40:37Z</time></trkpt><trkpt lat="42.96658806534071" lon="11.434633370865695"><ele>114.5</ele><time>2026-04-11T10:40:39Z</time></trkpt><trkpt lat="42.96663897390799" lon="11.43470493261124"><ele>115.0</ele><time>2026-04-11T10:40:41Z</time></trkpt><trkpt lat="42.966709173112896" lon="11.43477983437784"><ele>115.49999999999999</ele><time>2026-04-11T10:40:43Z</time></trkpt><trkpt lat="42.96679099538034" lon="11.43486011244598"><ele>116.0</ele><time>2026-04-11T10:40:45Z</time></trkpt><trkpt lat="42.9668769611026" lon="11.43495145275667"><ele>117.0</ele><time>2026-04-11T10:40:47Z</time></trkpt><trkpt lat="42.966957571956335" lon="11.435056434799566"><ele>118.0</ele><time>2026-04-11T10:40:49Z</time></trkpt><trkpt lat="42.96701634996174" lon="11.435183348227234"><ele>119.0</ele><time>2026-04-11T10:40:51Z</time></trkpt><trkpt lat="42.96709906052835" lon="11.43544135345102"><ele>120.0</ele><time>2026-04-11T10:40:55Z</time></trkpt><trkpt lat="42.96712413079417" lon="11.435575652488113"><ele>120.0</ele><time>2026-04-11T10:40:57Z</time></trkpt><trkpt lat="42.96718769740828" lon="11.435695217530716"><ele>120.0</ele><time>2026-04-11T10:40:59Z</time></trkpt><trkpt lat="42.96725615153827" lon="11.43581052909026"><ele>120.0</ele><time>2026-04-11T10:41:01Z</time></trkpt><trkpt lat="42.96731518595954" lon="11.435875478076646"><ele>120.0</ele><time>2026-04-11T10:41:02Z</time></trkpt><trkpt lat="42.96735478213838" lon="11.435947168319755"><ele>120.0</ele><time>2026-04-11T10:41:03Z</time></trkpt><trkpt lat="42.967388160426104" lon="11.436022837191803"><ele>120.0</ele><time>2026-04-11T10:41:04Z</time></trkpt><trkpt lat="42.96746412164446" lon="11.436154398134212"><ele>119.6</ele><time>2026-04-11T10:41:06Z</time></trkpt><trkpt lat="42.96745503673736" lon="11.436319888704697"><ele>119.2</ele><time>2026-04-11T10:41:08Z</time></trkpt><trkpt lat="42.96746538010191" lon="11.436423376799835"><ele>118.80000000000001</ele><time>2026-04-11T10:41:09Z</time></trkpt><trkpt lat="42.96747366062633" lon="11.436513052124685"><ele>118.4</ele><time>2026-04-11T10:41:10Z</time></trkpt><trkpt lat="42.967487471635984" lon="11.436597514423493"><ele>118.0</ele><time>2026-04-11T10:41:11Z</time></trkpt><trkpt lat="42.967511616145586" lon="11.436765030163922"><ele>121.00000000000001</ele><time>2026-04-11T10:41:13Z</time></trkpt><trkpt lat="42.96754508241528" lon="11.436942631949627"><ele>124.0</ele><time>2026-04-11T10:41:15Z</time></trkpt><trkpt lat="42.96756701776811" lon="11.437027793611422"><ele>127.0</ele><time>2026-04-11T10:41:16Z</time></trkpt><trkpt lat="42.96758199219942" lon="11.437113973822095"><ele>130.0</ele><time>2026-04-11T10:41:17Z</time></trkpt><trkpt lat="42.96759109821082" lon="11.437205609753937"><ele>133.0</ele><time>2026-04-11T10:41:18Z</time></trkpt><trkpt lat="42.967593110795775" lon="11.43729817237022"><ele>136.0</ele><time>2026-04-11T10:41:19Z</time></trkpt><trkpt lat="42.96758659078361" lon="11.437390151155457"><ele>136.66666666666669</ele><time>2026-04-11T10:41:20Z</time></trkpt><trkpt lat="42.9675787688115" lon="11.437478979376879"><ele>137.33333333333334</ele><time>2026-04-11T10:41:21Z</time></trkpt><trkpt lat="42.96756174235685" lon="11.437576709795556"><ele>138.0</ele><time>2026-04-11T10:41:22Z</time></trkpt><trkpt lat="42.967532089987785" lon="11.43773991748825"><ele>138.66666666666666</ele><time>2026-04-11T10:41:24Z</time></trkpt><trkpt lat="42.96751023891407" lon="11.437897878687897"><ele>139.33333333333331</ele><time>2026-04-11T10:41:26Z</time></trkpt><trkpt lat="42.967502228893935" lon="11.437988426530389"><ele>140.0</ele><time>2026-04-11T10:41:27Z</time></trkpt><trkpt lat="42.96748736686325" lon="11.4380752250375"><ele>135.6</ele><time>2026-04-11T10:41:28Z</time></trkpt><trkpt lat="42.967482978676756" lon="11.438234756289608"><ele>131.2</ele><time>2026-04-11T10:41:30Z</time></trkpt><trkpt lat="42.96748970705935" lon="11.438322019917708"><ele>126.80000000000001</ele><time>2026-04-11T10:41:31Z</time></trkpt><trkpt lat="42.967488254542026" lon="11.43841357479695"><ele>122.4</ele><time>2026-04-11T10:41:32Z</time></trkpt><trkpt lat="42.96749044173209" lon="11.43858138570477"><ele>118.0</ele><time>2026-04-11T10:41:34Z</time></trkpt><trkpt lat="42.96748462468993" lon="11.438772376938365"><ele>118.28571428571428</ele><time>2026-04-11T10:41:36Z</time></trkpt><trkpt lat="42.96749057823232" lon="11.43886341671003"><ele>118.57142857142858</ele><time>2026-04-11T10:41:37Z</time></trkpt><trkpt lat="42.967489668216615" lon="11.438958639348046"><ele>118.85714285714286</ele><time>2026-04-11T10:41:38Z</time></trkpt><trkpt lat="42.96749771303871" lon="11.439047591776834"><ele>119.14285714285714</ele><time>2026-04-11T10:41:39Z</time></trkpt><trkpt lat="42.96751678451852" lon="11.439129851550081"><ele>119.42857142857142</ele><time>2026-04-11T10:41:40Z</time></trkpt><trkpt lat="42.96751325460285" lon="11.439221294994097"><ele>119.71428571428572</ele><time>2026-04-11T10:41:41Z</time></trkpt><trkpt lat="42.96750802149217" lon="11.439314165005241"><ele>120.0</ele><time>2026-04-11T10:41:42Z</time></trkpt><trkpt lat="42.96750621758793" lon="11.439411968081327"><ele>120.0</ele><time>2026-04-11T10:41:43Z</time></trkpt><trkpt lat="42.967499749856806" lon="11.439502741202844"><ele>120.0</ele><time>2026-04-11T10:41:44Z</time></trkpt><trkpt lat="42.9674905220404" lon="11.439592172546602"><ele>120.0</ele><time>2026-04-11T10:41:45Z</time></trkpt><trkpt lat="42.96747576865638" lon="11.439679289603129"><ele>120.0</ele><time>2026-04-11T10:41:46Z</time></trkpt><trkpt lat="42.96746087918359" lon="11.439766366450186"><ele>120.0</ele><time>2026-04-11T10:41:47Z</time></trkpt><trkpt lat="42.96744511039942" lon="11.439926405616733"><ele>120.0</ele><time>2026-04-11T10:41:49Z</time></trkpt><trkpt lat="42.96742290686915" lon="11.440076758588644"><ele>119.5</ele><time>2026-04-11T10:41:51Z</time></trkpt><trkpt lat="42.967418793599194" lon="11.440221064011267"><ele>119.0</ele><time>2026-04-11T10:41:53Z</time></trkpt><trkpt lat="42.96741683835079" lon="11.440368558971764"><ele>118.5</ele><time>2026-04-11T10:41:55Z</time></trkpt><trkpt lat="42.967426225316736" lon="11.440632548619195"><ele>118.0</ele><time>2026-04-11T10:41:59Z</time></trkpt><trkpt lat="42.967449037751244" lon="11.440745469493589"><ele>117.80000000000001</ele><time>2026-04-11T10:42:01Z</time></trkpt><trkpt lat="42.96746832384751" lon="11.440883015111476"><ele>117.60000000000001</ele><time>2026-04-11T10:42:03Z</time></trkpt><trkpt lat="42.96747241626209" lon="11.441023105295697"><ele>117.39999999999999</ele><time>2026-04-11T10:42:05Z</time></trkpt><trkpt lat="42.96747238122166" lon="11.441161214182568"><ele>117.19999999999999</ele><time>2026-04-11T10:42:07Z</time></trkpt><trkpt lat="42.96743762692117" lon="11.441308140292623"><ele>117.0</ele><time>2026-04-11T10:42:09Z</time></trkpt><trkpt lat="42.96736658152321" lon="11.441455136164215"><ele>117.66666666666667</ele><time>2026-04-11T10:42:11Z</time></trkpt><trkpt lat="42.967330296782606" lon="11.441539705429868"><ele>118.33333333333334</ele><time>2026-04-11T10:42:12Z</time></trkpt><trkpt lat="42.967303370165055" lon="11.441624366936805"><ele>119.0</ele><time>2026-04-11T10:42:13Z</time></trkpt><trkpt lat="42.96727477082427" lon="11.441713763526835"><ele>119.66666666666667</ele><time>2026-04-11T10:42:14Z</time></trkpt><trkpt lat="42.967248819445196" lon="11.441803357938234"><ele>120.33333333333334</ele><time>2026-04-11T10:42:15Z</time></trkpt><trkpt lat="42.967227640001056" lon="11.44189667543623"><ele>121.0</ele><time>2026-04-11T10:42:16Z</time></trkpt><trkpt lat="42.967199114303455" lon="11.442082169637116"><ele>121.83333333333334</ele><time>2026-04-11T10:42:18Z</time></trkpt><trkpt lat="42.96719303751564" lon="11.442173120326208"><ele>122.66666666666667</ele><time>2026-04-11T10:42:19Z</time></trkpt><trkpt lat="42.96717898209517" lon="11.442259936004021"><ele>123.5</ele><time>2026-04-11T10:42:20Z</time></trkpt><trkpt lat="42.96716561108663" lon="11.442347324938057"><ele>124.33333333333334</ele><time>2026-04-11T10:42:21Z</time></trkpt><trkpt lat="42.96714751437598" lon="11.442514382785022"><ele>125.16666666666667</ele><time>2026-04-11T10:42:23Z</time></trkpt><trkpt lat="42.96712504549186" lon="11.442676503508801"><ele>126.0</ele><time>2026-04-11T10:42:25Z</time></trkpt><trkpt lat="42.96711256647101" lon="11.442832332518682"><ele>126.4</ele><time>2026-04-11T10:42:27Z</time></trkpt><trkpt lat="42.967099119560515" lon="11.442978648962074"><ele>126.8</ele><time>2026-04-11T10:42:29Z</time></trkpt><trkpt lat="42.96708796390661" lon="11.443120498430229"><ele>127.20000000000002</ele><time>2026-04-11T10:42:31Z</time></trkpt><trkpt lat="42.96707973732161" lon="11.443261242874748"><ele>127.60000000000001</ele><time>2026-04-11T10:42:33Z</time></trkpt><trkpt lat="42.967058621168114" lon="11.443397969386357"><ele>128.0</ele><time>2026-04-11T10:42:35Z</time></trkpt><trkpt lat="42.967041071789595" lon="11.4435417536703"><ele>126.5</ele><time>2026-04-11T10:42:37Z</time></trkpt><trkpt lat="42.96701251007427" lon="11.443816425385405"><ele>125.0</ele><time>2026-04-11T10:42:41Z</time></trkpt><trkpt lat="42.967003258852344" lon="11.443958026465573"><ele>123.5</ele><time>2026-04-11T10:42:44Z</time></trkpt><trkpt lat="42.96700085096814" lon="11.444070996911913"><ele>122.0</ele><time>2026-04-11T10:42:47Z</time></trkpt><trkpt lat="42.966975828516645" lon="11.444194648951424"><ele>122.0</ele><time>2026-04-11T10:42:49Z</time></trkpt><trkpt lat="42.96696921449805" lon="11.444286142783902"><ele>121.99999999999999</ele><time>2026-04-11T10:42:52Z</time></trkpt><trkpt lat="42.96696037130491" lon="11.44441200773273"><ele>121.99999999999999</ele><time>2026-04-11T10:42:55Z</time></trkpt><trkpt lat="42.96696235736029" lon="11.444507811214969"><ele>122.0</ele><time>2026-04-11T10:42:57Z</time></trkpt><trkpt lat="42.966971709848686" lon="11.444614068109882"><ele>122.0</ele><time>2026-04-11T10:42:58Z</time></trkpt><trkpt lat="42.96702646887115" lon="11.444794025014266"><ele>122.49999999999999</ele><time>2026-04-11T10:43:01Z</time></trkpt><trkpt lat="42.967082059895766" lon="11.444893012839492"><ele>123.0</ele><time>2026-04-11T10:43:03Z</time></trkpt><trkpt lat="42.9671346559285" lon="11.444944927358568"><ele>123.5</ele><time>2026-04-11T10:43:05Z</time></trkpt><trkpt lat="42.96719023392879" lon="11.444989898206247"><ele>124.0</ele><time>2026-04-11T10:43:07Z</time></trkpt><trkpt lat="42.9672567791663" lon="11.445014342661574"><ele>124.49999999999999</ele><time>2026-04-11T10:43:09Z</time></trkpt><trkpt lat="42.96733744351523" lon="11.445025469859017"><ele>125.0</ele><time>2026-04-11T10:43:12Z</time></trkpt><trkpt lat="42.96742185678325" lon="11.445017423251706"><ele>125.0</ele><time>2026-04-11T10:43:16Z</time></trkpt><trkpt lat="42.967499200400916" lon="11.444990779331885"><ele>125.0</ele><time>2026-04-11T10:43:20Z</time></trkpt><trkpt lat="42.96764641367072" lon="11.44493696112121"><ele>125.0</ele><time>2026-04-11T10:43:28Z</time></trkpt><trkpt lat="42.96771607105476" lon="11.444945649042973"><ele>125.0</ele><time>2026-04-11T10:43:32Z</time></trkpt><trkpt lat="42.9677858161743" lon="11.444992165484884"><ele>125.0</ele><time>2026-04-11T10:43:36Z</time></trkpt><trkpt lat="42.96783777098043" lon="11.445071754117453"><ele>124.99999999999999</ele><time>2026-04-11T10:43:41Z</time></trkpt><trkpt lat="42.96791496740157" lon="11.445237849905723"><ele>125.0</ele><time>2026-04-11T10:43:49Z</time></trkpt><trkpt lat="42.967967310074386" lon="11.445299016476888"><ele>125.0</ele><time>2026-04-11T10:43:52Z</time></trkpt><trkpt lat="42.96799089838554" lon="11.445391873682638"><ele>125.0</ele><time>2026-04-11T10:43:56Z</time></trkpt><trkpt lat="42.96804046314798" lon="11.445459049846944"><ele>124.99999999999999</ele><time>2026-04-11T10:44:00Z</time></trkpt><trkpt lat="42.96810212929036" lon="11.445498255538867"><ele>125.0</ele><time>2026-04-11T10:44:04Z</time></trkpt><trkpt lat="42.968237875301426" lon="11.445536933798937"><ele>125.99999999999999</ele><time>2026-04-11T10:44:13Z</time></trkpt><trkpt lat="42.96832636281356" lon="11.445535280382186"><ele>127.0</ele><time>2026-04-11T10:44:18Z</time></trkpt><trkpt lat="42.968390708346654" lon="11.445514701542528"><ele>128.0</ele><time>2026-04-11T10:44:22Z</time></trkpt><trkpt lat="42.968455308572" lon="11.445515292602815"><ele>129.0</ele><time>2026-04-11T10:44:26Z</time></trkpt><trkpt lat="42.96859921537557" lon="11.44558107350471"><ele>130.0</ele><time>2026-04-11T10:44:36Z</time></trkpt><trkpt lat="42.96864826810917" lon="11.445660759379276"><ele>131.0</ele><time>2026-04-11T10:44:41Z</time></trkpt><trkpt lat="42.96867471119223" lon="11.445754990825815"><ele>131.0</ele><time>2026-04-11T10:44:46Z</time></trkpt><trkpt lat="42.968708075780874" lon="11.44584832524525"><ele>131.0</ele><time>2026-04-11T10:44:50Z</time></trkpt><trkpt lat="42.96879132221505" lon="11.445990393162601"><ele>131.0</ele><time>2026-04-11T10:44:59Z</time></trkpt><trkpt lat="42.96881145033685" lon="11.446080607172942"><ele>131.0</ele><time>2026-04-11T10:45:04Z</time></trkpt><trkpt lat="42.968822161296686" lon="11.44616873092545"><ele>131.0</ele><time>2026-04-11T10:45:08Z</time></trkpt><trkpt lat="42.968856240885366" lon="11.446247990634902"><ele>131.0</ele><time>2026-04-11T10:45:12Z</time></trkpt><trkpt lat="42.96889340926584" lon="11.44642990672802"><ele>132.0</ele><time>2026-04-11T10:45:21Z</time></trkpt><trkpt lat="42.968937678101135" lon="11.446502567651578"><ele>133.0</ele><time>2026-04-11T10:45:26Z</time></trkpt><trkpt lat="42.96896949789636" lon="11.446580799435525"><ele>134.0</ele><time>2026-04-11T10:45:31Z</time></trkpt><trkpt lat="42.96903554944762" lon="11.446620368286283"><ele>135.0</ele><time>2026-04-11T10:45:36Z</time></trkpt><trkpt lat="42.969180261768635" lon="11.446667564908573"><ele>136.0</ele><time>2026-04-11T10:45:46Z</time></trkpt><trkpt lat="42.96923804261546" lon="11.446714372553389"><ele>137.0</ele><time>2026-04-11T10:45:50Z</time></trkpt><trkpt lat="42.969300753108" lon="11.446762262396133"><ele>137.0</ele><time>2026-04-11T10:45:55Z</time></trkpt><trkpt lat="42.96936379951822" lon="11.44682775523772"><ele>137.0</ele><time>2026-04-11T10:46:00Z</time></trkpt><trkpt lat="42.96949213824268" lon="11.446932825265211"><ele>137.0</ele><time>2026-04-11T10:46:08Z</time></trkpt><trkpt lat="42.969534440877744" lon="11.447004205388911"><ele>137.0</ele><time>2026-04-11T10:46:17Z</time></trkpt><trkpt lat="42.96954280398602" lon="11.447100096064712"><ele>137.0</ele><time>2026-04-11T10:47:48Z</time></trkpt><trkpt lat="42.969529761908646" lon="11.447224079512726"><ele>139.79999999999998</ele><time>2026-04-11T10:47:51Z</time></trkpt><trkpt lat="42.96953545369339" lon="11.447432207841208"><ele>142.6</ele><time>2026-04-11T10:47:55Z</time></trkpt><trkpt lat="42.969535555801606" lon="11.44753864380255"><ele>145.39999999999998</ele><time>2026-04-11T10:47:57Z</time></trkpt><trkpt lat="42.96953209442999" lon="11.44763284990965"><ele>148.2</ele><time>2026-04-11T10:47:59Z</time></trkpt><trkpt lat="42.96954887413749" lon="11.447730755000055"><ele>151.0</ele><time>2026-04-11T10:48:01Z</time></trkpt><trkpt lat="42.96959888167161" lon="11.447815346251529"><ele>151.0</ele><time>2026-04-11T10:48:03Z</time></trkpt><trkpt lat="42.96966010892207" lon="11.447884632583325"><ele>151.0</ele><time>2026-04-11T10:48:05Z</time></trkpt><trkpt lat="42.96972163197384" lon="11.447949057352137"><ele>151.0</ele><time>2026-04-11T10:48:07Z</time></trkpt><trkpt lat="42.969781385077326" lon="11.447989034742907"><ele>151.0</ele><time>2026-04-11T10:48:09Z</time></trkpt><trkpt lat="42.9698355016638" lon="11.448061911662816"><ele>151.0</ele><time>2026-04-11T10:48:12Z</time></trkpt><trkpt lat="42.96995339653413" lon="11.448205274670306"><ele>151.6</ele><time>2026-04-11T10:48:20Z</time></trkpt><trkpt lat="42.970024038125366" lon="11.448251183384274"><ele>152.2</ele><time>2026-04-11T10:48:24Z</time></trkpt><trkpt lat="42.97009099871143" lon="11.448305981021104"><ele>152.8</ele><time>2026-04-11T10:48:28Z</time></trkpt><trkpt lat="42.970148972520676" lon="11.448361483969487"><ele>153.4</ele><time>2026-04-11T10:48:32Z</time></trkpt><trkpt lat="42.97022229566431" lon="11.448408875148994"><ele>154.0</ele><time>2026-04-11T10:48:36Z</time></trkpt><trkpt lat="42.970351722886946" lon="11.44850867629037"><ele>155.0</ele><time>2026-04-11T10:48:43Z</time></trkpt><trkpt lat="42.97040801290046" lon="11.448550655355284"><ele>156.0</ele><time>2026-04-11T10:48:46Z</time></trkpt><trkpt lat="42.97046813154285" lon="11.448621840761914"><ele>157.0</ele><time>2026-04-11T10:48:50Z</time></trkpt><trkpt lat="42.97054226703899" lon="11.448668544897236"><ele>158.0</ele><time>2026-04-11T10:48:54Z</time></trkpt><trkpt lat="42.97060669793299" lon="11.448736793874488"><ele>159.0</ele><time>2026-04-11T10:48:58Z</time></trkpt><trkpt lat="42.97072651072273" lon="11.448853654729561"><ele>159.0</ele><time>2026-04-11T10:49:05Z</time></trkpt><trkpt lat="42.97079396756727" lon="11.448911897417513"><ele>159.0</ele><time>2026-04-11T10:49:09Z</time></trkpt><trkpt lat="42.970856919301745" lon="11.448976626095462"><ele>159.0</ele><time>2026-04-11T10:49:13Z</time></trkpt><trkpt lat="42.97092336081425" lon="11.449026332254181"><ele>159.0</ele><time>2026-04-11T10:49:17Z</time></trkpt><trkpt lat="42.970986153519284" lon="11.449096762357406"><ele>159.0</ele><time>2026-04-11T10:49:21Z</time></trkpt><trkpt lat="42.97111786489281" lon="11.449199920248581"><ele>160.4</ele><time>2026-04-11T10:49:29Z</time></trkpt><trkpt lat="42.97117871961143" lon="11.449264160629491"><ele>161.8</ele><time>2026-04-11T10:49:33Z</time></trkpt><trkpt lat="42.971247884642096" lon="11.449305877619777"><ele>163.20000000000002</ele><time>2026-04-11T10:49:37Z</time></trkpt><trkpt lat="42.97131691890546" lon="11.449355600550609"><ele>164.60000000000002</ele><time>2026-04-11T10:49:41Z</time></trkpt><trkpt lat="42.97138671912488" lon="11.44940293061606"><ele>166.0</ele><time>2026-04-11T10:49:45Z</time></trkpt><trkpt lat="42.9715275006245" lon="11.449496959697713"><ele>166.0</ele><time>2026-04-11T10:49:53Z</time></trkpt><trkpt lat="42.97159710551723" lon="11.44953451740309"><ele>166.0</ele><time>2026-04-11T10:49:57Z</time></trkpt><trkpt lat="42.97166165168859" lon="11.449593782267579"><ele>166.0</ele><time>2026-04-11T10:50:01Z</time></trkpt><trkpt lat="42.97174021239598" lon="11.449632643187657"><ele>166.0</ele><time>2026-04-11T10:50:05Z</time></trkpt><trkpt lat="42.971801052792905" lon="11.44967009629781"><ele>166.0</ele><time>2026-04-11T10:50:08Z</time></trkpt><trkpt lat="42.971925716760026" lon="11.449769345707622"><ele>166.0</ele><time>2026-04-11T10:50:14Z</time></trkpt><trkpt lat="42.97199100285144" lon="11.449814151611353"><ele>167.4</ele><time>2026-04-11T10:50:17Z</time></trkpt><trkpt lat="42.97206022120513" lon="11.449861452553307"><ele>168.8</ele><time>2026-04-11T10:50:20Z</time></trkpt><trkpt lat="42.972127431471954" lon="11.449906600825496"><ele>170.20000000000002</ele><time>2026-04-11T10:50:24Z</time></trkpt><trkpt lat="42.97219573307605" lon="11.449965992573166"><ele>171.60000000000002</ele><time>2026-04-11T10:50:27Z</time></trkpt><trkpt lat="42.97227694481694" lon="11.450015934788803"><ele>173.0</ele><time>2026-04-11T10:50:31Z</time></trkpt><trkpt lat="42.972433265920984" lon="11.450104476694017"><ele>173.0</ele><time>2026-04-11T10:50:39Z</time></trkpt><trkpt lat="42.97250439455233" lon="11.450135934056009"><ele>173.0</ele><time>2026-04-11T10:50:43Z</time></trkpt><trkpt lat="42.97257855259755" lon="11.45015755698739"><ele>173.0</ele><time>2026-04-11T10:50:46Z</time></trkpt><trkpt lat="42.97265500004524" lon="11.450163258742984"><ele>173.0</ele><time>2026-04-11T10:50:50Z</time></trkpt><trkpt lat="42.97272398170543" lon="11.45016697873528"><ele>173.0</ele><time>2026-04-11T10:50:53Z</time></trkpt><trkpt lat="42.97287910290351" lon="11.450164362506762"><ele>174.83333333333331</ele><time>2026-04-11T10:51:00Z</time></trkpt><trkpt lat="42.97295918450352" lon="11.450189347710413"><ele>176.66666666666666</ele><time>2026-04-11T10:51:04Z</time></trkpt><trkpt lat="42.973025221739796" lon="11.450249724335855"><ele>178.5</ele><time>2026-04-11T10:51:08Z</time></trkpt><trkpt lat="42.973086043923715" lon="11.450300487932907"><ele>180.33333333333334</ele><time>2026-04-11T10:51:12Z</time></trkpt><trkpt lat="42.97310669494444" lon="11.450408812046474"><ele>182.16666666666669</ele><time>2026-04-11T10:51:16Z</time></trkpt><trkpt lat="42.97309743643028" lon="11.450589458679389"><ele>184.0</ele><time>2026-04-11T10:51:23Z</time></trkpt><trkpt lat="42.97310622145872" lon="11.450706049544971"><ele>184.5</ele><time>2026-04-11T10:51:27Z</time></trkpt><trkpt lat="42.97309482702393" lon="11.45079888146"><ele>185.0</ele><time>2026-04-11T10:51:31Z</time></trkpt><trkpt lat="42.97310077718221" lon="11.450886152324712"><ele>185.5</ele><time>2026-04-11T10:51:34Z</time></trkpt><trkpt lat="42.97311081070463" lon="11.451004458954596"><ele>186.0</ele><time>2026-04-11T10:51:38Z</time></trkpt><trkpt lat="42.97314794232993" lon="11.451185804311274"><ele>186.5</ele><time>2026-04-11T10:51:45Z</time></trkpt><trkpt lat="42.97318811540603" lon="11.45126410662694"><ele>187.0</ele><time>2026-04-11T10:51:49Z</time></trkpt><trkpt lat="42.97324704905148" lon="11.451315542655438"><ele>187.0</ele><time>2026-04-11T10:51:52Z</time></trkpt><trkpt lat="42.973324253393045" lon="11.451340665768452"><ele>187.0</ele><time>2026-04-11T10:51:56Z</time></trkpt><trkpt lat="42.97339366082756" lon="11.451335085812152"><ele>187.0</ele><time>2026-04-11T10:52:00Z</time></trkpt><trkpt lat="42.97351984661705" lon="11.451245939995351"><ele>187.0</ele><time>2026-04-11T10:52:09Z</time></trkpt><trkpt lat="42.97356019511819" lon="11.451172885208893"><ele>187.0</ele><time>2026-04-11T10:52:12Z</time></trkpt><trkpt lat="42.97358866334405" lon="11.451095337441137"><ele>187.0</ele><time>2026-04-11T10:52:16Z</time></trkpt><trkpt lat="42.97360935441861" lon="11.451007829922961"><ele>188.5</ele><time>2026-04-11T10:52:20Z</time></trkpt><trkpt lat="42.9736308616158" lon="11.450923099879459"><ele>190.0</ele><time>2026-04-11T10:52:23Z</time></trkpt><trkpt lat="42.97369489988234" lon="11.450753749878228"><ele>191.5</ele><time>2026-04-11T10:52:31Z</time></trkpt><trkpt lat="42.97373858914242" lon="11.450675802998235"><ele>193.0</ele><time>2026-04-11T10:52:34Z</time></trkpt><trkpt lat="42.97379473354817" lon="11.450593785039604"><ele>194.49999999999997</ele><time>2026-04-11T10:52:38Z</time></trkpt><trkpt lat="42.97385141417537" lon="11.45051903060005"><ele>196.0</ele><time>2026-04-11T10:52:42Z</time></trkpt><trkpt lat="42.9739088905525" lon="11.45043760796289"><ele>196.0</ele><time>2026-04-11T10:52:46Z</time></trkpt><trkpt lat="42.97404889050303" lon="11.4503557480252"><ele>196.0</ele><time>2026-04-11T10:52:54Z</time></trkpt><trkpt lat="42.97412409562079" lon="11.450345194212092"><ele>196.0</ele><time>2026-04-11T10:52:58Z</time></trkpt><trkpt lat="42.97419695000729" lon="11.450368723711525"><ele>196.0</ele><time>2026-04-11T10:53:02Z</time></trkpt><trkpt lat="42.97426254262919" lon="11.450413790780424"><ele>196.0</ele><time>2026-04-11T10:53:06Z</time></trkpt><trkpt lat="42.97431148007418" lon="11.450490362418812"><ele>198.4</ele><time>2026-04-11T10:53:10Z</time></trkpt><trkpt lat="42.97443663090918" lon="11.450570519390713"><ele>200.8</ele><time>2026-04-11T10:53:18Z</time></trkpt><trkpt lat="42.974501788611605" lon="11.450569909658721"><ele>203.20000000000002</ele><time>2026-04-11T10:53:22Z</time></trkpt><trkpt lat="42.97457746273517" lon="11.450567064805426"><ele>205.60000000000002</ele><time>2026-04-11T10:53:27Z</time></trkpt><trkpt lat="42.974650618268726" lon="11.450569038262596"><ele>208.0</ele><time>2026-04-11T10:53:31Z</time></trkpt><trkpt lat="42.97479694177887" lon="11.450579579855416"><ele>208.0</ele><time>2026-04-11T10:53:39Z</time></trkpt><trkpt lat="42.97486611267683" lon="11.450582545687933"><ele>208.0</ele><time>2026-04-11T10:53:42Z</time></trkpt><trkpt lat="42.974947302009944" lon="11.450599071125076"><ele>208.0</ele><time>2026-04-11T10:53:46Z</time></trkpt><trkpt lat="42.97502214291182" lon="11.45060192768176"><ele>208.0</ele><time>2026-04-11T10:53:49Z</time></trkpt><trkpt lat="42.97512152767734" lon="11.450633376021523"><ele>208.0</ele><time>2026-04-11T10:53:52Z</time></trkpt><trkpt lat="42.97527941550165" lon="11.45070912227903"><ele>208.16666666666666</ele><time>2026-04-11T10:53:56Z</time></trkpt><trkpt lat="42.97536178669011" lon="11.450735233431566"><ele>208.33333333333331</ele><time>2026-04-11T10:53:59Z</time></trkpt><trkpt lat="42.97543146139413" lon="11.450757499485848"><ele>208.5</ele><time>2026-04-11T10:54:01Z</time></trkpt><trkpt lat="42.97551652870236" lon="11.450793340161157"><ele>208.66666666666669</ele><time>2026-04-11T10:54:04Z</time></trkpt><trkpt lat="42.975591519874385" lon="11.450815651199793"><ele>208.83333333333334</ele><time>2026-04-11T10:54:06Z</time></trkpt><trkpt lat="42.975688004539656" lon="11.450864425612936"><ele>209.0</ele><time>2026-04-11T10:54:09Z</time></trkpt><trkpt lat="42.975750372324455" lon="11.450900923869023"><ele>209.0</ele><time>2026-04-11T10:54:11Z</time></trkpt><trkpt lat="42.97581512706368" lon="11.450923473626862"><ele>209.0</ele><time>2026-04-11T10:54:13Z</time></trkpt><trkpt lat="42.97597056784858" lon="11.45098272473065"><ele>209.0</ele><time>2026-04-11T10:54:17Z</time></trkpt><trkpt lat="42.97605589823238" lon="11.451012267760067"><ele>209.0</ele><time>2026-04-11T10:54:19Z</time></trkpt><trkpt lat="42.976159622423" lon="11.451059219087702"><ele>209.0</ele><time>2026-04-11T10:54:22Z</time></trkpt><trkpt lat="42.976245930887345" lon="11.451085313312891"><ele>209.50000000000003</ele><time>2026-04-11T10:54:24Z</time></trkpt><trkpt lat="42.97631397026343" lon="11.451122543881857"><ele>210.0</ele><time>2026-04-11T10:54:25Z</time></trkpt><trkpt lat="42.97640648903217" lon="11.45118007534341"><ele>210.5</ele><time>2026-04-11T10:54:27Z</time></trkpt><trkpt lat="42.97649476966907" lon="11.451221511663578"><ele>211.0</ele><time>2026-04-11T10:54:29Z</time></trkpt><trkpt lat="42.97655419877983" lon="11.451250008546682"><ele>211.50000000000003</ele><time>2026-04-11T10:54:31Z</time></trkpt><trkpt lat="42.97665089491559" lon="11.451295439529277"><ele>212.0</ele><time>2026-04-11T10:54:34Z</time></trkpt><trkpt lat="42.97681080009744" lon="11.451375406894353"><ele>212.66666666666669</ele><time>2026-04-11T10:54:39Z</time></trkpt><trkpt lat="42.97689533773127" lon="11.451425123103368"><ele>213.33333333333334</ele><time>2026-04-11T10:54:42Z</time></trkpt><trkpt lat="42.97697039352421" lon="11.451461524186726"><ele>214.0</ele><time>2026-04-11T10:54:44Z</time></trkpt><trkpt lat="42.97706011506176" lon="11.451515751144308"><ele>214.66666666666669</ele><time>2026-04-11T10:54:47Z</time></trkpt><trkpt lat="42.97712704197511" lon="11.451577826649528"><ele>215.33333333333334</ele><time>2026-04-11T10:54:49Z</time></trkpt><trkpt lat="42.97721878338751" lon="11.451623451319776"><ele>216.0</ele><time>2026-04-11T10:54:52Z</time></trkpt><trkpt lat="42.97729008854654" lon="11.451667875671593"><ele>216.0</ele><time>2026-04-11T10:54:54Z</time></trkpt><trkpt lat="42.97735728816549" lon="11.451704158089543"><ele>216.00000000000003</ele><time>2026-04-11T10:54:56Z</time></trkpt><trkpt lat="42.977509650795085" lon="11.451782640595543"><ele>216.00000000000003</ele><time>2026-04-11T10:55:01Z</time></trkpt><trkpt lat="42.97756525436635" lon="11.451824314938897"><ele>216.0</ele><time>2026-04-11T10:55:03Z</time></trkpt><trkpt lat="42.977653876459804" lon="11.451874159496008"><ele>216.0</ele><time>2026-04-11T10:55:06Z</time></trkpt><trkpt lat="42.977733864974304" lon="11.451918691525483"><ele>216.4</ele><time>2026-04-11T10:55:09Z</time></trkpt><trkpt lat="42.977813650550125" lon="11.451955792081844"><ele>216.8</ele><time>2026-04-11T10:55:12Z</time></trkpt><trkpt lat="42.977908273845486" lon="11.45200955168223"><ele>217.20000000000002</ele><time>2026-04-11T10:55:14Z</time></trkpt><trkpt lat="42.97799833872884" lon="11.4520688640434"><ele>217.60000000000002</ele><time>2026-04-11T10:55:16Z</time></trkpt><trkpt lat="42.978097622703224" lon="11.452138242362182"><ele>218.0</ele><time>2026-04-11T10:55:18Z</time></trkpt><trkpt lat="42.978275890528195" lon="11.452253365571714"><ele>218.33333333333334</ele><time>2026-04-11T10:55:22Z</time></trkpt><trkpt lat="42.97835341474678" lon="11.45230530945917"><ele>218.66666666666669</ele><time>2026-04-11T10:55:24Z</time></trkpt><trkpt lat="42.978432178761835" lon="11.452343520942007"><ele>219.0</ele><time>2026-04-11T10:55:26Z</time></trkpt><trkpt lat="42.978504209746525" lon="11.452378781262775"><ele>219.33333333333331</ele><time>2026-04-11T10:55:28Z</time></trkpt><trkpt lat="42.97858766508983" lon="11.45242246574328"><ele>219.66666666666666</ele><time>2026-04-11T10:55:31Z</time></trkpt><trkpt lat="42.978663839575674" lon="11.452456372588902"><ele>220.0</ele><time>2026-04-11T10:55:34Z</time></trkpt><trkpt lat="42.97874518913297" lon="11.452522509792054"><ele>220.0</ele><time>2026-04-11T10:55:37Z</time></trkpt><trkpt lat="42.9788108988547" lon="11.45259111557053"><ele>220.0</ele><time>2026-04-11T10:55:39Z</time></trkpt><trkpt lat="42.978922662593206" lon="11.452686232454438"><ele>220.0</ele><time>2026-04-11T10:55:43Z</time></trkpt><trkpt lat="42.97897932633442" lon="11.452746528259585"><ele>220.0</ele><time>2026-04-11T10:55:45Z</time></trkpt><trkpt lat="42.979048940464" lon="11.452807403706817"><ele>220.0</ele><time>2026-04-11T10:55:47Z</time></trkpt><trkpt lat="42.97912400491972" lon="11.452891826048477"><ele>219.2</ele><time>2026-04-11T10:55:49Z</time></trkpt><trkpt lat="42.979200359634056" lon="11.452975600962459"><ele>218.4</ele><time>2026-04-11T10:55:52Z</time></trkpt><trkpt lat="42.979304687207495" lon="11.453094357027581"><ele>217.60000000000002</ele><time>2026-04-11T10:55:54Z</time></trkpt><trkpt lat="42.97935411186406" lon="11.453148488528033"><ele>216.8</ele><time>2026-04-11T10:55:55Z</time></trkpt><trkpt lat="42.979436547287726" lon="11.453244853164803"><ele>216.0</ele><time>2026-04-11T10:55:57Z</time></trkpt><trkpt lat="42.979482507977735" lon="11.453331400255621"><ele>216.0</ele><time>2026-04-11T10:56:00Z</time></trkpt><trkpt lat="42.97957166298809" lon="11.453500528736443"><ele>216.0</ele><time>2026-04-11T10:56:02Z</time></trkpt><trkpt lat="42.979615767388395" lon="11.453569925857188"><ele>216.0</ele><time>2026-04-11T10:56:03Z</time></trkpt><trkpt lat="42.97965913911726" lon="11.453637702854442"><ele>216.0</ele><time>2026-04-11T10:56:04Z</time></trkpt><trkpt lat="42.97969758069063" lon="11.453707664142655"><ele>216.0</ele><time>2026-04-11T10:56:05Z</time></trkpt><trkpt lat="42.979735123001184" lon="11.453778008050413"><ele>216.0</ele><time>2026-04-11T10:56:06Z</time></trkpt><trkpt lat="42.97981604996675" lon="11.453911548429296"><ele>216.20000000000002</ele><time>2026-04-11T10:56:08Z</time></trkpt><trkpt lat="42.97989218210714" lon="11.454055008686725"><ele>216.40000000000003</ele><time>2026-04-11T10:56:10Z</time></trkpt><trkpt lat="42.97993050799705" lon="11.454129146302504"><ele>216.6</ele><time>2026-04-11T10:56:11Z</time></trkpt><trkpt lat="42.979967441439385" lon="11.454198904625716"><ele>216.8</ele><time>2026-04-11T10:56:12Z</time></trkpt><trkpt lat="42.980027589358265" lon="11.454332631629647"><ele>217.0</ele><time>2026-04-11T10:56:14Z</time></trkpt><trkpt lat="42.98008875803533" lon="11.454470403972682"><ele>216.25</ele><time>2026-04-11T10:56:16Z</time></trkpt><trkpt lat="42.980144021645906" lon="11.454606952666595"><ele>215.5</ele><time>2026-04-11T10:56:18Z</time></trkpt><trkpt lat="42.98019847311018" lon="11.454751022434369"><ele>214.75</ele><time>2026-04-11T10:56:20Z</time></trkpt><trkpt lat="42.98027054108529" lon="11.454901609954394"><ele>214.0</ele><time>2026-04-11T10:56:22Z</time></trkpt><trkpt lat="42.98036993368982" lon="11.455110543536646"><ele>214.0</ele><time>2026-04-11T10:56:25Z</time></trkpt><trkpt lat="42.98044325337492" lon="11.455243193781738"><ele>214.0</ele><time>2026-04-11T10:56:27Z</time></trkpt><trkpt lat="42.98051693767271" lon="11.455368575774706"><ele>214.0</ele><time>2026-04-11T10:56:29Z</time></trkpt><trkpt lat="42.9805855093621" lon="11.455488710371734"><ele>214.0</ele><time>2026-04-11T10:56:31Z</time></trkpt><trkpt lat="42.98064692394765" lon="11.455600576068376"><ele>213.49999999999997</ele><time>2026-04-11T10:56:33Z</time></trkpt><trkpt lat="42.980709674107935" lon="11.455700786074678"><ele>213.0</ele><time>2026-04-11T10:56:35Z</time></trkpt><trkpt lat="42.98076409051155" lon="11.455802519475343"><ele>212.5</ele><time>2026-04-11T10:56:37Z</time></trkpt><trkpt lat="42.980824041963885" lon="11.455893976956256"><ele>212.0</ele><time>2026-04-11T10:56:39Z</time></trkpt><trkpt lat="42.980878029745035" lon="11.455983132726614"><ele>211.49999999999997</ele><time>2026-04-11T10:56:41Z</time></trkpt><trkpt lat="42.98093990094703" lon="11.456051613123545"><ele>211.0</ele><time>2026-04-11T10:56:43Z</time></trkpt><trkpt lat="42.98106041345763" lon="11.456211286937872"><ele>210.99999999999997</ele><time>2026-04-11T10:56:47Z</time></trkpt><trkpt lat="42.981123171383025" lon="11.456277024802821"><ele>211.0</ele><time>2026-04-11T10:56:49Z</time></trkpt><trkpt lat="42.981182797205435" lon="11.45635130049933"><ele>211.0</ele><time>2026-04-11T10:56:51Z</time></trkpt><trkpt lat="42.98124341237635" lon="11.456424083370576"><ele>211.0</ele><time>2026-04-11T10:56:53Z</time></trkpt><trkpt lat="42.98130278452063" lon="11.456498914671613"><ele>210.99999999999997</ele><time>2026-04-11T10:56:55Z</time></trkpt><trkpt lat="42.9813597810916" lon="11.456575490179926"><ele>211.0</ele><time>2026-04-11T10:56:57Z</time></trkpt><trkpt lat="42.9814131383951" lon="11.456649157867648"><ele>211.49999999999997</ele><time>2026-04-11T10:56:59Z</time></trkpt><trkpt lat="42.981464997417014" lon="11.456720182943549"><ele>212.0</ele><time>2026-04-11T10:57:01Z</time></trkpt><trkpt lat="42.98150830449062" lon="11.45679420128253"><ele>212.5</ele><time>2026-04-11T10:57:03Z</time></trkpt><trkpt lat="42.98156188233733" lon="11.456859147317761"><ele>213.0</ele><time>2026-04-11T10:57:05Z</time></trkpt><trkpt lat="42.98166529833781" lon="11.456987581928782"><ele>213.49999999999997</ele><time>2026-04-11T10:57:09Z</time></trkpt><trkpt lat="42.98171500630433" lon="11.45706300169203"><ele>214.0</ele><time>2026-04-11T10:57:11Z</time></trkpt><trkpt lat="42.98176313235065" lon="11.457128265164837"><ele>215.83333333333331</ele><time>2026-04-11T10:57:13Z</time></trkpt><trkpt lat="42.98180849360536" lon="11.457189618241244"><ele>217.66666666666666</ele><time>2026-04-11T10:57:15Z</time></trkpt><trkpt lat="42.98185769060574" lon="11.457255942259534"><ele>219.5</ele><time>2026-04-11T10:57:17Z</time></trkpt><trkpt lat="42.98191487119161" lon="11.457352530972775"><ele>221.33333333333331</ele><time>2026-04-11T10:57:20Z</time></trkpt><trkpt lat="42.98198180652343" lon="11.45742796063141"><ele>223.16666666666666</ele><time>2026-04-11T10:57:23Z</time></trkpt><trkpt lat="42.98205444958682" lon="11.457499048888113"><ele>225.0</ele><time>2026-04-11T10:57:26Z</time></trkpt><trkpt lat="42.98218724370184" lon="11.457602373521029"><ele>225.00000000000003</ele><time>2026-04-11T10:57:31Z</time></trkpt><trkpt lat="42.982244955550286" lon="11.45764808523566"><ele>225.0</ele><time>2026-04-11T10:57:33Z</time></trkpt><trkpt lat="42.982308883758705" lon="11.45768383356463"><ele>225.00000000000003</ele><time>2026-04-11T10:57:35Z</time></trkpt><trkpt lat="42.982367079799204" lon="11.45771705180929"><ele>225.00000000000003</ele><time>2026-04-11T10:57:37Z</time></trkpt><trkpt lat="42.98243046290688" lon="11.457739918791235"><ele>225.0</ele><time>2026-04-11T10:57:39Z</time></trkpt><trkpt lat="42.98249246227225" lon="11.457755629752102"><ele>225.00000000000003</ele><time>2026-04-11T10:57:41Z</time></trkpt><trkpt lat="42.98258565115545" lon="11.457789977141172"><ele>225.00000000000003</ele><time>2026-04-11T10:57:44Z</time></trkpt><trkpt lat="42.982648430057246" lon="11.45781601269128"><ele>225.4</ele><time>2026-04-11T10:57:46Z</time></trkpt><trkpt lat="42.98273022065598" lon="11.457856880830846"><ele>225.8</ele><time>2026-04-11T10:57:49Z</time></trkpt><trkpt lat="42.98288661079017" lon="11.457910312263737"><ele>226.2</ele><time>2026-04-11T10:57:55Z</time></trkpt><trkpt lat="42.98297246612265" lon="11.457915598531713"><ele>226.6</ele><time>2026-04-11T10:57:58Z</time></trkpt><trkpt lat="42.98305215402409" lon="11.457925210614748"><ele>227.0</ele><time>2026-04-11T10:58:01Z</time></trkpt><trkpt lat="42.98313101789763" lon="11.457926463341376"><ele>227.00000000000003</ele><time>2026-04-11T10:58:04Z</time></trkpt><trkpt lat="42.98320467300366" lon="11.457929072238361"><ele>227.0</ele><time>2026-04-11T10:58:07Z</time></trkpt><trkpt lat="42.98327364011307" lon="11.457943682817413"><ele>227.0</ele><time>2026-04-11T10:58:10Z</time></trkpt><trkpt lat="42.98340578965855" lon="11.457980219891011"><ele>227.0</ele><time>2026-04-11T10:58:16Z</time></trkpt><trkpt lat="42.983473082919865" lon="11.457987521036987"><ele>227.00000000000003</ele><time>2026-04-11T10:58:19Z</time></trkpt><trkpt lat="42.98355868086851" lon="11.458006151640165"><ele>227.0</ele><time>2026-04-11T10:58:23Z</time></trkpt><trkpt lat="42.98362765231404" lon="11.458020557008096"><ele>229.66666666666669</ele><time>2026-04-11T10:58:27Z</time></trkpt><trkpt lat="42.983700340792474" lon="11.458039289897117"><ele>232.33333333333334</ele><time>2026-04-11T10:58:31Z</time></trkpt><trkpt lat="42.98383905367088" lon="11.458063574269149"><ele>235.0</ele><time>2026-04-11T10:58:39Z</time></trkpt><trkpt lat="42.98390595782574" lon="11.458059259061168"><ele>237.66666666666669</ele><time>2026-04-11T10:58:43Z</time></trkpt><trkpt lat="42.98397417864211" lon="11.458076749379982"><ele>240.33333333333334</ele><time>2026-04-11T10:58:47Z</time></trkpt><trkpt lat="42.98403772889176" lon="11.458096955529628"><ele>243.0</ele><time>2026-04-11T10:58:51Z</time></trkpt><trkpt lat="42.98410545185485" lon="11.458112134184788"><ele>244.5</ele><time>2026-04-11T10:58:55Z</time></trkpt><trkpt lat="42.984239208574024" lon="11.45815669103783"><ele>246.0</ele><time>2026-04-11T10:59:03Z</time></trkpt><trkpt lat="42.98430804587516" lon="11.458176352380264"><ele>247.5</ele><time>2026-04-11T10:59:07Z</time></trkpt><trkpt lat="42.984378003259735" lon="11.45819532219258"><ele>249.0</ele><time>2026-04-11T10:59:11Z</time></trkpt><trkpt lat="42.98444631582334" lon="11.458213508247791"><ele>250.5</ele><time>2026-04-11T10:59:15Z</time></trkpt><trkpt lat="42.98451617790717" lon="11.458238866875384"><ele>252.0</ele><time>2026-04-11T10:59:20Z</time></trkpt><trkpt lat="42.98471977981801" lon="11.458287034143938"><ele>252.0</ele><time>2026-04-11T11:00:01Z</time></trkpt><trkpt lat="42.98479935137093" lon="11.458303533673321"><ele>252.0</ele><time>2026-04-11T11:00:06Z</time></trkpt><trkpt lat="42.98486479798639" lon="11.458326563365949"><ele>252.0</ele><time>2026-04-11T11:00:10Z</time></trkpt><trkpt lat="42.98493340575755" lon="11.45832625820939"><ele>252.0</ele><time>2026-04-11T11:00:14Z</time></trkpt><trkpt lat="42.985073433853366" lon="11.458346479246924"><ele>252.0</ele><time>2026-04-11T11:00:22Z</time></trkpt><trkpt lat="42.98514075318012" lon="11.458352721929113"><ele>252.0</ele><time>2026-04-11T11:00:26Z</time></trkpt><trkpt lat="42.98521046918938" lon="11.45835762615694"><ele>254.16666666666666</ele><time>2026-04-11T11:00:30Z</time></trkpt><trkpt lat="42.985278249939086" lon="11.458377236404786"><ele>256.3333333333333</ele><time>2026-04-11T11:00:34Z</time></trkpt><trkpt lat="42.98534698709504" lon="11.458398492305918"><ele>258.5</ele><time>2026-04-11T11:00:38Z</time></trkpt><trkpt lat="42.98548526080439" lon="11.458402092131086"><ele>260.66666666666663</ele><time>2026-04-11T11:00:46Z</time></trkpt><trkpt lat="42.98556006272753" lon="11.45838423580175"><ele>262.8333333333333</ele><time>2026-04-11T11:00:51Z</time></trkpt><trkpt lat="42.985626693042136" lon="11.458372777541744"><ele>265.0</ele><time>2026-04-11T11:00:55Z</time></trkpt><trkpt lat="42.9856911846195" lon="11.45834638979832"><ele>265.0</ele><time>2026-04-11T11:00:59Z</time></trkpt><trkpt lat="42.98581882651072" lon="11.458309142548591"><ele>265.0</ele><time>2026-04-11T11:01:07Z</time></trkpt><trkpt lat="42.98590464210011" lon="11.458290658124303"><ele>265.0</ele><time>2026-04-11T11:01:12Z</time></trkpt><trkpt lat="42.985972721112745" lon="11.458261835147452"><ele>265.0</ele><time>2026-04-11T11:01:16Z</time></trkpt><trkpt lat="42.986038581795405" lon="11.458245673843608"><ele>265.0</ele><time>2026-04-11T11:01:20Z</time></trkpt><trkpt lat="42.98616727240113" lon="11.458266255710342"><ele>268.75</ele><time>2026-04-11T11:01:29Z</time></trkpt><trkpt lat="42.98623315943851" lon="11.458257280806077"><ele>272.5</ele><time>2026-04-11T11:01:33Z</time></trkpt><trkpt lat="42.98631079943498" lon="11.458253943738447"><ele>276.25</ele><time>2026-04-11T11:01:38Z</time></trkpt><trkpt lat="42.986373772987754" lon="11.458263411016295"><ele>280.0</ele><time>2026-04-11T11:01:43Z</time></trkpt><trkpt lat="42.98665006946493" lon="11.45825120935578"><ele>280.3333333333333</ele><time>2026-04-11T11:03:37Z</time></trkpt><trkpt lat="42.986725876251704" lon="11.4582551046523"><ele>280.66666666666663</ele><time>2026-04-11T11:03:42Z</time></trkpt><trkpt lat="42.98678510928421" lon="11.458293025302837"><ele>281.0</ele><time>2026-04-11T11:03:46Z</time></trkpt><trkpt lat="42.986853486347556" lon="11.45828496462312"><ele>281.3333333333333</ele><time>2026-04-11T11:03:50Z</time></trkpt><trkpt lat="42.9869215339052" lon="11.458288618884676"><ele>281.6666666666667</ele><time>2026-04-11T11:03:54Z</time></trkpt><trkpt lat="42.98705967892694" lon="11.458293771978834"><ele>282.0</ele><time>2026-04-11T11:04:02Z</time></trkpt><trkpt lat="42.98712701965919" lon="11.45830951012479"><ele>282.0</ele><time>2026-04-11T11:04:06Z</time></trkpt><trkpt lat="42.9871931921362" lon="11.458338021831885"><ele>282.0</ele><time>2026-04-11T11:04:10Z</time></trkpt><trkpt lat="42.987258707093666" lon="11.458361860087647"><ele>282.0</ele><time>2026-04-11T11:04:14Z</time></trkpt><trkpt lat="42.98732373155457" lon="11.458402493677161"><ele>282.0</ele><time>2026-04-11T11:04:19Z</time></trkpt><trkpt lat="42.98743305902167" lon="11.458541884946307"><ele>282.0</ele><time>2026-04-11T11:04:28Z</time></trkpt><trkpt lat="42.98746509842006" lon="11.45862560157874"><ele>282.0</ele><time>2026-04-11T11:04:32Z</time></trkpt><trkpt lat="42.98748822637179" lon="11.458717431950259"><ele>283.6666666666667</ele><time>2026-04-11T11:04:36Z</time></trkpt><trkpt lat="42.98754713765518" lon="11.458771680399717"><ele>285.3333333333333</ele><time>2026-04-11T11:04:41Z</time></trkpt><trkpt lat="42.98768095930827" lon="11.4588636186893"><ele>287.0</ele><time>2026-04-11T11:04:50Z</time></trkpt><trkpt lat="42.987753869107436" lon="11.458874879001224"><ele>288.66666666666663</ele><time>2026-04-11T11:04:54Z</time></trkpt><trkpt lat="42.98782794455418" lon="11.458888708101455"><ele>290.3333333333333</ele><time>2026-04-11T11:04:58Z</time></trkpt><trkpt lat="42.98789258443713" lon="11.458905492296896"><ele>292.0</ele><time>2026-04-11T11:05:02Z</time></trkpt><trkpt lat="42.9880307179772" lon="11.45896148142949"><ele>294.5</ele><time>2026-04-11T11:05:11Z</time></trkpt><trkpt lat="42.98807732559834" lon="11.459040805964083"><ele>297.0</ele><time>2026-04-11T11:05:15Z</time></trkpt><trkpt lat="42.98803596045095" lon="11.459122824179373"><ele>299.5</ele><time>2026-04-11T11:05:19Z</time></trkpt><trkpt lat="42.98796997604144" lon="11.459129461564324"><ele>302.0</ele><time>2026-04-11T11:05:22Z</time></trkpt><trkpt lat="42.98790610314425" lon="11.459115238128597"><ele>304.5</ele><time>2026-04-11T11:05:25Z</time></trkpt><trkpt lat="42.98776815572088" lon="11.459175332927963"><ele>307.0</ele><time>2026-04-11T11:05:31Z</time></trkpt><trkpt lat="42.98770474352412" lon="11.45921961354804"><ele>307.0</ele><time>2026-04-11T11:05:34Z</time></trkpt><trkpt lat="42.9876403163065" lon="11.459266739020265"><ele>307.0</ele><time>2026-04-11T11:05:37Z</time></trkpt><trkpt lat="42.98756521501207" lon="11.459334399882428"><ele>307.0</ele><time>2026-04-11T11:05:41Z</time></trkpt><trkpt lat="42.98750111175312" lon="11.459384243976025"><ele>307.0</ele><time>2026-04-11T11:05:45Z</time></trkpt><trkpt lat="42.98744377356356" lon="11.459438086839041"><ele>307.0</ele><time>2026-04-11T11:05:48Z</time></trkpt><trkpt lat="42.98733573788055" lon="11.45956537601045"><ele>307.0</ele><time>2026-04-11T11:05:54Z</time></trkpt><trkpt lat="42.98728107932374" lon="11.459638968350035"><ele>308.8</ele><time>2026-04-11T11:05:57Z</time></trkpt><trkpt lat="42.987237282221734" lon="11.459704196012163"><ele>310.6</ele><time>2026-04-11T11:06:00Z</time></trkpt><trkpt lat="42.987194350178214" lon="11.459777127017976"><ele>312.40000000000003</ele><time>2026-04-11T11:06:03Z</time></trkpt><trkpt lat="42.987148996515174" lon="11.459863045747532"><ele>314.2</ele><time>2026-04-11T11:06:06Z</time></trkpt><trkpt lat="42.987107594923415" lon="11.45994239256768"><ele>316.0</ele><time>2026-04-11T11:06:09Z</time></trkpt><trkpt lat="42.987059625120104" lon="11.460161746294963"><ele>316.0</ele><time>2026-04-11T11:06:16Z</time></trkpt><trkpt lat="42.98704260039272" lon="11.460245616252253"><ele>316.0</ele><time>2026-04-11T11:06:19Z</time></trkpt><trkpt lat="42.987059580315986" lon="11.460347603724387"><ele>316.0</ele><time>2026-04-11T11:06:23Z</time></trkpt><trkpt lat="42.98713008309538" lon="11.460310886036428"><ele>316.0</ele><time>2026-04-11T11:06:27Z</time></trkpt><trkpt lat="42.987191484218286" lon="11.460248088671243"><ele>316.0</ele><time>2026-04-11T11:06:31Z</time></trkpt><trkpt lat="42.98731859859505" lon="11.460116649471221"><ele>316.0</ele><time>2026-04-11T11:06:37Z</time></trkpt><trkpt lat="42.98737990061985" lon="11.460081319762129"><ele>316.0</ele><time>2026-04-11T11:06:40Z</time></trkpt><trkpt lat="42.98744385980004" lon="11.46004669402771"><ele>316.0</ele><time>2026-04-11T11:06:43Z</time></trkpt><trkpt lat="42.98751116072468" lon="11.460018066034074"><ele>316.0</ele><time>2026-04-11T11:06:46Z</time></trkpt><trkpt lat="42.98758331501692" lon="11.45999807711509"><ele>316.0</ele><time>2026-04-11T11:06:49Z</time></trkpt><trkpt lat="42.98766971109523" lon="11.46000235356659"><ele>316.0</ele><time>2026-04-11T11:06:53Z</time></trkpt><trkpt lat="42.987812973036" lon="11.460043979225851"><ele>317.3333333333333</ele><time>2026-04-11T11:06:58Z</time></trkpt><trkpt lat="42.98789801406861" lon="11.460071583417367"><ele>318.66666666666663</ele><time>2026-04-11T11:07:02Z</time></trkpt><trkpt lat="42.98798302415825" lon="11.460096512522117"><ele>320.0</ele><time>2026-04-11T11:07:05Z</time></trkpt><trkpt lat="42.98805867799229" lon="11.460127577406386"><ele>321.3333333333333</ele><time>2026-04-11T11:07:08Z</time></trkpt><trkpt lat="42.98813188320653" lon="11.460158848301928"><ele>322.6666666666667</ele><time>2026-04-11T11:07:11Z</time></trkpt><trkpt lat="42.98820572694626" lon="11.46018475579257"><ele>324.0</ele><time>2026-04-11T11:07:14Z</time></trkpt><trkpt lat="42.98833768097759" lon="11.460246469956086"><ele>324.8333333333333</ele><time>2026-04-11T11:07:20Z</time></trkpt><trkpt lat="42.988410658047876" lon="11.460263852885035"><ele>325.6666666666667</ele><time>2026-04-11T11:07:23Z</time></trkpt><trkpt lat="42.988486305671955" lon="11.460285990134572"><ele>326.5</ele><time>2026-04-11T11:07:26Z</time></trkpt><trkpt lat="42.98855758091449" lon="11.460328516883388"><ele>327.33333333333337</ele><time>2026-04-11T11:07:29Z</time></trkpt><trkpt lat="42.988630513970286" lon="11.460367352068307"><ele>328.1666666666667</ele><time>2026-04-11T11:07:32Z</time></trkpt><trkpt lat="42.98870211439126" lon="11.460410928592816"><ele>329.0</ele><time>2026-04-11T11:07:35Z</time></trkpt><trkpt lat="42.98884586209467" lon="11.460540935292165"><ele>330.1666666666667</ele><time>2026-04-11T11:07:41Z</time></trkpt><trkpt lat="42.988911437557576" lon="11.460612405807469"><ele>331.33333333333337</ele><time>2026-04-11T11:07:44Z</time></trkpt><trkpt lat="42.98897545339733" lon="11.460676803995462"><ele>332.5</ele><time>2026-04-11T11:07:47Z</time></trkpt><trkpt lat="42.98903837767913" lon="11.46074809431755"><ele>333.6666666666667</ele><time>2026-04-11T11:07:50Z</time></trkpt><trkpt lat="42.98910812211827" lon="11.460821138587978"><ele>334.8333333333333</ele><time>2026-04-11T11:07:53Z</time></trkpt><trkpt lat="42.98918185943812" lon="11.460881579778833"><ele>336.0</ele><time>2026-04-11T11:07:56Z</time></trkpt><trkpt lat="42.989347992116436" lon="11.460942590620576"><ele>336.8333333333333</ele><time>2026-04-11T11:08:02Z</time></trkpt><trkpt lat="42.9894342348383" lon="11.460952495609398"><ele>337.6666666666667</ele><time>2026-04-11T11:08:05Z</time></trkpt><trkpt lat="42.98951972427456" lon="11.46094217055165"><ele>338.5</ele><time>2026-04-11T11:08:07Z</time></trkpt><trkpt lat="42.989603373409444" lon="11.46094990286638"><ele>339.33333333333337</ele><time>2026-04-11T11:08:11Z</time></trkpt><trkpt lat="42.98966935490194" lon="11.460948125497604"><ele>340.1666666666667</ele><time>2026-04-11T11:08:14Z</time></trkpt><trkpt lat="42.989741523880625" lon="11.46094893825353"><ele>341.0</ele><time>2026-04-11T11:08:17Z</time></trkpt><trkpt lat="42.98989423351398" lon="11.460948689068434"><ele>341.0</ele><time>2026-04-11T11:08:25Z</time></trkpt><trkpt lat="42.98996169144318" lon="11.460946048362764"><ele>341.0</ele><time>2026-04-11T11:08:29Z</time></trkpt><trkpt lat="42.99003179679937" lon="11.460947491771785"><ele>341.0</ele><time>2026-04-11T11:08:33Z</time></trkpt><trkpt lat="42.99010205372366" lon="11.460936765881792"><ele>341.0</ele><time>2026-04-11T11:08:37Z</time></trkpt><trkpt lat="42.99017368523092" lon="11.460955663738263"><ele>341.0</ele><time>2026-04-11T11:08:41Z</time></trkpt><trkpt lat="42.99031034226054" lon="11.461005516081054"><ele>341.0</ele><time>2026-04-11T11:08:49Z</time></trkpt><trkpt lat="42.99036342883725" lon="11.461074955022209"><ele>342.6</ele><time>2026-04-11T11:08:53Z</time></trkpt><trkpt lat="42.99041626468982" lon="11.461152450092355"><ele>344.20000000000005</ele><time>2026-04-11T11:08:57Z</time></trkpt><trkpt lat="42.99047215770928" lon="11.461208961605903"><ele>345.79999999999995</ele><time>2026-04-11T11:09:01Z</time></trkpt><trkpt lat="42.99054895653139" lon="11.46129171487028"><ele>347.4</ele><time>2026-04-11T11:09:05Z</time></trkpt><trkpt lat="42.99067790246583" lon="11.46137031293993"><ele>349.0</ele><time>2026-04-11T11:09:14Z</time></trkpt><trkpt lat="42.990751820746404" lon="11.461389044594544"><ele>349.0</ele><time>2026-04-11T11:09:18Z</time></trkpt><trkpt lat="42.990830735626474" lon="11.461370550416099"><ele>349.0</ele><time>2026-04-11T11:09:22Z</time></trkpt><trkpt lat="42.99089227023281" lon="11.461319484509117"><ele>349.0</ele><time>2026-04-11T11:09:26Z</time></trkpt><trkpt lat="42.99098228852033" lon="11.461165050177263"><ele>349.0</ele><time>2026-04-11T11:09:34Z</time></trkpt><trkpt lat="42.99099663526648" lon="11.461067326660093"><ele>349.0</ele><time>2026-04-11T11:09:38Z</time></trkpt><trkpt lat="42.99100721607109" lon="11.460976835984809"><ele>349.0</ele><time>2026-04-11T11:09:42Z</time></trkpt><trkpt lat="42.99103013303454" lon="11.460886507117184"><ele>352.66666666666663</ele><time>2026-04-11T11:09:46Z</time></trkpt><trkpt lat="42.991063194086465" lon="11.460812286268249"><ele>356.3333333333333</ele><time>2026-04-11T11:09:50Z</time></trkpt><trkpt lat="42.9911914226374" lon="11.460735849338164"><ele>360.0</ele><time>2026-04-11T11:09:58Z</time></trkpt><trkpt lat="42.991255890103794" lon="11.460705479421044"><ele>363.6666666666667</ele><time>2026-04-11T11:10:02Z</time></trkpt><trkpt lat="42.99131599359567" lon="11.460676387124778"><ele>367.33333333333337</ele><time>2026-04-11T11:10:06Z</time></trkpt><trkpt lat="42.99137879342964" lon="11.460686014385987"><ele>371.0</ele><time>2026-04-11T11:10:10Z</time></trkpt><trkpt lat="42.99145606856544" lon="11.460692502783209"><ele>371.0</ele><time>2026-04-11T11:10:15Z</time></trkpt><trkpt lat="42.99157740541442" lon="11.460755820715523"><ele>371.0</ele><time>2026-04-11T11:10:23Z</time></trkpt><trkpt lat="42.99164221233548" lon="11.460751423607027"><ele>371.0</ele><time>2026-04-11T11:10:27Z</time></trkpt><trkpt lat="42.991715688526995" lon="11.460731515487943"><ele>371.0</ele><time>2026-04-11T11:10:32Z</time></trkpt><trkpt lat="42.99176384277183" lon="11.460672161604913"><ele>371.0</ele><time>2026-04-11T11:10:36Z</time></trkpt><trkpt lat="42.9917757259288" lon="11.460503759040362"><ele>375.1666666666667</ele><time>2026-04-11T11:10:44Z</time></trkpt><trkpt lat="42.991773403255365" lon="11.460416336002465"><ele>379.33333333333337</ele><time>2026-04-11T11:10:48Z</time></trkpt><trkpt lat="42.991792971056235" lon="11.46032667056393"><ele>383.5</ele><time>2026-04-11T11:10:52Z</time></trkpt><trkpt lat="42.99181427949974" lon="11.460234808838296"><ele>387.6666666666667</ele><time>2026-04-11T11:10:56Z</time></trkpt><trkpt lat="42.99183826870127" lon="11.460134509883282"><ele>391.8333333333333</ele><time>2026-04-11T11:11:01Z</time></trkpt><trkpt lat="42.99190749497092" lon="11.45996334094568"><ele>396.0</ele><time>2026-04-11T11:11:09Z</time></trkpt><trkpt lat="42.99194318835312" lon="11.45986945037824"><ele>396.0</ele><time>2026-04-11T11:11:13Z</time></trkpt><trkpt lat="42.99198922297262" lon="11.459774415659977"><ele>396.0</ele><time>2026-04-11T11:11:17Z</time></trkpt><trkpt lat="42.992038156974616" lon="11.45970997996661"><ele>396.0</ele><time>2026-04-11T11:11:20Z</time></trkpt><trkpt lat="42.99210154069435" lon="11.459633170913019"><ele>396.0</ele><time>2026-04-11T11:11:24Z</time></trkpt><trkpt lat="42.992205184717584" lon="11.459523015818544"><ele>396.0</ele><time>2026-04-11T11:11:30Z</time></trkpt><trkpt lat="42.99225905899806" lon="11.459477679597487"><ele>396.0</ele><time>2026-04-11T11:11:33Z</time></trkpt><trkpt lat="42.99233302624098" lon="11.45942793904776"><ele>396.5</ele><time>2026-04-11T11:11:37Z</time></trkpt><trkpt lat="42.99240917135576" lon="11.459383263967604"><ele>397.0</ele><time>2026-04-11T11:11:41Z</time></trkpt><trkpt lat="42.99246945584202" lon="11.459340354897783"><ele>397.5</ele><time>2026-04-11T11:11:45Z</time></trkpt><trkpt lat="42.9925942687716" lon="11.45928265435429"><ele>398.0</ele><time>2026-04-11T11:11:54Z</time></trkpt><trkpt lat="42.99266728289433" lon="11.459260867439799"><ele>398.5</ele><time>2026-04-11T11:11:59Z</time></trkpt><trkpt lat="42.99272224566729" lon="11.459217784509176"><ele>399.0</ele><time>2026-04-11T11:12:03Z</time></trkpt><trkpt lat="42.9927855722824" lon="11.459233184154067"><ele>399.0</ele><time>2026-04-11T11:12:10Z</time></trkpt><trkpt lat="42.99291486681597" lon="11.45916138462366"><ele>399.0</ele><time>2026-04-11T11:12:18Z</time></trkpt><trkpt lat="42.99298088030013" lon="11.459116189671807"><ele>399.0</ele><time>2026-04-11T11:12:22Z</time></trkpt><trkpt lat="42.99305023562453" lon="11.45910464807358"><ele>399.0</ele><time>2026-04-11T11:12:26Z</time></trkpt><trkpt lat="42.993118908694335" lon="11.459086867741432"><ele>399.0</ele><time>2026-04-11T11:12:30Z</time></trkpt><trkpt lat="42.99318831271246" lon="11.459075706069706"><ele>399.0</ele><time>2026-04-11T11:12:34Z</time></trkpt><trkpt lat="42.99332311047932" lon="11.459038778166937"><ele>400.6666666666667</ele><time>2026-04-11T11:12:42Z</time></trkpt><trkpt lat="42.99339675367626" lon="11.459006066835913"><ele>402.33333333333337</ele><time>2026-04-11T11:12:46Z</time></trkpt><trkpt lat="42.99346532035721" lon="11.458987133356777"><ele>404.0</ele><time>2026-04-11T11:12:49Z</time></trkpt><trkpt lat="42.99354413821013" lon="11.458951370761906"><ele>405.6666666666667</ele><time>2026-04-11T11:12:53.001Z</time></trkpt><trkpt lat="42.993618679280274" lon="11.458924312775954"><ele>407.33333333333337</ele><time>2026-04-11T11:12:56.001Z</time></trkpt><trkpt lat="42.99375138828129" lon="11.458858450736724"><ele>409.0</ele><time>2026-04-11T11:13:00.001Z</time></trkpt><trkpt lat="42.99382464687607" lon="11.458832831476967"><ele>409.00000000000006</ele><time>2026-04-11T11:13:02.001Z</time></trkpt><trkpt lat="42.99388637634595" lon="11.45879544327927"><ele>409.0</ele><time>2026-04-11T11:13:04Z</time></trkpt><trkpt lat="42.993973717376925" lon="11.45874792058553"><ele>409.0</ele><time>2026-04-11T11:13:07Z</time></trkpt><trkpt lat="42.99405469760569" lon="11.458732325940241"><ele>409.0</ele><time>2026-04-11T11:13:09Z</time></trkpt><trkpt lat="42.99412646062528" lon="11.458710305844221"><ele>409.00000000000006</ele><time>2026-04-11T11:13:11Z</time></trkpt><trkpt lat="42.99422654158287" lon="11.458677758316776"><ele>409.0</ele><time>2026-04-11T11:13:13Z</time></trkpt><trkpt lat="42.99432250317781" lon="11.458618600004133"><ele>403.5</ele><time>2026-04-11T11:13:15Z</time></trkpt><trkpt lat="42.99442509927631" lon="11.458550918098169"><ele>398.0</ele><time>2026-04-11T11:13:17Z</time></trkpt><trkpt lat="42.99460188253466" lon="11.458484901823681"><ele>392.5</ele><time>2026-04-11T11:13:20Z</time></trkpt><trkpt lat="42.99472287803476" lon="11.458496764088112"><ele>387.0</ele><time>2026-04-11T11:13:22Z</time></trkpt><trkpt lat="42.99484271776524" lon="11.458522266981625"><ele>387.0</ele><time>2026-04-11T11:13:24Z</time></trkpt><trkpt lat="42.994947033045655" lon="11.458578123582484"><ele>387.0</ele><time>2026-04-11T11:13:26Z</time></trkpt><trkpt lat="42.99503471186511" lon="11.458636016376385"><ele>387.0</ele><time>2026-04-11T11:13:28Z</time></trkpt><trkpt lat="42.99509102263035" lon="11.45868588544787"><ele>387.0</ele><time>2026-04-11T11:13:30Z</time></trkpt><trkpt lat="42.995158191009736" lon="11.458704663134696"><ele>387.0</ele><time>2026-04-11T11:13:34Z</time></trkpt><trkpt lat="42.99516925155387" lon="11.458795342545926"><ele>387.0</ele><time>2026-04-11T11:13:39Z</time></trkpt><trkpt lat="42.99525207234179" lon="11.458938426499932"><ele>387.8333333333333</ele><time>2026-04-11T11:13:46Z</time></trkpt><trkpt lat="42.995295035299144" lon="11.45903239559926"><ele>388.66666666666663</ele><time>2026-04-11T11:13:50Z</time></trkpt><trkpt lat="42.99529315056871" lon="11.459126769780386"><ele>389.5</ele><time>2026-04-11T11:13:53Z</time></trkpt><trkpt lat="42.99534365024159" lon="11.459207304458896"><ele>390.3333333333333</ele><time>2026-04-11T11:13:58Z</time></trkpt><trkpt lat="42.99537478862947" lon="11.459288739894395"><ele>391.16666666666663</ele><time>2026-04-11T11:14:02Z</time></trkpt><trkpt lat="42.99543896159664" lon="11.459446453094612"><ele>392.0</ele><time>2026-04-11T11:14:10Z</time></trkpt><trkpt lat="42.99547577256373" lon="11.459537338983445"><ele>394.49999999999994</ele><time>2026-04-11T11:14:15Z</time></trkpt><trkpt lat="42.99549942330692" lon="11.459617859276849"><ele>397.0</ele><time>2026-04-11T11:14:19Z</time></trkpt><trkpt lat="42.99552098127037" lon="11.459704658914763"><ele>399.5</ele><time>2026-04-11T11:14:23Z</time></trkpt><trkpt lat="42.99558552799653" lon="11.459857756729495"><ele>402.0</ele><time>2026-04-11T11:14:31Z</time></trkpt><trkpt lat="42.995610395383245" lon="11.459955617937553"><ele>404.49999999999994</ele><time>2026-04-11T11:14:36Z</time></trkpt><trkpt lat="42.99563303609681" lon="11.460051007541008"><ele>407.0</ele><time>2026-04-11T11:14:41Z</time></trkpt><trkpt lat="42.99566296238605" lon="11.460139305172609"><ele>407.0</ele><time>2026-04-11T11:14:46Z</time></trkpt><trkpt lat="42.99568908904094" lon="11.460331066778974"><ele>407.0</ele><time>2026-04-11T11:14:56.001Z</time></trkpt><trkpt lat="42.995699783223934" lon="11.46042965476322"><ele>407.0</ele><time>2026-04-11T11:15:01.001Z</time></trkpt><trkpt lat="42.99572954170325" lon="11.460510347381687"><ele>407.0</ele><time>2026-04-11T11:15:05.001Z</time></trkpt><trkpt lat="42.99577895143089" lon="11.460581484860233"><ele>407.0</ele><time>2026-04-11T11:15:08.001Z</time></trkpt><trkpt lat="42.9958777871386" lon="11.460713088351111"><ele>408.49999999999994</ele><time>2026-04-11T11:15:20Z</time></trkpt><trkpt lat="42.995897293304225" lon="11.46080794189983"><ele>410.0</ele><time>2026-04-11T11:15:24Z</time></trkpt><trkpt lat="42.995954706060125" lon="11.460862187568422"><ele>411.5</ele><time>2026-04-11T11:15:27Z</time></trkpt><trkpt lat="42.99600665938398" lon="11.460944522155161"><ele>413.0</ele><time>2026-04-11T11:15:31Z</time></trkpt><trkpt lat="42.99599208369042" lon="11.460873709690622"><ele>414.49999999999994</ele><time>2026-04-11T11:16:58.001Z</time></trkpt><trkpt lat="42.99590196492918" lon="11.460718386326185"><ele>416.0</ele><time>2026-04-11T11:17:07.001Z</time></trkpt><trkpt lat="42.99585380041825" lon="11.460640170995415"><ele>415.99999999999994</ele><time>2026-04-11T11:17:10.001Z</time></trkpt><trkpt lat="42.99588342192698" lon="11.460519922860499"><ele>416.0</ele><time>2026-04-11T11:17:13.001Z</time></trkpt><trkpt lat="42.99598053536424" lon="11.460484644712878"><ele>416.0</ele><time>2026-04-11T11:17:15Z</time></trkpt><trkpt lat="42.996080717262736" lon="11.460444674609068"><ele>416.0</ele><time>2026-04-11T11:17:17Z</time></trkpt><trkpt lat="42.99614350626268" lon="11.460432421997368"><ele>415.99999999999994</ele><time>2026-04-11T11:17:18Z</time></trkpt><trkpt lat="42.99620198716352" lon="11.460393060567165"><ele>416.0</ele><time>2026-04-11T11:17:19Z</time></trkpt><trkpt lat="42.9963163439517" lon="11.460296033833346"><ele>415.3333333333333</ele><time>2026-04-11T11:17:21Z</time></trkpt><trkpt lat="42.99636594679722" lon="11.460232337501044"><ele>414.66666666666663</ele><time>2026-04-11T11:17:22Z</time></trkpt><trkpt lat="42.99640606630848" lon="11.460150335962023"><ele>414.0</ele><time>2026-04-11T11:17:23Z</time></trkpt><trkpt lat="42.99643577141269" lon="11.46006496533022"><ele>413.33333333333337</ele><time>2026-04-11T11:17:24Z</time></trkpt><trkpt lat="42.99647073232223" lon="11.459984720261964"><ele>412.6666666666667</ele><time>2026-04-11T11:17:25Z</time></trkpt><trkpt lat="42.99653193669683" lon="11.459845267220008"><ele>412.0</ele><time>2026-04-11T11:17:27Z</time></trkpt><trkpt lat="42.996589078246195" lon="11.459739403964555"><ele>412.00000000000006</ele><time>2026-04-11T11:17:29Z</time></trkpt><trkpt lat="42.996653244119024" lon="11.459659523935127"><ele>412.0</ele><time>2026-04-11T11:17:31Z</time></trkpt><trkpt lat="42.99670289047419" lon="11.459574889757569"><ele>412.0</ele><time>2026-04-11T11:17:33Z</time></trkpt><trkpt lat="42.996749524175684" lon="11.459493673128799"><ele>412.0</ele><time>2026-04-11T11:17:35Z</time></trkpt><trkpt lat="42.99679964059277" lon="11.459412230339582"><ele>412.00000000000006</ele><time>2026-04-11T11:17:37Z</time></trkpt><trkpt lat="42.99684343563074" lon="11.459326243866867"><ele>412.0</ele><time>2026-04-11T11:17:39Z</time></trkpt><trkpt lat="42.996880207280086" lon="11.459235245070628"><ele>412.8</ele><time>2026-04-11T11:17:41Z</time></trkpt><trkpt lat="42.99696003180394" lon="11.459038492755257"><ele>413.6</ele><time>2026-04-11T11:17:45Z</time></trkpt><trkpt lat="42.99699377822963" lon="11.45892614675607"><ele>414.40000000000003</ele><time>2026-04-11T11:17:47Z</time></trkpt><trkpt lat="42.99702876699961" lon="11.458809477790286"><ele>415.20000000000005</ele><time>2026-04-11T11:17:49Z</time></trkpt><trkpt lat="42.99710175297594" lon="11.458729839122855"><ele>416.0</ele><time>2026-04-11T11:17:51Z</time></trkpt><trkpt lat="42.99717774475752" lon="11.458719034193544"><ele>415.99999999999994</ele><time>2026-04-11T11:17:53Z</time></trkpt><trkpt lat="42.997246378825196" lon="11.458744154626656"><ele>416.0</ele><time>2026-04-11T11:17:55Z</time></trkpt><trkpt lat="42.997339248671665" lon="11.45872534284157"><ele>416.0</ele><time>2026-04-11T11:17:58Z</time></trkpt><trkpt lat="42.99740378591292" lon="11.458710303702153"><ele>416.0</ele><time>2026-04-11T11:18:00Z</time></trkpt><trkpt lat="42.997466784531206" lon="11.458694583092955"><ele>415.99999999999994</ele><time>2026-04-11T11:18:02Z</time></trkpt><trkpt lat="42.99758463524127" lon="11.458608230838923"><ele>416.0</ele><time>2026-04-11T11:18:06Z</time></trkpt><trkpt lat="42.997672807663115" lon="11.45856146155616"><ele>416.57142857142856</ele><time>2026-04-11T11:18:09Z</time></trkpt><trkpt lat="42.997728595761934" lon="11.45851993063978"><ele>417.14285714285717</ele><time>2026-04-11T11:18:11Z</time></trkpt><trkpt lat="42.997788247317125" lon="11.458479900556545"><ele>417.7142857142857</ele><time>2026-04-11T11:18:13Z</time></trkpt><trkpt lat="42.99785011246866" lon="11.458441431380347"><ele>418.2857142857143</ele><time>2026-04-11T11:18:15Z</time></trkpt><trkpt lat="42.99793652153727" lon="11.458390063292919"><ele>418.8571428571429</ele><time>2026-04-11T11:18:18Z</time></trkpt><trkpt lat="42.997992961211295" lon="11.458348618130985"><ele>419.42857142857144</ele><time>2026-04-11T11:18:20Z</time></trkpt><trkpt lat="42.99807610097566" lon="11.45829967880151"><ele>420.0</ele><time>2026-04-11T11:18:23Z</time></trkpt><trkpt lat="42.998219561274475" lon="11.458207563817574"><ele>420.0</ele><time>2026-04-11T11:18:29Z</time></trkpt><trkpt lat="42.99828722052271" lon="11.458169397393737"><ele>420.0</ele><time>2026-04-11T11:18:32Z</time></trkpt><trkpt lat="42.99835846745228" lon="11.458122008060881"><ele>420.0</ele><time>2026-04-11T11:18:35Z</time></trkpt><trkpt lat="42.99843025238335" lon="11.4580835049258"><ele>420.0</ele><time>2026-04-11T11:18:38Z</time></trkpt><trkpt lat="42.99850646236417" lon="11.458046287806292"><ele>420.0</ele><time>2026-04-11T11:18:41Z</time></trkpt><trkpt lat="42.998585934059534" lon="11.4580248078935"><ele>420.0</ele><time>2026-04-11T11:18:44Z</time></trkpt><trkpt lat="42.99874553797163" lon="11.45798451490241"><ele>420.1666666666667</ele><time>2026-04-11T11:18:50Z</time></trkpt><trkpt lat="42.99882985607782" lon="11.457969442104929"><ele>420.33333333333337</ele><time>2026-04-11T11:18:53Z</time></trkpt><trkpt lat="42.99891250932361" lon="11.457955517083796"><ele>420.5</ele><time>2026-04-11T11:18:56Z</time></trkpt><trkpt lat="42.998997947138434" lon="11.457935693500577"><ele>420.6666666666667</ele><time>2026-04-11T11:18:59Z</time></trkpt><trkpt lat="42.999084969060675" lon="11.457922729542286"><ele>420.83333333333337</ele><time>2026-04-11T11:19:02Z</time></trkpt><trkpt lat="42.9991671607726" lon="11.457890787358965"><ele>421.0</ele><time>2026-04-11T11:19:05Z</time></trkpt><trkpt lat="42.9993314663021" lon="11.457860833145865"><ele>421.00000000000006</ele><time>2026-04-11T11:19:11Z</time></trkpt><trkpt lat="42.99941127786699" lon="11.457839713697041"><ele>421.0</ele><time>2026-04-11T11:19:14Z</time></trkpt><trkpt lat="42.99949870993458" lon="11.457830656613563"><ele>421.0</ele><time>2026-04-11T11:19:17Z</time></trkpt><trkpt lat="42.99956346269843" lon="11.457820049925962"><ele>421.0</ele><time>2026-04-11T11:19:19Z</time></trkpt><trkpt lat="42.99963236275564" lon="11.457810859172396"><ele>421.00000000000006</ele><time>2026-04-11T11:19:21Z</time></trkpt><trkpt lat="42.99970623034655" lon="11.457813359342945"><ele>421.0</ele><time>2026-04-11T11:19:23Z</time></trkpt><trkpt lat="42.99977976189526" lon="11.457801074399242"><ele>421.0</ele><time>2026-04-11T11:19:25Z</time></trkpt><trkpt lat="42.999857523918436" lon="11.457791594141726"><ele>421.0</ele><time>2026-04-11T11:19:27Z</time></trkpt><trkpt lat="43.00002500587352" lon="11.457789397961392"><ele>421.0</ele><time>2026-04-11T11:19:31Z</time></trkpt><trkpt lat="43.000119486030265" lon="11.457789468572008"><ele>421.0</ele><time>2026-04-11T11:19:33Z</time></trkpt><trkpt lat="43.00021431987653" lon="11.457796132997274"><ele>421.0</ele><time>2026-04-11T11:19:35Z</time></trkpt><trkpt lat="43.00031464561678" lon="11.457805996794564"><ele>421.0</ele><time>2026-04-11T11:19:37Z</time></trkpt><trkpt lat="43.000422618750285" lon="11.457802907123757"><ele>421.0</ele><time>2026-04-11T11:19:39Z</time></trkpt><trkpt lat="43.00053455711162" lon="11.457800871833635"><ele>421.0</ele><time>2026-04-11T11:19:41Z</time></trkpt><trkpt lat="43.00064869630558" lon="11.457836521540719"><ele>421.0</ele><time>2026-04-11T11:19:43Z</time></trkpt><trkpt lat="43.00076285714838" lon="11.457880161730973"><ele>421.00000000000006</ele><time>2026-04-11T11:19:45Z</time></trkpt><trkpt lat="43.00082220148326" lon="11.457917419231178"><ele>421.0</ele><time>2026-04-11T11:19:46Z</time></trkpt><trkpt lat="43.00087920266466" lon="11.457957562194494"><ele>421.0</ele><time>2026-04-11T11:19:47Z</time></trkpt><trkpt lat="43.000937950385975" lon="11.458001601368155"><ele>421.0</ele><time>2026-04-11T11:19:48Z</time></trkpt><trkpt lat="43.001052578245776" lon="11.458085773210993"><ele>421.00000000000006</ele><time>2026-04-11T11:19:50Z</time></trkpt><trkpt lat="43.00111172612581" lon="11.458137986411398"><ele>421.0</ele><time>2026-04-11T11:19:51Z</time></trkpt><trkpt lat="43.00116694676217" lon="11.458190766323465"><ele>422.50000000000006</ele><time>2026-04-11T11:19:52Z</time></trkpt><trkpt lat="43.00122294663594" lon="11.458239154368487"><ele>424.0</ele><time>2026-04-11T11:19:53Z</time></trkpt><trkpt lat="43.00133348919757" lon="11.458333888689822"><ele>425.5</ele><time>2026-04-11T11:19:55Z</time></trkpt><trkpt lat="43.0013871966854" lon="11.458387167531699"><ele>427.0</ele><time>2026-04-11T11:19:56Z</time></trkpt><trkpt lat="43.001444539766425" lon="11.458430974400288"><ele>428.50000000000006</ele><time>2026-04-11T11:19:57Z</time></trkpt><trkpt lat="43.00149949121707" lon="11.458477789302078"><ele>430.0</ele><time>2026-04-11T11:19:58Z</time></trkpt><trkpt lat="43.00155869475195" lon="11.458531669374173"><ele>430.0</ele><time>2026-04-11T11:19:59Z</time></trkpt><trkpt lat="43.00161209984414" lon="11.458579060826334"><ele>430.0</ele><time>2026-04-11T11:20:00Z</time></trkpt><trkpt lat="43.0016669630619" lon="11.458628988915539"><ele>430.0</ele><time>2026-04-11T11:20:01Z</time></trkpt><trkpt lat="43.00172339117919" lon="11.458679513671457"><ele>430.0</ele><time>2026-04-11T11:20:02Z</time></trkpt><trkpt lat="43.00177883797605" lon="11.458735694367958"><ele>430.0</ele><time>2026-04-11T11:20:03Z</time></trkpt><trkpt lat="43.00184006329977" lon="11.458783980119799"><ele>430.0</ele><time>2026-04-11T11:20:04Z</time></trkpt><trkpt lat="43.00189699746676" lon="11.45883636499669"><ele>430.0</ele><time>2026-04-11T11:20:05Z</time></trkpt><trkpt lat="43.00195598375542" lon="11.458891644464654"><ele>431.00000000000006</ele><time>2026-04-11T11:20:06Z</time></trkpt><trkpt lat="43.0020148068486" lon="11.458952185496758"><ele>432.0</ele><time>2026-04-11T11:20:07Z</time></trkpt><trkpt lat="43.002074321172934" lon="11.459006619657895"><ele>433.0</ele><time>2026-04-11T11:20:08Z</time></trkpt><trkpt lat="43.002127931173646" lon="11.459072894338107"><ele>434.0</ele><time>2026-04-11T11:20:09Z</time></trkpt><trkpt lat="43.00223459119191" lon="11.459196228579927"><ele>435.00000000000006</ele><time>2026-04-11T11:20:11Z</time></trkpt><trkpt lat="43.00228142338397" lon="11.459269275560123"><ele>436.0</ele><time>2026-04-11T11:20:12Z</time></trkpt><trkpt lat="43.00233408029215" lon="11.459332094155707"><ele>436.00000000000006</ele><time>2026-04-11T11:20:13Z</time></trkpt><trkpt lat="43.00238342437491" lon="11.459404847258265"><ele>436.0</ele><time>2026-04-11T11:20:14Z</time></trkpt><trkpt lat="43.00242970929138" lon="11.459487749133837"><ele>436.0</ele><time>2026-04-11T11:20:15Z</time></trkpt><trkpt lat="43.002481728708325" lon="11.45956524720026"><ele>436.0</ele><time>2026-04-11T11:20:16Z</time></trkpt><trkpt lat="43.00252848453364" lon="11.459648585999785"><ele>436.00000000000006</ele><time>2026-04-11T11:20:17Z</time></trkpt><trkpt lat="43.00257756272927" lon="11.459729455358895"><ele>436.0</ele><time>2026-04-11T11:20:18Z</time></trkpt><trkpt lat="43.00263016236671" lon="11.459808944956217"><ele>434.1666666666667</ele><time>2026-04-11T11:20:19Z</time></trkpt><trkpt lat="43.002669541351565" lon="11.45990529258428"><ele>432.33333333333337</ele><time>2026-04-11T11:20:20Z</time></trkpt><trkpt lat="43.002711831979056" lon="11.45999866009125"><ele>430.5</ele><time>2026-04-11T11:20:21Z</time></trkpt><trkpt lat="43.00275177453637" lon="11.460096035841827"><ele>428.66666666666663</ele><time>2026-04-11T11:20:22Z</time></trkpt><trkpt lat="43.002782244135695" lon="11.460204356163885"><ele>426.8333333333333</ele><time>2026-04-11T11:20:23Z</time></trkpt><trkpt lat="43.00282162389685" lon="11.460306254175034"><ele>425.0</ele><time>2026-04-11T11:20:24Z</time></trkpt><trkpt lat="43.00285917136212" lon="11.460411054061334"><ele>426.16666666666663</ele><time>2026-04-11T11:20:25Z</time></trkpt><trkpt lat="43.00289315606512" lon="11.46051924803654"><ele>427.3333333333333</ele><time>2026-04-11T11:20:26Z</time></trkpt><trkpt lat="43.00292392172543" lon="11.460625181156935"><ele>428.5</ele><time>2026-04-11T11:20:27Z</time></trkpt><trkpt lat="43.00294306666712" lon="11.460736605258178"><ele>429.66666666666663</ele><time>2026-04-11T11:20:28Z</time></trkpt><trkpt lat="43.002959412764156" lon="11.460845714756132"><ele>430.8333333333333</ele><time>2026-04-11T11:20:29Z</time></trkpt><trkpt lat="43.002975169666826" lon="11.460951311077286"><ele>432.0</ele><time>2026-04-11T11:20:30Z</time></trkpt><trkpt lat="43.00300014917282" lon="11.461159632893292"><ele>432.0</ele><time>2026-04-11T11:20:32Z</time></trkpt><trkpt lat="43.00300432674915" lon="11.461262765281434"><ele>432.0</ele><time>2026-04-11T11:20:33Z</time></trkpt><trkpt lat="43.00300486361465" lon="11.461368682004158"><ele>432.0</ele><time>2026-04-11T11:20:34Z</time></trkpt><trkpt lat="43.00300781384461" lon="11.461473935781529"><ele>432.0</ele><time>2026-04-11T11:20:35Z</time></trkpt><trkpt lat="43.00301294113578" lon="11.461577620704245"><ele>432.0</ele><time>2026-04-11T11:20:36Z</time></trkpt><trkpt lat="43.003015492517044" lon="11.461683908937692"><ele>432.0</ele><time>2026-04-11T11:20:37Z</time></trkpt><trkpt lat="43.00302091785877" lon="11.46178573827739"><ele>431.42857142857144</ele><time>2026-04-11T11:20:38Z</time></trkpt><trkpt lat="43.00302220159225" lon="11.461890596902755"><ele>430.85714285714283</ele><time>2026-04-11T11:20:39Z</time></trkpt><trkpt lat="43.003020262630876" lon="11.461994571324018"><ele>430.28571428571433</ele><time>2026-04-11T11:20:40Z</time></trkpt><trkpt lat="43.003025740600776" lon="11.462099708814884"><ele>429.7142857142857</ele><time>2026-04-11T11:20:41Z</time></trkpt><trkpt lat="43.00303372768807" lon="11.462198082225168"><ele>429.14285714285717</ele><time>2026-04-11T11:20:42Z</time></trkpt><trkpt lat="43.0030508727017" lon="11.4622933208746"><ele>428.5714285714286</ele><time>2026-04-11T11:20:43Z</time></trkpt><trkpt lat="43.003077028461625" lon="11.462382100565343"><ele>428.0</ele><time>2026-04-11T11:20:44Z</time></trkpt><trkpt lat="43.003105385932614" lon="11.462464728785555"><ele>427.79999999999995</ele><time>2026-04-11T11:20:45Z</time></trkpt><trkpt lat="43.00313993257917" lon="11.462541517256522"><ele>427.59999999999997</ele><time>2026-04-11T11:20:46Z</time></trkpt><trkpt lat="43.00321160762567" lon="11.46267876430677"><ele>427.40000000000003</ele><time>2026-04-11T11:20:48Z</time></trkpt><trkpt lat="43.00328869376715" lon="11.462801073848894"><ele>427.20000000000005</ele><time>2026-04-11T11:20:50Z</time></trkpt><trkpt lat="43.00337102956649" lon="11.462896712096924"><ele>427.0</ele><time>2026-04-11T11:20:52Z</time></trkpt><trkpt lat="43.00354554366875" lon="11.463031511180734"><ele>424.8</ele><time>2026-04-11T11:20:56.001Z</time></trkpt><trkpt lat="43.00362487105387" lon="11.463075746585384"><ele>422.6</ele><time>2026-04-11T11:20:58.001Z</time></trkpt><trkpt lat="43.0036633256031" lon="11.46317972154752"><ele>420.40000000000003</ele><time>2026-04-11T11:21:00.001Z</time></trkpt><trkpt lat="43.003698347441755" lon="11.463280879865456"><ele>418.20000000000005</ele><time>2026-04-11T11:21:02.001Z</time></trkpt><trkpt lat="43.00377213605769" lon="11.46337055789256"><ele>416.0</ele><time>2026-04-11T11:21:04.001Z</time></trkpt><trkpt lat="43.00385712784307" lon="11.463462437154618"><ele>416.0</ele><time>2026-04-11T11:21:06.001Z</time></trkpt><trkpt lat="43.003947239295975" lon="11.463547454572877"><ele>416.0</ele><time>2026-04-11T11:21:08.001Z</time></trkpt><trkpt lat="43.00402742538011" lon="11.463636874523575"><ele>416.0</ele><time>2026-04-11T11:21:10.001Z</time></trkpt><trkpt lat="43.00409377437184" lon="11.4637207059486"><ele>416.0</ele><time>2026-04-11T11:21:12.001Z</time></trkpt><trkpt lat="43.00416039925613" lon="11.46378087136556"><ele>416.0</ele><time>2026-04-11T11:21:14.001Z</time></trkpt><trkpt lat="43.00430766393927" lon="11.463871043876358"><ele>415.8333333333333</ele><time>2026-04-11T11:21:18.001Z</time></trkpt><trkpt lat="43.00437406784863" lon="11.463918944994843"><ele>415.66666666666663</ele><time>2026-04-11T11:21:20.001Z</time></trkpt><trkpt lat="43.00444919947341" lon="11.463957089262864"><ele>415.5</ele><time>2026-04-11T11:21:22.001Z</time></trkpt><trkpt lat="43.004525404050845" lon="11.46398153151538"><ele>415.33333333333337</ele><time>2026-04-11T11:21:24.001Z</time></trkpt><trkpt lat="43.00459205858515" lon="11.464030295114037"><ele>415.1666666666667</ele><time>2026-04-11T11:21:26.001Z</time></trkpt><trkpt lat="43.00465127413121" lon="11.464093223897343"><ele>415.0</ele><time>2026-04-11T11:21:28Z</time></trkpt><trkpt lat="43.004704653813185" lon="11.464160489252304"><ele>415.0</ele><time>2026-04-11T11:21:30Z</time></trkpt><trkpt lat="43.00473996109032" lon="11.46423314383389"><ele>415.0</ele><time>2026-04-11T11:21:32Z</time></trkpt><trkpt lat="43.004770829993156" lon="11.464322880204792"><ele>415.0</ele><time>2026-04-11T11:21:34Z</time></trkpt><trkpt lat="43.00479568545572" lon="11.464418817240213"><ele>415.0</ele><time>2026-04-11T11:21:36Z</time></trkpt><trkpt lat="43.00482080156206" lon="11.464644905495392"><ele>415.0</ele><time>2026-04-11T11:21:40Z</time></trkpt><trkpt lat="43.00482864487135" lon="11.464770329539713"><ele>414.0</ele><time>2026-04-11T11:21:42Z</time></trkpt><trkpt lat="43.004829279867764" lon="11.464899041980999"><ele>413.0</ele><time>2026-04-11T11:21:44Z</time></trkpt><trkpt lat="43.00481105935202" lon="11.465029509509597"><ele>412.0</ele><time>2026-04-11T11:21:46Z</time></trkpt><trkpt lat="43.004786062650744" lon="11.465155640294853"><ele>411.0</ele><time>2026-04-11T11:21:48Z</time></trkpt><trkpt lat="43.004743727096695" lon="11.465268946683263"><ele>410.0</ele><time>2026-04-11T11:21:50Z</time></trkpt><trkpt lat="43.004702643904004" lon="11.465383134585585"><ele>409.8</ele><time>2026-04-11T11:21:52Z</time></trkpt><trkpt lat="43.00466942449411" lon="11.465510403136593"><ele>409.6</ele><time>2026-04-11T11:21:54Z</time></trkpt><trkpt lat="43.00465637510157" lon="11.465646990028972"><ele>409.4</ele><time>2026-04-11T11:21:56Z</time></trkpt><trkpt lat="43.00464312869964" lon="11.46580304244042"><ele>409.2</ele><time>2026-04-11T11:21:58Z</time></trkpt><trkpt lat="43.00465056209803" lon="11.465980324270737"><ele>409.0</ele><time>2026-04-11T11:22:00Z</time></trkpt><trkpt lat="43.004647409812236" lon="11.466077658466721"><ele>409.00000000000006</ele><time>2026-04-11T11:22:01Z</time></trkpt><trkpt lat="43.0046389993289" lon="11.466182979449707"><ele>409.0</ele><time>2026-04-11T11:22:02Z</time></trkpt><trkpt lat="43.00463800454883" lon="11.466289075109101"><ele>409.0</ele><time>2026-04-11T11:22:03Z</time></trkpt><trkpt lat="43.00463700711134" lon="11.466401054270031"><ele>409.0</ele><time>2026-04-11T11:22:04Z</time></trkpt><trkpt lat="43.0046394461025" lon="11.466516429413035"><ele>409.00000000000006</ele><time>2026-04-11T11:22:05Z</time></trkpt><trkpt lat="43.00464349611817" lon="11.466635728607026"><ele>409.0</ele><time>2026-04-11T11:22:06Z</time></trkpt><trkpt lat="43.00464978696342" lon="11.466761398648957"><ele>408.33333333333337</ele><time>2026-04-11T11:22:07Z</time></trkpt><trkpt lat="43.004655735053795" lon="11.466893927697956"><ele>407.6666666666667</ele><time>2026-04-11T11:22:08Z</time></trkpt><trkpt lat="43.00466188743358" lon="11.467014371345542"><ele>407.0</ele><time>2026-04-11T11:22:09Z</time></trkpt><trkpt lat="43.00466865992323" lon="11.467130702915624"><ele>406.33333333333337</ele><time>2026-04-11T11:22:10Z</time></trkpt><trkpt lat="43.004677506571376" lon="11.467233767346354"><ele>405.6666666666667</ele><time>2026-04-11T11:22:11Z</time></trkpt><trkpt lat="43.004691335642946" lon="11.467329188220171"><ele>405.0</ele><time>2026-04-11T11:22:12Z</time></trkpt><trkpt lat="43.00470886975696" lon="11.46742712337485"><ele>404.3333333333333</ele><time>2026-04-11T11:22:13Z</time></trkpt><trkpt lat="43.00472991851322" lon="11.467527257755954"><ele>403.66666666666663</ele><time>2026-04-11T11:22:14Z</time></trkpt><trkpt lat="43.004751770676" lon="11.467635048848488"><ele>403.0</ele><time>2026-04-11T11:22:15Z</time></trkpt><trkpt lat="43.00476826234318" lon="11.467741276593658"><ele>402.3333333333333</ele><time>2026-04-11T11:22:16Z</time></trkpt><trkpt lat="43.00477147347602" lon="11.467852086762031"><ele>401.66666666666663</ele><time>2026-04-11T11:22:17Z</time></trkpt><trkpt lat="43.004757794143764" lon="11.467973973467851"><ele>401.0</ele><time>2026-04-11T11:22:18Z</time></trkpt><trkpt lat="43.00472287608356" lon="11.468082113215623"><ele>401.0</ele><time>2026-04-11T11:22:19Z</time></trkpt><trkpt lat="43.00465501080222" lon="11.46825133995896"><ele>401.0</ele><time>2026-04-11T11:22:21Z</time></trkpt><trkpt lat="43.00453795209727" lon="11.468314416084052"><ele>401.0</ele><time>2026-04-11T11:22:23Z</time></trkpt><trkpt lat="43.004471239914835" lon="11.468309551506495"><ele>401.0</ele><time>2026-04-11T11:22:24Z</time></trkpt><trkpt lat="43.00440223398067" lon="11.468301626355116"><ele>401.0</ele><time>2026-04-11T11:22:25Z</time></trkpt><trkpt lat="43.0043228091462" lon="11.46829345967611"><ele>400.99999999999994</ele><time>2026-04-11T11:22:26Z</time></trkpt><trkpt lat="43.004238600931274" lon="11.468285206570114"><ele>401.0</ele><time>2026-04-11T11:22:27Z</time></trkpt><trkpt lat="43.004155107310474" lon="11.46829618838652"><ele>401.0</ele><time>2026-04-11T11:22:28Z</time></trkpt><trkpt lat="43.00407672701664" lon="11.468316458909477"><ele>401.0</ele><time>2026-04-11T11:22:29Z</time></trkpt><trkpt lat="43.003997188056495" lon="11.468355164791014"><ele>400.99999999999994</ele><time>2026-04-11T11:22:30Z</time></trkpt><trkpt lat="43.003922705927216" lon="11.468410888827986"><ele>401.0</ele><time>2026-04-11T11:22:31Z</time></trkpt><trkpt lat="43.00384881531037" lon="11.468492157858668"><ele>399.16666666666663</ele><time>2026-04-11T11:22:32Z</time></trkpt><trkpt lat="43.0037859021982" lon="11.468588665472703"><ele>397.3333333333333</ele><time>2026-04-11T11:22:33Z</time></trkpt><trkpt lat="43.003726632709366" lon="11.468682158812847"><ele>395.5</ele><time>2026-04-11T11:22:34Z</time></trkpt><trkpt lat="43.00369066071674" lon="11.468775571354552"><ele>393.66666666666663</ele><time>2026-04-11T11:22:35Z</time></trkpt><trkpt lat="43.00368160685286" lon="11.468902340672013"><ele>391.8333333333333</ele><time>2026-04-11T11:22:36Z</time></trkpt><trkpt lat="43.0036725233394" lon="11.469012102271614"><ele>390.0</ele><time>2026-04-11T11:22:37Z</time></trkpt><trkpt lat="43.003658697235196" lon="11.469112716796563"><ele>390.0</ele><time>2026-04-11T11:22:38Z</time></trkpt><trkpt lat="43.00365299071795" lon="11.469208667249099"><ele>390.0</ele><time>2026-04-11T11:22:39Z</time></trkpt><trkpt lat="43.00365045168124" lon="11.469299484177606"><ele>390.0</ele><time>2026-04-11T11:22:40Z</time></trkpt><trkpt lat="43.00364239965405" lon="11.4696229573161"><ele>390.0</ele><time>2026-04-11T11:22:44Z</time></trkpt><trkpt lat="43.00363286084987" lon="11.469774769636919"><ele>390.0</ele><time>2026-04-11T11:22:46Z</time></trkpt><trkpt lat="43.00362377965955" lon="11.469925982961097"><ele>390.0</ele><time>2026-04-11T11:22:48Z</time></trkpt><trkpt lat="43.00359691324031" lon="11.470080344460158"><ele>390.0</ele><time>2026-04-11T11:22:50.001Z</time></trkpt><trkpt lat="43.00355433262569" lon="11.470238366183068"><ele>390.0</ele><time>2026-04-11T11:22:52.001Z</time></trkpt><trkpt lat="43.003527726114136" lon="11.47031917566615"><ele>390.0</ele><time>2026-04-11T11:22:53.001Z</time></trkpt><trkpt lat="43.00348229584801" lon="11.470398180837556"><ele>390.4</ele><time>2026-04-11T11:22:54.001Z</time></trkpt><trkpt lat="43.003446828069144" lon="11.47056624027414"><ele>390.8</ele><time>2026-04-11T11:22:56.001Z</time></trkpt><trkpt lat="43.003424959509005" lon="11.470649007062654"><ele>391.20000000000005</ele><time>2026-04-11T11:22:57.001Z</time></trkpt><trkpt lat="43.00340538510745" lon="11.470733938202663"><ele>391.6</ele><time>2026-04-11T11:22:58.001Z</time></trkpt><trkpt lat="43.00336392770081" lon="11.470896490367995"><ele>392.0</ele><time>2026-04-11T11:23:00.001Z</time></trkpt><trkpt lat="43.003325558541285" lon="11.471051010178966"><ele>389.75</ele><time>2026-04-11T11:23:02.001Z</time></trkpt><trkpt lat="43.003286487314696" lon="11.471344962322298"><ele>387.5</ele><time>2026-04-11T11:23:06.001Z</time></trkpt><trkpt lat="43.00327692579288" lon="11.471490393074253"><ele>385.25</ele><time>2026-04-11T11:23:08.001Z</time></trkpt><trkpt lat="43.00326699230374" lon="11.471629276999668"><ele>383.0</ele><time>2026-04-11T11:23:10.001Z</time></trkpt><trkpt lat="43.00324339811034" lon="11.471746810599711"><ele>383.0</ele><time>2026-04-11T11:23:12.001Z</time></trkpt><trkpt lat="43.00321406252887" lon="11.471867475020298"><ele>383.0</ele><time>2026-04-11T11:23:14.001Z</time></trkpt><trkpt lat="43.003184697925704" lon="11.471968360851207"><ele>383.0</ele><time>2026-04-11T11:23:16.001Z</time></trkpt><trkpt lat="43.00315102200815" lon="11.472080183032425"><ele>383.0</ele><time>2026-04-11T11:23:18.001Z</time></trkpt><trkpt lat="43.00312583750808" lon="11.472215237948017"><ele>383.0</ele><time>2026-04-11T11:23:20.001Z</time></trkpt><trkpt lat="43.00312995888135" lon="11.47234903199716"><ele>383.0</ele><time>2026-04-11T11:23:22.001Z</time></trkpt><trkpt lat="43.00314422422644" lon="11.472495322836807"><ele>383.0</ele><time>2026-04-11T11:23:24.001Z</time></trkpt><trkpt lat="43.0031436850955" lon="11.472781330626184"><ele>383.0</ele><time>2026-04-11T11:23:28.001Z</time></trkpt><trkpt lat="43.00313363256056" lon="11.472925794278881"><ele>383.0</ele><time>2026-04-11T11:23:30.001Z</time></trkpt><trkpt lat="43.003117452054745" lon="11.473081786619488"><ele>383.1666666666667</ele><time>2026-04-11T11:23:32.001Z</time></trkpt><trkpt lat="43.0031038459727" lon="11.473250322068308"><ele>383.33333333333337</ele><time>2026-04-11T11:23:34Z</time></trkpt><trkpt lat="43.00310024742623" lon="11.473339822165766"><ele>383.5</ele><time>2026-04-11T11:23:35Z</time></trkpt><trkpt lat="43.00309656569005" lon="11.473434443014622"><ele>383.6666666666667</ele><time>2026-04-11T11:23:36Z</time></trkpt><trkpt lat="43.003098315638304" lon="11.473528054086538"><ele>383.8333333333333</ele><time>2026-04-11T11:23:37Z</time></trkpt><trkpt lat="43.00310995081635" lon="11.473620689482066"><ele>384.0</ele><time>2026-04-11T11:23:38Z</time></trkpt><trkpt lat="43.00312882802317" lon="11.473702953387203"><ele>383.1666666666667</ele><time>2026-04-11T11:23:39Z</time></trkpt><trkpt lat="43.003157689498764" lon="11.473788348497237"><ele>382.3333333333333</ele><time>2026-04-11T11:23:40Z</time></trkpt><trkpt lat="43.00320702359661" lon="11.473868429027824"><ele>381.5</ele><time>2026-04-11T11:23:41Z</time></trkpt><trkpt lat="43.003252872188504" lon="11.473953735900709"><ele>380.66666666666663</ele><time>2026-04-11T11:23:42Z</time></trkpt><trkpt lat="43.00331498442574" lon="11.474022379963039"><ele>379.8333333333333</ele><time>2026-04-11T11:23:43Z</time></trkpt><trkpt lat="43.003385230991334" lon="11.474090477107618"><ele>379.0</ele><time>2026-04-11T11:23:44Z</time></trkpt><trkpt lat="43.00345708467311" lon="11.474141890645802"><ele>380.79999999999995</ele><time>2026-04-11T11:23:45Z</time></trkpt><trkpt lat="43.00358472014569" lon="11.47425148415081"><ele>382.59999999999997</ele><time>2026-04-11T11:23:47Z</time></trkpt><trkpt lat="43.00364274849777" lon="11.474294217802294"><ele>384.4</ele><time>2026-04-11T11:23:48Z</time></trkpt><trkpt lat="43.003689238969216" lon="11.474444657080564"><ele>386.2</ele><time>2026-04-11T11:23:50Z</time></trkpt><trkpt lat="43.00365469514344" lon="11.474592289990923"><ele>388.0</ele><time>2026-04-11T11:23:52Z</time></trkpt><trkpt lat="43.00355997130414" lon="11.474673939080962"><ele>388.0</ele><time>2026-04-11T11:23:54Z</time></trkpt><trkpt lat="43.00347921764998" lon="11.474728758631832"><ele>388.0</ele><time>2026-04-11T11:23:56Z</time></trkpt><trkpt lat="43.00340319339617" lon="11.474788896594971"><ele>388.0</ele><time>2026-04-11T11:23:58Z</time></trkpt><trkpt lat="43.00330923209365" lon="11.474825046103009"><ele>388.0</ele><time>2026-04-11T11:24:00Z</time></trkpt><trkpt lat="43.00321544386837" lon="11.474842491258565"><ele>388.0</ele><time>2026-04-11T11:24:02Z</time></trkpt><trkpt lat="43.00312612665217" lon="11.47486081833409"><ele>386.4</ele><time>2026-04-11T11:24:04Z</time></trkpt><trkpt lat="43.0030402114164" lon="11.474898852462925"><ele>384.79999999999995</ele><time>2026-04-11T11:24:06Z</time></trkpt><trkpt lat="43.00288390457756" lon="11.474993869280938"><ele>383.2</ele><time>2026-04-11T11:24:09Z</time></trkpt><trkpt lat="43.00282361251624" lon="11.475035450151386"><ele>381.6</ele><time>2026-04-11T11:24:10Z</time></trkpt><trkpt lat="43.002760346261205" lon="11.475078979157313"><ele>380.0</ele><time>2026-04-11T11:24:11Z</time></trkpt><trkpt lat="43.00268889342431" lon="11.475124955973934"><ele>380.0</ele><time>2026-04-11T11:24:12Z</time></trkpt><trkpt lat="43.002617750448536" lon="11.475168162296308"><ele>380.0</ele><time>2026-04-11T11:24:13Z</time></trkpt><trkpt lat="43.002546331989954" lon="11.475221651016493"><ele>380.0</ele><time>2026-04-11T11:24:14Z</time></trkpt><trkpt lat="43.002478136680246" lon="11.475274875123338"><ele>380.0</ele><time>2026-04-11T11:24:15Z</time></trkpt><trkpt lat="43.00240479386036" lon="11.47532837044018"><ele>380.0</ele><time>2026-04-11T11:24:16Z</time></trkpt><trkpt lat="43.00233106191967" lon="11.47537854917132"><ele>380.0</ele><time>2026-04-11T11:24:17Z</time></trkpt><trkpt lat="43.002260408998595" lon="11.475434912369046"><ele>379.5</ele><time>2026-04-11T11:24:18Z</time></trkpt><trkpt lat="43.002188304048694" lon="11.475488717740811"><ele>379.0</ele><time>2026-04-11T11:24:19Z</time></trkpt><trkpt lat="43.002117350933275" lon="11.475542565643513"><ele>378.5</ele><time>2026-04-11T11:24:20Z</time></trkpt><trkpt lat="43.00204414173451" lon="11.475595244703685"><ele>378.0</ele><time>2026-04-11T11:24:21Z</time></trkpt><trkpt lat="43.00197445704701" lon="11.475653464202438"><ele>377.5</ele><time>2026-04-11T11:24:22Z</time></trkpt><trkpt lat="43.00190459374123" lon="11.475715823010319"><ele>377.0</ele><time>2026-04-11T11:24:23Z</time></trkpt><trkpt lat="43.00183360895738" lon="11.475773536076685"><ele>377.0</ele><time>2026-04-11T11:24:24Z</time></trkpt><trkpt lat="43.00176369806447" lon="11.475826051024296"><ele>377.0</ele><time>2026-04-11T11:24:25Z</time></trkpt><trkpt lat="43.00168187380749" lon="11.475884752869154"><ele>377.0</ele><time>2026-04-11T11:24:26Z</time></trkpt><trkpt lat="43.00161346235306" lon="11.475935133467868"><ele>377.0</ele><time>2026-04-11T11:24:27Z</time></trkpt><trkpt lat="43.00147146546542" lon="11.476044965926198"><ele>377.0</ele><time>2026-04-11T11:24:29Z</time></trkpt><trkpt lat="43.00140036075107" lon="11.476101333906177"><ele>376.5</ele><time>2026-04-11T11:24:30Z</time></trkpt><trkpt lat="43.00132889867378" lon="11.47615331746718"><ele>376.0</ele><time>2026-04-11T11:24:31Z</time></trkpt><trkpt lat="43.0012591438249" lon="11.476207185958348"><ele>375.5</ele><time>2026-04-11T11:24:32Z</time></trkpt><trkpt lat="43.001193077180865" lon="11.47626005288904"><ele>375.0</ele><time>2026-04-11T11:24:33Z</time></trkpt><trkpt lat="43.00112502540999" lon="11.476311278290199"><ele>374.5</ele><time>2026-04-11T11:24:34Z</time></trkpt><trkpt lat="43.00105524072857" lon="11.476356709689284"><ele>374.0</ele><time>2026-04-11T11:24:35Z</time></trkpt><trkpt lat="43.00098062106695" lon="11.476382148258043"><ele>374.1428571428571</ele><time>2026-04-11T11:24:36Z</time></trkpt><trkpt lat="43.00090509612288" lon="11.476389285456586"><ele>374.28571428571433</ele><time>2026-04-11T11:24:37Z</time></trkpt><trkpt lat="43.000833268894844" lon="11.476347936524538"><ele>374.42857142857144</ele><time>2026-04-11T11:24:38Z</time></trkpt><trkpt lat="43.00077612254228" lon="11.476282141369056"><ele>374.57142857142856</ele><time>2026-04-11T11:24:39Z</time></trkpt><trkpt lat="43.00072795059934" lon="11.476213098169191"><ele>374.71428571428567</ele><time>2026-04-11T11:24:40Z</time></trkpt><trkpt lat="43.0006883279141" lon="11.476136563299626"><ele>374.8571428571429</ele><time>2026-04-11T11:24:41Z</time></trkpt><trkpt lat="43.00064924250544" lon="11.476064361229668"><ele>375.0</ele><time>2026-04-11T11:24:42Z</time></trkpt><trkpt lat="43.00061095073195" lon="11.475994611861529"><ele>375.0</ele><time>2026-04-11T11:24:43Z</time></trkpt><trkpt lat="43.000571947251444" lon="11.47592117274593"><ele>375.0</ele><time>2026-04-11T11:24:44Z</time></trkpt><trkpt lat="43.000534740327005" lon="11.475844242322292"><ele>375.0</ele><time>2026-04-11T11:24:45Z</time></trkpt><trkpt lat="43.000500821594414" lon="11.475762822181736"><ele>375.0</ele><time>2026-04-11T11:24:46Z</time></trkpt><trkpt lat="43.00046589327754" lon="11.475682535757644"><ele>375.0</ele><time>2026-04-11T11:24:47Z</time></trkpt><trkpt lat="43.000431370080406" lon="11.475601743389852"><ele>375.0</ele><time>2026-04-11T11:24:48Z</time></trkpt><trkpt lat="43.00035926697708" lon="11.475438157976"><ele>374.42857142857144</ele><time>2026-04-11T11:24:50.001Z</time></trkpt><trkpt lat="43.000309678449675" lon="11.475351777332094"><ele>373.85714285714283</ele><time>2026-04-11T11:24:51.001Z</time></trkpt><trkpt lat="43.00027921465845" lon="11.475268916856432"><ele>373.2857142857143</ele><time>2026-04-11T11:24:52.001Z</time></trkpt><trkpt lat="43.00023790812417" lon="11.475188958880167"><ele>372.7142857142857</ele><time>2026-04-11T11:24:53.001Z</time></trkpt><trkpt lat="43.00020038586604" lon="11.47510539748482"><ele>372.1428571428571</ele><time>2026-04-11T11:24:54.001Z</time></trkpt><trkpt lat="43.00016110811127" lon="11.475023979672098"><ele>371.57142857142856</ele><time>2026-04-11T11:24:55.001Z</time></trkpt><trkpt lat="43.000108345946714" lon="11.474946868549914"><ele>371.0</ele><time>2026-04-11T11:24:56.001Z</time></trkpt><trkpt lat="43.00005931867327" lon="11.474876769114063"><ele>371.0</ele><time>2026-04-11T11:24:57.001Z</time></trkpt><trkpt lat="43.000007192921686" lon="11.474800451545104"><ele>371.0</ele><time>2026-04-11T11:24:58.001Z</time></trkpt><trkpt lat="42.99995689610483" lon="11.474721935318035"><ele>371.0</ele><time>2026-04-11T11:24:59.001Z</time></trkpt><trkpt lat="42.99990393021354" lon="11.474642718681174"><ele>371.0</ele><time>2026-04-11T11:25:00.001Z</time></trkpt><trkpt lat="42.99985254629491" lon="11.47456100904088"><ele>371.0</ele><time>2026-04-11T11:25:01.001Z</time></trkpt><trkpt lat="42.999798731061816" lon="11.474479536277062"><ele>371.0</ele><time>2026-04-11T11:25:02.001Z</time></trkpt><trkpt lat="42.99974660068582" lon="11.474394091370803"><ele>370.1666666666667</ele><time>2026-04-11T11:25:03.001Z</time></trkpt><trkpt lat="42.99969495116065" lon="11.4743079010477"><ele>369.33333333333337</ele><time>2026-04-11T11:25:04.001Z</time></trkpt><trkpt lat="42.999640767914705" lon="11.474222604635067"><ele>368.5</ele><time>2026-04-11T11:25:05.001Z</time></trkpt><trkpt lat="42.999585481901875" lon="11.474139590461789"><ele>367.6666666666667</ele><time>2026-04-11T11:25:06.001Z</time></trkpt><trkpt lat="42.99952763306195" lon="11.474064865484664"><ele>366.8333333333333</ele><time>2026-04-11T11:25:07.001Z</time></trkpt><trkpt lat="42.99946900364302" lon="11.473989680809309"><ele>366.0</ele><time>2026-04-11T11:25:08.001Z</time></trkpt><trkpt lat="42.99940874896488" lon="11.473920552606268"><ele>366.0</ele><time>2026-04-11T11:25:09.001Z</time></trkpt><trkpt lat="42.99926763934367" lon="11.473810859699729"><ele>366.0</ele><time>2026-04-11T11:25:11.001Z</time></trkpt><trkpt lat="42.99918900181681" lon="11.47377868620203"><ele>366.0</ele><time>2026-04-11T11:25:12.001Z</time></trkpt><trkpt lat="42.99910789062037" lon="11.473761514249556"><ele>366.0</ele><time>2026-04-11T11:25:13.001Z</time></trkpt><trkpt lat="42.99903170932949" lon="11.473746010059383"><ele>366.0</ele><time>2026-04-11T11:25:14.001Z</time></trkpt><trkpt lat="42.99895771918155" lon="11.473733344240419"><ele>365.57142857142856</ele><time>2026-04-11T11:25:15.001Z</time></trkpt><trkpt lat="42.99888503256072" lon="11.473712104948758"><ele>365.14285714285717</ele><time>2026-04-11T11:25:16.001Z</time></trkpt><trkpt lat="42.998813163090105" lon="11.47369352131468"><ele>364.71428571428567</ele><time>2026-04-11T11:25:17.001Z</time></trkpt><trkpt lat="42.99874952450313" lon="11.473671556093075"><ele>364.2857142857143</ele><time>2026-04-11T11:25:18.001Z</time></trkpt><trkpt lat="42.99867962369185" lon="11.473654453974254"><ele>363.85714285714283</ele><time>2026-04-11T11:25:19.001Z</time></trkpt><trkpt lat="42.99861346735831" lon="11.47364075095771"><ele>363.4285714285714</ele><time>2026-04-11T11:25:20.001Z</time></trkpt><trkpt lat="42.99855001111032" lon="11.473622683072453"><ele>363.0</ele><time>2026-04-11T11:25:21.001Z</time></trkpt><trkpt lat="42.99848601276235" lon="11.473603837684434"><ele>362.99999999999994</ele><time>2026-04-11T11:25:22.001Z</time></trkpt><trkpt lat="42.99841913608219" lon="11.473593105756978"><ele>363.0</ele><time>2026-04-11T11:25:23.001Z</time></trkpt><trkpt lat="42.99835114943469" lon="11.473584630345046"><ele>363.0</ele><time>2026-04-11T11:25:24.001Z</time></trkpt><trkpt lat="42.99828162540752" lon="11.473566147945705"><ele>363.0</ele><time>2026-04-11T11:25:25.001Z</time></trkpt><trkpt lat="42.99821122764458" lon="11.473544070444104"><ele>363.0</ele><time>2026-04-11T11:25:26.001Z</time></trkpt><trkpt lat="42.99813690831877" lon="11.473527142365855"><ele>362.99999999999994</ele><time>2026-04-11T11:25:27.001Z</time></trkpt><trkpt lat="42.998061645864595" lon="11.473507122724682"><ele>363.0</ele><time>2026-04-11T11:25:28.001Z</time></trkpt><trkpt lat="42.99798798856463" lon="11.473486849848841"><ele>363.2</ele><time>2026-04-11T11:25:29.001Z</time></trkpt><trkpt lat="42.997919472678916" lon="11.473458778539785"><ele>363.4</ele><time>2026-04-11T11:25:30.001Z</time></trkpt><trkpt lat="42.99779212224897" lon="11.473383476648424"><ele>363.59999999999997</ele><time>2026-04-11T11:25:32.001Z</time></trkpt><trkpt lat="42.997734179756954" lon="11.473349749244843"><ele>363.79999999999995</ele><time>2026-04-11T11:25:33.001Z</time></trkpt><trkpt lat="42.99763593076104" lon="11.473286500919013"><ele>364.0</ele><time>2026-04-11T11:25:35.001Z</time></trkpt><trkpt lat="42.997554546267615" lon="11.473229492961774"><ele>364.42857142857144</ele><time>2026-04-11T11:25:37.001Z</time></trkpt><trkpt lat="42.99748129110419" lon="11.473182527750167"><ele>364.8571428571429</ele><time>2026-04-11T11:25:39Z</time></trkpt><trkpt lat="42.99741274339976" lon="11.473144251920369"><ele>365.2857142857143</ele><time>2026-04-11T11:25:41Z</time></trkpt><trkpt lat="42.99734989017922" lon="11.47310327277462"><ele>365.7142857142857</ele><time>2026-04-11T11:25:43Z</time></trkpt><trkpt lat="42.99728873260664" lon="11.473068739266264"><ele>366.14285714285717</ele><time>2026-04-11T11:25:45Z</time></trkpt><trkpt lat="42.997233025255305" lon="11.473025924288198"><ele>366.57142857142856</ele><time>2026-04-11T11:25:47Z</time></trkpt><trkpt lat="42.99715494444891" lon="11.472992662622675"><ele>367.0</ele><time>2026-04-11T11:25:50Z</time></trkpt><trkpt lat="42.99708739067059" lon="11.47296671789588"><ele>367.0</ele><time>2026-04-11T11:25:53Z</time></trkpt><trkpt lat="42.996957286218" lon="11.473028529158103"><ele>367.0</ele><time>2026-04-11T11:25:58Z</time></trkpt><trkpt lat="42.9968997984015" lon="11.473086769014492"><ele>367.0</ele><time>2026-04-11T11:26:01Z</time></trkpt><trkpt lat="42.996848304049635" lon="11.473150434675576"><ele>367.0</ele><time>2026-04-11T11:26:03Z</time></trkpt><trkpt lat="42.996797752346076" lon="11.473220472914242"><ele>367.0</ele><time>2026-04-11T11:26:06Z</time></trkpt><trkpt lat="42.99674422443455" lon="11.473293618765785"><ele>367.0</ele><time>2026-04-11T11:26:09Z</time></trkpt><trkpt lat="42.996679497119835" lon="11.473368929339221"><ele>367.8333333333333</ele><time>2026-04-11T11:26:12Z</time></trkpt><trkpt lat="42.996621035868316" lon="11.473439218914399"><ele>368.66666666666663</ele><time>2026-04-11T11:26:15Z</time></trkpt><trkpt lat="42.99651137074307" lon="11.473591103379645"><ele>369.5</ele><time>2026-04-11T11:26:21Z</time></trkpt><trkpt lat="42.996462671846245" lon="11.473663022489712"><ele>370.3333333333333</ele><time>2026-04-11T11:26:24Z</time></trkpt><trkpt lat="42.99642140086965" lon="11.47374122510828"><ele>371.1666666666667</ele><time>2026-04-11T11:26:27Z</time></trkpt><trkpt lat="42.99637807022164" lon="11.473811419598658"><ele>372.0</ele><time>2026-04-11T11:26:30Z</time></trkpt><trkpt lat="42.99632781811562" lon="11.473882253830187"><ele>372.20000000000005</ele><time>2026-04-11T11:26:33Z</time></trkpt><trkpt lat="42.9962801783609" lon="11.473957527936737"><ele>372.4</ele><time>2026-04-11T11:26:36Z</time></trkpt><trkpt lat="42.99618812070353" lon="11.474126853957053"><ele>372.6</ele><time>2026-04-11T11:26:42.001Z</time></trkpt><trkpt lat="42.996129319435795" lon="11.474198621471198"><ele>372.79999999999995</ele><time>2026-04-11T11:26:45.001Z</time></trkpt><trkpt lat="42.99606421771609" lon="11.474282374416587"><ele>373.0</ele><time>2026-04-11T11:26:48.001Z</time></trkpt><trkpt lat="42.99599772708254" lon="11.474365198326593"><ele>373.0</ele><time>2026-04-11T11:26:50.001Z</time></trkpt><trkpt lat="42.995939491927594" lon="11.474419969043083"><ele>373.0</ele><time>2026-04-11T11:26:52.001Z</time></trkpt><trkpt lat="42.995880509181625" lon="11.474487863549598"><ele>373.0</ele><time>2026-04-11T11:26:54.001Z</time></trkpt><trkpt lat="42.995820269446675" lon="11.474555342030435"><ele>373.0</ele><time>2026-04-11T11:26:56.001Z</time></trkpt><trkpt lat="42.995755446286815" lon="11.474622478127605"><ele>373.0</ele><time>2026-04-11T11:26:58.001Z</time></trkpt><trkpt lat="42.995598691782625" lon="11.474740982805258"><ele>374.0</ele><time>2026-04-11T11:27:02.001Z</time></trkpt><trkpt lat="42.99553954796361" lon="11.474783056917587"><ele>375.0</ele><time>2026-04-11T11:27:04.001Z</time></trkpt><trkpt lat="42.995461255724386" lon="11.474824983313619"><ele>376.0</ele><time>2026-04-11T11:27:06.001Z</time></trkpt><trkpt lat="42.9953868002804" lon="11.474814837617396"><ele>377.0</ele><time>2026-04-11T11:27:08.001Z</time></trkpt><trkpt lat="42.99530789646953" lon="11.474814227114347"><ele>378.0</ele><time>2026-04-11T11:27:10.001Z</time></trkpt><trkpt lat="42.995107115940385" lon="11.474802664569868"><ele>378.0</ele><time>2026-04-11T11:27:12.001Z</time></trkpt><trkpt lat="42.99504452339273" lon="11.474789290444216"><ele>378.0</ele><time>2026-04-11T11:27:13.001Z</time></trkpt><trkpt lat="42.9949668008224" lon="11.47477451544666"><ele>378.0</ele><time>2026-04-11T11:27:14.001Z</time></trkpt><trkpt lat="42.994890608726074" lon="11.474753991262723"><ele>378.0</ele><time>2026-04-11T11:27:15.001Z</time></trkpt><trkpt lat="42.994810458897085" lon="11.474742863311626"><ele>378.0</ele><time>2026-04-11T11:27:16.001Z</time></trkpt><trkpt lat="42.99472660277502" lon="11.474747757232661"><ele>378.0</ele><time>2026-04-11T11:27:17.001Z</time></trkpt><trkpt lat="42.99463923032014" lon="11.474735798775725"><ele>377.59999999999997</ele><time>2026-04-11T11:27:18.001Z</time></trkpt><trkpt lat="42.99456148610203" lon="11.474728070149768"><ele>377.2</ele><time>2026-04-11T11:27:19.001Z</time></trkpt><trkpt lat="42.99441853087711" lon="11.474754295916918"><ele>376.8</ele><time>2026-04-11T11:27:21.001Z</time></trkpt><trkpt lat="42.99435305648341" lon="11.474802234397412"><ele>376.4</ele><time>2026-04-11T11:27:22.001Z</time></trkpt><trkpt lat="42.99428742564139" lon="11.474850809157449"><ele>376.0</ele><time>2026-04-11T11:27:23.001Z</time></trkpt><trkpt lat="42.99422312770257" lon="11.474915544194754"><ele>374.3333333333333</ele><time>2026-04-11T11:27:24.001Z</time></trkpt><trkpt lat="42.99415866529227" lon="11.47497127674781"><ele>372.66666666666663</ele><time>2026-04-11T11:27:25.001Z</time></trkpt><trkpt lat="42.994088278632155" lon="11.475025338164762"><ele>371.0</ele><time>2026-04-11T11:27:26.001Z</time></trkpt><trkpt lat="42.99401291325812" lon="11.475079930254093"><ele>369.3333333333333</ele><time>2026-04-11T11:27:27.001Z</time></trkpt><trkpt lat="42.99393517430794" lon="11.475113738766142"><ele>367.6666666666667</ele><time>2026-04-11T11:27:28.001Z</time></trkpt><trkpt lat="42.99386448875576" lon="11.475157929168912"><ele>366.0</ele><time>2026-04-11T11:27:29.001Z</time></trkpt><trkpt lat="42.99380885987153" lon="11.475201718423843"><ele>366.0</ele><time>2026-04-11T11:27:30.001Z</time></trkpt><trkpt lat="42.99374985413496" lon="11.475255535988753"><ele>366.0</ele><time>2026-04-11T11:27:31.001Z</time></trkpt><trkpt lat="42.99369946749883" lon="11.4753163966578"><ele>366.0</ele><time>2026-04-11T11:27:32.001Z</time></trkpt><trkpt lat="42.99364302072136" lon="11.475385080849755"><ele>366.0</ele><time>2026-04-11T11:27:33.001Z</time></trkpt><trkpt lat="42.993597134218945" lon="11.475458613792663"><ele>366.0</ele><time>2026-04-11T11:27:34.001Z</time></trkpt><trkpt lat="42.993550899962564" lon="11.475534155715458"><ele>366.0</ele><time>2026-04-11T11:27:35.001Z</time></trkpt><trkpt lat="42.99351383575995" lon="11.475618109770938"><ele>366.0</ele><time>2026-04-11T11:27:36.001Z</time></trkpt><trkpt lat="42.99348470866266" lon="11.475715903741738"><ele>367.4</ele><time>2026-04-11T11:27:37.001Z</time></trkpt><trkpt lat="42.99345978358074" lon="11.475816442526268"><ele>368.8</ele><time>2026-04-11T11:27:38.001Z</time></trkpt><trkpt lat="42.99343187858745" lon="11.47592326216778"><ele>370.2</ele><time>2026-04-11T11:27:39.001Z</time></trkpt><trkpt lat="42.99340376890659" lon="11.476035421407037"><ele>371.59999999999997</ele><time>2026-04-11T11:27:40.001Z</time></trkpt><trkpt lat="42.99333937038493" lon="11.47627022578953"><ele>373.0</ele><time>2026-04-11T11:27:42.001Z</time></trkpt><trkpt lat="42.9933014723192" lon="11.476378768235467"><ele>370.3333333333333</ele><time>2026-04-11T11:27:43.001Z</time></trkpt><trkpt lat="42.99326385915986" lon="11.476489185455431"><ele>367.66666666666663</ele><time>2026-04-11T11:27:44.001Z</time></trkpt><trkpt lat="42.99322071568872" lon="11.476605870836156"><ele>365.0</ele><time>2026-04-11T11:27:45Z</time></trkpt><trkpt lat="42.99317741369163" lon="11.47672106170385"><ele>362.3333333333333</ele><time>2026-04-11T11:27:46Z</time></trkpt><trkpt lat="42.993141385718644" lon="11.476816324566023"><ele>359.6666666666667</ele><time>2026-04-11T11:27:47Z</time></trkpt><trkpt lat="42.99311184985333" lon="11.47690789034192"><ele>357.0</ele><time>2026-04-11T11:27:48Z</time></trkpt><trkpt lat="42.99308920791949" lon="11.477001854711007"><ele>357.0</ele><time>2026-04-11T11:27:49Z</time></trkpt><trkpt lat="42.99307377562231" lon="11.477092426325106"><ele>357.0</ele><time>2026-04-11T11:27:50Z</time></trkpt><trkpt lat="42.99307293523378" lon="11.477193254386552"><ele>357.0</ele><time>2026-04-11T11:27:51Z</time></trkpt><trkpt lat="42.993077475158124" lon="11.477300086979216"><ele>357.0</ele><time>2026-04-11T11:27:52Z</time></trkpt><trkpt lat="42.99308612434266" lon="11.47740849675222"><ele>357.0</ele><time>2026-04-11T11:27:53Z</time></trkpt><trkpt lat="42.993099047365035" lon="11.477513848200363"><ele>357.0</ele><time>2026-04-11T11:27:54Z</time></trkpt><trkpt lat="42.99312034551116" lon="11.477619415674106"><ele>355.8333333333333</ele><time>2026-04-11T11:27:55Z</time></trkpt><trkpt lat="42.99314833658405" lon="11.477716637736085"><ele>354.6666666666667</ele><time>2026-04-11T11:27:56Z</time></trkpt><trkpt lat="42.99318671592147" lon="11.477798397102733"><ele>353.5</ele><time>2026-04-11T11:27:57Z</time></trkpt><trkpt lat="42.993234843841165" lon="11.47787947678873"><ele>352.33333333333337</ele><time>2026-04-11T11:27:58Z</time></trkpt><trkpt lat="42.99329682665277" lon="11.477951040682152"><ele>351.1666666666667</ele><time>2026-04-11T11:27:59Z</time></trkpt><trkpt lat="42.99336439010213" lon="11.478011783049443"><ele>350.0</ele><time>2026-04-11T11:28:00Z</time></trkpt><trkpt lat="42.993435954648255" lon="11.47806229878147"><ele>349.4</ele><time>2026-04-11T11:28:01Z</time></trkpt><trkpt lat="42.99359479029321" lon="11.478152868859938"><ele>348.8</ele><time>2026-04-11T11:28:03Z</time></trkpt><trkpt lat="42.99367399436755" lon="11.478202987562334"><ele>348.20000000000005</ele><time>2026-04-11T11:28:04Z</time></trkpt><trkpt lat="42.99375490499704" lon="11.478251746740519"><ele>347.6</ele><time>2026-04-11T11:28:05Z</time></trkpt><trkpt lat="42.993832116364835" lon="11.478308388345862"><ele>347.0</ele><time>2026-04-11T11:28:06Z</time></trkpt><trkpt lat="42.99391184500933" lon="11.478360156376075"><ele>347.0</ele><time>2026-04-11T11:28:07Z</time></trkpt><trkpt lat="42.99400085311085" lon="11.478393082513353"><ele>347.0</ele><time>2026-04-11T11:28:08Z</time></trkpt><trkpt lat="42.994091284691216" lon="11.478411301187831"><ele>347.0</ele><time>2026-04-11T11:28:09Z</time></trkpt><trkpt lat="42.994171060322074" lon="11.478417376067958"><ele>347.0</ele><time>2026-04-11T11:28:10Z</time></trkpt><trkpt lat="42.994240592241" lon="11.478422341517211"><ele>347.0</ele><time>2026-04-11T11:28:11Z</time></trkpt><trkpt lat="42.9942972940985" lon="11.478460669774476"><ele>347.0</ele><time>2026-04-11T11:28:12Z</time></trkpt><trkpt lat="42.99434596864265" lon="11.478635618587091"><ele>345.6666666666667</ele><time>2026-04-11T11:28:14Z</time></trkpt><trkpt lat="42.99432253932795" lon="11.478730830783377"><ele>344.33333333333337</ele><time>2026-04-11T11:28:15Z</time></trkpt><trkpt lat="42.9942760711375" lon="11.478810048305286"><ele>343.0</ele><time>2026-04-11T11:28:16Z</time></trkpt><trkpt lat="42.99422030558415" lon="11.478877727890474"><ele>341.6666666666667</ele><time>2026-04-11T11:28:17Z</time></trkpt><trkpt lat="42.99416374597962" lon="11.478938099138368"><ele>340.3333333333333</ele><time>2026-04-11T11:28:18Z</time></trkpt><trkpt lat="42.99410572684024" lon="11.479007540193868"><ele>339.0</ele><time>2026-04-11T11:28:19Z</time></trkpt><trkpt lat="42.99405298421557" lon="11.479091709883464"><ele>339.0</ele><time>2026-04-11T11:28:20Z</time></trkpt><trkpt lat="42.99400189373384" lon="11.479180258118207"><ele>339.0</ele><time>2026-04-11T11:28:21Z</time></trkpt><trkpt lat="42.993949220087764" lon="11.479270086605538"><ele>339.0</ele><time>2026-04-11T11:28:22Z</time></trkpt><trkpt lat="42.99384879635925" lon="11.479456405545038"><ele>339.0</ele><time>2026-04-11T11:28:24Z</time></trkpt><trkpt lat="42.99380663839603" lon="11.47954913275132"><ele>339.0</ele><time>2026-04-11T11:28:25Z</time></trkpt><trkpt lat="42.99376926068445" lon="11.479641696752727"><ele>339.5</ele><time>2026-04-11T11:28:26Z</time></trkpt><trkpt lat="42.9937375432531" lon="11.479727998398923"><ele>340.0</ele><time>2026-04-11T11:28:27Z</time></trkpt><trkpt lat="42.99371033190981" lon="11.479812945605763"><ele>340.5</ele><time>2026-04-11T11:28:28Z</time></trkpt><trkpt lat="42.99369968695836" lon="11.479915020682627"><ele>341.0</ele><time>2026-04-11T11:28:29Z</time></trkpt><trkpt lat="42.99370342944787" lon="11.480022059072757"><ele>341.5</ele><time>2026-04-11T11:28:30Z</time></trkpt><trkpt lat="42.99370957119421" lon="11.480134935112655"><ele>342.0</ele><time>2026-04-11T11:28:31Z</time></trkpt><trkpt lat="42.993722301843384" lon="11.480249884492542"><ele>342.0</ele><time>2026-04-11T11:28:32Z</time></trkpt><trkpt lat="42.99374040967538" lon="11.480366836903215"><ele>342.0</ele><time>2026-04-11T11:28:33Z</time></trkpt><trkpt lat="42.993762371723875" lon="11.480488784292056"><ele>342.0</ele><time>2026-04-11T11:28:34Z</time></trkpt><trkpt lat="42.993780739145684" lon="11.480614055167301"><ele>342.0</ele><time>2026-04-11T11:28:35Z</time></trkpt><trkpt lat="42.99380149390513" lon="11.480743708029513"><ele>342.0</ele><time>2026-04-11T11:28:36Z</time></trkpt><trkpt lat="42.99382223220764" lon="11.48087051083829"><ele>340.40000000000003</ele><time>2026-04-11T11:28:37Z</time></trkpt><trkpt lat="42.993842214281145" lon="11.480990069784646"><ele>338.8</ele><time>2026-04-11T11:28:38Z</time></trkpt><trkpt lat="42.99385737952095" lon="11.481118463613434"><ele>337.2</ele><time>2026-04-11T11:28:39Z</time></trkpt><trkpt lat="42.993864153340894" lon="11.481240416760148"><ele>335.6</ele><time>2026-04-11T11:28:40Z</time></trkpt><trkpt lat="42.99386230021893" lon="11.481367330494438"><ele>334.0</ele><time>2026-04-11T11:28:41Z</time></trkpt><trkpt lat="42.993849343990725" lon="11.481486078302273"><ele>330.59999999999997</ele><time>2026-04-11T11:28:42Z</time></trkpt><trkpt lat="42.99382703797477" lon="11.48160178604918"><ele>327.2</ele><time>2026-04-11T11:28:43Z</time></trkpt><trkpt lat="42.99377155965876" lon="11.481819367874142"><ele>323.79999999999995</ele><time>2026-04-11T11:28:45Z</time></trkpt><trkpt lat="42.993743129186996" lon="11.48192887361025"><ele>320.4</ele><time>2026-04-11T11:28:46Z</time></trkpt><trkpt lat="42.993719655848885" lon="11.482036762181336"><ele>317.0</ele><time>2026-04-11T11:28:47Z</time></trkpt><trkpt lat="42.99370488999989" lon="11.482142176701203"><ele>315.83333333333337</ele><time>2026-04-11T11:28:48Z</time></trkpt><trkpt lat="42.993700387984816" lon="11.482256212398744"><ele>314.6666666666667</ele><time>2026-04-11T11:28:49Z</time></trkpt><trkpt lat="42.99370901679756" lon="11.482364660370337"><ele>313.5</ele><time>2026-04-11T11:28:50Z</time></trkpt><trkpt lat="42.99373283876613" lon="11.482476085110475"><ele>312.3333333333333</ele><time>2026-04-11T11:28:51Z</time></trkpt><trkpt lat="42.99376858280461" lon="11.482578952249767"><ele>311.16666666666663</ele><time>2026-04-11T11:28:52Z</time></trkpt><trkpt lat="42.99381046723259" lon="11.482676706842168"><ele>310.0</ele><time>2026-04-11T11:28:53Z</time></trkpt><trkpt lat="42.993853632230156" lon="11.48276833649767"><ele>310.0</ele><time>2026-04-11T11:28:54Z</time></trkpt><trkpt lat="42.993894225904526" lon="11.482858271603526"><ele>310.0</ele><time>2026-04-11T11:28:55Z</time></trkpt><trkpt lat="42.99393164381183" lon="11.482950402904518"><ele>310.0</ele><time>2026-04-11T11:28:56Z</time></trkpt><trkpt lat="42.993972045445226" lon="11.483038769927008"><ele>310.0</ele><time>2026-04-11T11:28:57Z</time></trkpt><trkpt lat="42.99401206608141" lon="11.483127173511367"><ele>310.0</ele><time>2026-04-11T11:28:58Z</time></trkpt><trkpt lat="42.99404532005284" lon="11.483220942571062"><ele>310.0</ele><time>2026-04-11T11:28:59Z</time></trkpt><trkpt lat="42.99407835535981" lon="11.483313606531024"><ele>310.0</ele><time>2026-04-11T11:29:00Z</time></trkpt><trkpt lat="42.99411272421114" lon="11.483399967137013"><ele>310.0</ele><time>2026-04-11T11:29:01Z</time></trkpt><trkpt lat="42.99414114048035" lon="11.48348490858573"><ele>310.0</ele><time>2026-04-11T11:29:02.001Z</time></trkpt><trkpt lat="42.99416739632215" lon="11.483569351238378"><ele>310.0</ele><time>2026-04-11T11:29:03.001Z</time></trkpt><trkpt lat="42.994224764576394" lon="11.483718835287933"><ele>310.0</ele><time>2026-04-11T11:29:05.001Z</time></trkpt><trkpt lat="42.994360783079934" lon="11.483911247299536"><ele>308.8571428571429</ele><time>2026-04-11T11:29:08.001Z</time></trkpt><trkpt lat="42.99441640679064" lon="11.483968471803685"><ele>307.7142857142857</ele><time>2026-04-11T11:29:09.001Z</time></trkpt><trkpt lat="42.99447645731932" lon="11.484029257545181"><ele>306.57142857142856</ele><time>2026-04-11T11:29:10.001Z</time></trkpt><trkpt lat="42.99453768952361" lon="11.484083779968193"><ele>305.42857142857144</ele><time>2026-04-11T11:29:11.001Z</time></trkpt><trkpt lat="42.99460200395375" lon="11.484124449783362"><ele>304.2857142857143</ele><time>2026-04-11T11:29:12.001Z</time></trkpt><trkpt lat="42.99467192125088" lon="11.484156681403817"><ele>303.14285714285717</ele><time>2026-04-11T11:29:13.001Z</time></trkpt><trkpt lat="42.99474423304261" lon="11.484183773126805"><ele>302.0</ele><time>2026-04-11T11:29:14.001Z</time></trkpt><trkpt lat="42.99482260581269" lon="11.48420630567435"><ele>302.0</ele><time>2026-04-11T11:29:15.001Z</time></trkpt><trkpt lat="42.994903286845535" lon="11.484233599059662"><ele>302.0</ele><time>2026-04-11T11:29:16.001Z</time></trkpt><trkpt lat="42.99498468776621" lon="11.484266354331131"><ele>302.0</ele><time>2026-04-11T11:29:17.001Z</time></trkpt><trkpt lat="42.99506558031845" lon="11.484320652067101"><ele>302.0</ele><time>2026-04-11T11:29:18.001Z</time></trkpt><trkpt lat="42.99513686218299" lon="11.48439553742609"><ele>302.0</ele><time>2026-04-11T11:29:19.001Z</time></trkpt><trkpt lat="42.995196101023964" lon="11.484466588392092"><ele>302.0</ele><time>2026-04-11T11:29:20.001Z</time></trkpt><trkpt lat="42.99524906058623" lon="11.484540283935585"><ele>303.1666666666667</ele><time>2026-04-11T11:29:21.001Z</time></trkpt><trkpt lat="42.99530550800048" lon="11.484619353723"><ele>304.33333333333337</ele><time>2026-04-11T11:29:22.001Z</time></trkpt><trkpt lat="42.995359921664594" lon="11.484701416325976"><ele>305.5</ele><time>2026-04-11T11:29:23.001Z</time></trkpt><trkpt lat="42.99540246509171" lon="11.48478040923313"><ele>306.6666666666667</ele><time>2026-04-11T11:29:24.001Z</time></trkpt><trkpt lat="42.99543453969208" lon="11.484887093495663"><ele>307.8333333333333</ele><time>2026-04-11T11:29:25.001Z</time></trkpt><trkpt lat="42.99545538865363" lon="11.485000977878688"><ele>309.0</ele><time>2026-04-11T11:29:26.001Z</time></trkpt><trkpt lat="42.99546439020102" lon="11.485217093790343"><ele>309.0</ele><time>2026-04-11T11:29:28.001Z</time></trkpt><trkpt lat="42.995455967493754" lon="11.485317418130835"><ele>309.0</ele><time>2026-04-11T11:29:29.001Z</time></trkpt><trkpt lat="42.99543468004801" lon="11.485414699900533"><ele>309.0</ele><time>2026-04-11T11:29:30.001Z</time></trkpt><trkpt lat="42.99538823993923" lon="11.48549030189387"><ele>309.0</ele><time>2026-04-11T11:29:31.001Z</time></trkpt><trkpt lat="42.995280190125314" lon="11.485518639049772"><ele>309.0</ele><time>2026-04-11T11:29:33.001Z</time></trkpt><trkpt lat="42.99521395015557" lon="11.485487837010682"><ele>309.0</ele><time>2026-04-11T11:29:36.001Z</time></trkpt><trkpt lat="42.99515267116431" lon="11.48546072861233"><ele>309.0</ele><time>2026-04-11T11:29:39.001Z</time></trkpt><trkpt lat="42.995104037309794" lon="11.485401079145849"><ele>309.0</ele><time>2026-04-11T11:29:42.001Z</time></trkpt><trkpt lat="42.995035547694336" lon="11.48536933458522"><ele>309.0</ele><time>2026-04-11T11:29:45.001Z</time></trkpt><trkpt lat="42.994969127758345" lon="11.48535961522898"><ele>309.0</ele><time>2026-04-11T11:29:48.001Z</time></trkpt><trkpt lat="42.99482344037971" lon="11.485382519873582"><ele>309.0</ele><time>2026-04-11T11:29:54Z</time></trkpt><trkpt lat="42.99476634353368" lon="11.485423214182049"><ele>309.0</ele><time>2026-04-11T11:29:58Z</time></trkpt><trkpt lat="42.994700236705164" lon="11.485459302383315"><ele>307.59999999999997</ele><time>2026-04-11T11:30:01Z</time></trkpt><trkpt lat="42.99462825286819" lon="11.485514376475377"><ele>306.2</ele><time>2026-04-11T11:30:04Z</time></trkpt><trkpt lat="42.99453432032417" lon="11.485535757427174"><ele>304.79999999999995</ele><time>2026-04-11T11:30:06Z</time></trkpt><trkpt lat="42.99446826086136" lon="11.485573365729865"><ele>303.4</ele><time>2026-04-11T11:30:09Z</time></trkpt><trkpt lat="42.99434050616491" lon="11.485648303244758"><ele>302.0</ele><time>2026-04-11T11:30:14Z</time></trkpt><trkpt lat="42.994277483421484" lon="11.485689612222469"><ele>302.0</ele><time>2026-04-11T11:30:16Z</time></trkpt><trkpt lat="42.9941819358884" lon="11.485722388473489"><ele>302.0</ele><time>2026-04-11T11:30:18Z</time></trkpt><trkpt lat="42.99408867035321" lon="11.485723867092547"><ele>302.0</ele><time>2026-04-11T11:30:20Z</time></trkpt><trkpt lat="42.99399467403812" lon="11.48573168602886"><ele>302.0</ele><time>2026-04-11T11:30:22Z</time></trkpt><trkpt lat="42.99390547322455" lon="11.485739286639246"><ele>302.0</ele><time>2026-04-11T11:30:24Z</time></trkpt><trkpt lat="42.993800666737954" lon="11.48573714596818"><ele>303.0</ele><time>2026-04-11T11:30:26Z</time></trkpt><trkpt lat="42.99369557831401" lon="11.485734458241954"><ele>304.0</ele><time>2026-04-11T11:30:28Z</time></trkpt><trkpt lat="42.993583027205595" lon="11.485731959134416"><ele>305.0</ele><time>2026-04-11T11:30:30Z</time></trkpt><trkpt lat="42.99334592431953" lon="11.485735121499884"><ele>304.2</ele><time>2026-04-11T11:30:34Z</time></trkpt><trkpt lat="42.99322178868848" lon="11.485743481542041"><ele>303.4</ele><time>2026-04-11T11:30:36Z</time></trkpt><trkpt lat="42.9930963407141" lon="11.485751561932206"><ele>302.6</ele><time>2026-04-11T11:30:38Z</time></trkpt><trkpt lat="42.99303138716891" lon="11.485770311897664"><ele>301.8</ele><time>2026-04-11T11:30:39Z</time></trkpt><trkpt lat="42.99296583687957" lon="11.48580554458614"><ele>301.0</ele><time>2026-04-11T11:30:40Z</time></trkpt><trkpt lat="42.992904842564386" lon="11.485850470796837"><ele>301.0</ele><time>2026-04-11T11:30:41Z</time></trkpt><trkpt lat="42.992846535736575" lon="11.48590814088361"><ele>301.0</ele><time>2026-04-11T11:30:42Z</time></trkpt><trkpt lat="42.99278992962146" lon="11.485972263659978"><ele>301.0</ele><time>2026-04-11T11:30:43Z</time></trkpt><trkpt lat="42.99273679398492" lon="11.486039177100492"><ele>301.0</ele><time>2026-04-11T11:30:44Z</time></trkpt><trkpt lat="42.99268460313489" lon="11.486108056418738"><ele>301.0</ele><time>2026-04-11T11:30:45Z</time></trkpt><trkpt lat="42.992634826801876" lon="11.48618385074227"><ele>301.0</ele><time>2026-04-11T11:30:46Z</time></trkpt><trkpt lat="42.99258972894368" lon="11.48625911937057"><ele>301.0</ele><time>2026-04-11T11:30:47Z</time></trkpt><trkpt lat="42.992543472015676" lon="11.486331076308293"><ele>299.66666666666663</ele><time>2026-04-11T11:30:48Z</time></trkpt><trkpt lat="42.99249699433872" lon="11.486397199301136"><ele>298.3333333333333</ele><time>2026-04-11T11:30:49Z</time></trkpt><trkpt lat="42.99244907822797" lon="11.48646499796141"><ele>297.0</ele><time>2026-04-11T11:30:50Z</time></trkpt><trkpt lat="42.992404360861386" lon="11.486534777091794"><ele>295.6666666666667</ele><time>2026-04-11T11:30:51Z</time></trkpt><trkpt lat="42.99231342394378" lon="11.486665458699386"><ele>294.33333333333337</ele><time>2026-04-11T11:30:53Z</time></trkpt><trkpt lat="42.992270462384035" lon="11.486733337144202"><ele>293.0</ele><time>2026-04-11T11:30:54Z</time></trkpt><trkpt lat="42.992231326793856" lon="11.486805227677387"><ele>293.0</ele><time>2026-04-11T11:30:55Z</time></trkpt><trkpt lat="42.99219263213808" lon="11.486874664489322"><ele>293.0</ele><time>2026-04-11T11:30:56Z</time></trkpt><trkpt lat="42.99212766882518" lon="11.48701829610071"><ele>293.0</ele><time>2026-04-11T11:30:58Z</time></trkpt><trkpt lat="42.99209979637319" lon="11.48717332414267"><ele>293.0</ele><time>2026-04-11T11:31:00Z</time></trkpt><trkpt lat="42.992098471102366" lon="11.487311281900183"><ele>293.0</ele><time>2026-04-11T11:31:02Z</time></trkpt><trkpt lat="42.99208716904861" lon="11.487432589078939"><ele>294.83333333333337</ele><time>2026-04-11T11:31:04Z</time></trkpt><trkpt lat="42.992066580031455" lon="11.487532952367195"><ele>296.6666666666667</ele><time>2026-04-11T11:31:06Z</time></trkpt><trkpt lat="42.992060852744174" lon="11.487632797645428"><ele>298.5</ele><time>2026-04-11T11:31:08Z</time></trkpt><trkpt lat="42.99203767162033" lon="11.48772433364767"><ele>300.3333333333333</ele><time>2026-04-11T11:31:10Z</time></trkpt><trkpt lat="42.992020212174744" lon="11.487828344470756"><ele>302.16666666666663</ele><time>2026-04-11T11:31:12Z</time></trkpt><trkpt lat="42.992004052971204" lon="11.488013540098969"><ele>304.0</ele><time>2026-04-11T11:31:16Z</time></trkpt><trkpt lat="42.991982747356126" lon="11.488110836271716"><ele>304.8333333333333</ele><time>2026-04-11T11:31:18Z</time></trkpt><trkpt lat="42.99197408084821" lon="11.488209882128347"><ele>305.66666666666663</ele><time>2026-04-11T11:31:20Z</time></trkpt><trkpt lat="42.99196249875218" lon="11.488315681925656"><ele>306.5</ele><time>2026-04-11T11:31:22Z</time></trkpt><trkpt lat="42.99195148988181" lon="11.488431607365843"><ele>307.3333333333333</ele><time>2026-04-11T11:31:24.001Z</time></trkpt><trkpt lat="42.9919344241096" lon="11.488554103911493"><ele>308.1666666666667</ele><time>2026-04-11T11:31:26.001Z</time></trkpt><trkpt lat="42.9919241543825" lon="11.488681705426075"><ele>309.0</ele><time>2026-04-11T11:31:29.001Z</time></trkpt><trkpt lat="42.99191189325626" lon="11.488796735152748"><ele>309.5</ele><time>2026-04-11T11:31:30.001Z</time></trkpt><trkpt lat="42.991906276997476" lon="11.488891352096681"><ele>310.0</ele><time>2026-04-11T11:31:31.001Z</time></trkpt><trkpt lat="42.99189904902858" lon="11.489052545638105"><ele>310.5</ele><time>2026-04-11T11:31:33.001Z</time></trkpt><trkpt lat="42.9918564580674" lon="11.489373571110898"><ele>311.0</ele><time>2026-04-11T11:31:37.001Z</time></trkpt><trkpt lat="42.99183175971739" lon="11.489535911011776"><ele>311.25</ele><time>2026-04-11T11:31:39.001Z</time></trkpt><trkpt lat="42.99179943728107" lon="11.489684395322396"><ele>311.5</ele><time>2026-04-11T11:31:41.001Z</time></trkpt><trkpt lat="42.99176769439408" lon="11.489838170247129"><ele>311.75</ele><time>2026-04-11T11:31:43.001Z</time></trkpt><trkpt lat="42.99174043385555" lon="11.490003365543195"><ele>312.0</ele><time>2026-04-11T11:31:45.001Z</time></trkpt><trkpt lat="42.991713710177066" lon="11.490168148986648"><ele>312.0</ele><time>2026-04-11T11:31:47.001Z</time></trkpt><trkpt lat="42.99168211560139" lon="11.490332263516954"><ele>312.0</ele><time>2026-04-11T11:31:49.001Z</time></trkpt><trkpt lat="42.99165592136279" lon="11.490507549356291"><ele>312.0</ele><time>2026-04-11T11:31:51.001Z</time></trkpt><trkpt lat="42.99164101200885" lon="11.490603486756221"><ele>312.0</ele><time>2026-04-11T11:31:52.001Z</time></trkpt><trkpt lat="42.9916249536891" lon="11.490701067795456"><ele>312.0</ele><time>2026-04-11T11:31:53.001Z</time></trkpt><trkpt lat="42.99160739678064" lon="11.490802030045527"><ele>308.4</ele><time>2026-04-11T11:31:54.001Z</time></trkpt><trkpt lat="42.99156830473516" lon="11.491010718070104"><ele>304.79999999999995</ele><time>2026-04-11T11:31:56.001Z</time></trkpt><trkpt lat="42.991551552917024" lon="11.491121096389172"><ele>301.2</ele><time>2026-04-11T11:31:57Z</time></trkpt><trkpt lat="42.99153483837475" lon="11.491238653397192"><ele>297.59999999999997</ele><time>2026-04-11T11:31:58Z</time></trkpt><trkpt lat="42.9915179307843" lon="11.491355946155211"><ele>294.0</ele><time>2026-04-11T11:31:59Z</time></trkpt><trkpt lat="42.99149512451739" lon="11.491477303314145"><ele>293.8</ele><time>2026-04-11T11:32:00Z</time></trkpt><trkpt lat="42.99146961356137" lon="11.491600067426814"><ele>293.59999999999997</ele><time>2026-04-11T11:32:01Z</time></trkpt><trkpt lat="42.99144542529375" lon="11.491726112109465"><ele>293.4</ele><time>2026-04-11T11:32:02Z</time></trkpt><trkpt lat="42.99142585766975" lon="11.491857817279469"><ele>293.2</ele><time>2026-04-11T11:32:03Z</time></trkpt><trkpt lat="42.99140457007613" lon="11.491988822181806"><ele>293.0</ele><time>2026-04-11T11:32:04Z</time></trkpt><trkpt lat="42.991384869845376" lon="11.49211945687213"><ele>293.0</ele><time>2026-04-11T11:32:05Z</time></trkpt><trkpt lat="42.99136353717806" lon="11.492249743693906"><ele>293.0</ele><time>2026-04-11T11:32:06Z</time></trkpt><trkpt lat="42.99134164416941" lon="11.492375788337245"><ele>293.0</ele><time>2026-04-11T11:32:07Z</time></trkpt><trkpt lat="42.991318294085424" lon="11.49249446131714"><ele>293.0</ele><time>2026-04-11T11:32:08Z</time></trkpt><trkpt lat="42.99129250362894" lon="11.492605976548225"><ele>293.0</ele><time>2026-04-11T11:32:09Z</time></trkpt><trkpt lat="42.99127233565607" lon="11.492717253292934"><ele>293.0</ele><time>2026-04-11T11:32:10Z</time></trkpt><trkpt lat="42.991252606327016" lon="11.492822040013552"><ele>293.0</ele><time>2026-04-11T11:32:11Z</time></trkpt><trkpt lat="42.99123649412158" lon="11.492927180459931"><ele>293.0</ele><time>2026-04-11T11:32:12Z</time></trkpt><trkpt lat="42.991218192189585" lon="11.493034336511828"><ele>293.0</ele><time>2026-04-11T11:32:13Z</time></trkpt><trkpt lat="42.99119561828488" lon="11.493142253716965"><ele>293.0</ele><time>2026-04-11T11:32:14Z</time></trkpt><trkpt lat="42.991173108526894" lon="11.493252470335747"><ele>293.0</ele><time>2026-04-11T11:32:15Z</time></trkpt><trkpt lat="42.99111918423366" lon="11.493484888379095"><ele>292.8</ele><time>2026-04-11T11:32:17Z</time></trkpt><trkpt lat="42.99109538698599" lon="11.493609744505548"><ele>292.6</ele><time>2026-04-11T11:32:18Z</time></trkpt><trkpt lat="42.991065307759435" lon="11.493738420339907"><ele>292.4</ele><time>2026-04-11T11:32:19Z</time></trkpt><trkpt lat="42.99103811816051" lon="11.493873412599044"><ele>292.2</ele><time>2026-04-11T11:32:20Z</time></trkpt><trkpt lat="42.991009137171844" lon="11.49401173973895"><ele>292.0</ele><time>2026-04-11T11:32:21Z</time></trkpt><trkpt lat="42.990981662362344" lon="11.494152369590138"><ele>292.5</ele><time>2026-04-11T11:32:22Z</time></trkpt><trkpt lat="42.99095006982475" lon="11.49429573716742"><ele>293.0</ele><time>2026-04-11T11:32:23Z</time></trkpt><trkpt lat="42.990915671568565" lon="11.494442734260518"><ele>293.5</ele><time>2026-04-11T11:32:24Z</time></trkpt><trkpt lat="42.99088032738716" lon="11.494593910378038"><ele>294.0</ele><time>2026-04-11T11:32:25Z</time></trkpt><trkpt lat="42.990846590056975" lon="11.494748089785503"><ele>291.0</ele><time>2026-04-11T11:32:26Z</time></trkpt><trkpt lat="42.9908149039832" lon="11.494896208079348"><ele>288.0</ele><time>2026-04-11T11:32:27Z</time></trkpt><trkpt lat="42.99078334008576" lon="11.495035815450137"><ele>285.0</ele><time>2026-04-11T11:32:28Z</time></trkpt><trkpt lat="42.99074939741709" lon="11.495165692305964"><ele>282.0</ele><time>2026-04-11T11:32:29Z</time></trkpt><trkpt lat="42.99071681810615" lon="11.495286427784015"><ele>279.0</ele><time>2026-04-11T11:32:30Z</time></trkpt><trkpt lat="42.99068296314913" lon="11.495403470709103"><ele>279.6666666666667</ele><time>2026-04-11T11:32:31Z</time></trkpt><trkpt lat="42.99064887615024" lon="11.495521005285356"><ele>280.3333333333333</ele><time>2026-04-11T11:32:32Z</time></trkpt><trkpt lat="42.99062062908967" lon="11.495640055112355"><ele>281.0</ele><time>2026-04-11T11:32:33Z</time></trkpt><trkpt lat="42.99059220780883" lon="11.495757934458808"><ele>281.66666666666663</ele><time>2026-04-11T11:32:34Z</time></trkpt><trkpt lat="42.99055742892094" lon="11.49586897286087"><ele>282.3333333333333</ele><time>2026-04-11T11:32:35Z</time></trkpt><trkpt lat="42.990523019453576" lon="11.495974859306656"><ele>283.0</ele><time>2026-04-11T11:32:36Z</time></trkpt><trkpt lat="42.99045892441674" lon="11.496171206697413"><ele>284.2857142857143</ele><time>2026-04-11T11:32:38Z</time></trkpt><trkpt lat="42.99042775050369" lon="11.496267761338691"><ele>285.5714285714286</ele><time>2026-04-11T11:32:39Z</time></trkpt><trkpt lat="42.99039411834455" lon="11.496362903042117"><ele>286.8571428571429</ele><time>2026-04-11T11:32:40Z</time></trkpt><trkpt lat="42.990365510497305" lon="11.49645670593354"><ele>288.14285714285717</ele><time>2026-04-11T11:32:41Z</time></trkpt><trkpt lat="42.99033997942824" lon="11.496551136123584"><ele>289.42857142857144</ele><time>2026-04-11T11:32:42Z</time></trkpt><trkpt lat="42.990315418087526" lon="11.496638204457723"><ele>290.7142857142857</ele><time>2026-04-11T11:32:43Z</time></trkpt><trkpt lat="42.9902861872813" lon="11.496715273804918"><ele>292.0</ele><time>2026-04-11T11:32:44Z</time></trkpt><trkpt lat="42.990233649619064" lon="11.496853969283565"><ele>292.0</ele><time>2026-04-11T11:32:46Z</time></trkpt><trkpt lat="42.9901897256732" lon="11.496986444656283"><ele>292.0</ele><time>2026-04-11T11:32:48Z</time></trkpt><trkpt lat="42.990153742490946" lon="11.497107272207217"><ele>292.0</ele><time>2026-04-11T11:32:50Z</time></trkpt><trkpt lat="42.990117099614764" lon="11.497218563813567"><ele>292.0</ele><time>2026-04-11T11:32:52Z</time></trkpt><trkpt lat="42.99010579065775" lon="11.497330555056392"><ele>292.0</ele><time>2026-04-11T11:32:54Z</time></trkpt><trkpt lat="42.99008635509865" lon="11.497431463508878"><ele>293.0</ele><time>2026-04-11T11:32:56Z</time></trkpt><trkpt lat="42.99006692031403" lon="11.497532842192175"><ele>294.0</ele><time>2026-04-11T11:32:58Z</time></trkpt><trkpt lat="42.99003468755942" lon="11.49781396858004"><ele>295.0</ele><time>2026-04-11T11:33:03Z</time></trkpt><trkpt lat="42.99003825117749" lon="11.497939927070906"><ele>296.0</ele><time>2026-04-11T11:33:05Z</time></trkpt><trkpt lat="42.990029174300176" lon="11.49806538257166"><ele>296.0</ele><time>2026-04-11T11:33:07Z</time></trkpt><trkpt lat="42.99001381935206" lon="11.498207663128206"><ele>296.0</ele><time>2026-04-11T11:33:09Z</time></trkpt><trkpt lat="42.99001607887854" lon="11.498348977568055"><ele>296.0</ele><time>2026-04-11T11:33:11Z</time></trkpt><trkpt lat="42.99002820133246" lon="11.498499743207404"><ele>296.0</ele><time>2026-04-11T11:33:13Z</time></trkpt><trkpt lat="42.990071669081615" lon="11.498638941256726"><ele>296.0</ele><time>2026-04-11T11:33:15Z</time></trkpt><trkpt lat="42.99013325695277" lon="11.498773590255514"><ele>294.2</ele><time>2026-04-11T11:33:17Z</time></trkpt><trkpt lat="42.99019661434559" lon="11.498838454728253"><ele>292.40000000000003</ele><time>2026-04-11T11:33:18Z</time></trkpt><trkpt lat="42.99024196902207" lon="11.498910543102326"><ele>290.6</ele><time>2026-04-11T11:33:19Z</time></trkpt><trkpt lat="42.99034900421877" lon="11.499054203854943"><ele>288.8</ele><time>2026-04-11T11:33:21Z</time></trkpt><trkpt lat="42.99039875125854" lon="11.499128881387403"><ele>287.0</ele><time>2026-04-11T11:33:22Z</time></trkpt><trkpt lat="42.99045282868589" lon="11.49921486109681"><ele>287.0</ele><time>2026-04-11T11:33:23Z</time></trkpt><trkpt lat="42.99051017465426" lon="11.499301713023549"><ele>287.0</ele><time>2026-04-11T11:33:24Z</time></trkpt><trkpt lat="42.99057843689746" lon="11.499394538984742"><ele>287.0</ele><time>2026-04-11T11:33:25Z</time></trkpt><trkpt lat="42.99064566594227" lon="11.49948679888657"><ele>287.0</ele><time>2026-04-11T11:33:26Z</time></trkpt><trkpt lat="42.9907125361809" lon="11.499587605464042"><ele>287.0</ele><time>2026-04-11T11:33:27Z</time></trkpt><trkpt lat="42.99077619123008" lon="11.499694648899435"><ele>286.6</ele><time>2026-04-11T11:33:28Z</time></trkpt><trkpt lat="42.99084492345255" lon="11.499805408601388"><ele>286.2</ele><time>2026-04-11T11:33:29Z</time></trkpt><trkpt lat="42.9909220569999" lon="11.499913755639717"><ele>285.8</ele><time>2026-04-11T11:33:30Z</time></trkpt><trkpt lat="42.99099748477871" lon="11.500022867162"><ele>285.4</ele><time>2026-04-11T11:33:31Z</time></trkpt><trkpt lat="42.99107334610748" lon="11.50012836886522"><ele>285.0</ele><time>2026-04-11T11:33:32Z</time></trkpt><trkpt lat="42.99114208062826" lon="11.500232331903993"><ele>285.0</ele><time>2026-04-11T11:33:33Z</time></trkpt><trkpt lat="42.991205310792466" lon="11.500336031801503"><ele>285.0</ele><time>2026-04-11T11:33:34Z</time></trkpt><trkpt lat="42.99127065137938" lon="11.500437669360915"><ele>285.0</ele><time>2026-04-11T11:33:35Z</time></trkpt><trkpt lat="42.991332920195646" lon="11.500537833925307"><ele>285.0</ele><time>2026-04-11T11:33:36Z</time></trkpt><trkpt lat="42.991397205001554" lon="11.500629536119915"><ele>285.0</ele><time>2026-04-11T11:33:37Z</time></trkpt><trkpt lat="42.991469534426834" lon="11.500713608660346"><ele>285.25</ele><time>2026-04-11T11:33:38Z</time></trkpt><trkpt lat="42.99154889966557" lon="11.500788998236965"><ele>285.5</ele><time>2026-04-11T11:33:39Z</time></trkpt><trkpt lat="42.99163087226892" lon="11.500857255638191"><ele>285.75</ele><time>2026-04-11T11:33:40Z</time></trkpt><trkpt lat="42.99181002262923" lon="11.50096239456471"><ele>286.0</ele><time>2026-04-11T11:33:42.001Z</time></trkpt><trkpt lat="42.991894976466796" lon="11.501016364288947"><ele>286.0</ele><time>2026-04-11T11:33:43.001Z</time></trkpt><trkpt lat="42.9919709645086" lon="11.501076432314047"><ele>286.0</ele><time>2026-04-11T11:33:44.001Z</time></trkpt><trkpt lat="42.9920327415455" lon="11.501140687961115"><ele>286.0</ele><time>2026-04-11T11:33:45.001Z</time></trkpt><trkpt lat="42.99208103293349" lon="11.501223763566701"><ele>286.0</ele><time>2026-04-11T11:33:46.001Z</time></trkpt><trkpt lat="42.99210552811942" lon="11.501328561369384"><ele>286.0</ele><time>2026-04-11T11:33:47.001Z</time></trkpt><trkpt lat="42.99209914807117" lon="11.50144425412974"><ele>286.0</ele><time>2026-04-11T11:33:48.001Z</time></trkpt><trkpt lat="42.992066550295725" lon="11.501546420438059"><ele>286.2857142857143</ele><time>2026-04-11T11:33:49.001Z</time></trkpt><trkpt lat="42.992027389740166" lon="11.501635973159141"><ele>286.57142857142856</ele><time>2026-04-11T11:33:50.001Z</time></trkpt><trkpt lat="42.99199260961793" lon="11.501725827264666"><ele>286.8571428571429</ele><time>2026-04-11T11:33:51.001Z</time></trkpt><trkpt lat="42.991963738018086" lon="11.501817052669454"><ele>287.1428571428571</ele><time>2026-04-11T11:33:52.001Z</time></trkpt><trkpt lat="42.99193042295033" lon="11.501906870180171"><ele>287.42857142857144</ele><time>2026-04-11T11:33:53.001Z</time></trkpt><trkpt lat="42.99189486132551" lon="11.50199761829742"><ele>287.7142857142857</ele><time>2026-04-11T11:33:54.001Z</time></trkpt><trkpt lat="42.9918576808532" lon="11.502087803994872"><ele>288.0</ele><time>2026-04-11T11:33:55.001Z</time></trkpt><trkpt lat="42.99181947797579" lon="11.502175961957747"><ele>290.3333333333333</ele><time>2026-04-11T11:33:56.001Z</time></trkpt><trkpt lat="42.99178483007318" lon="11.502267788016947"><ele>292.6666666666667</ele><time>2026-04-11T11:33:57.001Z</time></trkpt><trkpt lat="42.99175328609768" lon="11.502359585769218"><ele>295.0</ele><time>2026-04-11T11:33:58.001Z</time></trkpt><trkpt lat="42.991718023209984" lon="11.502450126163158"><ele>297.33333333333337</ele><time>2026-04-11T11:33:59.001Z</time></trkpt><trkpt lat="42.9916871278564" lon="11.502544452784921"><ele>299.6666666666667</ele><time>2026-04-11T11:34:00.001Z</time></trkpt><trkpt lat="42.991657204809606" lon="11.502636128559132"><ele>302.0</ele><time>2026-04-11T11:34:01.001Z</time></trkpt><trkpt lat="42.99160210423802" lon="11.502806165743868"><ele>297.8</ele><time>2026-04-11T11:34:03Z</time></trkpt><trkpt lat="42.99157027767155" lon="11.502885539850588"><ele>293.6</ele><time>2026-04-11T11:34:04Z</time></trkpt><trkpt lat="42.991530112695976" lon="11.503046270014849"><ele>289.40000000000003</ele><time>2026-04-11T11:34:06Z</time></trkpt><trkpt lat="42.99148127514639" lon="11.503198948402966"><ele>285.2</ele><time>2026-04-11T11:34:08Z</time></trkpt><trkpt lat="42.99142498940327" lon="11.503356690253415"><ele>281.0</ele><time>2026-04-11T11:34:10Z</time></trkpt><trkpt lat="42.991393164087306" lon="11.503438492205163"><ele>281.00000000000006</ele><time>2026-04-11T11:34:11Z</time></trkpt><trkpt lat="42.99135596202476" lon="11.503520496563732"><ele>281.0</ele><time>2026-04-11T11:34:12Z</time></trkpt><trkpt lat="42.99131289290384" lon="11.503598002398837"><ele>281.0</ele><time>2026-04-11T11:34:13Z</time></trkpt><trkpt lat="42.99127155427945" lon="11.503676562150686"><ele>281.0</ele><time>2026-04-11T11:34:14Z</time></trkpt><trkpt lat="42.99123158178927" lon="11.50375280023245"><ele>281.0</ele><time>2026-04-11T11:34:15Z</time></trkpt><trkpt lat="42.99119057506624" lon="11.503834940579802"><ele>281.00000000000006</ele><time>2026-04-11T11:34:16Z</time></trkpt><trkpt lat="42.9911514971998" lon="11.50392139509936"><ele>281.0</ele><time>2026-04-11T11:34:17Z</time></trkpt><trkpt lat="42.991110717775584" lon="11.504010147066827"><ele>283.40000000000003</ele><time>2026-04-11T11:34:18Z</time></trkpt><trkpt lat="42.99106577854442" lon="11.504093654907612"><ele>285.8</ele><time>2026-04-11T11:34:19Z</time></trkpt><trkpt lat="42.99102230661751" lon="11.504187948798716"><ele>288.20000000000005</ele><time>2026-04-11T11:34:20Z</time></trkpt><trkpt lat="42.99098230096764" lon="11.50428326279658"><ele>290.6</ele><time>2026-04-11T11:34:21Z</time></trkpt><trkpt lat="42.99094625600579" lon="11.50438654654583"><ele>293.0</ele><time>2026-04-11T11:34:22Z</time></trkpt><trkpt lat="42.990867000076264" lon="11.504592030797072"><ele>289.0</ele><time>2026-04-11T11:34:24Z</time></trkpt><trkpt lat="42.99082791554296" lon="11.504695970567683"><ele>285.0</ele><time>2026-04-11T11:34:25Z</time></trkpt><trkpt lat="42.99078470072788" lon="11.504799132552453"><ele>281.0</ele><time>2026-04-11T11:34:26Z</time></trkpt><trkpt lat="42.99074214394206" lon="11.50490094368159"><ele>277.0</ele><time>2026-04-11T11:34:27Z</time></trkpt><trkpt lat="42.9907024647326" lon="11.504999687225634"><ele>273.0</ele><time>2026-04-11T11:34:28Z</time></trkpt><trkpt lat="42.99066590163316" lon="11.505097191870087"><ele>269.0</ele><time>2026-04-11T11:34:29Z</time></trkpt><trkpt lat="42.99063067952812" lon="11.505191056708108"><ele>269.0</ele><time>2026-04-11T11:34:30Z</time></trkpt><trkpt lat="42.99059421511674" lon="11.505275176396733"><ele>269.0</ele><time>2026-04-11T11:34:31Z</time></trkpt><trkpt lat="42.99056080620766" lon="11.50535584380155"><ele>269.0</ele><time>2026-04-11T11:34:32Z</time></trkpt><trkpt lat="42.99050031788324" lon="11.505504429342034"><ele>269.0</ele><time>2026-04-11T11:34:34Z</time></trkpt><trkpt lat="42.99046761807684" lon="11.505578333846069"><ele>269.0</ele><time>2026-04-11T11:34:35Z</time></trkpt><trkpt lat="42.990402708434935" lon="11.505713811937285"><ele>269.0</ele><time>2026-04-11T11:34:37Z</time></trkpt><trkpt lat="42.9903379270699" lon="11.505832488187787"><ele>272.0</ele><time>2026-04-11T11:34:39Z</time></trkpt><trkpt lat="42.99026991345649" lon="11.505929800994428"><ele>275.0</ele><time>2026-04-11T11:34:41Z</time></trkpt><trkpt lat="42.990208250327896" lon="11.506039318396892"><ele>278.0</ele><time>2026-04-11T11:34:43Z</time></trkpt><trkpt lat="42.9901402707709" lon="11.506252940273392"><ele>281.0</ele><time>2026-04-11T11:34:46Z</time></trkpt><trkpt lat="42.99013088046555" lon="11.506341789479958"><ele>284.0</ele><time>2026-04-11T11:34:47Z</time></trkpt><trkpt lat="42.99012423896114" lon="11.506431766908655"><ele>285.0</ele><time>2026-04-11T11:34:48Z</time></trkpt><trkpt lat="42.99012382726461" lon="11.506521615461619"><ele>286.0</ele><time>2026-04-11T11:34:49Z</time></trkpt><trkpt lat="42.99012100605526" lon="11.506614309329905"><ele>287.0</ele><time>2026-04-11T11:34:50Z</time></trkpt><trkpt lat="42.99011820050092" lon="11.506711369403304"><ele>288.0</ele><time>2026-04-11T11:34:51Z</time></trkpt><trkpt lat="42.99010694537366" lon="11.50680651046651"><ele>289.0</ele><time>2026-04-11T11:34:52Z</time></trkpt><trkpt lat="42.99009102927553" lon="11.50689491234156"><ele>290.0</ele><time>2026-04-11T11:34:53Z</time></trkpt><trkpt lat="42.990080534423996" lon="11.506981799290617"><ele>291.0</ele><time>2026-04-11T11:34:54Z</time></trkpt><trkpt lat="42.99003600983005" lon="11.507122363652737"><ele>287.0</ele><time>2026-04-11T11:34:56Z</time></trkpt><trkpt lat="42.98995863859079" lon="11.507203645766365"><ele>283.0</ele><time>2026-04-11T11:34:58Z</time></trkpt><trkpt lat="42.98988535999213" lon="11.507244342992852"><ele>279.0</ele><time>2026-04-11T11:35:00Z</time></trkpt><trkpt lat="42.98982412817356" lon="11.507300858761832"><ele>275.0</ele><time>2026-04-11T11:35:02Z</time></trkpt><trkpt lat="42.98977507925075" lon="11.507363298260744"><ele>271.0</ele><time>2026-04-11T11:35:04Z</time></trkpt><trkpt lat="42.98969100851909" lon="11.507516525533577"><ele>271.0</ele><time>2026-04-11T11:35:08Z</time></trkpt><trkpt lat="42.98965438818951" lon="11.507604557421747"><ele>271.0</ele><time>2026-04-11T11:35:10Z</time></trkpt><trkpt lat="42.989615978495856" lon="11.507688578381005"><ele>271.0</ele><time>2026-04-11T11:35:12Z</time></trkpt><trkpt lat="42.989580535884464" lon="11.507781746476287"><ele>271.0</ele><time>2026-04-11T11:35:14Z</time></trkpt><trkpt lat="42.98955741584405" lon="11.507877332880128"><ele>271.0</ele><time>2026-04-11T11:35:16Z</time></trkpt><trkpt lat="42.98954143613079" lon="11.507987565286717"><ele>271.0</ele><time>2026-04-11T11:35:19Z</time></trkpt><trkpt lat="42.98952588459298" lon="11.508083266693838"><ele>273.2</ele><time>2026-04-11T11:35:21Z</time></trkpt><trkpt lat="42.989511767941195" lon="11.508205283385383"><ele>275.40000000000003</ele><time>2026-04-11T11:35:24Z</time></trkpt><trkpt lat="42.98949560367431" lon="11.508306922967193"><ele>277.6</ele><time>2026-04-11T11:35:26Z</time></trkpt><trkpt lat="42.98947767411536" lon="11.508533399492041"><ele>279.8</ele><time>2026-04-11T11:35:30Z</time></trkpt><trkpt lat="42.98946653250528" lon="11.508633578242248"><ele>282.0</ele><time>2026-04-11T11:35:32Z</time></trkpt><trkpt lat="42.98945092552091" lon="11.508757336454146"><ele>284.1666666666667</ele><time>2026-04-11T11:35:34Z</time></trkpt><trkpt lat="42.989448012543875" lon="11.508848038737609"><ele>286.3333333333333</ele><time>2026-04-11T11:35:35Z</time></trkpt><trkpt lat="42.98944464747651" lon="11.508961522800075"><ele>288.5</ele><time>2026-04-11T11:35:37Z</time></trkpt><trkpt lat="42.989437587012034" lon="11.509074570075684"><ele>290.66666666666663</ele><time>2026-04-11T11:35:39Z</time></trkpt><trkpt lat="42.98942556745615" lon="11.509176283498645"><ele>292.8333333333333</ele><time>2026-04-11T11:35:41Z</time></trkpt><trkpt lat="42.989416636531125" lon="11.509276430490669"><ele>295.0</ele><time>2026-04-11T11:35:43Z</time></trkpt><trkpt lat="42.98941015766614" lon="11.50937957499227"><ele>295.0</ele><time>2026-04-11T11:35:45Z</time></trkpt><trkpt lat="42.98939927047175" lon="11.509467763734278"><ele>295.0</ele><time>2026-04-11T11:35:47Z</time></trkpt><trkpt lat="42.989393076672265" lon="11.50966406250146"><ele>295.0</ele><time>2026-04-11T11:35:51Z</time></trkpt><trkpt lat="42.989391364817834" lon="11.509757969252417"><ele>295.0</ele><time>2026-04-11T11:35:53Z</time></trkpt><trkpt lat="42.98938981962325" lon="11.509854339505923"><ele>295.0</ele><time>2026-04-11T11:35:55Z</time></trkpt><trkpt lat="42.98939496572819" lon="11.509949113932231"><ele>295.0</ele><time>2026-04-11T11:35:57Z</time></trkpt><trkpt lat="42.98940428772335" lon="11.510043751859696"><ele>294.8</ele><time>2026-04-11T11:35:59Z</time></trkpt><trkpt lat="42.98940916093714" lon="11.51013418947985"><ele>294.6</ele><time>2026-04-11T11:36:01Z</time></trkpt><trkpt lat="42.98941422616772" lon="11.510226469030806"><ele>294.4</ele><time>2026-04-11T11:36:04.001Z</time></trkpt><trkpt lat="42.98942480256656" lon="11.510327617193278"><ele>294.2</ele><time>2026-04-11T11:36:07.001Z</time></trkpt><trkpt lat="42.989442436285195" lon="11.510431194238818"><ele>294.0</ele><time>2026-04-11T11:36:10Z</time></trkpt><trkpt lat="42.989486554974434" lon="11.510650747082407"><ele>294.0</ele><time>2026-04-11T11:36:16Z</time></trkpt><trkpt lat="42.98949879546719" lon="11.510740096855015"><ele>294.0</ele><time>2026-04-11T11:36:19Z</time></trkpt><trkpt lat="42.98951365973179" lon="11.51084123289513"><ele>294.0</ele><time>2026-04-11T11:36:22Z</time></trkpt><trkpt lat="42.989530103902034" lon="11.510938174456967"><ele>294.0</ele><time>2026-04-11T11:36:24Z</time></trkpt><trkpt lat="42.98954020978041" lon="11.511033609058646"><ele>294.0</ele><time>2026-04-11T11:36:27Z</time></trkpt><trkpt lat="42.98956168996731" lon="11.511152170128007"><ele>294.0</ele><time>2026-04-11T11:36:30Z</time></trkpt><trkpt lat="42.98958024223527" lon="11.511254818639237"><ele>292.0</ele><time>2026-04-11T11:36:34Z</time></trkpt><trkpt lat="42.98962842341089" lon="11.511456091558564"><ele>290.0</ele><time>2026-04-11T11:36:40Z</time></trkpt><trkpt lat="42.98970469449069" lon="11.51159577829321"><ele>288.0</ele><time>2026-04-11T11:36:43Z</time></trkpt><trkpt lat="42.98979416622053" lon="11.511667983503123"><ele>286.0</ele><time>2026-04-11T11:36:45Z</time></trkpt><trkpt lat="42.98991664528167" lon="11.51170193787127"><ele>286.0</ele><time>2026-04-11T11:36:47Z</time></trkpt><trkpt lat="42.989985605905176" lon="11.511721131792381"><ele>286.0</ele><time>2026-04-11T11:36:48Z</time></trkpt><trkpt lat="42.99005651563387" lon="11.511747810591565"><ele>286.0</ele><time>2026-04-11T11:36:49Z</time></trkpt><trkpt lat="42.9901321839277" lon="11.5117761444441"><ele>286.0</ele><time>2026-04-11T11:36:50Z</time></trkpt><trkpt lat="42.99021082683833" lon="11.511797047906551"><ele>286.0</ele><time>2026-04-11T11:36:51Z</time></trkpt><trkpt lat="42.990288504203996" lon="11.511819288716065"><ele>286.0</ele><time>2026-04-11T11:36:52Z</time></trkpt><trkpt lat="42.990370508291846" lon="11.511850903114299"><ele>286.0</ele><time>2026-04-11T11:36:53Z</time></trkpt><trkpt lat="42.99045281966087" lon="11.511880268309335"><ele>286.0</ele><time>2026-04-11T11:36:54Z</time></trkpt><trkpt lat="42.99054031686483" lon="11.511907519393812"><ele>286.0</ele><time>2026-04-11T11:36:55Z</time></trkpt><trkpt lat="42.99070866305904" lon="11.511963788317402"><ele>286.0</ele><time>2026-04-11T11:36:57Z</time></trkpt><trkpt lat="42.990792619762885" lon="11.511992179257804"><ele>286.0</ele><time>2026-04-11T11:36:58Z</time></trkpt><trkpt lat="42.99087879168267" lon="11.512020820259814"><ele>286.2</ele><time>2026-04-11T11:36:59Z</time></trkpt><trkpt lat="42.99096585471522" lon="11.512052366524143"><ele>286.40000000000003</ele><time>2026-04-11T11:37:00Z</time></trkpt><trkpt lat="42.99105552872754" lon="11.512084981576178"><ele>286.6</ele><time>2026-04-11T11:37:01Z</time></trkpt><trkpt lat="42.99114472972643" lon="11.51210883018866"><ele>286.8</ele><time>2026-04-11T11:37:02Z</time></trkpt><trkpt lat="42.99123361875911" lon="11.512135874547155"><ele>287.0</ele><time>2026-04-11T11:37:03Z</time></trkpt><trkpt lat="42.99132377928277" lon="11.51216170689326"><ele>285.6</ele><time>2026-04-11T11:37:04Z</time></trkpt><trkpt lat="42.991417224693755" lon="11.512184397879231"><ele>284.2</ele><time>2026-04-11T11:37:05Z</time></trkpt><trkpt lat="42.99151220140012" lon="11.512212216016325"><ele>282.8</ele><time>2026-04-11T11:37:06Z</time></trkpt><trkpt lat="42.99160594747058" lon="11.512233745173639"><ele>281.4</ele><time>2026-04-11T11:37:07Z</time></trkpt><trkpt lat="42.99169633394612" lon="11.512265361575476"><ele>280.0</ele><time>2026-04-11T11:37:08Z</time></trkpt><trkpt lat="42.99178367905515" lon="11.512317125341172"><ele>280.0</ele><time>2026-04-11T11:37:09Z</time></trkpt><trkpt lat="42.99186313824928" lon="11.512377728078972"><ele>280.0</ele><time>2026-04-11T11:37:10Z</time></trkpt><trkpt lat="42.99192806007838" lon="11.512455338561349"><ele>280.0</ele><time>2026-04-11T11:37:11Z</time></trkpt><trkpt lat="42.991974043450874" lon="11.512547545280338"><ele>280.0</ele><time>2026-04-11T11:37:12Z</time></trkpt><trkpt lat="42.99200727796505" lon="11.512645652513566"><ele>280.0</ele><time>2026-04-11T11:37:13Z</time></trkpt><trkpt lat="42.99203223549386" lon="11.512740054470983"><ele>280.0</ele><time>2026-04-11T11:37:14Z</time></trkpt><trkpt lat="42.992058303349545" lon="11.512828291077318"><ele>280.6</ele><time>2026-04-11T11:37:15Z</time></trkpt><trkpt lat="42.99209207913225" lon="11.512909118451564"><ele>281.2</ele><time>2026-04-11T11:37:16Z</time></trkpt><trkpt lat="42.9922454705875" lon="11.513081748212125"><ele>281.8</ele><time>2026-04-11T11:37:20Z</time></trkpt><trkpt lat="42.992314039164256" lon="11.513116326156249"><ele>282.4</ele><time>2026-04-11T11:37:22Z</time></trkpt><trkpt lat="42.99237986328562" lon="11.51314181027417"><ele>283.0</ele><time>2026-04-11T11:37:24Z</time></trkpt><trkpt lat="42.99244874930981" lon="11.513155282289507"><ele>282.2</ele><time>2026-04-11T11:37:26Z</time></trkpt><trkpt lat="42.99253859702419" lon="11.513187207872958"><ele>281.4</ele><time>2026-04-11T11:37:29Z</time></trkpt><trkpt lat="42.99262128775115" lon="11.513221506697487"><ele>280.59999999999997</ele><time>2026-04-11T11:37:32Z</time></trkpt><trkpt lat="42.99269175345786" lon="11.513250187185626"><ele>279.8</ele><time>2026-04-11T11:37:35Z</time></trkpt><trkpt lat="42.99275456213322" lon="11.513283400294371"><ele>279.0</ele><time>2026-04-11T11:37:39Z</time></trkpt><trkpt lat="42.99287560084112" lon="11.513347072842983"><ele>279.0</ele><time>2026-04-11T11:37:45Z</time></trkpt><trkpt lat="42.99295029034704" lon="11.513402084040875"><ele>279.0</ele><time>2026-04-11T11:37:49Z</time></trkpt><trkpt lat="42.99301290286613" lon="11.513455074381575"><ele>279.0</ele><time>2026-04-11T11:37:52Z</time></trkpt><trkpt lat="42.99308023090083" lon="11.51351183323877"><ele>279.0</ele><time>2026-04-11T11:37:56Z</time></trkpt><trkpt lat="42.99313842281777" lon="11.513561946675964"><ele>279.0</ele><time>2026-04-11T11:37:59Z</time></trkpt><trkpt lat="42.99320226477579" lon="11.513628550656817"><ele>279.0</ele><time>2026-04-11T11:38:02Z</time></trkpt><trkpt lat="42.99332138005107" lon="11.5137235846634"><ele>283.1666666666667</ele><time>2026-04-11T11:38:08Z</time></trkpt><trkpt lat="42.99337940637349" lon="11.513773260516512"><ele>287.3333333333333</ele><time>2026-04-11T11:38:11Z</time></trkpt><trkpt lat="42.99343407880182" lon="11.513832269562434"><ele>291.5</ele><time>2026-04-11T11:38:14Z</time></trkpt><trkpt lat="42.99349538096876" lon="11.513882206289768"><ele>295.66666666666663</ele><time>2026-04-11T11:38:17Z</time></trkpt><trkpt lat="42.993560595643295" lon="11.51392574925315"><ele>299.8333333333333</ele><time>2026-04-11T11:38:20Z</time></trkpt><trkpt lat="42.993631714354855" lon="11.513980946469827"><ele>304.0</ele><time>2026-04-11T11:38:23Z</time></trkpt><trkpt lat="42.993767595434235" lon="11.514047189077065"><ele>304.0</ele><time>2026-04-11T11:38:29Z</time></trkpt><trkpt lat="42.99384232111869" lon="11.514068922118259"><ele>304.0</ele><time>2026-04-11T11:38:32Z</time></trkpt><trkpt lat="42.99391448550489" lon="11.514071915878473"><ele>304.0</ele><time>2026-04-11T11:38:35Z</time></trkpt><trkpt lat="42.99398905580751" lon="11.514061916330576"><ele>304.0</ele><time>2026-04-11T11:38:38Z</time></trkpt><trkpt lat="42.99405717690902" lon="11.514033340167012"><ele>304.0</ele><time>2026-04-11T11:38:41Z</time></trkpt><trkpt lat="42.9941246303313" lon="11.514010718796262"><ele>304.0</ele><time>2026-04-11T11:38:44Z</time></trkpt><trkpt lat="42.99425551921855" lon="11.51393949957162"><ele>303.16666666666663</ele><time>2026-04-11T11:38:50Z</time></trkpt><trkpt lat="42.99431744734515" lon="11.513899885748012"><ele>302.3333333333333</ele><time>2026-04-11T11:38:53Z</time></trkpt><trkpt lat="42.994380398757976" lon="11.51386291181292"><ele>301.5</ele><time>2026-04-11T11:38:56Z</time></trkpt><trkpt lat="42.99443656898273" lon="11.51382289357368"><ele>300.6666666666667</ele><time>2026-04-11T11:38:59Z</time></trkpt><trkpt lat="42.994511485261235" lon="11.513784001630274"><ele>299.83333333333337</ele><time>2026-04-11T11:39:03Z</time></trkpt><trkpt lat="42.99458155371759" lon="11.513739472272125"><ele>299.0</ele><time>2026-04-11T11:39:07Z</time></trkpt><trkpt lat="42.99472113630159" lon="11.51367268462677"><ele>299.0</ele><time>2026-04-11T11:39:15Z</time></trkpt><trkpt lat="42.99478476702636" lon="11.513629859124874"><ele>299.0</ele><time>2026-04-11T11:39:19Z</time></trkpt><trkpt lat="42.99487043599228" lon="11.513582067049335"><ele>299.0</ele><time>2026-04-11T11:39:23Z</time></trkpt><trkpt lat="42.994944600815415" lon="11.513541709368473"><ele>299.0</ele><time>2026-04-11T11:39:26Z</time></trkpt><trkpt lat="42.995014347467894" lon="11.513494591040072"><ele>299.0</ele><time>2026-04-11T11:39:29Z</time></trkpt><trkpt lat="42.99515767894094" lon="11.513411804471568"><ele>300.33333333333337</ele><time>2026-04-11T11:39:36Z</time></trkpt><trkpt lat="42.99523995177314" lon="11.51337849713481"><ele>301.6666666666667</ele><time>2026-04-11T11:39:40Z</time></trkpt><trkpt lat="42.99531759317687" lon="11.513358337312729"><ele>303.0</ele><time>2026-04-11T11:39:43Z</time></trkpt><trkpt lat="42.995394804048644" lon="11.513356466999973"><ele>304.3333333333333</ele><time>2026-04-11T11:39:46Z</time></trkpt><trkpt lat="42.995471958332196" lon="11.51336370335266"><ele>305.66666666666663</ele><time>2026-04-11T11:39:49Z</time></trkpt><trkpt lat="42.99555230050223" lon="11.513366219697666"><ele>307.0</ele><time>2026-04-11T11:39:52Z</time></trkpt><trkpt lat="42.99570137530381" lon="11.513415067708506"><ele>307.0</ele><time>2026-04-11T11:39:57Z</time></trkpt><trkpt lat="42.99578711022959" lon="11.513427857418995"><ele>307.0</ele><time>2026-04-11T11:40:00Z</time></trkpt><trkpt lat="42.99586531600854" lon="11.513446581589573"><ele>307.0</ele><time>2026-04-11T11:40:03Z</time></trkpt><trkpt lat="42.99593761855293" lon="11.513466196913782"><ele>307.0</ele><time>2026-04-11T11:40:06Z</time></trkpt><trkpt lat="42.996012227543574" lon="11.513497111925426"><ele>307.0</ele><time>2026-04-11T11:40:09Z</time></trkpt><trkpt lat="42.99608563593948" lon="11.513512942711088"><ele>307.0</ele><time>2026-04-11T11:40:12Z</time></trkpt><trkpt lat="42.99615665165198" lon="11.51355434908315"><ele>307.2</ele><time>2026-04-11T11:40:15Z</time></trkpt><trkpt lat="42.99631093751651" lon="11.513611726388126"><ele>307.4</ele><time>2026-04-11T11:40:21Z</time></trkpt><trkpt lat="42.99639079094268" lon="11.513638414772489"><ele>307.6</ele><time>2026-04-11T11:40:24Z</time></trkpt><trkpt lat="42.996470446171074" lon="11.513659318205914"><ele>307.8</ele><time>2026-04-11T11:40:27Z</time></trkpt><trkpt lat="42.99655724521891" lon="11.513671917525924"><ele>308.0</ele><time>2026-04-11T11:40:30Z</time></trkpt><trkpt lat="42.996649007109795" lon="11.513671452143152"><ele>307.5</ele><time>2026-04-11T11:40:33Z</time></trkpt><trkpt lat="42.99671903937909" lon="11.513703781072795"><ele>307.0</ele><time>2026-04-11T11:40:35Z</time></trkpt><trkpt lat="42.99678201426738" lon="11.513738629978103"><ele>306.5</ele><time>2026-04-11T11:40:37Z</time></trkpt><trkpt lat="42.9968828799047" lon="11.51385520347489"><ele>306.0</ele><time>2026-04-11T11:40:41Z</time></trkpt><trkpt lat="42.99691956046405" lon="11.513928342056348"><ele>305.5</ele><time>2026-04-11T11:40:43Z</time></trkpt><trkpt lat="42.99694883104598" lon="11.51401023885031"><ele>305.0</ele><time>2026-04-11T11:40:45Z</time></trkpt><trkpt lat="42.9969751627931" lon="11.514097246317462"><ele>305.0</ele><time>2026-04-11T11:40:47Z</time></trkpt><trkpt lat="42.997004005906305" lon="11.514183526553635"><ele>305.0</ele><time>2026-04-11T11:40:49Z</time></trkpt><trkpt lat="42.99703534442335" lon="11.514268553430762"><ele>305.0</ele><time>2026-04-11T11:40:51Z</time></trkpt><trkpt lat="42.997064435608074" lon="11.514353854165565"><ele>305.0</ele><time>2026-04-11T11:40:53Z</time></trkpt><trkpt lat="42.997105108557804" lon="11.514483970191161"><ele>305.0</ele><time>2026-04-11T11:40:57Z</time></trkpt><trkpt lat="42.997133597261076" lon="11.514564641818394"><ele>305.0</ele><time>2026-04-11T11:40:59Z</time></trkpt><trkpt lat="42.99719124757899" lon="11.514734328770375"><ele>306.2</ele><time>2026-04-11T11:41:03Z</time></trkpt><trkpt lat="42.997231629573236" lon="11.514870810771844"><ele>307.4</ele><time>2026-04-11T11:41:05Z</time></trkpt><trkpt lat="42.99727004537976" lon="11.514985816492493"><ele>308.6</ele><time>2026-04-11T11:41:07Z</time></trkpt><trkpt lat="42.997296215706776" lon="11.515095486147157"><ele>309.8</ele><time>2026-04-11T11:41:09Z</time></trkpt><trkpt lat="42.9973157915276" lon="11.515212009472043"><ele>311.0</ele><time>2026-04-11T11:41:11Z</time></trkpt><trkpt lat="42.99732836939455" lon="11.51532562904242"><ele>311.6</ele><time>2026-04-11T11:41:13Z</time></trkpt><trkpt lat="42.99733214313185" lon="11.515442551384979"><ele>312.20000000000005</ele><time>2026-04-11T11:41:15Z</time></trkpt><trkpt lat="42.99731330779454" lon="11.515557216687611"><ele>312.79999999999995</ele><time>2026-04-11T11:41:17Z</time></trkpt><trkpt lat="42.997297510655216" lon="11.515678902151492"><ele>313.4</ele><time>2026-04-11T11:41:19Z</time></trkpt><trkpt lat="42.997289679015346" lon="11.515795452939324"><ele>314.0</ele><time>2026-04-11T11:41:21Z</time></trkpt><trkpt lat="42.99727094524054" lon="11.51603623474298"><ele>314.0</ele><time>2026-04-11T11:41:25Z</time></trkpt><trkpt lat="42.997246048109815" lon="11.516150973680695"><ele>314.0</ele><time>2026-04-11T11:41:27Z</time></trkpt><trkpt lat="42.99723258848983" lon="11.51626253923628"><ele>314.0</ele><time>2026-04-11T11:41:29Z</time></trkpt><trkpt lat="42.99721906125393" lon="11.516368626990293"><ele>314.0</ele><time>2026-04-11T11:41:31Z</time></trkpt><trkpt lat="42.997193261481776" lon="11.516472192893081"><ele>314.0</ele><time>2026-04-11T11:41:33Z</time></trkpt><trkpt lat="42.99717043135047" lon="11.516579562106452"><ele>314.0</ele><time>2026-04-11T11:41:35Z</time></trkpt><trkpt lat="42.997145790112526" lon="11.516685802104938"><ele>313.8</ele><time>2026-04-11T11:41:37Z</time></trkpt><trkpt lat="42.99711312838161" lon="11.516791425181607"><ele>313.59999999999997</ele><time>2026-04-11T11:41:39Z</time></trkpt><trkpt lat="42.997081320266666" lon="11.516874894250835"><ele>313.4</ele><time>2026-04-11T11:41:42Z</time></trkpt><trkpt lat="42.9970138466012" lon="11.517062312445484"><ele>313.2</ele><time>2026-04-11T11:41:47Z</time></trkpt><trkpt lat="42.99696582929731" lon="11.517150802455983"><ele>313.0</ele><time>2026-04-11T11:41:49Z</time></trkpt><trkpt lat="42.99691653164086" lon="11.517229451372776"><ele>312.66666666666663</ele><time>2026-04-11T11:41:52Z</time></trkpt><trkpt lat="42.9968651126766" lon="11.517322088681574"><ele>312.3333333333333</ele><time>2026-04-11T11:41:54Z</time></trkpt><trkpt lat="42.99680093001302" lon="11.517397081495698"><ele>312.0</ele><time>2026-04-11T11:41:57Z</time></trkpt><trkpt lat="42.99674623788228" lon="11.517467036043705"><ele>311.6666666666667</ele><time>2026-04-11T11:41:59Z</time></trkpt><trkpt lat="42.99669836845812" lon="11.51752652538042"><ele>311.33333333333337</ele><time>2026-04-11T11:42:01Z</time></trkpt><trkpt lat="42.99663917292639" lon="11.517588171251605"><ele>311.0</ele><time>2026-04-11T11:42:03Z</time></trkpt><trkpt lat="42.99652102702236" lon="11.517695844061256"><ele>312.83333333333337</ele><time>2026-04-11T11:42:06Z</time></trkpt><trkpt lat="42.996450694546915" lon="11.517732095121879"><ele>314.6666666666667</ele><time>2026-04-11T11:42:08Z</time></trkpt><trkpt lat="42.99638238439875" lon="11.517770935413457"><ele>316.5</ele><time>2026-04-11T11:42:10Z</time></trkpt><trkpt lat="42.99630600556094" lon="11.517834968299974"><ele>318.3333333333333</ele><time>2026-04-11T11:42:13Z</time></trkpt><trkpt lat="42.99622005882907" lon="11.517887623872811"><ele>320.16666666666663</ele><time>2026-04-11T11:42:16Z</time></trkpt><trkpt lat="42.99614781151917" lon="11.51794571270892"><ele>322.0</ele><time>2026-04-11T11:42:19Z</time></trkpt><trkpt lat="42.99608100156378" lon="11.518017933079886"><ele>322.0</ele><time>2026-04-11T11:42:22Z</time></trkpt><trkpt lat="42.99600393707991" lon="11.518067171072104"><ele>322.0</ele><time>2026-04-11T11:42:25Z</time></trkpt><trkpt lat="42.995898486642105" lon="11.518201973745212"><ele>322.0</ele><time>2026-04-11T11:42:32Z</time></trkpt><trkpt lat="42.99584282654187" lon="11.518280268605187"><ele>322.0</ele><time>2026-04-11T11:42:35Z</time></trkpt><trkpt lat="42.99579383931422" lon="11.518344346312446"><ele>322.0</ele><time>2026-04-11T11:42:38Z</time></trkpt><trkpt lat="42.995746641778894" lon="11.518412587724557"><ele>322.0</ele><time>2026-04-11T11:42:41Z</time></trkpt><trkpt lat="42.995688541790095" lon="11.518476154047283"><ele>324.40000000000003</ele><time>2026-04-11T11:42:44Z</time></trkpt><trkpt lat="42.99564684413243" lon="11.518555415433829"><ele>326.8</ele><time>2026-04-11T11:42:47Z</time></trkpt><trkpt lat="42.99551820343234" lon="11.51871394201986"><ele>329.2</ele><time>2026-04-11T11:42:53Z</time></trkpt><trkpt lat="42.99546798828002" lon="11.518772000506509"><ele>331.6</ele><time>2026-04-11T11:42:56Z</time></trkpt><trkpt lat="42.99540886606154" lon="11.518868923796317"><ele>334.0</ele><time>2026-04-11T11:43:00Z</time></trkpt><trkpt lat="42.995345989301526" lon="11.518917382327915"><ele>334.0</ele><time>2026-04-11T11:43:03Z</time></trkpt><trkpt lat="42.99526400660942" lon="11.518961851409474"><ele>334.0</ele><time>2026-04-11T11:43:06Z</time></trkpt><trkpt lat="42.99518992177911" lon="11.519002760249766"><ele>334.0</ele><time>2026-04-11T11:43:10Z</time></trkpt><trkpt lat="42.99507170755884" lon="11.519150372918332"><ele>334.0</ele><time>2026-04-11T11:43:16Z</time></trkpt><trkpt lat="42.99503185942546" lon="11.519229335599139"><ele>334.0</ele><time>2026-04-11T11:43:19Z</time></trkpt><trkpt lat="42.994992082078" lon="11.519298340760633"><ele>336.2</ele><time>2026-04-11T11:43:22Z</time></trkpt><trkpt lat="42.99494132043273" lon="11.519373754933536"><ele>338.4</ele><time>2026-04-11T11:43:25Z</time></trkpt><trkpt lat="42.99489568819795" lon="11.519459498366263"><ele>340.6</ele><time>2026-04-11T11:43:28Z</time></trkpt><trkpt lat="42.99486041432327" lon="11.519550147661851"><ele>342.8</ele><time>2026-04-11T11:43:31Z</time></trkpt><trkpt lat="42.99492605545055" lon="11.519753996667104"><ele>345.0</ele><time>2026-04-11T11:43:38Z</time></trkpt><trkpt lat="42.99499987036982" lon="11.51980542260951"><ele>343.8</ele><time>2026-04-11T11:43:40Z</time></trkpt><trkpt lat="42.99508040534137" lon="11.519867595992972"><ele>342.6</ele><time>2026-04-11T11:43:42Z</time></trkpt><trkpt lat="42.99516553857251" lon="11.519911835283862"><ele>341.4</ele><time>2026-04-11T11:43:44Z</time></trkpt><trkpt lat="42.99526096121372" lon="11.519964601527484"><ele>340.2</ele><time>2026-04-11T11:43:46Z</time></trkpt><trkpt lat="42.995353906233944" lon="11.520026505344676"><ele>339.0</ele><time>2026-04-11T11:43:48Z</time></trkpt><trkpt lat="42.99545242726797" lon="11.520108819150417"><ele>339.0</ele><time>2026-04-11T11:43:50Z</time></trkpt><trkpt lat="42.99556196843386" lon="11.520184428905196"><ele>339.0</ele><time>2026-04-11T11:43:52Z</time></trkpt><trkpt lat="42.99567887172321" lon="11.52027548310165"><ele>339.0</ele><time>2026-04-11T11:43:54Z</time></trkpt><trkpt lat="42.99573906557344" lon="11.520314589807123"><ele>339.0</ele><time>2026-04-11T11:43:55Z</time></trkpt><trkpt lat="42.9958075370936" lon="11.52036350056081"><ele>339.0</ele><time>2026-04-11T11:43:56Z</time></trkpt><trkpt lat="42.995871183339446" lon="11.520422505313869"><ele>337.79999999999995</ele><time>2026-04-11T11:43:57Z</time></trkpt><trkpt lat="42.995932302407866" lon="11.520502593975152"><ele>336.59999999999997</ele><time>2026-04-11T11:43:58Z</time></trkpt><trkpt lat="42.995985192718656" lon="11.520596148327414"><ele>335.4</ele><time>2026-04-11T11:43:59Z</time></trkpt><trkpt lat="42.996033259526" lon="11.520700184513979"><ele>334.2</ele><time>2026-04-11T11:44:00Z</time></trkpt><trkpt lat="42.99607897226621" lon="11.520810630201243"><ele>333.0</ele><time>2026-04-11T11:44:01Z</time></trkpt><trkpt lat="42.996132921569355" lon="11.520919797086012"><ele>333.0</ele><time>2026-04-11T11:44:02Z</time></trkpt><trkpt lat="42.99618937334221" lon="11.5210196315731"><ele>333.0</ele><time>2026-04-11T11:44:03Z</time></trkpt><trkpt lat="42.9962521067099" lon="11.521120115003818"><ele>333.0</ele><time>2026-04-11T11:44:04Z</time></trkpt><trkpt lat="42.996316619354204" lon="11.521222160933316"><ele>333.0</ele><time>2026-04-11T11:44:05Z</time></trkpt><trkpt lat="42.99638816477084" lon="11.521321178250922"><ele>333.0</ele><time>2026-04-11T11:44:06Z</time></trkpt><trkpt lat="42.99646549753046" lon="11.521413156516074"><ele>334.2</ele><time>2026-04-11T11:44:07Z</time></trkpt><trkpt lat="42.996553701619234" lon="11.521492869347068"><ele>335.4</ele><time>2026-04-11T11:44:08Z</time></trkpt><trkpt lat="42.996642403946815" lon="11.521580624385141"><ele>336.59999999999997</ele><time>2026-04-11T11:44:09Z</time></trkpt><trkpt lat="42.99672818865586" lon="11.521668639882682"><ele>337.79999999999995</ele><time>2026-04-11T11:44:10Z</time></trkpt><trkpt lat="42.9968173059927" lon="11.521759056469307"><ele>339.0</ele><time>2026-04-11T11:44:11Z</time></trkpt><trkpt lat="42.99690559487596" lon="11.521853982484107"><ele>336.0</ele><time>2026-04-11T11:44:12Z</time></trkpt><trkpt lat="42.99700086429112" lon="11.521943480836034"><ele>333.0</ele><time>2026-04-11T11:44:13Z</time></trkpt><trkpt lat="42.9971944433924" lon="11.522139541416651"><ele>330.0</ele><time>2026-04-11T11:44:15Z</time></trkpt><trkpt lat="42.99729275027527" lon="11.522237173096153"><ele>330.0</ele><time>2026-04-11T11:44:16Z</time></trkpt><trkpt lat="42.99739487462948" lon="11.522338323861455"><ele>330.0</ele><time>2026-04-11T11:44:17Z</time></trkpt><trkpt lat="42.997495638209614" lon="11.522441905867339"><ele>330.0</ele><time>2026-04-11T11:44:18Z</time></trkpt><trkpt lat="42.997599806524796" lon="11.522546230747887"><ele>330.0</ele><time>2026-04-11T11:44:19Z</time></trkpt><trkpt lat="42.99770101890944" lon="11.522650656308048"><ele>328.25</ele><time>2026-04-11T11:44:20Z</time></trkpt><trkpt lat="42.99780518051157" lon="11.52275578209612"><ele>326.5</ele><time>2026-04-11T11:44:21Z</time></trkpt><trkpt lat="42.99790976295245" lon="11.522859360246247"><ele>324.75</ele><time>2026-04-11T11:44:22Z</time></trkpt><trkpt lat="42.998014852749584" lon="11.522965344833707"><ele>323.0</ele><time>2026-04-11T11:44:23Z</time></trkpt><trkpt lat="42.99812501804717" lon="11.523061781773551"><ele>323.0</ele><time>2026-04-11T11:44:24Z</time></trkpt><trkpt lat="42.998240856390254" lon="11.523145177338044"><ele>323.0</ele><time>2026-04-11T11:44:25Z</time></trkpt><trkpt lat="42.99836149036442" lon="11.523210788646166"><ele>323.0</ele><time>2026-04-11T11:44:26Z</time></trkpt><trkpt lat="42.99848665572819" lon="11.523268230176368"><ele>323.0</ele><time>2026-04-11T11:44:27Z</time></trkpt><trkpt lat="42.998613734088714" lon="11.523313856928844"><ele>321.25</ele><time>2026-04-11T11:44:28Z</time></trkpt><trkpt lat="42.99873933104904" lon="11.523361514241202"><ele>319.5</ele><time>2026-04-11T11:44:29Z</time></trkpt><trkpt lat="42.99886177470225" lon="11.523416518054365"><ele>317.75</ele><time>2026-04-11T11:44:30Z</time></trkpt><trkpt lat="42.9989835725434" lon="11.523472765470158"><ele>316.0</ele><time>2026-04-11T11:44:31Z</time></trkpt><trkpt lat="42.99910506077503" lon="11.523540705141942"><ele>316.3333333333333</ele><time>2026-04-11T11:44:32Z</time></trkpt><trkpt lat="42.99921781302907" lon="11.52362166388698"><ele>316.6666666666667</ele><time>2026-04-11T11:44:33Z</time></trkpt><trkpt lat="42.99932647295008" lon="11.523713190514227"><ele>317.0</ele><time>2026-04-11T11:44:34Z</time></trkpt><trkpt lat="42.99955131885601" lon="11.523871317240706"><ele>317.0</ele><time>2026-04-11T11:44:36Z</time></trkpt><trkpt lat="42.9996625404907" lon="11.523955691203488"><ele>317.0</ele><time>2026-04-11T11:44:37Z</time></trkpt><trkpt lat="42.99977041535453" lon="11.52403647253398"><ele>317.0</ele><time>2026-04-11T11:44:38Z</time></trkpt><trkpt lat="42.99988119611455" lon="11.524103402260677"><ele>317.0</ele><time>2026-04-11T11:44:39Z</time></trkpt><trkpt lat="42.99999074106308" lon="11.524164063036865"><ele>317.0</ele><time>2026-04-11T11:44:40Z</time></trkpt><trkpt lat="43.000101623748094" lon="11.524212057809823"><ele>317.0</ele><time>2026-04-11T11:44:41Z</time></trkpt><trkpt lat="43.000209483679534" lon="11.524257820000342"><ele>317.0</ele><time>2026-04-11T11:44:42Z</time></trkpt><trkpt lat="43.00031512452577" lon="11.524302783556745"><ele>317.0</ele><time>2026-04-11T11:44:43Z</time></trkpt><trkpt lat="43.00041987079055" lon="11.52434685789143"><ele>317.0</ele><time>2026-04-11T11:44:44Z</time></trkpt><trkpt lat="43.000521739928125" lon="11.524394151738424"><ele>317.0</ele><time>2026-04-11T11:44:45Z</time></trkpt><trkpt lat="43.00062029625766" lon="11.52443547829968"><ele>317.0</ele><time>2026-04-11T11:44:46Z</time></trkpt><trkpt lat="43.00071637453774" lon="11.524477451894612"><ele>317.0</ele><time>2026-04-11T11:44:47Z</time></trkpt><trkpt lat="43.00081109477483" lon="11.524517602493221"><ele>317.0</ele><time>2026-04-11T11:44:48Z</time></trkpt><trkpt lat="43.00090345147221" lon="11.524552759818643"><ele>317.0</ele><time>2026-04-11T11:44:49Z</time></trkpt><trkpt lat="43.00099492092653" lon="11.524588165056805"><ele>317.8</ele><time>2026-04-11T11:44:50Z</time></trkpt><trkpt lat="43.00108528164043" lon="11.524622287207938"><ele>318.6</ele><time>2026-04-11T11:44:51Z</time></trkpt><trkpt lat="43.00117130133924" lon="11.52465740779127"><ele>319.40000000000003</ele><time>2026-04-11T11:44:52Z</time></trkpt><trkpt lat="43.00125659894164" lon="11.524696731323163"><ele>320.2</ele><time>2026-04-11T11:44:53Z</time></trkpt><trkpt lat="43.00134109387608" lon="11.52473042713195"><ele>321.0</ele><time>2026-04-11T11:44:54Z</time></trkpt><trkpt lat="43.0014260160844" lon="11.524762003701408"><ele>321.0</ele><time>2026-04-11T11:44:55Z</time></trkpt><trkpt lat="43.00159014945563" lon="11.52482939582363"><ele>321.0</ele><time>2026-04-11T11:44:57Z</time></trkpt><trkpt lat="43.00166945236064" lon="11.524865807634349"><ele>321.0</ele><time>2026-04-11T11:44:58Z</time></trkpt><trkpt lat="43.001745786597986" lon="11.5249006789318"><ele>321.0</ele><time>2026-04-11T11:44:59Z</time></trkpt><trkpt lat="43.001818286307824" lon="11.52493125453085"><ele>321.0</ele><time>2026-04-11T11:45:00Z</time></trkpt><trkpt lat="43.0018905620619" lon="11.52495301410017"><ele>320.99999999999994</ele><time>2026-04-11T11:45:01Z</time></trkpt><trkpt lat="43.00196149146036" lon="11.524976223353386"><ele>321.0</ele><time>2026-04-11T11:45:02Z</time></trkpt><trkpt lat="43.00202931298262" lon="11.525003537517938"><ele>321.0</ele><time>2026-04-11T11:45:03Z</time></trkpt><trkpt lat="43.00209583609756" lon="11.525019645021503"><ele>321.0</ele><time>2026-04-11T11:45:04Z</time></trkpt><trkpt lat="43.00216415118572" lon="11.525036381732878"><ele>321.0</ele><time>2026-04-11T11:45:05Z</time></trkpt><trkpt lat="43.00223036004671" lon="11.525058636224335"><ele>320.99999999999994</ele><time>2026-04-11T11:45:06Z</time></trkpt><trkpt lat="43.00229840104265" lon="11.525080922562317"><ele>321.0</ele><time>2026-04-11T11:45:07Z</time></trkpt><trkpt lat="43.00236500080967" lon="11.525099609541003"><ele>320.99999999999994</ele><time>2026-04-11T11:45:08Z</time></trkpt><trkpt lat="43.00243063253414" lon="11.525106603368464"><ele>321.0</ele><time>2026-04-11T11:45:09Z</time></trkpt><trkpt lat="43.00249492206525" lon="11.525128988325871"><ele>321.0</ele><time>2026-04-11T11:45:10Z</time></trkpt><trkpt lat="43.002559325780965" lon="11.52515372619109"><ele>321.0</ele><time>2026-04-11T11:45:11Z</time></trkpt><trkpt lat="43.00262522983394" lon="11.525168682979368"><ele>321.0</ele><time>2026-04-11T11:45:12Z</time></trkpt><trkpt lat="43.002692359108025" lon="11.525182986141733"><ele>320.99999999999994</ele><time>2026-04-11T11:45:13Z</time></trkpt><trkpt lat="43.00275978278881" lon="11.525202551966213"><ele>321.0</ele><time>2026-04-11T11:45:14Z</time></trkpt><trkpt lat="43.00282738400657" lon="11.52522765739888"><ele>321.0</ele><time>2026-04-11T11:45:15Z</time></trkpt><trkpt lat="43.00289564377836" lon="11.525250517932625"><ele>321.0</ele><time>2026-04-11T11:45:16Z</time></trkpt><trkpt lat="43.00303176135171" lon="11.525290799228909"><ele>321.0</ele><time>2026-04-11T11:45:18Z</time></trkpt><trkpt lat="43.00309873942921" lon="11.525313936632179"><ele>321.0</ele><time>2026-04-11T11:45:19Z</time></trkpt><trkpt lat="43.003164086337684" lon="11.525338224746623"><ele>321.0</ele><time>2026-04-11T11:45:20Z</time></trkpt><trkpt lat="43.00323182125372" lon="11.525354241704118"><ele>321.0</ele><time>2026-04-11T11:45:21Z</time></trkpt><trkpt lat="43.003300028365196" lon="11.525367768645204"><ele>320.99999999999994</ele><time>2026-04-11T11:45:22Z</time></trkpt><trkpt lat="43.00336753903092" lon="11.525380435108094"><ele>321.0</ele><time>2026-04-11T11:45:23Z</time></trkpt><trkpt lat="43.00343268313357" lon="11.525400789756183"><ele>321.0</ele><time>2026-04-11T11:45:24Z</time></trkpt><trkpt lat="43.003500220814104" lon="11.52541803183933"><ele>321.0</ele><time>2026-04-11T11:45:25Z</time></trkpt><trkpt lat="43.00356797653715" lon="11.525436780489095"><ele>321.0</ele><time>2026-04-11T11:45:26Z</time></trkpt><trkpt lat="43.00363435010933" lon="11.525461644252815"><ele>320.99999999999994</ele><time>2026-04-11T11:45:27Z</time></trkpt><trkpt lat="43.00369882030629" lon="11.525484247475084"><ele>321.0</ele><time>2026-04-11T11:45:28Z</time></trkpt><trkpt lat="43.00376273174545" lon="11.525507705091867"><ele>321.4</ele><time>2026-04-11T11:45:29Z</time></trkpt><trkpt lat="43.00382714215267" lon="11.525530834427679"><ele>321.8</ele><time>2026-04-11T11:45:30Z</time></trkpt><trkpt lat="43.003890973282694" lon="11.52554749750413"><ele>322.2</ele><time>2026-04-11T11:45:31Z</time></trkpt><trkpt lat="43.00401182966368" lon="11.52558287466391"><ele>322.59999999999997</ele><time>2026-04-11T11:45:33Z</time></trkpt><trkpt lat="43.004126059875524" lon="11.525620003819599"><ele>323.0</ele><time>2026-04-11T11:45:35Z</time></trkpt><trkpt lat="43.00424200882959" lon="11.525647501928932"><ele>323.25</ele><time>2026-04-11T11:45:37Z</time></trkpt><trkpt lat="43.00446296981482" lon="11.525715994325322"><ele>323.5</ele><time>2026-04-11T11:45:41Z</time></trkpt><trkpt lat="43.004571429511024" lon="11.525746116564385"><ele>323.75</ele><time>2026-04-11T11:45:43Z</time></trkpt><trkpt lat="43.00467850947359" lon="11.525770772434868"><ele>324.0</ele><time>2026-04-11T11:45:45Z</time></trkpt><trkpt lat="43.00478023077528" lon="11.525805363889802"><ele>324.0</ele><time>2026-04-11T11:45:47Z</time></trkpt><trkpt lat="43.00487728709112" lon="11.525833439712178"><ele>324.0</ele><time>2026-04-11T11:45:49Z</time></trkpt><trkpt lat="43.00497309722035" lon="11.525856980618395"><ele>324.0</ele><time>2026-04-11T11:45:51Z</time></trkpt><trkpt lat="43.005070633543646" lon="11.525888685629523"><ele>324.0</ele><time>2026-04-11T11:45:53Z</time></trkpt><trkpt lat="43.00516326682941" lon="11.525923171521963"><ele>324.0</ele><time>2026-04-11T11:45:55Z</time></trkpt><trkpt lat="43.00525718434805" lon="11.52594657480208"><ele>324.25</ele><time>2026-04-11T11:45:57Z</time></trkpt><trkpt lat="43.00535063032952" lon="11.5259741750885"><ele>324.5</ele><time>2026-04-11T11:45:59Z</time></trkpt><trkpt lat="43.00553585933724" lon="11.526021814244428"><ele>324.75</ele><time>2026-04-11T11:46:03Z</time></trkpt><trkpt lat="43.0056261875247" lon="11.526050803267035"><ele>325.0</ele><time>2026-04-11T11:46:05Z</time></trkpt><trkpt lat="43.005715444081424" lon="11.526082338239151"><ele>325.0</ele><time>2026-04-11T11:46:07Z</time></trkpt><trkpt lat="43.005804866936124" lon="11.526106653862184"><ele>325.0</ele><time>2026-04-11T11:46:09Z</time></trkpt><trkpt lat="43.005896082671036" lon="11.52612958009492"><ele>325.0</ele><time>2026-04-11T11:46:11Z</time></trkpt><trkpt lat="43.005988004926884" lon="11.526146640295698"><ele>325.0</ele><time>2026-04-11T11:46:13Z</time></trkpt><trkpt lat="43.00607772436443" lon="11.52618191195008"><ele>325.0</ele><time>2026-04-11T11:46:15Z</time></trkpt><trkpt lat="43.006163960603054" lon="11.526210648469576"><ele>325.4</ele><time>2026-04-11T11:46:17Z</time></trkpt><trkpt lat="43.00625499928416" lon="11.526229288567455"><ele>325.8</ele><time>2026-04-11T11:46:19Z</time></trkpt><trkpt lat="43.006340640944" lon="11.526264214668382"><ele>326.20000000000005</ele><time>2026-04-11T11:46:21Z</time></trkpt><trkpt lat="43.00650513676125" lon="11.526291640192946"><ele>326.6</ele><time>2026-04-11T11:46:25Z</time></trkpt><trkpt lat="43.006585783109855" lon="11.526341293775879"><ele>327.0</ele><time>2026-04-11T11:46:27Z</time></trkpt><trkpt lat="43.006673690954074" lon="11.526356642279461"><ele>327.3333333333333</ele><time>2026-04-11T11:46:29Z</time></trkpt><trkpt lat="43.006759344523815" lon="11.52638517265493"><ele>327.6666666666667</ele><time>2026-04-11T11:46:31Z</time></trkpt><trkpt lat="43.0068454908495" lon="11.526404843200146"><ele>328.0</ele><time>2026-04-11T11:46:33Z</time></trkpt><trkpt lat="43.00693246417996" lon="11.526419670274741"><ele>328.33333333333337</ele><time>2026-04-11T11:46:35Z</time></trkpt><trkpt lat="43.00701801855687" lon="11.526441145570663"><ele>328.6666666666667</ele><time>2026-04-11T11:46:37Z</time></trkpt><trkpt lat="43.00710185597709" lon="11.526454165004807"><ele>329.0</ele><time>2026-04-11T11:46:39Z</time></trkpt><trkpt lat="43.007188434351455" lon="11.526468476303078"><ele>329.0</ele><time>2026-04-11T11:46:41Z</time></trkpt><trkpt lat="43.00727671878255" lon="11.52647815018561"><ele>329.0</ele><time>2026-04-11T11:46:43Z</time></trkpt><trkpt lat="43.00745007229951" lon="11.526500109196814"><ele>329.0</ele><time>2026-04-11T11:46:47Z</time></trkpt><trkpt lat="43.007535513638814" lon="11.526500551070914"><ele>329.0</ele><time>2026-04-11T11:46:49Z</time></trkpt><trkpt lat="43.00762105348383" lon="11.526523410487991"><ele>329.0</ele><time>2026-04-11T11:46:51Z</time></trkpt><trkpt lat="43.00770762293881" lon="11.526534731286644"><ele>329.0</ele><time>2026-04-11T11:46:53Z</time></trkpt><trkpt lat="43.00779622899654" lon="11.52654565840297"><ele>329.0</ele><time>2026-04-11T11:46:55Z</time></trkpt><trkpt lat="43.007886246994076" lon="11.52655488203744"><ele>329.0</ele><time>2026-04-11T11:46:57Z</time></trkpt><trkpt lat="43.007980640612104" lon="11.526566749431108"><ele>329.0</ele><time>2026-04-11T11:46:59Z</time></trkpt><trkpt lat="43.008070674802426" lon="11.526583826247533"><ele>329.0</ele><time>2026-04-11T11:47:01Z</time></trkpt><trkpt lat="43.00816202383607" lon="11.526587640820113"><ele>329.0</ele><time>2026-04-11T11:47:03Z</time></trkpt><trkpt lat="43.00824907221899" lon="11.526598130312466"><ele>329.0</ele><time>2026-04-11T11:47:05Z</time></trkpt><trkpt lat="43.0084265895956" lon="11.526616247962004"><ele>329.0</ele><time>2026-04-11T11:47:09Z</time></trkpt><trkpt lat="43.00851167400096" lon="11.526629627016737"><ele>329.0</ele><time>2026-04-11T11:47:11Z</time></trkpt><trkpt lat="43.008599164118046" lon="11.526642395928118"><ele>329.0</ele><time>2026-04-11T11:47:13Z</time></trkpt><trkpt lat="43.00868823917181" lon="11.526650979936797"><ele>329.4</ele><time>2026-04-11T11:47:15Z</time></trkpt><trkpt lat="43.008776566731584" lon="11.526661620739983"><ele>329.79999999999995</ele><time>2026-04-11T11:47:17Z</time></trkpt><trkpt lat="43.00886357356472" lon="11.526673033671486"><ele>330.20000000000005</ele><time>2026-04-11T11:47:19Z</time></trkpt><trkpt lat="43.008951310386266" lon="11.526675241314365"><ele>330.6</ele><time>2026-04-11T11:47:21Z</time></trkpt><trkpt lat="43.00904315183005" lon="11.526694557947142"><ele>331.0</ele><time>2026-04-11T11:47:23Z</time></trkpt><trkpt lat="43.009135607725206" lon="11.526707772450147"><ele>331.20000000000005</ele><time>2026-04-11T11:47:25Z</time></trkpt><trkpt lat="43.009228116881864" lon="11.52672095930963"><ele>331.40000000000003</ele><time>2026-04-11T11:47:27Z</time></trkpt><trkpt lat="43.009405335435616" lon="11.526739119359284"><ele>331.6</ele><time>2026-04-11T11:47:31Z</time></trkpt><trkpt lat="43.00949454922865" lon="11.526749375206952"><ele>331.8</ele><time>2026-04-11T11:47:33Z</time></trkpt><trkpt lat="43.00958177892301" lon="11.526755029468891"><ele>332.0</ele><time>2026-04-11T11:47:35Z</time></trkpt><trkpt lat="43.00967435350891" lon="11.526769462665678"><ele>332.0</ele><time>2026-04-11T11:47:37Z</time></trkpt><trkpt lat="43.00977025659605" lon="11.526779686701015"><ele>332.0</ele><time>2026-04-11T11:47:39Z</time></trkpt><trkpt lat="43.00986839259796" lon="11.526795637892228"><ele>332.0</ele><time>2026-04-11T11:47:41Z</time></trkpt><trkpt lat="43.00996555087719" lon="11.526807955157611"><ele>332.0</ele><time>2026-04-11T11:47:43Z</time></trkpt><trkpt lat="43.01006117098908" lon="11.526813380680938"><ele>332.0</ele><time>2026-04-11T11:47:45Z</time></trkpt><trkpt lat="43.010157924080765" lon="11.526820147735572"><ele>332.40000000000003</ele><time>2026-04-11T11:47:47Z</time></trkpt><trkpt lat="43.01024934753097" lon="11.526840010233407"><ele>332.8</ele><time>2026-04-11T11:47:49Z</time></trkpt><trkpt lat="43.01042239575407" lon="11.526864106714193"><ele>333.2</ele><time>2026-04-11T11:47:53Z</time></trkpt><trkpt lat="43.010505130453744" lon="11.526868733329833"><ele>333.6</ele><time>2026-04-11T11:47:55Z</time></trkpt><trkpt lat="43.010584905930216" lon="11.526884117513566"><ele>334.0</ele><time>2026-04-11T11:47:57Z</time></trkpt><trkpt lat="43.010666617787734" lon="11.526888093543672"><ele>334.0</ele><time>2026-04-11T11:47:59Z</time></trkpt><trkpt lat="43.01074831331173" lon="11.52689807362932"><ele>334.0</ele><time>2026-04-11T11:48:01Z</time></trkpt><trkpt lat="43.010828181813565" lon="11.526906224199005"><ele>334.0</ele><time>2026-04-11T11:48:03Z</time></trkpt><trkpt lat="43.01090676769229" lon="11.5269115141607"><ele>334.0</ele><time>2026-04-11T11:48:05Z</time></trkpt><trkpt lat="43.01097989797787" lon="11.526923088032135"><ele>334.0</ele><time>2026-04-11T11:48:07Z</time></trkpt><trkpt lat="43.01105528330267" lon="11.526941127749081"><ele>334.0</ele><time>2026-04-11T11:48:09Z</time></trkpt><trkpt lat="43.01112994314811" lon="11.52695917986462"><ele>334.79999999999995</ele><time>2026-04-11T11:48:11Z</time></trkpt><trkpt lat="43.01128291349386" lon="11.526972862936919"><ele>335.59999999999997</ele><time>2026-04-11T11:48:15Z</time></trkpt><trkpt lat="43.011358737286685" lon="11.526970970540251"><ele>336.4</ele><time>2026-04-11T11:48:17Z</time></trkpt><trkpt lat="43.011436612155606" lon="11.526979296605024"><ele>337.2</ele><time>2026-04-11T11:48:19Z</time></trkpt><trkpt lat="43.011517581320255" lon="11.526990119730904"><ele>338.0</ele><time>2026-04-11T11:48:21.001Z</time></trkpt><trkpt lat="43.011600175099154" lon="11.526993924626678"><ele>338.83333333333337</ele><time>2026-04-11T11:48:23.001Z</time></trkpt><trkpt lat="43.01168130799062" lon="11.52700028211831"><ele>339.6666666666667</ele><time>2026-04-11T11:48:25.001Z</time></trkpt><trkpt lat="43.01176539027085" lon="11.527000517218315"><ele>340.5</ele><time>2026-04-11T11:48:27.001Z</time></trkpt><trkpt lat="43.011848326508776" lon="11.526988948822174"><ele>341.3333333333333</ele><time>2026-04-11T11:48:29.001Z</time></trkpt><trkpt lat="43.01193086738766" lon="11.526986122091992"><ele>342.16666666666663</ele><time>2026-04-11T11:48:31.001Z</time></trkpt><trkpt lat="43.01201205311045" lon="11.52697419761123"><ele>343.0</ele><time>2026-04-11T11:48:33.001Z</time></trkpt><trkpt lat="43.01217187203977" lon="11.526958100675254"><ele>343.0</ele><time>2026-04-11T11:48:37.001Z</time></trkpt><trkpt lat="43.01225043291499" lon="11.526941491196519"><ele>343.0</ele><time>2026-04-11T11:48:39.001Z</time></trkpt><trkpt lat="43.0123306823451" lon="11.526925590488052"><ele>343.0</ele><time>2026-04-11T11:48:41.001Z</time></trkpt><trkpt lat="43.01241144013606" lon="11.526897993328877"><ele>343.0</ele><time>2026-04-11T11:48:43.001Z</time></trkpt><trkpt lat="43.01249488888328" lon="11.52687824719067"><ele>343.0</ele><time>2026-04-11T11:48:45Z</time></trkpt><trkpt lat="43.01258055798187" lon="11.526862222207171"><ele>343.0</ele><time>2026-04-11T11:48:47Z</time></trkpt><trkpt lat="43.0126693378393" lon="11.52683531527574"><ele>343.75</ele><time>2026-04-11T11:48:49Z</time></trkpt><trkpt lat="43.01276058579022" lon="11.526811274122508"><ele>344.5</ele><time>2026-04-11T11:48:51Z</time></trkpt><trkpt lat="43.01285597854555" lon="11.526788996738246"><ele>345.25</ele><time>2026-04-11T11:48:53Z</time></trkpt><trkpt lat="43.01295297109669" lon="11.526762238810056"><ele>346.0</ele><time>2026-04-11T11:48:55Z</time></trkpt><trkpt lat="43.01314106706417" lon="11.52673276773666"><ele>346.0</ele><time>2026-04-11T11:48:59Z</time></trkpt><trkpt lat="43.0132328338281" lon="11.526733258610314"><ele>346.0</ele><time>2026-04-11T11:49:01Z</time></trkpt><trkpt lat="43.01332521010247" lon="11.526730693211883"><ele>346.0</ele><time>2026-04-11T11:49:03Z</time></trkpt><trkpt lat="43.01341992906843" lon="11.526732489720606"><ele>346.0</ele><time>2026-04-11T11:49:05Z</time></trkpt><trkpt lat="43.013517770416996" lon="11.526734336656093"><ele>346.0</ele><time>2026-04-11T11:49:07Z</time></trkpt><trkpt lat="43.01361415489426" lon="11.526737305379001"><ele>346.0</ele><time>2026-04-11T11:49:09Z</time></trkpt><trkpt lat="43.01370774187404" lon="11.52673936960859"><ele>346.0</ele><time>2026-04-11T11:49:11Z</time></trkpt><trkpt lat="43.01379785286382" lon="11.52673837810898"><ele>346.0</ele><time>2026-04-11T11:49:13Z</time></trkpt><trkpt lat="43.01388676490467" lon="11.526733204704653"><ele>346.0</ele><time>2026-04-11T11:49:15Z</time></trkpt><trkpt lat="43.01397015243781" lon="11.5267070507649"><ele>346.0</ele><time>2026-04-11T11:49:17Z</time></trkpt><trkpt lat="43.01412936314573" lon="11.526600160421015"><ele>346.20000000000005</ele><time>2026-04-11T11:49:21Z</time></trkpt><trkpt lat="43.01420061562116" lon="11.526516133396768"><ele>346.40000000000003</ele><time>2026-04-11T11:49:23Z</time></trkpt><trkpt lat="43.01426541630194" lon="11.526430164524655"><ele>346.6</ele><time>2026-04-11T11:49:25Z</time></trkpt><trkpt lat="43.01432292503259" lon="11.526333735100456"><ele>346.8</ele><time>2026-04-11T11:49:27Z</time></trkpt><trkpt lat="43.01437199544138" lon="11.526230871710306"><ele>347.0</ele><time>2026-04-11T11:49:29Z</time></trkpt><trkpt lat="43.01441938625312" lon="11.52612792575957"><ele>349.8</ele><time>2026-04-11T11:49:31Z</time></trkpt><trkpt lat="43.014469991202326" lon="11.526027822179513"><ele>352.6</ele><time>2026-04-11T11:49:33Z</time></trkpt><trkpt lat="43.01452206236935" lon="11.525933839170548"><ele>355.40000000000003</ele><time>2026-04-11T11:49:35Z</time></trkpt><trkpt lat="43.01457707832503" lon="11.525851831942935"><ele>358.20000000000005</ele><time>2026-04-11T11:49:37Z</time></trkpt><trkpt lat="43.01462596451511" lon="11.525776204276088"><ele>361.0</ele><time>2026-04-11T11:49:39Z</time></trkpt><trkpt lat="43.01473706060468" lon="11.525644762216494"><ele>361.0</ele><time>2026-04-11T11:49:43Z</time></trkpt><trkpt lat="43.01478343639654" lon="11.52558580889144"><ele>361.0</ele><time>2026-04-11T11:49:45Z</time></trkpt><trkpt lat="43.014860967974464" lon="11.525516709768606"><ele>361.0</ele><time>2026-04-11T11:49:48Z</time></trkpt><trkpt lat="43.014932434306466" lon="11.525439370769103"><ele>361.0</ele><time>2026-04-11T11:49:51Z</time></trkpt><trkpt lat="43.01500522899577" lon="11.525367836099585"><ele>361.0</ele><time>2026-04-11T11:49:54Z</time></trkpt><trkpt lat="43.01508367298359" lon="11.525299824310038"><ele>361.0</ele><time>2026-04-11T11:49:57Z</time></trkpt><trkpt lat="43.01516443275644" lon="11.525247049952082"><ele>361.0</ele><time>2026-04-11T11:50:00Z</time></trkpt><trkpt lat="43.01531277952412" lon="11.525159676138939"><ele>361.0</ele><time>2026-04-11T11:50:06Z</time></trkpt><trkpt lat="43.015390908246616" lon="11.525124269933423"><ele>361.0</ele><time>2026-04-11T11:50:10Z</time></trkpt><trkpt lat="43.0154484408793" lon="11.525086048791282"><ele>361.0</ele><time>2026-04-11T11:50:13Z</time></trkpt><trkpt lat="43.01552556428698" lon="11.525041625039368"><ele>361.0</ele><time>2026-04-11T11:50:17Z</time></trkpt><trkpt lat="43.01558694947077" lon="11.52501380828037"><ele>361.0</ele><time>2026-04-11T11:50:20.001Z</time></trkpt><trkpt lat="43.01564601237801" lon="11.524971554174316"><ele>361.0</ele><time>2026-04-11T11:50:23.001Z</time></trkpt><trkpt lat="43.015774991060816" lon="11.524864040743337"><ele>361.0</ele><time>2026-04-11T11:50:29.001Z</time></trkpt><trkpt lat="43.01581928086382" lon="11.52480136514241"><ele>361.0</ele><time>2026-04-11T11:50:31.001Z</time></trkpt><trkpt lat="43.01586412085023" lon="11.52471769524359"><ele>361.0</ele><time>2026-04-11T11:50:33.001Z</time></trkpt><trkpt lat="43.01592648863" lon="11.52459773204372"><ele>362.6</ele><time>2026-04-11T11:50:35.001Z</time></trkpt><trkpt lat="43.0159567192621" lon="11.524512831527813"><ele>364.20000000000005</ele><time>2026-04-11T11:50:36.001Z</time></trkpt><trkpt lat="43.01599082383646" lon="11.5244359194917"><ele>365.79999999999995</ele><time>2026-04-11T11:50:37.001Z</time></trkpt><trkpt lat="43.016061021839334" lon="11.524305276765357"><ele>367.4</ele><time>2026-04-11T11:50:39.001Z</time></trkpt><trkpt lat="43.016126047877485" lon="11.524186199116778"><ele>369.0</ele><time>2026-04-11T11:50:41.001Z</time></trkpt><trkpt lat="43.01619032465015" lon="11.524087931180704"><ele>369.0</ele><time>2026-04-11T11:50:43.001Z</time></trkpt><trkpt lat="43.016238665814534" lon="11.523999543811959"><ele>369.0</ele><time>2026-04-11T11:50:45.001Z</time></trkpt><trkpt lat="43.016318547063484" lon="11.52383335837107"><ele>369.0</ele><time>2026-04-11T11:50:49.001Z</time></trkpt><trkpt lat="43.0163566675987" lon="11.523752570654358"><ele>369.0</ele><time>2026-04-11T11:50:51Z</time></trkpt><trkpt lat="43.01640194298724" lon="11.52367816925567"><ele>369.0</ele><time>2026-04-11T11:50:53Z</time></trkpt><trkpt lat="43.016428581161705" lon="11.523597653174924"><ele>369.0</ele><time>2026-04-11T11:50:55Z</time></trkpt><trkpt lat="43.0164611630834" lon="11.52351838961845"><ele>367.8333333333333</ele><time>2026-04-11T11:50:57Z</time></trkpt><trkpt lat="43.016523101978535" lon="11.523469579379306"><ele>366.6666666666667</ele><time>2026-04-11T11:50:59Z</time></trkpt><trkpt lat="43.01657150734113" lon="11.523399326516877"><ele>365.5</ele><time>2026-04-11T11:51:01Z</time></trkpt><trkpt lat="43.01661235119931" lon="11.523329922716213"><ele>364.33333333333337</ele><time>2026-04-11T11:51:03Z</time></trkpt><trkpt lat="43.01665525494933" lon="11.523256397752284"><ele>363.1666666666667</ele><time>2026-04-11T11:51:06Z</time></trkpt><trkpt lat="43.01675983562572" lon="11.523113609369027"><ele>362.0</ele><time>2026-04-11T11:51:12Z</time></trkpt><trkpt lat="43.01681709075742" lon="11.523026307114291"><ele>362.0</ele><time>2026-04-11T11:51:14Z</time></trkpt><trkpt lat="43.016866289563566" lon="11.522963249902368"><ele>362.0</ele><time>2026-04-11T11:51:16Z</time></trkpt><trkpt lat="43.016916881915186" lon="11.522902757467882"><ele>362.0</ele><time>2026-04-11T11:51:18Z</time></trkpt><trkpt lat="43.01697367867749" lon="11.522842929172242"><ele>362.0</ele><time>2026-04-11T11:51:20Z</time></trkpt><trkpt lat="43.017030239212446" lon="11.52279263127975"><ele>362.0</ele><time>2026-04-11T11:51:22Z</time></trkpt><trkpt lat="43.01709174738214" lon="11.522750053415797"><ele>362.0</ele><time>2026-04-11T11:51:24Z</time></trkpt><trkpt lat="43.017151109593975" lon="11.52271011090125"><ele>362.0</ele><time>2026-04-11T11:51:26Z</time></trkpt><trkpt lat="43.017214252237835" lon="11.52267115431862"><ele>362.8</ele><time>2026-04-11T11:51:28Z</time></trkpt><trkpt lat="43.01735274513853" lon="11.522564799082353"><ele>363.6</ele><time>2026-04-11T11:51:33Z</time></trkpt><trkpt lat="43.017411992448054" lon="11.522527272861609"><ele>364.40000000000003</ele><time>2026-04-11T11:51:35Z</time></trkpt><trkpt lat="43.01749062103044" lon="11.52247965924185"><ele>365.20000000000005</ele><time>2026-04-11T11:51:38Z</time></trkpt><trkpt lat="43.01755709971625" lon="11.522418588055462"><ele>366.0</ele><time>2026-04-11T11:51:41Z</time></trkpt><trkpt lat="43.017619727568416" lon="11.522344855988583"><ele>366.0</ele><time>2026-04-11T11:51:44Z</time></trkpt><trkpt lat="43.01767338740445" lon="11.522292063808088"><ele>366.0</ele><time>2026-04-11T11:51:47Z</time></trkpt><trkpt lat="43.01772552411891" lon="11.522235282459915"><ele>366.0</ele><time>2026-04-11T11:51:50Z</time></trkpt><trkpt lat="43.017832758607575" lon="11.522107413139283"><ele>366.0</ele><time>2026-04-11T11:51:56Z</time></trkpt><trkpt lat="43.0178579336017" lon="11.522026846453238"><ele>366.0</ele><time>2026-04-11T11:51:58Z</time></trkpt><trkpt lat="43.01794614722498" lon="11.521942209092579"><ele>366.0</ele><time>2026-04-11T11:52:01Z</time></trkpt><trkpt lat="43.01800895468783" lon="11.521881946873796"><ele>367.5</ele><time>2026-04-11T11:52:04Z</time></trkpt><trkpt lat="43.01807136817539" lon="11.521808163626874"><ele>369.0</ele><time>2026-04-11T11:52:07Z</time></trkpt><trkpt lat="43.01812137772267" lon="11.521735568558098"><ele>370.5</ele><time>2026-04-11T11:52:10Z</time></trkpt><trkpt lat="43.018174438746804" lon="11.52168183299168"><ele>372.0</ele><time>2026-04-11T11:52:13Z</time></trkpt><trkpt lat="43.01828651983761" lon="11.521571200852664"><ele>373.5</ele><time>2026-04-11T11:52:20Z</time></trkpt><trkpt lat="43.01835211596033" lon="11.521537041530143"><ele>375.0</ele><time>2026-04-11T11:52:23Z</time></trkpt><trkpt lat="43.01842986305836" lon="11.521485193465077"><ele>375.0</ele><time>2026-04-11T11:52:26.001Z</time></trkpt><trkpt lat="43.018503564015575" lon="11.521443428640316"><ele>375.0</ele><time>2026-04-11T11:52:29.001Z</time></trkpt><trkpt lat="43.01857984075511" lon="11.521390174043832"><ele>375.0</ele><time>2026-04-11T11:52:32.001Z</time></trkpt><trkpt lat="43.01865232156791" lon="11.521340121339021"><ele>375.0</ele><time>2026-04-11T11:52:35.001Z</time></trkpt><trkpt lat="43.018802690691" lon="11.521253213275038"><ele>375.0</ele><time>2026-04-11T11:52:41.001Z</time></trkpt><trkpt lat="43.01887653355999" lon="11.521200684764322"><ele>376.6</ele><time>2026-04-11T11:52:44.001Z</time></trkpt><trkpt lat="43.01895369765834" lon="11.521159292164127"><ele>378.2</ele><time>2026-04-11T11:52:47.001Z</time></trkpt><trkpt lat="43.01903701956605" lon="11.52111162823922"><ele>379.79999999999995</ele><time>2026-04-11T11:52:50.001Z</time></trkpt><trkpt lat="43.019118659449454" lon="11.521051830248725"><ele>381.4</ele><time>2026-04-11T11:52:53.001Z</time></trkpt><trkpt lat="43.01919147552754" lon="11.521012225269013"><ele>383.0</ele><time>2026-04-11T11:52:56.001Z</time></trkpt><trkpt lat="43.01935020371959" lon="11.52091602366352"><ele>383.0</ele><time>2026-04-11T11:53:02Z</time></trkpt><trkpt lat="43.0194359700133" lon="11.52086048271471"><ele>383.0</ele><time>2026-04-11T11:53:05Z</time></trkpt><trkpt lat="43.01949501639433" lon="11.520826462501475"><ele>383.0</ele><time>2026-04-11T11:53:07Z</time></trkpt><trkpt lat="43.019556928692715" lon="11.520793292166557"><ele>383.0</ele><time>2026-04-11T11:53:09Z</time></trkpt><trkpt lat="43.019618749818704" lon="11.520755988526469"><ele>383.0</ele><time>2026-04-11T11:53:11Z</time></trkpt><trkpt lat="43.0196813696567" lon="11.520707162421692"><ele>383.0</ele><time>2026-04-11T11:53:13Z</time></trkpt><trkpt lat="43.01975430941268" lon="11.52066956075625"><ele>383.0</ele><time>2026-04-11T11:53:15Z</time></trkpt><trkpt lat="43.01983152043835" lon="11.520629101686223"><ele>383.0</ele><time>2026-04-11T11:53:17Z</time></trkpt><trkpt lat="43.01997845569039" lon="11.520536886876144"><ele>383.0</ele><time>2026-04-11T11:53:21Z</time></trkpt><trkpt lat="43.020051285231084" lon="11.520486336908057"><ele>383.0</ele><time>2026-04-11T11:53:23Z</time></trkpt><trkpt lat="43.02012614295355" lon="11.520436996425891"><ele>383.0</ele><time>2026-04-11T11:53:25Z</time></trkpt><trkpt lat="43.02018690045774" lon="11.520374013156733"><ele>383.0</ele><time>2026-04-11T11:53:27Z</time></trkpt><trkpt lat="43.02024403376236" lon="11.520307068701175"><ele>383.83333333333337</ele><time>2026-04-11T11:53:29Z</time></trkpt><trkpt lat="43.02030131276611" lon="11.520236282021177"><ele>384.6666666666667</ele><time>2026-04-11T11:53:31Z</time></trkpt><trkpt lat="43.0203507730672" lon="11.520159252255914"><ele>385.5</ele><time>2026-04-11T11:53:33Z</time></trkpt><trkpt lat="43.02039136493151" lon="11.520063946953314"><ele>386.33333333333337</ele><time>2026-04-11T11:53:35Z</time></trkpt><trkpt lat="43.02043076768466" lon="11.519962002058222"><ele>387.1666666666667</ele><time>2026-04-11T11:53:37Z</time></trkpt><trkpt lat="43.02047986923029" lon="11.519861527836483"><ele>388.0</ele><time>2026-04-11T11:53:39Z</time></trkpt><trkpt lat="43.02057281422311" lon="11.519631578484569"><ele>390.5</ele><time>2026-04-11T11:53:43Z</time></trkpt><trkpt lat="43.02062881691413" lon="11.519505256673465"><ele>393.0</ele><time>2026-04-11T11:53:45Z</time></trkpt><trkpt lat="43.020686419905275" lon="11.51937434418087"><ele>395.5</ele><time>2026-04-11T11:53:47Z</time></trkpt><trkpt lat="43.02074625981077" lon="11.519238798175165"><ele>398.0</ele><time>2026-04-11T11:53:49Z</time></trkpt><trkpt lat="43.0208007591064" lon="11.519100295716257"><ele>396.16666666666663</ele><time>2026-04-11T11:53:51Z</time></trkpt><trkpt lat="43.020863938598026" lon="11.51896054005494"><ele>394.3333333333333</ele><time>2026-04-11T11:53:53Z</time></trkpt><trkpt lat="43.02093025867282" lon="11.518814396202599"><ele>392.5</ele><time>2026-04-11T11:53:55Z</time></trkpt><trkpt lat="43.020963731361434" lon="11.518737263421704"><ele>390.66666666666663</ele><time>2026-04-11T11:53:56Z</time></trkpt><trkpt lat="43.02099839913908" lon="11.518661310768893"><ele>388.8333333333333</ele><time>2026-04-11T11:53:57Z</time></trkpt><trkpt lat="43.02103463433291" lon="11.5185870999112"><ele>387.0</ele><time>2026-04-11T11:53:58Z</time></trkpt><trkpt lat="43.02107525460431" lon="11.518509566136963"><ele>387.0</ele><time>2026-04-11T11:53:59Z</time></trkpt><trkpt lat="43.021141558142496" lon="11.518356336945093"><ele>387.0</ele><time>2026-04-11T11:54:01Z</time></trkpt><trkpt lat="43.021208511475336" lon="11.51819879764443"><ele>387.0</ele><time>2026-04-11T11:54:03Z</time></trkpt><trkpt lat="43.02123942876091" lon="11.518119524445057"><ele>387.0</ele><time>2026-04-11T11:54:04Z</time></trkpt><trkpt lat="43.0212727858681" lon="11.518037671937273"><ele>387.0</ele><time>2026-04-11T11:54:05Z</time></trkpt><trkpt lat="43.021306104940535" lon="11.517955265596347"><ele>387.6666666666667</ele><time>2026-04-11T11:54:06Z</time></trkpt><trkpt lat="43.021347338830786" lon="11.517875349412927"><ele>388.33333333333337</ele><time>2026-04-11T11:54:07Z</time></trkpt><trkpt lat="43.02139561356683" lon="11.517801283519331"><ele>389.0</ele><time>2026-04-11T11:54:08Z</time></trkpt><trkpt lat="43.021451235912764" lon="11.517734088065943"><ele>389.6666666666667</ele><time>2026-04-11T11:54:09Z</time></trkpt><trkpt lat="43.0215118204956" lon="11.517670720694138"><ele>390.33333333333337</ele><time>2026-04-11T11:54:10Z</time></trkpt><trkpt lat="43.02157840409373" lon="11.517614612801514"><ele>391.0</ele><time>2026-04-11T11:54:11Z</time></trkpt><trkpt lat="43.02164931263832" lon="11.517564410726239"><ele>388.6666666666667</ele><time>2026-04-11T11:54:12Z</time></trkpt><trkpt lat="43.02171807457111" lon="11.517504368629993"><ele>386.33333333333337</ele><time>2026-04-11T11:54:13Z</time></trkpt><trkpt lat="43.021787765196926" lon="11.517440959929825"><ele>384.0</ele><time>2026-04-11T11:54:14Z</time></trkpt><trkpt lat="43.02185965329758" lon="11.51737762963565"><ele>381.6666666666667</ele><time>2026-04-11T11:54:15Z</time></trkpt><trkpt lat="43.02193472862854" lon="11.517323638494046"><ele>379.33333333333337</ele><time>2026-04-11T11:54:16Z</time></trkpt><trkpt lat="43.02200699977074" lon="11.517266483155817"><ele>377.0</ele><time>2026-04-11T11:54:17.001Z</time></trkpt><trkpt lat="43.02207641367107" lon="11.51720823651571"><ele>377.0</ele><time>2026-04-11T11:54:18.001Z</time></trkpt><trkpt lat="43.02214359131239" lon="11.517151117923039"><ele>377.0</ele><time>2026-04-11T11:54:19.001Z</time></trkpt><trkpt lat="43.02220475042421" lon="11.517096373922145"><ele>377.0</ele><time>2026-04-11T11:54:20.001Z</time></trkpt><trkpt lat="43.02226029154204" lon="11.517037179401202"><ele>377.0</ele><time>2026-04-11T11:54:21.001Z</time></trkpt><trkpt lat="43.02234232177118" lon="11.516927513383383"><ele>377.0</ele><time>2026-04-11T11:54:23.001Z</time></trkpt><trkpt lat="43.022408835569564" lon="11.516699011801071"><ele>378.1666666666667</ele><time>2026-04-11T11:54:27.001Z</time></trkpt><trkpt lat="43.02242444946442" lon="11.51659789146832"><ele>379.33333333333337</ele><time>2026-04-11T11:54:29.001Z</time></trkpt><trkpt lat="43.02242536538577" lon="11.516502931392175"><ele>380.5</ele><time>2026-04-11T11:54:31.001Z</time></trkpt><trkpt lat="43.02243259083858" lon="11.516379668514867"><ele>381.6666666666667</ele><time>2026-04-11T11:54:34.001Z</time></trkpt><trkpt lat="43.02243329026907" lon="11.516273672041379"><ele>382.8333333333333</ele><time>2026-04-11T11:54:37.001Z</time></trkpt><trkpt lat="43.02244224925612" lon="11.516153593859764"><ele>384.0</ele><time>2026-04-11T11:54:41.001Z</time></trkpt><trkpt lat="43.02244824357958" lon="11.516055938506023"><ele>385.0</ele><time>2026-04-11T11:54:44.001Z</time></trkpt><trkpt lat="43.02245866484417" lon="11.515864865618564"><ele>386.0</ele><time>2026-04-11T11:54:50.001Z</time></trkpt><trkpt lat="43.022462336606765" lon="11.515754395889841"><ele>387.0</ele><time>2026-04-11T11:54:54.001Z</time></trkpt><trkpt lat="43.02247143054042" lon="11.51564467701037"><ele>388.0</ele><time>2026-04-11T11:54:58.001Z</time></trkpt><trkpt lat="43.022477011865234" lon="11.51553498607488"><ele>389.0</ele><time>2026-04-11T11:55:02.001Z</time></trkpt><trkpt lat="43.02247980424399" lon="11.515427874638096"><ele>388.79999999999995</ele><time>2026-04-11T11:55:06Z</time></trkpt><trkpt lat="43.02249911904397" lon="11.51523004516623"><ele>388.59999999999997</ele><time>2026-04-11T11:55:13Z</time></trkpt><trkpt lat="43.022514077256766" lon="11.51511739647542"><ele>388.4</ele><time>2026-04-11T11:55:17Z</time></trkpt><trkpt lat="43.02253653889275" lon="11.515008829916926"><ele>388.2</ele><time>2026-04-11T11:55:21Z</time></trkpt><trkpt lat="43.02257572486134" lon="11.51490547013655"><ele>388.0</ele><time>2026-04-11T11:55:25Z</time></trkpt><trkpt lat="43.0226138437537" lon="11.514804927064851"><ele>388.0</ele><time>2026-04-11T11:55:29Z</time></trkpt><trkpt lat="43.02269718729655" lon="11.51461193184121"><ele>388.0</ele><time>2026-04-11T11:55:37Z</time></trkpt><trkpt lat="43.02273860876031" lon="11.514514698123728"><ele>388.0</ele><time>2026-04-11T11:55:41Z</time></trkpt><trkpt lat="43.022781894673706" lon="11.51442315208829"><ele>388.0</ele><time>2026-04-11T11:55:45Z</time></trkpt><trkpt lat="43.02281476188576" lon="11.514339537300762"><ele>388.0</ele><time>2026-04-11T11:55:49Z</time></trkpt><trkpt lat="43.02284382502356" lon="11.514257579187092"><ele>389.0</ele><time>2026-04-11T11:55:53Z</time></trkpt><trkpt lat="43.022920463488624" lon="11.51410111398018"><ele>390.0</ele><time>2026-04-11T11:56:01Z</time></trkpt><trkpt lat="43.02294971054365" lon="11.514020504838447"><ele>391.0</ele><time>2026-04-11T11:56:05Z</time></trkpt><trkpt lat="43.02301974029572" lon="11.513959071335684"><ele>392.0</ele><time>2026-04-11T11:56:09Z</time></trkpt><trkpt lat="43.023089051097564" lon="11.513886390156287"><ele>393.0</ele><time>2026-04-11T11:56:14Z</time></trkpt><trkpt lat="43.023219270067976" lon="11.513796963129519"><ele>393.0</ele><time>2026-04-11T11:56:23Z</time></trkpt><trkpt lat="43.0232866343053" lon="11.513751223014717"><ele>393.0</ele><time>2026-04-11T11:56:27Z</time></trkpt><trkpt lat="43.023353759292604" lon="11.513707836255488"><ele>393.0</ele><time>2026-04-11T11:56:31.001Z</time></trkpt><trkpt lat="43.02341823461658" lon="11.513670670002544"><ele>393.0</ele><time>2026-04-11T11:56:35.001Z</time></trkpt><trkpt lat="43.02355121320827" lon="11.513574133651339"><ele>393.0</ele><time>2026-04-11T11:56:44.001Z</time></trkpt><trkpt lat="43.0236181455479" lon="11.513535788795823"><ele>393.0</ele><time>2026-04-11T11:56:48.001Z</time></trkpt><trkpt lat="43.02367436381948" lon="11.513488722380652"><ele>394.0</ele><time>2026-04-11T11:56:51.001Z</time></trkpt><trkpt lat="43.02373386131344" lon="11.513456484932343"><ele>395.0</ele><time>2026-04-11T11:56:55.001Z</time></trkpt><trkpt lat="43.02379381913407" lon="11.513408896720568"><ele>396.0</ele><time>2026-04-11T11:56:59.001Z</time></trkpt><trkpt lat="43.02393286249226" lon="11.513323959442262"><ele>397.0</ele><time>2026-04-11T11:57:07.001Z</time></trkpt><trkpt lat="43.02399638835727" lon="11.513280157907671"><ele>398.0</ele><time>2026-04-11T11:57:11Z</time></trkpt><trkpt lat="43.02406361974289" lon="11.513225500302093"><ele>399.0</ele><time>2026-04-11T11:57:16Z</time></trkpt><trkpt lat="43.02413790518788" lon="11.513186183682215"><ele>400.5</ele><time>2026-04-11T11:57:20Z</time></trkpt><trkpt lat="43.02426597102829" lon="11.513098502476367"><ele>402.0</ele><time>2026-04-11T11:57:28Z</time></trkpt><trkpt lat="43.024324194717785" lon="11.513060293931302"><ele>403.5</ele><time>2026-04-11T11:57:32Z</time></trkpt><trkpt lat="43.02439138420113" lon="11.513023707668157"><ele>405.0</ele><time>2026-04-11T11:57:36Z</time></trkpt><trkpt lat="43.024465609358664" lon="11.512979237681586"><ele>406.5</ele><time>2026-04-11T11:57:40Z</time></trkpt><trkpt lat="43.024527875888886" lon="11.512938060169613"><ele>408.0</ele><time>2026-04-11T11:57:44Z</time></trkpt><trkpt lat="43.02465019446067" lon="11.512853991940103"><ele>408.0</ele><time>2026-04-11T11:57:51Z</time></trkpt><trkpt lat="43.02471172885813" lon="11.512815319167983"><ele>408.0</ele><time>2026-04-11T11:57:54Z</time></trkpt><trkpt lat="43.02477492768056" lon="11.512775859168094"><ele>408.0</ele><time>2026-04-11T11:57:57Z</time></trkpt><trkpt lat="43.02483342290564" lon="11.51272872047795"><ele>408.0</ele><time>2026-04-11T11:58:00Z</time></trkpt><trkpt lat="43.0249013862537" lon="11.512688735035473"><ele>408.0</ele><time>2026-04-11T11:58:03Z</time></trkpt><trkpt lat="43.02497247707592" lon="11.512646805580832"><ele>408.0</ele><time>2026-04-11T11:58:06Z</time></trkpt><trkpt lat="43.02509749245038" lon="11.512537556873278"><ele>409.1666666666667</ele><time>2026-04-11T11:58:12Z</time></trkpt><trkpt lat="43.025164950113364" lon="11.512469689944126"><ele>410.33333333333337</ele><time>2026-04-11T11:58:14Z</time></trkpt><trkpt lat="43.025226468108315" lon="11.51240332422292"><ele>411.5</ele><time>2026-04-11T11:58:17Z</time></trkpt><trkpt lat="43.025297887910995" lon="11.512341849477014"><ele>412.6666666666667</ele><time>2026-04-11T11:58:20.001Z</time></trkpt><trkpt lat="43.02536090186315" lon="11.512270166241713"><ele>413.83333333333337</ele><time>2026-04-11T11:58:23.001Z</time></trkpt><trkpt lat="43.02542777952937" lon="11.512196119611804"><ele>415.0</ele><time>2026-04-11T11:58:27.001Z</time></trkpt><trkpt lat="43.02553587291856" lon="11.5120884766667"><ele>415.00000000000006</ele><time>2026-04-11T11:58:33.001Z</time></trkpt><trkpt lat="43.02558338312892" lon="11.512026531785082"><ele>415.0</ele><time>2026-04-11T11:58:36.001Z</time></trkpt><trkpt lat="43.025633632854415" lon="11.511957795741258"><ele>415.0</ele><time>2026-04-11T11:58:39.001Z</time></trkpt><trkpt lat="43.025688397551164" lon="11.511896105228987"><ele>415.0</ele><time>2026-04-11T11:58:42.001Z</time></trkpt><trkpt lat="43.02574960093626" lon="11.511840037700177"><ele>415.00000000000006</ele><time>2026-04-11T11:58:45.001Z</time></trkpt><trkpt lat="43.02581240965255" lon="11.511793052937781"><ele>415.0</ele><time>2026-04-11T11:58:48.001Z</time></trkpt><trkpt lat="43.02597287386728" lon="11.511705417173971"><ele>415.50000000000006</ele><time>2026-04-11T11:58:54.001Z</time></trkpt><trkpt lat="43.02603689601607" lon="11.511684622592876"><ele>416.0</ele><time>2026-04-11T11:58:57.001Z</time></trkpt><trkpt lat="43.026100133490175" lon="11.511662222016577"><ele>416.5</ele><time>2026-04-11T11:58:59.001Z</time></trkpt><trkpt lat="43.02617509538573" lon="11.51163583250959"><ele>417.0</ele><time>2026-04-11T11:59:03.001Z</time></trkpt><trkpt lat="43.0262572472989" lon="11.511615671779321"><ele>417.50000000000006</ele><time>2026-04-11T11:59:06.001Z</time></trkpt><trkpt lat="43.02634722816627" lon="11.511589116247892"><ele>418.0</ele><time>2026-04-11T11:59:09.001Z</time></trkpt><trkpt lat="43.026490292029735" lon="11.511552395331712"><ele>418.0</ele><time>2026-04-11T11:59:15Z</time></trkpt><trkpt lat="43.02655841892056" lon="11.511528286460573"><ele>418.0</ele><time>2026-04-11T11:59:18Z</time></trkpt><trkpt lat="43.026626948092115" lon="11.511532556407145"><ele>418.0</ele><time>2026-04-11T11:59:21Z</time></trkpt><trkpt lat="43.02670171590095" lon="11.51150212576296"><ele>418.0</ele><time>2026-04-11T11:59:24Z</time></trkpt><trkpt lat="43.02677580413697" lon="11.511456791735254"><ele>418.0</ele><time>2026-04-11T11:59:27Z</time></trkpt><trkpt lat="43.02683514145964" lon="11.511409015123053"><ele>418.0</ele><time>2026-04-11T11:59:29Z</time></trkpt><trkpt lat="43.02688414978671" lon="11.511340087258134"><ele>418.0</ele><time>2026-04-11T11:59:32Z</time></trkpt><trkpt lat="43.02696525460117" lon="11.511156347374683"><ele>418.50000000000006</ele><time>2026-04-11T11:59:38Z</time></trkpt><trkpt lat="43.02700456056795" lon="11.511063091718055"><ele>419.0</ele><time>2026-04-11T11:59:41Z</time></trkpt><trkpt lat="43.027049276491915" lon="11.510951762511668"><ele>419.5</ele><time>2026-04-11T11:59:44Z</time></trkpt><trkpt lat="43.02709189884379" lon="11.510877543465412"><ele>420.0</ele><time>2026-04-11T11:59:47Z</time></trkpt><trkpt lat="43.027134403394626" lon="11.510811487280595"><ele>420.50000000000006</ele><time>2026-04-11T11:59:49Z</time></trkpt><trkpt lat="43.02718954563919" lon="11.510747509980805"><ele>421.0</ele><time>2026-04-11T11:59:51Z</time></trkpt><trkpt lat="43.02725233664546" lon="11.510682423212737"><ele>421.0</ele><time>2026-04-11T11:59:54Z</time></trkpt><trkpt lat="43.02738594546416" lon="11.510552165594918"><ele>421.0</ele><time>2026-04-11T11:59:59Z</time></trkpt><trkpt lat="43.02746368549929" lon="11.510480305641744"><ele>421.0</ele><time>2026-04-11T12:00:02Z</time></trkpt><trkpt lat="43.02751758061025" lon="11.510433750512941"><ele>421.0</ele><time>2026-04-11T12:00:04Z</time></trkpt><trkpt lat="43.027589672526645" lon="11.510355964635044"><ele>421.0</ele><time>2026-04-11T12:00:07Z</time></trkpt><trkpt lat="43.027661283482765" lon="11.510282998126737"><ele>422.50000000000006</ele><time>2026-04-11T12:00:10Z</time></trkpt><trkpt lat="43.0277300463515" lon="11.510220657796479"><ele>424.0</ele><time>2026-04-11T12:00:14Z</time></trkpt><trkpt lat="43.02777838198308" lon="11.51016038949131"><ele>425.5</ele><time>2026-04-11T12:00:16Z</time></trkpt><trkpt lat="43.02787319975848" lon="11.510007913363541"><ele>427.0</ele><time>2026-04-11T12:00:21Z</time></trkpt><trkpt lat="43.027918270528204" lon="11.509937759909548"><ele>428.50000000000006</ele><time>2026-04-11T12:00:24Z</time></trkpt><trkpt lat="43.02796057713932" lon="11.50985663642051"><ele>430.0</ele><time>2026-04-11T12:00:27Z</time></trkpt><trkpt lat="43.028011413615836" lon="11.509773618057231"><ele>430.0</ele><time>2026-04-11T12:00:30Z</time></trkpt><trkpt lat="43.02806938027702" lon="11.509697523362524"><ele>430.0</ele><time>2026-04-11T12:00:33.001Z</time></trkpt><trkpt lat="43.02812143074611" lon="11.509619608376527"><ele>430.0</ele><time>2026-04-11T12:00:36.001Z</time></trkpt><trkpt lat="43.02817873635008" lon="11.509530094139926"><ele>430.0</ele><time>2026-04-11T12:00:39.001Z</time></trkpt><trkpt lat="43.02832401623487" lon="11.509370451285262"><ele>430.0</ele><time>2026-04-11T12:00:45.001Z</time></trkpt><trkpt lat="43.02838705488585" lon="11.509320219005518"><ele>431.6</ele><time>2026-04-11T12:00:48.001Z</time></trkpt><trkpt lat="43.028457960046566" lon="11.509265496289423"><ele>433.2</ele><time>2026-04-11T12:00:51.001Z</time></trkpt><trkpt lat="43.02853411152128" lon="11.50919499262876"><ele>434.79999999999995</ele><time>2026-04-11T12:00:54.001Z</time></trkpt><trkpt lat="43.028616892071604" lon="11.509134302909617"><ele>436.4</ele><time>2026-04-11T12:00:57.001Z</time></trkpt><trkpt lat="43.02869791747106" lon="11.509056878061505"><ele>438.0</ele><time>2026-04-11T12:01:00.001Z</time></trkpt><trkpt lat="43.02882209548962" lon="11.508960333310899"><ele>438.0</ele><time>2026-04-11T12:01:05.001Z</time></trkpt><trkpt lat="43.02889687018692" lon="11.50890170725951"><ele>438.0</ele><time>2026-04-11T12:01:08.001Z</time></trkpt><trkpt lat="43.02897167096476" lon="11.508841796739091"><ele>438.0</ele><time>2026-04-11T12:01:11.001Z</time></trkpt><trkpt lat="43.02904253422897" lon="11.508782976673317"><ele>438.0</ele><time>2026-04-11T12:01:14.001Z</time></trkpt><trkpt lat="43.02911018096582" lon="11.508734144462325"><ele>438.0</ele><time>2026-04-11T12:01:17.001Z</time></trkpt><trkpt lat="43.029174572928916" lon="11.508692083896257"><ele>438.0</ele><time>2026-04-11T12:01:19.001Z</time></trkpt><trkpt lat="43.029241111703826" lon="11.508644353243305"><ele>438.0</ele><time>2026-04-11T12:01:21Z</time></trkpt><trkpt lat="43.029384576263006" lon="11.508530755380354"><ele>437.99999999999994</ele><time>2026-04-11T12:01:26Z</time></trkpt><trkpt lat="43.029455328929565" lon="11.508484200770608"><ele>437.99999999999994</ele><time>2026-04-11T12:01:29Z</time></trkpt><trkpt lat="43.02953115263989" lon="11.508420808920969"><ele>438.0</ele><time>2026-04-11T12:01:32Z</time></trkpt><trkpt lat="43.02958547640611" lon="11.508375829888339"><ele>438.0</ele><time>2026-04-11T12:01:34Z</time></trkpt><trkpt lat="43.029649520562565" lon="11.508333303593963"><ele>438.0</ele><time>2026-04-11T12:01:37Z</time></trkpt><trkpt lat="43.02971903375291" lon="11.508281256278174"><ele>437.99999999999994</ele><time>2026-04-11T12:01:40Z</time></trkpt><trkpt lat="43.02977783804332" lon="11.508231071877884"><ele>437.99999999999994</ele><time>2026-04-11T12:01:42Z</time></trkpt><trkpt lat="43.02992139792755" lon="11.508121159205983"><ele>438.0</ele><time>2026-04-11T12:01:48Z</time></trkpt><trkpt lat="43.029993304494674" lon="11.508057880625062"><ele>438.0</ele><time>2026-04-11T12:01:51Z</time></trkpt><trkpt lat="43.030065477858926" lon="11.508015788307219"><ele>438.3333333333333</ele><time>2026-04-11T12:01:54Z</time></trkpt><trkpt lat="43.03011730861077" lon="11.507965037477554"><ele>438.66666666666663</ele><time>2026-04-11T12:01:56Z</time></trkpt><trkpt lat="43.03017541662135" lon="11.50791057825268"><ele>439.0</ele><time>2026-04-11T12:01:59Z</time></trkpt><trkpt lat="43.0302407339278" lon="11.507860033506597"><ele>439.3333333333333</ele><time>2026-04-11T12:02:02Z</time></trkpt><trkpt lat="43.03030482943162" lon="11.507818271175912"><ele>439.66666666666663</ele><time>2026-04-11T12:02:05Z</time></trkpt><trkpt lat="43.03045145195409" lon="11.507727075461947"><ele>440.0</ele><time>2026-04-11T12:02:11Z</time></trkpt><trkpt lat="43.030537597395956" lon="11.507690958190066"><ele>439.99999999999994</ele><time>2026-04-11T12:02:14Z</time></trkpt><trkpt lat="43.030618637046146" lon="11.507650856972138"><ele>440.0</ele><time>2026-04-11T12:02:17Z</time></trkpt><trkpt lat="43.03073776660036" lon="11.50763087932684"><ele>440.0</ele><time>2026-04-11T12:02:20Z</time></trkpt><trkpt lat="43.030807689061376" lon="11.507617938252654"><ele>440.0</ele><time>2026-04-11T12:02:22Z</time></trkpt><trkpt lat="43.030879516813215" lon="11.507604325692638"><ele>439.99999999999994</ele><time>2026-04-11T12:02:24Z</time></trkpt><trkpt lat="43.03094265038002" lon="11.50759760138243"><ele>440.0</ele><time>2026-04-11T12:02:26Z</time></trkpt><trkpt lat="43.0311227526497" lon="11.507604667431195"><ele>441.3333333333333</ele><time>2026-04-11T12:02:32Z</time></trkpt><trkpt lat="43.03118720262238" lon="11.507615940794311"><ele>442.66666666666663</ele><time>2026-04-11T12:02:34Z</time></trkpt><trkpt lat="43.03127575309756" lon="11.50761789934624"><ele>444.0</ele><time>2026-04-11T12:02:37Z</time></trkpt><trkpt lat="43.03136738071461" lon="11.507625014707019"><ele>445.33333333333337</ele><time>2026-04-11T12:02:40Z</time></trkpt><trkpt lat="43.03145792222284" lon="11.507632376922004"><ele>446.6666666666667</ele><time>2026-04-11T12:02:43Z</time></trkpt><trkpt lat="43.03155155311977" lon="11.50763787420481"><ele>448.0</ele><time>2026-04-11T12:02:46Z</time></trkpt><trkpt lat="43.031634910587016" lon="11.507645993047785"><ele>448.79999999999995</ele><time>2026-04-11T12:02:49.001Z</time></trkpt><trkpt lat="43.0317969742623" lon="11.507662423327004"><ele>449.59999999999997</ele><time>2026-04-11T12:02:55.001Z</time></trkpt><trkpt lat="43.031881043805" lon="11.507679129200934"><ele>450.40000000000003</ele><time>2026-04-11T12:02:58.001Z</time></trkpt><trkpt lat="43.03196398171983" lon="11.507677317733473"><ele>451.20000000000005</ele><time>2026-04-11T12:03:01.001Z</time></trkpt><trkpt lat="43.032049547924" lon="11.507676736096654"><ele>452.0</ele><time>2026-04-11T12:03:04.001Z</time></trkpt><trkpt lat="43.032133864025326" lon="11.507669707883995"><ele>452.0</ele><time>2026-04-11T12:03:08.001Z</time></trkpt><trkpt lat="43.0322155458627" lon="11.507693726426375"><ele>452.00000000000006</ele><time>2026-04-11T12:03:11.001Z</time></trkpt><trkpt lat="43.03237990826248" lon="11.507719928253533"><ele>452.00000000000006</ele><time>2026-04-11T12:03:17.001Z</time></trkpt><trkpt lat="43.03245570750295" lon="11.507719807018283"><ele>452.0</ele><time>2026-04-11T12:03:19.001Z</time></trkpt><trkpt lat="43.03254346485276" lon="11.507700770271091"><ele>452.0</ele><time>2026-04-11T12:03:22.001Z</time></trkpt><trkpt lat="43.03262671168745" lon="11.507660711978245"><ele>452.8</ele><time>2026-04-11T12:03:26.001Z</time></trkpt><trkpt lat="43.03269700662076" lon="11.507609125525889"><ele>453.6</ele><time>2026-04-11T12:03:29Z</time></trkpt><trkpt lat="43.0327631198888" lon="11.507555546191023"><ele>454.40000000000003</ele><time>2026-04-11T12:03:31Z</time></trkpt><trkpt lat="43.03283273783212" lon="11.507474587971462"><ele>455.20000000000005</ele><time>2026-04-11T12:03:34Z</time></trkpt><trkpt lat="43.03293945231641" lon="11.507321658909158"><ele>456.0</ele><time>2026-04-11T12:03:40Z</time></trkpt><trkpt lat="43.03299184191408" lon="11.507239851097088"><ele>456.0</ele><time>2026-04-11T12:03:43Z</time></trkpt><trkpt lat="43.0330512521597" lon="11.507163823176723"><ele>456.0</ele><time>2026-04-11T12:03:46Z</time></trkpt><trkpt lat="43.033107536106755" lon="11.50707288080964"><ele>456.0</ele><time>2026-04-11T12:03:49Z</time></trkpt><trkpt lat="43.03316462934524" lon="11.506998869742466"><ele>456.0</ele><time>2026-04-11T12:03:51Z</time></trkpt><trkpt lat="43.0332186743047" lon="11.506897619434872"><ele>456.0</ele><time>2026-04-11T12:03:54Z</time></trkpt><trkpt lat="43.03327952715314" lon="11.506796881903355"><ele>456.0</ele><time>2026-04-11T12:03:57Z</time></trkpt><trkpt lat="43.03336683498725" lon="11.506658130512866"><ele>456.1666666666667</ele><time>2026-04-11T12:04:01Z</time></trkpt><trkpt lat="43.03341233499543" lon="11.506582644834472"><ele>456.33333333333337</ele><time>2026-04-11T12:04:03Z</time></trkpt><trkpt lat="43.033455941793655" lon="11.50651157652349"><ele>456.5</ele><time>2026-04-11T12:04:05Z</time></trkpt><trkpt lat="43.03350109575704" lon="11.506438397771582"><ele>456.6666666666667</ele><time>2026-04-11T12:04:07Z</time></trkpt><trkpt lat="43.03355105164839" lon="11.506368847122447"><ele>456.83333333333337</ele><time>2026-04-11T12:04:09Z</time></trkpt><trkpt lat="43.03361591501374" lon="11.50626178372547"><ele>457.0</ele><time>2026-04-11T12:04:12Z</time></trkpt><trkpt lat="43.033662418665465" lon="11.50618663923133"><ele>457.0</ele><time>2026-04-11T12:04:14Z</time></trkpt><trkpt lat="43.03372447800113" lon="11.506071262858411"><ele>457.00000000000006</ele><time>2026-04-11T12:04:17Z</time></trkpt><trkpt lat="43.033775064185576" lon="11.50600245210165"><ele>457.00000000000006</ele><time>2026-04-11T12:04:19Z</time></trkpt><trkpt lat="43.03387105642509" lon="11.505854058293393"><ele>457.0</ele><time>2026-04-11T12:04:23Z</time></trkpt><trkpt lat="43.0339161441236" lon="11.505778090951033"><ele>457.0</ele><time>2026-04-11T12:04:25Z</time></trkpt><trkpt lat="43.03396417105794" lon="11.505707556233281"><ele>457.00000000000006</ele><time>2026-04-11T12:04:27Z</time></trkpt><trkpt lat="43.03400961549014" lon="11.505630493796213"><ele>457.0</ele><time>2026-04-11T12:04:29Z</time></trkpt><trkpt lat="43.03406008034377" lon="11.505559931913243"><ele>457.0</ele><time>2026-04-11T12:04:32Z</time></trkpt><trkpt lat="43.03411038683344" lon="11.50548120922622"><ele>457.0</ele><time>2026-04-11T12:04:35Z</time></trkpt><trkpt lat="43.034171493605044" lon="11.505408495558957"><ele>457.00000000000006</ele><time>2026-04-11T12:04:38Z</time></trkpt><trkpt lat="43.034229061122005" lon="11.505331348895725"><ele>457.0</ele><time>2026-04-11T12:04:41Z</time></trkpt><trkpt lat="43.03435217669505" lon="11.505174276393413"><ele>458.40000000000003</ele><time>2026-04-11T12:04:45.001Z</time></trkpt><trkpt lat="43.034430020528525" lon="11.505090480304023"><ele>459.80000000000007</ele><time>2026-04-11T12:04:47.001Z</time></trkpt><trkpt lat="43.03451822982014" lon="11.505001169827313"><ele>461.2</ele><time>2026-04-11T12:04:49.001Z</time></trkpt><trkpt lat="43.03460483088655" lon="11.50492443537687"><ele>462.6</ele><time>2026-04-11T12:04:51.001Z</time></trkpt><trkpt lat="43.03468845804495" lon="11.504846155184639"><ele>464.0</ele><time>2026-04-11T12:04:53.001Z</time></trkpt><trkpt lat="43.03476738703327" lon="11.504769919738129"><ele>464.0</ele><time>2026-04-11T12:04:55.001Z</time></trkpt><trkpt lat="43.03483727387467" lon="11.504698123143914"><ele>464.0</ele><time>2026-04-11T12:04:57.001Z</time></trkpt><trkpt lat="43.03491330130382" lon="11.504614200759203"><ele>464.0</ele><time>2026-04-11T12:04:59.001Z</time></trkpt><trkpt lat="43.034983119379596" lon="11.504538584274218"><ele>464.0</ele><time>2026-04-11T12:05:01.001Z</time></trkpt><trkpt lat="43.03505626975101" lon="11.50446771867043"><ele>464.0</ele><time>2026-04-11T12:05:03.001Z</time></trkpt><trkpt lat="43.03519978330415" lon="11.504315368148024"><ele>464.16666666666663</ele><time>2026-04-11T12:05:07.001Z</time></trkpt><trkpt lat="43.03527488547529" lon="11.504245686005845"><ele>464.3333333333333</ele><time>2026-04-11T12:05:09.001Z</time></trkpt><trkpt lat="43.03534479088515" lon="11.504169390012098"><ele>464.5</ele><time>2026-04-11T12:05:11.001Z</time></trkpt><trkpt lat="43.035416007305834" lon="11.504107461903796"><ele>464.66666666666663</ele><time>2026-04-11T12:05:13.001Z</time></trkpt><trkpt lat="43.03548158730589" lon="11.504035006711735"><ele>464.8333333333333</ele><time>2026-04-11T12:05:15.001Z</time></trkpt><trkpt lat="43.03554703510989" lon="11.503961095961515"><ele>465.0</ele><time>2026-04-11T12:05:17.001Z</time></trkpt><trkpt lat="43.035618504931406" lon="11.503895846957747"><ele>465.0</ele><time>2026-04-11T12:05:19.001Z</time></trkpt><trkpt lat="43.035680433880145" lon="11.503835510270193"><ele>465.0</ele><time>2026-04-11T12:05:22.001Z</time></trkpt><trkpt lat="43.0358071080071" lon="11.503768751145147"><ele>465.0</ele><time>2026-04-11T12:05:25.001Z</time></trkpt><trkpt lat="43.035958914313206" lon="11.50374656988392"><ele>465.0</ele><time>2026-04-11T12:05:29.001Z</time></trkpt><trkpt lat="43.036026779362004" lon="11.5037632376189"><ele>465.0</ele><time>2026-04-11T12:05:31.001Z</time></trkpt><trkpt lat="43.0361134206609" lon="11.503786788770045"><ele>466.8333333333333</ele><time>2026-04-11T12:05:33Z</time></trkpt><trkpt lat="43.03619882550462" lon="11.503807428499812"><ele>468.66666666666663</ele><time>2026-04-11T12:05:35Z</time></trkpt><trkpt lat="43.03628345108169" lon="11.503832724790946"><ele>470.5</ele><time>2026-04-11T12:05:37Z</time></trkpt><trkpt lat="43.03636862222568" lon="11.503856583164065"><ele>472.3333333333333</ele><time>2026-04-11T12:05:39Z</time></trkpt><trkpt lat="43.036446466764644" lon="11.503888129738058"><ele>474.16666666666663</ele><time>2026-04-11T12:05:41Z</time></trkpt><trkpt lat="43.03652651784349" lon="11.503905501165958"><ele>476.0</ele><time>2026-04-11T12:05:43Z</time></trkpt><trkpt lat="43.03660420445652" lon="11.503916178579894"><ele>476.8</ele><time>2026-04-11T12:05:45Z</time></trkpt><trkpt lat="43.03668184980848" lon="11.503943846207882"><ele>477.6</ele><time>2026-04-11T12:05:48Z</time></trkpt><trkpt lat="43.03684979751905" lon="11.503976014192121"><ele>478.4</ele><time>2026-04-11T12:05:53Z</time></trkpt><trkpt lat="43.03693726778391" lon="11.503982257215103"><ele>479.2</ele><time>2026-04-11T12:05:55Z</time></trkpt><trkpt lat="43.037021247443995" lon="11.503967028564936"><ele>480.0</ele><time>2026-04-11T12:05:57Z</time></trkpt><trkpt lat="43.03709596385393" lon="11.503942800321173"><ele>480.0</ele><time>2026-04-11T12:05:59Z</time></trkpt><trkpt lat="43.03717888383144" lon="11.50390558206975"><ele>480.0</ele><time>2026-04-11T12:06:01Z</time></trkpt><trkpt lat="43.03724256044002" lon="11.503860151024355"><ele>480.0</ele><time>2026-04-11T12:06:03Z</time></trkpt><trkpt lat="43.037322291919565" lon="11.50380997523952"><ele>480.0</ele><time>2026-04-11T12:06:05Z</time></trkpt><trkpt lat="43.0373930448841" lon="11.503750272488855"><ele>480.0</ele><time>2026-04-11T12:06:07Z</time></trkpt><trkpt lat="43.037591627731075" lon="11.503637351793332"><ele>478.8333333333333</ele><time>2026-04-11T12:06:11Z</time></trkpt><trkpt lat="43.03772173351268" lon="11.503537174838673"><ele>477.66666666666663</ele><time>2026-04-11T12:06:15Z</time></trkpt><trkpt lat="43.03778587142193" lon="11.503489162990688"><ele>476.5</ele><time>2026-04-11T12:06:17Z</time></trkpt><trkpt lat="43.03784908403001" lon="11.50343873082998"><ele>475.3333333333333</ele><time>2026-04-11T12:06:19Z</time></trkpt><trkpt lat="43.0379058408518" lon="11.503387049873071"><ele>474.16666666666663</ele><time>2026-04-11T12:06:21Z</time></trkpt><trkpt lat="43.037966324905625" lon="11.503337823766316"><ele>473.0</ele><time>2026-04-11T12:06:23Z</time></trkpt><trkpt lat="43.03802360412954" lon="11.503297998444886"><ele>473.0</ele><time>2026-04-11T12:06:25Z</time></trkpt><trkpt lat="43.03808883824102" lon="11.503250864474435"><ele>472.99999999999994</ele><time>2026-04-11T12:06:27Z</time></trkpt><trkpt lat="43.03815563435703" lon="11.503201451844207"><ele>472.99999999999994</ele><time>2026-04-11T12:06:29Z</time></trkpt><trkpt lat="43.03822245456596" lon="11.503149858039045"><ele>473.0</ele><time>2026-04-11T12:06:31Z</time></trkpt><trkpt lat="43.03829278072656" lon="11.50309003331035"><ele>473.0</ele><time>2026-04-11T12:06:33Z</time></trkpt><trkpt lat="43.03847527799472" lon="11.502945419345716"><ele>474.0</ele><time>2026-04-11T12:06:40Z</time></trkpt><trkpt lat="43.03859683548994" lon="11.502864554885363"><ele>474.99999999999994</ele><time>2026-04-11T12:06:41Z</time></trkpt><trkpt lat="43.038671718072116" lon="11.50280390278748"><ele>475.99999999999994</ele><time>2026-04-11T12:06:43Z</time></trkpt><trkpt lat="43.03874987849631" lon="11.502743317979263"><ele>477.0</ele><time>2026-04-11T12:06:45Z</time></trkpt><trkpt lat="43.038833761705746" lon="11.502676865652097"><ele>478.0</ele><time>2026-04-11T12:06:47Z</time></trkpt><trkpt lat="43.03891260544387" lon="11.502609320848297"><ele>478.0</ele><time>2026-04-11T12:06:49Z</time></trkpt><trkpt lat="43.03898766157798" lon="11.502552434786649"><ele>478.0</ele><time>2026-04-11T12:06:51.001Z</time></trkpt><trkpt lat="43.03906978688229" lon="11.502499356185156"><ele>478.0</ele><time>2026-04-11T12:06:53.001Z</time></trkpt><trkpt lat="43.03914244163082" lon="11.502427541723584"><ele>478.0</ele><time>2026-04-11T12:06:55.001Z</time></trkpt><trkpt lat="43.03928048729306" lon="11.50225154894903"><ele>478.33333333333337</ele><time>2026-04-11T12:07:00.001Z</time></trkpt><trkpt lat="43.03933710930765" lon="11.502162902619569"><ele>478.6666666666667</ele><time>2026-04-11T12:07:03.001Z</time></trkpt><trkpt lat="43.039394964061955" lon="11.502079288411382"><ele>479.0</ele><time>2026-04-11T12:07:06.001Z</time></trkpt><trkpt lat="43.03943694723734" lon="11.502011279700124"><ele>479.33333333333337</ele><time>2026-04-11T12:07:07.001Z</time></trkpt><trkpt lat="43.03948122838468" lon="11.50193122228978"><ele>479.6666666666667</ele><time>2026-04-11T12:07:09.001Z</time></trkpt><trkpt lat="43.03952773579084" lon="11.501845460181649"><ele>480.0</ele><time>2026-04-11T12:07:11.001Z</time></trkpt><trkpt lat="43.03957649078141" lon="11.501758265566354"><ele>480.0</ele><time>2026-04-11T12:07:13.001Z</time></trkpt><trkpt lat="43.03962784985422" lon="11.50166438443539"><ele>480.0</ele><time>2026-04-11T12:07:15.001Z</time></trkpt><trkpt lat="43.03967228880674" lon="11.501571952690153"><ele>480.0</ele><time>2026-04-11T12:07:17.001Z</time></trkpt><trkpt lat="43.0397663997364" lon="11.501417811240136"><ele>480.0</ele><time>2026-04-11T12:07:21.001Z</time></trkpt><trkpt lat="43.03981939199684" lon="11.501317370613771"><ele>480.0</ele><time>2026-04-11T12:07:24.001Z</time></trkpt><trkpt lat="43.03986196236293" lon="11.501221072436477"><ele>480.0</ele><time>2026-04-11T12:07:26.001Z</time></trkpt><trkpt lat="43.03989988174605" lon="11.501150388560806"><ele>480.0</ele><time>2026-04-11T12:07:28.001Z</time></trkpt><trkpt lat="43.03993652719707" lon="11.501079059482365"><ele>480.0</ele><time>2026-04-11T12:07:30.001Z</time></trkpt><trkpt lat="43.03997413772701" lon="11.50100651526418"><ele>480.0</ele><time>2026-04-11T12:07:32.001Z</time></trkpt><trkpt lat="43.04009337279228" lon="11.500823973363463"><ele>480.0</ele><time>2026-04-11T12:07:34.001Z</time></trkpt><trkpt lat="43.04013619153837" lon="11.500728337571097"><ele>480.2</ele><time>2026-04-11T12:07:36.001Z</time></trkpt><trkpt lat="43.040185773878555" lon="11.500639251530018"><ele>480.4</ele><time>2026-04-11T12:07:38.001Z</time></trkpt><trkpt lat="43.04028401919467" lon="11.500467623396736"><ele>480.6</ele><time>2026-04-11T12:07:42Z</time></trkpt><trkpt lat="43.04033270883254" lon="11.500379146936911"><ele>480.8</ele><time>2026-04-11T12:07:44Z</time></trkpt><trkpt lat="43.04038295784945" lon="11.500288050187981"><ele>481.0</ele><time>2026-04-11T12:07:46Z</time></trkpt><trkpt lat="43.040426189337964" lon="11.5002042205991"><ele>480.6666666666667</ele><time>2026-04-11T12:07:48Z</time></trkpt><trkpt lat="43.04046768826112" lon="11.500112300639309"><ele>480.33333333333337</ele><time>2026-04-11T12:07:50Z</time></trkpt><trkpt lat="43.04051663630006" lon="11.500027894394535"><ele>480.0</ele><time>2026-04-11T12:07:52Z</time></trkpt><trkpt lat="43.04057775655917" lon="11.499915080665565"><ele>479.66666666666663</ele><time>2026-04-11T12:07:56Z</time></trkpt><trkpt lat="43.04062503022403" lon="11.499812661081684"><ele>479.3333333333333</ele><time>2026-04-11T12:07:58Z</time></trkpt><trkpt lat="43.04067221055912" lon="11.49974352368535"><ele>479.0</ele><time>2026-04-11T12:08:00Z</time></trkpt><trkpt lat="43.04077131878791" lon="11.499550871177364"><ele>479.8333333333333</ele><time>2026-04-11T12:08:05Z</time></trkpt><trkpt lat="43.04081185386868" lon="11.49947299715159"><ele>480.66666666666663</ele><time>2026-04-11T12:08:07Z</time></trkpt><trkpt lat="43.04084759751177" lon="11.499395147730228"><ele>481.5</ele><time>2026-04-11T12:08:08Z</time></trkpt><trkpt lat="43.04089344733362" lon="11.499318563289883"><ele>482.33333333333337</ele><time>2026-04-11T12:08:10Z</time></trkpt><trkpt lat="43.040948492490465" lon="11.499227552209726"><ele>483.1666666666667</ele><time>2026-04-11T12:08:12Z</time></trkpt><trkpt lat="43.04098766136983" lon="11.499152895310242"><ele>484.0</ele><time>2026-04-11T12:08:14Z</time></trkpt><trkpt lat="43.04103984885188" lon="11.499050767001538"><ele>484.0</ele><time>2026-04-11T12:08:16Z</time></trkpt><trkpt lat="43.04108911062802" lon="11.498995144486198"><ele>484.0</ele><time>2026-04-11T12:08:18Z</time></trkpt><trkpt lat="43.04113948247312" lon="11.49888410776292"><ele>484.0</ele><time>2026-04-11T12:08:20Z</time></trkpt><trkpt lat="43.04119674238956" lon="11.498793197567213"><ele>484.0</ele><time>2026-04-11T12:08:22Z</time></trkpt><trkpt lat="43.04128645021522" lon="11.498629165449275"><ele>484.0</ele><time>2026-04-11T12:08:27Z</time></trkpt><trkpt lat="43.041328074943785" lon="11.49852886020146"><ele>484.00000000000006</ele><time>2026-04-11T12:08:29Z</time></trkpt><trkpt lat="43.041385990083114" lon="11.498437139730465"><ele>484.0</ele><time>2026-04-11T12:08:31Z</time></trkpt><trkpt lat="43.041437249126595" lon="11.498339269785872"><ele>484.0</ele><time>2026-04-11T12:08:33Z</time></trkpt><trkpt lat="43.04148057154581" lon="11.498255308757008"><ele>484.0</ele><time>2026-04-11T12:08:35Z</time></trkpt><trkpt lat="43.041543253962665" lon="11.498166494987823"><ele>484.00000000000006</ele><time>2026-04-11T12:08:38Z</time></trkpt><trkpt lat="43.04159980803548" lon="11.498045997027848"><ele>484.0</ele><time>2026-04-11T12:08:41Z</time></trkpt><trkpt lat="43.04168619895308" lon="11.497892686678545"><ele>485.0</ele><time>2026-04-11T12:08:42Z</time></trkpt><trkpt lat="43.04172818042765" lon="11.497806485557376"><ele>486.0</ele><time>2026-04-11T12:08:44.001Z</time></trkpt><trkpt lat="43.041827210033276" lon="11.497647395589405"><ele>487.0</ele><time>2026-04-11T12:08:48.001Z</time></trkpt><trkpt lat="43.041872527890405" lon="11.49756742649145"><ele>488.0</ele><time>2026-04-11T12:08:50.001Z</time></trkpt><trkpt lat="43.0419232686968" lon="11.497492328340918"><ele>489.0</ele><time>2026-04-11T12:08:52.001Z</time></trkpt><trkpt lat="43.04196970752484" lon="11.49741312940948"><ele>489.0</ele><time>2026-04-11T12:08:55.001Z</time></trkpt><trkpt lat="43.04202136743816" lon="11.497349102829984"><ele>489.0</ele><time>2026-04-11T12:08:56.001Z</time></trkpt><trkpt lat="43.04207413186148" lon="11.497286944892467"><ele>489.0</ele><time>2026-04-11T12:08:58.001Z</time></trkpt><trkpt lat="43.042132235511296" lon="11.49723064581412"><ele>489.0</ele><time>2026-04-11T12:09:00.001Z</time></trkpt><trkpt lat="43.04218419609541" lon="11.497180389617746"><ele>489.0</ele><time>2026-04-11T12:09:02.001Z</time></trkpt><trkpt lat="43.0422493152687" lon="11.497137797048879"><ele>489.0</ele><time>2026-04-11T12:09:05.001Z</time></trkpt><trkpt lat="43.042362008911134" lon="11.49704371286041"><ele>489.6666666666667</ele><time>2026-04-11T12:09:11.001Z</time></trkpt><trkpt lat="43.0424299008955" lon="11.496996831385239"><ele>490.33333333333337</ele><time>2026-04-11T12:09:14.001Z</time></trkpt><trkpt lat="43.04250547541264" lon="11.496963473047163"><ele>491.0</ele><time>2026-04-11T12:09:17.001Z</time></trkpt><trkpt lat="43.04258681598848" lon="11.496926881540622"><ele>491.6666666666667</ele><time>2026-04-11T12:09:19.001Z</time></trkpt><trkpt lat="43.04265128815154" lon="11.496895893703558"><ele>492.33333333333337</ele><time>2026-04-11T12:09:21.001Z</time></trkpt><trkpt lat="43.042720778188425" lon="11.496867243705568"><ele>493.0</ele><time>2026-04-11T12:09:23.001Z</time></trkpt><trkpt lat="43.042783759194414" lon="11.496811320391945"><ele>493.79999999999995</ele><time>2026-04-11T12:09:26.001Z</time></trkpt><trkpt lat="43.04292305084674" lon="11.496745523863199"><ele>494.59999999999997</ele><time>2026-04-11T12:09:31.001Z</time></trkpt><trkpt lat="43.043009565272705" lon="11.496703457881448"><ele>495.40000000000003</ele><time>2026-04-11T12:09:34.001Z</time></trkpt><trkpt lat="43.04310023959278" lon="11.496674771054343"><ele>496.20000000000005</ele><time>2026-04-11T12:09:37.001Z</time></trkpt><trkpt lat="43.043169982901" lon="11.496660450433254"><ele>497.0</ele><time>2026-04-11T12:09:39.001Z</time></trkpt><trkpt lat="43.043241866661305" lon="11.496607586483039"><ele>498.0</ele><time>2026-04-11T12:09:42.001Z</time></trkpt><trkpt lat="43.043330867893225" lon="11.49659788563439"><ele>499.0</ele><time>2026-04-11T12:09:45Z</time></trkpt><trkpt lat="43.04342159384203" lon="11.496583156475083"><ele>500.0</ele><time>2026-04-11T12:09:47Z</time></trkpt><trkpt lat="43.04360891540699" lon="11.496544872173876"><ele>501.0</ele><time>2026-04-11T12:09:51Z</time></trkpt><trkpt lat="43.04370256915247" lon="11.496529644713092"><ele>501.0</ele><time>2026-04-11T12:09:53Z</time></trkpt><trkpt lat="43.043795867175376" lon="11.496509156435055"><ele>501.0</ele><time>2026-04-11T12:09:55Z</time></trkpt><trkpt lat="43.04389291214777" lon="11.496497528517775"><ele>501.0</ele><time>2026-04-11T12:09:57Z</time></trkpt><trkpt lat="43.0439825451063" lon="11.496480395860187"><ele>501.0</ele><time>2026-04-11T12:09:59Z</time></trkpt><trkpt lat="43.0440719080852" lon="11.496465145442038"><ele>501.0</ele><time>2026-04-11T12:10:01Z</time></trkpt><trkpt lat="43.04415636948592" lon="11.496456477915592"><ele>500.3333333333333</ele><time>2026-04-11T12:10:03Z</time></trkpt><trkpt lat="43.04422937863084" lon="11.496448701142985"><ele>499.66666666666663</ele><time>2026-04-11T12:10:06Z</time></trkpt><trkpt lat="43.044294107788886" lon="11.496440416117059"><ele>499.0</ele><time>2026-04-11T12:10:08Z</time></trkpt><trkpt lat="43.04443873020548" lon="11.49641874532002"><ele>498.3333333333333</ele><time>2026-04-11T12:10:11Z</time></trkpt><trkpt lat="43.04452183815284" lon="11.49641802368311"><ele>497.66666666666663</ele><time>2026-04-11T12:10:13Z</time></trkpt><trkpt lat="43.04458814244906" lon="11.496415217053995"><ele>497.0</ele><time>2026-04-11T12:10:15Z</time></trkpt><trkpt lat="43.04467958380162" lon="11.496401033819971"><ele>496.99999999999994</ele><time>2026-04-11T12:10:18Z</time></trkpt><trkpt lat="43.04477053321036" lon="11.496384189813103"><ele>497.0</ele><time>2026-04-11T12:10:21Z</time></trkpt><trkpt lat="43.0448516225003" lon="11.496368873994362"><ele>497.0</ele><time>2026-04-11T12:10:23Z</time></trkpt><trkpt lat="43.044935695702584" lon="11.496347461675603"><ele>497.0</ele><time>2026-04-11T12:10:26Z</time></trkpt><trkpt lat="43.04502667523421" lon="11.496334580848947"><ele>496.99999999999994</ele><time>2026-04-11T12:10:28Z</time></trkpt><trkpt lat="43.04511232755363" lon="11.496321959974285"><ele>497.0</ele><time>2026-04-11T12:10:30Z</time></trkpt><trkpt lat="43.04527227587969" lon="11.496301253985562"><ele>497.1428571428571</ele><time>2026-04-11T12:10:34Z</time></trkpt><trkpt lat="43.04535331416081" lon="11.496285671871586"><ele>497.2857142857143</ele><time>2026-04-11T12:10:36Z</time></trkpt><trkpt lat="43.04543184851901" lon="11.496284137942174"><ele>497.42857142857144</ele><time>2026-04-11T12:10:38Z</time></trkpt><trkpt lat="43.045505317409535" lon="11.496270594946589"><ele>497.57142857142856</ele><time>2026-04-11T12:10:40Z</time></trkpt><trkpt lat="43.04557371405615" lon="11.496249579431515"><ele>497.71428571428567</ele><time>2026-04-11T12:10:42Z</time></trkpt><trkpt lat="43.045645350840914" lon="11.4962459736164"><ele>497.85714285714283</ele><time>2026-04-11T12:10:44Z</time></trkpt><trkpt lat="43.045715406480376" lon="11.496241720736606"><ele>498.0</ele><time>2026-04-11T12:10:46.001Z</time></trkpt><trkpt lat="43.04577940286689" lon="11.496227741121439"><ele>500.59999999999997</ele><time>2026-04-11T12:10:48.001Z</time></trkpt><trkpt lat="43.04584962998527" lon="11.496218481601398"><ele>503.19999999999993</ele><time>2026-04-11T12:10:50.001Z</time></trkpt><trkpt lat="43.04592122180111" lon="11.496215660830888"><ele>505.8</ele><time>2026-04-11T12:10:52.001Z</time></trkpt><trkpt lat="43.046075608486824" lon="11.496191793593333"><ele>508.4</ele><time>2026-04-11T12:10:58.001Z</time></trkpt><trkpt lat="43.046175263414185" lon="11.496176046934323"><ele>511.0</ele><time>2026-04-11T12:11:01.001Z</time></trkpt><trkpt lat="43.04625388742175" lon="11.496164341897948"><ele>511.0</ele><time>2026-04-11T12:11:04.001Z</time></trkpt><trkpt lat="43.046346022523565" lon="11.496155205787295"><ele>511.0</ele><time>2026-04-11T12:11:07.001Z</time></trkpt><trkpt lat="43.04643057989052" lon="11.49614307561223"><ele>511.0</ele><time>2026-04-11T12:11:10.001Z</time></trkpt><trkpt lat="43.04649881520873" lon="11.496134470726394"><ele>511.0</ele><time>2026-04-11T12:11:12.001Z</time></trkpt><trkpt lat="43.04658774075604" lon="11.496125915904194"><ele>511.0</ele><time>2026-04-11T12:11:15.001Z</time></trkpt><trkpt lat="43.04672757795123" lon="11.496100179474807"><ele>511.57142857142856</ele><time>2026-04-11T12:11:20.001Z</time></trkpt><trkpt lat="43.046803666765236" lon="11.496084193661046"><ele>512.1428571428571</ele><time>2026-04-11T12:11:23.001Z</time></trkpt><trkpt lat="43.04686903039391" lon="11.496058435492053"><ele>512.7142857142858</ele><time>2026-04-11T12:11:25.001Z</time></trkpt><trkpt lat="43.04693679960263" lon="11.496016787523079"><ele>513.2857142857142</ele><time>2026-04-11T12:11:28.001Z</time></trkpt><trkpt lat="43.04700229681677" lon="11.495973627751727"><ele>513.8571428571429</ele><time>2026-04-11T12:11:31.001Z</time></trkpt><trkpt lat="43.04706632076867" lon="11.495917278717487"><ele>514.4285714285714</ele><time>2026-04-11T12:11:34.001Z</time></trkpt><trkpt lat="43.04712386491982" lon="11.495845303426291"><ele>515.0</ele><time>2026-04-11T12:11:37.001Z</time></trkpt><trkpt lat="43.04723340644165" lon="11.495651215955483"><ele>515.0</ele><time>2026-04-11T12:11:43.001Z</time></trkpt><trkpt lat="43.04727270045469" lon="11.495563306735159"><ele>515.0</ele><time>2026-04-11T12:11:46.001Z</time></trkpt><trkpt lat="43.04731445128417" lon="11.49547554827273"><ele>515.0</ele><time>2026-04-11T12:11:48.001Z</time></trkpt><trkpt lat="43.04734860830596" lon="11.495377347185116"><ele>515.0</ele><time>2026-04-11T12:11:51Z</time></trkpt><trkpt lat="43.047396595960116" lon="11.495273663148607"><ele>515.0</ele><time>2026-04-11T12:11:53Z</time></trkpt><trkpt lat="43.047426997232115" lon="11.495193763455497"><ele>515.0</ele><time>2026-04-11T12:11:55Z</time></trkpt><trkpt lat="43.04746448572632" lon="11.495115268390906"><ele>515.8</ele><time>2026-04-11T12:11:57Z</time></trkpt><trkpt lat="43.047496205104956" lon="11.49502230252626"><ele>516.6</ele><time>2026-04-11T12:12:00Z</time></trkpt><trkpt lat="43.0475676344862" lon="11.494807608706935"><ele>517.4</ele><time>2026-04-11T12:12:06Z</time></trkpt><trkpt lat="43.04760369918864" lon="11.494721189779316"><ele>518.2</ele><time>2026-04-11T12:12:08Z</time></trkpt><trkpt lat="43.04763757831878" lon="11.494626826619562"><ele>519.0</ele><time>2026-04-11T12:12:11Z</time></trkpt><trkpt lat="43.04767070880918" lon="11.494533406492602"><ele>521.4</ele><time>2026-04-11T12:12:13Z</time></trkpt><trkpt lat="43.047716012375325" lon="11.49442526516556"><ele>523.8</ele><time>2026-04-11T12:12:16Z</time></trkpt><trkpt lat="43.0477525505449" lon="11.494336723472792"><ele>526.2</ele><time>2026-04-11T12:12:17Z</time></trkpt><trkpt lat="43.04778855309444" lon="11.49424747804813"><ele>528.6</ele><time>2026-04-11T12:12:19Z</time></trkpt><trkpt lat="43.047818737681546" lon="11.49414675105377"><ele>531.0</ele><time>2026-04-11T12:12:21Z</time></trkpt><trkpt lat="43.04789890543486" lon="11.49394076263276"><ele>531.0</ele><time>2026-04-11T12:12:25Z</time></trkpt><trkpt lat="43.047938601378846" lon="11.49383406034559"><ele>531.0</ele><time>2026-04-11T12:12:27Z</time></trkpt><trkpt lat="43.0479823369885" lon="11.493727424558973"><ele>531.0</ele><time>2026-04-11T12:12:30Z</time></trkpt><trkpt lat="43.04805186720561" lon="11.493645466518247"><ele>531.0</ele><time>2026-04-11T12:12:32Z</time></trkpt><trkpt lat="43.04814308212179" lon="11.49358534627278"><ele>531.0</ele><time>2026-04-11T12:12:34Z</time></trkpt><trkpt lat="43.04824021179446" lon="11.493605358025492"><ele>531.0</ele><time>2026-04-11T12:12:36Z</time></trkpt><trkpt lat="43.04832235332754" lon="11.493697139177728"><ele>531.0</ele><time>2026-04-11T12:12:38Z</time></trkpt><trkpt lat="43.048359072242334" lon="11.493835590197628"><ele>531.0</ele><time>2026-04-11T12:12:40Z</time></trkpt><trkpt lat="43.04835184237659" lon="11.493982044123953"><ele>531.0</ele><time>2026-04-11T12:12:42Z</time></trkpt><trkpt lat="43.048273857179815" lon="11.494252481626901"><ele>531.0</ele><time>2026-04-11T12:12:46Z</time></trkpt><trkpt lat="43.048250676245104" lon="11.494402575665148"><ele>531.0</ele><time>2026-04-11T12:12:48Z</time></trkpt><trkpt lat="43.04824008943606" lon="11.494556833063301"><ele>531.0</ele><time>2026-04-11T12:12:50Z</time></trkpt><trkpt lat="43.048248631970786" lon="11.494705703090839"><ele>531.0</ele><time>2026-04-11T12:12:52Z</time></trkpt><trkpt lat="43.04826091075422" lon="11.494838945526965"><ele>531.0</ele><time>2026-04-11T12:12:54.001Z</time></trkpt><trkpt lat="43.04827804708994" lon="11.494960108068575"><ele>528.75</ele><time>2026-04-11T12:12:56.001Z</time></trkpt><trkpt lat="43.04833718637263" lon="11.495083950585308"><ele>526.5</ele><time>2026-04-11T12:12:59.001Z</time></trkpt><trkpt lat="43.048402761718066" lon="11.495175368389546"><ele>524.25</ele><time>2026-04-11T12:13:01.001Z</time></trkpt><trkpt lat="43.048483324025284" lon="11.495277471383384"><ele>522.0</ele><time>2026-04-11T12:13:04.001Z</time></trkpt><trkpt lat="43.04860100315472" lon="11.495428914261794"><ele>520.6666666666666</ele><time>2026-04-11T12:13:08.001Z</time></trkpt><trkpt lat="43.04864700194217" lon="11.495536099424356"><ele>519.3333333333334</ele><time>2026-04-11T12:13:10.001Z</time></trkpt><trkpt lat="43.04869341871813" lon="11.49562888345"><ele>518.0</ele><time>2026-04-11T12:13:12.001Z</time></trkpt><trkpt lat="43.04873134041247" lon="11.49572346002499"><ele>516.6666666666667</ele><time>2026-04-11T12:13:14.001Z</time></trkpt><trkpt lat="43.048765664415015" lon="11.49581671120273"><ele>515.3333333333334</ele><time>2026-04-11T12:13:16.001Z</time></trkpt><trkpt lat="43.048801402408564" lon="11.495903585968746"><ele>514.0</ele><time>2026-04-11T12:13:18.001Z</time></trkpt><trkpt lat="43.04884302080944" lon="11.49598859850312"><ele>514.0</ele><time>2026-04-11T12:13:20.001Z</time></trkpt><trkpt lat="43.04889251342235" lon="11.49606485783257"><ele>514.0</ele><time>2026-04-11T12:13:22.001Z</time></trkpt><trkpt lat="43.04895279621409" lon="11.49612835160744"><ele>514.0</ele><time>2026-04-11T12:13:24.001Z</time></trkpt><trkpt lat="43.04901091474278" lon="11.496193003271785"><ele>514.0</ele><time>2026-04-11T12:13:26.001Z</time></trkpt><trkpt lat="43.04913963667674" lon="11.496293464728497"><ele>514.0</ele><time>2026-04-11T12:13:30.001Z</time></trkpt><trkpt lat="43.04920238250235" lon="11.49634600313166"><ele>514.0</ele><time>2026-04-11T12:13:32.001Z</time></trkpt><trkpt lat="43.04926440299763" lon="11.496393509355643"><ele>515.0</ele><time>2026-04-11T12:13:34.001Z</time></trkpt><trkpt lat="43.04932374984556" lon="11.496439587167337"><ele>516.0</ele><time>2026-04-11T12:13:36.001Z</time></trkpt><trkpt lat="43.04938354956211" lon="11.496490622316053"><ele>517.0</ele><time>2026-04-11T12:13:38.001Z</time></trkpt><trkpt lat="43.04944440452496" lon="11.496539747320533"><ele>518.0</ele><time>2026-04-11T12:13:40.001Z</time></trkpt><trkpt lat="43.04951758057803" lon="11.496598288417012"><ele>519.0</ele><time>2026-04-11T12:13:44.001Z</time></trkpt><trkpt lat="43.049594495061385" lon="11.496656766245614"><ele>520.0</ele><time>2026-04-11T12:13:47.001Z</time></trkpt><trkpt lat="43.04976514375951" lon="11.496791169389937"><ele>520.0000000000001</ele><time>2026-04-11T12:13:53.001Z</time></trkpt><trkpt lat="43.049837930097574" lon="11.496845687797306"><ele>520.0</ele><time>2026-04-11T12:13:56.001Z</time></trkpt><trkpt lat="43.0499062888278" lon="11.496902456160006"><ele>520.0</ele><time>2026-04-11T12:13:58Z</time></trkpt><trkpt lat="43.049974540055736" lon="11.496948342531132"><ele>520.0</ele><time>2026-04-11T12:14:01Z</time></trkpt><trkpt lat="43.05003468167794" lon="11.496993871547428"><ele>520.0</ele><time>2026-04-11T12:14:03Z</time></trkpt><trkpt lat="43.05009458239302" lon="11.497037386495224"><ele>520.0000000000001</ele><time>2026-04-11T12:14:06Z</time></trkpt><trkpt lat="43.05015726160799" lon="11.49707219307868"><ele>520.0</ele><time>2026-04-11T12:14:08Z</time></trkpt><trkpt lat="43.05029422406145" lon="11.497114777455815"><ele>521.0</ele><time>2026-04-11T12:14:14Z</time></trkpt><trkpt lat="43.05040630511979" lon="11.497096222501314"><ele>522.0</ele><time>2026-04-11T12:14:17Z</time></trkpt><trkpt lat="43.050473133191325" lon="11.497066274868649"><ele>523.0</ele><time>2026-04-11T12:14:19Z</time></trkpt><trkpt lat="43.050534647654295" lon="11.497007746012452"><ele>524.0</ele><time>2026-04-11T12:14:21Z</time></trkpt><trkpt lat="43.05059206036047" lon="11.496943439898772"><ele>525.0</ele><time>2026-04-11T12:14:23Z</time></trkpt><trkpt lat="43.05064379733691" lon="11.496869845443815"><ele>526.0</ele><time>2026-04-11T12:14:25Z</time></trkpt><trkpt lat="43.05070678849397" lon="11.49680918373278"><ele>527.2</ele><time>2026-04-11T12:14:27Z</time></trkpt><trkpt lat="43.05074686963282" lon="11.496725928668896"><ele>528.4000000000001</ele><time>2026-04-11T12:14:29Z</time></trkpt><trkpt lat="43.050819454206035" lon="11.496523563055215"><ele>529.6</ele><time>2026-04-11T12:14:34Z</time></trkpt><trkpt lat="43.050844181336416" lon="11.496442801292943"><ele>530.8000000000001</ele><time>2026-04-11T12:14:36Z</time></trkpt><trkpt lat="43.05087877945114" lon="11.496345293854901"><ele>532.0</ele><time>2026-04-11T12:14:39Z</time></trkpt><trkpt lat="43.05091044800535" lon="11.496259864778366"><ele>534.0</ele><time>2026-04-11T12:14:41Z</time></trkpt><trkpt lat="43.050944879899745" lon="11.496156949866384"><ele>536.0</ele><time>2026-04-11T12:14:43Z</time></trkpt><trkpt lat="43.050971794648596" lon="11.496050314588421"><ele>538.0</ele><time>2026-04-11T12:14:45Z</time></trkpt><trkpt lat="43.050991371551" lon="11.495957968123877"><ele>540.0</ele><time>2026-04-11T12:14:48Z</time></trkpt><trkpt lat="43.051012952130385" lon="11.495843639508207"><ele>542.0</ele><time>2026-04-11T12:14:51Z</time></trkpt><trkpt lat="43.051032297035704" lon="11.495631260071567"><ele>542.0</ele><time>2026-04-11T12:14:56Z</time></trkpt><trkpt lat="43.051032190494794" lon="11.495538596550064"><ele>542.0</ele><time>2026-04-11T12:14:58Z</time></trkpt><trkpt lat="43.05103500483931" lon="11.49541068522953"><ele>542.0</ele><time>2026-04-11T12:15:01.001Z</time></trkpt><trkpt lat="43.05104160961572" lon="11.495285823003064"><ele>542.0</ele><time>2026-04-11T12:15:03.001Z</time></trkpt><trkpt lat="43.051040536817524" lon="11.495193702163585"><ele>542.0</ele><time>2026-04-11T12:15:05.001Z</time></trkpt><trkpt lat="43.051050822935736" lon="11.495102981871048"><ele>542.0</ele><time>2026-04-11T12:15:07.001Z</time></trkpt><trkpt lat="43.051055820859425" lon="11.495012205757472"><ele>543.0</ele><time>2026-04-11T12:15:09.001Z</time></trkpt><trkpt lat="43.05107094432425" lon="11.494891894851955"><ele>544.0</ele><time>2026-04-11T12:15:13.001Z</time></trkpt><trkpt lat="43.051112933879786" lon="11.494669616778312"><ele>545.0</ele><time>2026-04-11T12:15:19.001Z</time></trkpt><trkpt lat="43.051130439894045" lon="11.494584711730452"><ele>546.0</ele><time>2026-04-11T12:15:21.001Z</time></trkpt><trkpt lat="43.05115122922872" lon="11.49445743632147"><ele>547.0</ele><time>2026-04-11T12:15:24.001Z</time></trkpt><trkpt lat="43.051168393778944" lon="11.494371490474272"><ele>548.8333333333334</ele><time>2026-04-11T12:15:26.001Z</time></trkpt><trkpt lat="43.05118598977168" lon="11.49428438524035"><ele>550.6666666666667</ele><time>2026-04-11T12:15:28.001Z</time></trkpt><trkpt lat="43.05119783062312" lon="11.494189942570953"><ele>552.5</ele><time>2026-04-11T12:15:30.001Z</time></trkpt><trkpt lat="43.05121081285028" lon="11.494100947294365"><ele>554.3333333333334</ele><time>2026-04-11T12:15:32.001Z</time></trkpt><trkpt lat="43.05122874937519" lon="11.494013569298515"><ele>556.1666666666666</ele><time>2026-04-11T12:15:34.001Z</time></trkpt><trkpt lat="43.05125722389524" lon="11.49384337261883"><ele>558.0</ele><time>2026-04-11T12:15:38.001Z</time></trkpt><trkpt lat="43.05127185987016" lon="11.49375675193255"><ele>558.5714285714286</ele><time>2026-04-11T12:15:40.001Z</time></trkpt><trkpt lat="43.05129143307875" lon="11.493632541655193"><ele>559.1428571428571</ele><time>2026-04-11T12:15:43.001Z</time></trkpt><trkpt lat="43.05130277380421" lon="11.493546473748795"><ele>559.7142857142858</ele><time>2026-04-11T12:15:45.001Z</time></trkpt><trkpt lat="43.051309327271206" lon="11.493460487506592"><ele>560.2857142857142</ele><time>2026-04-11T12:15:47.001Z</time></trkpt><trkpt lat="43.05131959357658" lon="11.493373339220671"><ele>560.8571428571429</ele><time>2026-04-11T12:15:49.001Z</time></trkpt><trkpt lat="43.0513312882669" lon="11.493287926672702"><ele>561.4285714285714</ele><time>2026-04-11T12:15:51.001Z</time></trkpt><trkpt lat="43.05133171934197" lon="11.493197758834496"><ele>562.0</ele><time>2026-04-11T12:15:53.001Z</time></trkpt><trkpt lat="43.0513289993489" lon="11.493072396165536"><ele>563.2</ele><time>2026-04-11T12:15:56.001Z</time></trkpt><trkpt lat="43.051316056636935" lon="11.492830989607743"><ele>564.4000000000001</ele><time>2026-04-11T12:16:02.001Z</time></trkpt><trkpt lat="43.05131082182258" lon="11.49271448547039"><ele>565.5999999999999</ele><time>2026-04-11T12:16:05Z</time></trkpt><trkpt lat="43.05130896865137" lon="11.492607358691254"><ele>566.8</ele><time>2026-04-11T12:16:08Z</time></trkpt><trkpt lat="43.051313517110984" lon="11.492493198559659"><ele>568.0</ele><time>2026-04-11T12:16:11Z</time></trkpt><trkpt lat="43.0513061155455" lon="11.49238378554107"><ele>568.0</ele><time>2026-04-11T12:16:14Z</time></trkpt><trkpt lat="43.05130722917196" lon="11.492261529225733"><ele>568.0</ele><time>2026-04-11T12:16:17Z</time></trkpt><trkpt lat="43.05131519159264" lon="11.492013230076385"><ele>568.0</ele><time>2026-04-11T12:16:23Z</time></trkpt><trkpt lat="43.05132042992209" lon="11.491925775729685"><ele>568.0</ele><time>2026-04-11T12:16:24Z</time></trkpt><trkpt lat="43.05136108861495" lon="11.491829971833905"><ele>568.0</ele><time>2026-04-11T12:16:26Z</time></trkpt><trkpt lat="43.051436667423765" lon="11.491757078214926"><ele>568.4</ele><time>2026-04-11T12:16:28Z</time></trkpt><trkpt lat="43.051535814753564" lon="11.491751754405719"><ele>568.8</ele><time>2026-04-11T12:16:30Z</time></trkpt><trkpt lat="43.05162194873244" lon="11.491840181090957"><ele>569.2</ele><time>2026-04-11T12:16:32Z</time></trkpt><trkpt lat="43.05166864779298" lon="11.49196942296512"><ele>569.6</ele><time>2026-04-11T12:16:34Z</time></trkpt><trkpt lat="43.05171887259712" lon="11.492091844094517"><ele>570.0</ele><time>2026-04-11T12:16:36Z</time></trkpt><trkpt lat="43.051772123641115" lon="11.492213009576009"><ele>564.0</ele><time>2026-04-11T12:16:38Z</time></trkpt><trkpt lat="43.05193743256728" lon="11.492403862577017"><ele>558.0</ele><time>2026-04-11T12:16:42Z</time></trkpt><trkpt lat="43.052020211886585" lon="11.492492225903485"><ele>552.0</ele><time>2026-04-11T12:16:44Z</time></trkpt><trkpt lat="43.052113360816044" lon="11.492544162230491"><ele>546.0</ele><time>2026-04-11T12:16:46Z</time></trkpt><trkpt lat="43.05222336707126" lon="11.49254464984446"><ele>546.0</ele><time>2026-04-11T12:16:48Z</time></trkpt><trkpt lat="43.05231803811241" lon="11.492463876030625"><ele>546.0</ele><time>2026-04-11T12:16:50Z</time></trkpt><trkpt lat="43.05235866079226" lon="11.49233770416659"><ele>546.0</ele><time>2026-04-11T12:16:52Z</time></trkpt><trkpt lat="43.05241253727997" lon="11.492215405065114"><ele>546.0</ele><time>2026-04-11T12:16:54Z</time></trkpt><trkpt lat="43.052448493598284" lon="11.492086694201914"><ele>546.0</ele><time>2026-04-11T12:16:56Z</time></trkpt><trkpt lat="43.05250580868417" lon="11.49196567109626"><ele>549.6666666666666</ele><time>2026-04-11T12:16:58Z</time></trkpt><trkpt lat="43.052590041971115" lon="11.491845065122925"><ele>553.3333333333333</ele><time>2026-04-11T12:17:00Z</time></trkpt><trkpt lat="43.05280947969454" lon="11.49176945295878"><ele>557.0</ele><time>2026-04-11T12:17:04Z</time></trkpt><trkpt lat="43.05292952655908" lon="11.491812464271552"><ele>557.0</ele><time>2026-04-11T12:17:06Z</time></trkpt><trkpt lat="43.05304250609625" lon="11.491863291269793"><ele>557.0</ele><time>2026-04-11T12:17:08Z</time></trkpt><trkpt lat="43.05314417532343" lon="11.491941728093709"><ele>557.0</ele><time>2026-04-11T12:17:10.001Z</time></trkpt><trkpt lat="43.053207621387706" lon="11.491952975331118"><ele>557.0</ele><time>2026-04-11T12:17:11.001Z</time></trkpt><trkpt lat="43.05332044002014" lon="11.492008127280714"><ele>557.0</ele><time>2026-04-11T12:17:13.001Z</time></trkpt><trkpt lat="43.05343036110799" lon="11.492045303991876"><ele>555.25</ele><time>2026-04-11T12:17:15.001Z</time></trkpt><trkpt lat="43.05353827333633" lon="11.49203620878345"><ele>553.5</ele><time>2026-04-11T12:17:17.001Z</time></trkpt><trkpt lat="43.05364158729102" lon="11.49199195376101"><ele>551.75</ele><time>2026-04-11T12:17:19.001Z</time></trkpt><trkpt lat="43.05370667268193" lon="11.491917772366328"><ele>550.0</ele><time>2026-04-11T12:17:21.001Z</time></trkpt><trkpt lat="43.053771265446876" lon="11.49167970041572"><ele>550.0</ele><time>2026-04-11T12:17:25.001Z</time></trkpt><trkpt lat="43.05377145313523" lon="11.491539866310264"><ele>550.0</ele><time>2026-04-11T12:17:27.001Z</time></trkpt><trkpt lat="43.05377683873046" lon="11.491395580945337"><ele>550.0</ele><time>2026-04-11T12:17:29.001Z</time></trkpt><trkpt lat="43.05377245249337" lon="11.491244103280403"><ele>550.0</ele><time>2026-04-11T12:17:31.001Z</time></trkpt><trkpt lat="43.053778550559485" lon="11.491088901107958"><ele>550.0</ele><time>2026-04-11T12:17:33.001Z</time></trkpt><trkpt lat="43.05378113407662" lon="11.490931862037412"><ele>552.6</ele><time>2026-04-11T12:17:35.001Z</time></trkpt><trkpt lat="43.05378511984079" lon="11.490780874729811"><ele>555.2</ele><time>2026-04-11T12:17:37.001Z</time></trkpt><trkpt lat="43.05378160583713" lon="11.490628456746665"><ele>557.8</ele><time>2026-04-11T12:17:39.001Z</time></trkpt><trkpt lat="43.053795098397714" lon="11.490476686130421"><ele>560.4</ele><time>2026-04-11T12:17:41.001Z</time></trkpt><trkpt lat="43.053778030390966" lon="11.490322739471685"><ele>563.0</ele><time>2026-04-11T12:17:43.001Z</time></trkpt><trkpt lat="43.05379384617934" lon="11.490023942661217"><ele>563.4</ele><time>2026-04-11T12:17:47.001Z</time></trkpt><trkpt lat="43.05378925339967" lon="11.489877578543735"><ele>563.8</ele><time>2026-04-11T12:17:49.001Z</time></trkpt><trkpt lat="43.053797466122454" lon="11.489749669057609"><ele>564.2</ele><time>2026-04-11T12:17:51.001Z</time></trkpt><trkpt lat="43.05380951038192" lon="11.489609228618901"><ele>564.6</ele><time>2026-04-11T12:17:53.001Z</time></trkpt><trkpt lat="43.05382711801133" lon="11.489477488085326"><ele>565.0</ele><time>2026-04-11T12:17:55.001Z</time></trkpt><trkpt lat="43.053895312494554" lon="11.489407475378094"><ele>565.8</ele><time>2026-04-11T12:17:57.001Z</time></trkpt><trkpt lat="43.05398904889822" lon="11.489309976709086"><ele>566.6</ele><time>2026-04-11T12:17:59.001Z</time></trkpt><trkpt lat="43.054074666482435" lon="11.489264236751293"><ele>567.4</ele><time>2026-04-11T12:18:01.001Z</time></trkpt><trkpt lat="43.05416812883325" lon="11.489233522361948"><ele>568.2</ele><time>2026-04-11T12:18:03.001Z</time></trkpt><trkpt lat="43.05424736771569" lon="11.489218665683829"><ele>569.0</ele><time>2026-04-11T12:18:05.001Z</time></trkpt><trkpt lat="43.054409403626416" lon="11.489222223201859"><ele>566.6666666666666</ele><time>2026-04-11T12:18:10Z</time></trkpt><trkpt lat="43.054484814174586" lon="11.489201746156517"><ele>564.3333333333333</ele><time>2026-04-11T12:18:13Z</time></trkpt><trkpt lat="43.05456941723587" lon="11.48919870453596"><ele>562.0</ele><time>2026-04-11T12:18:16Z</time></trkpt><trkpt lat="43.05464097107369" lon="11.48919578709907"><ele>559.6666666666666</ele><time>2026-04-11T12:18:18Z</time></trkpt><trkpt lat="43.05471541275688" lon="11.48917946922358"><ele>557.3333333333334</ele><time>2026-04-11T12:18:20Z</time></trkpt><trkpt lat="43.05478999808079" lon="11.489185881888478"><ele>555.0</ele><time>2026-04-11T12:18:22Z</time></trkpt><trkpt lat="43.054894580212604" lon="11.489164568573086"><ele>554.6</ele><time>2026-04-11T12:18:25Z</time></trkpt><trkpt lat="43.05497039388367" lon="11.489160004561223"><ele>554.2</ele><time>2026-04-11T12:18:27Z</time></trkpt><trkpt lat="43.05512755043907" lon="11.48914060637155"><ele>553.8</ele><time>2026-04-11T12:18:33Z</time></trkpt><trkpt lat="43.05520068002939" lon="11.48913183906942"><ele>553.4</ele><time>2026-04-11T12:18:35Z</time></trkpt><trkpt lat="43.05527898495166" lon="11.489124590138822"><ele>553.0</ele><time>2026-04-11T12:18:37Z</time></trkpt><trkpt lat="43.05535521409459" lon="11.489132990928036"><ele>553.0</ele><time>2026-04-11T12:18:39Z</time></trkpt><trkpt lat="43.05541973219386" lon="11.489100459527084"><ele>553.0</ele><time>2026-04-11T12:18:45Z</time></trkpt><trkpt lat="43.055500380042574" lon="11.489054876434631"><ele>553.0</ele><time>2026-04-11T12:18:49Z</time></trkpt><trkpt lat="43.05566319690858" lon="11.488988258688286"><ele>553.0</ele><time>2026-04-11T12:18:53Z</time></trkpt><trkpt lat="43.055762856608354" lon="11.488987647895126"><ele>553.0</ele><time>2026-04-11T12:18:55Z</time></trkpt><trkpt lat="43.05583691783521" lon="11.489039354045344"><ele>552.1999999999999</ele><time>2026-04-11T12:18:57Z</time></trkpt><trkpt lat="43.05589015519164" lon="11.489118597207899"><ele>551.4</ele><time>2026-04-11T12:19:00Z</time></trkpt><trkpt lat="43.055944083790685" lon="11.489170660838841"><ele>550.5999999999999</ele><time>2026-04-11T12:19:03Z</time></trkpt><trkpt lat="43.05600431064246" lon="11.489216027007386"><ele>549.8</ele><time>2026-04-11T12:19:06Z</time></trkpt><trkpt lat="43.05607159561802" lon="11.489271451784887"><ele>549.0</ele><time>2026-04-11T12:19:10Z</time></trkpt><trkpt lat="43.0562147062006" lon="11.489375476579253"><ele>549.0</ele><time>2026-04-11T12:19:19Z</time></trkpt><trkpt lat="43.056270327418986" lon="11.489423165259744"><ele>549.0</ele><time>2026-04-11T12:19:21Z</time></trkpt><trkpt lat="43.05633674317957" lon="11.489473197997025"><ele>549.0</ele><time>2026-04-11T12:19:24Z</time></trkpt><trkpt lat="43.05640175072082" lon="11.4894906831722"><ele>549.0</ele><time>2026-04-11T12:19:27.001Z</time></trkpt><trkpt lat="43.05645194171184" lon="11.489418262303989"><ele>549.0</ele><time>2026-04-11T12:19:30.001Z</time></trkpt><trkpt lat="43.056510935970195" lon="11.489371806959317"><ele>549.0</ele><time>2026-04-11T12:19:32.001Z</time></trkpt><trkpt lat="43.0567226015696" lon="11.489322210298122"><ele>549.1666666666666</ele><time>2026-04-11T12:19:36.001Z</time></trkpt><trkpt lat="43.056786068047224" lon="11.489307812400718"><ele>549.3333333333334</ele><time>2026-04-11T12:19:37.001Z</time></trkpt><trkpt lat="43.056894191791386" lon="11.489273915920256"><ele>549.5</ele><time>2026-04-11T12:19:39.001Z</time></trkpt><trkpt lat="43.05698615616963" lon="11.489250698864362"><ele>549.6666666666667</ele><time>2026-04-11T12:19:41.001Z</time></trkpt><trkpt lat="43.057052000717576" lon="11.489194873425859"><ele>549.8333333333334</ele><time>2026-04-11T12:19:43.001Z</time></trkpt><trkpt lat="43.05702365304288" lon="11.489077770816072"><ele>550.0</ele><time>2026-04-11T12:19:50.001Z</time></trkpt><trkpt lat="43.05700321770319" lon="11.48896807399064"><ele>550.0</ele><time>2026-04-11T12:19:52.001Z</time></trkpt><trkpt lat="43.05694135786652" lon="11.488851406028312"><ele>550.0</ele><time>2026-04-11T12:19:54.001Z</time></trkpt><trkpt lat="43.056829767611724" lon="11.488688808333537"><ele>550.0</ele><time>2026-04-11T12:19:58.001Z</time></trkpt><trkpt lat="43.05674586668759" lon="11.488719430356737"><ele>550.0</ele><time>2026-04-11T12:20:00.001Z</time></trkpt><trkpt lat="43.05667871273824" lon="11.48878917207967"><ele>550.0</ele><time>2026-04-11T12:20:02.001Z</time></trkpt><trkpt lat="43.056594096579715" lon="11.488828179998878"><ele>549.8</ele><time>2026-04-11T12:20:04.001Z</time></trkpt><trkpt lat="43.05650256613784" lon="11.48885518802691"><ele>549.6</ele><time>2026-04-11T12:20:06.001Z</time></trkpt><trkpt lat="43.05641023572634" lon="11.488901303544077"><ele>549.4</ele><time>2026-04-11T12:20:08.001Z</time></trkpt><trkpt lat="43.05631652185396" lon="11.488926618790291"><ele>549.2</ele><time>2026-04-11T12:20:10.001Z</time></trkpt><trkpt lat="43.05622654628361" lon="11.48896566169586"><ele>549.0</ele><time>2026-04-11T12:20:12.001Z</time></trkpt><trkpt lat="43.056136365538954" lon="11.489003447106931"><ele>549.0</ele><time>2026-04-11T12:20:14.001Z</time></trkpt><trkpt lat="43.056044751725885" lon="11.489019609804464"><ele>549.0</ele><time>2026-04-11T12:20:16Z</time></trkpt><trkpt lat="43.05588348737473" lon="11.488955084820464"><ele>549.0</ele><time>2026-04-11T12:20:20Z</time></trkpt><trkpt lat="43.05581102111803" lon="11.488929700568479"><ele>549.0</ele><time>2026-04-11T12:20:22Z</time></trkpt><trkpt lat="43.05573038133974" lon="11.488904966806112"><ele>549.0</ele><time>2026-04-11T12:20:24Z</time></trkpt><trkpt lat="43.0556449096435" lon="11.488896456762442"><ele>549.6666666666666</ele><time>2026-04-11T12:20:26Z</time></trkpt><trkpt lat="43.05556360382867" lon="11.4889122216598"><ele>550.3333333333334</ele><time>2026-04-11T12:20:28Z</time></trkpt><trkpt lat="43.05546367112371" lon="11.488951381187208"><ele>551.0</ele><time>2026-04-11T12:20:31Z</time></trkpt><trkpt lat="43.05537827507476" lon="11.488982224970309"><ele>551.6666666666667</ele><time>2026-04-11T12:20:33Z</time></trkpt><trkpt lat="43.05531050619739" lon="11.48899180651697"><ele>552.3333333333334</ele><time>2026-04-11T12:20:35Z</time></trkpt><trkpt lat="43.0552423469284" lon="11.488992116374686"><ele>553.0</ele><time>2026-04-11T12:20:37Z</time></trkpt><trkpt lat="43.05510143395382" lon="11.489065632562085"><ele>553.0</ele><time>2026-04-11T12:20:42Z</time></trkpt><trkpt lat="43.05506180264054" lon="11.489161147414185"><ele>553.0</ele><time>2026-04-11T12:20:45Z</time></trkpt><trkpt lat="43.05490082279925" lon="11.489254839271855"><ele>553.0</ele><time>2026-04-11T12:20:48Z</time></trkpt><trkpt lat="43.054791330243084" lon="11.489223457702877"><ele>553.0</ele><time>2026-04-11T12:20:50Z</time></trkpt><trkpt lat="43.054717163031675" lon="11.489228361546463"><ele>553.0</ele><time>2026-04-11T12:20:51Z</time></trkpt><trkpt lat="43.054646584305004" lon="11.489253678855102"><ele>553.3333333333334</ele><time>2026-04-11T12:20:52Z</time></trkpt><trkpt lat="43.05457114720938" lon="11.489248613390865"><ele>553.6666666666667</ele><time>2026-04-11T12:20:53Z</time></trkpt><trkpt lat="43.05448697869847" lon="11.4892594106929"><ele>554.0</ele><time>2026-04-11T12:20:54Z</time></trkpt><trkpt lat="43.054395707383186" lon="11.489279335516052"><ele>554.3333333333334</ele><time>2026-04-11T12:20:55Z</time></trkpt><trkpt lat="43.05430618593963" lon="11.489299115430015"><ele>554.6666666666666</ele><time>2026-04-11T12:20:56Z</time></trkpt><trkpt lat="43.05422514618151" lon="11.489360813328311"><ele>555.0</ele><time>2026-04-11T12:20:57Z</time></trkpt><trkpt lat="43.054167624123345" lon="11.489408493749014"><ele>552.75</ele><time>2026-04-11T12:20:58Z</time></trkpt><trkpt lat="43.05409289021411" lon="11.489665856116083"><ele>550.5</ele><time>2026-04-11T12:21:00Z</time></trkpt><trkpt lat="43.05409497797621" lon="11.489803843610483"><ele>548.25</ele><time>2026-04-11T12:21:01Z</time></trkpt><trkpt lat="43.054126602803755" lon="11.489932792966929"><ele>546.0</ele><time>2026-04-11T12:21:02Z</time></trkpt><trkpt lat="43.05418670269119" lon="11.490038502598955"><ele>546.0</ele><time>2026-04-11T12:21:03Z</time></trkpt><trkpt lat="43.05426455970988" lon="11.490123182452983"><ele>546.0</ele><time>2026-04-11T12:21:04Z</time></trkpt><trkpt lat="43.05435498761449" lon="11.49020240972681"><ele>546.0</ele><time>2026-04-11T12:21:05Z</time></trkpt><trkpt lat="43.05445141761943" lon="11.490284103397347"><ele>546.0</ele><time>2026-04-11T12:21:06Z</time></trkpt><trkpt lat="43.054547964927096" lon="11.490368121790002"><ele>546.0</ele><time>2026-04-11T12:21:07Z</time></trkpt><trkpt lat="43.05464546360288" lon="11.49045932030711"><ele>544.0</ele><time>2026-04-11T12:21:08Z</time></trkpt><trkpt lat="43.05473214152425" lon="11.490572935044845"><ele>542.0</ele><time>2026-04-11T12:21:09Z</time></trkpt><trkpt lat="43.054816699215394" lon="11.490694242249402"><ele>540.0</ele><time>2026-04-11T12:21:10Z</time></trkpt><trkpt lat="43.05491548381786" lon="11.490809441771361"><ele>538.0</ele><time>2026-04-11T12:21:11Z</time></trkpt><trkpt lat="43.05499542561634" lon="11.490921179330742"><ele>537.75</ele><time>2026-04-11T12:21:12Z</time></trkpt><trkpt lat="43.05506808631206" lon="11.49105262484965"><ele>537.5</ele><time>2026-04-11T12:21:13Z</time></trkpt><trkpt lat="43.05513469898214" lon="11.491192612620974"><ele>537.25</ele><time>2026-04-11T12:21:14Z</time></trkpt><trkpt lat="43.0551949021777" lon="11.491341393220702"><ele>537.0</ele><time>2026-04-11T12:21:15Z</time></trkpt><trkpt lat="43.0552503801457" lon="11.491481797878789"><ele>533.0</ele><time>2026-04-11T12:21:16Z</time></trkpt><trkpt lat="43.05530035572392" lon="11.49159996236057"><ele>529.0</ele><time>2026-04-11T12:21:17Z</time></trkpt><trkpt lat="43.055357905969025" lon="11.491693220291747"><ele>525.0</ele><time>2026-04-11T12:21:18Z</time></trkpt><trkpt lat="43.05541363004593" lon="11.49177135698391"><ele>521.0</ele><time>2026-04-11T12:21:19Z</time></trkpt><trkpt lat="43.05542276467437" lon="11.49195052862487"><ele>517.0</ele><time>2026-04-11T12:21:23Z</time></trkpt><trkpt lat="43.055349643629306" lon="11.491865230053643"><ele>517.0</ele><time>2026-04-11T12:21:25Z</time></trkpt><trkpt lat="43.05529939534913" lon="11.491749497649536"><ele>517.0</ele><time>2026-04-11T12:21:27.001Z</time></trkpt><trkpt lat="43.05522826596279" lon="11.491633356545991"><ele>517.0</ele><time>2026-04-11T12:21:29.001Z</time></trkpt><trkpt lat="43.05513503580351" lon="11.491517530570581"><ele>517.0</ele><time>2026-04-11T12:21:31.001Z</time></trkpt><trkpt lat="43.05508543871414" lon="11.491456610961267"><ele>517.0</ele><time>2026-04-11T12:21:32.001Z</time></trkpt><trkpt lat="43.05503814673596" lon="11.491390269813621"><ele>517.0</ele><time>2026-04-11T12:21:33.001Z</time></trkpt><trkpt lat="43.05499475643691" lon="11.491311181589715"><ele>517.0</ele><time>2026-04-11T12:21:34.001Z</time></trkpt><trkpt lat="43.05494742277476" lon="11.491239642549026"><ele>517.0</ele><time>2026-04-11T12:21:35.001Z</time></trkpt><trkpt lat="43.054894686894855" lon="11.491168073633563"><ele>517.0</ele><time>2026-04-11T12:21:36.001Z</time></trkpt><trkpt lat="43.054843356404064" lon="11.491096497972109"><ele>517.0</ele><time>2026-04-11T12:21:37.001Z</time></trkpt><trkpt lat="43.054789224037606" lon="11.491021176672"><ele>517.0</ele><time>2026-04-11T12:21:38.001Z</time></trkpt><trkpt lat="43.05473084834667" lon="11.49095062191116"><ele>517.0</ele><time>2026-04-11T12:21:39.001Z</time></trkpt><trkpt lat="43.05466290333758" lon="11.490905320917143"><ele>520.8000000000001</ele><time>2026-04-11T12:21:40.001Z</time></trkpt><trkpt lat="43.054496611490876" lon="11.490926601211788"><ele>524.6</ele><time>2026-04-11T12:21:42.001Z</time></trkpt><trkpt lat="43.05442267095752" lon="11.490994584609584"><ele>528.4000000000001</ele><time>2026-04-11T12:21:43.001Z</time></trkpt><trkpt lat="43.05436978843794" lon="11.491098714753736"><ele>532.2</ele><time>2026-04-11T12:21:44.001Z</time></trkpt><trkpt lat="43.05433808189141" lon="11.491220553346098"><ele>536.0</ele><time>2026-04-11T12:21:45.001Z</time></trkpt><trkpt lat="43.05433136413708" lon="11.49134718862399"><ele>536.0</ele><time>2026-04-11T12:21:46.001Z</time></trkpt><trkpt lat="43.05434987033422" lon="11.491475594686035"><ele>536.0</ele><time>2026-04-11T12:21:47.001Z</time></trkpt><trkpt lat="43.05437639835255" lon="11.491603377363083"><ele>536.0</ele><time>2026-04-11T12:21:48.001Z</time></trkpt><trkpt lat="43.05439767462454" lon="11.491730181412487"><ele>536.0</ele><time>2026-04-11T12:21:49.001Z</time></trkpt><trkpt lat="43.05441542630795" lon="11.49186287316099"><ele>536.0</ele><time>2026-04-11T12:21:50.001Z</time></trkpt><trkpt lat="43.054429085582335" lon="11.49199985783814"><ele>533.6</ele><time>2026-04-11T12:21:51.001Z</time></trkpt><trkpt lat="43.05443805030164" lon="11.492141871948464"><ele>531.2</ele><time>2026-04-11T12:21:52.001Z</time></trkpt><trkpt lat="43.0544466664376" lon="11.492286142003941"><ele>528.8</ele><time>2026-04-11T12:21:53.001Z</time></trkpt><trkpt lat="43.05445257748545" lon="11.492433319310411"><ele>526.4</ele><time>2026-04-11T12:21:54.001Z</time></trkpt><trkpt lat="43.054445432512736" lon="11.492583947372328"><ele>524.0</ele><time>2026-04-11T12:21:55.001Z</time></trkpt><trkpt lat="43.05442847533995" lon="11.492737667000435"><ele>524.0</ele><time>2026-04-11T12:21:56.001Z</time></trkpt><trkpt lat="43.05440153937404" lon="11.492889055416804"><ele>524.0</ele><time>2026-04-11T12:21:57.001Z</time></trkpt><trkpt lat="43.054362696839554" lon="11.493033110850023"><ele>524.0</ele><time>2026-04-11T12:21:58.001Z</time></trkpt><trkpt lat="43.054299855891486" lon="11.493166807926858"><ele>524.0</ele><time>2026-04-11T12:21:59.001Z</time></trkpt><trkpt lat="43.05422684188006" lon="11.49328987316927"><ele>520.6666666666666</ele><time>2026-04-11T12:22:00.001Z</time></trkpt><trkpt lat="43.05413710981763" lon="11.493395458402123"><ele>517.3333333333334</ele><time>2026-04-11T12:22:01.001Z</time></trkpt><trkpt lat="43.053938575165176" lon="11.493569703790433"><ele>514.0</ele><time>2026-04-11T12:22:03.001Z</time></trkpt><trkpt lat="43.05383666725225" lon="11.49365393752573"><ele>514.0</ele><time>2026-04-11T12:22:04.001Z</time></trkpt><trkpt lat="43.053747235245154" lon="11.493753626652179"><ele>514.0</ele><time>2026-04-11T12:22:05.001Z</time></trkpt><trkpt lat="43.05366769840851" lon="11.493860917160585"><ele>514.0</ele><time>2026-04-11T12:22:06.001Z</time></trkpt><trkpt lat="43.05360063152684" lon="11.493985377152168"><ele>514.0</ele><time>2026-04-11T12:22:07.001Z</time></trkpt><trkpt lat="43.053547473862764" lon="11.494121767286085"><ele>512.5</ele><time>2026-04-11T12:22:08.001Z</time></trkpt><trkpt lat="43.053507620899474" lon="11.494275195770301"><ele>511.0</ele><time>2026-04-11T12:22:09.001Z</time></trkpt><trkpt lat="43.05348363478961" lon="11.49443416295161"><ele>509.5</ele><time>2026-04-11T12:22:10.001Z</time></trkpt><trkpt lat="43.053478424587794" lon="11.494599298751885"><ele>508.0</ele><time>2026-04-11T12:22:11.001Z</time></trkpt><trkpt lat="43.05348648916076" lon="11.494762871917413"><ele>507.25</ele><time>2026-04-11T12:22:12.001Z</time></trkpt><trkpt lat="43.05350220282942" lon="11.494925583247959"><ele>506.5</ele><time>2026-04-11T12:22:13.001Z</time></trkpt><trkpt lat="43.05351718268863" lon="11.4950828872714"><ele>505.75</ele><time>2026-04-11T12:22:14.001Z</time></trkpt><trkpt lat="43.05353135741918" lon="11.495241844745001"><ele>505.0</ele><time>2026-04-11T12:22:15.001Z</time></trkpt><trkpt lat="43.05354085377193" lon="11.495397010345306"><ele>504.75</ele><time>2026-04-11T12:22:16.001Z</time></trkpt><trkpt lat="43.05354121204417" lon="11.495557362110967"><ele>504.5</ele><time>2026-04-11T12:22:17.001Z</time></trkpt><trkpt lat="43.05354601773882" lon="11.495715851182615"><ele>504.25</ele><time>2026-04-11T12:22:18.001Z</time></trkpt><trkpt lat="43.05354788048675" lon="11.495875040172896"><ele>504.0</ele><time>2026-04-11T12:22:19.001Z</time></trkpt><trkpt lat="43.05353765961939" lon="11.496032225646175"><ele>504.0</ele><time>2026-04-11T12:22:20.001Z</time></trkpt><trkpt lat="43.053515633261966" lon="11.496184075888028"><ele>504.0</ele><time>2026-04-11T12:22:21Z</time></trkpt><trkpt lat="43.05349127574513" lon="11.49633042871626"><ele>504.0</ele><time>2026-04-11T12:22:22Z</time></trkpt><trkpt lat="43.053459550641385" lon="11.496621586965956"><ele>504.0</ele><time>2026-04-11T12:22:24Z</time></trkpt><trkpt lat="43.05344215729796" lon="11.49675381417905"><ele>503.0</ele><time>2026-04-11T12:22:25Z</time></trkpt><trkpt lat="43.053422472587755" lon="11.496888552995248"><ele>502.0</ele><time>2026-04-11T12:22:26Z</time></trkpt><trkpt lat="43.05340185446633" lon="11.497024513472619"><ele>501.0</ele><time>2026-04-11T12:22:27Z</time></trkpt><trkpt lat="43.05337860677096" lon="11.497157131419366"><ele>500.0</ele><time>2026-04-11T12:22:28Z</time></trkpt><trkpt lat="43.05335766454658" lon="11.49728515770348"><ele>499.0</ele><time>2026-04-11T12:22:29Z</time></trkpt><trkpt lat="43.05331498150039" lon="11.497414106433762"><ele>499.2</ele><time>2026-04-11T12:22:30Z</time></trkpt><trkpt lat="43.05327010593387" lon="11.497537373033664"><ele>499.4</ele><time>2026-04-11T12:22:31Z</time></trkpt><trkpt lat="43.05321908415264" lon="11.497653631005498"><ele>499.6</ele><time>2026-04-11T12:22:32Z</time></trkpt><trkpt lat="43.05316886732296" lon="11.497771907650211"><ele>499.8</ele><time>2026-04-11T12:22:33Z</time></trkpt><trkpt lat="43.05311828339699" lon="11.497888000973246"><ele>500.0</ele><time>2026-04-11T12:22:34Z</time></trkpt><trkpt lat="43.05306757606976" lon="11.498002272355162"><ele>500.0</ele><time>2026-04-11T12:22:35Z</time></trkpt><trkpt lat="43.053014218807164" lon="11.498113056494256"><ele>500.0</ele><time>2026-04-11T12:22:36Z</time></trkpt><trkpt lat="43.05295964084866" lon="11.498227329845292"><ele>500.0</ele><time>2026-04-11T12:22:37Z</time></trkpt><trkpt lat="43.05290455006615" lon="11.49834453236892"><ele>500.0</ele><time>2026-04-11T12:22:38Z</time></trkpt><trkpt lat="43.05285230505672" lon="11.4984689316577"><ele>500.0</ele><time>2026-04-11T12:22:39Z</time></trkpt><trkpt lat="43.05280131070066" lon="11.498598551913307"><ele>500.0</ele><time>2026-04-11T12:22:40Z</time></trkpt><trkpt lat="43.05274687064919" lon="11.498721496707015"><ele>500.0</ele><time>2026-04-11T12:22:41Z</time></trkpt><trkpt lat="43.05269051657871" lon="11.498847832954514"><ele>500.0</ele><time>2026-04-11T12:22:42Z</time></trkpt><trkpt lat="43.05263533905887" lon="11.498976161937978"><ele>500.0</ele><time>2026-04-11T12:22:43Z</time></trkpt><trkpt lat="43.05253599054699" lon="11.499238753486603"><ele>498.6</ele><time>2026-04-11T12:22:45Z</time></trkpt><trkpt lat="43.05248377961347" lon="11.499367817333663"><ele>497.2</ele><time>2026-04-11T12:22:46Z</time></trkpt><trkpt lat="43.05243017737556" lon="11.49949693676408"><ele>495.79999999999995</ele><time>2026-04-11T12:22:47Z</time></trkpt><trkpt lat="43.052373205910335" lon="11.499625604472605"><ele>494.4</ele><time>2026-04-11T12:22:48Z</time></trkpt><trkpt lat="43.05232101797109" lon="11.49975768500216"><ele>493.0</ele><time>2026-04-11T12:22:49Z</time></trkpt><trkpt lat="43.05226975732585" lon="11.499893944093406"><ele>490.2</ele><time>2026-04-11T12:22:50Z</time></trkpt><trkpt lat="43.05221430193906" lon="11.500025492034185"><ele>487.4</ele><time>2026-04-11T12:22:51Z</time></trkpt><trkpt lat="43.0521599648929" lon="11.500153928673365"><ele>484.59999999999997</ele><time>2026-04-11T12:22:52Z</time></trkpt><trkpt lat="43.05210791161264" lon="11.500279766250173"><ele>481.79999999999995</ele><time>2026-04-11T12:22:53Z</time></trkpt><trkpt lat="43.05206045111907" lon="11.500403355168082"><ele>479.0</ele><time>2026-04-11T12:22:54Z</time></trkpt><trkpt lat="43.05201697991858" lon="11.500525545254733"><ele>478.0</ele><time>2026-04-11T12:22:55Z</time></trkpt><trkpt lat="43.05197819429637" lon="11.500651125245998"><ele>477.0</ele><time>2026-04-11T12:22:56Z</time></trkpt><trkpt lat="43.05195101337463" lon="11.500779985235631"><ele>476.0</ele><time>2026-04-11T12:22:57Z</time></trkpt><trkpt lat="43.051933679924446" lon="11.500913901250424"><ele>475.0</ele><time>2026-04-11T12:22:58Z</time></trkpt><trkpt lat="43.05193073730336" lon="11.501053506701584"><ele>474.0</ele><time>2026-04-11T12:22:59Z</time></trkpt><trkpt lat="43.05193094045491" lon="11.501195276932094"><ele>473.0</ele><time>2026-04-11T12:23:00Z</time></trkpt><trkpt lat="43.051939312022654" lon="11.501334894931276"><ele>472.0</ele><time>2026-04-11T12:23:01Z</time></trkpt><trkpt lat="43.05194127125501" lon="11.501474327871248"><ele>471.0</ele><time>2026-04-11T12:23:02Z</time></trkpt><trkpt lat="43.05194839636385" lon="11.501622570084006"><ele>470.0</ele><time>2026-04-11T12:23:03Z</time></trkpt><trkpt lat="43.05194843901429" lon="11.501771918017033"><ele>469.0</ele><time>2026-04-11T12:23:04Z</time></trkpt><trkpt lat="43.051941393598725" lon="11.502071916027482"><ele>468.4</ele><time>2026-04-11T12:23:06Z</time></trkpt><trkpt lat="43.051912701527044" lon="11.502217430856817"><ele>467.79999999999995</ele><time>2026-04-11T12:23:07Z</time></trkpt><trkpt lat="43.051869055605" lon="11.50235917382078"><ele>467.20000000000005</ele><time>2026-04-11T12:23:08Z</time></trkpt><trkpt lat="43.05182880113369" lon="11.50250148827491"><ele>466.6</ele><time>2026-04-11T12:23:09Z</time></trkpt><trkpt lat="43.05179046275709" lon="11.502647812070414"><ele>466.0</ele><time>2026-04-11T12:23:10Z</time></trkpt><trkpt lat="43.0517588218438" lon="11.50278755116061"><ele>465.6</ele><time>2026-04-11T12:23:11Z</time></trkpt><trkpt lat="43.05173950973845" lon="11.502933074573631"><ele>465.20000000000005</ele><time>2026-04-11T12:23:12Z</time></trkpt><trkpt lat="43.05173970578581" lon="11.503077947439001"><ele>464.79999999999995</ele><time>2026-04-11T12:23:13Z</time></trkpt><trkpt lat="43.05176058261275" lon="11.503226054130629"><ele>464.4</ele><time>2026-04-11T12:23:14Z</time></trkpt><trkpt lat="43.05180207598706" lon="11.50336706685326"><ele>464.0</ele><time>2026-04-11T12:23:15Z</time></trkpt><trkpt lat="43.05185309473585" lon="11.503496999512288"><ele>464.0</ele><time>2026-04-11T12:23:16Z</time></trkpt><trkpt lat="43.05191729718053" lon="11.50362027215709"><ele>464.0</ele><time>2026-04-11T12:23:17Z</time></trkpt><trkpt lat="43.051978427340885" lon="11.5037442477936"><ele>464.0</ele><time>2026-04-11T12:23:18Z</time></trkpt><trkpt lat="43.05203358000332" lon="11.50387214093654"><ele>464.0</ele><time>2026-04-11T12:23:19Z</time></trkpt><trkpt lat="43.05208966487894" lon="11.504011086636726"><ele>464.0</ele><time>2026-04-11T12:23:20Z</time></trkpt><trkpt lat="43.05214013808182" lon="11.504147214965956"><ele>462.4</ele><time>2026-04-11T12:23:21Z</time></trkpt><trkpt lat="43.052186822771645" lon="11.504255647249014"><ele>460.79999999999995</ele><time>2026-04-11T12:23:22Z</time></trkpt><trkpt lat="43.05222733372012" lon="11.504363551454638"><ele>459.20000000000005</ele><time>2026-04-11T12:23:23Z</time></trkpt><trkpt lat="43.05225628991155" lon="11.504467947946253"><ele>457.6</ele><time>2026-04-11T12:23:24Z</time></trkpt><trkpt lat="43.052284730741015" lon="11.50456316724099"><ele>456.0</ele><time>2026-04-11T12:23:25Z</time></trkpt><trkpt lat="43.052312870298536" lon="11.504825336487386"><ele>456.4</ele><time>2026-04-11T12:23:28.001Z</time></trkpt><trkpt lat="43.05229957783309" lon="11.504922366584793"><ele>456.8</ele><time>2026-04-11T12:23:29.001Z</time></trkpt><trkpt lat="43.05233169967731" lon="11.505079901047512"><ele>457.19999999999993</ele><time>2026-04-11T12:23:31.001Z</time></trkpt><trkpt lat="43.0524499940857" lon="11.505092028428145"><ele>457.59999999999997</ele><time>2026-04-11T12:23:33.001Z</time></trkpt><trkpt lat="43.052544674025654" lon="11.505013196740657"><ele>458.0</ele><time>2026-04-11T12:23:35.001Z</time></trkpt><trkpt lat="43.052650829137725" lon="11.505034009823627"><ele>457.99999999999994</ele><time>2026-04-11T12:23:37.001Z</time></trkpt><trkpt lat="43.052771694054606" lon="11.505073583454987"><ele>458.0</ele><time>2026-04-11T12:23:39.001Z</time></trkpt><trkpt lat="43.05283300740511" lon="11.505115379696244"><ele>458.0</ele><time>2026-04-11T12:23:40.001Z</time></trkpt><trkpt lat="43.052897670642444" lon="11.505159099990559"><ele>458.0</ele><time>2026-04-11T12:23:41.001Z</time></trkpt><trkpt lat="43.052967518020196" lon="11.505200976339978"><ele>457.99999999999994</ele><time>2026-04-11T12:23:42.001Z</time></trkpt><trkpt lat="43.05304111799512" lon="11.505254901146051"><ele>458.0</ele><time>2026-04-11T12:23:43.001Z</time></trkpt><trkpt lat="43.05311310314048" lon="11.505320060329307"><ele>457.5</ele><time>2026-04-11T12:23:44.001Z</time></trkpt><trkpt lat="43.05317527612559" lon="11.505414725021257"><ele>457.0</ele><time>2026-04-11T12:23:45.001Z</time></trkpt><trkpt lat="43.05322714622124" lon="11.505528727576468"><ele>456.5</ele><time>2026-04-11T12:23:46.001Z</time></trkpt><trkpt lat="43.05327970186457" lon="11.505799062298449"><ele>456.0</ele><time>2026-04-11T12:23:48.001Z</time></trkpt><trkpt lat="43.053280158014694" lon="11.505949239216072"><ele>456.0</ele><time>2026-04-11T12:23:49.001Z</time></trkpt><trkpt lat="43.05326597126264" lon="11.506071851130361"><ele>456.0</ele><time>2026-04-11T12:23:50.001Z</time></trkpt><trkpt lat="43.053244009009646" lon="11.506195731681741"><ele>456.0</ele><time>2026-04-11T12:23:51.001Z</time></trkpt><trkpt lat="43.053224752677785" lon="11.506329444285322"><ele>456.0</ele><time>2026-04-11T12:23:52.001Z</time></trkpt><trkpt lat="43.053212749097746" lon="11.506469450904103"><ele>456.0</ele><time>2026-04-11T12:23:53.001Z</time></trkpt><trkpt lat="43.05319539466566" lon="11.506611873631075"><ele>455.25</ele><time>2026-04-11T12:23:54.001Z</time></trkpt><trkpt lat="43.05317571346292" lon="11.5067584978264"><ele>454.5</ele><time>2026-04-11T12:23:55.001Z</time></trkpt><trkpt lat="43.05315767244051" lon="11.50691101893302"><ele>453.75</ele><time>2026-04-11T12:23:56.001Z</time></trkpt><trkpt lat="43.05313574583407" lon="11.507065775889112"><ele>453.0</ele><time>2026-04-11T12:23:57.001Z</time></trkpt><trkpt lat="43.05311792331712" lon="11.50722476922124"><ele>451.0</ele><time>2026-04-11T12:23:58.001Z</time></trkpt><trkpt lat="43.05310141616176" lon="11.507385004636427"><ele>449.0</ele><time>2026-04-11T12:23:59.001Z</time></trkpt><trkpt lat="43.053080944893345" lon="11.507543765860698"><ele>447.0</ele><time>2026-04-11T12:24:00.001Z</time></trkpt><trkpt lat="43.05305811123609" lon="11.507702901351843"><ele>445.0</ele><time>2026-04-11T12:24:01.001Z</time></trkpt><trkpt lat="43.05303683869998" lon="11.507852892309769"><ele>443.2</ele><time>2026-04-11T12:24:02.001Z</time></trkpt><trkpt lat="43.05302275273559" lon="11.508000488351476"><ele>441.4</ele><time>2026-04-11T12:24:03.001Z</time></trkpt><trkpt lat="43.053009864110265" lon="11.508148883760342"><ele>439.6</ele><time>2026-04-11T12:24:04.001Z</time></trkpt><trkpt lat="43.052996510156014" lon="11.508297059083379"><ele>437.8</ele><time>2026-04-11T12:24:05.001Z</time></trkpt><trkpt lat="43.05298579933095" lon="11.508442765684924"><ele>436.0</ele><time>2026-04-11T12:24:06.001Z</time></trkpt><trkpt lat="43.05298335603641" lon="11.508589795988101"><ele>434.0</ele><time>2026-04-11T12:24:07.001Z</time></trkpt><trkpt lat="43.053007861383705" lon="11.508880520962599"><ele>432.0</ele><time>2026-04-11T12:24:09.001Z</time></trkpt><trkpt lat="43.053030811886025" lon="11.509023095159582"><ele>430.0</ele><time>2026-04-11T12:24:10.001Z</time></trkpt><trkpt lat="43.05305814710794" lon="11.50916341513947"><ele>428.0</ele><time>2026-04-11T12:24:11.001Z</time></trkpt><trkpt lat="43.05308562590864" lon="11.50930529916226"><ele>428.0</ele><time>2026-04-11T12:24:12.001Z</time></trkpt><trkpt lat="43.05311578632082" lon="11.509446854508898"><ele>427.99999999999994</ele><time>2026-04-11T12:24:13.001Z</time></trkpt><trkpt lat="43.0531466555698" lon="11.509589631035869"><ele>427.99999999999994</ele><time>2026-04-11T12:24:14.001Z</time></trkpt><trkpt lat="43.05318292345983" lon="11.509734201717693"><ele>428.0</ele><time>2026-04-11T12:24:15.001Z</time></trkpt><trkpt lat="43.05322970916418" lon="11.509870679811169"><ele>428.0</ele><time>2026-04-11T12:24:16.001Z</time></trkpt><trkpt lat="43.05328672260719" lon="11.509998452082725"><ele>427.4</ele><time>2026-04-11T12:24:17.001Z</time></trkpt><trkpt lat="43.05334845795316" lon="11.510118757158425"><ele>426.79999999999995</ele><time>2026-04-11T12:24:18.001Z</time></trkpt><trkpt lat="43.05342366237877" lon="11.510223389702206"><ele>426.2</ele><time>2026-04-11T12:24:19.001Z</time></trkpt><trkpt lat="43.053507353282264" lon="11.510316786352057"><ele>425.6</ele><time>2026-04-11T12:24:20.001Z</time></trkpt><trkpt lat="43.0535967064524" lon="11.510401435036725"><ele>425.0</ele><time>2026-04-11T12:24:21.001Z</time></trkpt><trkpt lat="43.05369293125515" lon="11.510480696185418"><ele>423.25</ele><time>2026-04-11T12:24:22.001Z</time></trkpt><trkpt lat="43.053792671792124" lon="11.510552058507956"><ele>421.5</ele><time>2026-04-11T12:24:23.001Z</time></trkpt><trkpt lat="43.05390070107319" lon="11.510606539946105"><ele>419.75</ele><time>2026-04-11T12:24:24.001Z</time></trkpt><trkpt lat="43.05401405951439" lon="11.510640187615351"><ele>418.0</ele><time>2026-04-11T12:24:25.001Z</time></trkpt><trkpt lat="43.05412660414616" lon="11.510656289290452"><ele>417.5</ele><time>2026-04-11T12:24:26.001Z</time></trkpt><trkpt lat="43.05423058536015" lon="11.51064952920132"><ele>417.0</ele><time>2026-04-11T12:24:27Z</time></trkpt><trkpt lat="43.054334869364574" lon="11.510618969255678"><ele>416.5</ele><time>2026-04-11T12:24:28Z</time></trkpt><trkpt lat="43.05453412391136" lon="11.510509951596134"><ele>416.0</ele><time>2026-04-11T12:24:30Z</time></trkpt><trkpt lat="43.0546245614427" lon="11.510426091143124"><ele>414.6</ele><time>2026-04-11T12:24:31Z</time></trkpt><trkpt lat="43.05471118043462" lon="11.510334647785584"><ele>413.20000000000005</ele><time>2026-04-11T12:24:32Z</time></trkpt><trkpt lat="43.05479349416782" lon="11.510233095732655"><ele>411.79999999999995</ele><time>2026-04-11T12:24:33Z</time></trkpt><trkpt lat="43.05487020512872" lon="11.510121655025022"><ele>410.4</ele><time>2026-04-11T12:24:34Z</time></trkpt><trkpt lat="43.054940203899854" lon="11.510002588800683"><ele>409.0</ele><time>2026-04-11T12:24:35Z</time></trkpt><trkpt lat="43.055000579886695" lon="11.509872377223504"><ele>409.0</ele><time>2026-04-11T12:24:36Z</time></trkpt><trkpt lat="43.0550542638609" lon="11.50973276249242"><ele>409.0</ele><time>2026-04-11T12:24:37Z</time></trkpt><trkpt lat="43.05510630178226" lon="11.509588483814463"><ele>409.0</ele><time>2026-04-11T12:24:38Z</time></trkpt><trkpt lat="43.05515341142034" lon="11.509440369377462"><ele>409.0</ele><time>2026-04-11T12:24:39Z</time></trkpt><trkpt lat="43.05520686107827" lon="11.509296680092627"><ele>410.25</ele><time>2026-04-11T12:24:40Z</time></trkpt><trkpt lat="43.0552686726558" lon="11.509157327080107"><ele>411.5</ele><time>2026-04-11T12:24:41Z</time></trkpt><trkpt lat="43.055340263726954" lon="11.509028912302085"><ele>412.75</ele><time>2026-04-11T12:24:42Z</time></trkpt><trkpt lat="43.055422425078696" lon="11.508912773617434"><ele>414.0</ele><time>2026-04-11T12:24:43Z</time></trkpt><trkpt lat="43.05550970259151" lon="11.508800110720689"><ele>414.25</ele><time>2026-04-11T12:24:44Z</time></trkpt><trkpt lat="43.05560026273092" lon="11.508691295704203"><ele>414.5</ele><time>2026-04-11T12:24:45Z</time></trkpt><trkpt lat="43.0556899862887" lon="11.508582386555902"><ele>414.75</ele><time>2026-04-11T12:24:46Z</time></trkpt><trkpt lat="43.055772064140534" lon="11.50847091657599"><ele>415.0</ele><time>2026-04-11T12:24:47Z</time></trkpt><trkpt lat="43.05584624841656" lon="11.508356995542893"><ele>410.75</ele><time>2026-04-11T12:24:48Z</time></trkpt><trkpt lat="43.05590797988944" lon="11.508232604362314"><ele>406.5</ele><time>2026-04-11T12:24:49Z</time></trkpt><trkpt lat="43.0559713566767" lon="11.507943514971178"><ele>402.25</ele><time>2026-04-11T12:24:51Z</time></trkpt><trkpt lat="43.05597706420557" lon="11.50779474474212"><ele>398.0</ele><time>2026-04-11T12:24:52Z</time></trkpt><trkpt lat="43.055977442731795" lon="11.507645808925052"><ele>397.59999999999997</ele><time>2026-04-11T12:24:53Z</time></trkpt><trkpt lat="43.05597957276873" lon="11.507496800557114"><ele>397.2</ele><time>2026-04-11T12:24:54Z</time></trkpt><trkpt lat="43.055969754011464" lon="11.507353226496878"><ele>396.8</ele><time>2026-04-11T12:24:55Z</time></trkpt><trkpt lat="43.055943636363565" lon="11.507215501892487"><ele>396.4</ele><time>2026-04-11T12:24:56Z</time></trkpt><trkpt lat="43.05590284425994" lon="11.507085761729295"><ele>396.0</ele><time>2026-04-11T12:24:57Z</time></trkpt><trkpt lat="43.055848048993084" lon="11.506965439262077"><ele>397.20000000000005</ele><time>2026-04-11T12:24:58Z</time></trkpt><trkpt lat="43.05578219535964" lon="11.506860311876004"><ele>398.40000000000003</ele><time>2026-04-11T12:24:59Z</time></trkpt><trkpt lat="43.055711767925345" lon="11.506753893527263"><ele>399.6</ele><time>2026-04-11T12:25:00Z</time></trkpt><trkpt lat="43.05564421009252" lon="11.506640589735763"><ele>400.8</ele><time>2026-04-11T12:25:01Z</time></trkpt><trkpt lat="43.05558527236835" lon="11.506514957024791"><ele>402.0</ele><time>2026-04-11T12:25:02Z</time></trkpt><trkpt lat="43.0555420128929" lon="11.506378720737448"><ele>402.40000000000003</ele><time>2026-04-11T12:25:03Z</time></trkpt><trkpt lat="43.0555188877575" lon="11.506231914999198"><ele>402.8</ele><time>2026-04-11T12:25:04Z</time></trkpt><trkpt lat="43.055518325601845" lon="11.506084235842104"><ele>403.2</ele><time>2026-04-11T12:25:05Z</time></trkpt><trkpt lat="43.055537112921044" lon="11.50593423686624"><ele>403.6</ele><time>2026-04-11T12:25:06Z</time></trkpt><trkpt lat="43.055566661059636" lon="11.505790569095957"><ele>404.0</ele><time>2026-04-11T12:25:07Z</time></trkpt><trkpt lat="43.05560872708128" lon="11.505651517631513"><ele>404.0</ele><time>2026-04-11T12:25:08Z</time></trkpt><trkpt lat="43.055651447186555" lon="11.50551185150389"><ele>404.0</ele><time>2026-04-11T12:25:09Z</time></trkpt><trkpt lat="43.055695242887616" lon="11.505370902138583"><ele>404.0</ele><time>2026-04-11T12:25:10Z</time></trkpt><trkpt lat="43.055792140497104" lon="11.505094164996025"><ele>404.0</ele><time>2026-04-11T12:25:12Z</time></trkpt><trkpt lat="43.05584705615325" lon="11.50496316658082"><ele>401.2</ele><time>2026-04-11T12:25:13Z</time></trkpt><trkpt lat="43.05590387599242" lon="11.504831604787709"><ele>398.4</ele><time>2026-04-11T12:25:14Z</time></trkpt><trkpt lat="43.05596650236061" lon="11.504707738984889"><ele>395.6</ele><time>2026-04-11T12:25:15Z</time></trkpt><trkpt lat="43.05603349884991" lon="11.504586064635207"><ele>392.8</ele><time>2026-04-11T12:25:16Z</time></trkpt><trkpt lat="43.05609786514753" lon="11.5044633663248"><ele>390.0</ele><time>2026-04-11T12:25:17Z</time></trkpt><trkpt lat="43.056160174116755" lon="11.504335856799178"><ele>390.0</ele><time>2026-04-11T12:25:18Z</time></trkpt><trkpt lat="43.05623176813256" lon="11.504217195693045"><ele>390.0</ele><time>2026-04-11T12:25:19Z</time></trkpt><trkpt lat="43.05631465362993" lon="11.504112129051686"><ele>390.0</ele><time>2026-04-11T12:25:20Z</time></trkpt><trkpt lat="43.0564114210184" lon="11.504025408846783"><ele>390.0</ele><time>2026-04-11T12:25:21Z</time></trkpt><trkpt lat="43.05651435291675" lon="11.503952052216794"><ele>388.5</ele><time>2026-04-11T12:25:22Z</time></trkpt><trkpt lat="43.05662071698645" lon="11.503882576465717"><ele>387.0</ele><time>2026-04-11T12:25:23Z</time></trkpt><trkpt lat="43.05672748896102" lon="11.503810965984673"><ele>385.5</ele><time>2026-04-11T12:25:24Z</time></trkpt><trkpt lat="43.056835193678225" lon="11.503737565297033"><ele>384.0</ele><time>2026-04-11T12:25:25Z</time></trkpt><trkpt lat="43.056944410621625" lon="11.503668212991204"><ele>384.0</ele><time>2026-04-11T12:25:26Z</time></trkpt><trkpt lat="43.057054960882404" lon="11.503607153871647"><ele>384.0</ele><time>2026-04-11T12:25:27Z</time></trkpt><trkpt lat="43.057167446652386" lon="11.503554405501294"><ele>384.0</ele><time>2026-04-11T12:25:28Z</time></trkpt><trkpt lat="43.057281700972936" lon="11.503516219388167"><ele>384.0</ele><time>2026-04-11T12:25:29Z</time></trkpt><trkpt lat="43.05739630812015" lon="11.503482178867682"><ele>381.0</ele><time>2026-04-11T12:25:30Z</time></trkpt><trkpt lat="43.05750709012916" lon="11.503449971079032"><ele>378.0</ele><time>2026-04-11T12:25:31.001Z</time></trkpt><trkpt lat="43.05769215251382" lon="11.503311333475567"><ele>375.0</ele><time>2026-04-11T12:25:33.001Z</time></trkpt><trkpt lat="43.057755973462264" lon="11.50320276895379"><ele>372.0</ele><time>2026-04-11T12:25:34.001Z</time></trkpt><trkpt lat="43.057798240648914" lon="11.503077794458784"><ele>372.0</ele><time>2026-04-11T12:25:35.001Z</time></trkpt><trkpt lat="43.057817097392245" lon="11.502937326585272"><ele>372.0</ele><time>2026-04-11T12:25:36.001Z</time></trkpt><trkpt lat="43.05781437506451" lon="11.502794247865936"><ele>372.0</ele><time>2026-04-11T12:25:37.001Z</time></trkpt><trkpt lat="43.05780530368285" lon="11.502649896973821"><ele>372.0</ele><time>2026-04-11T12:25:38.001Z</time></trkpt><trkpt lat="43.05780762245916" lon="11.502509155842324"><ele>372.0</ele><time>2026-04-11T12:25:39.001Z</time></trkpt><trkpt lat="43.05783447388888" lon="11.502374135453277"><ele>372.20000000000005</ele><time>2026-04-11T12:25:40.001Z</time></trkpt><trkpt lat="43.05789183921216" lon="11.502258638457937"><ele>372.4</ele><time>2026-04-11T12:25:41.001Z</time></trkpt><trkpt lat="43.05796997297154" lon="11.502170012236238"><ele>372.6</ele><time>2026-04-11T12:25:42.001Z</time></trkpt><trkpt lat="43.058058839173334" lon="11.502108952227633"><ele>372.79999999999995</ele><time>2026-04-11T12:25:43.001Z</time></trkpt><trkpt lat="43.05815133790277" lon="11.502070772574085"><ele>373.0</ele><time>2026-04-11T12:25:44.001Z</time></trkpt><trkpt lat="43.05824533764679" lon="11.502056444534848"><ele>371.59999999999997</ele><time>2026-04-11T12:25:45.001Z</time></trkpt><trkpt lat="43.05833787357061" lon="11.502044066762437"><ele>370.2</ele><time>2026-04-11T12:25:46.001Z</time></trkpt><trkpt lat="43.058430701327055" lon="11.502049930741629"><ele>368.8</ele><time>2026-04-11T12:25:47.001Z</time></trkpt><trkpt lat="43.05851909932939" lon="11.502097132294569"><ele>367.4</ele><time>2026-04-11T12:25:48.001Z</time></trkpt><trkpt lat="43.058595922057236" lon="11.502172108769605"><ele>366.0</ele><time>2026-04-11T12:25:49.001Z</time></trkpt><trkpt lat="43.05866884776015" lon="11.502258951107583"><ele>364.75</ele><time>2026-04-11T12:25:50.001Z</time></trkpt><trkpt lat="43.05874222939373" lon="11.502348305800608"><ele>363.5</ele><time>2026-04-11T12:25:51.001Z</time></trkpt><trkpt lat="43.05881541157923" lon="11.5024435026533"><ele>362.25</ele><time>2026-04-11T12:25:52.001Z</time></trkpt><trkpt lat="43.05897420047976" lon="11.502624799959294"><ele>361.0</ele><time>2026-04-11T12:25:54.001Z</time></trkpt><trkpt lat="43.059058831407526" lon="11.502709300857687"><ele>361.20000000000005</ele><time>2026-04-11T12:25:55.001Z</time></trkpt><trkpt lat="43.05913979844424" lon="11.502811040227474"><ele>361.40000000000003</ele><time>2026-04-11T12:25:56.001Z</time></trkpt><trkpt lat="43.05922393825882" lon="11.502901118571247"><ele>361.6</ele><time>2026-04-11T12:25:57.001Z</time></trkpt><trkpt lat="43.0593236371477" lon="11.502955463723568"><ele>361.8</ele><time>2026-04-11T12:25:58.001Z</time></trkpt><trkpt lat="43.05942977619413" lon="11.502995763859408"><ele>362.0</ele><time>2026-04-11T12:25:59.001Z</time></trkpt><trkpt lat="43.059538409555294" lon="11.503026101054436"><ele>358.0</ele><time>2026-04-11T12:26:00.001Z</time></trkpt><trkpt lat="43.05965066042372" lon="11.503044018656345"><ele>354.0</ele><time>2026-04-11T12:26:01.001Z</time></trkpt><trkpt lat="43.059761506462024" lon="11.503062877929422"><ele>350.0</ele><time>2026-04-11T12:26:02.001Z</time></trkpt><trkpt lat="43.05987141282099" lon="11.503082072697346"><ele>346.0</ele><time>2026-04-11T12:26:03.001Z</time></trkpt><trkpt lat="43.0599828176786" lon="11.503090180061333"><ele>342.0</ele><time>2026-04-11T12:26:04.001Z</time></trkpt><trkpt lat="43.060091209902" lon="11.503082707292739"><ele>341.20000000000005</ele><time>2026-04-11T12:26:05.001Z</time></trkpt><trkpt lat="43.06019724751614" lon="11.50305407278972"><ele>340.4</ele><time>2026-04-11T12:26:06.001Z</time></trkpt><trkpt lat="43.060297437604504" lon="11.502999937636508"><ele>339.6</ele><time>2026-04-11T12:26:07.001Z</time></trkpt><trkpt lat="43.06039156813653" lon="11.502932243490111"><ele>338.79999999999995</ele><time>2026-04-11T12:26:08.001Z</time></trkpt><trkpt lat="43.060481058081244" lon="11.502853060576879"><ele>338.0</ele><time>2026-04-11T12:26:09.001Z</time></trkpt><trkpt lat="43.06055948103894" lon="11.502756850127343"><ele>339.0</ele><time>2026-04-11T12:26:10.001Z</time></trkpt><trkpt lat="43.06062047445251" lon="11.502644386361085"><ele>340.0</ele><time>2026-04-11T12:26:11.001Z</time></trkpt><trkpt lat="43.060680087748445" lon="11.502526652993454"><ele>341.0</ele><time>2026-04-11T12:26:12.001Z</time></trkpt><trkpt lat="43.06074676573919" lon="11.502412943836827"><ele>342.0</ele><time>2026-04-11T12:26:13.001Z</time></trkpt><trkpt lat="43.06090642145847" lon="11.502209691210084"><ele>342.0</ele><time>2026-04-11T12:26:15.001Z</time></trkpt><trkpt lat="43.06100561366154" lon="11.50214511781683"><ele>342.0</ele><time>2026-04-11T12:26:16.001Z</time></trkpt><trkpt lat="43.06111218800739" lon="11.502114877456467"><ele>342.0</ele><time>2026-04-11T12:26:17.001Z</time></trkpt><trkpt lat="43.06121917562351" lon="11.50211008116261"><ele>342.0</ele><time>2026-04-11T12:26:18.001Z</time></trkpt><trkpt lat="43.06132564395877" lon="11.502096776537716"><ele>342.0</ele><time>2026-04-11T12:26:19.001Z</time></trkpt><trkpt lat="43.06143222891785" lon="11.502071786421537"><ele>342.0</ele><time>2026-04-11T12:26:20.001Z</time></trkpt><trkpt lat="43.06153731114145" lon="11.50203287997841"><ele>342.0</ele><time>2026-04-11T12:26:21.001Z</time></trkpt><trkpt lat="43.06163950090903" lon="11.501982052484463"><ele>342.0</ele><time>2026-04-11T12:26:22.001Z</time></trkpt><trkpt lat="43.06173859252746" lon="11.501920800153657"><ele>342.0</ele><time>2026-04-11T12:26:23.001Z</time></trkpt><trkpt lat="43.06183000408511" lon="11.50184037488516"><ele>342.0</ele><time>2026-04-11T12:26:24.001Z</time></trkpt><trkpt lat="43.06191756988707" lon="11.501750980072766"><ele>342.0</ele><time>2026-04-11T12:26:25.001Z</time></trkpt><trkpt lat="43.062006442163074" lon="11.501663923738866"><ele>342.0</ele><time>2026-04-11T12:26:26.001Z</time></trkpt><trkpt lat="43.06209988004621" lon="11.501584662998493"><ele>342.0</ele><time>2026-04-11T12:26:27.001Z</time></trkpt><trkpt lat="43.062191431506015" lon="11.501501508053625"><ele>342.0</ele><time>2026-04-11T12:26:28.001Z</time></trkpt><trkpt lat="43.0622790077947" lon="11.5014135945344"><ele>342.0</ele><time>2026-04-11T12:26:29.001Z</time></trkpt><trkpt lat="43.06236789620093" lon="11.501328277553991"><ele>341.0</ele><time>2026-04-11T12:26:30.001Z</time></trkpt><trkpt lat="43.06245764394206" lon="11.501247887676696"><ele>340.0</ele><time>2026-04-11T12:26:31.001Z</time></trkpt><trkpt lat="43.06254709271376" lon="11.501168074221745"><ele>339.0</ele><time>2026-04-11T12:26:32.001Z</time></trkpt><trkpt lat="43.0626376988962" lon="11.501097998982596"><ele>338.0</ele><time>2026-04-11T12:26:33Z</time></trkpt><trkpt lat="43.062735287183514" lon="11.501045028380481"><ele>337.0</ele><time>2026-04-11T12:26:34Z</time></trkpt><trkpt lat="43.06294254356194" lon="11.501008959641174"><ele>337.0</ele><time>2026-04-11T12:26:36Z</time></trkpt><trkpt lat="43.06304590484097" lon="11.501023960146107"><ele>337.0</ele><time>2026-04-11T12:26:37Z</time></trkpt><trkpt lat="43.06314740292477" lon="11.501055135445625"><ele>337.0</ele><time>2026-04-11T12:26:38Z</time></trkpt><trkpt lat="43.063246265819416" lon="11.501102737959478"><ele>337.0</ele><time>2026-04-11T12:26:39Z</time></trkpt><trkpt lat="43.063343852538225" lon="11.501153703062355"><ele>337.0</ele><time>2026-04-11T12:26:40Z</time></trkpt><trkpt lat="43.063441574116474" lon="11.50120475708952"><ele>334.20000000000005</ele><time>2026-04-11T12:26:41Z</time></trkpt><trkpt lat="43.06354029413327" lon="11.50125083991772"><ele>331.4</ele><time>2026-04-11T12:26:42Z</time></trkpt><trkpt lat="43.06363909282275" lon="11.50129437963491"><ele>328.6</ele><time>2026-04-11T12:26:43Z</time></trkpt><trkpt lat="43.063736303040805" lon="11.501341020324782"><ele>325.79999999999995</ele><time>2026-04-11T12:26:44Z</time></trkpt><trkpt lat="43.06383350905071" lon="11.501396848134181"><ele>323.0</ele><time>2026-04-11T12:26:45Z</time></trkpt><trkpt lat="43.06393125014504" lon="11.501452859824663"><ele>323.0</ele><time>2026-04-11T12:26:46Z</time></trkpt><trkpt lat="43.06403200612359" lon="11.50150255783764"><ele>323.0</ele><time>2026-04-11T12:26:47Z</time></trkpt><trkpt lat="43.0641345581058" lon="11.501547504076477"><ele>323.0</ele><time>2026-04-11T12:26:48Z</time></trkpt><trkpt lat="43.0642375930913" lon="11.50159748940291"><ele>323.0</ele><time>2026-04-11T12:26:49Z</time></trkpt><trkpt lat="43.06434014197274" lon="11.501657914971604"><ele>323.0</ele><time>2026-04-11T12:26:50Z</time></trkpt><trkpt lat="43.06444608818087" lon="11.501711984400762"><ele>322.79999999999995</ele><time>2026-04-11T12:26:51Z</time></trkpt><trkpt lat="43.06455144631475" lon="11.501749659187977"><ele>322.6</ele><time>2026-04-11T12:26:52Z</time></trkpt><trkpt lat="43.064645943615076" lon="11.501772065564678"><ele>322.4</ele><time>2026-04-11T12:26:53Z</time></trkpt><trkpt lat="43.06472433632973" lon="11.501778947665143"><ele>322.20000000000005</ele><time>2026-04-11T12:26:54Z</time></trkpt><trkpt lat="43.06479991605177" lon="11.501772104517526"><ele>322.0</ele><time>2026-04-11T12:26:55Z</time></trkpt><trkpt lat="43.06494968484162" lon="11.501734551047035"><ele>321.42857142857144</ele><time>2026-04-11T12:26:57Z</time></trkpt><trkpt lat="43.06502006878875" lon="11.501697924148507"><ele>320.8571428571429</ele><time>2026-04-11T12:26:58Z</time></trkpt><trkpt lat="43.0650845785344" lon="11.501657149653154"><ele>320.2857142857143</ele><time>2026-04-11T12:26:59Z</time></trkpt><trkpt lat="43.06514496297501" lon="11.501605395716481"><ele>319.7142857142857</ele><time>2026-04-11T12:27:00Z</time></trkpt><trkpt lat="43.06520291084791" lon="11.501546431769839"><ele>319.14285714285717</ele><time>2026-04-11T12:27:01Z</time></trkpt><trkpt lat="43.06525810430767" lon="11.501478936877955"><ele>318.57142857142856</ele><time>2026-04-11T12:27:02Z</time></trkpt><trkpt lat="43.065311704216164" lon="11.501397588862263"><ele>318.0</ele><time>2026-04-11T12:27:03Z</time></trkpt><trkpt lat="43.065354123534284" lon="11.501298401606107"><ele>318.5</ele><time>2026-04-11T12:27:04Z</time></trkpt><trkpt lat="43.06539749749468" lon="11.501197935427106"><ele>319.0</ele><time>2026-04-11T12:27:05Z</time></trkpt><trkpt lat="43.06544873181632" lon="11.501099531813658"><ele>319.5</ele><time>2026-04-11T12:27:06Z</time></trkpt><trkpt lat="43.065503943972374" lon="11.501001377310274"><ele>320.0</ele><time>2026-04-11T12:27:07Z</time></trkpt><trkpt lat="43.065554456041816" lon="11.500897833875735"><ele>320.5</ele><time>2026-04-11T12:27:08Z</time></trkpt><trkpt lat="43.06560771352849" lon="11.500794543179254"><ele>321.0</ele><time>2026-04-11T12:27:09Z</time></trkpt><trkpt lat="43.065659163272464" lon="11.500685646269584"><ele>321.0</ele><time>2026-04-11T12:27:10Z</time></trkpt><trkpt lat="43.06571127958251" lon="11.500579470225272"><ele>321.0</ele><time>2026-04-11T12:27:11Z</time></trkpt><trkpt lat="43.065768277750735" lon="11.500482500435561"><ele>321.0</ele><time>2026-04-11T12:27:12Z</time></trkpt><trkpt lat="43.065832248722046" lon="11.50039848382551"><ele>321.0</ele><time>2026-04-11T12:27:13Z</time></trkpt><trkpt lat="43.06590497216041" lon="11.500318021502723"><ele>321.0</ele><time>2026-04-11T12:27:14Z</time></trkpt><trkpt lat="43.06598691519411" lon="11.500247886503729"><ele>319.25</ele><time>2026-04-11T12:27:15Z</time></trkpt><trkpt lat="43.06607475883322" lon="11.500191021148986"><ele>317.5</ele><time>2026-04-11T12:27:16Z</time></trkpt><trkpt lat="43.06626368577902" lon="11.500116562306605"><ele>315.75</ele><time>2026-04-11T12:27:18Z</time></trkpt><trkpt lat="43.06635658869509" lon="11.50008509320086"><ele>314.0</ele><time>2026-04-11T12:27:19Z</time></trkpt><trkpt lat="43.06644934875327" lon="11.500054771659837"><ele>314.0</ele><time>2026-04-11T12:27:20Z</time></trkpt><trkpt lat="43.066541426209724" lon="11.500025797757255"><ele>314.0</ele><time>2026-04-11T12:27:21Z</time></trkpt><trkpt lat="43.06663134665473" lon="11.499994258056669"><ele>314.0</ele><time>2026-04-11T12:27:22Z</time></trkpt><trkpt lat="43.06672074540863" lon="11.499962406252987"><ele>314.0</ele><time>2026-04-11T12:27:23Z</time></trkpt><trkpt lat="43.06680306670116" lon="11.499921208233648"><ele>314.0</ele><time>2026-04-11T12:27:24.001Z</time></trkpt><trkpt lat="43.06688438826236" lon="11.499871256300269"><ele>312.4</ele><time>2026-04-11T12:27:25Z</time></trkpt><trkpt lat="43.06696491460322" lon="11.499820592031817"><ele>310.79999999999995</ele><time>2026-04-11T12:27:26Z</time></trkpt><trkpt lat="43.06704708646959" lon="11.4997702832366"><ele>309.20000000000005</ele><time>2026-04-11T12:27:27Z</time></trkpt><trkpt lat="43.06712774568341" lon="11.499710603823482"><ele>307.6</ele><time>2026-04-11T12:27:28Z</time></trkpt><trkpt lat="43.06720920754522" lon="11.49965025615852"><ele>306.0</ele><time>2026-04-11T12:27:29Z</time></trkpt><trkpt lat="43.06729356993044" lon="11.49959460371867"><ele>305.6</ele><time>2026-04-11T12:27:30Z</time></trkpt><trkpt lat="43.0673784693719" lon="11.49953625182144"><ele>305.20000000000005</ele><time>2026-04-11T12:27:31Z</time></trkpt><trkpt lat="43.067463761090266" lon="11.499475784946483"><ele>304.79999999999995</ele><time>2026-04-11T12:27:32Z</time></trkpt><trkpt lat="43.06755155209177" lon="11.499415898366735"><ele>304.4</ele><time>2026-04-11T12:27:33Z</time></trkpt><trkpt lat="43.06764114506261" lon="11.49935778557311"><ele>304.0</ele><time>2026-04-11T12:27:34Z</time></trkpt><trkpt lat="43.06773460655996" lon="11.499309146333381"><ele>304.0</ele><time>2026-04-11T12:27:35Z</time></trkpt><trkpt lat="43.06782902006108" lon="11.499269127108413"><ele>304.0</ele><time>2026-04-11T12:27:36.001Z</time></trkpt><trkpt lat="43.067926073790346" lon="11.49923424166181"><ele>304.0</ele><time>2026-04-11T12:27:37.001Z</time></trkpt><trkpt lat="43.0681242293226" lon="11.499175413994546"><ele>304.0</ele><time>2026-04-11T12:27:39.001Z</time></trkpt><trkpt lat="43.068222322263765" lon="11.499144154365954"><ele>302.0</ele><time>2026-04-11T12:27:40.001Z</time></trkpt><trkpt lat="43.068316453696404" lon="11.499116095855529"><ele>300.0</ele><time>2026-04-11T12:27:41.001Z</time></trkpt><trkpt lat="43.068408529119466" lon="11.499086947752177"><ele>298.0</ele><time>2026-04-11T12:27:42.001Z</time></trkpt><trkpt lat="43.068500086975085" lon="11.499057456540301"><ele>296.0</ele><time>2026-04-11T12:27:43.001Z</time></trkpt><trkpt lat="43.068591808543474" lon="11.499027553596022"><ele>294.0</ele><time>2026-04-11T12:27:44.001Z</time></trkpt><trkpt lat="43.06868568649194" lon="11.49900073521389"><ele>294.0</ele><time>2026-04-11T12:27:45.001Z</time></trkpt><trkpt lat="43.06878195688742" lon="11.498973798681885"><ele>294.0</ele><time>2026-04-11T12:27:46.001Z</time></trkpt><trkpt lat="43.06887767220685" lon="11.498949800438078"><ele>294.0</ele><time>2026-04-11T12:27:47.001Z</time></trkpt><trkpt lat="43.068970367725406" lon="11.498913635328591"><ele>294.0</ele><time>2026-04-11T12:27:48.001Z</time></trkpt><trkpt lat="43.06905759670525" lon="11.498889934949917"><ele>294.0</ele><time>2026-04-11T12:27:49.001Z</time></trkpt><trkpt lat="43.06914405336712" lon="11.49887021762966"><ele>293.1666666666667</ele><time>2026-04-11T12:27:50.001Z</time></trkpt><trkpt lat="43.069230427930385" lon="11.498843372311997"><ele>292.3333333333333</ele><time>2026-04-11T12:27:51.001Z</time></trkpt><trkpt lat="43.0693166019912" lon="11.498813335967752"><ele>291.5</ele><time>2026-04-11T12:27:52.001Z</time></trkpt><trkpt lat="43.06940364893934" lon="11.498786283252693"><ele>290.66666666666663</ele><time>2026-04-11T12:27:53.001Z</time></trkpt><trkpt lat="43.06949047088327" lon="11.498759920215312"><ele>289.8333333333333</ele><time>2026-04-11T12:27:54.001Z</time></trkpt><trkpt lat="43.06957557365687" lon="11.498736068083534"><ele>289.0</ele><time>2026-04-11T12:27:55.001Z</time></trkpt><trkpt lat="43.06965945519208" lon="11.498715272722757"><ele>289.0</ele><time>2026-04-11T12:27:56.001Z</time></trkpt><trkpt lat="43.06974141427794" lon="11.498688915683708"><ele>289.0</ele><time>2026-04-11T12:27:57.001Z</time></trkpt><trkpt lat="43.069823777815195" lon="11.498659604542164"><ele>289.0</ele><time>2026-04-11T12:27:58.001Z</time></trkpt><trkpt lat="43.069989340509636" lon="11.498592797888668"><ele>289.0</ele><time>2026-04-11T12:28:00.001Z</time></trkpt><trkpt lat="43.07006959843333" lon="11.498556510121588"><ele>289.0</ele><time>2026-04-11T12:28:01.001Z</time></trkpt><trkpt lat="43.07015099394529" lon="11.498514731235943"><ele>288.3333333333333</ele><time>2026-04-11T12:28:02.001Z</time></trkpt><trkpt lat="43.07023511767602" lon="11.498476126877334"><ele>287.66666666666663</ele><time>2026-04-11T12:28:03.001Z</time></trkpt><trkpt lat="43.07031555276345" lon="11.498425806833929"><ele>287.0</ele><time>2026-04-11T12:28:04.001Z</time></trkpt><trkpt lat="43.07039265229331" lon="11.4983734016549"><ele>286.3333333333333</ele><time>2026-04-11T12:28:05.001Z</time></trkpt><trkpt lat="43.07046923633829" lon="11.498317030261704"><ele>285.6666666666667</ele><time>2026-04-11T12:28:06.001Z</time></trkpt><trkpt lat="43.07054215434237" lon="11.498260145579394"><ele>285.0</ele><time>2026-04-11T12:28:07.001Z</time></trkpt><trkpt lat="43.07061517747749" lon="11.498206903882718"><ele>285.0</ele><time>2026-04-11T12:28:08.001Z</time></trkpt><trkpt lat="43.07068360768971" lon="11.49815004972054"><ele>285.0</ele><time>2026-04-11T12:28:09.001Z</time></trkpt><trkpt lat="43.07075088436692" lon="11.498088028795216"><ele>285.0</ele><time>2026-04-11T12:28:10.001Z</time></trkpt><trkpt lat="43.07082210741911" lon="11.498032429657401"><ele>285.0</ele><time>2026-04-11T12:28:11.001Z</time></trkpt><trkpt lat="43.07089166886577" lon="11.497974480254927"><ele>285.0</ele><time>2026-04-11T12:28:12.001Z</time></trkpt><trkpt lat="43.07096689641438" lon="11.497923006726769"><ele>285.0</ele><time>2026-04-11T12:28:13.001Z</time></trkpt><trkpt lat="43.071040727940904" lon="11.497871410750504"><ele>283.6666666666667</ele><time>2026-04-11T12:28:14.001Z</time></trkpt><trkpt lat="43.07111461916882" lon="11.497814494059323"><ele>282.3333333333333</ele><time>2026-04-11T12:28:15.001Z</time></trkpt><trkpt lat="43.07118798383032" lon="11.497759065051646"><ele>281.0</ele><time>2026-04-11T12:28:16.001Z</time></trkpt><trkpt lat="43.071265944281606" lon="11.49770609676837"><ele>279.66666666666663</ele><time>2026-04-11T12:28:17.001Z</time></trkpt><trkpt lat="43.07134019555097" lon="11.497649562595878"><ele>278.3333333333333</ele><time>2026-04-11T12:28:18.001Z</time></trkpt><trkpt lat="43.07141313351388" lon="11.49758600578699"><ele>277.0</ele><time>2026-04-11T12:28:19.001Z</time></trkpt><trkpt lat="43.07157129837967" lon="11.49747166473966"><ele>277.6</ele><time>2026-04-11T12:28:21.001Z</time></trkpt><trkpt lat="43.07164964106108" lon="11.497411528416382"><ele>278.2</ele><time>2026-04-11T12:28:22.001Z</time></trkpt><trkpt lat="43.07172851878359" lon="11.49734915095254"><ele>278.8</ele><time>2026-04-11T12:28:23.001Z</time></trkpt><trkpt lat="43.07180847109373" lon="11.497287017030592"><ele>279.4</ele><time>2026-04-11T12:28:24.001Z</time></trkpt><trkpt lat="43.0718898222484" lon="11.497230638423517"><ele>280.0</ele><time>2026-04-11T12:28:25.001Z</time></trkpt><trkpt lat="43.071971682884985" lon="11.497167178574246"><ele>280.0</ele><time>2026-04-11T12:28:26.001Z</time></trkpt><trkpt lat="43.07205411283517" lon="11.497104048639157"><ele>280.0</ele><time>2026-04-11T12:28:27.001Z</time></trkpt><trkpt lat="43.07213563241727" lon="11.49704262282089"><ele>280.0</ele><time>2026-04-11T12:28:28.001Z</time></trkpt><trkpt lat="43.07222203754952" lon="11.496977999160965"><ele>280.0</ele><time>2026-04-11T12:28:29.001Z</time></trkpt><trkpt lat="43.07230563597238" lon="11.496911690614064"><ele>280.0</ele><time>2026-04-11T12:28:30.001Z</time></trkpt><trkpt lat="43.07239247885226" lon="11.496846421396063"><ele>279.2</ele><time>2026-04-11T12:28:31.001Z</time></trkpt><trkpt lat="43.072480034369995" lon="11.49677809495645"><ele>278.4</ele><time>2026-04-11T12:28:32.001Z</time></trkpt><trkpt lat="43.07257043602723" lon="11.496715036103208"><ele>277.6</ele><time>2026-04-11T12:28:33.001Z</time></trkpt><trkpt lat="43.072660596257336" lon="11.496651169862076"><ele>276.8</ele><time>2026-04-11T12:28:34.001Z</time></trkpt><trkpt lat="43.07275634700007" lon="11.496598406502741"><ele>276.0</ele><time>2026-04-11T12:28:35.001Z</time></trkpt><trkpt lat="43.07285472462784" lon="11.496549119042374"><ele>276.0</ele><time>2026-04-11T12:28:36.001Z</time></trkpt><trkpt lat="43.0729523066129" lon="11.496501442459255"><ele>276.0</ele><time>2026-04-11T12:28:37.001Z</time></trkpt><trkpt lat="43.07305013223507" lon="11.496453739307727"><ele>276.0</ele><time>2026-04-11T12:28:38.001Z</time></trkpt><trkpt lat="43.07314995975163" lon="11.496407745745167"><ele>276.0</ele><time>2026-04-11T12:28:39Z</time></trkpt><trkpt lat="43.07325041056889" lon="11.496362228264287"><ele>276.0</ele><time>2026-04-11T12:28:40Z</time></trkpt><trkpt lat="43.07345305076577" lon="11.496275481109834"><ele>273.8</ele><time>2026-04-11T12:28:42Z</time></trkpt><trkpt lat="43.07355526351652" lon="11.49622996635754"><ele>271.6</ele><time>2026-04-11T12:28:43Z</time></trkpt><trkpt lat="43.07365660039493" lon="11.496181572686423"><ele>269.4</ele><time>2026-04-11T12:28:44Z</time></trkpt><trkpt lat="43.07375585346255" lon="11.496127948373761"><ele>267.2</ele><time>2026-04-11T12:28:45Z</time></trkpt><trkpt lat="43.07385463315309" lon="11.496069847473917"><ele>265.0</ele><time>2026-04-11T12:28:46Z</time></trkpt><trkpt lat="43.07395331609329" lon="11.49601102435825"><ele>265.0</ele><time>2026-04-11T12:28:47Z</time></trkpt><trkpt lat="43.074044952941556" lon="11.495942336880388"><ele>265.0</ele><time>2026-04-11T12:28:48Z</time></trkpt><trkpt lat="43.074136175857014" lon="11.495871113107325"><ele>265.0</ele><time>2026-04-11T12:28:49Z</time></trkpt><trkpt lat="43.07422601719734" lon="11.495799990251367"><ele>265.0</ele><time>2026-04-11T12:28:50Z</time></trkpt><trkpt lat="43.07431375822965" lon="11.495725429430983"><ele>265.0</ele><time>2026-04-11T12:28:51Z</time></trkpt><trkpt lat="43.07439978010237" lon="11.495650641733961"><ele>264.8</ele><time>2026-04-11T12:28:52Z</time></trkpt><trkpt lat="43.074484022472745" lon="11.495573636226524"><ele>264.6</ele><time>2026-04-11T12:28:53Z</time></trkpt><trkpt lat="43.07456646349658" lon="11.495495246096628"><ele>264.4</ele><time>2026-04-11T12:28:54Z</time></trkpt><trkpt lat="43.07465571234023" lon="11.495429657737873"><ele>264.2</ele><time>2026-04-11T12:28:55Z</time></trkpt><trkpt lat="43.07474317389461" lon="11.495363273696137"><ele>264.0</ele><time>2026-04-11T12:28:56Z</time></trkpt><trkpt lat="43.07482531251794" lon="11.49528670540207"><ele>263.2</ele><time>2026-04-11T12:28:57Z</time></trkpt><trkpt lat="43.07491255717688" lon="11.495214977130527"><ele>262.4</ele><time>2026-04-11T12:28:58Z</time></trkpt><trkpt lat="43.074998625631636" lon="11.495146892821262"><ele>261.6</ele><time>2026-04-11T12:28:59Z</time></trkpt><trkpt lat="43.075085810056976" lon="11.495076700626102"><ele>260.8</ele><time>2026-04-11T12:29:00Z</time></trkpt><trkpt lat="43.0751724540872" lon="11.494999548577614"><ele>260.0</ele><time>2026-04-11T12:29:01Z</time></trkpt><trkpt lat="43.075346871907385" lon="11.494852342710635"><ele>259.6</ele><time>2026-04-11T12:29:03Z</time></trkpt><trkpt lat="43.07543631211149" lon="11.494777872016048"><ele>259.2</ele><time>2026-04-11T12:29:04Z</time></trkpt><trkpt lat="43.075521527588386" lon="11.494696014807534"><ele>258.8</ele><time>2026-04-11T12:29:05Z</time></trkpt><trkpt lat="43.07560453049129" lon="11.494615958516956"><ele>258.4</ele><time>2026-04-11T12:29:06Z</time></trkpt><trkpt lat="43.07568773274142" lon="11.494540294252907"><ele>258.0</ele><time>2026-04-11T12:29:07Z</time></trkpt><trkpt lat="43.0757691349178" lon="11.49446318628447"><ele>257.0</ele><time>2026-04-11T12:29:08Z</time></trkpt><trkpt lat="43.07584744363223" lon="11.494389233443277"><ele>256.0</ele><time>2026-04-11T12:29:09Z</time></trkpt><trkpt lat="43.075922336744526" lon="11.494308225446066"><ele>255.0</ele><time>2026-04-11T12:29:10Z</time></trkpt><trkpt lat="43.07599341768323" lon="11.49422521103429"><ele>254.0</ele><time>2026-04-11T12:29:11Z</time></trkpt><trkpt lat="43.07607298756156" lon="11.494152487695807"><ele>253.0</ele><time>2026-04-11T12:29:12Z</time></trkpt><trkpt lat="43.07615015411966" lon="11.49407595247141"><ele>253.0</ele><time>2026-04-11T12:29:13Z</time></trkpt><trkpt lat="43.07622347310552" lon="11.493996978764766"><ele>253.0</ele><time>2026-04-11T12:29:14Z</time></trkpt><trkpt lat="43.07629985135988" lon="11.493918320363036"><ele>253.0</ele><time>2026-04-11T12:29:15Z</time></trkpt><trkpt lat="43.07637405223104" lon="11.493838308852636"><ele>253.0</ele><time>2026-04-11T12:29:16Z</time></trkpt><trkpt lat="43.07645108791807" lon="11.493763034350035"><ele>253.0</ele><time>2026-04-11T12:29:17Z</time></trkpt><trkpt lat="43.07652596037067" lon="11.49368605559419"><ele>252.8</ele><time>2026-04-11T12:29:18Z</time></trkpt><trkpt lat="43.07660200235685" lon="11.493612588925528"><ele>252.60000000000002</ele><time>2026-04-11T12:29:19Z</time></trkpt><trkpt lat="43.07667465263136" lon="11.493533561118108"><ele>252.39999999999998</ele><time>2026-04-11T12:29:20Z</time></trkpt><trkpt lat="43.0767483335447" lon="11.49345562470493"><ele>252.2</ele><time>2026-04-11T12:29:21Z</time></trkpt><trkpt lat="43.07682231894675" lon="11.49338076066871"><ele>252.0</ele><time>2026-04-11T12:29:22Z</time></trkpt><trkpt lat="43.07697821320019" lon="11.493244851701517"><ele>251.83333333333334</ele><time>2026-04-11T12:29:24Z</time></trkpt><trkpt lat="43.07706004165376" lon="11.493185042168484"><ele>251.66666666666669</ele><time>2026-04-11T12:29:25Z</time></trkpt><trkpt lat="43.07714395674629" lon="11.493131659350826"><ele>251.5</ele><time>2026-04-11T12:29:26Z</time></trkpt><trkpt lat="43.07722632217788" lon="11.493080327653969"><ele>251.33333333333334</ele><time>2026-04-11T12:29:27Z</time></trkpt><trkpt lat="43.07730862439909" lon="11.493035878496242"><ele>251.16666666666669</ele><time>2026-04-11T12:29:28Z</time></trkpt><trkpt lat="43.07738353555937" lon="11.492997162897648"><ele>251.0</ele><time>2026-04-11T12:29:29Z</time></trkpt><trkpt lat="43.07745269759833" lon="11.492960186142843"><ele>250.83333333333334</ele><time>2026-04-11T12:29:30Z</time></trkpt><trkpt lat="43.07751456765874" lon="11.492918872892977"><ele>250.66666666666669</ele><time>2026-04-11T12:29:31Z</time></trkpt><trkpt lat="43.077573347850056" lon="11.49288249194757"><ele>250.5</ele><time>2026-04-11T12:29:32Z</time></trkpt><trkpt lat="43.07763648777297" lon="11.492872181657539"><ele>250.33333333333331</ele><time>2026-04-11T12:29:33Z</time></trkpt><trkpt lat="43.07774668676483" lon="11.492911415788402"><ele>250.16666666666666</ele><time>2026-04-11T12:29:35Z</time></trkpt><trkpt lat="43.07780458701656" lon="11.492972348703447"><ele>250.0</ele><time>2026-04-11T12:29:37Z</time></trkpt><trkpt lat="43.07785748435219" lon="11.49304650451436"><ele>250.0</ele><time>2026-04-11T12:29:40Z</time></trkpt><trkpt lat="43.077927811170724" lon="11.493117923610557"><ele>250.0</ele><time>2026-04-11T12:29:43.001Z</time></trkpt><trkpt lat="43.07803186425782" lon="11.493240623094776"><ele>250.0</ele><time>2026-04-11T12:29:47.001Z</time></trkpt><trkpt lat="43.0780848046428" lon="11.493290758260983"><ele>250.0</ele><time>2026-04-11T12:29:49.001Z</time></trkpt><trkpt lat="43.07815378642841" lon="11.49336193500307"><ele>250.0</ele><time>2026-04-11T12:29:52.001Z</time></trkpt><trkpt lat="43.07821782833043" lon="11.493446335495074"><ele>250.4</ele><time>2026-04-11T12:29:55.001Z</time></trkpt><trkpt lat="43.078277294866396" lon="11.493537072815199"><ele>250.8</ele><time>2026-04-11T12:29:58.001Z</time></trkpt><trkpt lat="43.078338619897764" lon="11.493628837073311"><ele>251.2</ele><time>2026-04-11T12:30:01.001Z</time></trkpt><trkpt lat="43.078402800536686" lon="11.493723373730733"><ele>251.6</ele><time>2026-04-11T12:30:04.001Z</time></trkpt><trkpt lat="43.078491844074044" lon="11.493862756959363"><ele>252.0</ele><time>2026-04-11T12:30:08.001Z</time></trkpt><trkpt lat="43.07853576858209" lon="11.493932106549506"><ele>252.33333333333334</ele><time>2026-04-11T12:30:10.001Z</time></trkpt><trkpt lat="43.078579209754025" lon="11.494000613943744"><ele>252.66666666666669</ele><time>2026-04-11T12:30:12.001Z</time></trkpt><trkpt lat="43.07862959996625" lon="11.494100229327833"><ele>253.0</ele><time>2026-04-11T12:30:15.001Z</time></trkpt><trkpt lat="43.078679899373554" lon="11.494198686236304"><ele>253.33333333333334</ele><time>2026-04-11T12:30:18.001Z</time></trkpt><trkpt lat="43.0787233202513" lon="11.494298932179243"><ele>253.66666666666669</ele><time>2026-04-11T12:30:21.001Z</time></trkpt><trkpt lat="43.07875657220295" lon="11.494396357947183"><ele>254.0</ele><time>2026-04-11T12:30:24.001Z</time></trkpt><trkpt lat="43.078783168820586" lon="11.494486856583068"><ele>254.0</ele><time>2026-04-11T12:30:27.001Z</time></trkpt><trkpt lat="43.07885315726809" lon="11.494673139413182"><ele>253.99999999999997</ele><time>2026-04-11T12:30:33.001Z</time></trkpt><trkpt lat="43.078880235448906" lon="11.494753573590517"><ele>253.99999999999997</ele><time>2026-04-11T12:30:36.001Z</time></trkpt><trkpt lat="43.078907970009745" lon="11.494858267968954"><ele>254.0</ele><time>2026-04-11T12:30:40.001Z</time></trkpt><trkpt lat="43.07894257622048" lon="11.494959124382323"><ele>254.0</ele><time>2026-04-11T12:30:44.001Z</time></trkpt><trkpt lat="43.07898022011102" lon="11.495059086033095"><ele>254.0</ele><time>2026-04-11T12:30:48Z</time></trkpt><trkpt lat="43.079041343184414" lon="11.495247786359602"><ele>253.99999999999997</ele><time>2026-04-11T12:30:56Z</time></trkpt><trkpt lat="43.07906865585128" lon="11.495329431182636"><ele>253.99999999999997</ele><time>2026-04-11T12:31:00Z</time></trkpt><trkpt lat="43.079105070390945" lon="11.495417873590599"><ele>254.0</ele><time>2026-04-11T12:31:05Z</time></trkpt><trkpt lat="43.07914588893115" lon="11.495503128838099"><ele>254.0</ele><time>2026-04-11T12:31:10Z</time></trkpt><trkpt lat="43.0792071031481" lon="11.495704950311321"><ele>255.33333333333334</ele><time>2026-04-11T12:31:21Z</time></trkpt><trkpt lat="43.07923427168396" lon="11.495794955692247"><ele>256.6666666666667</ele><time>2026-04-11T12:31:26Z</time></trkpt><trkpt lat="43.07926983976515" lon="11.495898085048534"><ele>258.0</ele><time>2026-04-11T12:31:31Z</time></trkpt><trkpt lat="43.079330445729205" lon="11.496072912160605"><ele>259.3333333333333</ele><time>2026-04-11T12:31:40Z</time></trkpt><trkpt lat="43.079363223115436" lon="11.496161767707278"><ele>260.66666666666663</ele><time>2026-04-11T12:31:44Z</time></trkpt><trkpt lat="43.079388180318716" lon="11.49624162605926"><ele>262.0</ele><time>2026-04-11T12:31:48Z</time></trkpt><trkpt lat="43.07942053019497" lon="11.49632299792023"><ele>262.5</ele><time>2026-04-11T12:31:53Z</time></trkpt><trkpt lat="43.079482737401776" lon="11.496501822292542"><ele>263.0</ele><time>2026-04-11T12:32:01Z</time></trkpt><trkpt lat="43.07949761789711" lon="11.496586661742937"><ele>263.5</ele><time>2026-04-11T12:32:05Z</time></trkpt><trkpt lat="43.07951303927597" lon="11.49667634429209"><ele>264.0</ele><time>2026-04-11T12:32:09.001Z</time></trkpt><trkpt lat="43.07953259269305" lon="11.496774784126595"><ele>264.5</ele><time>2026-04-11T12:32:13.001Z</time></trkpt><trkpt lat="43.0795360321286" lon="11.496862018565484"><ele>265.0</ele><time>2026-04-11T12:32:16.001Z</time></trkpt><trkpt lat="43.079556939269025" lon="11.497049327568241"><ele>264.66666666666663</ele><time>2026-04-11T12:32:21.001Z</time></trkpt><trkpt lat="43.07957284668485" lon="11.49718787855146"><ele>264.3333333333333</ele><time>2026-04-11T12:32:23.001Z</time></trkpt><trkpt lat="43.07960426718375" lon="11.49728867787119"><ele>264.0</ele><time>2026-04-11T12:32:25.001Z</time></trkpt><trkpt lat="43.07963422030656" lon="11.497386979432473"><ele>263.6666666666667</ele><time>2026-04-11T12:32:27.001Z</time></trkpt><trkpt lat="43.07965751537464" lon="11.49749196906412"><ele>263.33333333333337</ele><time>2026-04-11T12:32:29.001Z</time></trkpt><trkpt lat="43.07968853837192" lon="11.497600148736433"><ele>263.0</ele><time>2026-04-11T12:32:31.001Z</time></trkpt><trkpt lat="43.0797235217124" lon="11.49770479554712"><ele>263.0</ele><time>2026-04-11T12:32:33.001Z</time></trkpt><trkpt lat="43.07976296132541" lon="11.497804234638538"><ele>263.0</ele><time>2026-04-11T12:32:35.001Z</time></trkpt><trkpt lat="43.07979331801851" lon="11.497899465250798"><ele>263.0</ele><time>2026-04-11T12:32:37.001Z</time></trkpt><trkpt lat="43.07983570935148" lon="11.498087017631192"><ele>263.0</ele><time>2026-04-11T12:32:41.001Z</time></trkpt><trkpt lat="43.07986516474448" lon="11.498173323895418"><ele>263.0</ele><time>2026-04-11T12:32:43.001Z</time></trkpt><trkpt lat="43.079890796085" lon="11.49825425931049"><ele>263.0</ele><time>2026-04-11T12:32:45.001Z</time></trkpt><trkpt lat="43.07992797608777" lon="11.498365430352035"><ele>264.25</ele><time>2026-04-11T12:32:48.001Z</time></trkpt><trkpt lat="43.079971413200006" lon="11.49848427725309"><ele>265.5</ele><time>2026-04-11T12:32:51Z</time></trkpt><trkpt lat="43.080016376482696" lon="11.498583510092715"><ele>266.75</ele><time>2026-04-11T12:32:54Z</time></trkpt><trkpt lat="43.080093546616034" lon="11.498708169980254"><ele>268.0</ele><time>2026-04-11T12:32:58Z</time></trkpt><trkpt lat="43.080199796197604" lon="11.498874165845262"><ele>268.0</ele><time>2026-04-11T12:33:01Z</time></trkpt><trkpt lat="43.080268816246054" lon="11.49896347356102"><ele>268.0</ele><time>2026-04-11T12:33:03Z</time></trkpt><trkpt lat="43.08032561377628" lon="11.499072521457505"><ele>268.0</ele><time>2026-04-11T12:33:05Z</time></trkpt><trkpt lat="43.080396582286454" lon="11.49915843463218"><ele>268.0</ele><time>2026-04-11T12:33:07Z</time></trkpt><trkpt lat="43.0804606879519" lon="11.499253363968169"><ele>268.0</ele><time>2026-04-11T12:33:09Z</time></trkpt><trkpt lat="43.08051543074934" lon="11.499351529156199"><ele>268.0</ele><time>2026-04-11T12:33:11Z</time></trkpt><trkpt lat="43.08059186937287" lon="11.499448505794842"><ele>268.0</ele><time>2026-04-11T12:33:13Z</time></trkpt><trkpt lat="43.08065594939943" lon="11.499541665214894"><ele>268.0</ele><time>2026-04-11T12:33:15Z</time></trkpt><trkpt lat="43.080716846803824" lon="11.499626035626724"><ele>268.0</ele><time>2026-04-11T12:33:17Z</time></trkpt><trkpt lat="43.08078199493247" lon="11.499729645942638"><ele>268.0</ele><time>2026-04-11T12:33:19Z</time></trkpt><trkpt lat="43.0809102953654" lon="11.499917535304668"><ele>268.0</ele><time>2026-04-11T12:33:23Z</time></trkpt><trkpt lat="43.080970192368355" lon="11.499985497098033"><ele>268.0</ele><time>2026-04-11T12:33:25Z</time></trkpt><trkpt lat="43.08100528562763" lon="11.500069979538189"><ele>268.0</ele><time>2026-04-11T12:33:27Z</time></trkpt><trkpt lat="43.08107717288311" lon="11.500148081739635"><ele>268.0</ele><time>2026-04-11T12:33:29Z</time></trkpt><trkpt lat="43.08115596537152" lon="11.500222228094962"><ele>268.0</ele><time>2026-04-11T12:33:31Z</time></trkpt><trkpt lat="43.0812499408698" lon="11.500254870728872"><ele>268.0</ele><time>2026-04-11T12:33:33Z</time></trkpt><trkpt lat="43.08133093261378" lon="11.500282665393131"><ele>268.0</ele><time>2026-04-11T12:33:35Z</time></trkpt><trkpt lat="43.08140786349866" lon="11.500314602544098"><ele>268.0</ele><time>2026-04-11T12:33:37Z</time></trkpt><trkpt lat="43.08151919697669" lon="11.500364608788198"><ele>268.0</ele><time>2026-04-11T12:33:40Z</time></trkpt><trkpt lat="43.08180183032079" lon="11.500429679612953"><ele>267.8</ele><time>2026-04-11T12:33:45Z</time></trkpt><trkpt lat="43.08191112533365" lon="11.50045572682477"><ele>267.6</ele><time>2026-04-11T12:33:47Z</time></trkpt><trkpt lat="43.08201688981044" lon="11.500473501753206"><ele>267.4</ele><time>2026-04-11T12:33:49Z</time></trkpt><trkpt lat="43.082114854884594" lon="11.5005128599771"><ele>267.2</ele><time>2026-04-11T12:33:51Z</time></trkpt><trkpt lat="43.08221493428665" lon="11.500537892058441"><ele>267.0</ele><time>2026-04-11T12:33:53Z</time></trkpt><trkpt lat="43.08230017695644" lon="11.500561193820067"><ele>267.0</ele><time>2026-04-11T12:33:55Z</time></trkpt><trkpt lat="43.08237946064055" lon="11.500612369364628"><ele>267.0</ele><time>2026-04-11T12:33:57Z</time></trkpt><trkpt lat="43.08247043299944" lon="11.500635749828788"><ele>267.0</ele><time>2026-04-11T12:33:59Z</time></trkpt><trkpt lat="43.08255323999455" lon="11.500681454125054"><ele>267.0</ele><time>2026-04-11T12:34:01Z</time></trkpt><trkpt lat="43.082724229765155" lon="11.50077953773381"><ele>267.6</ele><time>2026-04-11T12:34:05Z</time></trkpt><trkpt lat="43.08282462976543" lon="11.500837512041768"><ele>268.2</ele><time>2026-04-11T12:34:07Z</time></trkpt><trkpt lat="43.08294190100125" lon="11.500895165216109"><ele>268.8</ele><time>2026-04-11T12:34:09Z</time></trkpt><trkpt lat="43.08305852801452" lon="11.500971822959142"><ele>269.4</ele><time>2026-04-11T12:34:11Z</time></trkpt><trkpt lat="43.083118571636156" lon="11.501012720082297"><ele>270.0</ele><time>2026-04-11T12:34:12Z</time></trkpt><trkpt lat="43.0831826638833" lon="11.501048254397968"><ele>270.0</ele><time>2026-04-11T12:34:13Z</time></trkpt><trkpt lat="43.08325013103711" lon="11.50108494814328"><ele>270.0</ele><time>2026-04-11T12:34:14Z</time></trkpt><trkpt lat="43.08331759641572" lon="11.501122681120773"><ele>270.0</ele><time>2026-04-11T12:34:15Z</time></trkpt><trkpt lat="43.083383864598325" lon="11.501161918762419"><ele>270.0</ele><time>2026-04-11T12:34:16Z</time></trkpt><trkpt lat="43.08345182947412" lon="11.501209483958169"><ele>270.0</ele><time>2026-04-11T12:34:17Z</time></trkpt><trkpt lat="43.08352004492929" lon="11.501250154675144"><ele>270.0</ele><time>2026-04-11T12:34:18Z</time></trkpt><trkpt lat="43.083592763426815" lon="11.501287208090881"><ele>270.0</ele><time>2026-04-11T12:34:19Z</time></trkpt><trkpt lat="43.083666116690964" lon="11.501325959426646"><ele>269.4</ele><time>2026-04-11T12:34:20Z</time></trkpt><trkpt lat="43.08374097435765" lon="11.501364303513327"><ele>268.8</ele><time>2026-04-11T12:34:21Z</time></trkpt><trkpt lat="43.08381244409265" lon="11.501408373858728"><ele>268.2</ele><time>2026-04-11T12:34:22Z</time></trkpt><trkpt lat="43.0839536385689" lon="11.501492158034864"><ele>267.6</ele><time>2026-04-11T12:34:24Z</time></trkpt><trkpt lat="43.08402019689912" lon="11.501525220803522"><ele>267.0</ele><time>2026-04-11T12:34:25Z</time></trkpt><trkpt lat="43.0840887879865" lon="11.501557280681137"><ele>267.14285714285717</ele><time>2026-04-11T12:34:26Z</time></trkpt><trkpt lat="43.08415213277347" lon="11.501601778611533"><ele>267.2857142857143</ele><time>2026-04-11T12:34:27Z</time></trkpt><trkpt lat="43.08420730489561" lon="11.501662866574376"><ele>267.42857142857144</ele><time>2026-04-11T12:34:28Z</time></trkpt><trkpt lat="43.08424891007561" lon="11.501734350962963"><ele>267.57142857142856</ele><time>2026-04-11T12:34:29Z</time></trkpt><trkpt lat="43.08426708606385" lon="11.501818802990167"><ele>267.7142857142857</ele><time>2026-04-11T12:34:30Z</time></trkpt><trkpt lat="43.08425709771466" lon="11.501912843356271"><ele>267.8571428571429</ele><time>2026-04-11T12:34:31Z</time></trkpt><trkpt lat="43.08422789840039" lon="11.502003219414805"><ele>268.0</ele><time>2026-04-11T12:34:32Z</time></trkpt><trkpt lat="43.08419248692246" lon="11.502084624410648"><ele>268.0</ele><time>2026-04-11T12:34:33Z</time></trkpt><trkpt lat="43.084161909880024" lon="11.502167422272409"><ele>268.0</ele><time>2026-04-11T12:34:34Z</time></trkpt><trkpt lat="43.084136799323765" lon="11.502252788577422"><ele>268.0</ele><time>2026-04-11T12:34:35Z</time></trkpt><trkpt lat="43.08411289276881" lon="11.502336946421014"><ele>268.0</ele><time>2026-04-11T12:34:36Z</time></trkpt><trkpt lat="43.08409309434859" lon="11.502420716633779"><ele>268.0</ele><time>2026-04-11T12:34:37Z</time></trkpt><trkpt lat="43.08407053195854" lon="11.502503146629525"><ele>268.0</ele><time>2026-04-11T12:34:38Z</time></trkpt><trkpt lat="43.08404124909852" lon="11.502656532051903"><ele>268.0</ele><time>2026-04-11T12:34:40Z</time></trkpt><trkpt lat="43.08401802113609" lon="11.502787187083355"><ele>268.0</ele><time>2026-04-11T12:34:42Z</time></trkpt><trkpt lat="43.08401772172903" lon="11.502894660449538"><ele>268.0</ele><time>2026-04-11T12:34:44Z</time></trkpt><trkpt lat="43.08404959732353" lon="11.503108966246549"><ele>268.0</ele><time>2026-04-11T12:34:49.001Z</time></trkpt><trkpt lat="43.08405403023224" lon="11.50319701252441"><ele>268.0</ele><time>2026-04-11T12:34:52.001Z</time></trkpt><trkpt lat="43.08406738633785" lon="11.50330137787583"><ele>268.0</ele><time>2026-04-11T12:34:56Z</time></trkpt><trkpt lat="43.084061998792315" lon="11.5033954544947"><ele>268.0</ele><time>2026-04-11T12:35:00Z</time></trkpt><trkpt lat="43.08406573577185" lon="11.503488255209938"><ele>269.0</ele><time>2026-04-11T12:35:04Z</time></trkpt><trkpt lat="43.0840497919082" lon="11.503584598167581"><ele>270.0</ele><time>2026-04-11T12:35:09Z</time></trkpt><trkpt lat="43.084004912875365" lon="11.503784318424703"><ele>271.0</ele><time>2026-04-11T12:35:18Z</time></trkpt><trkpt lat="43.08396361910364" lon="11.503854165558069"><ele>272.0</ele><time>2026-04-11T12:35:22Z</time></trkpt><trkpt lat="43.08393530486962" lon="11.503935430370479"><ele>273.0</ele><time>2026-04-11T12:35:26Z</time></trkpt><trkpt lat="43.08389481677587" lon="11.504025945292373"><ele>274.0</ele><time>2026-04-11T12:35:31Z</time></trkpt><trkpt lat="43.083807294311306" lon="11.5041944984244"><ele>274.8333333333333</ele><time>2026-04-11T12:35:40Z</time></trkpt><trkpt lat="43.08375520380215" lon="11.504245397178407"><ele>275.66666666666663</ele><time>2026-04-11T12:35:44Z</time></trkpt><trkpt lat="43.08368862530864" lon="11.504283698555007"><ele>276.5</ele><time>2026-04-11T12:35:49Z</time></trkpt><trkpt lat="43.08362510430361" lon="11.50429500602057"><ele>277.3333333333333</ele><time>2026-04-11T12:35:53Z</time></trkpt><trkpt lat="43.08347496612481" lon="11.50425924963315"><ele>278.1666666666667</ele><time>2026-04-11T12:36:02Z</time></trkpt><trkpt lat="43.083406567761344" lon="11.504249388449882"><ele>279.0</ele><time>2026-04-11T12:36:07Z</time></trkpt><trkpt lat="43.08334248603968" lon="11.504232962265348"><ele>280.5</ele><time>2026-04-11T12:36:11Z</time></trkpt><trkpt lat="43.083256724232335" lon="11.504209742772783"><ele>282.0</ele><time>2026-04-11T12:36:16Z</time></trkpt><trkpt lat="43.08311756163164" lon="11.504232187285886"><ele>283.5</ele><time>2026-04-11T12:36:24Z</time></trkpt><trkpt lat="43.08305299029367" lon="11.504243101206912"><ele>285.0</ele><time>2026-04-11T12:36:28Z</time></trkpt><trkpt lat="43.08299697605917" lon="11.504285861215335"><ele>286.5</ele><time>2026-04-11T12:36:32Z</time></trkpt><trkpt lat="43.082950809654264" lon="11.504352191745433"><ele>288.0</ele><time>2026-04-11T12:36:36Z</time></trkpt><trkpt lat="43.08290420598033" lon="11.504424214297941"><ele>288.0</ele><time>2026-04-11T12:36:41Z</time></trkpt><trkpt lat="43.08282650882147" lon="11.504575942159178"><ele>288.0</ele><time>2026-04-11T12:36:49Z</time></trkpt><trkpt lat="43.08277941206979" lon="11.504650755749184"><ele>288.0</ele><time>2026-04-11T12:36:54Z</time></trkpt><trkpt lat="43.08272565096896" lon="11.504744383232776"><ele>288.0</ele><time>2026-04-11T12:36:59Z</time></trkpt><trkpt lat="43.08268574385726" lon="11.504819706983671"><ele>288.0</ele><time>2026-04-11T12:37:04Z</time></trkpt><trkpt lat="43.082593957260436" lon="11.504976662021566"><ele>288.8333333333333</ele><time>2026-04-11T12:37:13Z</time></trkpt><trkpt lat="43.08254564071676" lon="11.505041829290462"><ele>289.6666666666667</ele><time>2026-04-11T12:37:17Z</time></trkpt><trkpt lat="43.082509330278675" lon="11.505120930613517"><ele>290.5</ele><time>2026-04-11T12:37:22Z</time></trkpt><trkpt lat="43.082466859440466" lon="11.505193375390796"><ele>291.33333333333337</ele><time>2026-04-11T12:37:26Z</time></trkpt><trkpt lat="43.08238544543685" lon="11.505362954676553"><ele>292.1666666666667</ele><time>2026-04-11T12:37:34Z</time></trkpt><trkpt lat="43.08234247109084" lon="11.505435229681678"><ele>293.0</ele><time>2026-04-11T12:37:38Z</time></trkpt><trkpt lat="43.08230010011214" lon="11.505504419339387"><ele>294.4</ele><time>2026-04-11T12:37:41Z</time></trkpt><trkpt lat="43.082250045022285" lon="11.505597959712745"><ele>295.8</ele><time>2026-04-11T12:37:44Z</time></trkpt><trkpt lat="43.08219800277278" lon="11.505676525821208"><ele>297.2</ele><time>2026-04-11T12:37:48Z</time></trkpt><trkpt lat="43.08209552109072" lon="11.50583004939031"><ele>298.6</ele><time>2026-04-11T12:37:53Z</time></trkpt><trkpt lat="43.08204901085639" lon="11.505910559900263"><ele>300.0</ele><time>2026-04-11T12:37:56Z</time></trkpt><trkpt lat="43.08199935304126" lon="11.505987589078073"><ele>300.0</ele><time>2026-04-11T12:37:59Z</time></trkpt><trkpt lat="43.081960193920786" lon="11.506065264119954"><ele>300.0</ele><time>2026-04-11T12:38:02Z</time></trkpt><trkpt lat="43.08192030729405" lon="11.506136842885837"><ele>300.0</ele><time>2026-04-11T12:38:06Z</time></trkpt><trkpt lat="43.081877408215625" lon="11.506211436097933"><ele>300.0</ele><time>2026-04-11T12:38:10Z</time></trkpt><trkpt lat="43.08179454729993" lon="11.506364615846822"><ele>300.0</ele><time>2026-04-11T12:38:18Z</time></trkpt><trkpt lat="43.081747543377595" lon="11.506431774370345"><ele>300.0</ele><time>2026-04-11T12:38:22Z</time></trkpt><trkpt lat="43.08170384754516" lon="11.506504370200432"><ele>300.0</ele><time>2026-04-11T12:38:26Z</time></trkpt><trkpt lat="43.08166120147733" lon="11.506581908547735"><ele>300.0</ele><time>2026-04-11T12:38:30Z</time></trkpt><trkpt lat="43.081618965687056" lon="11.506664539516825"><ele>300.0</ele><time>2026-04-11T12:38:34Z</time></trkpt><trkpt lat="43.08153322327266" lon="11.50681227838182"><ele>300.0</ele><time>2026-04-11T12:38:41Z</time></trkpt><trkpt lat="43.08149095878319" lon="11.506899511082874"><ele>300.0</ele><time>2026-04-11T12:38:44Z</time></trkpt><trkpt lat="43.08143193906169" lon="11.506979109104925"><ele>300.0</ele><time>2026-04-11T12:38:46Z</time></trkpt><trkpt lat="43.08137958757997" lon="11.507045674829623"><ele>301.1666666666667</ele><time>2026-04-11T12:38:48Z</time></trkpt><trkpt lat="43.081345635393575" lon="11.507119808998196"><ele>302.3333333333333</ele><time>2026-04-11T12:38:51Z</time></trkpt><trkpt lat="43.08130989177236" lon="11.50719166011372"><ele>303.5</ele><time>2026-04-11T12:38:53Z</time></trkpt><trkpt lat="43.08126473948476" lon="11.507268433773039"><ele>304.66666666666663</ele><time>2026-04-11T12:38:55Z</time></trkpt><trkpt lat="43.0811641261451" lon="11.507445976350814"><ele>305.8333333333333</ele><time>2026-04-11T12:38:59Z</time></trkpt><trkpt lat="43.081123871075626" lon="11.507517406742256"><ele>307.0</ele><time>2026-04-11T12:39:01.001Z</time></trkpt><trkpt lat="43.081085291331924" lon="11.507585538353196"><ele>307.0</ele><time>2026-04-11T12:39:04.001Z</time></trkpt><trkpt lat="43.08103606769849" lon="11.507669774991108"><ele>307.0</ele><time>2026-04-11T12:39:07.001Z</time></trkpt><trkpt lat="43.080999920803" lon="11.507744105016293"><ele>307.0</ele><time>2026-04-11T12:39:09Z</time></trkpt><trkpt lat="43.08094583680716" lon="11.507822683551778"><ele>307.0</ele><time>2026-04-11T12:39:12Z</time></trkpt><trkpt lat="43.0809042889958" lon="11.507912965889762"><ele>307.0</ele><time>2026-04-11T12:39:15Z</time></trkpt><trkpt lat="43.08085176067536" lon="11.50800148354691"><ele>307.0</ele><time>2026-04-11T12:39:18Z</time></trkpt><trkpt lat="43.08075068579608" lon="11.508189629887127"><ele>307.0</ele><time>2026-04-11T12:39:24Z</time></trkpt><trkpt lat="43.08069128660089" lon="11.508284888409046"><ele>307.0</ele><time>2026-04-11T12:39:27Z</time></trkpt><trkpt lat="43.080651811621735" lon="11.508352624699672"><ele>307.0</ele><time>2026-04-11T12:39:29Z</time></trkpt><trkpt lat="43.080592605054605" lon="11.50844536644793"><ele>307.0</ele><time>2026-04-11T12:39:32Z</time></trkpt><trkpt lat="43.08053232828707" lon="11.508552232442112"><ele>307.0</ele><time>2026-04-11T12:39:35Z</time></trkpt><trkpt lat="43.08046986609512" lon="11.508663300720947"><ele>307.0</ele><time>2026-04-11T12:39:37Z</time></trkpt><trkpt lat="43.08040967984519" lon="11.508786735030535"><ele>306.66666666666663</ele><time>2026-04-11T12:39:39Z</time></trkpt><trkpt lat="43.080314642496894" lon="11.508997907964694"><ele>306.3333333333333</ele><time>2026-04-11T12:39:42Z</time></trkpt><trkpt lat="43.08027659052081" lon="11.509074048725278"><ele>306.0</ele><time>2026-04-11T12:39:43Z</time></trkpt><trkpt lat="43.08023983567338" lon="11.509149345148668"><ele>305.6666666666667</ele><time>2026-04-11T12:39:44Z</time></trkpt><trkpt lat="43.08020453839521" lon="11.509229229915933"><ele>305.33333333333337</ele><time>2026-04-11T12:39:45Z</time></trkpt><trkpt lat="43.080172548133895" lon="11.509304030651553"><ele>305.0</ele><time>2026-04-11T12:39:46Z</time></trkpt><trkpt lat="43.08011515086656" lon="11.509450973339343"><ele>305.6</ele><time>2026-04-11T12:39:48Z</time></trkpt><trkpt lat="43.080059313225675" lon="11.509588468588902"><ele>306.2</ele><time>2026-04-11T12:39:50Z</time></trkpt><trkpt lat="43.080008386716806" lon="11.509725607339739"><ele>306.8</ele><time>2026-04-11T12:39:52Z</time></trkpt><trkpt lat="43.079965105254715" lon="11.509841850986604"><ele>307.4</ele><time>2026-04-11T12:39:54Z</time></trkpt><trkpt lat="43.07993375552908" lon="11.509939510140347"><ele>308.0</ele><time>2026-04-11T12:39:56Z</time></trkpt><trkpt lat="43.079917106264226" lon="11.510033000987299"><ele>306.33333333333337</ele><time>2026-04-11T12:39:58Z</time></trkpt><trkpt lat="43.07991178468818" lon="11.510119226085655"><ele>304.6666666666667</ele><time>2026-04-11T12:40:00Z</time></trkpt><trkpt lat="43.07990609994929" lon="11.51031276356342"><ele>303.0</ele><time>2026-04-11T12:40:06Z</time></trkpt><trkpt lat="43.07991656724011" lon="11.510418388701577"><ele>301.3333333333333</ele><time>2026-04-11T12:40:09Z</time></trkpt><trkpt lat="43.0799209037915" lon="11.510532951900041"><ele>299.66666666666663</ele><time>2026-04-11T12:40:12Z</time></trkpt><trkpt lat="43.07992385293675" lon="11.510632027458001"><ele>298.0</ele><time>2026-04-11T12:40:15Z</time></trkpt><trkpt lat="43.079932514932274" lon="11.510745031817914"><ele>300.4</ele><time>2026-04-11T12:40:18Z</time></trkpt><trkpt lat="43.079947435108856" lon="11.51085510786965"><ele>302.8</ele><time>2026-04-11T12:40:21Z</time></trkpt><trkpt lat="43.07996931148343" lon="11.511098382851959"><ele>305.2</ele><time>2026-04-11T12:40:27Z</time></trkpt><trkpt lat="43.07998272645044" lon="11.511190652684194"><ele>307.6</ele><time>2026-04-11T12:40:29Z</time></trkpt><trkpt lat="43.08000367565921" lon="11.511294179950193"><ele>310.0</ele><time>2026-04-11T12:40:31Z</time></trkpt><trkpt lat="43.08002724677212" lon="11.511380142207923"><ele>310.0</ele><time>2026-04-11T12:40:33Z</time></trkpt><trkpt lat="43.08006534424702" lon="11.511489253000542"><ele>310.0</ele><time>2026-04-11T12:40:35Z</time></trkpt><trkpt lat="43.080107552143986" lon="11.511589330222934"><ele>310.0</ele><time>2026-04-11T12:40:37Z</time></trkpt><trkpt lat="43.08015062733298" lon="11.51169082783044"><ele>310.0</ele><time>2026-04-11T12:40:39Z</time></trkpt><trkpt lat="43.08020890164835" lon="11.511803829343853"><ele>310.0</ele><time>2026-04-11T12:40:41Z</time></trkpt><trkpt lat="43.08027240385353" lon="11.511923236793008"><ele>310.4</ele><time>2026-04-11T12:40:43Z</time></trkpt><trkpt lat="43.08036710669355" lon="11.512111803235056"><ele>310.8</ele><time>2026-04-11T12:40:47Z</time></trkpt><trkpt lat="43.08041433901002" lon="11.51218371053159"><ele>311.2</ele><time>2026-04-11T12:40:49Z</time></trkpt><trkpt lat="43.08045991635736" lon="11.512251310423384"><ele>311.6</ele><time>2026-04-11T12:40:51Z</time></trkpt><trkpt lat="43.080514535141994" lon="11.512360643537003"><ele>312.0</ele><time>2026-04-11T12:40:54.001Z</time></trkpt><trkpt lat="43.08055354643155" lon="11.512430684748216"><ele>312.0</ele><time>2026-04-11T12:40:57.001Z</time></trkpt><trkpt lat="43.080604916287754" lon="11.51253033905621"><ele>312.0</ele><time>2026-04-11T12:41:00.001Z</time></trkpt><trkpt lat="43.080651793176806" lon="11.512615560611385"><ele>312.0</ele><time>2026-04-11T12:41:03.001Z</time></trkpt><trkpt lat="43.08070405494139" lon="11.512720565130888"><ele>312.0</ele><time>2026-04-11T12:41:06.001Z</time></trkpt><trkpt lat="43.080810690017465" lon="11.51292017319836"><ele>312.0</ele><time>2026-04-11T12:41:12.001Z</time></trkpt><trkpt lat="43.08087482648948" lon="11.513029025102377"><ele>314.0</ele><time>2026-04-11T12:41:15Z</time></trkpt><trkpt lat="43.080938242270314" lon="11.51309073205803"><ele>316.0</ele><time>2026-04-11T12:41:18Z</time></trkpt><trkpt lat="43.080997338181575" lon="11.513139443684759"><ele>318.0</ele><time>2026-04-11T12:41:20Z</time></trkpt><trkpt lat="43.081058714784284" lon="11.513170603097903"><ele>320.0</ele><time>2026-04-11T12:41:22Z</time></trkpt><trkpt lat="43.08112137325722" lon="11.513186201486786"><ele>322.0</ele><time>2026-04-11T12:41:24Z</time></trkpt><trkpt lat="43.081211353659995" lon="11.51319232264067"><ele>324.0</ele><time>2026-04-11T12:41:27Z</time></trkpt><trkpt lat="43.081379308391476" lon="11.513182278903537"><ele>324.0</ele><time>2026-04-11T12:41:33Z</time></trkpt><trkpt lat="43.08146048570424" lon="11.513183589102496"><ele>324.0</ele><time>2026-04-11T12:41:36Z</time></trkpt><trkpt lat="43.08152524609997" lon="11.513214861740366"><ele>324.0</ele><time>2026-04-11T12:41:39Z</time></trkpt><trkpt lat="43.08159115947513" lon="11.513254996266955"><ele>324.0</ele><time>2026-04-11T12:41:41Z</time></trkpt><trkpt lat="43.08165809961467" lon="11.513316826848454"><ele>324.0</ele><time>2026-04-11T12:41:43Z</time></trkpt><trkpt lat="43.08171316102788" lon="11.513372437563925"><ele>324.0</ele><time>2026-04-11T12:41:45Z</time></trkpt><trkpt lat="43.081788076514925" lon="11.513448652758042"><ele>324.75</ele><time>2026-04-11T12:41:47Z</time></trkpt><trkpt lat="43.08185874761198" lon="11.513539664017657"><ele>325.5</ele><time>2026-04-11T12:41:49Z</time></trkpt><trkpt lat="43.08201384084108" lon="11.513740896560332"><ele>326.25</ele><time>2026-04-11T12:41:53Z</time></trkpt><trkpt lat="43.08206415750845" lon="11.513809357311247"><ele>327.0</ele><time>2026-04-11T12:41:54Z</time></trkpt><trkpt lat="43.08214445059024" lon="11.513927521912573"><ele>327.20000000000005</ele><time>2026-04-11T12:41:56Z</time></trkpt><trkpt lat="43.0821911273082" lon="11.513995778373353"><ele>327.4</ele><time>2026-04-11T12:41:57Z</time></trkpt><trkpt lat="43.08227858154334" lon="11.514114305367334"><ele>327.6</ele><time>2026-04-11T12:41:59Z</time></trkpt><trkpt lat="43.082322106409" lon="11.514179519872735"><ele>327.79999999999995</ele><time>2026-04-11T12:42:00Z</time></trkpt><trkpt lat="43.082366044736105" lon="11.51424138838206"><ele>328.0</ele><time>2026-04-11T12:42:01Z</time></trkpt><trkpt lat="43.082471466262845" lon="11.514348064121398"><ele>327.8333333333333</ele><time>2026-04-11T12:42:03Z</time></trkpt><trkpt lat="43.08253027274191" lon="11.51439579679571"><ele>327.66666666666663</ele><time>2026-04-11T12:42:04Z</time></trkpt><trkpt lat="43.08258911907616" lon="11.51444747071912"><ele>327.5</ele><time>2026-04-11T12:42:05Z</time></trkpt><trkpt lat="43.082642345825974" lon="11.51450034403755"><ele>327.3333333333333</ele><time>2026-04-11T12:42:06Z</time></trkpt><trkpt lat="43.0826977733611" lon="11.514556027066387"><ele>327.1666666666667</ele><time>2026-04-11T12:42:07Z</time></trkpt><trkpt lat="43.0828041174791" lon="11.51464770955397"><ele>327.0</ele><time>2026-04-11T12:42:09Z</time></trkpt><trkpt lat="43.082912425674614" lon="11.514739412116944"><ele>327.0</ele><time>2026-04-11T12:42:11Z</time></trkpt><trkpt lat="43.083128692961736" lon="11.514913214220757"><ele>327.0</ele><time>2026-04-11T12:42:15Z</time></trkpt><trkpt lat="43.0832449614997" lon="11.514970948835765"><ele>327.0</ele><time>2026-04-11T12:42:17Z</time></trkpt><trkpt lat="43.08335832333085" lon="11.515019694398875"><ele>326.40000000000003</ele><time>2026-04-11T12:42:19Z</time></trkpt><trkpt lat="43.08347538919259" lon="11.51505215671281"><ele>325.8</ele><time>2026-04-11T12:42:21Z</time></trkpt><trkpt lat="43.08359961788718" lon="11.515081400724267"><ele>325.2</ele><time>2026-04-11T12:42:23Z</time></trkpt><trkpt lat="43.08372881806441" lon="11.515103226125973"><ele>324.6</ele><time>2026-04-11T12:42:25Z</time></trkpt><trkpt lat="43.08379974342413" lon="11.51510953360323"><ele>324.0</ele><time>2026-04-11T12:42:26Z</time></trkpt><trkpt lat="43.08387519527193" lon="11.51510449841259"><ele>324.0</ele><time>2026-04-11T12:42:27Z</time></trkpt><trkpt lat="43.08395360084864" lon="11.515088234148692"><ele>324.0</ele><time>2026-04-11T12:42:28Z</time></trkpt><trkpt lat="43.084029738821194" lon="11.515058673416094"><ele>324.0</ele><time>2026-04-11T12:42:29Z</time></trkpt><trkpt lat="43.08410156772148" lon="11.515016010055993"><ele>324.0</ele><time>2026-04-11T12:42:30Z</time></trkpt><trkpt lat="43.08417274033585" lon="11.514960392337825"><ele>324.0</ele><time>2026-04-11T12:42:31Z</time></trkpt><trkpt lat="43.08424671768161" lon="11.514908634135548"><ele>324.0</ele><time>2026-04-11T12:42:32Z</time></trkpt><trkpt lat="43.084418219796156" lon="11.51484562712845"><ele>323.4</ele><time>2026-04-11T12:42:34Z</time></trkpt><trkpt lat="43.084512716413734" lon="11.514839653620623"><ele>322.79999999999995</ele><time>2026-04-11T12:42:35Z</time></trkpt><trkpt lat="43.08460996539881" lon="11.514839120645988"><ele>322.20000000000005</ele><time>2026-04-11T12:42:36Z</time></trkpt><trkpt lat="43.08470447628018" lon="11.514847844688829"><ele>321.6</ele><time>2026-04-11T12:42:37Z</time></trkpt><trkpt lat="43.08480132243629" lon="11.514851786682492"><ele>321.0</ele><time>2026-04-11T12:42:38Z</time></trkpt><trkpt lat="43.08489943663716" lon="11.514856935902438"><ele>320.2</ele><time>2026-04-11T12:42:39Z</time></trkpt><trkpt lat="43.08499487246506" lon="11.514862138482185"><ele>319.40000000000003</ele><time>2026-04-11T12:42:40Z</time></trkpt><trkpt lat="43.08508583205038" lon="11.514868143867226"><ele>318.6</ele><time>2026-04-11T12:42:41Z</time></trkpt><trkpt lat="43.085179285925776" lon="11.5148733431235"><ele>317.8</ele><time>2026-04-11T12:42:42Z</time></trkpt><trkpt lat="43.08527394207068" lon="11.51488216919792"><ele>317.0</ele><time>2026-04-11T12:42:43Z</time></trkpt><trkpt lat="43.08536640645979" lon="11.514898348139244"><ele>317.0</ele><time>2026-04-11T12:42:44Z</time></trkpt><trkpt lat="43.08545841332572" lon="11.514934839297782"><ele>317.0</ele><time>2026-04-11T12:42:45Z</time></trkpt><trkpt lat="43.08554453063114" lon="11.514992389038605"><ele>317.0</ele><time>2026-04-11T12:42:46Z</time></trkpt><trkpt lat="43.08561471156403" lon="11.51506200754581"><ele>317.0</ele><time>2026-04-11T12:42:47Z</time></trkpt><trkpt lat="43.085672685157554" lon="11.515130501663545"><ele>317.0</ele><time>2026-04-11T12:42:48Z</time></trkpt><trkpt lat="43.08571042545951" lon="11.515199851785551"><ele>317.0</ele><time>2026-04-11T12:42:49Z</time></trkpt><trkpt lat="43.085769418910026" lon="11.515307026635844"><ele>315.75</ele><time>2026-04-11T12:42:51Z</time></trkpt><trkpt lat="43.0858393177834" lon="11.51542893937796"><ele>314.5</ele><time>2026-04-11T12:42:53.001Z</time></trkpt><trkpt lat="43.08604323162158" lon="11.515621907258522"><ele>313.25</ele><time>2026-04-11T12:42:57.001Z</time></trkpt><trkpt lat="43.08610925548698" lon="11.515672142480206"><ele>312.0</ele><time>2026-04-11T12:42:58.001Z</time></trkpt><trkpt lat="43.086176682275756" lon="11.51572479966675"><ele>312.0</ele><time>2026-04-11T12:42:59.001Z</time></trkpt><trkpt lat="43.08624541249085" lon="11.515793607918527"><ele>312.0</ele><time>2026-04-11T12:43:00.001Z</time></trkpt><trkpt lat="43.08630739904731" lon="11.515883924904157"><ele>312.0</ele><time>2026-04-11T12:43:01.001Z</time></trkpt><trkpt lat="43.086363955600156" lon="11.515978713133514"><ele>312.0</ele><time>2026-04-11T12:43:02.001Z</time></trkpt><trkpt lat="43.086423215741284" lon="11.51607955542285"><ele>312.0</ele><time>2026-04-11T12:43:03.001Z</time></trkpt><trkpt lat="43.08647228923879" lon="11.51618150200386"><ele>312.0</ele><time>2026-04-11T12:43:04.001Z</time></trkpt><trkpt lat="43.086508798933906" lon="11.516271813777601"><ele>310.8</ele><time>2026-04-11T12:43:05.001Z</time></trkpt><trkpt lat="43.08656192382486" lon="11.516403996867233"><ele>309.6</ele><time>2026-04-11T12:43:07.001Z</time></trkpt><trkpt lat="43.08657619047639" lon="11.516492150776822"><ele>308.40000000000003</ele><time>2026-04-11T12:43:10.001Z</time></trkpt><trkpt lat="43.08660078021878" lon="11.516625800899694"><ele>307.2</ele><time>2026-04-11T12:43:13.001Z</time></trkpt><trkpt lat="43.08657965276966" lon="11.516801133900378"><ele>306.0</ele><time>2026-04-11T12:43:15.001Z</time></trkpt><trkpt lat="43.08656137574003" lon="11.517006461373205"><ele>304.8333333333333</ele><time>2026-04-11T12:43:17.001Z</time></trkpt><trkpt lat="43.08655646903563" lon="11.517114969947825"><ele>303.6666666666667</ele><time>2026-04-11T12:43:18.001Z</time></trkpt><trkpt lat="43.08654547594602" lon="11.517226556946628"><ele>302.5</ele><time>2026-04-11T12:43:19.001Z</time></trkpt><trkpt lat="43.086528219388285" lon="11.517349340370345"><ele>301.33333333333337</ele><time>2026-04-11T12:43:20Z</time></trkpt><trkpt lat="43.086518024470585" lon="11.51747323342635"><ele>300.1666666666667</ele><time>2026-04-11T12:43:21Z</time></trkpt><trkpt lat="43.086513087045816" lon="11.517603308979806"><ele>299.0</ele><time>2026-04-11T12:43:22Z</time></trkpt><trkpt lat="43.086506187622255" lon="11.517737200313267"><ele>299.0</ele><time>2026-04-11T12:43:23Z</time></trkpt><trkpt lat="43.08649265783996" lon="11.517875173636892"><ele>299.0</ele><time>2026-04-11T12:43:24Z</time></trkpt><trkpt lat="43.086477809727114" lon="11.518017610780927"><ele>299.0</ele><time>2026-04-11T12:43:25Z</time></trkpt><trkpt lat="43.08646570169813" lon="11.518165857191423"><ele>299.0</ele><time>2026-04-11T12:43:26Z</time></trkpt><trkpt lat="43.08645194821739" lon="11.518316407951"><ele>299.0</ele><time>2026-04-11T12:43:27Z</time></trkpt><trkpt lat="43.086434265077244" lon="11.518465125894567"><ele>298.4</ele><time>2026-04-11T12:43:28Z</time></trkpt><trkpt lat="43.086420359036616" lon="11.518613009235791"><ele>297.79999999999995</ele><time>2026-04-11T12:43:29Z</time></trkpt><trkpt lat="43.08640519447616" lon="11.51875904845922"><ele>297.20000000000005</ele><time>2026-04-11T12:43:30Z</time></trkpt><trkpt lat="43.08639565154884" lon="11.51890513009919"><ele>296.6</ele><time>2026-04-11T12:43:31Z</time></trkpt><trkpt lat="43.086382188037305" lon="11.519048979508737"><ele>296.0</ele><time>2026-04-11T12:43:32Z</time></trkpt><trkpt lat="43.08636325180125" lon="11.519191523968509"><ele>296.0</ele><time>2026-04-11T12:43:33Z</time></trkpt><trkpt lat="43.0863411900005" lon="11.519324125119606"><ele>296.0</ele><time>2026-04-11T12:43:34Z</time></trkpt><trkpt lat="43.08632698610588" lon="11.519462327814718"><ele>296.0</ele><time>2026-04-11T12:43:35Z</time></trkpt><trkpt lat="43.08631268744215" lon="11.519594871677674"><ele>296.0</ele><time>2026-04-11T12:43:36Z</time></trkpt><trkpt lat="43.08627366158655" lon="11.519859790564078"><ele>296.0</ele><time>2026-04-11T12:43:38Z</time></trkpt><trkpt lat="43.086256779215425" lon="11.519990863604585"><ele>296.0</ele><time>2026-04-11T12:43:39Z</time></trkpt><trkpt lat="43.08624062473037" lon="11.52012169417179"><ele>296.0</ele><time>2026-04-11T12:43:40Z</time></trkpt><trkpt lat="43.08622189132064" lon="11.52024987271177"><ele>296.0</ele><time>2026-04-11T12:43:41Z</time></trkpt><trkpt lat="43.08619660001638" lon="11.520374195104832"><ele>296.0</ele><time>2026-04-11T12:43:42Z</time></trkpt><trkpt lat="43.08616594645237" lon="11.520497026471453"><ele>296.5</ele><time>2026-04-11T12:43:43Z</time></trkpt><trkpt lat="43.08612576127676" lon="11.52061168260468"><ele>297.0</ele><time>2026-04-11T12:43:44Z</time></trkpt><trkpt lat="43.086079957591174" lon="11.520718547668613"><ele>297.5</ele><time>2026-04-11T12:43:45Z</time></trkpt><trkpt lat="43.086031954872354" lon="11.520820733503061"><ele>298.0</ele><time>2026-04-11T12:43:46Z</time></trkpt><trkpt lat="43.08597842841809" lon="11.520912588187601"><ele>298.5</ele><time>2026-04-11T12:43:47Z</time></trkpt><trkpt lat="43.08592247958464" lon="11.520997823269761"><ele>299.0</ele><time>2026-04-11T12:43:48Z</time></trkpt><trkpt lat="43.08586320834519" lon="11.521073782341752"><ele>299.0</ele><time>2026-04-11T12:43:49Z</time></trkpt><trkpt lat="43.08579989006982" lon="11.521140695907787"><ele>299.0</ele><time>2026-04-11T12:43:50Z</time></trkpt><trkpt lat="43.08573300634828" lon="11.521199903254171"><ele>299.0</ele><time>2026-04-11T12:43:51Z</time></trkpt><trkpt lat="43.08567046101713" lon="11.521260379404323"><ele>299.0</ele><time>2026-04-11T12:43:52Z</time></trkpt><trkpt lat="43.08560597172875" lon="11.521315898489174"><ele>299.0</ele><time>2026-04-11T12:43:53Z</time></trkpt><trkpt lat="43.08553611249785" lon="11.521366921910406"><ele>299.0</ele><time>2026-04-11T12:43:54Z</time></trkpt><trkpt lat="43.08546501614409" lon="11.521412195325416"><ele>298.8</ele><time>2026-04-11T12:43:55Z</time></trkpt><trkpt lat="43.08539282806891" lon="11.521450877225247"><ele>298.59999999999997</ele><time>2026-04-11T12:43:56Z</time></trkpt><trkpt lat="43.085320843029415" lon="11.521483950059126"><ele>298.4</ele><time>2026-04-11T12:43:57Z</time></trkpt><trkpt lat="43.085174958267906" lon="11.521549183941818"><ele>298.2</ele><time>2026-04-11T12:43:59Z</time></trkpt><trkpt lat="43.085102526559346" lon="11.521577573906168"><ele>298.0</ele><time>2026-04-11T12:44:00Z</time></trkpt><trkpt lat="43.085032721943804" lon="11.521602599435033"><ele>298.0</ele><time>2026-04-11T12:44:01Z</time></trkpt><trkpt lat="43.08496234278813" lon="11.521625710924669"><ele>298.0</ele><time>2026-04-11T12:44:02Z</time></trkpt><trkpt lat="43.08489271558807" lon="11.521651967732467"><ele>298.0</ele><time>2026-04-11T12:44:03Z</time></trkpt><trkpt lat="43.08481986459013" lon="11.521676121136665"><ele>298.0</ele><time>2026-04-11T12:44:04Z</time></trkpt><trkpt lat="43.08474285133452" lon="11.52170632936486"><ele>298.0</ele><time>2026-04-11T12:44:05Z</time></trkpt><trkpt lat="43.0846667915256" lon="11.52174124089017"><ele>298.0</ele><time>2026-04-11T12:44:06Z</time></trkpt><trkpt lat="43.08459107096031" lon="11.52177710398307"><ele>297.5</ele><time>2026-04-11T12:44:07Z</time></trkpt><trkpt lat="43.08451740702474" lon="11.521810979611983"><ele>297.0</ele><time>2026-04-11T12:44:08Z</time></trkpt><trkpt lat="43.08444437866698" lon="11.52184641167256"><ele>296.5</ele><time>2026-04-11T12:44:09Z</time></trkpt><trkpt lat="43.08437227905276" lon="11.521881049959973"><ele>296.0</ele><time>2026-04-11T12:44:10Z</time></trkpt><trkpt lat="43.084303831179255" lon="11.521918819662648"><ele>295.5</ele><time>2026-04-11T12:44:11Z</time></trkpt><trkpt lat="43.08423251002262" lon="11.521953989090395"><ele>295.0</ele><time>2026-04-11T12:44:12Z</time></trkpt><trkpt lat="43.084161189744" lon="11.521988797335219"><ele>294.66666666666663</ele><time>2026-04-11T12:44:13Z</time></trkpt><trkpt lat="43.084093083615095" lon="11.522025182585168"><ele>294.3333333333333</ele><time>2026-04-11T12:44:14Z</time></trkpt><trkpt lat="43.08402761535618" lon="11.52205883653833"><ele>294.0</ele><time>2026-04-11T12:44:15Z</time></trkpt><trkpt lat="43.083961694024616" lon="11.522090904767799"><ele>293.6666666666667</ele><time>2026-04-11T12:44:16Z</time></trkpt><trkpt lat="43.08390015470771" lon="11.522125931453763"><ele>293.33333333333337</ele><time>2026-04-11T12:44:17Z</time></trkpt><trkpt lat="43.08383896674843" lon="11.522163305587735"><ele>293.0</ele><time>2026-04-11T12:44:18Z</time></trkpt><trkpt lat="43.08368181511453" lon="11.522286523718277"><ele>294.2</ele><time>2026-04-11T12:44:21Z</time></trkpt><trkpt lat="43.08361069343397" lon="11.522390335151146"><ele>295.4</ele><time>2026-04-11T12:44:23Z</time></trkpt><trkpt lat="43.0835514781894" lon="11.522497403387739"><ele>296.59999999999997</ele><time>2026-04-11T12:44:25Z</time></trkpt><trkpt lat="43.08349916747506" lon="11.522605798159914"><ele>297.8</ele><time>2026-04-11T12:44:27Z</time></trkpt><trkpt lat="43.0834579270753" lon="11.52271906495819"><ele>299.0</ele><time>2026-04-11T12:44:29Z</time></trkpt><trkpt lat="43.08344360550947" lon="11.522845227807293"><ele>299.0</ele><time>2026-04-11T12:44:31Z</time></trkpt><trkpt lat="43.08340464911632" lon="11.522953141772788"><ele>299.0</ele><time>2026-04-11T12:44:33Z</time></trkpt><trkpt lat="43.08337119440264" lon="11.523068184142614"><ele>299.0</ele><time>2026-04-11T12:44:35Z</time></trkpt><trkpt lat="43.08334931592276" lon="11.5231693571586"><ele>299.0</ele><time>2026-04-11T12:44:38Z</time></trkpt><trkpt lat="43.08331174189001" lon="11.523301683647341"><ele>299.0</ele><time>2026-04-11T12:44:39Z</time></trkpt><trkpt lat="43.08327020346841" lon="11.52355297648178"><ele>299.4</ele><time>2026-04-11T12:44:43Z</time></trkpt><trkpt lat="43.08324604719613" lon="11.523684428852853"><ele>299.79999999999995</ele><time>2026-04-11T12:44:45Z</time></trkpt><trkpt lat="43.08322381033318" lon="11.523797016671203"><ele>300.20000000000005</ele><time>2026-04-11T12:44:47Z</time></trkpt><trkpt lat="43.08316895036057" lon="11.523902492090713"><ele>300.6</ele><time>2026-04-11T12:44:49Z</time></trkpt><trkpt lat="43.08309751820431" lon="11.524020575218861"><ele>301.0</ele><time>2026-04-11T12:44:51Z</time></trkpt><trkpt lat="43.083035437106666" lon="11.524078956706164"><ele>300.3333333333333</ele><time>2026-04-11T12:44:52Z</time></trkpt><trkpt lat="43.0829565390271" lon="11.52414246669102"><ele>299.66666666666663</ele><time>2026-04-11T12:44:53Z</time></trkpt><trkpt lat="43.08287115143938" lon="11.524182813083408"><ele>299.0</ele><time>2026-04-11T12:44:54.001Z</time></trkpt><trkpt lat="43.08279050274472" lon="11.524217711039492"><ele>298.3333333333333</ele><time>2026-04-11T12:44:55.001Z</time></trkpt><trkpt lat="43.08271296796057" lon="11.524263447012485"><ele>297.6666666666667</ele><time>2026-04-11T12:44:56.001Z</time></trkpt><trkpt lat="43.08263573818431" lon="11.524312770669546"><ele>297.0</ele><time>2026-04-11T12:44:57.001Z</time></trkpt><trkpt lat="43.08256462956731" lon="11.52435526026401"><ele>297.0</ele><time>2026-04-11T12:44:58.001Z</time></trkpt><trkpt lat="43.08248702626359" lon="11.524407226899482"><ele>297.0</ele><time>2026-04-11T12:44:59.001Z</time></trkpt><trkpt lat="43.08240901631351" lon="11.52447483323629"><ele>297.0</ele><time>2026-04-11T12:45:00.001Z</time></trkpt><trkpt lat="43.08226522116772" lon="11.524638348520195"><ele>297.0</ele><time>2026-04-11T12:45:02.001Z</time></trkpt><trkpt lat="43.08219772138251" lon="11.524723718674256"><ele>296.1666666666667</ele><time>2026-04-11T12:45:03.001Z</time></trkpt><trkpt lat="43.08212852299136" lon="11.524806527619365"><ele>295.3333333333333</ele><time>2026-04-11T12:45:04.001Z</time></trkpt><trkpt lat="43.08206180889167" lon="11.524890778461268"><ele>294.5</ele><time>2026-04-11T12:45:05.001Z</time></trkpt><trkpt lat="43.08199656188563" lon="11.524975495368851"><ele>293.66666666666663</ele><time>2026-04-11T12:45:06.001Z</time></trkpt><trkpt lat="43.081932207340024" lon="11.525056880852718"><ele>292.8333333333333</ele><time>2026-04-11T12:45:07.001Z</time></trkpt><trkpt lat="43.08186869453957" lon="11.525139150298314"><ele>292.0</ele><time>2026-04-11T12:45:08.001Z</time></trkpt><trkpt lat="43.08180438016035" lon="11.525220653345219"><ele>292.0</ele><time>2026-04-11T12:45:09.001Z</time></trkpt><trkpt lat="43.08174366825628" lon="11.525302897430542"><ele>292.0</ele><time>2026-04-11T12:45:10.001Z</time></trkpt><trkpt lat="43.081682580572" lon="11.525382866592386"><ele>292.0</ele><time>2026-04-11T12:45:11.001Z</time></trkpt><trkpt lat="43.08162420704121" lon="11.525464910980483"><ele>292.0</ele><time>2026-04-11T12:45:12.001Z</time></trkpt><trkpt lat="43.08157215617749" lon="11.525547716528962"><ele>292.0</ele><time>2026-04-11T12:45:13.001Z</time></trkpt><trkpt lat="43.0815247812671" lon="11.52562843023852"><ele>292.0</ele><time>2026-04-11T12:45:14.001Z</time></trkpt><trkpt lat="43.0814840791898" lon="11.52570682659756"><ele>292.2</ele><time>2026-04-11T12:45:15.001Z</time></trkpt><trkpt lat="43.08144534181405" lon="11.525782275300243"><ele>292.4</ele><time>2026-04-11T12:45:16.001Z</time></trkpt><trkpt lat="43.08141032097873" lon="11.52585590994502"><ele>292.6</ele><time>2026-04-11T12:45:17.001Z</time></trkpt><trkpt lat="43.081343613731086" lon="11.525985983875257"><ele>292.8</ele><time>2026-04-11T12:45:19.001Z</time></trkpt><trkpt lat="43.08127535167942" lon="11.526124588406455"><ele>293.0</ele><time>2026-04-11T12:45:21.001Z</time></trkpt><trkpt lat="43.08120841281588" lon="11.526336404999094"><ele>293.6</ele><time>2026-04-11T12:45:25.001Z</time></trkpt><trkpt lat="43.08116224748123" lon="11.526454146655203"><ele>294.20000000000005</ele><time>2026-04-11T12:45:27Z</time></trkpt><trkpt lat="43.08111525680334" lon="11.526575249130433"><ele>294.8</ele><time>2026-04-11T12:45:29Z</time></trkpt><trkpt lat="43.081067424988326" lon="11.526698030595792"><ele>295.40000000000003</ele><time>2026-04-11T12:45:31Z</time></trkpt><trkpt lat="43.081024706817935" lon="11.526826962374765"><ele>296.0</ele><time>2026-04-11T12:45:33Z</time></trkpt><trkpt lat="43.08099200029328" lon="11.52693302881559"><ele>296.5</ele><time>2026-04-11T12:45:36Z</time></trkpt><trkpt lat="43.080895948116165" lon="11.527167455089936"><ele>297.0</ele><time>2026-04-11T12:45:39Z</time></trkpt><trkpt lat="43.080861274174445" lon="11.527272961042643"><ele>297.5</ele><time>2026-04-11T12:45:41Z</time></trkpt><trkpt lat="43.08081127028293" lon="11.527370416860364"><ele>298.0</ele><time>2026-04-11T12:45:43Z</time></trkpt><trkpt lat="43.08072797378435" lon="11.527574278953942"><ele>299.66666666666663</ele><time>2026-04-11T12:45:47Z</time></trkpt><trkpt lat="43.080689221096506" lon="11.527676960995231"><ele>301.3333333333333</ele><time>2026-04-11T12:45:49Z</time></trkpt><trkpt lat="43.08064738270545" lon="11.527778501572888"><ele>303.0</ele><time>2026-04-11T12:45:51Z</time></trkpt><trkpt lat="43.08060794896721" lon="11.527879698786878"><ele>304.6666666666667</ele><time>2026-04-11T12:45:53Z</time></trkpt><trkpt lat="43.08056940443082" lon="11.527979319736517"><ele>306.33333333333337</ele><time>2026-04-11T12:45:55Z</time></trkpt><trkpt lat="43.08053326563235" lon="11.52806955843977"><ele>308.0</ele><time>2026-04-11T12:45:57Z</time></trkpt><trkpt lat="43.08050416915892" lon="11.528155227732645"><ele>308.2</ele><time>2026-04-11T12:46:00Z</time></trkpt><trkpt lat="43.08046404281325" lon="11.528250703684678"><ele>308.4</ele><time>2026-04-11T12:46:03Z</time></trkpt><trkpt lat="43.08042542125758" lon="11.528345555520636"><ele>308.59999999999997</ele><time>2026-04-11T12:46:06Z</time></trkpt><trkpt lat="43.08035345860564" lon="11.528541313814921"><ele>308.8</ele><time>2026-04-11T12:46:12Z</time></trkpt><trkpt lat="43.08031792609974" lon="11.528634714709918"><ele>309.0</ele><time>2026-04-11T12:46:15Z</time></trkpt><trkpt lat="43.0802806451965" lon="11.528735565260265"><ele>309.0</ele><time>2026-04-11T12:46:18Z</time></trkpt><trkpt lat="43.08024997004472" lon="11.528830314713536"><ele>309.0</ele><time>2026-04-11T12:46:21Z</time></trkpt><trkpt lat="43.080222886431905" lon="11.528934579261964"><ele>309.0</ele><time>2026-04-11T12:46:23Z</time></trkpt><trkpt lat="43.080126766386535" lon="11.529153628820268"><ele>309.0</ele><time>2026-04-11T12:46:25Z</time></trkpt><trkpt lat="43.080109684095255" lon="11.529252706727073"><ele>309.0</ele><time>2026-04-11T12:46:27Z</time></trkpt><trkpt lat="43.080063124866705" lon="11.529428659197194"><ele>309.0</ele><time>2026-04-11T12:46:31Z</time></trkpt><trkpt lat="43.080050639667164" lon="11.529536282243246"><ele>309.0</ele><time>2026-04-11T12:46:33Z</time></trkpt><trkpt lat="43.08003059059053" lon="11.529658830754968"><ele>309.0</ele><time>2026-04-11T12:46:35Z</time></trkpt><trkpt lat="43.08002475639189" lon="11.529801912289019"><ele>309.0</ele><time>2026-04-11T12:46:37Z</time></trkpt><trkpt lat="43.08001122153616" lon="11.529948741752419"><ele>309.0</ele><time>2026-04-11T12:46:39Z</time></trkpt><trkpt lat="43.08000462401683" lon="11.530099504869897"><ele>308.5</ele><time>2026-04-11T12:46:41Z</time></trkpt><trkpt lat="43.080013588718664" lon="11.530261645681184"><ele>308.0</ele><time>2026-04-11T12:46:43Z</time></trkpt><trkpt lat="43.08002082804888" lon="11.530414480507584"><ele>307.5</ele><time>2026-04-11T12:46:45Z</time></trkpt><trkpt lat="43.08002382094443" lon="11.530504212892543"><ele>307.0</ele><time>2026-04-11T12:46:46.001Z</time></trkpt><trkpt lat="43.080026663319245" lon="11.530593248485607"><ele>306.5</ele><time>2026-04-11T12:46:47.001Z</time></trkpt><trkpt lat="43.08003235770056" lon="11.53068591562717"><ele>306.0</ele><time>2026-04-11T12:46:48.001Z</time></trkpt><trkpt lat="43.08002347194263" lon="11.530873191930533"><ele>305.8333333333333</ele><time>2026-04-11T12:46:50.001Z</time></trkpt><trkpt lat="43.08002571540486" lon="11.530972996243323"><ele>305.6666666666667</ele><time>2026-04-11T12:46:51.001Z</time></trkpt><trkpt lat="43.08001937226487" lon="11.531076160330853"><ele>305.5</ele><time>2026-04-11T12:46:52.001Z</time></trkpt><trkpt lat="43.08000629659679" lon="11.531176484125634"><ele>305.33333333333337</ele><time>2026-04-11T12:46:53.001Z</time></trkpt><trkpt lat="43.07998752810246" lon="11.531276985621286"><ele>305.1666666666667</ele><time>2026-04-11T12:46:54.001Z</time></trkpt><trkpt lat="43.07996679453244" lon="11.531377264289524"><ele>305.0</ele><time>2026-04-11T12:46:55.001Z</time></trkpt><trkpt lat="43.079937070567844" lon="11.531473995574771"><ele>303.6666666666667</ele><time>2026-04-11T12:46:56.001Z</time></trkpt><trkpt lat="43.07990759928806" lon="11.531566913077313"><ele>302.33333333333337</ele><time>2026-04-11T12:46:57.001Z</time></trkpt><trkpt lat="43.07987680001266" lon="11.531659529642539"><ele>301.0</ele><time>2026-04-11T12:46:58.001Z</time></trkpt><trkpt lat="43.079843100640645" lon="11.53174405004182"><ele>299.6666666666667</ele><time>2026-04-11T12:46:59.001Z</time></trkpt><trkpt lat="43.07981008000303" lon="11.53182419012614"><ele>298.3333333333333</ele><time>2026-04-11T12:47:00.001Z</time></trkpt><trkpt lat="43.07977951405736" lon="11.531901012620997"><ele>297.0</ele><time>2026-04-11T12:47:01.001Z</time></trkpt><trkpt lat="43.07972686779426" lon="11.532041780310275"><ele>298.4</ele><time>2026-04-11T12:47:03.001Z</time></trkpt><trkpt lat="43.0796852977972" lon="11.532151025849615"><ele>299.79999999999995</ele><time>2026-04-11T12:47:05.001Z</time></trkpt><trkpt lat="43.07965676895915" lon="11.532245492966265"><ele>301.2</ele><time>2026-04-11T12:47:07.001Z</time></trkpt><trkpt lat="43.07964393017375" lon="11.532339815323267"><ele>302.59999999999997</ele><time>2026-04-11T12:47:09.001Z</time></trkpt><trkpt lat="43.07965560451077" lon="11.532594356752883"><ele>304.0</ele><time>2026-04-11T12:47:15.001Z</time></trkpt><trkpt lat="43.0796868399085" lon="11.532680898792336"><ele>304.0</ele><time>2026-04-11T12:47:17.001Z</time></trkpt><trkpt lat="43.07971286032152" lon="11.532761587608517"><ele>304.0</ele><time>2026-04-11T12:47:20.001Z</time></trkpt><trkpt lat="43.07974891664964" lon="11.532880568391668"><ele>304.0</ele><time>2026-04-11T12:47:22.001Z</time></trkpt><trkpt lat="43.07977273287504" lon="11.532968561763516"><ele>304.0</ele><time>2026-04-11T12:47:24.001Z</time></trkpt><trkpt lat="43.07980921428862" lon="11.533117216315487"><ele>304.0</ele><time>2026-04-11T12:47:28.001Z</time></trkpt><trkpt lat="43.07981920098247" lon="11.533219740316959"><ele>304.0</ele><time>2026-04-11T12:47:30.001Z</time></trkpt><trkpt lat="43.07980739030825" lon="11.533414780926668"><ele>305.3333333333333</ele><time>2026-04-11T12:47:34Z</time></trkpt><trkpt lat="43.07978292913553" lon="11.533495338085487"><ele>306.66666666666663</ele><time>2026-04-11T12:47:36Z</time></trkpt><trkpt lat="43.07976283341335" lon="11.533615105518367"><ele>308.0</ele><time>2026-04-11T12:47:38Z</time></trkpt><trkpt lat="43.07974415235647" lon="11.533748041790503"><ele>309.3333333333333</ele><time>2026-04-11T12:47:40Z</time></trkpt><trkpt lat="43.07973925413542" lon="11.533887385036632"><ele>310.6666666666667</ele><time>2026-04-11T12:47:42Z</time></trkpt><trkpt lat="43.07976039866172" lon="11.533992315918844"><ele>312.0</ele><time>2026-04-11T12:47:45Z</time></trkpt><trkpt lat="43.07977546417786" lon="11.534188051544172"><ele>311.8</ele><time>2026-04-11T12:47:46Z</time></trkpt><trkpt lat="43.0798057091486" lon="11.534351479735962"><ele>311.6</ele><time>2026-04-11T12:47:48Z</time></trkpt><trkpt lat="43.079823890766164" lon="11.534437739258816"><ele>311.40000000000003</ele><time>2026-04-11T12:47:49Z</time></trkpt><trkpt lat="43.079850382164395" lon="11.534524289554634"><ele>311.2</ele><time>2026-04-11T12:47:50Z</time></trkpt><trkpt lat="43.07987623260387" lon="11.53460782158527"><ele>311.0</ele><time>2026-04-11T12:47:51Z</time></trkpt><trkpt lat="43.0799351169178" lon="11.53479028055239"><ele>311.0</ele><time>2026-04-11T12:47:53Z</time></trkpt><trkpt lat="43.079974666116435" lon="11.534880892914046"><ele>311.0</ele><time>2026-04-11T12:47:54Z</time></trkpt><trkpt lat="43.08001458501853" lon="11.534974323620409"><ele>311.0</ele><time>2026-04-11T12:47:55Z</time></trkpt><trkpt lat="43.08006935705574" lon="11.535062754694598"><ele>311.0</ele><time>2026-04-11T12:47:56Z</time></trkpt><trkpt lat="43.08013907442338" lon="11.53513041617527"><ele>311.0</ele><time>2026-04-11T12:47:57Z</time></trkpt><trkpt lat="43.08019108862695" lon="11.535211760756209"><ele>311.0</ele><time>2026-04-11T12:47:58Z</time></trkpt><trkpt lat="43.08022805629335" lon="11.535301604862406"><ele>310.33333333333337</ele><time>2026-04-11T12:47:59Z</time></trkpt><trkpt lat="43.080258584487424" lon="11.535391708023864"><ele>309.6666666666667</ele><time>2026-04-11T12:48:00Z</time></trkpt><trkpt lat="43.08027422528775" lon="11.535491413734944"><ele>309.0</ele><time>2026-04-11T12:48:01Z</time></trkpt><trkpt lat="43.08027500725866" lon="11.53559123026169"><ele>308.3333333333333</ele><time>2026-04-11T12:48:02Z</time></trkpt><trkpt lat="43.0802575184031" lon="11.535694296699843"><ele>307.66666666666663</ele><time>2026-04-11T12:48:03Z</time></trkpt><trkpt lat="43.080269779272136" lon="11.535813906338714"><ele>307.0</ele><time>2026-04-11T12:48:04Z</time></trkpt><trkpt lat="43.08025163443258" lon="11.53593915888918"><ele>307.0</ele><time>2026-04-11T12:48:05Z</time></trkpt><trkpt lat="43.080241082541235" lon="11.536066512053578"><ele>307.0</ele><time>2026-04-11T12:48:06Z</time></trkpt><trkpt lat="43.08024062251411" lon="11.536194812825885"><ele>307.0</ele><time>2026-04-11T12:48:07Z</time></trkpt><trkpt lat="43.080247714222395" lon="11.536326020805443"><ele>307.0</ele><time>2026-04-11T12:48:08Z</time></trkpt><trkpt lat="43.08025727442585" lon="11.536461529537817"><ele>307.0</ele><time>2026-04-11T12:48:09Z</time></trkpt><trkpt lat="43.08027673351198" lon="11.536594375754134"><ele>304.75</ele><time>2026-04-11T12:48:10Z</time></trkpt><trkpt lat="43.080289754339724" lon="11.536722095507931"><ele>302.5</ele><time>2026-04-11T12:48:11Z</time></trkpt><trkpt lat="43.08028409406511" lon="11.53685296017635"><ele>300.25</ele><time>2026-04-11T12:48:12Z</time></trkpt><trkpt lat="43.08026819304808" lon="11.53711994510658"><ele>298.0</ele><time>2026-04-11T12:48:14Z</time></trkpt><trkpt lat="43.08029187382715" lon="11.537229370048252"><ele>296.6</ele><time>2026-04-11T12:48:15Z</time></trkpt><trkpt lat="43.0803470467809" lon="11.537330028492825"><ele>295.20000000000005</ele><time>2026-04-11T12:48:16Z</time></trkpt><trkpt lat="43.08042068809147" lon="11.537409398426819"><ele>293.8</ele><time>2026-04-11T12:48:17Z</time></trkpt><trkpt lat="43.08050027802723" lon="11.537461897878348"><ele>292.40000000000003</ele><time>2026-04-11T12:48:18Z</time></trkpt><trkpt lat="43.080581280208506" lon="11.537513536813874"><ele>291.0</ele><time>2026-04-11T12:48:19Z</time></trkpt><trkpt lat="43.08065142879113" lon="11.537588832100779"><ele>291.0</ele><time>2026-04-11T12:48:20Z</time></trkpt><trkpt lat="43.0807045914304" lon="11.537688668460962"><ele>291.0</ele><time>2026-04-11T12:48:21Z</time></trkpt><trkpt lat="43.08074306740582" lon="11.537805733615796"><ele>291.0</ele><time>2026-04-11T12:48:22Z</time></trkpt><trkpt lat="43.0807632980224" lon="11.537931299411056"><ele>291.0</ele><time>2026-04-11T12:48:23Z</time></trkpt><trkpt lat="43.08077370740026" lon="11.53806132566171"><ele>291.0</ele><time>2026-04-11T12:48:24Z</time></trkpt><trkpt lat="43.08078432610492" lon="11.538193469524876"><ele>290.2</ele><time>2026-04-11T12:48:25Z</time></trkpt><trkpt lat="43.08080571149785" lon="11.538327347513967"><ele>289.40000000000003</ele><time>2026-04-11T12:48:26Z</time></trkpt><trkpt lat="43.08083107372706" lon="11.538460334907905"><ele>288.6</ele><time>2026-04-11T12:48:27Z</time></trkpt><trkpt lat="43.08085688586072" lon="11.538599162346106"><ele>287.8</ele><time>2026-04-11T12:48:28Z</time></trkpt><trkpt lat="43.08087830998811" lon="11.538734630740336"><ele>287.0</ele><time>2026-04-11T12:48:29Z</time></trkpt><trkpt lat="43.08089915152492" lon="11.538870396940952"><ele>286.75</ele><time>2026-04-11T12:48:30Z</time></trkpt><trkpt lat="43.080919267012995" lon="11.539004659517751"><ele>286.5</ele><time>2026-04-11T12:48:31Z</time></trkpt><trkpt lat="43.08093951801328" lon="11.53913676890943"><ele>286.25</ele><time>2026-04-11T12:48:32Z</time></trkpt><trkpt lat="43.080963434736354" lon="11.539261542455328"><ele>286.0</ele><time>2026-04-11T12:48:33Z</time></trkpt><trkpt lat="43.081033103937386" lon="11.539487334877064"><ele>286.5</ele><time>2026-04-11T12:48:35Z</time></trkpt><trkpt lat="43.081080835282535" lon="11.539586232373805"><ele>287.0</ele><time>2026-04-11T12:48:36Z</time></trkpt><trkpt lat="43.08113500143232" lon="11.539678186685617"><ele>287.5</ele><time>2026-04-11T12:48:37Z</time></trkpt><trkpt lat="43.081195167720445" lon="11.539756232597082"><ele>288.0</ele><time>2026-04-11T12:48:38Z</time></trkpt><trkpt lat="43.08126596811363" lon="11.539826681205554"><ele>288.5</ele><time>2026-04-11T12:48:39Z</time></trkpt><trkpt lat="43.08133171449622" lon="11.5398918383127"><ele>289.0</ele><time>2026-04-11T12:48:40Z</time></trkpt><trkpt lat="43.081393857182654" lon="11.53996383453653"><ele>289.0</ele><time>2026-04-11T12:48:41Z</time></trkpt><trkpt lat="43.08145016298303" lon="11.540039048323072"><ele>289.0</ele><time>2026-04-11T12:48:42Z</time></trkpt><trkpt lat="43.08150392122297" lon="11.540111681217578"><ele>289.0</ele><time>2026-04-11T12:48:43Z</time></trkpt><trkpt lat="43.08155121762109" lon="11.540179880089703"><ele>289.0</ele><time>2026-04-11T12:48:44Z</time></trkpt><trkpt lat="43.08159170417563" lon="11.540249278519537"><ele>289.0</ele><time>2026-04-11T12:48:45Z</time></trkpt><trkpt lat="43.08162608633531" lon="11.540323811396641"><ele>289.0</ele><time>2026-04-11T12:48:46Z</time></trkpt><trkpt lat="43.081652331020535" lon="11.540402495576757"><ele>289.0</ele><time>2026-04-11T12:48:47Z</time></trkpt><trkpt lat="43.081672926720664" lon="11.540484847172145"><ele>290.0</ele><time>2026-04-11T12:48:48Z</time></trkpt><trkpt lat="43.081704338410766" lon="11.540647152403437"><ele>291.0</ele><time>2026-04-11T12:48:50Z</time></trkpt><trkpt lat="43.08172122970019" lon="11.540811518264018"><ele>292.0</ele><time>2026-04-11T12:48:52Z</time></trkpt><trkpt lat="43.08172781069552" lon="11.540978833805557"><ele>293.0</ele><time>2026-04-11T12:48:54.001Z</time></trkpt><trkpt lat="43.08177581072837" lon="11.541308577754037"><ele>293.75</ele><time>2026-04-11T12:48:58.001Z</time></trkpt><trkpt lat="43.08180505089878" lon="11.54147080102471"><ele>294.5</ele><time>2026-04-11T12:49:00.001Z</time></trkpt><trkpt lat="43.08184314683591" lon="11.541629358083918"><ele>295.25</ele><time>2026-04-11T12:49:02.001Z</time></trkpt><trkpt lat="43.08188024346501" lon="11.541786821128115"><ele>296.0</ele><time>2026-04-11T12:49:04.001Z</time></trkpt><trkpt lat="43.081909859353466" lon="11.541942452217869"><ele>296.0</ele><time>2026-04-11T12:49:06.001Z</time></trkpt><trkpt lat="43.08192644178846" lon="11.542097870000855"><ele>296.0</ele><time>2026-04-11T12:49:08.001Z</time></trkpt><trkpt lat="43.081924536210146" lon="11.542258528740856"><ele>296.0</ele><time>2026-04-11T12:49:10.001Z</time></trkpt><trkpt lat="43.08192183981775" lon="11.542422640696397"><ele>296.0</ele><time>2026-04-11T12:49:12.001Z</time></trkpt><trkpt lat="43.08192094922052" lon="11.542513063237665"><ele>296.0</ele><time>2026-04-11T12:49:13.001Z</time></trkpt><trkpt lat="43.081925604111824" lon="11.542606713108704"><ele>296.0</ele><time>2026-04-11T12:49:14.001Z</time></trkpt><trkpt lat="43.08194137760762" lon="11.542705970895494"><ele>296.0</ele><time>2026-04-11T12:49:15.001Z</time></trkpt><trkpt lat="43.082016861213006" lon="11.542888255340785"><ele>296.0</ele><time>2026-04-11T12:49:17.001Z</time></trkpt><trkpt lat="43.082069922342754" lon="11.542960072226018"><ele>296.0</ele><time>2026-04-11T12:49:18.001Z</time></trkpt><trkpt lat="43.08214176235359" lon="11.543011467910056"><ele>296.0</ele><time>2026-04-11T12:49:19.001Z</time></trkpt><trkpt lat="43.082213826200274" lon="11.54303264839881"><ele>295.14285714285717</ele><time>2026-04-11T12:49:20.001Z</time></trkpt><trkpt lat="43.08228819511523" lon="11.54304584609934"><ele>294.2857142857143</ele><time>2026-04-11T12:49:21.001Z</time></trkpt><trkpt lat="43.08235831463941" lon="11.543065454925765"><ele>293.42857142857144</ele><time>2026-04-11T12:49:22.001Z</time></trkpt><trkpt lat="43.082431874445504" lon="11.543078553471034"><ele>292.57142857142856</ele><time>2026-04-11T12:49:23.001Z</time></trkpt><trkpt lat="43.082502334370155" lon="11.54309295656634"><ele>291.7142857142857</ele><time>2026-04-11T12:49:24.001Z</time></trkpt><trkpt lat="43.0825733078035" lon="11.54311885760997"><ele>290.8571428571429</ele><time>2026-04-11T12:49:25.001Z</time></trkpt><trkpt lat="43.08264249642358" lon="11.543148514818913"><ele>290.0</ele><time>2026-04-11T12:49:26.001Z</time></trkpt><trkpt lat="43.082714178708486" lon="11.54317783279437"><ele>290.0</ele><time>2026-04-11T12:49:27.001Z</time></trkpt><trkpt lat="43.08278398049314" lon="11.54320343211416"><ele>290.0</ele><time>2026-04-11T12:49:28.001Z</time></trkpt><trkpt lat="43.082856734457806" lon="11.543218781334543"><ele>290.0</ele><time>2026-04-11T12:49:29.001Z</time></trkpt><trkpt lat="43.08292677601452" lon="11.543230310170888"><ele>290.0</ele><time>2026-04-11T12:49:30.001Z</time></trkpt><trkpt lat="43.08299739546601" lon="11.543239953813277"><ele>290.0</ele><time>2026-04-11T12:49:31.001Z</time></trkpt><trkpt lat="43.08307155919544" lon="11.543246091136234"><ele>290.0</ele><time>2026-04-11T12:49:32.001Z</time></trkpt><trkpt lat="43.08315473050754" lon="11.543253331390114"><ele>290.0</ele><time>2026-04-11T12:49:33.001Z</time></trkpt><trkpt lat="43.08323992619603" lon="11.543267037513827"><ele>289.0</ele><time>2026-04-11T12:49:34.001Z</time></trkpt><trkpt lat="43.08332545495197" lon="11.543288492014517"><ele>288.0</ele><time>2026-04-11T12:49:35.001Z</time></trkpt><trkpt lat="43.08340939812125" lon="11.543312098993693"><ele>287.0</ele><time>2026-04-11T12:49:36.001Z</time></trkpt><trkpt lat="43.08356680798804" lon="11.543351484142388"><ele>286.0</ele><time>2026-04-11T12:49:38Z</time></trkpt><trkpt lat="43.08364425635171" lon="11.543343119258749"><ele>285.0</ele><time>2026-04-11T12:49:39Z</time></trkpt><trkpt lat="43.08371940602246" lon="11.543314588914834"><ele>285.0</ele><time>2026-04-11T12:49:40Z</time></trkpt><trkpt lat="43.0837996720739" lon="11.543272870803378"><ele>285.0</ele><time>2026-04-11T12:49:41Z</time></trkpt><trkpt lat="43.083877095216515" lon="11.543215842053637"><ele>285.0</ele><time>2026-04-11T12:49:42Z</time></trkpt><trkpt lat="43.08396337500831" lon="11.543182203259292"><ele>285.0</ele><time>2026-04-11T12:49:43Z</time></trkpt><trkpt lat="43.08405725810057" lon="11.543178765579572"><ele>285.0</ele><time>2026-04-11T12:49:44Z</time></trkpt><trkpt lat="43.08415199022696" lon="11.543201935867454"><ele>283.6666666666667</ele><time>2026-04-11T12:49:45Z</time></trkpt><trkpt lat="43.08424344717984" lon="11.543248256360139"><ele>282.3333333333333</ele><time>2026-04-11T12:49:46Z</time></trkpt><trkpt lat="43.08432919070329" lon="11.543298323214904"><ele>281.0</ele><time>2026-04-11T12:49:47Z</time></trkpt><trkpt lat="43.084413058202486" lon="11.543347024240063"><ele>279.66666666666663</ele><time>2026-04-11T12:49:48Z</time></trkpt><trkpt lat="43.084490336200936" lon="11.543385957896017"><ele>278.3333333333333</ele><time>2026-04-11T12:49:49Z</time></trkpt><trkpt lat="43.08456536553971" lon="11.543419069628365"><ele>277.0</ele><time>2026-04-11T12:49:50Z</time></trkpt><trkpt lat="43.0846351686512" lon="11.543450392694153"><ele>277.0</ele><time>2026-04-11T12:49:51Z</time></trkpt><trkpt lat="43.08470708406019" lon="11.543477696414252"><ele>277.0</ele><time>2026-04-11T12:49:52Z</time></trkpt><trkpt lat="43.08478133585001" lon="11.543505626397621"><ele>277.0</ele><time>2026-04-11T12:49:53Z</time></trkpt><trkpt lat="43.08485536771961" lon="11.543534971861472"><ele>277.0</ele><time>2026-04-11T12:49:54Z</time></trkpt><trkpt lat="43.084929563719896" lon="11.543564522427749"><ele>277.0</ele><time>2026-04-11T12:49:55Z</time></trkpt><trkpt lat="43.08500245359906" lon="11.543601547367242"><ele>277.0</ele><time>2026-04-11T12:49:56Z</time></trkpt><trkpt lat="43.08507580322349" lon="11.543641010296572"><ele>275.6</ele><time>2026-04-11T12:49:57Z</time></trkpt><trkpt lat="43.08523200909078" lon="11.543733050081926"><ele>274.2</ele><time>2026-04-11T12:49:59Z</time></trkpt><trkpt lat="43.08531112065182" lon="11.543785860857517"><ele>272.8</ele><time>2026-04-11T12:50:00Z</time></trkpt><trkpt lat="43.085392732628456" lon="11.5438399473192"><ele>271.4</ele><time>2026-04-11T12:50:01Z</time></trkpt><trkpt lat="43.08547185897495" lon="11.54388424620951"><ele>270.0</ele><time>2026-04-11T12:50:02Z</time></trkpt><trkpt lat="43.08554424955599" lon="11.543925746878987"><ele>270.0</ele><time>2026-04-11T12:50:03Z</time></trkpt><trkpt lat="43.085613093791174" lon="11.543960758911306"><ele>270.0</ele><time>2026-04-11T12:50:04Z</time></trkpt><trkpt lat="43.08568411601473" lon="11.543991073260614"><ele>270.0</ele><time>2026-04-11T12:50:05Z</time></trkpt><trkpt lat="43.08575579678967" lon="11.54401386269532"><ele>270.0</ele><time>2026-04-11T12:50:06Z</time></trkpt><trkpt lat="43.085830402756926" lon="11.544025344698664"><ele>270.0</ele><time>2026-04-11T12:50:07Z</time></trkpt><trkpt lat="43.085901095847525" lon="11.544033513576736"><ele>270.0</ele><time>2026-04-11T12:50:08Z</time></trkpt><trkpt lat="43.085969486640984" lon="11.544047265227631"><ele>270.0</ele><time>2026-04-11T12:50:09Z</time></trkpt><trkpt lat="43.086037277464364" lon="11.544055008556155"><ele>270.0</ele><time>2026-04-11T12:50:10Z</time></trkpt><trkpt lat="43.08610312519482" lon="11.544066849993273"><ele>270.0</ele><time>2026-04-11T12:50:11Z</time></trkpt><trkpt lat="43.08616863502982" lon="11.544073691007707"><ele>270.0</ele><time>2026-04-11T12:50:12Z</time></trkpt><trkpt lat="43.08623635683201" lon="11.544077764808858"><ele>270.0</ele><time>2026-04-11T12:50:13Z</time></trkpt><trkpt lat="43.086300214954356" lon="11.544092188194321"><ele>270.0</ele><time>2026-04-11T12:50:14Z</time></trkpt><trkpt lat="43.086365940983654" lon="11.544123311257987"><ele>270.0</ele><time>2026-04-11T12:50:15Z</time></trkpt><trkpt lat="43.086432557773705" lon="11.544157573429496"><ele>270.0</ele><time>2026-04-11T12:50:16Z</time></trkpt><trkpt lat="43.086496551542055" lon="11.54419493036162"><ele>270.0</ele><time>2026-04-11T12:50:17Z</time></trkpt><trkpt lat="43.0865597985757" lon="11.544231080575557"><ele>270.0</ele><time>2026-04-11T12:50:18Z</time></trkpt><trkpt lat="43.08668274156236" lon="11.54433768483987"><ele>270.0</ele><time>2026-04-11T12:50:20Z</time></trkpt><trkpt lat="43.086741553449706" lon="11.544388628681414"><ele>270.0</ele><time>2026-04-11T12:50:21Z</time></trkpt><trkpt lat="43.086804329500396" lon="11.544442902430966"><ele>270.0</ele><time>2026-04-11T12:50:22Z</time></trkpt><trkpt lat="43.08686946618449" lon="11.544490940364437"><ele>270.0</ele><time>2026-04-11T12:50:23Z</time></trkpt><trkpt lat="43.086928248839506" lon="11.544539119597674"><ele>270.1666666666667</ele><time>2026-04-11T12:50:24Z</time></trkpt><trkpt lat="43.08698662477617" lon="11.54458248536579"><ele>270.3333333333333</ele><time>2026-04-11T12:50:25Z</time></trkpt><trkpt lat="43.08706235609063" lon="11.54467279637063"><ele>270.5</ele><time>2026-04-11T12:50:27Z</time></trkpt><trkpt lat="43.08710760516531" lon="11.54474255802881"><ele>270.66666666666663</ele><time>2026-04-11T12:50:29Z</time></trkpt><trkpt lat="43.087146320346356" lon="11.544860968313605"><ele>270.8333333333333</ele><time>2026-04-11T12:50:32Z</time></trkpt><trkpt lat="43.087100136525386" lon="11.544981736945841"><ele>271.0</ele><time>2026-04-11T12:50:34Z</time></trkpt><trkpt lat="43.087044740035246" lon="11.545116522968868"><ele>271.0</ele><time>2026-04-11T12:50:36Z</time></trkpt><trkpt lat="43.0869834561323" lon="11.54526182784685"><ele>271.0</ele><time>2026-04-11T12:50:38Z</time></trkpt><trkpt lat="43.08695737139273" lon="11.545346694966316"><ele>271.0</ele><time>2026-04-11T12:50:39Z</time></trkpt><trkpt lat="43.086892563706506" lon="11.545517274123203"><ele>271.0</ele><time>2026-04-11T12:50:41Z</time></trkpt><trkpt lat="43.08686846827116" lon="11.545613084715779"><ele>271.0</ele><time>2026-04-11T12:50:42Z</time></trkpt><trkpt lat="43.08684338180474" lon="11.545711929134123"><ele>270.3333333333333</ele><time>2026-04-11T12:50:43Z</time></trkpt><trkpt lat="43.086814937424805" lon="11.545812487297564"><ele>269.66666666666663</ele><time>2026-04-11T12:50:44Z</time></trkpt><trkpt lat="43.0867842345579" lon="11.545915868653188"><ele>269.0</ele><time>2026-04-11T12:50:45Z</time></trkpt><trkpt lat="43.08675678950264" lon="11.5460264694807"><ele>268.3333333333333</ele><time>2026-04-11T12:50:46Z</time></trkpt><trkpt lat="43.08673505091093" lon="11.546137255023556"><ele>267.6666666666667</ele><time>2026-04-11T12:50:47Z</time></trkpt><trkpt lat="43.08671462647634" lon="11.546244344274683"><ele>267.0</ele><time>2026-04-11T12:50:48Z</time></trkpt><trkpt lat="43.08669191985438" lon="11.546349928354134"><ele>266.8333333333333</ele><time>2026-04-11T12:50:49Z</time></trkpt><trkpt lat="43.08666571458017" lon="11.546455094435842"><ele>266.6666666666667</ele><time>2026-04-11T12:50:50Z</time></trkpt><trkpt lat="43.08663733254554" lon="11.546555041260236"><ele>266.5</ele><time>2026-04-11T12:50:51Z</time></trkpt><trkpt lat="43.08661223973192" lon="11.546652245146415"><ele>266.33333333333337</ele><time>2026-04-11T12:50:52Z</time></trkpt><trkpt lat="43.08658709849986" lon="11.546748112821986"><ele>266.1666666666667</ele><time>2026-04-11T12:50:53Z</time></trkpt><trkpt lat="43.0865644454137" lon="11.546841332015017"><ele>266.0</ele><time>2026-04-11T12:50:54Z</time></trkpt><trkpt lat="43.08654502571041" lon="11.54693896978166"><ele>264.83333333333337</ele><time>2026-04-11T12:50:55Z</time></trkpt><trkpt lat="43.08652633820869" lon="11.54704046844832"><ele>263.6666666666667</ele><time>2026-04-11T12:50:56Z</time></trkpt><trkpt lat="43.08650645733494" lon="11.547142939145632"><ele>262.5</ele><time>2026-04-11T12:50:57Z</time></trkpt><trkpt lat="43.08648865809963" lon="11.54724754071229"><ele>261.3333333333333</ele><time>2026-04-11T12:50:58Z</time></trkpt><trkpt lat="43.08646587533695" lon="11.547346518804238"><ele>260.16666666666663</ele><time>2026-04-11T12:50:59Z</time></trkpt><trkpt lat="43.08644621037161" lon="11.547430931865694"><ele>259.0</ele><time>2026-04-11T12:51:00Z</time></trkpt><trkpt lat="43.086395917049636" lon="11.547654334201443"><ele>258.8333333333333</ele><time>2026-04-11T12:51:07Z</time></trkpt><trkpt lat="43.08637232695285" lon="11.547771038287856"><ele>258.66666666666663</ele><time>2026-04-11T12:51:10.001Z</time></trkpt><trkpt lat="43.086344354258" lon="11.547864058883087"><ele>258.5</ele><time>2026-04-11T12:51:12.001Z</time></trkpt><trkpt lat="43.086310728152945" lon="11.547968483987882"><ele>258.3333333333333</ele><time>2026-04-11T12:51:14.001Z</time></trkpt><trkpt lat="43.08628815716752" lon="11.548085218136702"><ele>258.1666666666667</ele><time>2026-04-11T12:51:16.001Z</time></trkpt><trkpt lat="43.086252071055476" lon="11.548193592716427"><ele>258.0</ele><time>2026-04-11T12:51:18.001Z</time></trkpt><trkpt lat="43.08622702226691" lon="11.548285968028567"><ele>258.0</ele><time>2026-04-11T12:51:20.001Z</time></trkpt><trkpt lat="43.08621384588858" lon="11.548374553970572"><ele>258.0</ele><time>2026-04-11T12:51:23.001Z</time></trkpt><trkpt lat="43.086049786324374" lon="11.548355132169489"><ele>258.0</ele><time>2026-04-11T12:52:33.557Z</time></trkpt><trkpt lat="43.08611511968356" lon="11.548535601528478"><ele>258.0</ele><time>2026-04-11T12:56:09Z</time></trkpt><trkpt lat="43.08608523423011" lon="11.548613590672668"><ele>258.0</ele><time>2026-04-11T12:56:10Z</time></trkpt><trkpt lat="43.08604901440693" lon="11.548753474921384"><ele>258.0</ele><time>2026-04-11T12:56:12Z</time></trkpt><trkpt lat="43.08596695981339" lon="11.549024060897276"><ele>258.0</ele><time>2026-04-11T12:56:16Z</time></trkpt><trkpt lat="43.08592401072219" lon="11.5491648201335"><ele>258.0</ele><time>2026-04-11T12:56:18Z</time></trkpt><trkpt lat="43.08591241005139" lon="11.549280148081671"><ele>258.0</ele><time>2026-04-11T12:56:20Z</time></trkpt><trkpt lat="43.08594549487284" lon="11.549371690802037"><ele>258.0</ele><time>2026-04-11T12:56:25Z</time></trkpt><trkpt lat="43.08591963731309" lon="11.549488078918554"><ele>258.0</ele><time>2026-04-11T12:56:28Z</time></trkpt><trkpt lat="43.08586002711006" lon="11.549565996471747"><ele>258.0</ele><time>2026-04-11T12:56:30Z</time></trkpt><trkpt lat="43.08579124582462" lon="11.549669505764463"><ele>258.0</ele><time>2026-04-11T12:56:32Z</time></trkpt><trkpt lat="43.08572559945645" lon="11.549819745440205"><ele>258.0</ele><time>2026-04-11T12:56:34Z</time></trkpt><trkpt lat="43.085633239268795" lon="11.549971884668684"><ele>256.4</ele><time>2026-04-11T12:56:36Z</time></trkpt><trkpt lat="43.08558860686837" lon="11.550059804296474"><ele>254.8</ele><time>2026-04-11T12:56:37Z</time></trkpt><trkpt lat="43.085531164289264" lon="11.550151131763684"><ele>253.2</ele><time>2026-04-11T12:56:38Z</time></trkpt><trkpt lat="43.08547372702084" lon="11.550251901739044"><ele>251.6</ele><time>2026-04-11T12:56:39Z</time></trkpt><trkpt lat="43.085409174437814" lon="11.550353536703755"><ele>250.0</ele><time>2026-04-11T12:56:40Z</time></trkpt><trkpt lat="43.085346003847725" lon="11.55045927006166"><ele>249.6</ele><time>2026-04-11T12:56:41Z</time></trkpt><trkpt lat="43.085281691440386" lon="11.550561393742264"><ele>249.2</ele><time>2026-04-11T12:56:42Z</time></trkpt><trkpt lat="43.085213139005106" lon="11.550660612864297"><ele>248.8</ele><time>2026-04-11T12:56:43Z</time></trkpt><trkpt lat="43.08514273197346" lon="11.550752809823898"><ele>248.4</ele><time>2026-04-11T12:56:44Z</time></trkpt><trkpt lat="43.08507437850181" lon="11.550844814758838"><ele>248.0</ele><time>2026-04-11T12:56:45Z</time></trkpt><trkpt lat="43.08501212895107" lon="11.550939276185414"><ele>248.00000000000003</ele><time>2026-04-11T12:56:46Z</time></trkpt><trkpt lat="43.08495953024722" lon="11.551029266195526"><ele>248.0</ele><time>2026-04-11T12:56:47Z</time></trkpt><trkpt lat="43.084893097102125" lon="11.551106891677332"><ele>248.0</ele><time>2026-04-11T12:56:48Z</time></trkpt><trkpt lat="43.084824309219556" lon="11.551185675197912"><ele>248.0</ele><time>2026-04-11T12:56:49Z</time></trkpt><trkpt lat="43.084760313730364" lon="11.551276922848933"><ele>248.00000000000003</ele><time>2026-04-11T12:56:50Z</time></trkpt><trkpt lat="43.08469636724977" lon="11.551367548671806"><ele>248.0</ele><time>2026-04-11T12:56:51Z</time></trkpt><trkpt lat="43.084631333644886" lon="11.55145630093101"><ele>247.60000000000002</ele><time>2026-04-11T12:56:52Z</time></trkpt><trkpt lat="43.08456697690286" lon="11.551547583162748"><ele>247.20000000000002</ele><time>2026-04-11T12:56:53Z</time></trkpt><trkpt lat="43.08451205216795" lon="11.551640280655745"><ele>246.8</ele><time>2026-04-11T12:56:54Z</time></trkpt><trkpt lat="43.084457312522915" lon="11.551724661535191"><ele>246.4</ele><time>2026-04-11T12:56:55Z</time></trkpt><trkpt lat="43.084348161749254" lon="11.551881407996145"><ele>246.0</ele><time>2026-04-11T12:56:57Z</time></trkpt><trkpt lat="43.08429885991152" lon="11.551958048039364"><ele>246.00000000000003</ele><time>2026-04-11T12:56:58Z</time></trkpt><trkpt lat="43.08425538064559" lon="11.552034634559828"><ele>246.0</ele><time>2026-04-11T12:56:59Z</time></trkpt><trkpt lat="43.08421181195509" lon="11.55210930909491"><ele>246.00000000000003</ele><time>2026-04-11T12:57:00Z</time></trkpt><trkpt lat="43.08417645609604" lon="11.552188507333474"><ele>246.00000000000003</ele><time>2026-04-11T12:57:01Z</time></trkpt><trkpt lat="43.08414184304492" lon="11.552266639753597"><ele>246.0</ele><time>2026-04-11T12:57:02Z</time></trkpt><trkpt lat="43.08410714342379" lon="11.552345712152334"><ele>246.00000000000003</ele><time>2026-04-11T12:57:03Z</time></trkpt><trkpt lat="43.08407139024328" lon="11.552425041808322"><ele>246.00000000000003</ele><time>2026-04-11T12:57:04Z</time></trkpt><trkpt lat="43.08404288990431" lon="11.552505469079664"><ele>245.5714285714286</ele><time>2026-04-11T12:57:05Z</time></trkpt><trkpt lat="43.08400980962557" lon="11.55258833517052"><ele>245.14285714285717</ele><time>2026-04-11T12:57:06Z</time></trkpt><trkpt lat="43.083977179717515" lon="11.552675271897401"><ele>244.71428571428572</ele><time>2026-04-11T12:57:07Z</time></trkpt><trkpt lat="43.0839486683027" lon="11.552770499799134"><ele>244.2857142857143</ele><time>2026-04-11T12:57:08Z</time></trkpt><trkpt lat="43.083929777415925" lon="11.552871320729965"><ele>243.8571428571429</ele><time>2026-04-11T12:57:09Z</time></trkpt><trkpt lat="43.08391216275714" lon="11.552973028456835"><ele>243.42857142857142</ele><time>2026-04-11T12:57:10Z</time></trkpt><trkpt lat="43.083892919309896" lon="11.553076184924912"><ele>243.0</ele><time>2026-04-11T12:57:11Z</time></trkpt><trkpt lat="43.08387795360724" lon="11.553180769919225"><ele>243.0</ele><time>2026-04-11T12:57:12Z</time></trkpt><trkpt lat="43.083860518811754" lon="11.553282941080665"><ele>243.0</ele><time>2026-04-11T12:57:13Z</time></trkpt><trkpt lat="43.08383987223402" lon="11.553381304530665"><ele>243.0</ele><time>2026-04-11T12:57:14Z</time></trkpt><trkpt lat="43.083819798263804" lon="11.55348007076002"><ele>243.0</ele><time>2026-04-11T12:57:15Z</time></trkpt><trkpt lat="43.083806481426784" lon="11.553573833658424"><ele>243.0</ele><time>2026-04-11T12:57:16Z</time></trkpt><trkpt lat="43.0837759061159" lon="11.553756487901778"><ele>243.0</ele><time>2026-04-11T12:57:18Z</time></trkpt><trkpt lat="43.08376304997988" lon="11.553843913731079"><ele>243.60000000000002</ele><time>2026-04-11T12:57:19Z</time></trkpt><trkpt lat="43.08374649603731" lon="11.553928473231561"><ele>244.20000000000002</ele><time>2026-04-11T12:57:20Z</time></trkpt><trkpt lat="43.08371378235439" lon="11.554087714472528"><ele>244.8</ele><time>2026-04-11T12:57:22Z</time></trkpt><trkpt lat="43.08368322367106" lon="11.554229885141241"><ele>245.4</ele><time>2026-04-11T12:57:24Z</time></trkpt><trkpt lat="43.08366592032326" lon="11.55437029930852"><ele>246.0</ele><time>2026-04-11T12:57:26Z</time></trkpt><trkpt lat="43.083650532684594" lon="11.55449871581461"><ele>246.83333333333334</ele><time>2026-04-11T12:57:28Z</time></trkpt><trkpt lat="43.08362573979821" lon="11.55461621721655"><ele>247.66666666666669</ele><time>2026-04-11T12:57:30Z</time></trkpt><trkpt lat="43.083606022814095" lon="11.554735327740788"><ele>248.5</ele><time>2026-04-11T12:57:32Z</time></trkpt><trkpt lat="43.08359111262313" lon="11.554850576990944"><ele>249.33333333333334</ele><time>2026-04-11T12:57:34Z</time></trkpt><trkpt lat="43.083578155848066" lon="11.55495596637899"><ele>250.16666666666669</ele><time>2026-04-11T12:57:36Z</time></trkpt><trkpt lat="43.08356152110433" lon="11.555054629200216"><ele>251.0</ele><time>2026-04-11T12:57:38Z</time></trkpt><trkpt lat="43.08354314008298" lon="11.555244340107707"><ele>250.99999999999997</ele><time>2026-04-11T12:57:42.001Z</time></trkpt><trkpt lat="43.083532683976436" lon="11.555331722495735"><ele>251.0</ele><time>2026-04-11T12:57:44.001Z</time></trkpt><trkpt lat="43.083522677907304" lon="11.555424069466467"><ele>250.99999999999997</ele><time>2026-04-11T12:57:46.001Z</time></trkpt><trkpt lat="43.08351126984594" lon="11.555510521888163"><ele>250.99999999999997</ele><time>2026-04-11T12:57:48.001Z</time></trkpt><trkpt lat="43.08349829492879" lon="11.555598928747708"><ele>251.0</ele><time>2026-04-11T12:57:50.001Z</time></trkpt><trkpt lat="43.08349156998869" lon="11.555686800903745"><ele>250.99999999999997</ele><time>2026-04-11T12:57:52.001Z</time></trkpt><trkpt lat="43.083487366968676" lon="11.555773082305803"><ele>250.99999999999997</ele><time>2026-04-11T12:57:54.001Z</time></trkpt><trkpt lat="43.08349783966915" lon="11.555904715614759"><ele>251.8</ele><time>2026-04-11T12:57:57.001Z</time></trkpt><trkpt lat="43.08352817242462" lon="11.556024763583336"><ele>252.60000000000002</ele><time>2026-04-11T12:58:00.001Z</time></trkpt><trkpt lat="43.08362466924368" lon="11.556191291961223"><ele>253.4</ele><time>2026-04-11T12:58:07Z</time></trkpt><trkpt lat="43.08370765192034" lon="11.556248596290688"><ele>254.2</ele><time>2026-04-11T12:58:10Z</time></trkpt><trkpt lat="43.08378422542135" lon="11.556295357080801"><ele>255.0</ele><time>2026-04-11T12:58:14Z</time></trkpt><trkpt lat="43.083873294555154" lon="11.556329968656222"><ele>255.0</ele><time>2026-04-11T12:58:17Z</time></trkpt><trkpt lat="43.08397613963817" lon="11.556394698083084"><ele>255.0</ele><time>2026-04-11T12:58:20Z</time></trkpt><trkpt lat="43.0840579990767" lon="11.5564366718394"><ele>255.0</ele><time>2026-04-11T12:58:22Z</time></trkpt><trkpt lat="43.08420871617423" lon="11.556545711557014"><ele>255.0</ele><time>2026-04-11T12:58:26Z</time></trkpt><trkpt lat="43.08427942734364" lon="11.55663039795708"><ele>256.6666666666667</ele><time>2026-04-11T12:58:30Z</time></trkpt><trkpt lat="43.084346815194365" lon="11.556712575300928"><ele>258.3333333333333</ele><time>2026-04-11T12:58:33Z</time></trkpt><trkpt lat="43.08439406563846" lon="11.556793035848337"><ele>260.0</ele><time>2026-04-11T12:58:36Z</time></trkpt><trkpt lat="43.084425628556176" lon="11.55687416618214"><ele>261.66666666666663</ele><time>2026-04-11T12:58:38Z</time></trkpt><trkpt lat="43.08445695538585" lon="11.556961088190215"><ele>263.3333333333333</ele><time>2026-04-11T12:58:40Z</time></trkpt><trkpt lat="43.08448042041889" lon="11.557049110004003"><ele>265.0</ele><time>2026-04-11T12:58:43Z</time></trkpt><trkpt lat="43.08451825157723" lon="11.557236789757951"><ele>266.3333333333333</ele><time>2026-04-11T12:58:47Z</time></trkpt><trkpt lat="43.0845431841582" lon="11.557339122362695"><ele>267.66666666666663</ele><time>2026-04-11T12:58:49Z</time></trkpt><trkpt lat="43.08455145392208" lon="11.55742973377625"><ele>269.0</ele><time>2026-04-11T12:58:51Z</time></trkpt><trkpt lat="43.084559604866676" lon="11.557516996687843"><ele>270.3333333333333</ele><time>2026-04-11T12:58:53Z</time></trkpt><trkpt lat="43.084557711636606" lon="11.55760357969191"><ele>271.6666666666667</ele><time>2026-04-11T12:58:55Z</time></trkpt><trkpt lat="43.084550978155654" lon="11.557730061831839"><ele>273.0</ele><time>2026-04-11T12:58:58Z</time></trkpt><trkpt lat="43.084530920113856" lon="11.55784897309757"><ele>274.0</ele><time>2026-04-11T12:59:01Z</time></trkpt><trkpt lat="43.08450624654105" lon="11.557963610051083"><ele>275.0</ele><time>2026-04-11T12:59:04Z</time></trkpt><trkpt lat="43.08444279332153" lon="11.558183700671238"><ele>276.0</ele><time>2026-04-11T12:59:10Z</time></trkpt><trkpt lat="43.08440699013262" lon="11.558293842411373"><ele>277.0</ele><time>2026-04-11T12:59:13Z</time></trkpt><trkpt lat="43.08437168245146" lon="11.558406655478832"><ele>278.0</ele><time>2026-04-11T12:59:16Z</time></trkpt><trkpt lat="43.084352330797294" lon="11.558524750883379"><ele>278.0</ele><time>2026-04-11T12:59:19Z</time></trkpt><trkpt lat="43.08433819029638" lon="11.55864305530884"><ele>278.0</ele><time>2026-04-11T12:59:22Z</time></trkpt><trkpt lat="43.08434614549664" lon="11.558763780118353"><ele>278.0</ele><time>2026-04-11T12:59:25Z</time></trkpt><trkpt lat="43.08437168275387" lon="11.558999176506228"><ele>278.0</ele><time>2026-04-11T12:59:31Z</time></trkpt><trkpt lat="43.08440838994778" lon="11.559100028153388"><ele>278.0</ele><time>2026-04-11T12:59:34Z</time></trkpt><trkpt lat="43.08446594377638" lon="11.55919013400741"><ele>278.6</ele><time>2026-04-11T12:59:37Z</time></trkpt><trkpt lat="43.084550169612" lon="11.559241398449101"><ele>279.20000000000005</ele><time>2026-04-11T12:59:40Z</time></trkpt><trkpt lat="43.084608419375584" lon="11.559279105556291"><ele>279.8</ele><time>2026-04-11T12:59:42.001Z</time></trkpt><trkpt lat="43.0846757896064" lon="11.559295250241805"><ele>280.40000000000003</ele><time>2026-04-11T12:59:44.001Z</time></trkpt><trkpt lat="43.08476523804838" lon="11.559336560109111"><ele>281.0</ele><time>2026-04-11T12:59:47.001Z</time></trkpt><trkpt lat="43.084846552545" lon="11.559540181125051"><ele>281.0</ele><time>2026-04-11T12:59:53.001Z</time></trkpt><trkpt lat="43.084832995686" lon="11.559655411001422"><ele>281.0</ele><time>2026-04-11T12:59:56.001Z</time></trkpt><trkpt lat="43.08481117751555" lon="11.559768008870533"><ele>281.0</ele><time>2026-04-11T12:59:59.001Z</time></trkpt><trkpt lat="43.084796548154195" lon="11.5598806579997"><ele>281.0</ele><time>2026-04-11T13:00:02.001Z</time></trkpt><trkpt lat="43.08481671126945" lon="11.559988211312977"><ele>281.0</ele><time>2026-04-11T13:00:05.001Z</time></trkpt><trkpt lat="43.08486047107518" lon="11.560095288505028"><ele>281.0</ele><time>2026-04-11T13:00:08Z</time></trkpt><trkpt lat="43.0849813839547" lon="11.560276664141211"><ele>281.0</ele><time>2026-04-11T13:00:14Z</time></trkpt><trkpt lat="43.08504967417256" lon="11.560360815890926"><ele>281.0</ele><time>2026-04-11T13:00:17Z</time></trkpt><trkpt lat="43.085087922929986" lon="11.560431932258457"><ele>281.0</ele><time>2026-04-11T13:00:19Z</time></trkpt><trkpt lat="43.08511524760396" lon="11.560547895384758"><ele>281.0</ele><time>2026-04-11T13:00:22Z</time></trkpt><trkpt lat="43.08511058651635" lon="11.560667313610805"><ele>281.0</ele><time>2026-04-11T13:00:25Z</time></trkpt><trkpt lat="43.08507951475685" lon="11.560777093275842"><ele>281.0</ele><time>2026-04-11T13:00:28Z</time></trkpt><trkpt lat="43.085006607848136" lon="11.56084938303955"><ele>283.40000000000003</ele><time>2026-04-11T13:00:31Z</time></trkpt><trkpt lat="43.084856994384396" lon="11.560983837682643"><ele>285.8</ele><time>2026-04-11T13:00:37Z</time></trkpt><trkpt lat="43.08480830483636" lon="11.561081651523304"><ele>288.20000000000005</ele><time>2026-04-11T13:00:40Z</time></trkpt><trkpt lat="43.08479841657512" lon="11.561187489494722"><ele>290.6</ele><time>2026-04-11T13:00:43Z</time></trkpt><trkpt lat="43.0848175068163" lon="11.561294996500587"><ele>293.0</ele><time>2026-04-11T13:00:46Z</time></trkpt><trkpt lat="43.08484313555394" lon="11.561401022876058"><ele>294.0</ele><time>2026-04-11T13:00:49Z</time></trkpt><trkpt lat="43.08487922259832" lon="11.561500109503028"><ele>295.0</ele><time>2026-04-11T13:00:52Z</time></trkpt><trkpt lat="43.084945634542166" lon="11.561688122623863"><ele>296.0</ele><time>2026-04-11T13:00:58Z</time></trkpt><trkpt lat="43.08497785325256" lon="11.561783262413805"><ele>297.0</ele><time>2026-04-11T13:01:01Z</time></trkpt><trkpt lat="43.08501208494262" lon="11.561880111504133"><ele>298.0</ele><time>2026-04-11T13:01:04Z</time></trkpt><trkpt lat="43.08504808498876" lon="11.56197534487358"><ele>298.6</ele><time>2026-04-11T13:01:07Z</time></trkpt><trkpt lat="43.08508125052834" lon="11.56208273965217"><ele>299.20000000000005</ele><time>2026-04-11T13:01:10Z</time></trkpt><trkpt lat="43.0851032934001" lon="11.562192800695298"><ele>299.8</ele><time>2026-04-11T13:01:13Z</time></trkpt><trkpt lat="43.085101104440895" lon="11.56241321049233"><ele>300.40000000000003</ele><time>2026-04-11T13:01:19Z</time></trkpt><trkpt lat="43.085070461621925" lon="11.562512394652158"><ele>301.0</ele><time>2026-04-11T13:01:22Z</time></trkpt><trkpt lat="43.08502829127931" lon="11.562608400995705"><ele>301.0</ele><time>2026-04-11T13:01:25Z</time></trkpt><trkpt lat="43.08497302843851" lon="11.56268505444064"><ele>301.0</ele><time>2026-04-11T13:01:28Z</time></trkpt><trkpt lat="43.0848986726682" lon="11.562753459187382"><ele>301.0</ele><time>2026-04-11T13:01:31Z</time></trkpt><trkpt lat="43.08481984702861" lon="11.562801341412767"><ele>301.0</ele><time>2026-04-11T13:01:34Z</time></trkpt><trkpt lat="43.084653608127006" lon="11.562824661929955"><ele>301.0</ele><time>2026-04-11T13:01:40Z</time></trkpt><trkpt lat="43.08457395915942" lon="11.562832104279696"><ele>301.0</ele><time>2026-04-11T13:01:43Z</time></trkpt><trkpt lat="43.08449474529556" lon="11.562839447311312"><ele>301.0</ele><time>2026-04-11T13:01:46Z</time></trkpt><trkpt lat="43.084409729267264" lon="11.5628375714962"><ele>301.0</ele><time>2026-04-11T13:01:49Z</time></trkpt><trkpt lat="43.08431677661797" lon="11.56285946114062"><ele>301.0</ele><time>2026-04-11T13:01:52Z</time></trkpt><trkpt lat="43.08425295789007" lon="11.562861653616848"><ele>301.0</ele><time>2026-04-11T13:01:54Z</time></trkpt><trkpt lat="43.084161389301734" lon="11.562875883002624"><ele>301.0</ele><time>2026-04-11T13:01:57.001Z</time></trkpt><trkpt lat="43.08401919058305" lon="11.562919330519545"><ele>301.0</ele><time>2026-04-11T13:02:01.001Z</time></trkpt><trkpt lat="43.08394126312918" lon="11.562950489215725"><ele>301.0</ele><time>2026-04-11T13:02:03.001Z</time></trkpt><trkpt lat="43.0838673867754" lon="11.562991385268164"><ele>301.0</ele><time>2026-04-11T13:02:05.001Z</time></trkpt><trkpt lat="43.083785786904095" lon="11.563052578332625"><ele>301.0</ele><time>2026-04-11T13:02:07.001Z</time></trkpt><trkpt lat="43.08370495870742" lon="11.563125953959776"><ele>301.0</ele><time>2026-04-11T13:02:09.001Z</time></trkpt><trkpt lat="43.08361780046618" lon="11.563216695652661"><ele>301.0</ele><time>2026-04-11T13:02:11.001Z</time></trkpt><trkpt lat="43.08353171639328" lon="11.56333218528135"><ele>301.0</ele><time>2026-04-11T13:02:13Z</time></trkpt><trkpt lat="43.08345570664704" lon="11.563470305192343"><ele>301.0</ele><time>2026-04-11T13:02:15Z</time></trkpt><trkpt lat="43.083416128592496" lon="11.563549040915172"><ele>301.0</ele><time>2026-04-11T13:02:16Z</time></trkpt><trkpt lat="43.08337398626988" lon="11.563627610933217"><ele>301.0</ele><time>2026-04-11T13:02:17Z</time></trkpt><trkpt lat="43.08332989555453" lon="11.563700663446655"><ele>301.0</ele><time>2026-04-11T13:02:18Z</time></trkpt><trkpt lat="43.08324023109138" lon="11.563859905517553"><ele>301.0</ele><time>2026-04-11T13:02:20Z</time></trkpt><trkpt lat="43.08320283750408" lon="11.563944885674845"><ele>301.0</ele><time>2026-04-11T13:02:21Z</time></trkpt><trkpt lat="43.08317073073399" lon="11.564033110192945"><ele>301.0</ele><time>2026-04-11T13:02:22Z</time></trkpt><trkpt lat="43.08313791029138" lon="11.564121733327068"><ele>301.0</ele><time>2026-04-11T13:02:23Z</time></trkpt><trkpt lat="43.083105511401946" lon="11.56420202922152"><ele>301.0</ele><time>2026-04-11T13:02:24Z</time></trkpt><trkpt lat="43.08307213679112" lon="11.564277766342784"><ele>301.0</ele><time>2026-04-11T13:02:25Z</time></trkpt><trkpt lat="43.08302135460848" lon="11.56442789189385"><ele>301.0</ele><time>2026-04-11T13:02:27Z</time></trkpt><trkpt lat="43.082975234363765" lon="11.56456563571209"><ele>301.0</ele><time>2026-04-11T13:02:29Z</time></trkpt><trkpt lat="43.08293791983268" lon="11.564688751978903"><ele>301.0</ele><time>2026-04-11T13:02:31Z</time></trkpt><trkpt lat="43.08290229056083" lon="11.564804038129916"><ele>301.0</ele><time>2026-04-11T13:02:33Z</time></trkpt><trkpt lat="43.082860629618196" lon="11.564907268629998"><ele>302.2</ele><time>2026-04-11T13:02:35Z</time></trkpt><trkpt lat="43.08282071885957" lon="11.565008884660092"><ele>303.40000000000003</ele><time>2026-04-11T13:02:37Z</time></trkpt><trkpt lat="43.08278779277958" lon="11.565105454190293"><ele>304.6</ele><time>2026-04-11T13:02:39Z</time></trkpt><trkpt lat="43.08270208085971" lon="11.565285245915186"><ele>305.8</ele><time>2026-04-11T13:02:43Z</time></trkpt><trkpt lat="43.082656347317595" lon="11.565367108694472"><ele>307.0</ele><time>2026-04-11T13:02:45Z</time></trkpt><trkpt lat="43.08260469516428" lon="11.565448370575474"><ele>307.1428571428571</ele><time>2026-04-11T13:02:47Z</time></trkpt><trkpt lat="43.08255624181002" lon="11.565522540920282"><ele>307.2857142857143</ele><time>2026-04-11T13:02:49Z</time></trkpt><trkpt lat="43.08251211799407" lon="11.565597234808031"><ele>307.42857142857144</ele><time>2026-04-11T13:02:51Z</time></trkpt><trkpt lat="43.082464148657884" lon="11.565668533087152"><ele>307.57142857142856</ele><time>2026-04-11T13:02:53Z</time></trkpt><trkpt lat="43.082411866909965" lon="11.565737595445102"><ele>307.7142857142857</ele><time>2026-04-11T13:02:55Z</time></trkpt><trkpt lat="43.08236149792699" lon="11.565811716933275"><ele>307.85714285714283</ele><time>2026-04-11T13:02:57Z</time></trkpt><trkpt lat="43.0823127341025" lon="11.565880374775594"><ele>308.0</ele><time>2026-04-11T13:02:59Z</time></trkpt><trkpt lat="43.082265984084465" lon="11.565948878451318"><ele>308.0</ele><time>2026-04-11T13:03:01Z</time></trkpt><trkpt lat="43.082176541540115" lon="11.566079576484286"><ele>308.0</ele><time>2026-04-11T13:03:05Z</time></trkpt><trkpt lat="43.08213488695671" lon="11.566149924574873"><ele>308.0</ele><time>2026-04-11T13:03:07Z</time></trkpt><trkpt lat="43.08207678245935" lon="11.566239936284374"><ele>308.0</ele><time>2026-04-11T13:03:10Z</time></trkpt><trkpt lat="43.082033480507114" lon="11.566305101566542"><ele>308.0</ele><time>2026-04-11T13:03:12Z</time></trkpt><trkpt lat="43.08197516083085" lon="11.566408540083678"><ele>308.0</ele><time>2026-04-11T13:03:15Z</time></trkpt><trkpt lat="43.0819191490736" lon="11.566504870673711"><ele>310.2</ele><time>2026-04-11T13:03:18Z</time></trkpt><trkpt lat="43.08186237750646" lon="11.566602122856251"><ele>312.4</ele><time>2026-04-11T13:03:21Z</time></trkpt><trkpt lat="43.081805738266524" lon="11.566701784494631"><ele>314.59999999999997</ele><time>2026-04-11T13:03:24Z</time></trkpt><trkpt lat="43.081736485193474" lon="11.566853700321406"><ele>316.8</ele><time>2026-04-11T13:03:28Z</time></trkpt><trkpt lat="43.08170310165618" lon="11.566969095695676"><ele>319.0</ele><time>2026-04-11T13:03:31Z</time></trkpt><trkpt lat="43.08166622882542" lon="11.567088279728644"><ele>320.2857142857143</ele><time>2026-04-11T13:03:34Z</time></trkpt><trkpt lat="43.08164536268911" lon="11.567173130669039"><ele>321.57142857142856</ele><time>2026-04-11T13:03:36Z</time></trkpt><trkpt lat="43.08163309012206" lon="11.567262189692718"><ele>322.85714285714283</ele><time>2026-04-11T13:03:38Z</time></trkpt><trkpt lat="43.08162000690087" lon="11.567354187420694"><ele>324.1428571428571</ele><time>2026-04-11T13:03:40Z</time></trkpt><trkpt lat="43.08160478510531" lon="11.567440750925968"><ele>325.42857142857144</ele><time>2026-04-11T13:03:42Z</time></trkpt><trkpt lat="43.08158686519018" lon="11.56752484864761"><ele>326.71428571428567</ele><time>2026-04-11T13:03:44Z</time></trkpt><trkpt lat="43.081577124969684" lon="11.567613251760164"><ele>328.0</ele><time>2026-04-11T13:03:46Z</time></trkpt><trkpt lat="43.08155397986178" lon="11.567798192313681"><ele>325.0</ele><time>2026-04-11T13:03:50Z</time></trkpt><trkpt lat="43.08153561142377" lon="11.567891770320125"><ele>322.0</ele><time>2026-04-11T13:03:52Z</time></trkpt><trkpt lat="43.0815381888928" lon="11.567995491239786"><ele>319.0</ele><time>2026-04-11T13:03:54Z</time></trkpt><trkpt lat="43.08153218630388" lon="11.568098651465341"><ele>316.0</ele><time>2026-04-11T13:03:56Z</time></trkpt><trkpt lat="43.08152555081868" lon="11.56820673526733"><ele>313.0</ele><time>2026-04-11T13:03:58Z</time></trkpt><trkpt lat="43.08151005250391" lon="11.568314591367749"><ele>310.0</ele><time>2026-04-11T13:04:00Z</time></trkpt><trkpt lat="43.081497403553904" lon="11.568425011634401"><ele>310.0</ele><time>2026-04-11T13:04:02Z</time></trkpt><trkpt lat="43.08147926174335" lon="11.568533779318242"><ele>310.0</ele><time>2026-04-11T13:04:04Z</time></trkpt><trkpt lat="43.08146150352971" lon="11.568643394000718"><ele>310.0</ele><time>2026-04-11T13:04:06Z</time></trkpt><trkpt lat="43.081438713210495" lon="11.568756782321897"><ele>310.0</ele><time>2026-04-11T13:04:08Z</time></trkpt><trkpt lat="43.081373299052274" lon="11.56897848468801"><ele>310.0</ele><time>2026-04-11T13:04:12.001Z</time></trkpt><trkpt lat="43.081336014339804" lon="11.569089931340221"><ele>311.8333333333333</ele><time>2026-04-11T13:04:14.001Z</time></trkpt><trkpt lat="43.08130155230925" lon="11.569194422584442"><ele>313.66666666666663</ele><time>2026-04-11T13:04:16.001Z</time></trkpt><trkpt lat="43.081259942696626" lon="11.569297329137209"><ele>315.5</ele><time>2026-04-11T13:04:18.001Z</time></trkpt><trkpt lat="43.08122007293092" lon="11.569399297378162"><ele>317.3333333333333</ele><time>2026-04-11T13:04:20Z</time></trkpt><trkpt lat="43.081187409378686" lon="11.5695079759651"><ele>319.1666666666667</ele><time>2026-04-11T13:04:22Z</time></trkpt><trkpt lat="43.0811406378782" lon="11.569604157721033"><ele>321.0</ele><time>2026-04-11T13:04:24Z</time></trkpt><trkpt lat="43.08110375929413" lon="11.569699897864252"><ele>322.4</ele><time>2026-04-11T13:04:26Z</time></trkpt><trkpt lat="43.08106271000544" lon="11.56980443545734"><ele>323.8</ele><time>2026-04-11T13:04:28Z</time></trkpt><trkpt lat="43.08101850007648" lon="11.569899627047828"><ele>325.2</ele><time>2026-04-11T13:04:30Z</time></trkpt><trkpt lat="43.080902078681596" lon="11.570077037774961"><ele>326.59999999999997</ele><time>2026-04-11T13:04:34Z</time></trkpt><trkpt lat="43.08082656440816" lon="11.570152137100091"><ele>328.0</ele><time>2026-04-11T13:04:36Z</time></trkpt><trkpt lat="43.080744260466886" lon="11.57021334412394"><ele>328.0</ele><time>2026-04-11T13:04:38Z</time></trkpt><trkpt lat="43.08065220364705" lon="11.570263452896315"><ele>328.0</ele><time>2026-04-11T13:04:40Z</time></trkpt><trkpt lat="43.08054896496057" lon="11.570281722288376"><ele>328.0</ele><time>2026-04-11T13:04:42Z</time></trkpt><trkpt lat="43.08045009810233" lon="11.570274571954569"><ele>328.0</ele><time>2026-04-11T13:04:44Z</time></trkpt><trkpt lat="43.08034733391443" lon="11.570257017848"><ele>328.0</ele><time>2026-04-11T13:04:46Z</time></trkpt><trkpt lat="43.080240149031546" lon="11.5702375027087"><ele>328.0</ele><time>2026-04-11T13:04:48Z</time></trkpt><trkpt lat="43.08013030206356" lon="11.570202892280182"><ele>328.0</ele><time>2026-04-11T13:04:50Z</time></trkpt><trkpt lat="43.08001397452052" lon="11.570168075083322"><ele>328.0</ele><time>2026-04-11T13:04:52Z</time></trkpt><trkpt lat="43.07977297524254" lon="11.570110643427208"><ele>328.59999999999997</ele><time>2026-04-11T13:04:56Z</time></trkpt><trkpt lat="43.0796561919961" lon="11.5700806819932"><ele>329.2</ele><time>2026-04-11T13:04:58Z</time></trkpt><trkpt lat="43.07954236419345" lon="11.570046591790557"><ele>329.8</ele><time>2026-04-11T13:05:00Z</time></trkpt><trkpt lat="43.07947928261865" lon="11.57003249042544"><ele>330.4</ele><time>2026-04-11T13:05:01Z</time></trkpt><trkpt lat="43.07936664707173" lon="11.570013568150816"><ele>331.0</ele><time>2026-04-11T13:05:03Z</time></trkpt><trkpt lat="43.07926189471995" lon="11.5699765903683"><ele>331.0</ele><time>2026-04-11T13:05:05Z</time></trkpt><trkpt lat="43.07914918381466" lon="11.569944329988603"><ele>331.0</ele><time>2026-04-11T13:05:07Z</time></trkpt><trkpt lat="43.07903031865676" lon="11.569911068568146"><ele>331.0</ele><time>2026-04-11T13:05:09Z</time></trkpt><trkpt lat="43.07891959584065" lon="11.569884566345719"><ele>331.0</ele><time>2026-04-11T13:05:11Z</time></trkpt><trkpt lat="43.07880160070609" lon="11.569880340368996"><ele>331.25</ele><time>2026-04-11T13:05:13Z</time></trkpt><trkpt lat="43.07858131238851" lon="11.569908571532258"><ele>331.5</ele><time>2026-04-11T13:05:17Z</time></trkpt><trkpt lat="43.07846480588212" lon="11.569975989011883"><ele>331.75</ele><time>2026-04-11T13:05:19Z</time></trkpt><trkpt lat="43.07840148721134" lon="11.570013914873801"><ele>332.0</ele><time>2026-04-11T13:05:20Z</time></trkpt><trkpt lat="43.07833221932947" lon="11.57004968028395"><ele>331.83333333333337</ele><time>2026-04-11T13:05:21Z</time></trkpt><trkpt lat="43.07826101107689" lon="11.570090206690317"><ele>331.6666666666667</ele><time>2026-04-11T13:05:22Z</time></trkpt><trkpt lat="43.078187854036806" lon="11.570136546836414"><ele>331.5</ele><time>2026-04-11T13:05:23Z</time></trkpt><trkpt lat="43.07811018433084" lon="11.570183007190275"><ele>331.3333333333333</ele><time>2026-04-11T13:05:24Z</time></trkpt><trkpt lat="43.078026600735065" lon="11.57022900143894"><ele>331.16666666666663</ele><time>2026-04-11T13:05:25Z</time></trkpt><trkpt lat="43.07794100979914" lon="11.570277343227506"><ele>331.0</ele><time>2026-04-11T13:05:26Z</time></trkpt><trkpt lat="43.07785194611885" lon="11.570330682153793"><ele>328.40000000000003</ele><time>2026-04-11T13:05:27Z</time></trkpt><trkpt lat="43.07776309838014" lon="11.570387997142229"><ele>325.8</ele><time>2026-04-11T13:05:28Z</time></trkpt><trkpt lat="43.07766944289892" lon="11.570447646041838"><ele>323.20000000000005</ele><time>2026-04-11T13:05:29Z</time></trkpt><trkpt lat="43.0775736389954" lon="11.570503697644607"><ele>320.6</ele><time>2026-04-11T13:05:30Z</time></trkpt><trkpt lat="43.07747604956934" lon="11.57056150386588"><ele>318.0</ele><time>2026-04-11T13:05:31Z</time></trkpt><trkpt lat="43.07737864254085" lon="11.570623709659941"><ele>318.0</ele><time>2026-04-11T13:05:32Z</time></trkpt><trkpt lat="43.07728179997519" lon="11.570698951354153"><ele>318.0</ele><time>2026-04-11T13:05:33Z</time></trkpt><trkpt lat="43.077190313160756" lon="11.570788176768723"><ele>318.0</ele><time>2026-04-11T13:05:34Z</time></trkpt><trkpt lat="43.077009370704914" lon="11.570979370237314"><ele>318.0</ele><time>2026-04-11T13:05:36Z</time></trkpt><trkpt lat="43.076923056482286" lon="11.571083006456835"><ele>318.0</ele><time>2026-04-11T13:05:37Z</time></trkpt><trkpt lat="43.07682825759581" lon="11.57116967279275"><ele>318.0</ele><time>2026-04-11T13:05:38Z</time></trkpt><trkpt lat="43.07672676676592" lon="11.571238958185264"><ele>318.0</ele><time>2026-04-11T13:05:39Z</time></trkpt><trkpt lat="43.076616539684046" lon="11.571271176033918"><ele>315.4</ele><time>2026-04-11T13:05:40Z</time></trkpt><trkpt lat="43.07650564309165" lon="11.571264953419748"><ele>312.8</ele><time>2026-04-11T13:05:41Z</time></trkpt><trkpt lat="43.07639489239174" lon="11.571223801809507"><ele>310.2</ele><time>2026-04-11T13:05:42Z</time></trkpt><trkpt lat="43.07629650992213" lon="11.571157407021882"><ele>307.6</ele><time>2026-04-11T13:05:43Z</time></trkpt><trkpt lat="43.0762111752816" lon="11.571067002521202"><ele>305.0</ele><time>2026-04-11T13:05:44Z</time></trkpt><trkpt lat="43.076139517174965" lon="11.570968860944742"><ele>305.0</ele><time>2026-04-11T13:05:45Z</time></trkpt><trkpt lat="43.076066440419574" lon="11.570873185302137"><ele>305.0</ele><time>2026-04-11T13:05:46Z</time></trkpt><trkpt lat="43.07599106933825" lon="11.57078336145378"><ele>305.0</ele><time>2026-04-11T13:05:47Z</time></trkpt><trkpt lat="43.075910423615774" lon="11.570693852032328"><ele>305.0</ele><time>2026-04-11T13:05:48Z</time></trkpt><trkpt lat="43.07583017053252" lon="11.57060066550608"><ele>305.0</ele><time>2026-04-11T13:05:49Z</time></trkpt><trkpt lat="43.07574932443076" lon="11.57051574920581"><ele>305.4</ele><time>2026-04-11T13:05:50Z</time></trkpt><trkpt lat="43.075671268171526" lon="11.570428892511993"><ele>305.8</ele><time>2026-04-11T13:05:51Z</time></trkpt><trkpt lat="43.075590996485865" lon="11.570365065757862"><ele>306.2</ele><time>2026-04-11T13:05:52Z</time></trkpt><trkpt lat="43.07550795871744" lon="11.570339469157926"><ele>306.6</ele><time>2026-04-11T13:05:53Z</time></trkpt><trkpt lat="43.07542492027694" lon="11.570363797393753"><ele>307.0</ele><time>2026-04-11T13:05:54Z</time></trkpt><trkpt lat="43.07535304889117" lon="11.570435844185257"><ele>303.25</ele><time>2026-04-11T13:05:55Z</time></trkpt><trkpt lat="43.075291190361554" lon="11.570670240006134"><ele>299.5</ele><time>2026-04-11T13:05:57Z</time></trkpt><trkpt lat="43.07529243765867" lon="11.570800725404345"><ele>295.75</ele><time>2026-04-11T13:05:58Z</time></trkpt><trkpt lat="43.07530804540086" lon="11.570936062748553"><ele>292.0</ele><time>2026-04-11T13:05:59Z</time></trkpt><trkpt lat="43.07534839621436" lon="11.571066649046324"><ele>292.0</ele><time>2026-04-11T13:06:00Z</time></trkpt><trkpt lat="43.07540605382559" lon="11.57118734151853"><ele>292.0</ele><time>2026-04-11T13:06:01Z</time></trkpt><trkpt lat="43.07546809105637" lon="11.571303501568055"><ele>292.0</ele><time>2026-04-11T13:06:02Z</time></trkpt><trkpt lat="43.07553884578216" lon="11.571414116550645"><ele>292.0</ele><time>2026-04-11T13:06:03Z</time></trkpt><trkpt lat="43.07561172337825" lon="11.57152564086468"><ele>292.0</ele><time>2026-04-11T13:06:04Z</time></trkpt><trkpt lat="43.07568688274507" lon="11.571637660945651"><ele>293.0</ele><time>2026-04-11T13:06:05Z</time></trkpt><trkpt lat="43.07576158587802" lon="11.571754323502395"><ele>294.0</ele><time>2026-04-11T13:06:06Z</time></trkpt><trkpt lat="43.07581354315907" lon="11.571886632589894"><ele>295.0</ele><time>2026-04-11T13:06:07Z</time></trkpt><trkpt lat="43.07583590581805" lon="11.572029210450054"><ele>296.0</ele><time>2026-04-11T13:06:08Z</time></trkpt><trkpt lat="43.075841396675315" lon="11.572171965421896"><ele>297.0</ele><time>2026-04-11T13:06:09.001Z</time></trkpt><trkpt lat="43.075859476767484" lon="11.572309480185604"><ele>294.6</ele><time>2026-04-11T13:06:10.001Z</time></trkpt><trkpt lat="43.07591170997391" lon="11.572436627600538"><ele>292.2</ele><time>2026-04-11T13:06:11.001Z</time></trkpt><trkpt lat="43.07598505230021" lon="11.572547204152913"><ele>289.8</ele><time>2026-04-11T13:06:12.001Z</time></trkpt><trkpt lat="43.07606733184987" lon="11.572641409260164"><ele>287.4</ele><time>2026-04-11T13:06:13.001Z</time></trkpt><trkpt lat="43.076159992404115" lon="11.572717676973403"><ele>285.0</ele><time>2026-04-11T13:06:14.001Z</time></trkpt><trkpt lat="43.076257633103886" lon="11.57278771720784"><ele>285.0</ele><time>2026-04-11T13:06:15.001Z</time></trkpt><trkpt lat="43.0763547172733" lon="11.572848784793191"><ele>285.0</ele><time>2026-04-11T13:06:16.001Z</time></trkpt><trkpt lat="43.07649913220897" lon="11.57298700526943"><ele>285.0</ele><time>2026-04-11T13:06:18.001Z</time></trkpt><trkpt lat="43.07653767949687" lon="11.573086420023747"><ele>285.0</ele><time>2026-04-11T13:06:19.001Z</time></trkpt><trkpt lat="43.076540975122896" lon="11.573195909431085"><ele>285.0</ele><time>2026-04-11T13:06:20.001Z</time></trkpt><trkpt lat="43.07649742164879" lon="11.573303763622569"><ele>283.0</ele><time>2026-04-11T13:06:21.001Z</time></trkpt><trkpt lat="43.07642243777307" lon="11.573372885690633"><ele>281.0</ele><time>2026-04-11T13:06:22.001Z</time></trkpt><trkpt lat="43.076328179232235" lon="11.573386843170448"><ele>279.0</ele><time>2026-04-11T13:06:23.001Z</time></trkpt><trkpt lat="43.07623768666584" lon="11.573348941173046"><ele>277.0</ele><time>2026-04-11T13:06:24.001Z</time></trkpt><trkpt lat="43.076155095951385" lon="11.573279808440793"><ele>275.0</ele><time>2026-04-11T13:06:25Z</time></trkpt><trkpt lat="43.07607394329764" lon="11.573207402960664"><ele>275.0</ele><time>2026-04-11T13:06:26Z</time></trkpt><trkpt lat="43.07599311414342" lon="11.573136556070748"><ele>275.0</ele><time>2026-04-11T13:06:27Z</time></trkpt><trkpt lat="43.07591575113282" lon="11.573058891185802"><ele>275.0</ele><time>2026-04-11T13:06:28Z</time></trkpt><trkpt lat="43.075842603041174" lon="11.572975122619127"><ele>275.0</ele><time>2026-04-11T13:06:29Z</time></trkpt><trkpt lat="43.07576797274317" lon="11.57289651622358"><ele>275.0</ele><time>2026-04-11T13:06:30Z</time></trkpt><trkpt lat="43.075687268875" lon="11.572824864812052"><ele>274.33333333333337</ele><time>2026-04-11T13:06:31Z</time></trkpt><trkpt lat="43.07559930851813" lon="11.572779694098239"><ele>273.6666666666667</ele><time>2026-04-11T13:06:32Z</time></trkpt><trkpt lat="43.07551231894669" lon="11.572771683630231"><ele>273.0</ele><time>2026-04-11T13:06:33Z</time></trkpt><trkpt lat="43.075430467708706" lon="11.572798253260682"><ele>272.3333333333333</ele><time>2026-04-11T13:06:34Z</time></trkpt><trkpt lat="43.07536307654386" lon="11.572859414938817"><ele>271.66666666666663</ele><time>2026-04-11T13:06:35Z</time></trkpt><trkpt lat="43.075318818595115" lon="11.572957178341577"><ele>271.0</ele><time>2026-04-11T13:06:36Z</time></trkpt><trkpt lat="43.0753088030285" lon="11.573074263533421"><ele>270.0</ele><time>2026-04-11T13:06:37Z</time></trkpt><trkpt lat="43.075372254793024" lon="11.573299953781207"><ele>269.0</ele><time>2026-04-11T13:06:39Z</time></trkpt><trkpt lat="43.07540685452342" lon="11.57341620194027"><ele>268.0</ele><time>2026-04-11T13:06:40Z</time></trkpt><trkpt lat="43.07540231336632" lon="11.573548321417993"><ele>267.0</ele><time>2026-04-11T13:06:41Z</time></trkpt><trkpt lat="43.075367796884244" lon="11.573665351323285"><ele>265.4</ele><time>2026-04-11T13:06:42Z</time></trkpt><trkpt lat="43.07529926343313" lon="11.573755073297775"><ele>263.79999999999995</ele><time>2026-04-11T13:06:43Z</time></trkpt><trkpt lat="43.07521419578676" lon="11.573814483903098"><ele>262.2</ele><time>2026-04-11T13:06:44Z</time></trkpt><trkpt lat="43.07511638988597" lon="11.57384518114063"><ele>260.59999999999997</ele><time>2026-04-11T13:06:45Z</time></trkpt><trkpt lat="43.07501615812697" lon="11.57386127328468"><ele>259.0</ele><time>2026-04-11T13:06:46Z</time></trkpt><trkpt lat="43.07491669192892" lon="11.57386840307684"><ele>258.8</ele><time>2026-04-11T13:06:47Z</time></trkpt><trkpt lat="43.074814764359985" lon="11.57386032688177"><ele>258.59999999999997</ele><time>2026-04-11T13:06:48Z</time></trkpt><trkpt lat="43.074714079065025" lon="11.573843053748552"><ele>258.4</ele><time>2026-04-11T13:06:49Z</time></trkpt><trkpt lat="43.074612338945705" lon="11.573843602133726"><ele>258.2</ele><time>2026-04-11T13:06:50Z</time></trkpt><trkpt lat="43.07451037635815" lon="11.573865310561754"><ele>258.0</ele><time>2026-04-11T13:06:51Z</time></trkpt><trkpt lat="43.07441174885724" lon="11.573917025817119"><ele>258.0</ele><time>2026-04-11T13:06:52Z</time></trkpt><trkpt lat="43.07432341708044" lon="11.574004156601264"><ele>258.0</ele><time>2026-04-11T13:06:53Z</time></trkpt><trkpt lat="43.07425351026082" lon="11.57412001382501"><ele>258.0</ele><time>2026-04-11T13:06:54Z</time></trkpt><trkpt lat="43.07418824296911" lon="11.574242139901676"><ele>258.0</ele><time>2026-04-11T13:06:55Z</time></trkpt><trkpt lat="43.0741167385949" lon="11.574359807081038"><ele>258.0</ele><time>2026-04-11T13:06:56Z</time></trkpt><trkpt lat="43.07404248881022" lon="11.57447650226567"><ele>257.0</ele><time>2026-04-11T13:06:57Z</time></trkpt><trkpt lat="43.073970782693664" lon="11.574596134899616"><ele>256.0</ele><time>2026-04-11T13:06:58Z</time></trkpt><trkpt lat="43.0738403574319" lon="11.574844545705856"><ele>255.0</ele><time>2026-04-11T13:07:00Z</time></trkpt><trkpt lat="43.073779032909194" lon="11.574973750165833"><ele>254.0</ele><time>2026-04-11T13:07:01Z</time></trkpt><trkpt lat="43.07373041960639" lon="11.57511090418191"><ele>254.0</ele><time>2026-04-11T13:07:02Z</time></trkpt><trkpt lat="43.07369610212919" lon="11.575255738503694"><ele>253.99999999999997</ele><time>2026-04-11T13:07:03Z</time></trkpt><trkpt lat="43.07367068326321" lon="11.575397213022296"><ele>253.99999999999997</ele><time>2026-04-11T13:07:04Z</time></trkpt><trkpt lat="43.07365023827723" lon="11.575540350520418"><ele>254.0</ele><time>2026-04-11T13:07:05Z</time></trkpt><trkpt lat="43.073632681966394" lon="11.575684174226604"><ele>254.0</ele><time>2026-04-11T13:07:06Z</time></trkpt><trkpt lat="43.073614493410794" lon="11.575824002682813"><ele>253.6</ele><time>2026-04-11T13:07:07Z</time></trkpt><trkpt lat="43.073595504082135" lon="11.575963148865291"><ele>253.2</ele><time>2026-04-11T13:07:08Z</time></trkpt><trkpt lat="43.0735798500113" lon="11.576102433474382"><ele>252.79999999999998</ele><time>2026-04-11T13:07:09Z</time></trkpt><trkpt lat="43.073569932511816" lon="11.576239718466214"><ele>252.39999999999998</ele><time>2026-04-11T13:07:10Z</time></trkpt><trkpt lat="43.07356372928955" lon="11.576378471812438"><ele>252.0</ele><time>2026-04-11T13:07:11Z</time></trkpt><trkpt lat="43.07356514933014" lon="11.576518012742705"><ele>251.6</ele><time>2026-04-11T13:07:12Z</time></trkpt><trkpt lat="43.073567634231296" lon="11.576657693993468"><ele>251.2</ele><time>2026-04-11T13:07:13Z</time></trkpt><trkpt lat="43.073572176012604" lon="11.57679789823406"><ele>250.8</ele><time>2026-04-11T13:07:14Z</time></trkpt><trkpt lat="43.073582562842994" lon="11.576938294998548"><ele>250.4</ele><time>2026-04-11T13:07:15Z</time></trkpt><trkpt lat="43.073589136321104" lon="11.57707939591608"><ele>250.0</ele><time>2026-04-11T13:07:16Z</time></trkpt><trkpt lat="43.073597025503005" lon="11.57721793775323"><ele>249.75</ele><time>2026-04-11T13:07:17Z</time></trkpt><trkpt lat="43.07360155541106" lon="11.57735767563435"><ele>249.5</ele><time>2026-04-11T13:07:18Z</time></trkpt><trkpt lat="43.07360002114559" lon="11.577494118930145"><ele>249.25</ele><time>2026-04-11T13:07:19Z</time></trkpt><trkpt lat="43.07358518950913" lon="11.577758935663827"><ele>249.0</ele><time>2026-04-11T13:07:21Z</time></trkpt><trkpt lat="43.07356820008304" lon="11.577884493270123"><ele>249.33333333333334</ele><time>2026-04-11T13:07:22Z</time></trkpt><trkpt lat="43.073542970554655" lon="11.578001960791052"><ele>249.66666666666669</ele><time>2026-04-11T13:07:23Z</time></trkpt><trkpt lat="43.07350947120864" lon="11.578113442676603"><ele>250.0</ele><time>2026-04-11T13:07:24Z</time></trkpt><trkpt lat="43.0734626876029" lon="11.57821069822053"><ele>250.33333333333334</ele><time>2026-04-11T13:07:25Z</time></trkpt><trkpt lat="43.073410871056886" lon="11.578300814205685"><ele>250.66666666666669</ele><time>2026-04-11T13:07:26Z</time></trkpt><trkpt lat="43.0733606059802" lon="11.578389087904371"><ele>251.0</ele><time>2026-04-11T13:07:27Z</time></trkpt><trkpt lat="43.073307045875744" lon="11.578472378256494"><ele>251.00000000000003</ele><time>2026-04-11T13:07:28Z</time></trkpt><trkpt lat="43.07325559881976" lon="11.578555035729426"><ele>251.0</ele><time>2026-04-11T13:07:29Z</time></trkpt><trkpt lat="43.07320845685576" lon="11.57863839374743"><ele>251.0</ele><time>2026-04-11T13:07:30Z</time></trkpt><trkpt lat="43.073158004069285" lon="11.578716262792211"><ele>251.0</ele><time>2026-04-11T13:07:31Z</time></trkpt><trkpt lat="43.07310669327831" lon="11.578792064439176"><ele>251.00000000000003</ele><time>2026-04-11T13:07:32Z</time></trkpt><trkpt lat="43.07305870298015" lon="11.578868147524002"><ele>251.0</ele><time>2026-04-11T13:07:33Z</time></trkpt><trkpt lat="43.07301322742152" lon="11.578945790474746"><ele>251.28571428571425</ele><time>2026-04-11T13:07:34Z</time></trkpt><trkpt lat="43.07296802955009" lon="11.579022111279416"><ele>251.57142857142856</ele><time>2026-04-11T13:07:35Z</time></trkpt><trkpt lat="43.07292595213835" lon="11.579096943278804"><ele>251.85714285714286</ele><time>2026-04-11T13:07:36Z</time></trkpt><trkpt lat="43.07288324149012" lon="11.579169689332343"><ele>252.14285714285714</ele><time>2026-04-11T13:07:37Z</time></trkpt><trkpt lat="43.072843198660664" lon="11.579242418773216"><ele>252.42857142857144</ele><time>2026-04-11T13:07:38Z</time></trkpt><trkpt lat="43.07280673858822" lon="11.57931676669602"><ele>252.71428571428575</ele><time>2026-04-11T13:07:39Z</time></trkpt><trkpt lat="43.07276779987668" lon="11.579386117143459"><ele>253.00000000000003</ele><time>2026-04-11T13:07:40Z</time></trkpt><trkpt lat="43.07264688569849" lon="11.579583344857815"><ele>253.2</ele><time>2026-04-11T13:07:43Z</time></trkpt><trkpt lat="43.0725674096017" lon="11.579702755447213"><ele>253.4</ele><time>2026-04-11T13:07:45Z</time></trkpt><trkpt lat="43.072485669749426" lon="11.57980977243869"><ele>253.59999999999997</ele><time>2026-04-11T13:07:47Z</time></trkpt><trkpt lat="43.072398110008606" lon="11.579907260406795"><ele>253.79999999999998</ele><time>2026-04-11T13:07:49Z</time></trkpt><trkpt lat="43.07232203390081" lon="11.580003218590075"><ele>254.0</ele><time>2026-04-11T13:07:51Z</time></trkpt><trkpt lat="43.07225036878865" lon="11.580102849469965"><ele>255.39999999999998</ele><time>2026-04-11T13:07:53Z</time></trkpt><trkpt lat="43.07218177116708" lon="11.58019354168221"><ele>256.79999999999995</ele><time>2026-04-11T13:07:55Z</time></trkpt><trkpt lat="43.07211569719545" lon="11.580274885584657"><ele>258.20000000000005</ele><time>2026-04-11T13:07:57Z</time></trkpt><trkpt lat="43.072064706706946" lon="11.580372206660073"><ele>259.6</ele><time>2026-04-11T13:07:59Z</time></trkpt><trkpt lat="43.07202596355156" lon="11.580476767269307"><ele>261.0</ele><time>2026-04-11T13:08:01Z</time></trkpt><trkpt lat="43.07197238902247" lon="11.580682240751239"><ele>261.3333333333333</ele><time>2026-04-11T13:08:05Z</time></trkpt><trkpt lat="43.07196533637538" lon="11.580781763722523"><ele>261.6666666666667</ele><time>2026-04-11T13:08:07Z</time></trkpt><trkpt lat="43.07197400793207" lon="11.580885684583016"><ele>262.0</ele><time>2026-04-11T13:08:09Z</time></trkpt><trkpt lat="43.07198117737548" lon="11.580987626629238"><ele>262.33333333333337</ele><time>2026-04-11T13:08:11Z</time></trkpt><trkpt lat="43.071996635573846" lon="11.581089391220111"><ele>262.6666666666667</ele><time>2026-04-11T13:08:13Z</time></trkpt><trkpt lat="43.07202359055881" lon="11.58118456272295"><ele>263.0</ele><time>2026-04-11T13:08:15Z</time></trkpt><trkpt lat="43.072052526558046" lon="11.581281034276914"><ele>263.83333333333337</ele><time>2026-04-11T13:08:17Z</time></trkpt><trkpt lat="43.072083034859716" lon="11.581377586982674"><ele>264.6666666666667</ele><time>2026-04-11T13:08:19.001Z</time></trkpt><trkpt lat="43.0721167504348" lon="11.581475737385142"><ele>265.5</ele><time>2026-04-11T13:08:21.001Z</time></trkpt><trkpt lat="43.0721494800432" lon="11.58156770265199"><ele>266.3333333333333</ele><time>2026-04-11T13:08:23.001Z</time></trkpt><trkpt lat="43.072171611462814" lon="11.581765323884945"><ele>267.16666666666663</ele><time>2026-04-11T13:08:27.001Z</time></trkpt><trkpt lat="43.07214868247114" lon="11.581852020081683"><ele>268.0</ele><time>2026-04-11T13:08:29.001Z</time></trkpt><trkpt lat="43.07208343984419" lon="11.58192345405584"><ele>268.0</ele><time>2026-04-11T13:08:32Z</time></trkpt><trkpt lat="43.07199310825959" lon="11.581925556603846"><ele>268.0</ele><time>2026-04-11T13:08:35Z</time></trkpt><trkpt lat="43.07191853945483" lon="11.581869232350316"><ele>268.0</ele><time>2026-04-11T13:08:38Z</time></trkpt><trkpt lat="43.07185469701103" lon="11.581797165668775"><ele>268.0</ele><time>2026-04-11T13:08:41Z</time></trkpt><trkpt lat="43.071794412029455" lon="11.581721880332807"><ele>268.0</ele><time>2026-04-11T13:08:44Z</time></trkpt><trkpt lat="43.07165224418707" lon="11.581591615896741"><ele>269.16666666666663</ele><time>2026-04-11T13:08:50Z</time></trkpt><trkpt lat="43.07156412063122" lon="11.581564763076024"><ele>270.3333333333333</ele><time>2026-04-11T13:08:53Z</time></trkpt><trkpt lat="43.07149118227218" lon="11.581515195624956"><ele>271.5</ele><time>2026-04-11T13:08:56Z</time></trkpt><trkpt lat="43.07141709212794" lon="11.581470842995902"><ele>272.6666666666667</ele><time>2026-04-11T13:08:59Z</time></trkpt><trkpt lat="43.071338868202275" lon="11.581446876958726"><ele>273.83333333333337</ele><time>2026-04-11T13:09:02Z</time></trkpt><trkpt lat="43.07126080327712" lon="11.58139167700997"><ele>275.0</ele><time>2026-04-11T13:09:05Z</time></trkpt><trkpt lat="43.071148049216326" lon="11.58123263517791"><ele>274.6666666666667</ele><time>2026-04-11T13:09:11Z</time></trkpt><trkpt lat="43.071102703204474" lon="11.581139235264908"><ele>274.33333333333337</ele><time>2026-04-11T13:09:14Z</time></trkpt><trkpt lat="43.07104433685198" lon="11.581052638315954"><ele>274.0</ele><time>2026-04-11T13:09:17Z</time></trkpt><trkpt lat="43.07097502651671" lon="11.580981892400407"><ele>273.6666666666667</ele><time>2026-04-11T13:09:20Z</time></trkpt><trkpt lat="43.07089299694991" lon="11.580946329029787"><ele>273.3333333333333</ele><time>2026-04-11T13:09:23Z</time></trkpt><trkpt lat="43.070811989456494" lon="11.580969816730146"><ele>273.0</ele><time>2026-04-11T13:09:26Z</time></trkpt><trkpt lat="43.07069087134063" lon="11.581109941819019"><ele>273.3333333333333</ele><time>2026-04-11T13:09:32Z</time></trkpt><trkpt lat="43.07067119468585" lon="11.58122015693914"><ele>273.6666666666667</ele><time>2026-04-11T13:09:35Z</time></trkpt><trkpt lat="43.07067633369091" lon="11.581338440206622"><ele>274.0</ele><time>2026-04-11T13:09:38Z</time></trkpt><trkpt lat="43.07071021230208" lon="11.581446226655398"><ele>274.33333333333337</ele><time>2026-04-11T13:09:41Z</time></trkpt><trkpt lat="43.070752688213105" lon="11.581552389283972"><ele>274.6666666666667</ele><time>2026-04-11T13:09:44Z</time></trkpt><trkpt lat="43.07080024669749" lon="11.581651415525341"><ele>275.0</ele><time>2026-04-11T13:09:47Z</time></trkpt><trkpt lat="43.070888009319205" lon="11.581822633264972"><ele>275.0</ele><time>2026-04-11T13:09:52Z</time></trkpt><trkpt lat="43.0709359454314" lon="11.581920913461428"><ele>275.0</ele><time>2026-04-11T13:09:55Z</time></trkpt><trkpt lat="43.07097875302539" lon="11.581985608468692"><ele>275.0</ele><time>2026-04-11T13:09:57Z</time></trkpt><trkpt lat="43.07101522992389" lon="11.582102279555937"><ele>275.0</ele><time>2026-04-11T13:10:00Z</time></trkpt><trkpt lat="43.07105828071156" lon="11.582210027123066"><ele>275.0</ele><time>2026-04-11T13:10:03Z</time></trkpt><trkpt lat="43.07109864448104" lon="11.582320316914062"><ele>275.0</ele><time>2026-04-11T13:10:06Z</time></trkpt><trkpt lat="43.07112997330812" lon="11.582434539987208"><ele>276.6</ele><time>2026-04-11T13:10:09Z</time></trkpt><trkpt lat="43.071170458055576" lon="11.582676745252591"><ele>278.2</ele><time>2026-04-11T13:10:15.001Z</time></trkpt><trkpt lat="43.071173724313105" lon="11.582794409609587"><ele>279.8</ele><time>2026-04-11T13:10:18.001Z</time></trkpt><trkpt lat="43.07116995681251" lon="11.582914004649348"><ele>281.4</ele><time>2026-04-11T13:10:21.001Z</time></trkpt><trkpt lat="43.07116092187835" lon="11.583035433174457"><ele>283.0</ele><time>2026-04-11T13:10:24.001Z</time></trkpt><trkpt lat="43.071136173528764" lon="11.583153679722118"><ele>283.4</ele><time>2026-04-11T13:10:27.001Z</time></trkpt><trkpt lat="43.071100617236056" lon="11.583270842989622"><ele>283.8</ele><time>2026-04-11T13:10:30.001Z</time></trkpt><trkpt lat="43.07104100220847" lon="11.583452668543432"><ele>284.2</ele><time>2026-04-11T13:10:35.001Z</time></trkpt><trkpt lat="43.071003910158" lon="11.583563741811302"><ele>284.6</ele><time>2026-04-11T13:10:38Z</time></trkpt><trkpt lat="43.07096930270267" lon="11.583672685776245"><ele>285.0</ele><time>2026-04-11T13:10:41Z</time></trkpt><trkpt lat="43.07093191565966" lon="11.583782172468315"><ele>285.6</ele><time>2026-04-11T13:10:44Z</time></trkpt><trkpt lat="43.07089915904221" lon="11.583893145821152"><ele>286.2</ele><time>2026-04-11T13:10:47Z</time></trkpt><trkpt lat="43.07086839916782" lon="11.584002300773195"><ele>286.8</ele><time>2026-04-11T13:10:50Z</time></trkpt><trkpt lat="43.07083534476867" lon="11.584113640318394"><ele>287.4</ele><time>2026-04-11T13:10:53Z</time></trkpt><trkpt lat="43.070767975306104" lon="11.584318686973248"><ele>288.0</ele><time>2026-04-11T13:10:59Z</time></trkpt><trkpt lat="43.070735186081976" lon="11.584427383903487"><ele>289.2</ele><time>2026-04-11T13:11:02Z</time></trkpt><trkpt lat="43.07069990436639" lon="11.584534088162757"><ele>290.4</ele><time>2026-04-11T13:11:05Z</time></trkpt><trkpt lat="43.0706627962398" lon="11.584643008575846"><ele>291.59999999999997</ele><time>2026-04-11T13:11:08Z</time></trkpt><trkpt lat="43.07062942314922" lon="11.584748418108713"><ele>292.8</ele><time>2026-04-11T13:11:11Z</time></trkpt><trkpt lat="43.07059245328362" lon="11.584855519344966"><ele>294.0</ele><time>2026-04-11T13:11:14Z</time></trkpt><trkpt lat="43.07051487444751" lon="11.585059874126276"><ele>294.0</ele><time>2026-04-11T13:11:20Z</time></trkpt><trkpt lat="43.07046445481864" lon="11.585148198324298"><ele>294.0</ele><time>2026-04-11T13:11:23Z</time></trkpt><trkpt lat="43.07040351707131" lon="11.585206345892757"><ele>294.0</ele><time>2026-04-11T13:11:26Z</time></trkpt><trkpt lat="43.07033792223021" lon="11.585243677474622"><ele>294.0</ele><time>2026-04-11T13:11:29Z</time></trkpt><trkpt lat="43.07025944741632" lon="11.585236331724209"><ele>294.0</ele><time>2026-04-11T13:11:32Z</time></trkpt><trkpt lat="43.070179089728185" lon="11.585220279776074"><ele>294.0</ele><time>2026-04-11T13:11:35Z</time></trkpt><trkpt lat="43.0700370234017" lon="11.585101417758562"><ele>294.0</ele><time>2026-04-11T13:11:41Z</time></trkpt><trkpt lat="43.069966805024166" lon="11.58504755282788"><ele>294.0</ele><time>2026-04-11T13:11:44Z</time></trkpt><trkpt lat="43.069897346216" lon="11.584997359986705"><ele>294.0</ele><time>2026-04-11T13:11:47Z</time></trkpt><trkpt lat="43.06982915626769" lon="11.584952395911708"><ele>294.0</ele><time>2026-04-11T13:11:50Z</time></trkpt><trkpt lat="43.06976364320726" lon="11.58490511290863"><ele>294.0</ele><time>2026-04-11T13:11:53Z</time></trkpt><trkpt lat="43.069694374772546" lon="11.584862962068549"><ele>294.0</ele><time>2026-04-11T13:11:56Z</time></trkpt><trkpt lat="43.06954663115846" lon="11.584760212319628"><ele>294.8333333333333</ele><time>2026-04-11T13:12:02Z</time></trkpt><trkpt lat="43.069476787343646" lon="11.584687292326242"><ele>295.6666666666667</ele><time>2026-04-11T13:12:05Z</time></trkpt><trkpt lat="43.06940333357926" lon="11.58463112789551"><ele>296.5</ele><time>2026-04-11T13:12:08Z</time></trkpt><trkpt lat="43.06932757449533" lon="11.58458399582917"><ele>297.33333333333337</ele><time>2026-04-11T13:12:11Z</time></trkpt><trkpt lat="43.06925900064709" lon="11.584522595460944"><ele>298.1666666666667</ele><time>2026-04-11T13:12:14.001Z</time></trkpt><trkpt lat="43.069184158949106" lon="11.58447084707155"><ele>299.0</ele><time>2026-04-11T13:12:17.001Z</time></trkpt><trkpt lat="43.06904237250448" lon="11.584357770602534"><ele>299.33333333333337</ele><time>2026-04-11T13:12:23.001Z</time></trkpt><trkpt lat="43.06896789522505" lon="11.584297242542918"><ele>299.6666666666667</ele><time>2026-04-11T13:12:26.001Z</time></trkpt><trkpt lat="43.06889457577382" lon="11.584247613218723"><ele>300.0</ele><time>2026-04-11T13:12:29.001Z</time></trkpt><trkpt lat="43.06882784988596" lon="11.584193369826542"><ele>300.3333333333333</ele><time>2026-04-11T13:12:32.001Z</time></trkpt><trkpt lat="43.068753495776726" lon="11.584147767460466"><ele>300.66666666666663</ele><time>2026-04-11T13:12:35.001Z</time></trkpt><trkpt lat="43.0686794675763" lon="11.58409977365089"><ele>301.0</ele><time>2026-04-11T13:12:38.001Z</time></trkpt><trkpt lat="43.06851553713922" lon="11.584086473692027"><ele>301.0</ele><time>2026-04-11T13:12:44Z</time></trkpt><trkpt lat="43.0684316436918" lon="11.584125845214137"><ele>301.0</ele><time>2026-04-11T13:12:47Z</time></trkpt><trkpt lat="43.0683518235097" lon="11.584181855178022"><ele>301.0</ele><time>2026-04-11T13:12:50Z</time></trkpt><trkpt lat="43.06828392393153" lon="11.584252646592184"><ele>301.0</ele><time>2026-04-11T13:12:53Z</time></trkpt><trkpt lat="43.068214252986984" lon="11.584321453045902"><ele>301.0</ele><time>2026-04-11T13:12:56Z</time></trkpt><trkpt lat="43.068158896356046" lon="11.584396100427368"><ele>301.0</ele><time>2026-04-11T13:12:59Z</time></trkpt><trkpt lat="43.06806132431388" lon="11.584589457585171"><ele>300.66666666666663</ele><time>2026-04-11T13:13:05Z</time></trkpt><trkpt lat="43.06803579019543" lon="11.584701479808523"><ele>300.3333333333333</ele><time>2026-04-11T13:13:08Z</time></trkpt><trkpt lat="43.06801747996715" lon="11.584813630157033"><ele>300.0</ele><time>2026-04-11T13:13:11Z</time></trkpt><trkpt lat="43.06800818333424" lon="11.584932824084772"><ele>299.6666666666667</ele><time>2026-04-11T13:13:14Z</time></trkpt><trkpt lat="43.06800004184211" lon="11.585050678652882"><ele>299.33333333333337</ele><time>2026-04-11T13:13:17Z</time></trkpt><trkpt lat="43.06799347698693" lon="11.585165805891142"><ele>299.0</ele><time>2026-04-11T13:13:20Z</time></trkpt><trkpt lat="43.0679861531623" lon="11.585393060651846"><ele>300.33333333333337</ele><time>2026-04-11T13:13:26Z</time></trkpt><trkpt lat="43.06799001795271" lon="11.585502374222015"><ele>301.6666666666667</ele><time>2026-04-11T13:13:29Z</time></trkpt><trkpt lat="43.067975692941104" lon="11.585616804002136"><ele>303.0</ele><time>2026-04-11T13:13:32Z</time></trkpt><trkpt lat="43.0679763041539" lon="11.585744703220694"><ele>304.3333333333333</ele><time>2026-04-11T13:13:35Z</time></trkpt><trkpt lat="43.067972822573964" lon="11.585869647323403"><ele>305.66666666666663</ele><time>2026-04-11T13:13:38Z</time></trkpt><trkpt lat="43.067963969605394" lon="11.585994325421224"><ele>307.0</ele><time>2026-04-11T13:13:41Z</time></trkpt><trkpt lat="43.06795109132179" lon="11.586240319636843"><ele>308.3333333333333</ele><time>2026-04-11T13:13:47Z</time></trkpt><trkpt lat="43.06794017022215" lon="11.586359186033176"><ele>309.66666666666663</ele><time>2026-04-11T13:13:50Z</time></trkpt><trkpt lat="43.06793394399136" lon="11.586476400793789"><ele>311.0</ele><time>2026-04-11T13:13:53Z</time></trkpt><trkpt lat="43.06791976573676" lon="11.58658144279115"><ele>312.3333333333333</ele><time>2026-04-11T13:13:56Z</time></trkpt><trkpt lat="43.06790108282381" lon="11.586694368153704"><ele>313.6666666666667</ele><time>2026-04-11T13:13:59Z</time></trkpt><trkpt lat="43.06787080055828" lon="11.586798290072045"><ele>315.0</ele><time>2026-04-11T13:14:02Z</time></trkpt><trkpt lat="43.067789827520926" lon="11.586984734201415"><ele>315.3333333333333</ele><time>2026-04-11T13:14:08Z</time></trkpt><trkpt lat="43.06774811677976" lon="11.587075112135944"><ele>315.6666666666667</ele><time>2026-04-11T13:14:11Z</time></trkpt><trkpt lat="43.06770765553523" lon="11.587171489247416"><ele>316.0</ele><time>2026-04-11T13:14:14Z</time></trkpt><trkpt lat="43.06765774492539" lon="11.587258824121717"><ele>316.33333333333337</ele><time>2026-04-11T13:14:17Z</time></trkpt><trkpt lat="43.06761629764961" lon="11.587351149526672"><ele>316.6666666666667</ele><time>2026-04-11T13:14:20Z</time></trkpt><trkpt lat="43.067559725874546" lon="11.587438848071418"><ele>317.0</ele><time>2026-04-11T13:14:23.001Z</time></trkpt><trkpt lat="43.067462685651755" lon="11.587637599948266"><ele>316.83333333333337</ele><time>2026-04-11T13:14:29.001Z</time></trkpt><trkpt lat="43.06740675856368" lon="11.587730688974682"><ele>316.6666666666667</ele><time>2026-04-11T13:14:32.001Z</time></trkpt><trkpt lat="43.067363306313595" lon="11.587832284655116"><ele>316.5</ele><time>2026-04-11T13:14:35.001Z</time></trkpt><trkpt lat="43.06732238380193" lon="11.587927514800452"><ele>316.3333333333333</ele><time>2026-04-11T13:14:38.001Z</time></trkpt><trkpt lat="43.067262810551526" lon="11.588009655626236"><ele>316.16666666666663</ele><time>2026-04-11T13:14:41.001Z</time></trkpt><trkpt lat="43.0672083584709" lon="11.588103927597992"><ele>316.0</ele><time>2026-04-11T13:14:44.001Z</time></trkpt><trkpt lat="43.067107053136034" lon="11.58827265593251"><ele>316.8333333333333</ele><time>2026-04-11T13:14:50Z</time></trkpt><trkpt lat="43.067068356121986" lon="11.588369348392572"><ele>317.66666666666663</ele><time>2026-04-11T13:14:53Z</time></trkpt><trkpt lat="43.06702212141318" lon="11.588464854112468"><ele>318.5</ele><time>2026-04-11T13:14:56Z</time></trkpt><trkpt lat="43.066984265373634" lon="11.58856544296852"><ele>319.3333333333333</ele><time>2026-04-11T13:14:59Z</time></trkpt><trkpt lat="43.066934477146894" lon="11.58867268895089"><ele>320.1666666666667</ele><time>2026-04-11T13:15:02Z</time></trkpt><trkpt lat="43.066893451828214" lon="11.588771012062246"><ele>321.0</ele><time>2026-04-11T13:15:05Z</time></trkpt><trkpt lat="43.06681700089984" lon="11.588989295392084"><ele>321.3333333333333</ele><time>2026-04-11T13:15:11Z</time></trkpt><trkpt lat="43.06678644540434" lon="11.58910063425435"><ele>321.6666666666667</ele><time>2026-04-11T13:15:14Z</time></trkpt><trkpt lat="43.06675587786848" lon="11.589212594809046"><ele>322.0</ele><time>2026-04-11T13:15:17Z</time></trkpt><trkpt lat="43.066724866627844" lon="11.589328987279387"><ele>322.33333333333337</ele><time>2026-04-11T13:15:20Z</time></trkpt><trkpt lat="43.06670306255053" lon="11.589447145251183"><ele>322.6666666666667</ele><time>2026-04-11T13:15:23Z</time></trkpt><trkpt lat="43.06666573357504" lon="11.589563803833533"><ele>323.0</ele><time>2026-04-11T13:15:26Z</time></trkpt><trkpt lat="43.06659955086788" lon="11.589790403587184"><ele>324.5</ele><time>2026-04-11T13:15:32Z</time></trkpt><trkpt lat="43.06657378745959" lon="11.589899798754109"><ele>326.0</ele><time>2026-04-11T13:15:35Z</time></trkpt><trkpt lat="43.0665349977291" lon="11.590006280419296"><ele>327.5</ele><time>2026-04-11T13:15:38Z</time></trkpt><trkpt lat="43.06648641446383" lon="11.590107123179333"><ele>329.0</ele><time>2026-04-11T13:15:41Z</time></trkpt><trkpt lat="43.066411255939926" lon="11.590177703576236"><ele>330.5</ele><time>2026-04-11T13:15:44Z</time></trkpt><trkpt lat="43.06633638481116" lon="11.590222805416582"><ele>332.0</ele><time>2026-04-11T13:15:47Z</time></trkpt><trkpt lat="43.06615942988214" lon="11.590198362436166"><ele>332.0</ele><time>2026-04-11T13:15:53Z</time></trkpt><trkpt lat="43.0660839041991" lon="11.590172194089096"><ele>332.0</ele><time>2026-04-11T13:15:56Z</time></trkpt><trkpt lat="43.066013390859375" lon="11.590148530189161"><ele>332.0</ele><time>2026-04-11T13:15:59Z</time></trkpt><trkpt lat="43.06594267637361" lon="11.590145507619107"><ele>332.0</ele><time>2026-04-11T13:16:02Z</time></trkpt><trkpt lat="43.065867810713634" lon="11.59013916201813"><ele>332.0</ele><time>2026-04-11T13:16:05Z</time></trkpt><trkpt lat="43.06580044973262" lon="11.590121256671692"><ele>332.0</ele><time>2026-04-11T13:16:08Z</time></trkpt><trkpt lat="43.06566787949996" lon="11.590170718404709"><ele>331.83333333333337</ele><time>2026-04-11T13:16:14Z</time></trkpt><trkpt lat="43.06560278507251" lon="11.590205781054033"><ele>331.6666666666667</ele><time>2026-04-11T13:16:17Z</time></trkpt><trkpt lat="43.065536215090106" lon="11.590250465848774"><ele>331.5</ele><time>2026-04-11T13:16:20Z</time></trkpt><trkpt lat="43.06547153818049" lon="11.590290865436597"><ele>331.3333333333333</ele><time>2026-04-11T13:16:23Z</time></trkpt><trkpt lat="43.06540935796539" lon="11.590330677648943"><ele>331.16666666666663</ele><time>2026-04-11T13:16:26Z</time></trkpt><trkpt lat="43.06534406641966" lon="11.59037166549613"><ele>331.0</ele><time>2026-04-11T13:16:29.001Z</time></trkpt><trkpt lat="43.065218821429696" lon="11.590465902467507"><ele>330.8333333333333</ele><time>2026-04-11T13:16:35.001Z</time></trkpt><trkpt lat="43.0651586057457" lon="11.5905181376881"><ele>330.66666666666663</ele><time>2026-04-11T13:16:38.001Z</time></trkpt><trkpt lat="43.065104995388545" lon="11.590580777916157"><ele>330.5</ele><time>2026-04-11T13:16:41.001Z</time></trkpt><trkpt lat="43.065048899979466" lon="11.590639396895538"><ele>330.3333333333333</ele><time>2026-04-11T13:16:44.001Z</time></trkpt><trkpt lat="43.06500132884906" lon="11.590711122843508"><ele>330.1666666666667</ele><time>2026-04-11T13:16:47.001Z</time></trkpt><trkpt lat="43.06495049082976" lon="11.590778068707202"><ele>330.0</ele><time>2026-04-11T13:16:50.001Z</time></trkpt><trkpt lat="43.0648710819133" lon="11.59094078828066"><ele>330.0</ele><time>2026-04-11T13:16:56Z</time></trkpt><trkpt lat="43.064842128279615" lon="11.59102644671962"><ele>330.0</ele><time>2026-04-11T13:16:59Z</time></trkpt><trkpt lat="43.064811020870245" lon="11.591126493288737"><ele>330.0</ele><time>2026-04-11T13:17:02Z</time></trkpt><trkpt lat="43.06479072400512" lon="11.59122182727944"><ele>330.0</ele><time>2026-04-11T13:17:05Z</time></trkpt><trkpt lat="43.064777106225854" lon="11.591316585086869"><ele>330.0</ele><time>2026-04-11T13:17:08Z</time></trkpt><trkpt lat="43.06477682273388" lon="11.591428735202152"><ele>330.0</ele><time>2026-04-11T13:17:11Z</time></trkpt><trkpt lat="43.064782193617845" lon="11.591671153790209"><ele>331.0</ele><time>2026-04-11T13:17:17Z</time></trkpt><trkpt lat="43.064798692641105" lon="11.591793207927537"><ele>332.0</ele><time>2026-04-11T13:17:20Z</time></trkpt><trkpt lat="43.06480285256539" lon="11.59191233572299"><ele>333.0</ele><time>2026-04-11T13:17:23Z</time></trkpt><trkpt lat="43.06480866640506" lon="11.592036101886485"><ele>334.0</ele><time>2026-04-11T13:17:26Z</time></trkpt><trkpt lat="43.064814016990915" lon="11.592168148247232"><ele>335.0</ele><time>2026-04-11T13:17:29Z</time></trkpt><trkpt lat="43.06481194670458" lon="11.592285399213887"><ele>336.2</ele><time>2026-04-11T13:17:32Z</time></trkpt><trkpt lat="43.06479356349254" lon="11.592519766624946"><ele>337.4</ele><time>2026-04-11T13:17:38Z</time></trkpt><trkpt lat="43.064768128995205" lon="11.59262729097154"><ele>338.6</ele><time>2026-04-11T13:17:41Z</time></trkpt><trkpt lat="43.064742904719694" lon="11.59273426210874"><ele>339.8</ele><time>2026-04-11T13:17:44Z</time></trkpt><trkpt lat="43.06471172579435" lon="11.592837464522331"><ele>341.0</ele><time>2026-04-11T13:17:47Z</time></trkpt><trkpt lat="43.064686394955686" lon="11.592948802037522"><ele>342.4</ele><time>2026-04-11T13:17:50Z</time></trkpt><trkpt lat="43.06465418007868" lon="11.593057028901587"><ele>343.8</ele><time>2026-04-11T13:17:53Z</time></trkpt><trkpt lat="43.064594789076466" lon="11.593273221927738"><ele>345.2</ele><time>2026-04-11T13:17:59Z</time></trkpt><trkpt lat="43.06456779474935" lon="11.593384924927909"><ele>346.59999999999997</ele><time>2026-04-11T13:18:02Z</time></trkpt><trkpt lat="43.06455094103347" lon="11.59350505927473"><ele>348.0</ele><time>2026-04-11T13:18:05Z</time></trkpt><trkpt lat="43.064539206429615" lon="11.593622846908866"><ele>349.4</ele><time>2026-04-11T13:18:08Z</time></trkpt><trkpt lat="43.06452388427953" lon="11.59374013735667"><ele>350.79999999999995</ele><time>2026-04-11T13:18:11Z</time></trkpt><trkpt lat="43.06450874205576" lon="11.59385682900047"><ele>352.2</ele><time>2026-04-11T13:18:14Z</time></trkpt><trkpt lat="43.06447918887043" lon="11.594083659685202"><ele>353.6</ele><time>2026-04-11T13:18:20Z</time></trkpt><trkpt lat="43.0644721729738" lon="11.594198780429297"><ele>355.0</ele><time>2026-04-11T13:18:23Z</time></trkpt><trkpt lat="43.064449071182935" lon="11.594308237781053"><ele>355.0</ele><time>2026-04-11T13:18:26Z</time></trkpt><trkpt lat="43.06443732742023" lon="11.59441827085531"><ele>355.0</ele><time>2026-04-11T13:18:29.001Z</time></trkpt><trkpt lat="43.06441865907895" lon="11.594530039747553"><ele>355.0</ele><time>2026-04-11T13:18:32.001Z</time></trkpt><trkpt lat="43.064404504168735" lon="11.594640283513046"><ele>355.0</ele><time>2026-04-11T13:18:35.001Z</time></trkpt><trkpt lat="43.06438227835599" lon="11.594878061957104"><ele>355.0</ele><time>2026-04-11T13:18:41.001Z</time></trkpt><trkpt lat="43.06436553785638" lon="11.5949659118721"><ele>356.16666666666663</ele><time>2026-04-11T13:18:43.001Z</time></trkpt><trkpt lat="43.064342421454725" lon="11.595056955828252"><ele>357.3333333333333</ele><time>2026-04-11T13:18:46.001Z</time></trkpt><trkpt lat="43.064311620303855" lon="11.595163401614073"><ele>358.5</ele><time>2026-04-11T13:18:49.001Z</time></trkpt><trkpt lat="43.06427728140481" lon="11.595279450749947"><ele>359.6666666666667</ele><time>2026-04-11T13:18:52.001Z</time></trkpt><trkpt lat="43.064222687344326" lon="11.595382799529238"><ele>360.83333333333337</ele><time>2026-04-11T13:18:55.001Z</time></trkpt><trkpt lat="43.064168923315236" lon="11.595444576867528"><ele>362.0</ele><time>2026-04-11T13:18:57.001Z</time></trkpt><trkpt lat="43.06405557714629" lon="11.595613905476156"><ele>362.6666666666667</ele><time>2026-04-11T13:19:03Z</time></trkpt><trkpt lat="43.06400321380915" lon="11.595689839941246"><ele>363.33333333333337</ele><time>2026-04-11T13:19:06Z</time></trkpt><trkpt lat="43.063952869453566" lon="11.595763252190872"><ele>364.0</ele><time>2026-04-11T13:19:09Z</time></trkpt><trkpt lat="43.06390142991454" lon="11.595835637246402"><ele>364.6666666666667</ele><time>2026-04-11T13:19:12Z</time></trkpt><trkpt lat="43.06385063793642" lon="11.595910040623268"><ele>365.3333333333333</ele><time>2026-04-11T13:19:15Z</time></trkpt><trkpt lat="43.06379571933587" lon="11.59598283608774"><ele>366.0</ele><time>2026-04-11T13:19:18Z</time></trkpt><trkpt lat="43.06368982686453" lon="11.596118937369209"><ele>367.6666666666667</ele><time>2026-04-11T13:19:24Z</time></trkpt><trkpt lat="43.063629429863546" lon="11.596198793000768"><ele>369.3333333333333</ele><time>2026-04-11T13:19:28Z</time></trkpt><trkpt lat="43.06358132552108" lon="11.596263062565315"><ele>371.0</ele><time>2026-04-11T13:19:31Z</time></trkpt><trkpt lat="43.0635362561941" lon="11.5963333857586"><ele>372.66666666666663</ele><time>2026-04-11T13:19:34Z</time></trkpt><trkpt lat="43.06347366526828" lon="11.59641491620537"><ele>374.3333333333333</ele><time>2026-04-11T13:19:38Z</time></trkpt><trkpt lat="43.063414779421" lon="11.596494396736672"><ele>376.0</ele><time>2026-04-11T13:19:42Z</time></trkpt><trkpt lat="43.06330976248441" lon="11.59661251291003"><ele>375.8333333333333</ele><time>2026-04-11T13:19:48Z</time></trkpt><trkpt lat="43.063252090145674" lon="11.59666932225513"><ele>375.66666666666663</ele><time>2026-04-11T13:19:51Z</time></trkpt><trkpt lat="43.06319746392719" lon="11.596720829432009"><ele>375.5</ele><time>2026-04-11T13:19:54Z</time></trkpt><trkpt lat="43.063145767678165" lon="11.596772039214548"><ele>375.3333333333333</ele><time>2026-04-11T13:19:57Z</time></trkpt><trkpt lat="43.06309143765136" lon="11.596817599213107"><ele>375.1666666666667</ele><time>2026-04-11T13:20:00Z</time></trkpt><trkpt lat="43.06303337800583" lon="11.596867399243754"><ele>375.0</ele><time>2026-04-11T13:20:03Z</time></trkpt><trkpt lat="43.06291811707373" lon="11.59695892487224"><ele>376.8333333333333</ele><time>2026-04-11T13:20:09Z</time></trkpt><trkpt lat="43.06285842422681" lon="11.597005309097396"><ele>378.66666666666663</ele><time>2026-04-11T13:20:12Z</time></trkpt><trkpt lat="43.06278569880185" lon="11.597062931627601"><ele>380.5</ele><time>2026-04-11T13:20:16Z</time></trkpt><trkpt lat="43.06272476267863" lon="11.597101263541742"><ele>382.3333333333333</ele><time>2026-04-11T13:20:19Z</time></trkpt><trkpt lat="43.06266579756207" lon="11.597143583820355"><ele>384.16666666666663</ele><time>2026-04-11T13:20:22Z</time></trkpt><trkpt lat="43.06261161986698" lon="11.597191679648912"><ele>386.0</ele><time>2026-04-11T13:20:25Z</time></trkpt><trkpt lat="43.062495477153234" lon="11.597280123764573"><ele>384.8333333333333</ele><time>2026-04-11T13:20:31Z</time></trkpt><trkpt lat="43.062439903899325" lon="11.597327808193176"><ele>383.66666666666663</ele><time>2026-04-11T13:20:34Z</time></trkpt><trkpt lat="43.06238107456341" lon="11.597367643965663"><ele>382.5</ele><time>2026-04-11T13:20:37.001Z</time></trkpt><trkpt lat="43.062322840787466" lon="11.597416451138372"><ele>381.3333333333333</ele><time>2026-04-11T13:20:40.001Z</time></trkpt><trkpt lat="43.06226607927192" lon="11.597467939433336"><ele>380.16666666666663</ele><time>2026-04-11T13:20:43.001Z</time></trkpt><trkpt lat="43.06220844958073" lon="11.597517619278623"><ele>379.0</ele><time>2026-04-11T13:20:46.001Z</time></trkpt><trkpt lat="43.062083536551846" lon="11.59761838936857"><ele>379.0</ele><time>2026-04-11T13:20:52.001Z</time></trkpt><trkpt lat="43.062010656918474" lon="11.597685121190947"><ele>379.0</ele><time>2026-04-11T13:20:55.001Z</time></trkpt><trkpt lat="43.06195586015594" lon="11.597744772565916"><ele>379.0</ele><time>2026-04-11T13:20:57.001Z</time></trkpt><trkpt lat="43.061901782679485" lon="11.597823559461313"><ele>379.0</ele><time>2026-04-11T13:20:59.001Z</time></trkpt><trkpt lat="43.061848793153366" lon="11.597914044191713"><ele>379.0</ele><time>2026-04-11T13:21:01.001Z</time></trkpt><trkpt lat="43.06180000340938" lon="11.59800990599707"><ele>379.0</ele><time>2026-04-11T13:21:03.001Z</time></trkpt><trkpt lat="43.061752137580356" lon="11.598109966301676"><ele>380.5</ele><time>2026-04-11T13:21:05.001Z</time></trkpt><trkpt lat="43.06172089279755" lon="11.598214128855343"><ele>382.0</ele><time>2026-04-11T13:21:07Z</time></trkpt><trkpt lat="43.061672965241925" lon="11.598452548158972"><ele>383.5</ele><time>2026-04-11T13:21:11Z</time></trkpt><trkpt lat="43.06165632930178" lon="11.598586482512037"><ele>385.0</ele><time>2026-04-11T13:21:13Z</time></trkpt><trkpt lat="43.061646729604426" lon="11.598719814710599"><ele>385.0</ele><time>2026-04-11T13:21:15Z</time></trkpt><trkpt lat="43.06163257938576" lon="11.598862668126987"><ele>385.0</ele><time>2026-04-11T13:21:17Z</time></trkpt><trkpt lat="43.061618770563165" lon="11.599018379086596"><ele>385.0</ele><time>2026-04-11T13:21:19Z</time></trkpt><trkpt lat="43.06160196808782" lon="11.599165271660764"><ele>385.0</ele><time>2026-04-11T13:21:21Z</time></trkpt><trkpt lat="43.06158272720638" lon="11.599320750340137"><ele>385.0</ele><time>2026-04-11T13:21:23Z</time></trkpt><trkpt lat="43.06157008308628" lon="11.599481345092734"><ele>382.75</ele><time>2026-04-11T13:21:25Z</time></trkpt><trkpt lat="43.06154859092012" lon="11.599637299993454"><ele>380.5</ele><time>2026-04-11T13:21:27Z</time></trkpt><trkpt lat="43.061509617980896" lon="11.59978536659068"><ele>378.25</ele><time>2026-04-11T13:21:29Z</time></trkpt><trkpt lat="43.06141399977246" lon="11.600037442868821"><ele>376.0</ele><time>2026-04-11T13:21:33Z</time></trkpt><trkpt lat="43.06136613420342" lon="11.600156660311953"><ele>376.0</ele><time>2026-04-11T13:21:35Z</time></trkpt><trkpt lat="43.061321387794564" lon="11.600262476116228"><ele>376.0</ele><time>2026-04-11T13:21:37Z</time></trkpt><trkpt lat="43.0612860490175" lon="11.600352608668857"><ele>376.0</ele><time>2026-04-11T13:21:39Z</time></trkpt><trkpt lat="43.0612559647312" lon="11.60043632253954"><ele>376.0</ele><time>2026-04-11T13:21:41Z</time></trkpt><trkpt lat="43.061216753939746" lon="11.600549155117584"><ele>376.0</ele><time>2026-04-11T13:21:44Z</time></trkpt><trkpt lat="43.06117013520653" lon="11.600652697566293"><ele>376.0</ele><time>2026-04-11T13:21:47Z</time></trkpt><trkpt lat="43.0611313348804" lon="11.600757875112125"><ele>377.3333333333333</ele><time>2026-04-11T13:21:50Z</time></trkpt><trkpt lat="43.06105130146618" lon="11.600952620971347"><ele>378.66666666666663</ele><time>2026-04-11T13:21:56Z</time></trkpt><trkpt lat="43.061013280454965" lon="11.601030745313002"><ele>380.0</ele><time>2026-04-11T13:21:58Z</time></trkpt><trkpt lat="43.06098525015258" lon="11.60110925635426"><ele>381.3333333333333</ele><time>2026-04-11T13:22:00Z</time></trkpt><trkpt lat="43.060956308283984" lon="11.60118584872619"><ele>382.6666666666667</ele><time>2026-04-11T13:22:02Z</time></trkpt><trkpt lat="43.060927317732656" lon="11.601263155873308"><ele>384.0</ele><time>2026-04-11T13:22:04Z</time></trkpt><trkpt lat="43.060889130345366" lon="11.601335424291236"><ele>385.5</ele><time>2026-04-11T13:22:06Z</time></trkpt><trkpt lat="43.06082557765067" lon="11.601425704633535"><ele>387.0</ele><time>2026-04-11T13:22:09Z</time></trkpt><trkpt lat="43.060750445339266" lon="11.601492724870859"><ele>388.5</ele><time>2026-04-11T13:22:12Z</time></trkpt><trkpt lat="43.0606428086913" lon="11.60158838589539"><ele>390.0</ele><time>2026-04-11T13:22:16Z</time></trkpt><trkpt lat="43.060608064258545" lon="11.601662340121273"><ele>391.5</ele><time>2026-04-11T13:22:18Z</time></trkpt><trkpt lat="43.06059779162632" lon="11.60174919458735"><ele>393.0</ele><time>2026-04-11T13:22:20Z</time></trkpt><trkpt lat="43.06061750099316" lon="11.601835354587228"><ele>393.5714285714286</ele><time>2026-04-11T13:22:22Z</time></trkpt><trkpt lat="43.060664880373345" lon="11.601907415632263"><ele>394.14285714285717</ele><time>2026-04-11T13:22:24Z</time></trkpt><trkpt lat="43.06070515481504" lon="11.601980742621883"><ele>394.7142857142857</ele><time>2026-04-11T13:22:26Z</time></trkpt><trkpt lat="43.060744762012924" lon="11.602051861808704"><ele>395.28571428571433</ele><time>2026-04-11T13:22:28Z</time></trkpt><trkpt lat="43.060782782839375" lon="11.602123800940213"><ele>395.85714285714283</ele><time>2026-04-11T13:22:30Z</time></trkpt><trkpt lat="43.06080776739143" lon="11.602206419428622"><ele>396.42857142857144</ele><time>2026-04-11T13:22:32Z</time></trkpt><trkpt lat="43.06083453310587" lon="11.602329624367705"><ele>397.0</ele><time>2026-04-11T13:22:35Z</time></trkpt><trkpt lat="43.060868187176006" lon="11.602507474654008"><ele>397.57142857142856</ele><time>2026-04-11T13:22:39Z</time></trkpt><trkpt lat="43.06088127738949" lon="11.602600036944244"><ele>398.1428571428571</ele><time>2026-04-11T13:22:41Z</time></trkpt><trkpt lat="43.060897757154706" lon="11.602690352472681"><ele>398.7142857142857</ele><time>2026-04-11T13:22:43Z</time></trkpt><trkpt lat="43.06091190987442" lon="11.602778953083389"><ele>399.2857142857143</ele><time>2026-04-11T13:22:45Z</time></trkpt><trkpt lat="43.06091545171961" lon="11.602867026974907"><ele>399.8571428571429</ele><time>2026-04-11T13:22:47.001Z</time></trkpt><trkpt lat="43.06093150871889" lon="11.602985813163949"><ele>400.42857142857144</ele><time>2026-04-11T13:22:50.001Z</time></trkpt><trkpt lat="43.06094106098072" lon="11.603093069824654"><ele>401.0</ele><time>2026-04-11T13:22:53.001Z</time></trkpt><trkpt lat="43.06094573250817" lon="11.603196766606866"><ele>402.4</ele><time>2026-04-11T13:22:56.001Z</time></trkpt><trkpt lat="43.06094536482736" lon="11.603398724927786"><ele>403.8</ele><time>2026-04-11T13:23:02.001Z</time></trkpt><trkpt lat="43.060948825015366" lon="11.603507267418486"><ele>405.2</ele><time>2026-04-11T13:23:05.001Z</time></trkpt><trkpt lat="43.06094393583974" lon="11.603610995432371"><ele>406.59999999999997</ele><time>2026-04-11T13:23:08.001Z</time></trkpt><trkpt lat="43.06093810770141" lon="11.603717596145472"><ele>408.0</ele><time>2026-04-11T13:23:11.001Z</time></trkpt><trkpt lat="43.06093222038085" lon="11.603830097873265"><ele>408.2</ele><time>2026-04-11T13:23:14Z</time></trkpt><trkpt lat="43.0609271929384" lon="11.60395528488126"><ele>408.4</ele><time>2026-04-11T13:23:17Z</time></trkpt><trkpt lat="43.060930230576275" lon="11.60415974837989"><ele>408.59999999999997</ele><time>2026-04-11T13:23:21Z</time></trkpt><trkpt lat="43.06093082691668" lon="11.604278406183319"><ele>408.79999999999995</ele><time>2026-04-11T13:23:23Z</time></trkpt><trkpt lat="43.06093543221064" lon="11.60440335500363"><ele>409.0</ele><time>2026-04-11T13:23:25Z</time></trkpt><trkpt lat="43.060935726332005" lon="11.60454182646093"><ele>409.0</ele><time>2026-04-11T13:23:27Z</time></trkpt><trkpt lat="43.06094837248073" lon="11.604672598424978"><ele>409.0</ele><time>2026-04-11T13:23:29Z</time></trkpt><trkpt lat="43.060961416103844" lon="11.604813763555013"><ele>409.0</ele><time>2026-04-11T13:23:31Z</time></trkpt><trkpt lat="43.06096048818079" lon="11.604960493122801"><ele>409.0</ele><time>2026-04-11T13:23:33Z</time></trkpt><trkpt lat="43.06095555793674" lon="11.605107532799646"><ele>409.0</ele><time>2026-04-11T13:23:35Z</time></trkpt><trkpt lat="43.06094905124392" lon="11.605253021020632"><ele>408.0</ele><time>2026-04-11T13:23:37Z</time></trkpt><trkpt lat="43.06092423857856" lon="11.60538421852414"><ele>407.0</ele><time>2026-04-11T13:23:39Z</time></trkpt><trkpt lat="43.06084631483001" lon="11.605606292040356"><ele>406.0</ele><time>2026-04-11T13:23:43Z</time></trkpt><trkpt lat="43.06080906697357" lon="11.605682812901842"><ele>405.0</ele><time>2026-04-11T13:23:45Z</time></trkpt><trkpt lat="43.060757222975624" lon="11.605774114454073"><ele>404.0</ele><time>2026-04-11T13:23:48Z</time></trkpt><trkpt lat="43.060716394403656" lon="11.605862293695326"><ele>404.0</ele><time>2026-04-11T13:23:51Z</time></trkpt><trkpt lat="43.0606524492432" lon="11.605912870266248"><ele>404.0</ele><time>2026-04-11T13:23:54Z</time></trkpt><trkpt lat="43.06056308745452" lon="11.605928952019235"><ele>404.0</ele><time>2026-04-11T13:23:57Z</time></trkpt><trkpt lat="43.060451237350506" lon="11.605926647281809"><ele>404.0</ele><time>2026-04-11T13:23:59Z</time></trkpt><trkpt lat="43.060385890078116" lon="11.605916181844632"><ele>404.0</ele><time>2026-04-11T13:24:00Z</time></trkpt><trkpt lat="43.06024927627453" lon="11.605879450357806"><ele>404.0</ele><time>2026-04-11T13:24:02Z</time></trkpt><trkpt lat="43.06017497586818" lon="11.605866397208127"><ele>404.0</ele><time>2026-04-11T13:24:03Z</time></trkpt><trkpt lat="43.060103024822055" lon="11.60584594084137"><ele>404.0</ele><time>2026-04-11T13:24:04Z</time></trkpt><trkpt lat="43.06003271804178" lon="11.605820579178786"><ele>404.0</ele><time>2026-04-11T13:24:05Z</time></trkpt><trkpt lat="43.05995782985615" lon="11.605808454861116"><ele>404.0</ele><time>2026-04-11T13:24:06Z</time></trkpt><trkpt lat="43.05988396772135" lon="11.605811206414502"><ele>404.0</ele><time>2026-04-11T13:24:07Z</time></trkpt><trkpt lat="43.05980637510123" lon="11.605826283736077"><ele>404.0</ele><time>2026-04-11T13:24:08Z</time></trkpt><trkpt lat="43.059724262472095" lon="11.605849206394224"><ele>404.49999999999994</ele><time>2026-04-11T13:24:09Z</time></trkpt><trkpt lat="43.05964280346242" lon="11.605876829587677"><ele>405.0</ele><time>2026-04-11T13:24:10Z</time></trkpt><trkpt lat="43.05956187460299" lon="11.605910028327806"><ele>405.5</ele><time>2026-04-11T13:24:11Z</time></trkpt><trkpt lat="43.05948317326976" lon="11.605948775242354"><ele>406.0</ele><time>2026-04-11T13:24:12Z</time></trkpt><trkpt lat="43.059409426256465" lon="11.605999891250555"><ele>406.49999999999994</ele><time>2026-04-11T13:24:13Z</time></trkpt><trkpt lat="43.05934164903865" lon="11.606061919318787"><ele>407.0</ele><time>2026-04-11T13:24:14Z</time></trkpt><trkpt lat="43.05927582044889" lon="11.606121652401313"><ele>407.28571428571433</ele><time>2026-04-11T13:24:15Z</time></trkpt><trkpt lat="43.05921096208365" lon="11.606175576997101"><ele>407.57142857142856</ele><time>2026-04-11T13:24:16Z</time></trkpt><trkpt lat="43.05914793902643" lon="11.606225967744242"><ele>407.8571428571429</ele><time>2026-04-11T13:24:17Z</time></trkpt><trkpt lat="43.0590863310793" lon="11.606280066848838"><ele>408.14285714285717</ele><time>2026-04-11T13:24:18Z</time></trkpt><trkpt lat="43.05902818108519" lon="11.606328118403576"><ele>408.42857142857144</ele><time>2026-04-11T13:24:19Z</time></trkpt><trkpt lat="43.05897104874249" lon="11.606373048776844"><ele>408.7142857142857</ele><time>2026-04-11T13:24:20Z</time></trkpt><trkpt lat="43.05891550316793" lon="11.606416077018414"><ele>409.0</ele><time>2026-04-11T13:24:21Z</time></trkpt><trkpt lat="43.05880701805513" lon="11.606505566229655"><ele>409.0</ele><time>2026-04-11T13:24:23Z</time></trkpt><trkpt lat="43.05870712943585" lon="11.606595405294442"><ele>409.0</ele><time>2026-04-11T13:24:25Z</time></trkpt><trkpt lat="43.05861273912105" lon="11.606667690244219"><ele>409.0</ele><time>2026-04-11T13:24:27Z</time></trkpt><trkpt lat="43.05853276865529" lon="11.60672819849184"><ele>409.0</ele><time>2026-04-11T13:24:29Z</time></trkpt><trkpt lat="43.05847020094951" lon="11.606782736067753"><ele>409.0</ele><time>2026-04-11T13:24:31Z</time></trkpt><trkpt lat="43.0583932677594" lon="11.606850651609774"><ele>409.0</ele><time>2026-04-11T13:24:34Z</time></trkpt><trkpt lat="43.05832324261446" lon="11.606913111815548"><ele>409.0</ele><time>2026-04-11T13:24:37Z</time></trkpt><trkpt lat="43.05825660757578" lon="11.606983407229817"><ele>409.0</ele><time>2026-04-11T13:24:40Z</time></trkpt><trkpt lat="43.05818513174166" lon="11.607004171781231"><ele>409.0</ele><time>2026-04-11T13:24:43Z</time></trkpt><trkpt lat="43.05802598371057" lon="11.606934895714618"><ele>409.0</ele><time>2026-04-11T13:24:49.001Z</time></trkpt><trkpt lat="43.05795804896024" lon="11.606853348395596"><ele>408.83333333333337</ele><time>2026-04-11T13:24:52.001Z</time></trkpt><trkpt lat="43.05790901089119" lon="11.606780558163463"><ele>408.6666666666667</ele><time>2026-04-11T13:24:54.001Z</time></trkpt><trkpt lat="43.057856258446876" lon="11.60669888978804"><ele>408.5</ele><time>2026-04-11T13:24:56.001Z</time></trkpt><trkpt lat="43.057801460467" lon="11.606601984932187"><ele>408.33333333333337</ele><time>2026-04-11T13:24:59.001Z</time></trkpt><trkpt lat="43.05774703904154" lon="11.60652704648666"><ele>408.1666666666667</ele><time>2026-04-11T13:25:01.001Z</time></trkpt><trkpt lat="43.05770990175132" lon="11.606431289562424"><ele>408.0</ele><time>2026-04-11T13:25:03.001Z</time></trkpt><trkpt lat="43.0576704069787" lon="11.606342608027989"><ele>408.8333333333333</ele><time>2026-04-11T13:25:05.001Z</time></trkpt><trkpt lat="43.05762579688581" lon="11.606153454420367"><ele>409.66666666666663</ele><time>2026-04-11T13:25:09.001Z</time></trkpt><trkpt lat="43.05759443204967" lon="11.606071918203025"><ele>410.5</ele><time>2026-04-11T13:25:11.001Z</time></trkpt><trkpt lat="43.057565763069924" lon="11.605990346423356"><ele>411.3333333333333</ele><time>2026-04-11T13:25:13.001Z</time></trkpt><trkpt lat="43.05753310942486" lon="11.605911709281541"><ele>412.16666666666663</ele><time>2026-04-11T13:25:15.001Z</time></trkpt><trkpt lat="43.057511257385684" lon="11.605819052125135"><ele>413.0</ele><time>2026-04-11T13:25:17.001Z</time></trkpt><trkpt lat="43.05747676279186" lon="11.605744092531083"><ele>413.3333333333333</ele><time>2026-04-11T13:25:19Z</time></trkpt><trkpt lat="43.05744434666757" lon="11.605665857319636"><ele>413.66666666666663</ele><time>2026-04-11T13:25:21Z</time></trkpt><trkpt lat="43.057411905064335" lon="11.605591094317573"><ele>414.0</ele><time>2026-04-11T13:25:23Z</time></trkpt><trkpt lat="43.05738294851728" lon="11.605512506943748"><ele>414.33333333333337</ele><time>2026-04-11T13:25:25Z</time></trkpt><trkpt lat="43.057352944085764" lon="11.60543229084583"><ele>414.6666666666667</ele><time>2026-04-11T13:25:27Z</time></trkpt><trkpt lat="43.05729304158777" lon="11.605273848673866"><ele>415.0</ele><time>2026-04-11T13:25:31Z</time></trkpt><trkpt lat="43.05726676300726" lon="11.60519400702242"><ele>415.0</ele><time>2026-04-11T13:25:33Z</time></trkpt><trkpt lat="43.05723555103656" lon="11.605117509843192"><ele>415.0</ele><time>2026-04-11T13:25:35Z</time></trkpt><trkpt lat="43.057208425074535" lon="11.605032287242361"><ele>415.0</ele><time>2026-04-11T13:25:37Z</time></trkpt><trkpt lat="43.057170195169846" lon="11.60490926911124"><ele>415.0</ele><time>2026-04-11T13:25:40Z</time></trkpt><trkpt lat="43.0571428187782" lon="11.604828076148621"><ele>415.0</ele><time>2026-04-11T13:25:42Z</time></trkpt><trkpt lat="43.05710613177623" lon="11.604747453297586"><ele>415.0</ele><time>2026-04-11T13:25:44Z</time></trkpt><trkpt lat="43.057063652918345" lon="11.604672847860416"><ele>415.0</ele><time>2026-04-11T13:25:46Z</time></trkpt><trkpt lat="43.05701083492603" lon="11.604620815649858"><ele>415.83333333333337</ele><time>2026-04-11T13:25:48Z</time></trkpt><trkpt lat="43.05691983944493" lon="11.604492794687612"><ele>416.6666666666667</ele><time>2026-04-11T13:25:52Z</time></trkpt><trkpt lat="43.05687635820047" lon="11.604418499367577"><ele>417.5</ele><time>2026-04-11T13:25:54Z</time></trkpt><trkpt lat="43.05682710775061" lon="11.604353224716817"><ele>418.33333333333337</ele><time>2026-04-11T13:25:56Z</time></trkpt><trkpt lat="43.05678177414371" lon="11.604281422590091"><ele>419.1666666666667</ele><time>2026-04-11T13:25:58Z</time></trkpt><trkpt lat="43.05674395737453" lon="11.604199725566284"><ele>420.0</ele><time>2026-04-11T13:26:00Z</time></trkpt><trkpt lat="43.05670412480235" lon="11.604114092747626"><ele>420.0</ele><time>2026-04-11T13:26:02Z</time></trkpt><trkpt lat="43.05666429245957" lon="11.60402682252178"><ele>420.0</ele><time>2026-04-11T13:26:04Z</time></trkpt><trkpt lat="43.05661557130359" lon="11.603953159932136"><ele>420.0</ele><time>2026-04-11T13:26:06Z</time></trkpt><trkpt lat="43.05657279017785" lon="11.603871716995055"><ele>420.0</ele><time>2026-04-11T13:26:08Z</time></trkpt><trkpt lat="43.05652446213539" lon="11.603804016411514"><ele>420.0</ele><time>2026-04-11T13:26:10Z</time></trkpt><trkpt lat="43.05643794321246" lon="11.603663983831336"><ele>420.0</ele><time>2026-04-11T13:26:14Z</time></trkpt><trkpt lat="43.056387074432784" lon="11.603598208211425"><ele>420.14285714285717</ele><time>2026-04-11T13:26:16Z</time></trkpt><trkpt lat="43.05633497118073" lon="11.603542710855635"><ele>420.2857142857143</ele><time>2026-04-11T13:26:18Z</time></trkpt><trkpt lat="43.05628752483417" lon="11.6034791598841"><ele>420.42857142857144</ele><time>2026-04-11T13:26:21Z</time></trkpt><trkpt lat="43.056230973765395" lon="11.603410610941996"><ele>420.57142857142856</ele><time>2026-04-11T13:26:23Z</time></trkpt><trkpt lat="43.05617272889304" lon="11.603340050478872"><ele>420.7142857142857</ele><time>2026-04-11T13:26:26Z</time></trkpt><trkpt lat="43.05610821258925" lon="11.603272970201267"><ele>420.8571428571429</ele><time>2026-04-11T13:26:29Z</time></trkpt><trkpt lat="43.056048283870744" lon="11.603218825636803"><ele>421.0</ele><time>2026-04-11T13:26:31Z</time></trkpt><trkpt lat="43.055909929892685" lon="11.603078010722664"><ele>421.00000000000006</ele><time>2026-04-11T13:26:35Z</time></trkpt><trkpt lat="43.05585894203247" lon="11.603019193791917"><ele>421.0</ele><time>2026-04-11T13:26:38Z</time></trkpt><trkpt lat="43.055793616619695" lon="11.602942753801514"><ele>421.0</ele><time>2026-04-11T13:26:41Z</time></trkpt><trkpt lat="43.05572418830176" lon="11.60287230323205"><ele>421.0</ele><time>2026-04-11T13:26:44.001Z</time></trkpt><trkpt lat="43.05566958086745" lon="11.60281469210603"><ele>421.00000000000006</ele><time>2026-04-11T13:26:46.001Z</time></trkpt><trkpt lat="43.05559774398655" lon="11.602744539863776"><ele>421.0</ele><time>2026-04-11T13:26:49.001Z</time></trkpt><trkpt lat="43.05552479379018" lon="11.602661389050692"><ele>422.20000000000005</ele><time>2026-04-11T13:26:52.001Z</time></trkpt><trkpt lat="43.055394898103444" lon="11.602527732784667"><ele>423.40000000000003</ele><time>2026-04-11T13:26:57.001Z</time></trkpt><trkpt lat="43.055325416506356" lon="11.602440277339936"><ele>424.6</ele><time>2026-04-11T13:27:00.001Z</time></trkpt><trkpt lat="43.055254923320106" lon="11.602364860894648"><ele>425.8</ele><time>2026-04-11T13:27:03.001Z</time></trkpt><trkpt lat="43.05518412829413" lon="11.602302230641085"><ele>427.0</ele><time>2026-04-11T13:27:06.001Z</time></trkpt><trkpt lat="43.05511749680724" lon="11.60223178194486"><ele>427.0</ele><time>2026-04-11T13:27:09.001Z</time></trkpt><trkpt lat="43.05504207615283" lon="11.602161778080252"><ele>427.00000000000006</ele><time>2026-04-11T13:27:12.001Z</time></trkpt><trkpt lat="43.054990684374445" lon="11.602109906387636"><ele>427.00000000000006</ele><time>2026-04-11T13:27:14.001Z</time></trkpt><trkpt lat="43.054854888314125" lon="11.602007271796221"><ele>427.0</ele><time>2026-04-11T13:27:19.001Z</time></trkpt><trkpt lat="43.05478491682107" lon="11.601948505942369"><ele>427.0</ele><time>2026-04-11T13:27:21.001Z</time></trkpt><trkpt lat="43.054694624758945" lon="11.601891129390925"><ele>427.6</ele><time>2026-04-11T13:27:24.001Z</time></trkpt><trkpt lat="43.054603789901925" lon="11.60184769506718"><ele>428.20000000000005</ele><time>2026-04-11T13:27:27Z</time></trkpt><trkpt lat="43.05452796184091" lon="11.60181124045304"><ele>428.8</ele><time>2026-04-11T13:27:29Z</time></trkpt><trkpt lat="43.05443145889802" lon="11.601765531358227"><ele>429.4</ele><time>2026-04-11T13:27:32Z</time></trkpt><trkpt lat="43.054331261252166" lon="11.601724251356451"><ele>430.0</ele><time>2026-04-11T13:27:34Z</time></trkpt><trkpt lat="43.05425451660087" lon="11.601700682086742"><ele>429.0</ele><time>2026-04-11T13:27:36Z</time></trkpt><trkpt lat="43.05409413078837" lon="11.601633998708039"><ele>428.0</ele><time>2026-04-11T13:27:40Z</time></trkpt><trkpt lat="43.05400924601836" lon="11.60157633159848"><ele>427.0</ele><time>2026-04-11T13:27:42Z</time></trkpt><trkpt lat="43.05391763907353" lon="11.601527055538687"><ele>426.0</ele><time>2026-04-11T13:27:44Z</time></trkpt><trkpt lat="43.05383189956852" lon="11.60145276046578"><ele>426.0</ele><time>2026-04-11T13:27:46Z</time></trkpt><trkpt lat="43.053750348247554" lon="11.601381777308776"><ele>426.0</ele><time>2026-04-11T13:27:48Z</time></trkpt><trkpt lat="43.053655358888996" lon="11.60131574910305"><ele>426.0</ele><time>2026-04-11T13:27:51Z</time></trkpt><trkpt lat="43.053580419013954" lon="11.601248734796197"><ele>426.0</ele><time>2026-04-11T13:27:53Z</time></trkpt><trkpt lat="43.05352625178733" lon="11.60120278165706"><ele>426.0</ele><time>2026-04-11T13:27:54Z</time></trkpt><trkpt lat="43.053460370848256" lon="11.601146824621265"><ele>426.0</ele><time>2026-04-11T13:27:57Z</time></trkpt><trkpt lat="43.05320875087723" lon="11.600942067671697"><ele>426.0</ele><time>2026-04-11T13:28:01Z</time></trkpt><trkpt lat="43.05312491624241" lon="11.600862480727171"><ele>426.0</ele><time>2026-04-11T13:28:03Z</time></trkpt><trkpt lat="43.05303806646681" lon="11.600786946532976"><ele>426.0</ele><time>2026-04-11T13:28:05Z</time></trkpt><trkpt lat="43.05294502766639" lon="11.600703987885298"><ele>426.0</ele><time>2026-04-11T13:28:07Z</time></trkpt><trkpt lat="43.05287159008467" lon="11.600594593311714"><ele>426.0</ele><time>2026-04-11T13:28:09Z</time></trkpt><trkpt lat="43.05278155112629" lon="11.600481661888987"><ele>426.0</ele><time>2026-04-11T13:28:11Z</time></trkpt><trkpt lat="43.052711719067325" lon="11.600354533668526"><ele>426.0</ele><time>2026-04-11T13:28:13Z</time></trkpt><trkpt lat="43.052636163012686" lon="11.600237057745762"><ele>426.0</ele><time>2026-04-11T13:28:15Z</time></trkpt><trkpt lat="43.052558384284815" lon="11.600096329316262"><ele>426.0</ele><time>2026-04-11T13:28:17Z</time></trkpt><trkpt lat="43.05248497709486" lon="11.599961111089105"><ele>424.6666666666667</ele><time>2026-04-11T13:28:19Z</time></trkpt><trkpt lat="43.052380477318" lon="11.599853319795516"><ele>423.33333333333337</ele><time>2026-04-11T13:28:21Z</time></trkpt><trkpt lat="43.05232772757143" lon="11.599803119037453"><ele>422.0</ele><time>2026-04-11T13:28:22Z</time></trkpt><trkpt lat="43.05226683412366" lon="11.599757407110438"><ele>420.6666666666667</ele><time>2026-04-11T13:28:23Z</time></trkpt><trkpt lat="43.052201481912554" lon="11.599712977810606"><ele>419.33333333333337</ele><time>2026-04-11T13:28:24Z</time></trkpt><trkpt lat="43.05213503113827" lon="11.599672408395275"><ele>418.0</ele><time>2026-04-11T13:28:25Z</time></trkpt><trkpt lat="43.052070141056674" lon="11.599627652846287"><ele>418.0</ele><time>2026-04-11T13:28:26Z</time></trkpt><trkpt lat="43.052003428578644" lon="11.599581622364548"><ele>418.0</ele><time>2026-04-11T13:28:27Z</time></trkpt><trkpt lat="43.0519416451484" lon="11.599539718533363"><ele>418.0</ele><time>2026-04-11T13:28:28Z</time></trkpt><trkpt lat="43.051878280545516" lon="11.599495553743573"><ele>418.0</ele><time>2026-04-11T13:28:29Z</time></trkpt><trkpt lat="43.051811475094354" lon="11.599457907552237"><ele>418.0</ele><time>2026-04-11T13:28:30Z</time></trkpt><trkpt lat="43.05174367912564" lon="11.59942891949614"><ele>418.0</ele><time>2026-04-11T13:28:31Z</time></trkpt><trkpt lat="43.05167625503978" lon="11.599402271012373"><ele>418.0</ele><time>2026-04-11T13:28:32Z</time></trkpt><trkpt lat="43.051608817697264" lon="11.599379859374656"><ele>419.2857142857143</ele><time>2026-04-11T13:28:33Z</time></trkpt><trkpt lat="43.0515375405172" lon="11.599367487398338"><ele>420.57142857142856</ele><time>2026-04-11T13:28:34Z</time></trkpt><trkpt lat="43.051467551003775" lon="11.599362038118178"><ele>421.8571428571429</ele><time>2026-04-11T13:28:35Z</time></trkpt><trkpt lat="43.05139224340026" lon="11.599364781255815"><ele>423.1428571428571</ele><time>2026-04-11T13:28:36Z</time></trkpt><trkpt lat="43.05132224463798" lon="11.599377782693118"><ele>424.42857142857144</ele><time>2026-04-11T13:28:37Z</time></trkpt><trkpt lat="43.051251751119786" lon="11.599394444595301"><ele>425.7142857142857</ele><time>2026-04-11T13:28:38Z</time></trkpt><trkpt lat="43.05118330818889" lon="11.59941073816108"><ele>427.0</ele><time>2026-04-11T13:28:39Z</time></trkpt><trkpt lat="43.05111597613757" lon="11.59942503668732"><ele>427.0</ele><time>2026-04-11T13:28:40Z</time></trkpt><trkpt lat="43.050952757911794" lon="11.59947641638987"><ele>427.00000000000006</ele><time>2026-04-11T13:28:43Z</time></trkpt><trkpt lat="43.05088402472936" lon="11.599495580533016"><ele>427.00000000000006</ele><time>2026-04-11T13:28:45Z</time></trkpt><trkpt lat="43.050817423713994" lon="11.599505739618833"><ele>427.0</ele><time>2026-04-11T13:28:47Z</time></trkpt><trkpt lat="43.05075532227731" lon="11.599529605723294"><ele>427.0</ele><time>2026-04-11T13:28:49Z</time></trkpt><trkpt lat="43.050667214939494" lon="11.599549167393679"><ele>427.20000000000005</ele><time>2026-04-11T13:28:52.001Z</time></trkpt><trkpt lat="43.05060416382407" lon="11.599579584297603"><ele>427.40000000000003</ele><time>2026-04-11T13:28:54.001Z</time></trkpt><trkpt lat="43.05050954196407" lon="11.5996075940479"><ele>427.59999999999997</ele><time>2026-04-11T13:28:58.001Z</time></trkpt><trkpt lat="43.05042531864844" lon="11.599635932294314"><ele>427.79999999999995</ele><time>2026-04-11T13:29:00.001Z</time></trkpt><trkpt lat="43.050361526574726" lon="11.59963731152257"><ele>428.0</ele><time>2026-04-11T13:29:04.001Z</time></trkpt><trkpt lat="43.05020973779067" lon="11.599702447504006"><ele>427.99999999999994</ele><time>2026-04-11T13:29:10.001Z</time></trkpt><trkpt lat="43.05013240082743" lon="11.59973617338807"><ele>428.0</ele><time>2026-04-11T13:29:13.001Z</time></trkpt><trkpt lat="43.05004730979893" lon="11.599759358102592"><ele>428.0</ele><time>2026-04-11T13:29:16.001Z</time></trkpt><trkpt lat="43.04995950282716" lon="11.599791414919347"><ele>428.0</ele><time>2026-04-11T13:29:19.001Z</time></trkpt><trkpt lat="43.04989485471354" lon="11.59981766232704"><ele>427.99999999999994</ele><time>2026-04-11T13:29:21.001Z</time></trkpt><trkpt lat="43.049831386857974" lon="11.599846679259658"><ele>428.0</ele><time>2026-04-11T13:29:23.001Z</time></trkpt><trkpt lat="43.04976854244911" lon="11.599878415189837"><ele>429.4</ele><time>2026-04-11T13:29:25.001Z</time></trkpt><trkpt lat="43.04964731464693" lon="11.599950747859218"><ele>430.79999999999995</ele><time>2026-04-11T13:29:29.001Z</time></trkpt><trkpt lat="43.04958738630532" lon="11.599981621235074"><ele>432.2</ele><time>2026-04-11T13:29:31Z</time></trkpt><trkpt lat="43.049503663754244" lon="11.600029280310567"><ele>433.6</ele><time>2026-04-11T13:29:34Z</time></trkpt><trkpt lat="43.049422658402435" lon="11.60007788435989"><ele>435.0</ele><time>2026-04-11T13:29:37Z</time></trkpt><trkpt lat="43.04934196984983" lon="11.600125429632543"><ele>435.0</ele><time>2026-04-11T13:29:40Z</time></trkpt><trkpt lat="43.04926955203886" lon="11.60018059476647"><ele>435.0</ele><time>2026-04-11T13:29:43Z</time></trkpt><trkpt lat="43.049209070613664" lon="11.600218382382486"><ele>435.0</ele><time>2026-04-11T13:29:46Z</time></trkpt><trkpt lat="43.049058222608366" lon="11.600305078592365"><ele>435.0</ele><time>2026-04-11T13:29:52Z</time></trkpt><trkpt lat="43.04899038968009" lon="11.60035833028123"><ele>435.0</ele><time>2026-04-11T13:29:56Z</time></trkpt><trkpt lat="43.048918692564385" lon="11.60040556414825"><ele>435.8333333333333</ele><time>2026-04-11T13:29:59Z</time></trkpt><trkpt lat="43.048860654605555" lon="11.600446043869422"><ele>436.66666666666663</ele><time>2026-04-11T13:30:02Z</time></trkpt><trkpt lat="43.04879771628909" lon="11.600486061384592"><ele>437.5</ele><time>2026-04-11T13:30:05Z</time></trkpt><trkpt lat="43.048738383770875" lon="11.600529643083016"><ele>438.3333333333333</ele><time>2026-04-11T13:30:08Z</time></trkpt><trkpt lat="43.048610821480544" lon="11.6006197741768"><ele>439.16666666666663</ele><time>2026-04-11T13:30:15Z</time></trkpt><trkpt lat="43.04853979255208" lon="11.600660240223089"><ele>440.0</ele><time>2026-04-11T13:30:18Z</time></trkpt><trkpt lat="43.04848131567538" lon="11.600706112248467"><ele>440.0</ele><time>2026-04-11T13:30:22Z</time></trkpt><trkpt lat="43.04840899727326" lon="11.60075688340611"><ele>440.0</ele><time>2026-04-11T13:30:25Z</time></trkpt><trkpt lat="43.04833925925721" lon="11.600817199148791"><ele>440.0</ele><time>2026-04-11T13:30:28Z</time></trkpt><trkpt lat="43.048239433560305" lon="11.600892838861244"><ele>440.0</ele><time>2026-04-11T13:30:30Z</time></trkpt><trkpt lat="43.04811066866219" lon="11.600977481353649"><ele>440.0</ele><time>2026-04-11T13:30:32Z</time></trkpt><trkpt lat="43.04800261848981" lon="11.601040356152462"><ele>440.49999999999994</ele><time>2026-04-11T13:30:33Z</time></trkpt><trkpt lat="43.04794278782288" lon="11.601076467175622"><ele>441.0</ele><time>2026-04-11T13:30:34Z</time></trkpt><trkpt lat="43.04784621746256" lon="11.601141808941948"><ele>441.5</ele><time>2026-04-11T13:30:36Z</time></trkpt><trkpt lat="43.04775401982315" lon="11.601213260448635"><ele>442.0</ele><time>2026-04-11T13:30:38Z</time></trkpt><trkpt lat="43.04768142530745" lon="11.60125504994331"><ele>442.49999999999994</ele><time>2026-04-11T13:30:40Z</time></trkpt><trkpt lat="43.0476000612207" lon="11.601301729090663"><ele>443.0</ele><time>2026-04-11T13:30:42Z</time></trkpt><trkpt lat="43.04753722842985" lon="11.601344807726882"><ele>443.0</ele><time>2026-04-11T13:30:44Z</time></trkpt><trkpt lat="43.047472342472844" lon="11.601379321699135"><ele>442.99999999999994</ele><time>2026-04-11T13:30:46Z</time></trkpt><trkpt lat="43.04740999456086" lon="11.601404091827876"><ele>442.99999999999994</ele><time>2026-04-11T13:30:48Z</time></trkpt><trkpt lat="43.047326770642414" lon="11.601453922210638"><ele>443.0</ele><time>2026-04-11T13:30:51Z</time></trkpt><trkpt lat="43.04714282844997" lon="11.601503392221336"><ele>443.0</ele><time>2026-04-11T13:30:56Z</time></trkpt><trkpt lat="43.047060177306044" lon="11.601497179583465"><ele>443.79999999999995</ele><time>2026-04-11T13:30:59.001Z</time></trkpt><trkpt lat="43.04696901558584" lon="11.601475030023169"><ele>444.59999999999997</ele><time>2026-04-11T13:31:02.001Z</time></trkpt><trkpt lat="43.046897349744796" lon="11.601449060885962"><ele>445.40000000000003</ele><time>2026-04-11T13:31:06.001Z</time></trkpt><trkpt lat="43.04683136982794" lon="11.601438337987314"><ele>446.20000000000005</ele><time>2026-04-11T13:31:09.001Z</time></trkpt><trkpt lat="43.04674666363196" lon="11.601421752072257"><ele>447.0</ele><time>2026-04-11T13:31:12.001Z</time></trkpt><trkpt lat="43.0465937959264" lon="11.601392674543229"><ele>448.20000000000005</ele><time>2026-04-11T13:31:18.001Z</time></trkpt><trkpt lat="43.04652857348392" lon="11.601365039491238"><ele>449.40000000000003</ele><time>2026-04-11T13:31:21.001Z</time></trkpt><trkpt lat="43.04645345647192" lon="11.601324157791993"><ele>450.59999999999997</ele><time>2026-04-11T13:31:25.001Z</time></trkpt><trkpt lat="43.046382373722324" lon="11.601293456341015"><ele>451.79999999999995</ele><time>2026-04-11T13:31:29.001Z</time></trkpt><trkpt lat="43.04631044363617" lon="11.601260103517566"><ele>453.0</ele><time>2026-04-11T13:31:33.001Z</time></trkpt><trkpt lat="43.04616624703627" lon="11.601186036708704"><ele>453.3333333333333</ele><time>2026-04-11T13:31:42Z</time></trkpt><trkpt lat="43.04610285431359" lon="11.60115563571047"><ele>453.66666666666663</ele><time>2026-04-11T13:31:46Z</time></trkpt><trkpt lat="43.0460435839485" lon="11.601115874318507"><ele>454.0</ele><time>2026-04-11T13:31:50Z</time></trkpt><trkpt lat="43.045975605059525" lon="11.60107975327114"><ele>454.3333333333333</ele><time>2026-04-11T13:31:55Z</time></trkpt><trkpt lat="43.045852201175606" lon="11.601025964678264"><ele>454.66666666666663</ele><time>2026-04-11T13:32:03Z</time></trkpt><trkpt lat="43.04578438423394" lon="11.600975791809624"><ele>455.0</ele><time>2026-04-11T13:32:07Z</time></trkpt><trkpt lat="43.0457212042072" lon="11.600944905048511"><ele>456.8333333333333</ele><time>2026-04-11T13:32:11Z</time></trkpt><trkpt lat="43.0456585229051" lon="11.600921928694824"><ele>458.66666666666663</ele><time>2026-04-11T13:32:15Z</time></trkpt><trkpt lat="43.04558743464075" lon="11.60089001017976"><ele>460.5</ele><time>2026-04-11T13:32:20Z</time></trkpt><trkpt lat="43.04546022804082" lon="11.600821987851315"><ele>462.33333333333337</ele><time>2026-04-11T13:32:29Z</time></trkpt><trkpt lat="43.04539337711658" lon="11.600799509061218"><ele>464.1666666666667</ele><time>2026-04-11T13:32:34Z</time></trkpt><trkpt lat="43.04533700290673" lon="11.600759604283606"><ele>466.0</ele><time>2026-04-11T13:32:38Z</time></trkpt><trkpt lat="43.045269682056045" lon="11.600748365790771"><ele>466.00000000000006</ele><time>2026-04-11T13:32:43Z</time></trkpt><trkpt lat="43.04514209571585" lon="11.6006872305429"><ele>466.0</ele><time>2026-04-11T13:32:50Z</time></trkpt><trkpt lat="43.04507605637863" lon="11.600672510678002"><ele>466.0</ele><time>2026-04-11T13:32:54Z</time></trkpt><trkpt lat="43.04500879648267" lon="11.600655566890287"><ele>466.0</ele><time>2026-04-11T13:32:58Z</time></trkpt><trkpt lat="43.04492932841461" lon="11.60062825347801"><ele>466.00000000000006</ele><time>2026-04-11T13:33:03Z</time></trkpt><trkpt lat="43.04485317315126" lon="11.600626948424729"><ele>466.0</ele><time>2026-04-11T13:33:07.001Z</time></trkpt><trkpt lat="43.04470594655783" lon="11.600596583489077"><ele>466.83333333333337</ele><time>2026-04-11T13:33:14.001Z</time></trkpt><trkpt lat="43.04463450362653" lon="11.600587023266014"><ele>467.6666666666667</ele><time>2026-04-11T13:33:17.001Z</time></trkpt><trkpt lat="43.04455319697988" lon="11.600584346551932"><ele>468.5</ele><time>2026-04-11T13:33:20.001Z</time></trkpt><trkpt lat="43.04446178147456" lon="11.600579174677964"><ele>469.33333333333337</ele><time>2026-04-11T13:33:22.001Z</time></trkpt><trkpt lat="43.04437462665619" lon="11.60057493239515"><ele>470.1666666666667</ele><time>2026-04-11T13:33:25.001Z</time></trkpt><trkpt lat="43.04429040875926" lon="11.600569187209556"><ele>471.0</ele><time>2026-04-11T13:33:28.001Z</time></trkpt><trkpt lat="43.04412594863688" lon="11.600567730568109"><ele>471.8333333333333</ele><time>2026-04-11T13:33:34.001Z</time></trkpt><trkpt lat="43.04405727768536" lon="11.600568541661682"><ele>472.66666666666663</ele><time>2026-04-11T13:33:37.001Z</time></trkpt><trkpt lat="43.043984201536006" lon="11.600575150134606"><ele>473.5</ele><time>2026-04-11T13:33:40.001Z</time></trkpt><trkpt lat="43.04390293088762" lon="11.6005689587343"><ele>474.3333333333333</ele><time>2026-04-11T13:33:43Z</time></trkpt><trkpt lat="43.0438268007307" lon="11.600564565573329"><ele>475.16666666666663</ele><time>2026-04-11T13:33:46Z</time></trkpt><trkpt lat="43.04374655750822" lon="11.600563389762321"><ele>476.0</ele><time>2026-04-11T13:33:49Z</time></trkpt><trkpt lat="43.04360530790461" lon="11.600566417393186"><ele>475.99999999999994</ele><time>2026-04-11T13:33:55Z</time></trkpt><trkpt lat="43.04352388026354" lon="11.600568581028321"><ele>476.0</ele><time>2026-04-11T13:33:59Z</time></trkpt><trkpt lat="43.043441583228145" lon="11.600559823633551"><ele>476.0</ele><time>2026-04-11T13:34:03Z</time></trkpt><trkpt lat="43.04337454495161" lon="11.6005617573543"><ele>476.0</ele><time>2026-04-11T13:34:06Z</time></trkpt><trkpt lat="43.04330784072881" lon="11.600562681021827"><ele>475.99999999999994</ele><time>2026-04-11T13:34:09Z</time></trkpt><trkpt lat="43.04322073513369" lon="11.600565944845966"><ele>476.0</ele><time>2026-04-11T13:34:13Z</time></trkpt><trkpt lat="43.04307738910727" lon="11.60054898186473"><ele>476.99999999999994</ele><time>2026-04-11T13:34:20Z</time></trkpt><trkpt lat="43.043013609370064" lon="11.600536956056736"><ele>478.0</ele><time>2026-04-11T13:34:23Z</time></trkpt><trkpt lat="43.04295011494918" lon="11.600498211577216"><ele>479.0</ele><time>2026-04-11T13:34:26Z</time></trkpt><trkpt lat="43.04287685514139" lon="11.600462263797546"><ele>480.0</ele><time>2026-04-11T13:34:30Z</time></trkpt><trkpt lat="43.0428098214447" lon="11.600423767997727"><ele>480.99999999999994</ele><time>2026-04-11T13:34:34Z</time></trkpt><trkpt lat="43.042696649261025" lon="11.600326740928997"><ele>482.0</ele><time>2026-04-11T13:34:40Z</time></trkpt><trkpt lat="43.0426149346491" lon="11.600267782674187"><ele>482.3333333333333</ele><time>2026-04-11T13:34:45Z</time></trkpt><trkpt lat="43.04255069202878" lon="11.600220934526451"><ele>482.66666666666663</ele><time>2026-04-11T13:34:49Z</time></trkpt><trkpt lat="43.04248930573495" lon="11.60017212654493"><ele>483.0</ele><time>2026-04-11T13:34:53Z</time></trkpt><trkpt lat="43.04243283538969" lon="11.600121633515073"><ele>483.33333333333337</ele><time>2026-04-11T13:34:57Z</time></trkpt><trkpt lat="43.042312731854764" lon="11.6000261808784"><ele>483.6666666666667</ele><time>2026-04-11T13:35:05Z</time></trkpt><trkpt lat="43.04225289539849" lon="11.599980437094926"><ele>484.0</ele><time>2026-04-11T13:35:09Z</time></trkpt><trkpt lat="43.04218788228117" lon="11.599928171980407"><ele>485.83333333333337</ele><time>2026-04-11T13:35:13Z</time></trkpt><trkpt lat="43.042123279769065" lon="11.599888394051083"><ele>487.6666666666667</ele><time>2026-04-11T13:35:17Z</time></trkpt><trkpt lat="43.04206239464432" lon="11.59984464952529"><ele>489.5</ele><time>2026-04-11T13:35:21Z</time></trkpt><trkpt lat="43.041927200165915" lon="11.599793801843598"><ele>491.33333333333337</ele><time>2026-04-11T13:35:29.001Z</time></trkpt><trkpt lat="43.04186412888315" lon="11.599754716493702"><ele>493.1666666666667</ele><time>2026-04-11T13:35:33.001Z</time></trkpt><trkpt lat="43.041800345375805" lon="11.599726250683775"><ele>495.0</ele><time>2026-04-11T13:35:37.001Z</time></trkpt><trkpt lat="43.04173091768629" lon="11.599689942935203"><ele>495.0</ele><time>2026-04-11T13:35:41.001Z</time></trkpt><trkpt lat="43.041658273449265" lon="11.599671494397311"><ele>495.0</ele><time>2026-04-11T13:35:45.001Z</time></trkpt><trkpt lat="43.04153070192053" lon="11.59964270611852"><ele>495.0</ele><time>2026-04-11T13:35:51Z</time></trkpt><trkpt lat="43.04146704983745" lon="11.59963398021967"><ele>495.0</ele><time>2026-04-11T13:35:54Z</time></trkpt><trkpt lat="43.041400572882495" lon="11.599640725165077"><ele>495.0</ele><time>2026-04-11T13:35:57Z</time></trkpt><trkpt lat="43.0413377670847" lon="11.599673985628906"><ele>495.0</ele><time>2026-04-11T13:36:00Z</time></trkpt><trkpt lat="43.041267584902485" lon="11.599733766492239"><ele>496.1666666666667</ele><time>2026-04-11T13:36:03Z</time></trkpt><trkpt lat="43.041199354832024" lon="11.599787189157531"><ele>497.33333333333337</ele><time>2026-04-11T13:36:06Z</time></trkpt><trkpt lat="43.04107146684722" lon="11.599872240813413"><ele>498.5</ele><time>2026-04-11T13:36:13Z</time></trkpt><trkpt lat="43.04100887758687" lon="11.59991605320024"><ele>499.6666666666667</ele><time>2026-04-11T13:36:16Z</time></trkpt><trkpt lat="43.04095026360749" lon="11.599961528525919"><ele>500.83333333333337</ele><time>2026-04-11T13:36:19Z</time></trkpt><trkpt lat="43.04088735049229" lon="11.60000111195333"><ele>502.0</ele><time>2026-04-11T13:36:22Z</time></trkpt><trkpt lat="43.04082036053703" lon="11.600044993354285"><ele>503.00000000000006</ele><time>2026-04-11T13:36:25Z</time></trkpt><trkpt lat="43.040754042308635" lon="11.600093257993255"><ele>504.0</ele><time>2026-04-11T13:36:28Z</time></trkpt><trkpt lat="43.040616272927565" lon="11.600206758944553"><ele>505.0</ele><time>2026-04-11T13:36:34Z</time></trkpt><trkpt lat="43.040559192699504" lon="11.600264085286042"><ele>506.0</ele><time>2026-04-11T13:36:36Z</time></trkpt><trkpt lat="43.04050819667302" lon="11.60033499520616"><ele>507.00000000000006</ele><time>2026-04-11T13:36:39Z</time></trkpt><trkpt lat="43.04046028690459" lon="11.60040180835264"><ele>508.0</ele><time>2026-04-11T13:36:42Z</time></trkpt><trkpt lat="43.04038962457662" lon="11.6004970753617"><ele>508.33333333333337</ele><time>2026-04-11T13:36:45Z</time></trkpt><trkpt lat="43.04033383731617" lon="11.600570553085767"><ele>508.6666666666667</ele><time>2026-04-11T13:36:48Z</time></trkpt><trkpt lat="43.04027706368632" lon="11.600623051802716"><ele>509.0</ele><time>2026-04-11T13:36:51Z</time></trkpt><trkpt lat="43.04016087572582" lon="11.60076810646399"><ele>509.33333333333337</ele><time>2026-04-11T13:36:58Z</time></trkpt><trkpt lat="43.04011489203063" lon="11.600830676790892"><ele>509.6666666666667</ele><time>2026-04-11T13:37:01Z</time></trkpt><trkpt lat="43.04006301619517" lon="11.600884032167688"><ele>510.0</ele><time>2026-04-11T13:37:04Z</time></trkpt><trkpt lat="43.040020220504395" lon="11.600955595009648"><ele>509.8</ele><time>2026-04-11T13:37:07Z</time></trkpt><trkpt lat="43.03996293076944" lon="11.601028357680537"><ele>509.6</ele><time>2026-04-11T13:37:10Z</time></trkpt><trkpt lat="43.03990552040479" lon="11.601122255637772"><ele>509.4</ele><time>2026-04-11T13:37:14Z</time></trkpt><trkpt lat="43.03982719934003" lon="11.601294043754477"><ele>509.2</ele><time>2026-04-11T13:37:20Z</time></trkpt><trkpt lat="43.0397970680089" lon="11.601378487823075"><ele>509.0</ele><time>2026-04-11T13:37:23Z</time></trkpt><trkpt lat="43.03977317508375" lon="11.601471227887487"><ele>508.79999999999995</ele><time>2026-04-11T13:37:26Z</time></trkpt><trkpt lat="43.03975421875275" lon="11.601555419358315"><ele>508.59999999999997</ele><time>2026-04-11T13:37:29Z</time></trkpt><trkpt lat="43.03972845093578" lon="11.601660661404939"><ele>508.4</ele><time>2026-04-11T13:37:32Z</time></trkpt><trkpt lat="43.03970237197939" lon="11.601761763545307"><ele>508.2</ele><time>2026-04-11T13:37:35.001Z</time></trkpt><trkpt lat="43.03964217333733" lon="11.601949722389609"><ele>508.0</ele><time>2026-04-11T13:37:40.001Z</time></trkpt><trkpt lat="43.03962395576417" lon="11.602051615192728"><ele>508.6666666666667</ele><time>2026-04-11T13:37:43.001Z</time></trkpt><trkpt lat="43.03959367958324" lon="11.602166915353312"><ele>509.33333333333337</ele><time>2026-04-11T13:37:46.001Z</time></trkpt><trkpt lat="43.03957318175921" lon="11.602267891092637"><ele>510.0</ele><time>2026-04-11T13:37:49.001Z</time></trkpt><trkpt lat="43.03955464329285" lon="11.602395033030604"><ele>510.66666666666663</ele><time>2026-04-11T13:37:52.001Z</time></trkpt><trkpt lat="43.03953109768326" lon="11.602475136292988"><ele>511.3333333333333</ele><time>2026-04-11T13:37:54.001Z</time></trkpt><trkpt lat="43.039503254650164" lon="11.6025635005122"><ele>512.0</ele><time>2026-04-11T13:37:56Z</time></trkpt><trkpt lat="43.03941882861101" lon="11.602815330255982"><ele>511.3333333333333</ele><time>2026-04-11T13:38:01Z</time></trkpt><trkpt lat="43.03936312014381" lon="11.602917793930672"><ele>510.66666666666663</ele><time>2026-04-11T13:38:03Z</time></trkpt><trkpt lat="43.039322740638895" lon="11.602997231422746"><ele>510.0</ele><time>2026-04-11T13:38:04Z</time></trkpt><trkpt lat="43.0392585698237" lon="11.603098411519106"><ele>509.33333333333337</ele><time>2026-04-11T13:38:06Z</time></trkpt><trkpt lat="43.039205872628" lon="11.603192366624906"><ele>508.6666666666667</ele><time>2026-04-11T13:38:08Z</time></trkpt><trkpt lat="43.03914420347728" lon="11.603289538950978"><ele>508.0</ele><time>2026-04-11T13:38:10Z</time></trkpt><trkpt lat="43.039081497694475" lon="11.603380286469305"><ele>508.0</ele><time>2026-04-11T13:38:12Z</time></trkpt><trkpt lat="43.03901746002552" lon="11.603473815796148"><ele>507.99999999999994</ele><time>2026-04-11T13:38:14Z</time></trkpt><trkpt lat="43.038981349556586" lon="11.603554034649825"><ele>507.99999999999994</ele><time>2026-04-11T13:38:17Z</time></trkpt><trkpt lat="43.038885503026684" lon="11.603706697068588"><ele>508.0</ele><time>2026-04-11T13:38:20Z</time></trkpt><trkpt lat="43.03883155732246" lon="11.603767327107017"><ele>508.0</ele><time>2026-04-11T13:38:22Z</time></trkpt><trkpt lat="43.038786267719146" lon="11.603853466451875"><ele>509.00000000000006</ele><time>2026-04-11T13:38:24Z</time></trkpt><trkpt lat="43.03871435299916" lon="11.60395308090932"><ele>510.0</ele><time>2026-04-11T13:38:26Z</time></trkpt><trkpt lat="43.03867681024134" lon="11.604045139552953"><ele>511.0</ele><time>2026-04-11T13:38:28Z</time></trkpt><trkpt lat="43.03864768112082" lon="11.604136551516017"><ele>512.0</ele><time>2026-04-11T13:38:30Z</time></trkpt><trkpt lat="43.03862921388087" lon="11.604222471718254"><ele>513.0</ele><time>2026-04-11T13:38:32Z</time></trkpt><trkpt lat="43.038611068613164" lon="11.604337542832763"><ele>514.0</ele><time>2026-04-11T13:38:36Z</time></trkpt><trkpt lat="43.038592075533565" lon="11.604419721168188"><ele>514.5</ele><time>2026-04-11T13:38:38Z</time></trkpt><trkpt lat="43.038505746722194" lon="11.604651877932914"><ele>515.0</ele><time>2026-04-11T13:38:40Z</time></trkpt><trkpt lat="43.038481571412746" lon="11.604797931685566"><ele>515.5</ele><time>2026-04-11T13:38:42Z</time></trkpt><trkpt lat="43.03846517769243" lon="11.604944393994922"><ele>516.0</ele><time>2026-04-11T13:38:44Z</time></trkpt><trkpt lat="43.03845632984114" lon="11.60508458645169"><ele>516.0</ele><time>2026-04-11T13:38:46Z</time></trkpt><trkpt lat="43.038442456274545" lon="11.605222899655221"><ele>516.0</ele><time>2026-04-11T13:38:48Z</time></trkpt><trkpt lat="43.03842099259324" lon="11.605376139713252"><ele>516.0</ele><time>2026-04-11T13:38:50Z</time></trkpt><trkpt lat="43.03840749675656" lon="11.605552633675012"><ele>516.0</ele><time>2026-04-11T13:38:52Z</time></trkpt><trkpt lat="43.03840204464397" lon="11.605638453611695"><ele>516.0</ele><time>2026-04-11T13:38:53Z</time></trkpt><trkpt lat="43.0383865490207" lon="11.60572499526459"><ele>516.1666666666666</ele><time>2026-04-11T13:38:54Z</time></trkpt><trkpt lat="43.03835771749657" lon="11.605819309171723"><ele>516.3333333333334</ele><time>2026-04-11T13:38:55Z</time></trkpt><trkpt lat="43.03832557908575" lon="11.605916259664177"><ele>516.5</ele><time>2026-04-11T13:38:56Z</time></trkpt><trkpt lat="43.03825456855204" lon="11.605986628198133"><ele>516.6666666666667</ele><time>2026-04-11T13:38:57Z</time></trkpt><trkpt lat="43.03818507037683" lon="11.606044192101455"><ele>516.8333333333334</ele><time>2026-04-11T13:38:58Z</time></trkpt><trkpt lat="43.0381195094169" lon="11.60610216350804"><ele>517.0</ele><time>2026-04-11T13:38:59Z</time></trkpt><trkpt lat="43.037880895532574" lon="11.606136946665234"><ele>515.0</ele><time>2026-04-11T13:39:02Z</time></trkpt><trkpt lat="43.03780337340793" lon="11.606131831227433"><ele>513.0</ele><time>2026-04-11T13:39:03Z</time></trkpt><trkpt lat="43.03771978725256" lon="11.606135959974967"><ele>511.0</ele><time>2026-04-11T13:39:04Z</time></trkpt><trkpt lat="43.037642399560305" lon="11.606138652847436"><ele>509.0</ele><time>2026-04-11T13:39:05Z</time></trkpt><trkpt lat="43.037563910920206" lon="11.606149567645897"><ele>507.00000000000006</ele><time>2026-04-11T13:39:06Z</time></trkpt><trkpt lat="43.03749268194878" lon="11.606155516293915"><ele>505.0</ele><time>2026-04-11T13:39:07Z</time></trkpt><trkpt lat="43.03742430258782" lon="11.606168434653373"><ele>502.83333333333337</ele><time>2026-04-11T13:39:08Z</time></trkpt><trkpt lat="43.03735592643299" lon="11.606178407740588"><ele>500.6666666666667</ele><time>2026-04-11T13:39:09Z</time></trkpt><trkpt lat="43.0372735293247" lon="11.606190091049806"><ele>498.5</ele><time>2026-04-11T13:39:10Z</time></trkpt><trkpt lat="43.03718701722442" lon="11.606207084957122"><ele>496.33333333333337</ele><time>2026-04-11T13:39:11Z</time></trkpt><trkpt lat="43.03710176026868" lon="11.606225907004747"><ele>494.1666666666667</ele><time>2026-04-11T13:39:12Z</time></trkpt><trkpt lat="43.03701848577448" lon="11.606242054995562"><ele>492.0</ele><time>2026-04-11T13:39:13Z</time></trkpt><trkpt lat="43.03694410565748" lon="11.60625825593366"><ele>492.0</ele><time>2026-04-11T13:39:14Z</time></trkpt><trkpt lat="43.03686805101853" lon="11.606304128363638"><ele>492.0</ele><time>2026-04-11T13:39:15Z</time></trkpt><trkpt lat="43.03679479704877" lon="11.606388659534417"><ele>492.0</ele><time>2026-04-11T13:39:16Z</time></trkpt><trkpt lat="43.03672876252301" lon="11.606474421793484"><ele>492.0</ele><time>2026-04-11T13:39:17Z</time></trkpt><trkpt lat="43.03667082652043" lon="11.60656056253321"><ele>492.0</ele><time>2026-04-11T13:39:18Z</time></trkpt><trkpt lat="43.03662942135369" lon="11.606661539136446"><ele>492.0</ele><time>2026-04-11T13:39:19Z</time></trkpt><trkpt lat="43.03659791658896" lon="11.606775088529005"><ele>488.20000000000005</ele><time>2026-04-11T13:39:20Z</time></trkpt><trkpt lat="43.036541806585504" lon="11.607018617477427"><ele>484.40000000000003</ele><time>2026-04-11T13:39:22Z</time></trkpt><trkpt lat="43.03652085602551" lon="11.607126338326797"><ele>480.59999999999997</ele><time>2026-04-11T13:39:23Z</time></trkpt><trkpt lat="43.03650482141407" lon="11.607211631586098"><ele>476.79999999999995</ele><time>2026-04-11T13:39:24Z</time></trkpt><trkpt lat="43.03649966261668" lon="11.60734098810105"><ele>473.0</ele><time>2026-04-11T13:39:26Z</time></trkpt><trkpt lat="43.036472672234844" lon="11.60744910409607"><ele>473.0</ele><time>2026-04-11T13:39:28Z</time></trkpt><trkpt lat="43.03636059568105" lon="11.60752000013965"><ele>472.99999999999994</ele><time>2026-04-11T13:39:30Z</time></trkpt><trkpt lat="43.036278453562616" lon="11.607551094293203"><ele>472.99999999999994</ele><time>2026-04-11T13:39:31Z</time></trkpt><trkpt lat="43.03619209724671" lon="11.60759096903801"><ele>473.0</ele><time>2026-04-11T13:39:32Z</time></trkpt><trkpt lat="43.03610866869296" lon="11.607636101539086"><ele>473.0</ele><time>2026-04-11T13:39:33Z</time></trkpt><trkpt lat="43.03604555987164" lon="11.607693675822809"><ele>472.99999999999994</ele><time>2026-04-11T13:39:34Z</time></trkpt><trkpt lat="43.036003423076224" lon="11.60779176154317"><ele>473.0</ele><time>2026-04-11T13:39:35Z</time></trkpt><trkpt lat="43.0359964611662" lon="11.607914373402906"><ele>473.0</ele><time>2026-04-11T13:39:36Z</time></trkpt><trkpt lat="43.03599920675792" lon="11.608031607208375"><ele>473.0</ele><time>2026-04-11T13:39:37Z</time></trkpt><trkpt lat="43.03599324782331" lon="11.608138601015629"><ele>472.99999999999994</ele><time>2026-04-11T13:39:38Z</time></trkpt><trkpt lat="43.035982139651196" lon="11.608249776923598"><ele>473.0</ele><time>2026-04-11T13:39:39Z</time></trkpt><trkpt lat="43.035978392211526" lon="11.608358829641299"><ele>473.4</ele><time>2026-04-11T13:39:40Z</time></trkpt><trkpt lat="43.035962801742755" lon="11.608464864667448"><ele>473.79999999999995</ele><time>2026-04-11T13:39:41Z</time></trkpt><trkpt lat="43.035859640628146" lon="11.608672399679024"><ele>474.2</ele><time>2026-04-11T13:39:44.001Z</time></trkpt><trkpt lat="43.03580477037804" lon="11.608722080775209"><ele>474.6</ele><time>2026-04-11T13:39:45.001Z</time></trkpt><trkpt lat="43.035727179558364" lon="11.608828764314886"><ele>475.0</ele><time>2026-04-11T13:39:47.001Z</time></trkpt><trkpt lat="43.03572285966116" lon="11.608965171714752"><ele>471.0</ele><time>2026-04-11T13:39:49.001Z</time></trkpt><trkpt lat="43.035742461341904" lon="11.609115384094519"><ele>467.0</ele><time>2026-04-11T13:39:51.001Z</time></trkpt><trkpt lat="43.03576707281845" lon="11.609256991882976"><ele>463.0</ele><time>2026-04-11T13:39:53.001Z</time></trkpt><trkpt lat="43.03579384798783" lon="11.6093962540972"><ele>459.0</ele><time>2026-04-11T13:39:55.001Z</time></trkpt><trkpt lat="43.03578553366571" lon="11.609529399312791"><ele>455.0</ele><time>2026-04-11T13:39:57.001Z</time></trkpt><trkpt lat="43.03574555234125" lon="11.609626061435558"><ele>454.0</ele><time>2026-04-11T13:39:59.001Z</time></trkpt><trkpt lat="43.03564905754592" lon="11.609665151544716"><ele>453.0</ele><time>2026-04-11T13:40:01Z</time></trkpt><trkpt lat="43.03552523271057" lon="11.609680770490622"><ele>452.0</ele><time>2026-04-11T13:40:03Z</time></trkpt><trkpt lat="43.03538550075218" lon="11.609703337908044"><ele>451.0</ele><time>2026-04-11T13:40:05Z</time></trkpt><trkpt lat="43.03531716396134" lon="11.609689226000102"><ele>450.0</ele><time>2026-04-11T13:40:06Z</time></trkpt><trkpt lat="43.03524724944485" lon="11.609665062153347"><ele>450.0</ele><time>2026-04-11T13:40:07Z</time></trkpt><trkpt lat="43.03517650404511" lon="11.609644212457065"><ele>450.0</ele><time>2026-04-11T13:40:08Z</time></trkpt><trkpt lat="43.035099379932184" lon="11.609649272389268"><ele>450.0</ele><time>2026-04-11T13:40:09Z</time></trkpt><trkpt lat="43.035024343347814" lon="11.609683559606209"><ele>450.0</ele><time>2026-04-11T13:40:10Z</time></trkpt><trkpt lat="43.034947252403065" lon="11.609715391016037"><ele>450.0</ele><time>2026-04-11T13:40:11Z</time></trkpt><trkpt lat="43.03487077940364" lon="11.609772408390393"><ele>450.0</ele><time>2026-04-11T13:40:12Z</time></trkpt><trkpt lat="43.034797456263426" lon="11.609839748444397"><ele>449.8333333333333</ele><time>2026-04-11T13:40:13Z</time></trkpt><trkpt lat="43.03472485672178" lon="11.60991115923179"><ele>449.66666666666663</ele><time>2026-04-11T13:40:14Z</time></trkpt><trkpt lat="43.03465258954725" lon="11.609981731809249"><ele>449.5</ele><time>2026-04-11T13:40:15Z</time></trkpt><trkpt lat="43.03458242254497" lon="11.610053823659904"><ele>449.3333333333333</ele><time>2026-04-11T13:40:16Z</time></trkpt><trkpt lat="43.034513959238694" lon="11.610132361608093"><ele>449.16666666666663</ele><time>2026-04-11T13:40:17Z</time></trkpt><trkpt lat="43.034449022464926" lon="11.610212356068494"><ele>449.0</ele><time>2026-04-11T13:40:18Z</time></trkpt><trkpt lat="43.03438816494675" lon="11.61028992884253"><ele>448.0</ele><time>2026-04-11T13:40:19Z</time></trkpt><trkpt lat="43.03432581051463" lon="11.610365339141946"><ele>447.0</ele><time>2026-04-11T13:40:20Z</time></trkpt><trkpt lat="43.03426948910086" lon="11.610432282169008"><ele>446.0</ele><time>2026-04-11T13:40:21Z</time></trkpt><trkpt lat="43.03416938159336" lon="11.610513720282396"><ele>445.0</ele><time>2026-04-11T13:40:23Z</time></trkpt><trkpt lat="43.03408406122398" lon="11.610608565806313"><ele>444.0</ele><time>2026-04-11T13:40:25Z</time></trkpt><trkpt lat="43.03405220236972" lon="11.610857194645758"><ele>442.5</ele><time>2026-04-11T13:40:28Z</time></trkpt><trkpt lat="43.03404634480446" lon="11.61095515238053"><ele>441.0</ele><time>2026-04-11T13:40:29Z</time></trkpt><trkpt lat="43.034035333061986" lon="11.611053243517464"><ele>439.5</ele><time>2026-04-11T13:40:30Z</time></trkpt><trkpt lat="43.0340180907646" lon="11.611155534739195"><ele>438.0</ele><time>2026-04-11T13:40:31Z</time></trkpt><trkpt lat="43.03400018952493" lon="11.611258876338878"><ele>436.5</ele><time>2026-04-11T13:40:32Z</time></trkpt><trkpt lat="43.033978297358765" lon="11.611371611990673"><ele>435.0</ele><time>2026-04-11T13:40:33Z</time></trkpt><trkpt lat="43.03395996748467" lon="11.61148572903402"><ele>433.6666666666667</ele><time>2026-04-11T13:40:34Z</time></trkpt><trkpt lat="43.03394458860303" lon="11.611604855874724"><ele>432.33333333333337</ele><time>2026-04-11T13:40:35Z</time></trkpt><trkpt lat="43.03393136981289" lon="11.611724823824146"><ele>431.0</ele><time>2026-04-11T13:40:36Z</time></trkpt><trkpt lat="43.033912207835264" lon="11.611835558440898"><ele>429.6666666666667</ele><time>2026-04-11T13:40:37Z</time></trkpt><trkpt lat="43.03390154641151" lon="11.611944845698325"><ele>428.33333333333337</ele><time>2026-04-11T13:40:38Z</time></trkpt><trkpt lat="43.033889879599215" lon="11.612054388733517"><ele>427.0</ele><time>2026-04-11T13:40:39Z</time></trkpt><trkpt lat="43.03387738825639" lon="11.612153347160204"><ele>426.83333333333337</ele><time>2026-04-11T13:40:40Z</time></trkpt><trkpt lat="43.03386454149962" lon="11.61224203745498"><ele>426.6666666666667</ele><time>2026-04-11T13:40:41Z</time></trkpt><trkpt lat="43.03385233736502" lon="11.612338294291886"><ele>426.5</ele><time>2026-04-11T13:40:42Z</time></trkpt><trkpt lat="43.03384351914167" lon="11.612444647534156"><ele>426.33333333333337</ele><time>2026-04-11T13:40:43Z</time></trkpt><trkpt lat="43.033836767943605" lon="11.612554335203363"><ele>426.1666666666667</ele><time>2026-04-11T13:40:44Z</time></trkpt><trkpt lat="43.03383957533545" lon="11.61266266206552"><ele>426.0</ele><time>2026-04-11T13:40:45Z</time></trkpt><trkpt lat="43.03383790975816" lon="11.612766820012364"><ele>424.6</ele><time>2026-04-11T13:40:46Z</time></trkpt><trkpt lat="43.03383043522009" lon="11.612985258535643"><ele>423.20000000000005</ele><time>2026-04-11T13:40:48Z</time></trkpt><trkpt lat="43.03383153889076" lon="11.613108486146714"><ele>421.79999999999995</ele><time>2026-04-11T13:40:49Z</time></trkpt><trkpt lat="43.03383026519733" lon="11.613235088327096"><ele>420.4</ele><time>2026-04-11T13:40:50Z</time></trkpt><trkpt lat="43.03382553850177" lon="11.613363878256564"><ele>419.0</ele><time>2026-04-11T13:40:51Z</time></trkpt><trkpt lat="43.033822466485624" lon="11.613494508532957"><ele>419.0</ele><time>2026-04-11T13:40:52Z</time></trkpt><trkpt lat="43.0338257971129" lon="11.613631013802921"><ele>419.0</ele><time>2026-04-11T13:40:53Z</time></trkpt><trkpt lat="43.03382442387911" lon="11.613769431194964"><ele>419.0</ele><time>2026-04-11T13:40:54Z</time></trkpt><trkpt lat="43.03382044604415" lon="11.613903076630702"><ele>419.0</ele><time>2026-04-11T13:40:55Z</time></trkpt><trkpt lat="43.03381814089032" lon="11.614031225479069"><ele>419.0</ele><time>2026-04-11T13:40:56Z</time></trkpt><trkpt lat="43.033810156263925" lon="11.614151068775271"><ele>417.57142857142856</ele><time>2026-04-11T13:40:57Z</time></trkpt><trkpt lat="43.03380037808853" lon="11.614261431430029"><ele>416.1428571428571</ele><time>2026-04-11T13:40:58Z</time></trkpt><trkpt lat="43.03378615059219" lon="11.614358098662647"><ele>414.71428571428567</ele><time>2026-04-11T13:40:59Z</time></trkpt><trkpt lat="43.03376560467034" lon="11.614444702974126"><ele>413.2857142857143</ele><time>2026-04-11T13:41:00Z</time></trkpt><trkpt lat="43.0337384218653" lon="11.614525048694752"><ele>411.8571428571429</ele><time>2026-04-11T13:41:01Z</time></trkpt><trkpt lat="43.03370742788855" lon="11.61460282736499"><ele>410.4285714285714</ele><time>2026-04-11T13:41:02Z</time></trkpt><trkpt lat="43.033670315711625" lon="11.614683342886535"><ele>409.0</ele><time>2026-04-11T13:41:03Z</time></trkpt><trkpt lat="43.03362505546249" lon="11.614757009690397"><ele>407.50000000000006</ele><time>2026-04-11T13:41:04Z</time></trkpt><trkpt lat="43.03357828098902" lon="11.614831725613795"><ele>406.0</ele><time>2026-04-11T13:41:05Z</time></trkpt><trkpt lat="43.0335317544796" lon="11.614904574945975"><ele>404.5</ele><time>2026-04-11T13:41:06Z</time></trkpt><trkpt lat="43.03348581702767" lon="11.61497848115947"><ele>403.0</ele><time>2026-04-11T13:41:07Z</time></trkpt><trkpt lat="43.03339195518931" lon="11.61513461215658"><ele>401.50000000000006</ele><time>2026-04-11T13:41:09Z</time></trkpt><trkpt lat="43.03334791213126" lon="11.615211205496635"><ele>400.0</ele><time>2026-04-11T13:41:10Z</time></trkpt><trkpt lat="43.03330655668595" lon="11.615284125209813"><ele>396.83333333333337</ele><time>2026-04-11T13:41:11Z</time></trkpt><trkpt lat="43.03326574237058" lon="11.615355727423342"><ele>393.6666666666667</ele><time>2026-04-11T13:41:12Z</time></trkpt><trkpt lat="43.03322592326785" lon="11.615430305713366"><ele>390.5</ele><time>2026-04-11T13:41:13Z</time></trkpt><trkpt lat="43.033182441026064" lon="11.61549554129778"><ele>387.33333333333337</ele><time>2026-04-11T13:41:14Z</time></trkpt><trkpt lat="43.03314283885293" lon="11.615562894793465"><ele>384.1666666666667</ele><time>2026-04-11T13:41:15Z</time></trkpt><trkpt lat="43.03307398359862" lon="11.615681492756043"><ele>381.0</ele><time>2026-04-11T13:41:17Z</time></trkpt><trkpt lat="43.033003067153196" lon="11.615808138248576"><ele>381.0</ele><time>2026-04-11T13:41:19Z</time></trkpt><trkpt lat="43.03295178053926" lon="11.615964420629298"><ele>381.0</ele><time>2026-04-11T13:41:21Z</time></trkpt><trkpt lat="43.03292821491335" lon="11.616049254401545"><ele>381.0</ele><time>2026-04-11T13:41:22Z</time></trkpt><trkpt lat="43.032903928369215" lon="11.616134168257952"><ele>381.0</ele><time>2026-04-11T13:41:23Z</time></trkpt><trkpt lat="43.03287639813854" lon="11.616220649949328"><ele>381.0</ele><time>2026-04-11T13:41:24Z</time></trkpt><trkpt lat="43.03285414388467" lon="11.616310559895924"><ele>381.0</ele><time>2026-04-11T13:41:25Z</time></trkpt><trkpt lat="43.03283059100671" lon="11.616393839259034"><ele>380.20000000000005</ele><time>2026-04-11T13:41:26Z</time></trkpt><trkpt lat="43.03280742012903" lon="11.616485621249398"><ele>379.40000000000003</ele><time>2026-04-11T13:41:27Z</time></trkpt><trkpt lat="43.03277770703471" lon="11.616578781715697"><ele>378.6</ele><time>2026-04-11T13:41:28Z</time></trkpt><trkpt lat="43.03271508147334" lon="11.61678035149168"><ele>377.8</ele><time>2026-04-11T13:41:30Z</time></trkpt><trkpt lat="43.03268027607335" lon="11.616896029863419"><ele>377.0</ele><time>2026-04-11T13:41:31Z</time></trkpt><trkpt lat="43.032644681776894" lon="11.617014225444638"><ele>376.33333333333337</ele><time>2026-04-11T13:41:32Z</time></trkpt><trkpt lat="43.032607915138435" lon="11.617123711533651"><ele>375.6666666666667</ele><time>2026-04-11T13:41:33Z</time></trkpt><trkpt lat="43.0325687859035" lon="11.617221443460982"><ele>375.0</ele><time>2026-04-11T13:41:34Z</time></trkpt><trkpt lat="43.03252325562858" lon="11.617308112304304"><ele>374.3333333333333</ele><time>2026-04-11T13:41:35Z</time></trkpt><trkpt lat="43.03247146555177" lon="11.61739210994651"><ele>373.66666666666663</ele><time>2026-04-11T13:41:36Z</time></trkpt><trkpt lat="43.03242471130698" lon="11.61747819913326"><ele>373.0</ele><time>2026-04-11T13:41:37Z</time></trkpt><trkpt lat="43.03237956156374" lon="11.617564540393563"><ele>370.8333333333333</ele><time>2026-04-11T13:41:38Z</time></trkpt><trkpt lat="43.0323387080282" lon="11.617652607618902"><ele>368.66666666666663</ele><time>2026-04-11T13:41:39Z</time></trkpt><trkpt lat="43.03229762859746" lon="11.617746449122047"><ele>366.5</ele><time>2026-04-11T13:41:40Z</time></trkpt><trkpt lat="43.0322646659317" lon="11.617837596567679"><ele>364.3333333333333</ele><time>2026-04-11T13:41:41Z</time></trkpt><trkpt lat="43.0322286377642" lon="11.61791915672273"><ele>362.1666666666667</ele><time>2026-04-11T13:41:42Z</time></trkpt><trkpt lat="43.03218124938581" lon="11.617984556933814"><ele>360.0</ele><time>2026-04-11T13:41:43Z</time></trkpt><trkpt lat="43.03207645992615" lon="11.618069916654017"><ele>360.0</ele><time>2026-04-11T13:41:45Z</time></trkpt><trkpt lat="43.03201997701862" lon="11.618123443833646"><ele>360.0</ele><time>2026-04-11T13:41:46Z</time></trkpt><trkpt lat="43.031972203577205" lon="11.618195056293937"><ele>360.0</ele><time>2026-04-11T13:41:47Z</time></trkpt><trkpt lat="43.031937791487834" lon="11.618279749425744"><ele>360.0</ele><time>2026-04-11T13:41:48Z</time></trkpt><trkpt lat="43.031916531746674" lon="11.61836950177879"><ele>360.0</ele><time>2026-04-11T13:41:49Z</time></trkpt><trkpt lat="43.03191364254725" lon="11.618550483138689"><ele>360.0</ele><time>2026-04-11T13:41:51Z</time></trkpt><trkpt lat="43.0319225904971" lon="11.618638653383597"><ele>359.8333333333333</ele><time>2026-04-11T13:41:52Z</time></trkpt><trkpt lat="43.03192436548808" lon="11.618731341718508"><ele>359.6666666666667</ele><time>2026-04-11T13:41:53Z</time></trkpt><trkpt lat="43.03188532224273" lon="11.618891389386938"><ele>359.5</ele><time>2026-04-11T13:41:55Z</time></trkpt><trkpt lat="43.031840713322296" lon="11.618957959618596"><ele>359.33333333333337</ele><time>2026-04-11T13:41:56Z</time></trkpt><trkpt lat="43.03178874064239" lon="11.61901922152877"><ele>359.1666666666667</ele><time>2026-04-11T13:41:57Z</time></trkpt><trkpt lat="43.031731217974304" lon="11.619058660561775"><ele>359.0</ele><time>2026-04-11T13:41:58Z</time></trkpt><trkpt lat="43.03166868375054" lon="11.61907819894405"><ele>356.6666666666667</ele><time>2026-04-11T13:41:59.001Z</time></trkpt><trkpt lat="43.03160577857386" lon="11.619073901920551"><ele>354.33333333333337</ele><time>2026-04-11T13:42:00.001Z</time></trkpt><trkpt lat="43.03154342138886" lon="11.619060040374746"><ele>352.0</ele><time>2026-04-11T13:42:01.001Z</time></trkpt><trkpt lat="43.03148114267655" lon="11.6190416820581"><ele>349.6666666666667</ele><time>2026-04-11T13:42:02.001Z</time></trkpt><trkpt lat="43.03138906328693" lon="11.618945604040922"><ele>347.3333333333333</ele><time>2026-04-11T13:42:04.001Z</time></trkpt><trkpt lat="43.031358581733286" lon="11.618793058717632"><ele>345.0</ele><time>2026-04-11T13:42:06.001Z</time></trkpt><trkpt lat="43.031326433469985" lon="11.618668227249977"><ele>345.0</ele><time>2026-04-11T13:42:08Z</time></trkpt><trkpt lat="43.03124267215402" lon="11.618608219018757"><ele>345.0</ele><time>2026-04-11T13:42:10Z</time></trkpt><trkpt lat="43.03106105486337" lon="11.61866711755427"><ele>345.0</ele><time>2026-04-11T13:42:13Z</time></trkpt><trkpt lat="43.030982983054734" lon="11.618703053425971"><ele>345.0</ele><time>2026-04-11T13:42:14Z</time></trkpt><trkpt lat="43.03090639457017" lon="11.61872459701998"><ele>345.0</ele><time>2026-04-11T13:42:15Z</time></trkpt><trkpt lat="43.03083078498629" lon="11.61874299775039"><ele>342.7142857142857</ele><time>2026-04-11T13:42:16Z</time></trkpt><trkpt lat="43.030762336982846" lon="11.618762775877586"><ele>340.42857142857144</ele><time>2026-04-11T13:42:17Z</time></trkpt><trkpt lat="43.03069856426524" lon="11.618790204164615"><ele>338.1428571428571</ele><time>2026-04-11T13:42:18Z</time></trkpt><trkpt lat="43.03063196205184" lon="11.618833920892161"><ele>335.8571428571429</ele><time>2026-04-11T13:42:19Z</time></trkpt><trkpt lat="43.030569492359795" lon="11.618893662347125"><ele>333.57142857142856</ele><time>2026-04-11T13:42:20Z</time></trkpt><trkpt lat="43.0305202860118" lon="11.618969486907934"><ele>331.2857142857143</ele><time>2026-04-11T13:42:21Z</time></trkpt><trkpt lat="43.03048341181702" lon="11.619040341473964"><ele>329.0</ele><time>2026-04-11T13:42:22Z</time></trkpt><trkpt lat="43.030450410999215" lon="11.619161265560507"><ele>329.0</ele><time>2026-04-11T13:42:24Z</time></trkpt><trkpt lat="43.03043648044108" lon="11.61925511860051"><ele>329.0</ele><time>2026-04-11T13:42:26Z</time></trkpt><trkpt lat="43.03042028366194" lon="11.61937003067548"><ele>329.0</ele><time>2026-04-11T13:42:28Z</time></trkpt><trkpt lat="43.03043789596247" lon="11.619552177815793"><ele>329.0</ele><time>2026-04-11T13:42:30Z</time></trkpt><trkpt lat="43.030459238170856" lon="11.619648650879427"><ele>329.0</ele><time>2026-04-11T13:42:31Z</time></trkpt><trkpt lat="43.03052231828247" lon="11.619824456596794"><ele>328.0</ele><time>2026-04-11T13:42:33Z</time></trkpt><trkpt lat="43.0305458349018" lon="11.61991527595232"><ele>327.0</ele><time>2026-04-11T13:42:34Z</time></trkpt><trkpt lat="43.03057391374551" lon="11.620012310829868"><ele>326.0</ele><time>2026-04-11T13:42:35Z</time></trkpt><trkpt lat="43.03060302437171" lon="11.620105871866532"><ele>325.0</ele><time>2026-04-11T13:42:36Z</time></trkpt><trkpt lat="43.030618524166854" lon="11.620194655198517"><ele>324.0</ele><time>2026-04-11T13:42:37Z</time></trkpt><trkpt lat="43.030621496765065" lon="11.620351204186989"><ele>323.0</ele><time>2026-04-11T13:42:39Z</time></trkpt><trkpt lat="43.03060132476797" lon="11.620482630588524"><ele>321.59999999999997</ele><time>2026-04-11T13:42:41Z</time></trkpt><trkpt lat="43.0305522369934" lon="11.620638306256796"><ele>320.2</ele><time>2026-04-11T13:42:43Z</time></trkpt><trkpt lat="43.030510719348364" lon="11.620710650622515"><ele>318.8</ele><time>2026-04-11T13:42:44Z</time></trkpt><trkpt lat="43.03040945372294" lon="11.620773402566622"><ele>317.4</ele><time>2026-04-11T13:42:46Z</time></trkpt><trkpt lat="43.03030469920256" lon="11.620713495095826"><ele>316.0</ele><time>2026-04-11T13:42:48Z</time></trkpt><trkpt lat="43.030247135211454" lon="11.620650901787464"><ele>316.0</ele><time>2026-04-11T13:42:49Z</time></trkpt><trkpt lat="43.03018536810189" lon="11.62059503277608"><ele>316.0</ele><time>2026-04-11T13:42:50Z</time></trkpt><trkpt lat="43.03012234162926" lon="11.620579208428943"><ele>316.0</ele><time>2026-04-11T13:42:51Z</time></trkpt><trkpt lat="43.0300569218816" lon="11.620590771709491"><ele>316.0</ele><time>2026-04-11T13:42:52Z</time></trkpt><trkpt lat="43.02992475991848" lon="11.620610910622771"><ele>316.0</ele><time>2026-04-11T13:42:54Z</time></trkpt><trkpt lat="43.029858298529575" lon="11.620617844822274"><ele>316.0</ele><time>2026-04-11T13:42:55Z</time></trkpt><trkpt lat="43.029788899726036" lon="11.620621314856372"><ele>313.8</ele><time>2026-04-11T13:42:56Z</time></trkpt><trkpt lat="43.02972139313094" lon="11.620630332697093"><ele>311.6</ele><time>2026-04-11T13:42:57Z</time></trkpt><trkpt lat="43.02960793736524" lon="11.62063514131212"><ele>309.4</ele><time>2026-04-11T13:42:59Z</time></trkpt><trkpt lat="43.029496807661396" lon="11.620646093480076"><ele>307.2</ele><time>2026-04-11T13:43:01Z</time></trkpt><trkpt lat="43.02938649856801" lon="11.620651850317024"><ele>305.0</ele><time>2026-04-11T13:43:03Z</time></trkpt><trkpt lat="43.02927923477523" lon="11.620625725262567"><ele>305.0</ele><time>2026-04-11T13:43:05Z</time></trkpt><trkpt lat="43.029166200898594" lon="11.620574748826701"><ele>305.0</ele><time>2026-04-11T13:43:07Z</time></trkpt><trkpt lat="43.02905837057914" lon="11.620533006129476"><ele>305.0</ele><time>2026-04-11T13:43:09Z</time></trkpt><trkpt lat="43.028961503184966" lon="11.620534487293101"><ele>305.0</ele><time>2026-04-11T13:43:11Z</time></trkpt><trkpt lat="43.02886501167073" lon="11.620520307733216"><ele>305.0</ele><time>2026-04-11T13:43:13Z</time></trkpt><trkpt lat="43.028698822126586" lon="11.620349877937473"><ele>304.33333333333337</ele><time>2026-04-11T13:43:16Z</time></trkpt><trkpt lat="43.028652127406744" lon="11.62028297119338"><ele>303.6666666666667</ele><time>2026-04-11T13:43:17Z</time></trkpt><trkpt lat="43.0285648180531" lon="11.62018829015074"><ele>303.0</ele><time>2026-04-11T13:43:19Z</time></trkpt><trkpt lat="43.02850373812381" lon="11.62013058687572"><ele>302.3333333333333</ele><time>2026-04-11T13:43:21Z</time></trkpt><trkpt lat="43.02845244100331" lon="11.620189241267456"><ele>301.66666666666663</ele><time>2026-04-11T13:43:25Z</time></trkpt><trkpt lat="43.02843757094349" lon="11.620289139030973"><ele>301.0</ele><time>2026-04-11T13:43:27Z</time></trkpt><trkpt lat="43.02843817859559" lon="11.62041697101553"><ele>299.5</ele><time>2026-04-11T13:43:29Z</time></trkpt><trkpt lat="43.028420553602125" lon="11.620553543062258"><ele>298.0</ele><time>2026-04-11T13:43:31Z</time></trkpt><trkpt lat="43.02839626056339" lon="11.62072322148952"><ele>296.5</ele><time>2026-04-11T13:43:33Z</time></trkpt><trkpt lat="43.028381676780825" lon="11.620823321726002"><ele>295.0</ele><time>2026-04-11T13:43:34Z</time></trkpt><trkpt lat="43.02835760129483" lon="11.621052933957918"><ele>293.6</ele><time>2026-04-11T13:43:36Z</time></trkpt><trkpt lat="43.02833450793054" lon="11.621173436531382"><ele>292.2</ele><time>2026-04-11T13:43:37Z</time></trkpt><trkpt lat="43.02831521892757" lon="11.621303345537173"><ele>290.8</ele><time>2026-04-11T13:43:38Z</time></trkpt><trkpt lat="43.0283001024901" lon="11.621442638743563"><ele>289.4</ele><time>2026-04-11T13:43:39Z</time></trkpt><trkpt lat="43.028278651151346" lon="11.621585337474272"><ele>288.0</ele><time>2026-04-11T13:43:40Z</time></trkpt><trkpt lat="43.028256685727136" lon="11.621731199279372"><ele>284.4</ele><time>2026-04-11T13:43:41Z</time></trkpt><trkpt lat="43.02823318886134" lon="11.621880908183863"><ele>280.8</ele><time>2026-04-11T13:43:42Z</time></trkpt><trkpt lat="43.02820983805031" lon="11.622033713056931"><ele>277.2</ele><time>2026-04-11T13:43:43Z</time></trkpt><trkpt lat="43.02818670717122" lon="11.622180246484747"><ele>273.6</ele><time>2026-04-11T13:43:44Z</time></trkpt><trkpt lat="43.02817127731435" lon="11.6223123106529"><ele>270.0</ele><time>2026-04-11T13:43:45Z</time></trkpt><trkpt lat="43.02814579579186" lon="11.622453577363194"><ele>268.8</ele><time>2026-04-11T13:43:46Z</time></trkpt><trkpt lat="43.02810646489273" lon="11.62259358260836"><ele>267.6</ele><time>2026-04-11T13:43:47Z</time></trkpt><trkpt lat="43.028067238349635" lon="11.622741042720776"><ele>266.4</ele><time>2026-04-11T13:43:48Z</time></trkpt><trkpt lat="43.02803074766166" lon="11.62288534146806"><ele>265.2</ele><time>2026-04-11T13:43:49Z</time></trkpt><trkpt lat="43.027994383739255" lon="11.62302401218573"><ele>264.0</ele><time>2026-04-11T13:43:50Z</time></trkpt><trkpt lat="43.027971626215695" lon="11.623170041797486"><ele>262.5</ele><time>2026-04-11T13:43:51Z</time></trkpt><trkpt lat="43.02794702597847" lon="11.62331642736182"><ele>261.0</ele><time>2026-04-11T13:43:52Z</time></trkpt><trkpt lat="43.02793223516087" lon="11.62347030567014"><ele>259.5</ele><time>2026-04-11T13:43:53Z</time></trkpt><trkpt lat="43.02793425345088" lon="11.623632999075891"><ele>258.0</ele><time>2026-04-11T13:43:54Z</time></trkpt><trkpt lat="43.02794156469012" lon="11.623788075249315"><ele>257.75</ele><time>2026-04-11T13:43:55Z</time></trkpt><trkpt lat="43.02797879306627" lon="11.624084088872765"><ele>257.5</ele><time>2026-04-11T13:43:57Z</time></trkpt><trkpt lat="43.02800225919729" lon="11.624220708269"><ele>257.25</ele><time>2026-04-11T13:43:58Z</time></trkpt><trkpt lat="43.02803482019129" lon="11.624342616745905"><ele>257.0</ele><time>2026-04-11T13:43:59Z</time></trkpt><trkpt lat="43.02806617984988" lon="11.62445766413645"><ele>257.1666666666667</ele><time>2026-04-11T13:44:00Z</time></trkpt><trkpt lat="43.0280964755274" lon="11.624576381782372"><ele>257.33333333333337</ele><time>2026-04-11T13:44:01Z</time></trkpt><trkpt lat="43.0281387285791" lon="11.624679068593517"><ele>257.5</ele><time>2026-04-11T13:44:02Z</time></trkpt><trkpt lat="43.028180058105356" lon="11.624783658526546"><ele>257.6666666666667</ele><time>2026-04-11T13:44:03Z</time></trkpt><trkpt lat="43.02822192055892" lon="11.624887557239107"><ele>257.8333333333333</ele><time>2026-04-11T13:44:04Z</time></trkpt><trkpt lat="43.028257671205985" lon="11.62497488966444"><ele>258.0</ele><time>2026-04-11T13:44:05Z</time></trkpt><trkpt lat="43.02828583944188" lon="11.625055300369134"><ele>258.4</ele><time>2026-04-11T13:44:06Z</time></trkpt><trkpt lat="43.02832732188062" lon="11.625173183574995"><ele>258.8</ele><time>2026-04-11T13:44:08Z</time></trkpt><trkpt lat="43.02837516043945" lon="11.625247032826787"><ele>259.2</ele><time>2026-04-11T13:44:10Z</time></trkpt><trkpt lat="43.02842996655525" lon="11.625332216516163"><ele>259.6</ele><time>2026-04-11T13:44:12Z</time></trkpt><trkpt lat="43.02852323019559" lon="11.625398008775923"><ele>260.0</ele><time>2026-04-11T13:44:14Z</time></trkpt><trkpt lat="43.02859969235008" lon="11.62549078431049"><ele>260.0</ele><time>2026-04-11T13:44:16Z</time></trkpt><trkpt lat="43.028732454914" lon="11.625701412978481"><ele>260.0</ele><time>2026-04-11T13:44:20Z</time></trkpt><trkpt lat="43.02880912783248" lon="11.625785199966547"><ele>260.0</ele><time>2026-04-11T13:44:22Z</time></trkpt><trkpt lat="43.02889486113533" lon="11.625852484229615"><ele>260.0</ele><time>2026-04-11T13:44:24Z</time></trkpt><trkpt lat="43.02898584250072" lon="11.625908663077752"><ele>260.0</ele><time>2026-04-11T13:44:26Z</time></trkpt><trkpt lat="43.02908011678499" lon="11.62596636246943"><ele>260.0</ele><time>2026-04-11T13:44:28Z</time></trkpt><trkpt lat="43.029188605286535" lon="11.625999818245155"><ele>260.0</ele><time>2026-04-11T13:44:30Z</time></trkpt><trkpt lat="43.029304092619" lon="11.626033276736873"><ele>260.0</ele><time>2026-04-11T13:44:32Z</time></trkpt><trkpt lat="43.029424838354714" lon="11.626082747512639"><ele>259.33333333333337</ele><time>2026-04-11T13:44:34Z</time></trkpt><trkpt lat="43.02948823047186" lon="11.626111906786662"><ele>258.6666666666667</ele><time>2026-04-11T13:44:35Z</time></trkpt><trkpt lat="43.02955364147155" lon="11.626147859485068"><ele>258.0</ele><time>2026-04-11T13:44:36Z</time></trkpt><trkpt lat="43.02961462558402" lon="11.626187307946884"><ele>257.3333333333333</ele><time>2026-04-11T13:44:37Z</time></trkpt><trkpt lat="43.029733205313605" lon="11.62626705706235"><ele>256.66666666666663</ele><time>2026-04-11T13:44:39Z</time></trkpt><trkpt lat="43.029796473420994" lon="11.626312830859113"><ele>256.0</ele><time>2026-04-11T13:44:40Z</time></trkpt><trkpt lat="43.02986281468398" lon="11.626355765197543"><ele>255.99999999999997</ele><time>2026-04-11T13:44:41Z</time></trkpt><trkpt lat="43.0299316562671" lon="11.626395639074731"><ele>256.0</ele><time>2026-04-11T13:44:42Z</time></trkpt><trkpt lat="43.02999949791106" lon="11.626430722538453"><ele>256.0</ele><time>2026-04-11T13:44:43Z</time></trkpt><trkpt lat="43.03007155172816" lon="11.626467354705316"><ele>256.0</ele><time>2026-04-11T13:44:44Z</time></trkpt><trkpt lat="43.0301457879542" lon="11.626498269824484"><ele>255.99999999999997</ele><time>2026-04-11T13:44:45Z</time></trkpt><trkpt lat="43.03022403716089" lon="11.626519846177805"><ele>256.0</ele><time>2026-04-11T13:44:46Z</time></trkpt><trkpt lat="43.030301971319545" lon="11.626539574493469"><ele>256.5</ele><time>2026-04-11T13:44:47Z</time></trkpt><trkpt lat="43.030381362422176" lon="11.626552797543196"><ele>257.0</ele><time>2026-04-11T13:44:48Z</time></trkpt><trkpt lat="43.03046031825821" lon="11.626568995691514"><ele>257.5</ele><time>2026-04-11T13:44:49Z</time></trkpt><trkpt lat="43.030539504717346" lon="11.62658778736806"><ele>258.0</ele><time>2026-04-11T13:44:50Z</time></trkpt><trkpt lat="43.03061912945962" lon="11.62660299626365"><ele>258.5</ele><time>2026-04-11T13:44:51Z</time></trkpt><trkpt lat="43.03069947290325" lon="11.626621030876718"><ele>259.0</ele><time>2026-04-11T13:44:52Z</time></trkpt><trkpt lat="43.03078078997055" lon="11.626638729856676"><ele>259.8333333333333</ele><time>2026-04-11T13:44:53Z</time></trkpt><trkpt lat="43.03086192931234" lon="11.626660980537165"><ele>260.66666666666663</ele><time>2026-04-11T13:44:54Z</time></trkpt><trkpt lat="43.03094357315488" lon="11.626684931954417"><ele>261.5</ele><time>2026-04-11T13:44:55Z</time></trkpt><trkpt lat="43.031027524859695" lon="11.626710616197824"><ele>262.3333333333333</ele><time>2026-04-11T13:44:56Z</time></trkpt><trkpt lat="43.03111209291913" lon="11.626737967997029"><ele>263.1666666666667</ele><time>2026-04-11T13:44:57Z</time></trkpt><trkpt lat="43.03119930370222" lon="11.626766217955726"><ele>264.0</ele><time>2026-04-11T13:44:58Z</time></trkpt><trkpt lat="43.03137126778544" lon="11.626813346038308"><ele>264.0</ele><time>2026-04-11T13:45:00Z</time></trkpt><trkpt lat="43.0314597123847" lon="11.626844136482513"><ele>264.0</ele><time>2026-04-11T13:45:01Z</time></trkpt><trkpt lat="43.03154975328854" lon="11.626870339050884"><ele>264.0</ele><time>2026-04-11T13:45:02Z</time></trkpt><trkpt lat="43.03163959246557" lon="11.626896439835942"><ele>264.0</ele><time>2026-04-11T13:45:03Z</time></trkpt><trkpt lat="43.03172804411115" lon="11.62692187251967"><ele>264.0</ele><time>2026-04-11T13:45:04Z</time></trkpt><trkpt lat="43.0318175094281" lon="11.626945860610025"><ele>263.59999999999997</ele><time>2026-04-11T13:45:05Z</time></trkpt><trkpt lat="43.03190765119351" lon="11.626973410575673"><ele>263.2</ele><time>2026-04-11T13:45:06Z</time></trkpt><trkpt lat="43.031997859255355" lon="11.626998594412733"><ele>262.79999999999995</ele><time>2026-04-11T13:45:07Z</time></trkpt><trkpt lat="43.032088072622464" lon="11.627028460457328"><ele>262.4</ele><time>2026-04-11T13:45:08Z</time></trkpt><trkpt lat="43.03217685218858" lon="11.627055183644707"><ele>262.0</ele><time>2026-04-11T13:45:09Z</time></trkpt><trkpt lat="43.032265802552" lon="11.627083115850791"><ele>261.16666666666663</ele><time>2026-04-11T13:45:10Z</time></trkpt><trkpt lat="43.03235294453704" lon="11.62711081816714"><ele>260.3333333333333</ele><time>2026-04-11T13:45:11Z</time></trkpt><trkpt lat="43.03243750467026" lon="11.627140192563525"><ele>259.5</ele><time>2026-04-11T13:45:12Z</time></trkpt><trkpt lat="43.03252190465344" lon="11.627168740208448"><ele>258.6666666666667</ele><time>2026-04-11T13:45:13Z</time></trkpt><trkpt lat="43.032604826190735" lon="11.627194921988345"><ele>257.83333333333337</ele><time>2026-04-11T13:45:14Z</time></trkpt><trkpt lat="43.03268774332876" lon="11.627219265141704"><ele>257.0</ele><time>2026-04-11T13:45:15Z</time></trkpt><trkpt lat="43.032767124178484" lon="11.627241878291478"><ele>257.0</ele><time>2026-04-11T13:45:16Z</time></trkpt><trkpt lat="43.032845390984555" lon="11.627268768902603"><ele>257.0</ele><time>2026-04-11T13:45:17Z</time></trkpt><trkpt lat="43.032921988787585" lon="11.627300236778426"><ele>257.0</ele><time>2026-04-11T13:45:18Z</time></trkpt><trkpt lat="43.032999894521296" lon="11.627326372645637"><ele>257.0</ele><time>2026-04-11T13:45:19Z</time></trkpt><trkpt lat="43.03315347517047" lon="11.627376053766492"><ele>257.0</ele><time>2026-04-11T13:45:21Z</time></trkpt><trkpt lat="43.03322905857429" lon="11.627397348454613"><ele>257.0</ele><time>2026-04-11T13:45:22Z</time></trkpt><trkpt lat="43.03330169167223" lon="11.62742488558344"><ele>257.0</ele><time>2026-04-11T13:45:23Z</time></trkpt><trkpt lat="43.033369787832854" lon="11.627476048132658"><ele>257.0</ele><time>2026-04-11T13:45:24Z</time></trkpt><trkpt lat="43.03342464752954" lon="11.627543533865255"><ele>257.0</ele><time>2026-04-11T13:45:25Z</time></trkpt><trkpt lat="43.03346023927644" lon="11.627637957879701"><ele>257.0</ele><time>2026-04-11T13:45:26Z</time></trkpt><trkpt lat="43.03347903721611" lon="11.627741546508839"><ele>257.0</ele><time>2026-04-11T13:45:27Z</time></trkpt><trkpt lat="43.03348083946487" lon="11.62784581688519"><ele>257.1666666666667</ele><time>2026-04-11T13:45:28Z</time></trkpt><trkpt lat="43.033469258622034" lon="11.627953880866754"><ele>257.33333333333337</ele><time>2026-04-11T13:45:29Z</time></trkpt><trkpt lat="43.03345945829791" lon="11.628065432256005"><ele>257.5</ele><time>2026-04-11T13:45:30Z</time></trkpt><trkpt lat="43.03345580622672" lon="11.628177691019262"><ele>257.6666666666667</ele><time>2026-04-11T13:45:31Z</time></trkpt><trkpt lat="43.03345143196508" lon="11.628289795904072"><ele>257.8333333333333</ele><time>2026-04-11T13:45:32Z</time></trkpt><trkpt lat="43.033446194622506" lon="11.628405932723338"><ele>258.0</ele><time>2026-04-11T13:45:33Z</time></trkpt><trkpt lat="43.03344101390843" lon="11.62852095394263"><ele>258.0</ele><time>2026-04-11T13:45:34Z</time></trkpt><trkpt lat="43.03342918982161" lon="11.628633427440551"><ele>258.0</ele><time>2026-04-11T13:45:35Z</time></trkpt><trkpt lat="43.033415453445855" lon="11.628747817202715"><ele>258.0</ele><time>2026-04-11T13:45:36Z</time></trkpt><trkpt lat="43.03340171469841" lon="11.628862307833217"><ele>258.0</ele><time>2026-04-11T13:45:37Z</time></trkpt><trkpt lat="43.03338703513147" lon="11.628978798386662"><ele>258.0</ele><time>2026-04-11T13:45:38Z</time></trkpt><trkpt lat="43.03337780916844" lon="11.629096949187772"><ele>258.0</ele><time>2026-04-11T13:45:39Z</time></trkpt><trkpt lat="43.03337020608929" lon="11.629215666523118"><ele>258.0</ele><time>2026-04-11T13:45:40Z</time></trkpt><trkpt lat="43.03335395022105" lon="11.629455106517225"><ele>258.0</ele><time>2026-04-11T13:45:42Z</time></trkpt><trkpt lat="43.03334761367176" lon="11.629575677902737"><ele>258.0</ele><time>2026-04-11T13:45:43Z</time></trkpt><trkpt lat="43.03334291814791" lon="11.629695778237977"><ele>258.0</ele><time>2026-04-11T13:45:44Z</time></trkpt><trkpt lat="43.03333882116258" lon="11.629814721833608"><ele>258.0</ele><time>2026-04-11T13:45:45Z</time></trkpt><trkpt lat="43.03333641371231" lon="11.629935771371743"><ele>258.0</ele><time>2026-04-11T13:45:46Z</time></trkpt><trkpt lat="43.033335903833404" lon="11.630055252332879"><ele>258.0</ele><time>2026-04-11T13:45:47Z</time></trkpt><trkpt lat="43.03333416972642" lon="11.63017534812253"><ele>258.0</ele><time>2026-04-11T13:45:48Z</time></trkpt><trkpt lat="43.03333918529635" lon="11.630294478632278"><ele>258.0</ele><time>2026-04-11T13:45:49Z</time></trkpt><trkpt lat="43.033349049933136" lon="11.630411124372587"><ele>258.0</ele><time>2026-04-11T13:45:50Z</time></trkpt><trkpt lat="43.033358612850755" lon="11.630528524782772"><ele>258.0</ele><time>2026-04-11T13:45:51Z</time></trkpt><trkpt lat="43.0333635016934" lon="11.630647486043781"><ele>258.1666666666667</ele><time>2026-04-11T13:45:52Z</time></trkpt><trkpt lat="43.03337282160561" lon="11.630766622065163"><ele>258.3333333333333</ele><time>2026-04-11T13:45:53Z</time></trkpt><trkpt lat="43.033388236973735" lon="11.630883486306502"><ele>258.5</ele><time>2026-04-11T13:45:54Z</time></trkpt><trkpt lat="43.0334019407386" lon="11.630998799947722"><ele>258.66666666666663</ele><time>2026-04-11T13:45:55Z</time></trkpt><trkpt lat="43.03341028494235" lon="11.63111465350189"><ele>258.8333333333333</ele><time>2026-04-11T13:45:56Z</time></trkpt><trkpt lat="43.033415900086105" lon="11.631229544150123"><ele>259.0</ele><time>2026-04-11T13:45:57Z</time></trkpt><trkpt lat="43.033426668741406" lon="11.63134553436102"><ele>259.2</ele><time>2026-04-11T13:45:58Z</time></trkpt><trkpt lat="43.03343706632357" lon="11.631459912435524"><ele>259.4</ele><time>2026-04-11T13:45:59Z</time></trkpt><trkpt lat="43.033447945770796" lon="11.631575043535305"><ele>259.6</ele><time>2026-04-11T13:46:00Z</time></trkpt><trkpt lat="43.03345874575537" lon="11.631689111700451"><ele>259.8</ele><time>2026-04-11T13:46:01Z</time></trkpt><trkpt lat="43.033478066715595" lon="11.631917033637171"><ele>260.0</ele><time>2026-04-11T13:46:03Z</time></trkpt><trkpt lat="43.03348931578226" lon="11.632031103497475"><ele>259.5</ele><time>2026-04-11T13:46:04Z</time></trkpt><trkpt lat="43.033503131621494" lon="11.632143169009062"><ele>259.0</ele><time>2026-04-11T13:46:05Z</time></trkpt><trkpt lat="43.033518673597975" lon="11.632253865717484"><ele>258.5</ele><time>2026-04-11T13:46:06Z</time></trkpt><trkpt lat="43.03352765944068" lon="11.63236740067155"><ele>258.0</ele><time>2026-04-11T13:46:07Z</time></trkpt><trkpt lat="43.03353700490469" lon="11.632478328733352"><ele>257.5</ele><time>2026-04-11T13:46:08Z</time></trkpt><trkpt lat="43.033550245132176" lon="11.632587954349544"><ele>257.0</ele><time>2026-04-11T13:46:09Z</time></trkpt><trkpt lat="43.03355885841879" lon="11.63269993301941"><ele>256.83333333333337</ele><time>2026-04-11T13:46:10Z</time></trkpt><trkpt lat="43.03356784400835" lon="11.632811581547957"><ele>256.6666666666667</ele><time>2026-04-11T13:46:11Z</time></trkpt><trkpt lat="43.03357341299661" lon="11.632921910131303"><ele>256.5</ele><time>2026-04-11T13:46:12Z</time></trkpt><trkpt lat="43.03358381635373" lon="11.633031619729223"><ele>256.3333333333333</ele><time>2026-04-11T13:46:13Z</time></trkpt><trkpt lat="43.03359487721675" lon="11.633140491489955"><ele>256.16666666666663</ele><time>2026-04-11T13:46:14Z</time></trkpt><trkpt lat="43.03360412643795" lon="11.633250254615868"><ele>256.0</ele><time>2026-04-11T13:46:15Z</time></trkpt><trkpt lat="43.03361154966945" lon="11.633359998942641"><ele>255.99999999999997</ele><time>2026-04-11T13:46:16Z</time></trkpt><trkpt lat="43.03361412481726" lon="11.63347087674881"><ele>256.0</ele><time>2026-04-11T13:46:17Z</time></trkpt><trkpt lat="43.03361542393513" lon="11.633580617266512"><ele>256.0</ele><time>2026-04-11T13:46:18Z</time></trkpt><trkpt lat="43.03361514180989" lon="11.63368869338775"><ele>256.0</ele><time>2026-04-11T13:46:19Z</time></trkpt><trkpt lat="43.033610999342784" lon="11.63379551375405"><ele>255.99999999999997</ele><time>2026-04-11T13:46:20Z</time></trkpt><trkpt lat="43.03360484514664" lon="11.633900567517294"><ele>256.0</ele><time>2026-04-11T13:46:21Z</time></trkpt><trkpt lat="43.03359615253353" lon="11.63400624990866"><ele>255.99999999999997</ele><time>2026-04-11T13:46:22Z</time></trkpt><trkpt lat="43.03357990634785" lon="11.634212400678965"><ele>256.0</ele><time>2026-04-11T13:46:24Z</time></trkpt><trkpt lat="43.03357053649469" lon="11.634314609411835"><ele>256.0</ele><time>2026-04-11T13:46:25Z</time></trkpt><trkpt lat="43.033561145465875" lon="11.63441523008074"><ele>256.0</ele><time>2026-04-11T13:46:26Z</time></trkpt><trkpt lat="43.033552062918055" lon="11.634514186873927"><ele>255.99999999999997</ele><time>2026-04-11T13:46:27Z</time></trkpt><trkpt lat="43.03354123938049" lon="11.63461208139498"><ele>256.0</ele><time>2026-04-11T13:46:28Z</time></trkpt><trkpt lat="43.033532773034096" lon="11.634708969022798"><ele>256.2857142857143</ele><time>2026-04-11T13:46:29Z</time></trkpt><trkpt lat="43.03352258901886" lon="11.634804578599859"><ele>256.57142857142856</ele><time>2026-04-11T13:46:30Z</time></trkpt><trkpt lat="43.03351595406358" lon="11.634900721732379"><ele>256.85714285714283</ele><time>2026-04-11T13:46:31Z</time></trkpt><trkpt lat="43.03350829010947" lon="11.634996261641637"><ele>257.1428571428571</ele><time>2026-04-11T13:46:32Z</time></trkpt><trkpt lat="43.0334987905619" lon="11.635088521237199"><ele>257.42857142857144</ele><time>2026-04-11T13:46:33Z</time></trkpt><trkpt lat="43.03348933648717" lon="11.635181296794926"><ele>257.71428571428567</ele><time>2026-04-11T13:46:34Z</time></trkpt><trkpt lat="43.03348092950818" lon="11.63527326334648"><ele>258.0</ele><time>2026-04-11T13:46:35Z</time></trkpt><trkpt lat="43.03347215766859" lon="11.635361579513134"><ele>258.3333333333333</ele><time>2026-04-11T13:46:36Z</time></trkpt><trkpt lat="43.03346502690449" lon="11.63545133425002"><ele>258.6666666666667</ele><time>2026-04-11T13:46:37Z</time></trkpt><trkpt lat="43.03345738151421" lon="11.6355399372241"><ele>259.0</ele><time>2026-04-11T13:46:38Z</time></trkpt><trkpt lat="43.03345067037873" lon="11.6356267000458"><ele>259.33333333333337</ele><time>2026-04-11T13:46:39Z</time></trkpt><trkpt lat="43.03345094873355" lon="11.63571502699866"><ele>259.6666666666667</ele><time>2026-04-11T13:46:40Z</time></trkpt><trkpt lat="43.03345474551252" lon="11.635887772444187"><ele>260.0</ele><time>2026-04-11T13:46:42Z</time></trkpt><trkpt lat="43.03346221646166" lon="11.636053279156856"><ele>260.0</ele><time>2026-04-11T13:46:44Z</time></trkpt><trkpt lat="43.03347413154876" lon="11.636380772520882"><ele>260.0</ele><time>2026-04-11T13:46:48Z</time></trkpt><trkpt lat="43.033484536887904" lon="11.636539671282025"><ele>260.0</ele><time>2026-04-11T13:46:50Z</time></trkpt><trkpt lat="43.03348966185775" lon="11.636698895771879"><ele>260.0</ele><time>2026-04-11T13:46:52Z</time></trkpt><trkpt lat="43.03349960479062" lon="11.636860317203316"><ele>260.0</ele><time>2026-04-11T13:46:54Z</time></trkpt><trkpt lat="43.03351266289396" lon="11.63702362984675"><ele>260.0</ele><time>2026-04-11T13:46:56Z</time></trkpt><trkpt lat="43.03352486606763" lon="11.637187753007128"><ele>260.0</ele><time>2026-04-11T13:46:58Z</time></trkpt><trkpt lat="43.03353188580901" lon="11.637352412961786"><ele>260.25</ele><time>2026-04-11T13:47:00Z</time></trkpt><trkpt lat="43.03353808243517" lon="11.637518655830972"><ele>260.5</ele><time>2026-04-11T13:47:02Z</time></trkpt><trkpt lat="43.03355109494043" lon="11.63768616762713"><ele>260.75</ele><time>2026-04-11T13:47:04Z</time></trkpt><trkpt lat="43.0335631648211" lon="11.637851612106319"><ele>261.0</ele><time>2026-04-11T13:47:06Z</time></trkpt><trkpt lat="43.033582532300215" lon="11.638180797084084"><ele>261.0</ele><time>2026-04-11T13:47:10Z</time></trkpt><trkpt lat="43.03360302635663" lon="11.638347192182144"><ele>261.0</ele><time>2026-04-11T13:47:12Z</time></trkpt><trkpt lat="43.033623523295006" lon="11.6385100622962"><ele>261.0</ele><time>2026-04-11T13:47:14Z</time></trkpt><trkpt lat="43.033635921151316" lon="11.63859573028599"><ele>261.0</ele><time>2026-04-11T13:47:15Z</time></trkpt><trkpt lat="43.033665579923124" lon="11.638766482098191"><ele>261.0</ele><time>2026-04-11T13:47:17Z</time></trkpt><trkpt lat="43.03368251783926" lon="11.638850386296301"><ele>260.8571428571429</ele><time>2026-04-11T13:47:18Z</time></trkpt><trkpt lat="43.03369952073957" lon="11.638935413866596"><ele>260.7142857142857</ele><time>2026-04-11T13:47:19Z</time></trkpt><trkpt lat="43.033716519892906" lon="11.639022836337416"><ele>260.57142857142856</ele><time>2026-04-11T13:47:20Z</time></trkpt><trkpt lat="43.033731984146236" lon="11.639111272903158"><ele>260.42857142857144</ele><time>2026-04-11T13:47:21Z</time></trkpt><trkpt lat="43.03375032296726" lon="11.639196851223694"><ele>260.2857142857143</ele><time>2026-04-11T13:47:22Z</time></trkpt><trkpt lat="43.03377137710645" lon="11.639285047975706"><ele>260.14285714285717</ele><time>2026-04-11T13:47:23Z</time></trkpt><trkpt lat="43.03378998877308" lon="11.639373377946669"><ele>260.0</ele><time>2026-04-11T13:47:24Z</time></trkpt><trkpt lat="43.033804767928295" lon="11.639462825659955"><ele>260.0</ele><time>2026-04-11T13:47:25Z</time></trkpt><trkpt lat="43.03382046595426" lon="11.639554589590787"><ele>260.0</ele><time>2026-04-11T13:47:26Z</time></trkpt><trkpt lat="43.033834687411115" lon="11.639647501399416"><ele>260.0</ele><time>2026-04-11T13:47:27Z</time></trkpt><trkpt lat="43.033868354929275" lon="11.639829534870382"><ele>260.0</ele><time>2026-04-11T13:47:29Z</time></trkpt><trkpt lat="43.03388650556541" lon="11.639921407281228"><ele>260.0</ele><time>2026-04-11T13:47:30Z</time></trkpt><trkpt lat="43.03390302433542" lon="11.640014387876539"><ele>260.0</ele><time>2026-04-11T13:47:31Z</time></trkpt><trkpt lat="43.03392220571641" lon="11.640105990915252"><ele>260.00000000000006</ele><time>2026-04-11T13:47:32Z</time></trkpt><trkpt lat="43.0339385035238" lon="11.640198630873442"><ele>260.0</ele><time>2026-04-11T13:47:33Z</time></trkpt><trkpt lat="43.03395457127796" lon="11.640291128711098"><ele>260.0</ele><time>2026-04-11T13:47:34Z</time></trkpt><trkpt lat="43.03397336299786" lon="11.640383685006942"><ele>260.0</ele><time>2026-04-11T13:47:35Z</time></trkpt><trkpt lat="43.03398797189934" lon="11.6404782227713"><ele>260.0</ele><time>2026-04-11T13:47:36Z</time></trkpt><trkpt lat="43.03400605335566" lon="11.640573267906225"><ele>260.00000000000006</ele><time>2026-04-11T13:47:37Z</time></trkpt><trkpt lat="43.03402376384281" lon="11.64066673129795"><ele>260.0</ele><time>2026-04-11T13:47:38Z</time></trkpt><trkpt lat="43.03404403391681" lon="11.64075895304309"><ele>260.00000000000006</ele><time>2026-04-11T13:47:39Z</time></trkpt><trkpt lat="43.03405929574644" lon="11.640851131979893"><ele>260.0</ele><time>2026-04-11T13:47:40Z</time></trkpt><trkpt lat="43.034072940252095" lon="11.640942035392703"><ele>260.0</ele><time>2026-04-11T13:47:41Z</time></trkpt><trkpt lat="43.0340916551179" lon="11.641033574095777"><ele>260.0</ele><time>2026-04-11T13:47:42Z</time></trkpt><trkpt lat="43.034110687858096" lon="11.641125226084734"><ele>260.0</ele><time>2026-04-11T13:47:43Z</time></trkpt><trkpt lat="43.03412551863245" lon="11.641219482866981"><ele>260.00000000000006</ele><time>2026-04-11T13:47:44Z</time></trkpt><trkpt lat="43.034142178268446" lon="11.641311277620165"><ele>260.0</ele><time>2026-04-11T13:47:45Z</time></trkpt><trkpt lat="43.03415922857246" lon="11.641402045989283"><ele>260.33333333333337</ele><time>2026-04-11T13:47:46Z</time></trkpt><trkpt lat="43.03417726929127" lon="11.641491581233016"><ele>260.6666666666667</ele><time>2026-04-11T13:47:47Z</time></trkpt><trkpt lat="43.034196078003355" lon="11.64158099125117"><ele>261.0</ele><time>2026-04-11T13:47:48Z</time></trkpt><trkpt lat="43.03423440905844" lon="11.64176236333362"><ele>261.3333333333333</ele><time>2026-04-11T13:47:50Z</time></trkpt><trkpt lat="43.034252457422795" lon="11.641852063690562"><ele>261.66666666666663</ele><time>2026-04-11T13:47:51Z</time></trkpt><trkpt lat="43.034272436215495" lon="11.64194237232987"><ele>262.0</ele><time>2026-04-11T13:47:52Z</time></trkpt><trkpt lat="43.03428304718864" lon="11.642034993689327"><ele>262.16666666666663</ele><time>2026-04-11T13:47:53Z</time></trkpt><trkpt lat="43.034296983822045" lon="11.642127883415933"><ele>262.3333333333333</ele><time>2026-04-11T13:47:54Z</time></trkpt><trkpt lat="43.0343127140188" lon="11.642221731052963"><ele>262.5</ele><time>2026-04-11T13:47:55Z</time></trkpt><trkpt lat="43.0343298450982" lon="11.642313536754948"><ele>262.6666666666667</ele><time>2026-04-11T13:47:56Z</time></trkpt><trkpt lat="43.034348257823446" lon="11.642406151019877"><ele>262.83333333333337</ele><time>2026-04-11T13:47:57Z</time></trkpt><trkpt lat="43.03436571413382" lon="11.642496630768091"><ele>263.0</ele><time>2026-04-11T13:47:58Z</time></trkpt><trkpt lat="43.03440048673907" lon="11.642675225900343"><ele>263.0</ele><time>2026-04-11T13:48:00Z</time></trkpt><trkpt lat="43.0344211250239" lon="11.642768571325554"><ele>263.0</ele><time>2026-04-11T13:48:01Z</time></trkpt><trkpt lat="43.03444033132537" lon="11.642861291576368"><ele>263.0</ele><time>2026-04-11T13:48:02Z</time></trkpt><trkpt lat="43.03445919890172" lon="11.642954106357331"><ele>263.0</ele><time>2026-04-11T13:48:03Z</time></trkpt><trkpt lat="43.034478093014656" lon="11.643045945134597"><ele>263.0</ele><time>2026-04-11T13:48:04Z</time></trkpt><trkpt lat="43.034497386374646" lon="11.643133270102076"><ele>263.0</ele><time>2026-04-11T13:48:05Z</time></trkpt><trkpt lat="43.03451441002096" lon="11.643224956347005"><ele>263.0</ele><time>2026-04-11T13:48:06Z</time></trkpt><trkpt lat="43.034531826641086" lon="11.643317608046507"><ele>262.83333333333337</ele><time>2026-04-11T13:48:07Z</time></trkpt><trkpt lat="43.034544933932985" lon="11.64341221119242"><ele>262.6666666666667</ele><time>2026-04-11T13:48:08Z</time></trkpt><trkpt lat="43.034559785777674" lon="11.64350287656734"><ele>262.5</ele><time>2026-04-11T13:48:09Z</time></trkpt><trkpt lat="43.03459972431467" lon="11.643683403454233"><ele>262.3333333333333</ele><time>2026-04-11T13:48:11Z</time></trkpt><trkpt lat="43.034620212632525" lon="11.643771605349057"><ele>262.16666666666663</ele><time>2026-04-11T13:48:12Z</time></trkpt><trkpt lat="43.03463507183552" lon="11.643861802411529"><ele>262.0</ele><time>2026-04-11T13:48:13Z</time></trkpt><trkpt lat="43.03465028978141" lon="11.643955283788182"><ele>262.0</ele><time>2026-04-11T13:48:14Z</time></trkpt><trkpt lat="43.03466845200967" lon="11.644046506985504"><ele>262.0</ele><time>2026-04-11T13:48:15Z</time></trkpt><trkpt lat="43.03468714312613" lon="11.64413712228895"><ele>262.0</ele><time>2026-04-11T13:48:16Z</time></trkpt><trkpt lat="43.034707837808206" lon="11.644227437483162"><ele>262.0</ele><time>2026-04-11T13:48:17Z</time></trkpt><trkpt lat="43.034725993604674" lon="11.644317830351095"><ele>262.0</ele><time>2026-04-11T13:48:18Z</time></trkpt><trkpt lat="43.03474630379096" lon="11.644407885796305"><ele>262.0</ele><time>2026-04-11T13:48:19Z</time></trkpt><trkpt lat="43.03476536998792" lon="11.644499911306832"><ele>262.0</ele><time>2026-04-11T13:48:20Z</time></trkpt><trkpt lat="43.03478105272405" lon="11.644591939485691"><ele>262.0</ele><time>2026-04-11T13:48:21Z</time></trkpt><trkpt lat="43.03479463709021" lon="11.644683033127325"><ele>262.0</ele><time>2026-04-11T13:48:22Z</time></trkpt><trkpt lat="43.03481139634773" lon="11.644770122800555"><ele>262.0</ele><time>2026-04-11T13:48:23Z</time></trkpt><trkpt lat="43.0348319033371" lon="11.644853422190682"><ele>262.0</ele><time>2026-04-11T13:48:24Z</time></trkpt><trkpt lat="43.03486525958692" lon="11.645012840197277"><ele>262.0</ele><time>2026-04-11T13:48:26Z</time></trkpt><trkpt lat="43.03492346563971" lon="11.645145601017651"><ele>262.0</ele><time>2026-04-11T13:48:28Z</time></trkpt><trkpt lat="43.0349949427269" lon="11.645249806349506"><ele>262.6</ele><time>2026-04-11T13:48:30Z</time></trkpt><trkpt lat="43.035111277000624" lon="11.645360310000077"><ele>263.2</ele><time>2026-04-11T13:48:34Z</time></trkpt><trkpt lat="43.035180676304236" lon="11.645444273545236"><ele>263.8</ele><time>2026-04-11T13:48:36Z</time></trkpt><trkpt lat="43.03524609119526" lon="11.645524557025091"><ele>264.4</ele><time>2026-04-11T13:48:38Z</time></trkpt><trkpt lat="43.03530412192829" lon="11.645563871163786"><ele>265.0</ele><time>2026-04-11T13:48:41Z</time></trkpt><trkpt lat="43.035355219752404" lon="11.645653520578726"><ele>265.0</ele><time>2026-04-11T13:51:10Z</time></trkpt><trkpt lat="43.03546727514436" lon="11.645809778954353"><ele>265.0</ele><time>2026-04-11T13:51:15Z</time></trkpt><trkpt lat="43.03553634405023" lon="11.64589289026963"><ele>265.0</ele><time>2026-04-11T13:51:17Z</time></trkpt><trkpt lat="43.035615976660104" lon="11.645993630877332"><ele>265.0</ele><time>2026-04-11T13:51:19Z</time></trkpt><trkpt lat="43.03569614319579" lon="11.646088816876707"><ele>265.0</ele><time>2026-04-11T13:51:21Z</time></trkpt><trkpt lat="43.035783950882205" lon="11.646188447801418"><ele>265.0</ele><time>2026-04-11T13:51:23Z</time></trkpt><trkpt lat="43.03587609211718" lon="11.646286633604632"><ele>265.0</ele><time>2026-04-11T13:51:25Z</time></trkpt><trkpt lat="43.03597199309835" lon="11.646373177391387"><ele>265.0</ele><time>2026-04-11T13:51:27Z</time></trkpt><trkpt lat="43.036084869675896" lon="11.646449864251933"><ele>265.0</ele><time>2026-04-11T13:51:29Z</time></trkpt><trkpt lat="43.03619291521455" lon="11.646518918870632"><ele>265.0</ele><time>2026-04-11T13:51:31Z</time></trkpt><trkpt lat="43.036371420971925" lon="11.64662002984376"><ele>265.0</ele><time>2026-04-11T13:51:34Z</time></trkpt><trkpt lat="43.03647647165368" lon="11.646678177430516"><ele>265.0</ele><time>2026-04-11T13:51:36Z</time></trkpt><trkpt lat="43.03658889458506" lon="11.646732405719552"><ele>265.0</ele><time>2026-04-11T13:51:38Z</time></trkpt><trkpt lat="43.036699569741785" lon="11.646778423295194"><ele>265.0</ele><time>2026-04-11T13:51:40Z</time></trkpt><trkpt lat="43.03681129484921" lon="11.64682414583214"><ele>265.0</ele><time>2026-04-11T13:51:42Z</time></trkpt><trkpt lat="43.036923052764976" lon="11.646871492119264"><ele>265.0</ele><time>2026-04-11T13:51:44Z</time></trkpt><trkpt lat="43.03703545369892" lon="11.646927832813558"><ele>265.25</ele><time>2026-04-11T13:51:46Z</time></trkpt><trkpt lat="43.037143342868056" lon="11.646990329040616"><ele>265.5</ele><time>2026-04-11T13:51:48Z</time></trkpt><trkpt lat="43.037252417451434" lon="11.647063649277422"><ele>265.75</ele><time>2026-04-11T13:51:50Z</time></trkpt><trkpt lat="43.03735290509757" lon="11.647138845623212"><ele>266.0</ele><time>2026-04-11T13:51:52Z</time></trkpt><trkpt lat="43.03755137615199" lon="11.647308847178856"><ele>266.0</ele><time>2026-04-11T13:51:56Z</time></trkpt><trkpt lat="43.03765101032235" lon="11.647387893031537"><ele>266.0</ele><time>2026-04-11T13:51:58Z</time></trkpt><trkpt lat="43.03774978955812" lon="11.64747228357434"><ele>266.0</ele><time>2026-04-11T13:52:00Z</time></trkpt><trkpt lat="43.037850682171175" lon="11.647545696288903"><ele>266.0</ele><time>2026-04-11T13:52:02Z</time></trkpt><trkpt lat="43.03795202627195" lon="11.64762406533666"><ele>266.0</ele><time>2026-04-11T13:52:04Z</time></trkpt><trkpt lat="43.038052611825435" lon="11.647717223220573"><ele>266.0</ele><time>2026-04-11T13:52:06Z</time></trkpt><trkpt lat="43.03815710388284" lon="11.64780146218139"><ele>266.0</ele><time>2026-04-11T13:52:08Z</time></trkpt><trkpt lat="43.038261955222076" lon="11.647883968407587"><ele>266.0</ele><time>2026-04-11T13:52:10Z</time></trkpt><trkpt lat="43.0383598433869" lon="11.647960557465357"><ele>266.75</ele><time>2026-04-11T13:52:12Z</time></trkpt><trkpt lat="43.03844992125745" lon="11.648032031218179"><ele>267.5</ele><time>2026-04-11T13:52:14Z</time></trkpt><trkpt lat="43.03862333463773" lon="11.648151192400537"><ele>268.25</ele><time>2026-04-11T13:52:18Z</time></trkpt><trkpt lat="43.03871054596957" lon="11.648213078111999"><ele>269.0</ele><time>2026-04-11T13:52:20Z</time></trkpt><trkpt lat="43.03880443991309" lon="11.648251233786635"><ele>269.0</ele><time>2026-04-11T13:52:22.001Z</time></trkpt><trkpt lat="43.038899091925494" lon="11.64827455650693"><ele>269.0</ele><time>2026-04-11T13:52:24.001Z</time></trkpt><trkpt lat="43.038997603153916" lon="11.64828847785819"><ele>269.0</ele><time>2026-04-11T13:52:26.001Z</time></trkpt><trkpt lat="43.03909657679772" lon="11.648320695012654"><ele>269.0</ele><time>2026-04-11T13:52:28.001Z</time></trkpt><trkpt lat="43.03919669860863" lon="11.648352043474995"><ele>269.0</ele><time>2026-04-11T13:52:30.001Z</time></trkpt><trkpt lat="43.039294795031786" lon="11.648371173546519"><ele>269.0</ele><time>2026-04-11T13:52:32.001Z</time></trkpt><trkpt lat="43.03939714159299" lon="11.648401541741999"><ele>269.0</ele><time>2026-04-11T13:52:34.001Z</time></trkpt><trkpt lat="43.039493124078405" lon="11.648419540520932"><ele>269.0</ele><time>2026-04-11T13:52:36.001Z</time></trkpt><trkpt lat="43.039681018767105" lon="11.64841094720828"><ele>269.0</ele><time>2026-04-11T13:52:40Z</time></trkpt><trkpt lat="43.0397722310953" lon="11.648399257787405"><ele>269.0</ele><time>2026-04-11T13:52:42Z</time></trkpt><trkpt lat="43.039859647310884" lon="11.648374970736384"><ele>269.0</ele><time>2026-04-11T13:52:44Z</time></trkpt><trkpt lat="43.03994662482691" lon="11.648353260488705"><ele>269.0</ele><time>2026-04-11T13:52:46Z</time></trkpt><trkpt lat="43.04003523179788" lon="11.648336319370994"><ele>269.0</ele><time>2026-04-11T13:52:48Z</time></trkpt><trkpt lat="43.0401250336972" lon="11.64830739630225"><ele>269.0</ele><time>2026-04-11T13:52:50Z</time></trkpt><trkpt lat="43.040215623129434" lon="11.648280725723668"><ele>269.75</ele><time>2026-04-11T13:52:52Z</time></trkpt><trkpt lat="43.04030712689775" lon="11.648249456727841"><ele>270.5</ele><time>2026-04-11T13:52:54Z</time></trkpt><trkpt lat="43.04040180353697" lon="11.648221927120566"><ele>271.25</ele><time>2026-04-11T13:52:56Z</time></trkpt><trkpt lat="43.04049107593876" lon="11.64820344084785"><ele>272.0</ele><time>2026-04-11T13:52:58Z</time></trkpt><trkpt lat="43.040674550453836" lon="11.648145192590675"><ele>272.0</ele><time>2026-04-11T13:53:02Z</time></trkpt><trkpt lat="43.04076962020219" lon="11.648128037534027"><ele>272.0</ele><time>2026-04-11T13:53:04Z</time></trkpt><trkpt lat="43.0408605154224" lon="11.648104320654824"><ele>272.0</ele><time>2026-04-11T13:53:06Z</time></trkpt><trkpt lat="43.04095092095561" lon="11.648069807910023"><ele>272.0</ele><time>2026-04-11T13:53:08Z</time></trkpt><trkpt lat="43.041039481813286" lon="11.648042242555498"><ele>272.0</ele><time>2026-04-11T13:53:10Z</time></trkpt><trkpt lat="43.04112808216977" lon="11.64801923783322"><ele>272.8</ele><time>2026-04-11T13:53:12Z</time></trkpt><trkpt lat="43.04121610041383" lon="11.647999615330002"><ele>273.6</ele><time>2026-04-11T13:53:14Z</time></trkpt><trkpt lat="43.041296864389835" lon="11.647980404051784"><ele>274.40000000000003</ele><time>2026-04-11T13:53:16Z</time></trkpt><trkpt lat="43.04137475875411" lon="11.647963327467668"><ele>275.2</ele><time>2026-04-11T13:53:18Z</time></trkpt><trkpt lat="43.04145585403893" lon="11.647957887483537"><ele>276.0</ele><time>2026-04-11T13:53:20Z</time></trkpt><trkpt lat="43.041616926194834" lon="11.648003340899503"><ele>276.6666666666667</ele><time>2026-04-11T13:53:24Z</time></trkpt><trkpt lat="43.041696285911925" lon="11.648043405755395"><ele>277.3333333333333</ele><time>2026-04-11T13:53:26Z</time></trkpt><trkpt lat="43.0417652986135" lon="11.648089334065975"><ele>278.0</ele><time>2026-04-11T13:53:28Z</time></trkpt><trkpt lat="43.04183911953709" lon="11.648141082630804"><ele>278.66666666666663</ele><time>2026-04-11T13:53:30Z</time></trkpt><trkpt lat="43.04191362316873" lon="11.648180927682818"><ele>279.3333333333333</ele><time>2026-04-11T13:53:32Z</time></trkpt><trkpt lat="43.04199331811215" lon="11.64821970896013"><ele>280.0</ele><time>2026-04-11T13:53:34Z</time></trkpt><trkpt lat="43.04207073476192" lon="11.648256537399092"><ele>280.0</ele><time>2026-04-11T13:53:36Z</time></trkpt><trkpt lat="43.04214166122656" lon="11.648309215149876"><ele>280.0</ele><time>2026-04-11T13:53:38Z</time></trkpt><trkpt lat="43.042217125544504" lon="11.648351253401172"><ele>280.0</ele><time>2026-04-11T13:53:40Z</time></trkpt><trkpt lat="43.04228907491918" lon="11.648387930461173"><ele>280.0</ele><time>2026-04-11T13:53:42Z</time></trkpt><trkpt lat="43.04244399626494" lon="11.648469436219688"><ele>280.0</ele><time>2026-04-11T13:53:46Z</time></trkpt><trkpt lat="43.04252836956849" lon="11.648518764370433"><ele>280.3333333333333</ele><time>2026-04-11T13:53:48Z</time></trkpt><trkpt lat="43.042602512203935" lon="11.648556342939429"><ele>280.66666666666663</ele><time>2026-04-11T13:53:50Z</time></trkpt><trkpt lat="43.04267859423576" lon="11.648598492551873"><ele>281.0</ele><time>2026-04-11T13:53:52Z</time></trkpt><trkpt lat="43.04275632518822" lon="11.648640941689328"><ele>281.3333333333333</ele><time>2026-04-11T13:53:54Z</time></trkpt><trkpt lat="43.042839664984015" lon="11.648703113110358"><ele>281.6666666666667</ele><time>2026-04-11T13:53:56Z</time></trkpt><trkpt lat="43.04291344294737" lon="11.648754338079756"><ele>282.0</ele><time>2026-04-11T13:53:58Z</time></trkpt><trkpt lat="43.042988963327176" lon="11.648810461022242"><ele>282.6</ele><time>2026-04-11T13:54:00Z</time></trkpt><trkpt lat="43.04305841501882" lon="11.648881357642441"><ele>283.2</ele><time>2026-04-11T13:54:02Z</time></trkpt><trkpt lat="43.043112256730545" lon="11.648968494978291"><ele>283.8</ele><time>2026-04-11T13:54:04Z</time></trkpt><trkpt lat="43.043213554702724" lon="11.649146237979668"><ele>284.4</ele><time>2026-04-11T13:54:08Z</time></trkpt><trkpt lat="43.0432575692632" lon="11.649235611840519"><ele>285.0</ele><time>2026-04-11T13:54:10Z</time></trkpt><trkpt lat="43.04329936966084" lon="11.649325501235461"><ele>285.0</ele><time>2026-04-11T13:54:12Z</time></trkpt><trkpt lat="43.04333611903856" lon="11.649421835599346"><ele>285.0</ele><time>2026-04-11T13:54:14Z</time></trkpt><trkpt lat="43.04337465575509" lon="11.649519545657673"><ele>285.0</ele><time>2026-04-11T13:54:16Z</time></trkpt><trkpt lat="43.04341908549232" lon="11.649611733678304"><ele>285.0</ele><time>2026-04-11T13:54:18Z</time></trkpt><trkpt lat="43.0434574104573" lon="11.649704324438046"><ele>285.0</ele><time>2026-04-11T13:54:20Z</time></trkpt><trkpt lat="43.0435005909353" lon="11.649797018893208"><ele>285.0</ele><time>2026-04-11T13:54:22Z</time></trkpt><trkpt lat="43.04354357004244" lon="11.649891778108167"><ele>285.6</ele><time>2026-04-11T13:54:24Z</time></trkpt><trkpt lat="43.043587354420914" lon="11.649987394919652"><ele>286.2</ele><time>2026-04-11T13:54:26Z</time></trkpt><trkpt lat="43.043684218612334" lon="11.650173901752861"><ele>286.8</ele><time>2026-04-11T13:54:30Z</time></trkpt><trkpt lat="43.043729348730274" lon="11.650272465957745"><ele>287.4</ele><time>2026-04-11T13:54:32Z</time></trkpt><trkpt lat="43.04377585035993" lon="11.650363251276412"><ele>288.0</ele><time>2026-04-11T13:54:34Z</time></trkpt><trkpt lat="43.04381959484842" lon="11.650463136131318"><ele>288.5714285714286</ele><time>2026-04-11T13:54:36Z</time></trkpt><trkpt lat="43.04386389498075" lon="11.650553865721633"><ele>289.14285714285717</ele><time>2026-04-11T13:54:38Z</time></trkpt><trkpt lat="43.04390503978512" lon="11.650644202769323"><ele>289.7142857142857</ele><time>2026-04-11T13:54:40Z</time></trkpt><trkpt lat="43.043946418958946" lon="11.65073026698356"><ele>290.28571428571433</ele><time>2026-04-11T13:54:42Z</time></trkpt><trkpt lat="43.04398427518737" lon="11.650816845608828"><ele>290.8571428571429</ele><time>2026-04-11T13:54:44Z</time></trkpt><trkpt lat="43.04402121714829" lon="11.650900083159973"><ele>291.42857142857144</ele><time>2026-04-11T13:54:46Z</time></trkpt><trkpt lat="43.04405725576005" lon="11.650983193449024"><ele>292.0</ele><time>2026-04-11T13:54:48Z</time></trkpt><trkpt lat="43.04413261216692" lon="11.65115207672117"><ele>292.1428571428571</ele><time>2026-04-11T13:54:52Z</time></trkpt><trkpt lat="43.04417057538231" lon="11.651239590416742"><ele>292.2857142857143</ele><time>2026-04-11T13:54:54Z</time></trkpt><trkpt lat="43.044207663411775" lon="11.651326826751372"><ele>292.42857142857144</ele><time>2026-04-11T13:54:56Z</time></trkpt><trkpt lat="43.04424463658403" lon="11.651411159653074"><ele>292.57142857142856</ele><time>2026-04-11T13:54:58Z</time></trkpt><trkpt lat="43.04428248772511" lon="11.651489124497694"><ele>292.7142857142857</ele><time>2026-04-11T13:55:00Z</time></trkpt><trkpt lat="43.04432246124901" lon="11.6515594501761"><ele>292.85714285714283</ele><time>2026-04-11T13:55:02Z</time></trkpt><trkpt lat="43.04437950790101" lon="11.651631358758854"><ele>293.0</ele><time>2026-04-11T13:55:04Z</time></trkpt><trkpt lat="43.044441666330414" lon="11.651693087859535"><ele>293.0</ele><time>2026-04-11T13:55:06Z</time></trkpt><trkpt lat="43.044502501167266" lon="11.651748462998976"><ele>293.0</ele><time>2026-04-11T13:55:08Z</time></trkpt><trkpt lat="43.04456559885794" lon="11.651786400023736"><ele>293.0</ele><time>2026-04-11T13:55:10Z</time></trkpt><trkpt lat="43.04472313181384" lon="11.651893627971965"><ele>293.0</ele><time>2026-04-11T13:55:14Z</time></trkpt><trkpt lat="43.044816909749564" lon="11.651957944164861"><ele>293.0</ele><time>2026-04-11T13:55:16Z</time></trkpt><trkpt lat="43.044909838718446" lon="11.65205479840188"><ele>293.33333333333337</ele><time>2026-04-11T13:55:18Z</time></trkpt><trkpt lat="43.04496053066544" lon="11.65211315277138"><ele>293.6666666666667</ele><time>2026-04-11T13:55:19Z</time></trkpt><trkpt lat="43.04501211486764" lon="11.652182931618373"><ele>294.0</ele><time>2026-04-11T13:55:20Z</time></trkpt><trkpt lat="43.04506330877395" lon="11.652265083995864"><ele>294.3333333333333</ele><time>2026-04-11T13:55:21Z</time></trkpt><trkpt lat="43.04510906717884" lon="11.652359526270997"><ele>294.66666666666663</ele><time>2026-04-11T13:55:22Z</time></trkpt><trkpt lat="43.045155726305346" lon="11.65246402783056"><ele>295.0</ele><time>2026-04-11T13:55:23Z</time></trkpt><trkpt lat="43.0452054553011" lon="11.652567539713138"><ele>294.2</ele><time>2026-04-11T13:55:24Z</time></trkpt><trkpt lat="43.04526161735912" lon="11.652678305086805"><ele>293.4</ele><time>2026-04-11T13:55:25Z</time></trkpt><trkpt lat="43.045317732452816" lon="11.65278900561536"><ele>292.6</ele><time>2026-04-11T13:55:26Z</time></trkpt><trkpt lat="43.045372539717775" lon="11.652902153859348"><ele>291.8</ele><time>2026-04-11T13:55:27Z</time></trkpt><trkpt lat="43.04542919252716" lon="11.653018887535918"><ele>291.0</ele><time>2026-04-11T13:55:28Z</time></trkpt><trkpt lat="43.045489629339606" lon="11.653130814671327"><ele>290.75</ele><time>2026-04-11T13:55:29Z</time></trkpt><trkpt lat="43.045549100391376" lon="11.653244794030241"><ele>290.5</ele><time>2026-04-11T13:55:30Z</time></trkpt><trkpt lat="43.045610090796536" lon="11.653365992379943"><ele>290.25</ele><time>2026-04-11T13:55:31Z</time></trkpt><trkpt lat="43.045735400198716" lon="11.653604861594689"><ele>290.0</ele><time>2026-04-11T13:55:33Z</time></trkpt><trkpt lat="43.04579533891391" lon="11.65372263765256"><ele>288.4</ele><time>2026-04-11T13:55:34Z</time></trkpt><trkpt lat="43.04585417318036" lon="11.653837153968299"><ele>286.8</ele><time>2026-04-11T13:55:35Z</time></trkpt><trkpt lat="43.04590650990768" lon="11.653949519851208"><ele>285.2</ele><time>2026-04-11T13:55:36Z</time></trkpt><trkpt lat="43.04595879427257" lon="11.654052543610977"><ele>283.6</ele><time>2026-04-11T13:55:37Z</time></trkpt><trkpt lat="43.04600934971932" lon="11.65415004821755"><ele>282.0</ele><time>2026-04-11T13:55:38Z</time></trkpt><trkpt lat="43.04605767548419" lon="11.654245355596336"><ele>282.0</ele><time>2026-04-11T13:55:39Z</time></trkpt><trkpt lat="43.04610373442645" lon="11.65433479624285"><ele>282.0</ele><time>2026-04-11T13:55:40Z</time></trkpt><trkpt lat="43.04615140698204" lon="11.654416826062238"><ele>282.0</ele><time>2026-04-11T13:55:41Z</time></trkpt><trkpt lat="43.04619829389001" lon="11.654495846188677"><ele>282.0</ele><time>2026-04-11T13:55:42Z</time></trkpt><trkpt lat="43.04624619786006" lon="11.654566281689688"><ele>282.0</ele><time>2026-04-11T13:55:43Z</time></trkpt><trkpt lat="43.04629578042863" lon="11.654634785841708"><ele>282.0</ele><time>2026-04-11T13:55:44Z</time></trkpt><trkpt lat="43.046351148735404" lon="11.654684530110407"><ele>282.0</ele><time>2026-04-11T13:55:45Z</time></trkpt><trkpt lat="43.046414414769124" lon="11.65472001925465"><ele>281.8</ele><time>2026-04-11T13:55:46Z</time></trkpt><trkpt lat="43.04648454497752" lon="11.654743241812952"><ele>281.6</ele><time>2026-04-11T13:55:47Z</time></trkpt><trkpt lat="43.04654841561128" lon="11.654749223665467"><ele>281.40000000000003</ele><time>2026-04-11T13:55:48Z</time></trkpt><trkpt lat="43.04661239888591" lon="11.65474832057268"><ele>281.2</ele><time>2026-04-11T13:55:49Z</time></trkpt><trkpt lat="43.04674005816299" lon="11.654751156364116"><ele>281.0</ele><time>2026-04-11T13:55:51Z</time></trkpt><trkpt lat="43.04686537869883" lon="11.654739465358894"><ele>281.0</ele><time>2026-04-11T13:55:53Z</time></trkpt><trkpt lat="43.04699559559044" lon="11.654722731063606"><ele>281.0</ele><time>2026-04-11T13:55:55Z</time></trkpt><trkpt lat="43.04706049657261" lon="11.65471219217697"><ele>281.0</ele><time>2026-04-11T13:55:56Z</time></trkpt><trkpt lat="43.047126477202525" lon="11.654698658884826"><ele>281.0</ele><time>2026-04-11T13:55:57Z</time></trkpt><trkpt lat="43.047194907915284" lon="11.65468765017751"><ele>281.0</ele><time>2026-04-11T13:55:58Z</time></trkpt><trkpt lat="43.0472637325122" lon="11.654683462233766"><ele>281.0</ele><time>2026-04-11T13:55:59Z</time></trkpt><trkpt lat="43.047333074311034" lon="11.654673956019812"><ele>281.00000000000006</ele><time>2026-04-11T13:56:00Z</time></trkpt><trkpt lat="43.04739848665846" lon="11.654662979692"><ele>281.0</ele><time>2026-04-11T13:56:01Z</time></trkpt><trkpt lat="43.0474747914047" lon="11.654649710178004"><ele>281.0</ele><time>2026-04-11T13:56:02Z</time></trkpt><trkpt lat="43.04754436402399" lon="11.654646441912142"><ele>281.0</ele><time>2026-04-11T13:56:03Z</time></trkpt><trkpt lat="43.047616240622496" lon="11.65464684434125"><ele>281.0</ele><time>2026-04-11T13:56:04Z</time></trkpt><trkpt lat="43.04769023139898" lon="11.654647591635136"><ele>281.00000000000006</ele><time>2026-04-11T13:56:05Z</time></trkpt><trkpt lat="43.047762809704096" lon="11.654660164105598"><ele>281.0</ele><time>2026-04-11T13:56:06Z</time></trkpt><trkpt lat="43.047833359824125" lon="11.654686243475451"><ele>281.00000000000006</ele><time>2026-04-11T13:56:07Z</time></trkpt><trkpt lat="43.047898744444566" lon="11.654726298019478"><ele>281.0</ele><time>2026-04-11T13:56:08Z</time></trkpt><trkpt lat="43.04795803154097" lon="11.654775772824209"><ele>281.0</ele><time>2026-04-11T13:56:09Z</time></trkpt><trkpt lat="43.04801449352854" lon="11.65483082150735"><ele>281.0</ele><time>2026-04-11T13:56:10Z</time></trkpt><trkpt lat="43.04807170031937" lon="11.654885172077648"><ele>281.0</ele><time>2026-04-11T13:56:11Z</time></trkpt><trkpt lat="43.04812349440582" lon="11.654940573435544"><ele>281.00000000000006</ele><time>2026-04-11T13:56:12Z</time></trkpt><trkpt lat="43.04817789887673" lon="11.654995054003585"><ele>281.0</ele><time>2026-04-11T13:56:13Z</time></trkpt><trkpt lat="43.04823215206535" lon="11.655049201041086"><ele>281.33333333333337</ele><time>2026-04-11T13:56:14Z</time></trkpt><trkpt lat="43.0483403100888" lon="11.655155061058768"><ele>281.6666666666667</ele><time>2026-04-11T13:56:16Z</time></trkpt><trkpt lat="43.0483975060883" lon="11.65520937180321"><ele>282.0</ele><time>2026-04-11T13:56:17Z</time></trkpt><trkpt lat="43.04845388625575" lon="11.655265671242958"><ele>282.3333333333333</ele><time>2026-04-11T13:56:18Z</time></trkpt><trkpt lat="43.048512302575986" lon="11.655324028812796"><ele>282.66666666666663</ele><time>2026-04-11T13:56:19Z</time></trkpt><trkpt lat="43.048571075644304" lon="11.65538462874847"><ele>283.0</ele><time>2026-04-11T13:56:20Z</time></trkpt><trkpt lat="43.04863384451545" lon="11.655447049132876"><ele>282.3333333333333</ele><time>2026-04-11T13:56:21Z</time></trkpt><trkpt lat="43.04869644911542" lon="11.655508108546021"><ele>281.66666666666663</ele><time>2026-04-11T13:56:22Z</time></trkpt><trkpt lat="43.0487566968668" lon="11.655574585131223"><ele>281.0</ele><time>2026-04-11T13:56:23Z</time></trkpt><trkpt lat="43.04882176312622" lon="11.655639584830398"><ele>280.3333333333333</ele><time>2026-04-11T13:56:24Z</time></trkpt><trkpt lat="43.048886468312055" lon="11.655704737516498"><ele>279.6666666666667</ele><time>2026-04-11T13:56:25Z</time></trkpt><trkpt lat="43.04895083889101" lon="11.655771821199187"><ele>279.0</ele><time>2026-04-11T13:56:26Z</time></trkpt><trkpt lat="43.049017260706584" lon="11.655839103919373"><ele>278.99999999999994</ele><time>2026-04-11T13:56:27Z</time></trkpt><trkpt lat="43.04908139040362" lon="11.655898267723122"><ele>279.0</ele><time>2026-04-11T13:56:28Z</time></trkpt><trkpt lat="43.04914044714352" lon="11.655955000254904"><ele>279.0</ele><time>2026-04-11T13:56:29Z</time></trkpt><trkpt lat="43.049201112897116" lon="11.656013865551325"><ele>279.0</ele><time>2026-04-11T13:56:30Z</time></trkpt><trkpt lat="43.04926040295437" lon="11.656074805327009"><ele>279.0</ele><time>2026-04-11T13:56:31Z</time></trkpt><trkpt lat="43.04931770786459" lon="11.656138699359353"><ele>278.99999999999994</ele><time>2026-04-11T13:56:32Z</time></trkpt><trkpt lat="43.04937444239098" lon="11.65619621291479"><ele>279.0</ele><time>2026-04-11T13:56:33.001Z</time></trkpt><trkpt lat="43.04942922409685" lon="11.656252693671401"><ele>279.4</ele><time>2026-04-11T13:56:34.001Z</time></trkpt><trkpt lat="43.0494844997216" lon="11.656309618589821"><ele>279.79999999999995</ele><time>2026-04-11T13:56:35.001Z</time></trkpt><trkpt lat="43.04958856286753" lon="11.65641441760245"><ele>280.20000000000005</ele><time>2026-04-11T13:56:37.001Z</time></trkpt><trkpt lat="43.04964106257514" lon="11.656465563172345"><ele>280.6</ele><time>2026-04-11T13:56:38.001Z</time></trkpt><trkpt lat="43.04973814485701" lon="11.656567104353764"><ele>281.0</ele><time>2026-04-11T13:56:40.001Z</time></trkpt><trkpt lat="43.04983521755458" lon="11.656664569391658"><ele>281.0</ele><time>2026-04-11T13:56:42.001Z</time></trkpt><trkpt lat="43.0499303521032" lon="11.656768590393016"><ele>281.0</ele><time>2026-04-11T13:56:44.001Z</time></trkpt><trkpt lat="43.0500232561131" lon="11.656866539725673"><ele>281.0</ele><time>2026-04-11T13:56:46.001Z</time></trkpt><trkpt lat="43.050119084196346" lon="11.656946321210496"><ele>281.0</ele><time>2026-04-11T13:56:48.001Z</time></trkpt><trkpt lat="43.050223369659314" lon="11.657000687298828"><ele>281.75</ele><time>2026-04-11T13:56:50Z</time></trkpt><trkpt lat="43.05033036225861" lon="11.65702215884464"><ele>282.5</ele><time>2026-04-11T13:56:52Z</time></trkpt><trkpt lat="43.05043020060582" lon="11.657012183233393"><ele>283.25</ele><time>2026-04-11T13:56:54Z</time></trkpt><trkpt lat="43.05053293151002" lon="11.657002752465871"><ele>284.0</ele><time>2026-04-11T13:56:56Z</time></trkpt><trkpt lat="43.050731998591715" lon="11.656956625236853"><ele>283.8</ele><time>2026-04-11T13:57:00Z</time></trkpt><trkpt lat="43.050835075315575" lon="11.656926077311498"><ele>283.59999999999997</ele><time>2026-04-11T13:57:02Z</time></trkpt><trkpt lat="43.05094019756235" lon="11.656896193050784"><ele>283.4</ele><time>2026-04-11T13:57:04Z</time></trkpt><trkpt lat="43.05104546853864" lon="11.656883976721085"><ele>283.2</ele><time>2026-04-11T13:57:06Z</time></trkpt><trkpt lat="43.051152361349615" lon="11.656865995255334"><ele>283.0</ele><time>2026-04-11T13:57:08Z</time></trkpt><trkpt lat="43.05126362949894" lon="11.6568735055734"><ele>283.0</ele><time>2026-04-11T13:57:10Z</time></trkpt><trkpt lat="43.051376447356176" lon="11.656889608089031"><ele>283.0</ele><time>2026-04-11T13:57:12Z</time></trkpt><trkpt lat="43.05147914418863" lon="11.656911710246867"><ele>283.0</ele><time>2026-04-11T13:57:14Z</time></trkpt><trkpt lat="43.051585251042624" lon="11.656949401783512"><ele>283.0</ele><time>2026-04-11T13:57:16Z</time></trkpt><trkpt lat="43.05169257420607" lon="11.656982419931934"><ele>283.0</ele><time>2026-04-11T13:57:18Z</time></trkpt><trkpt lat="43.051903420090774" lon="11.657053216608487"><ele>284.6</ele><time>2026-04-11T13:57:22Z</time></trkpt><trkpt lat="43.05200816840744" lon="11.657110617311545"><ele>286.20000000000005</ele><time>2026-04-11T13:57:24Z</time></trkpt><trkpt lat="43.05211095817388" lon="11.657171540641984"><ele>287.8</ele><time>2026-04-11T13:57:26Z</time></trkpt><trkpt lat="43.052204632026545" lon="11.657244614326942"><ele>289.40000000000003</ele><time>2026-04-11T13:57:28Z</time></trkpt><trkpt lat="43.05229877584714" lon="11.657324617356355"><ele>291.0</ele><time>2026-04-11T13:57:30Z</time></trkpt><trkpt lat="43.05239281042381" lon="11.657408092272881"><ele>290.25</ele><time>2026-04-11T13:57:32Z</time></trkpt><trkpt lat="43.05248962461307" lon="11.657483296879434"><ele>289.5</ele><time>2026-04-11T13:57:34Z</time></trkpt><trkpt lat="43.05259027089239" lon="11.657563706454633"><ele>288.75</ele><time>2026-04-11T13:57:36Z</time></trkpt><trkpt lat="43.052686981268785" lon="11.65763817579049"><ele>288.0</ele><time>2026-04-11T13:57:38Z</time></trkpt><trkpt lat="43.05278551738945" lon="11.657720216404892"><ele>291.3333333333333</ele><time>2026-04-11T13:57:40Z</time></trkpt><trkpt lat="43.05297194191173" lon="11.657886882249965"><ele>294.66666666666663</ele><time>2026-04-11T13:57:44Z</time></trkpt><trkpt lat="43.053048803816985" lon="11.657999964207924"><ele>298.0</ele><time>2026-04-11T13:57:46Z</time></trkpt><trkpt lat="43.05313171882742" lon="11.658135035001031"><ele>298.0</ele><time>2026-04-11T13:57:48Z</time></trkpt><trkpt lat="43.05317298053421" lon="11.658208054432528"><ele>298.0</ele><time>2026-04-11T13:57:49Z</time></trkpt><trkpt lat="43.05321144148652" lon="11.658284678727423"><ele>298.0</ele><time>2026-04-11T13:57:50Z</time></trkpt><trkpt lat="43.053247914354046" lon="11.658364922261706"><ele>298.0</ele><time>2026-04-11T13:57:51Z</time></trkpt><trkpt lat="43.05328462975735" lon="11.65844312658691"><ele>298.0</ele><time>2026-04-11T13:57:52Z</time></trkpt><trkpt lat="43.053317994818954" lon="11.658519208677399"><ele>298.0</ele><time>2026-04-11T13:57:53Z</time></trkpt><trkpt lat="43.05338279039343" lon="11.658664139194855"><ele>298.0</ele><time>2026-04-11T13:57:55Z</time></trkpt><trkpt lat="43.053460042866426" lon="11.658789046511416"><ele>298.0</ele><time>2026-04-11T13:57:57Z</time></trkpt><trkpt lat="43.05349906118059" lon="11.658858581381297"><ele>298.0</ele><time>2026-04-11T13:57:58Z</time></trkpt><trkpt lat="43.053561862287076" lon="11.659010765076264"><ele>298.0</ele><time>2026-04-11T13:58:00Z</time></trkpt><trkpt lat="43.053622691860646" lon="11.659159576004772"><ele>298.0</ele><time>2026-04-11T13:58:02Z</time></trkpt><trkpt lat="43.053750928734395" lon="11.65942060188893"><ele>300.0</ele><time>2026-04-11T13:58:06Z</time></trkpt><trkpt lat="43.05380665276343" lon="11.659534819416784"><ele>302.0</ele><time>2026-04-11T13:58:08Z</time></trkpt><trkpt lat="43.05385804212422" lon="11.659648434132835"><ele>304.0</ele><time>2026-04-11T13:58:10Z</time></trkpt><trkpt lat="43.053904631221236" lon="11.659751896839442"><ele>306.0</ele><time>2026-04-11T13:58:12Z</time></trkpt><trkpt lat="43.053961481775374" lon="11.659861685990979"><ele>308.0</ele><time>2026-04-11T13:58:14Z</time></trkpt><trkpt lat="43.054018010705626" lon="11.659971915701988"><ele>308.0</ele><time>2026-04-11T13:58:16Z</time></trkpt><trkpt lat="43.05407377702382" lon="11.66008049293755"><ele>308.0</ele><time>2026-04-11T13:58:18Z</time></trkpt><trkpt lat="43.05413049385577" lon="11.660194106373234"><ele>308.0</ele><time>2026-04-11T13:58:20Z</time></trkpt><trkpt lat="43.05418579571086" lon="11.660319110948182"><ele>308.0</ele><time>2026-04-11T13:58:22Z</time></trkpt><trkpt lat="43.0542604107587" lon="11.660428198761338"><ele>308.0</ele><time>2026-04-11T13:58:24Z</time></trkpt><trkpt lat="43.05438824228568" lon="11.660667942403636"><ele>305.6</ele><time>2026-04-11T13:58:28Z</time></trkpt><trkpt lat="43.054457162117515" lon="11.66075843306546"><ele>303.20000000000005</ele><time>2026-04-11T13:58:30Z</time></trkpt><trkpt lat="43.05455037717627" lon="11.66084435922851"><ele>300.8</ele><time>2026-04-11T13:58:32Z</time></trkpt><trkpt lat="43.05465361522236" lon="11.660935658636234"><ele>298.40000000000003</ele><time>2026-04-11T13:58:34Z</time></trkpt><trkpt lat="43.05471199939259" lon="11.660973998765021"><ele>296.0</ele><time>2026-04-11T13:58:35Z</time></trkpt><trkpt lat="43.05476946156404" lon="11.661012031232278"><ele>296.0</ele><time>2026-04-11T13:58:36.001Z</time></trkpt><trkpt lat="43.05483024306594" lon="11.661055458431349"><ele>296.0</ele><time>2026-04-11T13:58:37.001Z</time></trkpt><trkpt lat="43.05488741566531" lon="11.661098362010293"><ele>296.0</ele><time>2026-04-11T13:58:38.001Z</time></trkpt><trkpt lat="43.054945131017405" lon="11.661139246805767"><ele>296.0</ele><time>2026-04-11T13:58:39.001Z</time></trkpt><trkpt lat="43.05500705312535" lon="11.661179561527765"><ele>296.0</ele><time>2026-04-11T13:58:40.001Z</time></trkpt><trkpt lat="43.055069840821815" lon="11.661216288783105"><ele>296.0</ele><time>2026-04-11T13:58:41.001Z</time></trkpt><trkpt lat="43.05513418132673" lon="11.661256224544488"><ele>296.0</ele><time>2026-04-11T13:58:42.001Z</time></trkpt><trkpt lat="43.05519798190341" lon="11.66129031108722"><ele>295.2</ele><time>2026-04-11T13:58:43.001Z</time></trkpt><trkpt lat="43.05526716386078" lon="11.661322329646445"><ele>294.40000000000003</ele><time>2026-04-11T13:58:44.001Z</time></trkpt><trkpt lat="43.055341510401554" lon="11.661348484757262"><ele>293.6</ele><time>2026-04-11T13:58:45.001Z</time></trkpt><trkpt lat="43.05549411997662" lon="11.661385807489768"><ele>292.8</ele><time>2026-04-11T13:58:47.001Z</time></trkpt><trkpt lat="43.05557088555416" lon="11.661402202834015"><ele>292.0</ele><time>2026-04-11T13:58:48.001Z</time></trkpt><trkpt lat="43.05564473569825" lon="11.66141989006329"><ele>292.0</ele><time>2026-04-11T13:58:49.001Z</time></trkpt><trkpt lat="43.055720784467646" lon="11.661433304155377"><ele>292.0</ele><time>2026-04-11T13:58:50.001Z</time></trkpt><trkpt lat="43.055794037873085" lon="11.661451789758457"><ele>292.0</ele><time>2026-04-11T13:58:51.001Z</time></trkpt><trkpt lat="43.05586841067695" lon="11.66147226942681"><ele>292.0</ele><time>2026-04-11T13:58:52.001Z</time></trkpt><trkpt lat="43.05594285111497" lon="11.661486366899018"><ele>292.0</ele><time>2026-04-11T13:58:53.001Z</time></trkpt><trkpt lat="43.056020591791736" lon="11.661490140691223"><ele>292.0</ele><time>2026-04-11T13:58:54.001Z</time></trkpt><trkpt lat="43.05608995042503" lon="11.661507975868487"><ele>291.57142857142856</ele><time>2026-04-11T13:58:55Z</time></trkpt><trkpt lat="43.056160855180394" lon="11.661523173710922"><ele>291.14285714285717</ele><time>2026-04-11T13:58:56Z</time></trkpt><trkpt lat="43.05623514603653" lon="11.661540236816862"><ele>290.7142857142857</ele><time>2026-04-11T13:58:57Z</time></trkpt><trkpt lat="43.056308298109855" lon="11.661556745273439"><ele>290.2857142857143</ele><time>2026-04-11T13:58:58Z</time></trkpt><trkpt lat="43.05638055619231" lon="11.661569934547005"><ele>289.85714285714283</ele><time>2026-04-11T13:58:59Z</time></trkpt><trkpt lat="43.05645758707758" lon="11.661585998909207"><ele>289.42857142857144</ele><time>2026-04-11T13:59:00Z</time></trkpt><trkpt lat="43.05652812602188" lon="11.661598070800444"><ele>289.0</ele><time>2026-04-11T13:59:01Z</time></trkpt><trkpt lat="43.0566011993645" lon="11.661612687125867"><ele>288.66666666666663</ele><time>2026-04-11T13:59:02Z</time></trkpt><trkpt lat="43.05667064563935" lon="11.661634962525119"><ele>288.3333333333333</ele><time>2026-04-11T13:59:03Z</time></trkpt><trkpt lat="43.056742463257" lon="11.661644426456684"><ele>288.0</ele><time>2026-04-11T13:59:04Z</time></trkpt><trkpt lat="43.056814948581675" lon="11.661660913461294"><ele>287.6666666666667</ele><time>2026-04-11T13:59:05Z</time></trkpt><trkpt lat="43.056882210223804" lon="11.661710073916923"><ele>287.33333333333337</ele><time>2026-04-11T13:59:06Z</time></trkpt><trkpt lat="43.056987490583815" lon="11.66186397960475"><ele>287.0</ele><time>2026-04-11T13:59:08Z</time></trkpt><trkpt lat="43.05703574361312" lon="11.661936010244554"><ele>287.1666666666667</ele><time>2026-04-11T13:59:09Z</time></trkpt><trkpt lat="43.057089569368024" lon="11.662013065308068"><ele>287.33333333333337</ele><time>2026-04-11T13:59:10Z</time></trkpt><trkpt lat="43.05714484459021" lon="11.662082112107868"><ele>287.5</ele><time>2026-04-11T13:59:11Z</time></trkpt><trkpt lat="43.05720161533609" lon="11.66215517457019"><ele>287.6666666666667</ele><time>2026-04-11T13:59:12Z</time></trkpt><trkpt lat="43.0572556783011" lon="11.662219512806548"><ele>287.8333333333333</ele><time>2026-04-11T13:59:13Z</time></trkpt><trkpt lat="43.05730850662663" lon="11.662291771676095"><ele>288.0</ele><time>2026-04-11T13:59:14Z</time></trkpt><trkpt lat="43.05736015915337" lon="11.662362323365258"><ele>288.00000000000006</ele><time>2026-04-11T13:59:15Z</time></trkpt><trkpt lat="43.05741482802159" lon="11.662429742502262"><ele>288.0</ele><time>2026-04-11T13:59:16Z</time></trkpt><trkpt lat="43.057466823985095" lon="11.662496987683609"><ele>288.0</ele><time>2026-04-11T13:59:17Z</time></trkpt><trkpt lat="43.05751880399909" lon="11.662567031873483"><ele>288.0</ele><time>2026-04-11T13:59:18Z</time></trkpt><trkpt lat="43.057574867879346" lon="11.662638986243325"><ele>288.0</ele><time>2026-04-11T13:59:19Z</time></trkpt><trkpt lat="43.05762723998046" lon="11.66271039518351"><ele>288.00000000000006</ele><time>2026-04-11T13:59:20Z</time></trkpt><trkpt lat="43.05767780439462" lon="11.662778472634184"><ele>288.0</ele><time>2026-04-11T13:59:21Z</time></trkpt><trkpt lat="43.057731597670134" lon="11.662847378869065"><ele>288.0</ele><time>2026-04-11T13:59:22Z</time></trkpt><trkpt lat="43.05778359957111" lon="11.662915986630429"><ele>288.0</ele><time>2026-04-11T13:59:23Z</time></trkpt><trkpt lat="43.0578391397334" lon="11.662987514758056"><ele>288.0</ele><time>2026-04-11T13:59:24Z</time></trkpt><trkpt lat="43.05789100149201" lon="11.663058566805903"><ele>288.0</ele><time>2026-04-11T13:59:25Z</time></trkpt><trkpt lat="43.057943863763924" lon="11.66312721215622"><ele>288.0</ele><time>2026-04-11T13:59:26Z</time></trkpt><trkpt lat="43.057993854737354" lon="11.663194948469027"><ele>288.0</ele><time>2026-04-11T13:59:27Z</time></trkpt><trkpt lat="43.05809283909027" lon="11.663327094660607"><ele>288.0</ele><time>2026-04-11T13:59:29Z</time></trkpt><trkpt lat="43.05814023896722" lon="11.663391827122416"><ele>288.0</ele><time>2026-04-11T13:59:30Z</time></trkpt><trkpt lat="43.05818712164306" lon="11.663456640809848"><ele>288.0</ele><time>2026-04-11T13:59:31Z</time></trkpt><trkpt lat="43.058272444644345" lon="11.66356916361365"><ele>288.0</ele><time>2026-04-11T13:59:33Z</time></trkpt><trkpt lat="43.05835458873769" lon="11.66367070245629"><ele>288.0</ele><time>2026-04-11T13:59:35Z</time></trkpt><trkpt lat="43.0584217976285" lon="11.663758949779686"><ele>288.1666666666667</ele><time>2026-04-11T13:59:37Z</time></trkpt><trkpt lat="43.05849100855102" lon="11.663853103067765"><ele>288.3333333333333</ele><time>2026-04-11T13:59:39Z</time></trkpt><trkpt lat="43.0585533318105" lon="11.663936707482938"><ele>288.5</ele><time>2026-04-11T13:59:41Z</time></trkpt><trkpt lat="43.05860711453896" lon="11.664016105835836"><ele>288.66666666666663</ele><time>2026-04-11T13:59:43Z</time></trkpt><trkpt lat="43.05865855927146" lon="11.66409163612424"><ele>288.8333333333333</ele><time>2026-04-11T13:59:45Z</time></trkpt><trkpt lat="43.0587107514816" lon="11.66415220221365"><ele>289.0</ele><time>2026-04-11T13:59:47Z</time></trkpt><trkpt lat="43.05875987888366" lon="11.664210945157349"><ele>289.0</ele><time>2026-04-11T13:59:49Z</time></trkpt><trkpt lat="43.058853933147994" lon="11.664337840890216"><ele>289.0</ele><time>2026-04-11T13:59:53Z</time></trkpt><trkpt lat="43.058907911499915" lon="11.664410170191946"><ele>289.0</ele><time>2026-04-11T13:59:55Z</time></trkpt><trkpt lat="43.0589613396422" lon="11.66448363350442"><ele>289.0</ele><time>2026-04-11T13:59:57Z</time></trkpt><trkpt lat="43.05902080216201" lon="11.66455982196517"><ele>289.0</ele><time>2026-04-11T13:59:59Z</time></trkpt><trkpt lat="43.05908812240374" lon="11.664640219945065"><ele>290.2</ele><time>2026-04-11T14:00:01Z</time></trkpt><trkpt lat="43.05915352014266" lon="11.664738246345305"><ele>291.4</ele><time>2026-04-11T14:00:03Z</time></trkpt><trkpt lat="43.05922346691633" lon="11.664836099044251"><ele>292.6</ele><time>2026-04-11T14:00:05Z</time></trkpt><trkpt lat="43.05930370631118" lon="11.66494019345993"><ele>293.8</ele><time>2026-04-11T14:00:07Z</time></trkpt><trkpt lat="43.05937375788529" lon="11.665042657679892"><ele>295.0</ele><time>2026-04-11T14:00:09Z</time></trkpt><trkpt lat="43.059445662519536" lon="11.665146065737751"><ele>294.0</ele><time>2026-04-11T14:00:11Z</time></trkpt><trkpt lat="43.059610421229486" lon="11.665365208626135"><ele>293.0</ele><time>2026-04-11T14:00:15Z</time></trkpt><trkpt lat="43.05969161763463" lon="11.665478034143439"><ele>292.0</ele><time>2026-04-11T14:00:17Z</time></trkpt><trkpt lat="43.05977238158111" lon="11.665593395904633"><ele>292.0</ele><time>2026-04-11T14:00:19Z</time></trkpt><trkpt lat="43.059854257168546" lon="11.665706636903597"><ele>292.0</ele><time>2026-04-11T14:00:21Z</time></trkpt><trkpt lat="43.05993459280919" lon="11.66581869269209"><ele>292.0</ele><time>2026-04-11T14:00:23Z</time></trkpt><trkpt lat="43.06001359136584" lon="11.665933277281571"><ele>292.0</ele><time>2026-04-11T14:00:25Z</time></trkpt><trkpt lat="43.060091400789354" lon="11.66604634059034"><ele>292.5</ele><time>2026-04-11T14:00:27Z</time></trkpt><trkpt lat="43.060172711878835" lon="11.66615931616518"><ele>293.0</ele><time>2026-04-11T14:00:29Z</time></trkpt><trkpt lat="43.060243674842326" lon="11.666279844933538"><ele>293.5</ele><time>2026-04-11T14:00:31Z</time></trkpt><trkpt lat="43.06031931231052" lon="11.666388511517896"><ele>294.0</ele><time>2026-04-11T14:00:33Z</time></trkpt><trkpt lat="43.06042296885663" lon="11.666679126184812"><ele>294.0</ele><time>2026-04-11T14:00:37Z</time></trkpt><trkpt lat="43.06046202996032" lon="11.666835886542279"><ele>294.0</ele><time>2026-04-11T14:00:39Z</time></trkpt><trkpt lat="43.06049903348686" lon="11.666995194469061"><ele>294.0</ele><time>2026-04-11T14:00:41.001Z</time></trkpt><trkpt lat="43.06053154406393" lon="11.66716336678833"><ele>294.0</ele><time>2026-04-11T14:00:43.001Z</time></trkpt><trkpt lat="43.06055225233153" lon="11.667251692074435"><ele>294.0</ele><time>2026-04-11T14:00:44.001Z</time></trkpt><trkpt lat="43.060574128258615" lon="11.667342152002503"><ele>294.0</ele><time>2026-04-11T14:00:45.001Z</time></trkpt><trkpt lat="43.06059678831183" lon="11.667432623194717"><ele>294.0</ele><time>2026-04-11T14:00:46.001Z</time></trkpt><trkpt lat="43.0606224477257" lon="11.667526217555475"><ele>294.0</ele><time>2026-04-11T14:00:47.001Z</time></trkpt><trkpt lat="43.060646281131845" lon="11.667621209360503"><ele>294.0</ele><time>2026-04-11T14:00:48.001Z</time></trkpt><trkpt lat="43.060669986162935" lon="11.667714528680134"><ele>294.0</ele><time>2026-04-11T14:00:49.001Z</time></trkpt><trkpt lat="43.060691358041446" lon="11.667810516305277"><ele>294.0</ele><time>2026-04-11T14:00:50.001Z</time></trkpt><trkpt lat="43.0607157170135" lon="11.667908055313658"><ele>294.0</ele><time>2026-04-11T14:00:51.001Z</time></trkpt><trkpt lat="43.06074383403576" lon="11.668004049367612"><ele>293.8333333333333</ele><time>2026-04-11T14:00:52.001Z</time></trkpt><trkpt lat="43.06077070970962" lon="11.668099390424038"><ele>293.6666666666667</ele><time>2026-04-11T14:00:53.001Z</time></trkpt><trkpt lat="43.06079328155935" lon="11.668197729151393"><ele>293.5</ele><time>2026-04-11T14:00:54.001Z</time></trkpt><trkpt lat="43.060835588060606" lon="11.668386978659901"><ele>293.33333333333337</ele><time>2026-04-11T14:00:56.001Z</time></trkpt><trkpt lat="43.06085733766197" lon="11.668478209397422"><ele>293.1666666666667</ele><time>2026-04-11T14:00:57.001Z</time></trkpt><trkpt lat="43.06088168929568" lon="11.668565297381049"><ele>293.0</ele><time>2026-04-11T14:00:58.001Z</time></trkpt><trkpt lat="43.060904949016205" lon="11.66865183882058"><ele>293.0</ele><time>2026-04-11T14:00:59.001Z</time></trkpt><trkpt lat="43.06092853171895" lon="11.668734083487163"><ele>293.0</ele><time>2026-04-11T14:01:00.001Z</time></trkpt><trkpt lat="43.06096098048421" lon="11.668897426195032"><ele>293.0</ele><time>2026-04-11T14:01:02Z</time></trkpt><trkpt lat="43.06100129110176" lon="11.669057091409705"><ele>293.0</ele><time>2026-04-11T14:01:04Z</time></trkpt><trkpt lat="43.061035059865745" lon="11.66913085617849"><ele>293.0</ele><time>2026-04-11T14:01:05Z</time></trkpt><trkpt lat="43.061106861080766" lon="11.669262715016066"><ele>293.0</ele><time>2026-04-11T14:01:07Z</time></trkpt><trkpt lat="43.061203036207154" lon="11.669360488030012"><ele>293.0</ele><time>2026-04-11T14:01:09Z</time></trkpt><trkpt lat="43.061294606563855" lon="11.669454750934099"><ele>293.0</ele><time>2026-04-11T14:01:11Z</time></trkpt><trkpt lat="43.061390005615216" lon="11.669546881064374"><ele>293.0</ele><time>2026-04-11T14:01:13Z</time></trkpt><trkpt lat="43.061487619828675" lon="11.669639204468197"><ele>293.33333333333337</ele><time>2026-04-11T14:01:15Z</time></trkpt><trkpt lat="43.061687381877896" lon="11.669821313118785"><ele>293.6666666666667</ele><time>2026-04-11T14:01:19Z</time></trkpt><trkpt lat="43.06179519349446" lon="11.669898952662113"><ele>294.0</ele><time>2026-04-11T14:01:21Z</time></trkpt><trkpt lat="43.06189201309066" lon="11.669964959408803"><ele>294.0</ele><time>2026-04-11T14:01:23Z</time></trkpt><trkpt lat="43.06199173336564" lon="11.670047073304008"><ele>294.0</ele><time>2026-04-11T14:01:25Z</time></trkpt><trkpt lat="43.06208593098292" lon="11.670132234635181"><ele>294.0</ele><time>2026-04-11T14:01:27Z</time></trkpt><trkpt lat="43.06219162615557" lon="11.67020090628445"><ele>294.0</ele><time>2026-04-11T14:01:29Z</time></trkpt><trkpt lat="43.06230011434413" lon="11.670264488010227"><ele>294.25</ele><time>2026-04-11T14:01:31Z</time></trkpt><trkpt lat="43.062405978413906" lon="11.67033850986984"><ele>294.5</ele><time>2026-04-11T14:01:33Z</time></trkpt><trkpt lat="43.062514204210586" lon="11.67040776569731"><ele>294.75</ele><time>2026-04-11T14:01:35Z</time></trkpt><trkpt lat="43.062616141091574" lon="11.670475028439208"><ele>295.0</ele><time>2026-04-11T14:01:37Z</time></trkpt><trkpt lat="43.062807976735414" lon="11.670607365531612"><ele>295.2</ele><time>2026-04-11T14:01:41Z</time></trkpt><trkpt lat="43.0629103779639" lon="11.67068062750719"><ele>295.4</ele><time>2026-04-11T14:01:43Z</time></trkpt><trkpt lat="43.06300183885807" lon="11.670741227459219"><ele>295.6</ele><time>2026-04-11T14:01:45Z</time></trkpt><trkpt lat="43.06309300126981" lon="11.670805164321205"><ele>295.8</ele><time>2026-04-11T14:01:47Z</time></trkpt><trkpt lat="43.06318327571302" lon="11.670868411091641"><ele>296.0</ele><time>2026-04-11T14:01:49Z</time></trkpt><trkpt lat="43.06327292661981" lon="11.67092572244842"><ele>296.6</ele><time>2026-04-11T14:01:51Z</time></trkpt><trkpt lat="43.06335924232138" lon="11.670983491713178"><ele>297.20000000000005</ele><time>2026-04-11T14:01:53Z</time></trkpt><trkpt lat="43.06344263829011" lon="11.67104908031009"><ele>297.79999999999995</ele><time>2026-04-11T14:01:55Z</time></trkpt><trkpt lat="43.06352511770437" lon="11.671107173520904"><ele>298.4</ele><time>2026-04-11T14:01:57Z</time></trkpt><trkpt lat="43.063607716446086" lon="11.671157872718936"><ele>299.0</ele><time>2026-04-11T14:01:59Z</time></trkpt><trkpt lat="43.06377025924989" lon="11.671270780261533"><ele>299.1666666666667</ele><time>2026-04-11T14:02:03Z</time></trkpt><trkpt lat="43.06385337096401" lon="11.671319079398973"><ele>299.33333333333337</ele><time>2026-04-11T14:02:05Z</time></trkpt><trkpt lat="43.06393589142603" lon="11.671376902708102"><ele>299.5</ele><time>2026-04-11T14:02:07Z</time></trkpt><trkpt lat="43.06399443143697" lon="11.67141426119709"><ele>299.6666666666667</ele><time>2026-04-11T14:02:09Z</time></trkpt><trkpt lat="43.064069216107576" lon="11.671465151056951"><ele>299.8333333333333</ele><time>2026-04-11T14:02:11Z</time></trkpt><trkpt lat="43.06414105548684" lon="11.671508847953854"><ele>300.0</ele><time>2026-04-11T14:02:12Z</time></trkpt><trkpt lat="43.06421153800581" lon="11.671565496991262"><ele>300.6</ele><time>2026-04-11T14:02:14Z</time></trkpt><trkpt lat="43.06429179290453" lon="11.671616867629588"><ele>301.2</ele><time>2026-04-11T14:02:16Z</time></trkpt><trkpt lat="43.064369713505535" lon="11.671664859046519"><ele>301.8</ele><time>2026-04-11T14:02:18Z</time></trkpt><trkpt lat="43.064442297834674" lon="11.671716896259104"><ele>302.4</ele><time>2026-04-11T14:02:20Z</time></trkpt><trkpt lat="43.06458159786738" lon="11.671811730321005"><ele>303.0</ele><time>2026-04-11T14:02:24Z</time></trkpt><trkpt lat="43.06464816620667" lon="11.67185476384708"><ele>303.0</ele><time>2026-04-11T14:02:26Z</time></trkpt><trkpt lat="43.06470980191744" lon="11.671895441036824"><ele>303.0</ele><time>2026-04-11T14:02:28Z</time></trkpt><trkpt lat="43.064792613478126" lon="11.671939318022192"><ele>303.0</ele><time>2026-04-11T14:02:31Z</time></trkpt><trkpt lat="43.06485555357041" lon="11.671988484774499"><ele>303.0</ele><time>2026-04-11T14:02:34Z</time></trkpt><trkpt lat="43.06492496727389" lon="11.67203705261102"><ele>303.0</ele><time>2026-04-11T14:02:38Z</time></trkpt><trkpt lat="43.064996010267144" lon="11.672081688483045"><ele>303.0</ele><time>2026-04-11T14:02:41Z</time></trkpt><trkpt lat="43.06513856517813" lon="11.672178918256586"><ele>304.0</ele><time>2026-04-11T14:02:48.001Z</time></trkpt><trkpt lat="43.06520325212298" lon="11.67220856727491"><ele>305.0</ele><time>2026-04-11T14:02:51.001Z</time></trkpt><trkpt lat="43.06527137695465" lon="11.672221176381044"><ele>306.0</ele><time>2026-04-11T14:02:54.001Z</time></trkpt><trkpt lat="43.065338054510285" lon="11.672220561281764"><ele>307.0</ele><time>2026-04-11T14:02:57.001Z</time></trkpt><trkpt lat="43.065404909443515" lon="11.672173632952171"><ele>308.0</ele><time>2026-04-11T14:03:01.001Z</time></trkpt><trkpt lat="43.06546926629922" lon="11.672129942920833"><ele>309.0</ele><time>2026-04-11T14:03:04.001Z</time></trkpt><trkpt lat="43.06557561946456" lon="11.672014478759744"><ele>309.0</ele><time>2026-04-11T14:03:12Z</time></trkpt><trkpt lat="43.06562422674693" lon="11.671958211803299"><ele>309.0</ele><time>2026-04-11T14:03:15Z</time></trkpt><trkpt lat="43.06570133956273" lon="11.671918825665951"><ele>309.0</ele><time>2026-04-11T14:03:19Z</time></trkpt><trkpt lat="43.06577607009827" lon="11.671922066513343"><ele>309.0</ele><time>2026-04-11T14:03:23Z</time></trkpt><trkpt lat="43.06585553904461" lon="11.67193601593454"><ele>309.0</ele><time>2026-04-11T14:03:27Z</time></trkpt><trkpt lat="43.06598819352129" lon="11.672000356818875"><ele>309.0</ele><time>2026-04-11T14:03:35Z</time></trkpt><trkpt lat="43.066063478489035" lon="11.672030306668315"><ele>310.3333333333333</ele><time>2026-04-11T14:03:40Z</time></trkpt><trkpt lat="43.066134431638034" lon="11.672077177764578"><ele>311.6666666666667</ele><time>2026-04-11T14:03:44Z</time></trkpt><trkpt lat="43.06619655611273" lon="11.672126546510823"><ele>313.0</ele><time>2026-04-11T14:03:48Z</time></trkpt><trkpt lat="43.066273407820255" lon="11.672268631628016"><ele>314.33333333333337</ele><time>2026-04-11T14:03:56Z</time></trkpt><trkpt lat="43.06629829612105" lon="11.672354697283195"><ele>315.6666666666667</ele><time>2026-04-11T14:04:00Z</time></trkpt><trkpt lat="43.06633347233793" lon="11.672437268263806"><ele>317.0</ele><time>2026-04-11T14:04:04Z</time></trkpt><trkpt lat="43.06638922328609" lon="11.672499908116293"><ele>317.0</ele><time>2026-04-11T14:04:08Z</time></trkpt><trkpt lat="43.066449382561466" lon="11.672569664254036"><ele>317.0</ele><time>2026-04-11T14:04:12Z</time></trkpt><trkpt lat="43.06658585900594" lon="11.672642293533016"><ele>317.0</ele><time>2026-04-11T14:04:20Z</time></trkpt><trkpt lat="43.06664112627902" lon="11.67269697675977"><ele>317.0</ele><time>2026-04-11T14:04:24Z</time></trkpt><trkpt lat="43.06669362363677" lon="11.672780396710111"><ele>317.0</ele><time>2026-04-11T14:04:28Z</time></trkpt><trkpt lat="43.06672646913165" lon="11.672886347824386"><ele>317.8</ele><time>2026-04-11T14:04:33Z</time></trkpt><trkpt lat="43.06669334721326" lon="11.673078506411763"><ele>318.6</ele><time>2026-04-11T14:04:42.001Z</time></trkpt><trkpt lat="43.0666509864014" lon="11.673167602761026"><ele>319.40000000000003</ele><time>2026-04-11T14:04:46.001Z</time></trkpt><trkpt lat="43.066600013824065" lon="11.673259936794551"><ele>320.2</ele><time>2026-04-11T14:04:50.001Z</time></trkpt><trkpt lat="43.066560532854105" lon="11.673340859967873"><ele>321.0</ele><time>2026-04-11T14:04:53.001Z</time></trkpt><trkpt lat="43.066519866988926" lon="11.673437772084792"><ele>321.0</ele><time>2026-04-11T14:04:57.001Z</time></trkpt><trkpt lat="43.06650861254422" lon="11.673628798311888"><ele>321.0</ele><time>2026-04-11T14:05:04.001Z</time></trkpt><trkpt lat="43.06653562948654" lon="11.673720277326208"><ele>321.0</ele><time>2026-04-11T14:05:08.001Z</time></trkpt><trkpt lat="43.06657429737332" lon="11.673805490853558"><ele>321.0</ele><time>2026-04-11T14:05:11.001Z</time></trkpt><trkpt lat="43.0666196743681" lon="11.673888102090304"><ele>321.0</ele><time>2026-04-11T14:05:15Z</time></trkpt><trkpt lat="43.06665225009782" lon="11.67398792877998"><ele>321.0</ele><time>2026-04-11T14:05:18Z</time></trkpt><trkpt lat="43.06670176904455" lon="11.67417117332632"><ele>323.20000000000005</ele><time>2026-04-11T14:05:24Z</time></trkpt><trkpt lat="43.066723906182226" lon="11.674259505890367"><ele>325.40000000000003</ele><time>2026-04-11T14:05:27Z</time></trkpt><trkpt lat="43.06674807478779" lon="11.674367137372103"><ele>327.6</ele><time>2026-04-11T14:05:31Z</time></trkpt><trkpt lat="43.066767532325265" lon="11.674475929095939"><ele>329.8</ele><time>2026-04-11T14:05:35Z</time></trkpt><trkpt lat="43.06680010510373" lon="11.674583799149332"><ele>332.0</ele><time>2026-04-11T14:05:39Z</time></trkpt><trkpt lat="43.06690789977776" lon="11.674727880382429"><ele>332.0</ele><time>2026-04-11T14:05:46Z</time></trkpt><trkpt lat="43.06696368722659" lon="11.674768218029712"><ele>332.0</ele><time>2026-04-11T14:05:49Z</time></trkpt><trkpt lat="43.067028321549806" lon="11.674810700506853"><ele>332.0</ele><time>2026-04-11T14:05:52Z</time></trkpt><trkpt lat="43.06711415712506" lon="11.67485093126924"><ele>332.0</ele><time>2026-04-11T14:05:55Z</time></trkpt><trkpt lat="43.06718568770456" lon="11.674902328647528"><ele>332.0</ele><time>2026-04-11T14:05:59Z</time></trkpt><trkpt lat="43.0672523424416" lon="11.67494523704487"><ele>332.0</ele><time>2026-04-11T14:06:02Z</time></trkpt><trkpt lat="43.06739873673933" lon="11.675014203462828"><ele>332.83333333333337</ele><time>2026-04-11T14:06:08Z</time></trkpt><trkpt lat="43.06747037620872" lon="11.67504980604019"><ele>333.6666666666667</ele><time>2026-04-11T14:06:11Z</time></trkpt><trkpt lat="43.06754131240267" lon="11.675080563910837"><ele>334.5</ele><time>2026-04-11T14:06:14Z</time></trkpt><trkpt lat="43.06761197949254" lon="11.675109431981705"><ele>335.3333333333333</ele><time>2026-04-11T14:06:17Z</time></trkpt><trkpt lat="43.06767819084093" lon="11.675146047940462"><ele>336.16666666666663</ele><time>2026-04-11T14:06:20Z</time></trkpt><trkpt lat="43.067744236509505" lon="11.675182180917233"><ele>337.0</ele><time>2026-04-11T14:06:23Z</time></trkpt><trkpt lat="43.067865718877904" lon="11.675271921542436"><ele>337.0</ele><time>2026-04-11T14:06:29Z</time></trkpt><trkpt lat="43.06792125038251" lon="11.675330895489614"><ele>337.0</ele><time>2026-04-11T14:06:32Z</time></trkpt><trkpt lat="43.06796957482346" lon="11.67540219003197"><ele>337.0</ele><time>2026-04-11T14:06:35Z</time></trkpt><trkpt lat="43.06802465844893" lon="11.675479684862204"><ele>337.0</ele><time>2026-04-11T14:06:38Z</time></trkpt><trkpt lat="43.06808957767049" lon="11.675553177133862"><ele>337.0</ele><time>2026-04-11T14:06:41Z</time></trkpt><trkpt lat="43.06814522282437" lon="11.675635607795188"><ele>337.0</ele><time>2026-04-11T14:06:44Z</time></trkpt><trkpt lat="43.068265242820836" lon="11.675819974087851"><ele>338.0</ele><time>2026-04-11T14:06:50Z</time></trkpt><trkpt lat="43.06831928321186" lon="11.675888629554136"><ele>339.0</ele><time>2026-04-11T14:06:52Z</time></trkpt><trkpt lat="43.06839044271016" lon="11.675984070325706"><ele>340.0</ele><time>2026-04-11T14:06:54Z</time></trkpt><trkpt lat="43.06844451531936" lon="11.676051317936437"><ele>341.0</ele><time>2026-04-11T14:06:57Z</time></trkpt><trkpt lat="43.06848979255745" lon="11.676114043163667"><ele>342.0</ele><time>2026-04-11T14:06:59Z</time></trkpt><trkpt lat="43.06855712310338" lon="11.67620241776551"><ele>343.0</ele><time>2026-04-11T14:07:02Z</time></trkpt><trkpt lat="43.06863012794628" lon="11.676294620649712"><ele>343.0</ele><time>2026-04-11T14:07:05Z</time></trkpt><trkpt lat="43.068745268144085" lon="11.676439196017848"><ele>343.0</ele><time>2026-04-11T14:07:09Z</time></trkpt><trkpt lat="43.06880167504081" lon="11.676504985128133"><ele>343.0</ele><time>2026-04-11T14:07:11Z</time></trkpt><trkpt lat="43.068844819784104" lon="11.676574288586243"><ele>343.0</ele><time>2026-04-11T14:07:14Z</time></trkpt><trkpt lat="43.068902238308205" lon="11.676654599422239"><ele>343.0</ele><time>2026-04-11T14:07:17Z</time></trkpt><trkpt lat="43.06894830169742" lon="11.676718091067547"><ele>343.0</ele><time>2026-04-11T14:07:19Z</time></trkpt><trkpt lat="43.06899446955074" lon="11.676818159871052"><ele>343.5</ele><time>2026-04-11T14:07:22Z</time></trkpt><trkpt lat="43.069029940906404" lon="11.676957481345848"><ele>344.0</ele><time>2026-04-11T14:07:24Z</time></trkpt><trkpt lat="43.06902489365657" lon="11.677054824331748"><ele>344.5</ele><time>2026-04-11T14:07:26Z</time></trkpt><trkpt lat="43.06899202327153" lon="11.67722738718002"><ele>345.0</ele><time>2026-04-11T14:07:30Z</time></trkpt><trkpt lat="43.068969792218674" lon="11.677313839068972"><ele>345.5</ele><time>2026-04-11T14:07:32Z</time></trkpt><trkpt lat="43.06895206331814" lon="11.677405804084612"><ele>346.0</ele><time>2026-04-11T14:07:34Z</time></trkpt><trkpt lat="43.06891697464968" lon="11.67748879410883"><ele>346.0</ele><time>2026-04-11T14:07:36Z</time></trkpt><trkpt lat="43.068872194290314" lon="11.67761761839872"><ele>346.0</ele><time>2026-04-11T14:07:39Z</time></trkpt><trkpt lat="43.068814320246865" lon="11.677799103609516"><ele>346.0</ele><time>2026-04-11T14:07:42Z</time></trkpt><trkpt lat="43.06876932794137" lon="11.677892434121377"><ele>346.0</ele><time>2026-04-11T14:07:44Z</time></trkpt><trkpt lat="43.06873103972997" lon="11.677991451121331"><ele>346.0</ele><time>2026-04-11T14:07:46Z</time></trkpt><trkpt lat="43.06869000227881" lon="11.678096758258238"><ele>347.6</ele><time>2026-04-11T14:07:48Z</time></trkpt><trkpt lat="43.0686173570398" lon="11.678296634946786"><ele>349.20000000000005</ele><time>2026-04-11T14:07:52Z</time></trkpt><trkpt lat="43.06858560698588" lon="11.678400855833301"><ele>350.79999999999995</ele><time>2026-04-11T14:07:54Z</time></trkpt><trkpt lat="43.06855495429498" lon="11.678498234836514"><ele>352.4</ele><time>2026-04-11T14:07:56Z</time></trkpt><trkpt lat="43.06853770282774" lon="11.67862303203162"><ele>354.0</ele><time>2026-04-11T14:07:58Z</time></trkpt><trkpt lat="43.068544142802764" lon="11.678742113479275"><ele>355.4</ele><time>2026-04-11T14:08:00Z</time></trkpt><trkpt lat="43.06853766046706" lon="11.67883124313617"><ele>356.79999999999995</ele><time>2026-04-11T14:08:02Z</time></trkpt><trkpt lat="43.06852422163648" lon="11.678944743234382"><ele>358.20000000000005</ele><time>2026-04-11T14:08:05Z</time></trkpt><trkpt lat="43.06850915084591" lon="11.679068242792534"><ele>359.6</ele><time>2026-04-11T14:08:08Z</time></trkpt><trkpt lat="43.06848878192849" lon="11.679183115967497"><ele>361.0</ele><time>2026-04-11T14:08:11Z</time></trkpt><trkpt lat="43.068468775278866" lon="11.679385489974106"><ele>361.16666666666663</ele><time>2026-04-11T14:08:16Z</time></trkpt><trkpt lat="43.06845090918912" lon="11.679470824089222"><ele>361.3333333333333</ele><time>2026-04-11T14:08:19Z</time></trkpt><trkpt lat="43.0684442651565" lon="11.679566721790081"><ele>361.5</ele><time>2026-04-11T14:08:22Z</time></trkpt><trkpt lat="43.068452078117716" lon="11.679662456665177"><ele>361.6666666666667</ele><time>2026-04-11T14:08:25Z</time></trkpt><trkpt lat="43.06847370015426" lon="11.679754031991722"><ele>361.83333333333337</ele><time>2026-04-11T14:08:28Z</time></trkpt><trkpt lat="43.06852480755659" lon="11.67984138261743"><ele>362.0</ele><time>2026-04-11T14:08:32Z</time></trkpt><trkpt lat="43.06863813944226" lon="11.679957922279153"><ele>362.0</ele><time>2026-04-11T14:08:38Z</time></trkpt><trkpt lat="43.06871518934318" lon="11.67999155368118"><ele>362.0</ele><time>2026-04-11T14:08:41.001Z</time></trkpt><trkpt lat="43.068788565313156" lon="11.679981369021364"><ele>362.0</ele><time>2026-04-11T14:08:45.001Z</time></trkpt><trkpt lat="43.068846276711035" lon="11.6799422634177"><ele>362.0</ele><time>2026-04-11T14:08:48.001Z</time></trkpt><trkpt lat="43.06891436832717" lon="11.679872578546318"><ele>362.0</ele><time>2026-04-11T14:08:51.001Z</time></trkpt><trkpt lat="43.068973748976575" lon="11.67977740475086"><ele>362.0</ele><time>2026-04-11T14:08:55.001Z</time></trkpt><trkpt lat="43.06903177686251" lon="11.679594914958324"><ele>362.0</ele><time>2026-04-11T14:09:02.001Z</time></trkpt><trkpt lat="43.06906663992464" lon="11.679469512786577"><ele>362.0</ele><time>2026-04-11T14:09:05.001Z</time></trkpt><trkpt lat="43.06909065579641" lon="11.679385855631729"><ele>362.0</ele><time>2026-04-11T14:09:07.001Z</time></trkpt><trkpt lat="43.06912127861546" lon="11.679298854269407"><ele>362.0</ele><time>2026-04-11T14:09:09.001Z</time></trkpt><trkpt lat="43.06915036638737" lon="11.679219835625867"><ele>362.0</ele><time>2026-04-11T14:09:11.001Z</time></trkpt><trkpt lat="43.06919043633143" lon="11.679147500433157"><ele>362.0</ele><time>2026-04-11T14:09:13.001Z</time></trkpt><trkpt lat="43.0692561362745" lon="11.679055551512631"><ele>363.8</ele><time>2026-04-11T14:09:16.001Z</time></trkpt><trkpt lat="43.06940593114546" lon="11.678934253468224"><ele>365.6</ele><time>2026-04-11T14:09:22.001Z</time></trkpt><trkpt lat="43.069489790158144" lon="11.67890175208913"><ele>367.40000000000003</ele><time>2026-04-11T14:09:25Z</time></trkpt><trkpt lat="43.06956808233109" lon="11.678888927566504"><ele>369.20000000000005</ele><time>2026-04-11T14:09:28Z</time></trkpt><trkpt lat="43.06964559780102" lon="11.678873732238454"><ele>371.0</ele><time>2026-04-11T14:09:31Z</time></trkpt><trkpt lat="43.069719465920286" lon="11.678865210113214"><ele>371.0</ele><time>2026-04-11T14:09:34Z</time></trkpt><trkpt lat="43.06979512153134" lon="11.67885484744293"><ele>371.0</ele><time>2026-04-11T14:09:37Z</time></trkpt><trkpt lat="43.06992899265772" lon="11.678843638733044"><ele>371.0</ele><time>2026-04-11T14:09:43Z</time></trkpt><trkpt lat="43.07002604791819" lon="11.678835584508573"><ele>371.0</ele><time>2026-04-11T14:09:46Z</time></trkpt><trkpt lat="43.07010643589639" lon="11.678822157354473"><ele>371.0</ele><time>2026-04-11T14:09:50Z</time></trkpt><trkpt lat="43.070175305701355" lon="11.67881516425803"><ele>372.8</ele><time>2026-04-11T14:09:53Z</time></trkpt><trkpt lat="43.07024693243954" lon="11.678811621343554"><ele>374.6</ele><time>2026-04-11T14:09:56Z</time></trkpt><trkpt lat="43.07032342893253" lon="11.678802983425884"><ele>376.4</ele><time>2026-04-11T14:09:59Z</time></trkpt><trkpt lat="43.07048015152545" lon="11.678791518865962"><ele>378.2</ele><time>2026-04-11T14:10:05Z</time></trkpt><trkpt lat="43.07055166077797" lon="11.678781314118623"><ele>380.0</ele><time>2026-04-11T14:10:08Z</time></trkpt><trkpt lat="43.070626613107095" lon="11.678772727209568"><ele>380.0</ele><time>2026-04-11T14:10:11Z</time></trkpt><trkpt lat="43.0707052712818" lon="11.678763285317766"><ele>380.0</ele><time>2026-04-11T14:10:14Z</time></trkpt><trkpt lat="43.070786560099336" lon="11.678755747665745"><ele>380.0</ele><time>2026-04-11T14:10:17Z</time></trkpt><trkpt lat="43.070868493815816" lon="11.678747808789247"><ele>380.0</ele><time>2026-04-11T14:10:20Z</time></trkpt><trkpt lat="43.07101627781539" lon="11.678724552546788"><ele>380.0</ele><time>2026-04-11T14:10:26Z</time></trkpt><trkpt lat="43.07109737961123" lon="11.678722032815225"><ele>381.4</ele><time>2026-04-11T14:10:29Z</time></trkpt><trkpt lat="43.071179089237155" lon="11.678718080094384"><ele>382.8</ele><time>2026-04-11T14:10:32Z</time></trkpt><trkpt lat="43.07125877188675" lon="11.678712141190141"><ele>384.20000000000005</ele><time>2026-04-11T14:10:35Z</time></trkpt><trkpt lat="43.07134556584498" lon="11.678703830669622"><ele>385.6</ele><time>2026-04-11T14:10:38Z</time></trkpt><trkpt lat="43.07142172667048" lon="11.678687581997513"><ele>387.0</ele><time>2026-04-11T14:10:41Z</time></trkpt><trkpt lat="43.071564603378555" lon="11.678674729904149"><ele>388.3333333333333</ele><time>2026-04-11T14:10:47Z</time></trkpt><trkpt lat="43.07164487939073" lon="11.678655992313828"><ele>389.66666666666663</ele><time>2026-04-11T14:10:50.001Z</time></trkpt><trkpt lat="43.071735693985495" lon="11.678645804645946"><ele>391.0</ele><time>2026-04-11T14:10:53.001Z</time></trkpt><trkpt lat="43.07180602627712" lon="11.678634778026504"><ele>392.3333333333333</ele><time>2026-04-11T14:10:56.001Z</time></trkpt><trkpt lat="43.07188565930024" lon="11.678625501542708"><ele>393.66666666666663</ele><time>2026-04-11T14:10:59.001Z</time></trkpt><trkpt lat="43.07194905230083" lon="11.678618488417444"><ele>395.0</ele><time>2026-04-11T14:11:01.001Z</time></trkpt><trkpt lat="43.072012721643965" lon="11.678629714420852"><ele>394.99999999999994</ele><time>2026-04-11T14:11:04.001Z</time></trkpt><trkpt lat="43.0721333532176" lon="11.678728348265329"><ele>395.0</ele><time>2026-04-11T14:11:10.001Z</time></trkpt><trkpt lat="43.072167129154344" lon="11.678805020247445"><ele>395.0</ele><time>2026-04-11T14:11:13.001Z</time></trkpt><trkpt lat="43.07218824496354" lon="11.678896336296608"><ele>395.0</ele><time>2026-04-11T14:11:15.001Z</time></trkpt><trkpt lat="43.072179560026576" lon="11.6789968749818"><ele>394.99999999999994</ele><time>2026-04-11T14:11:19.001Z</time></trkpt><trkpt lat="43.07215971357921" lon="11.679104863488849"><ele>395.0</ele><time>2026-04-11T14:11:23.001Z</time></trkpt><trkpt lat="43.07214094911522" lon="11.679190942429306"><ele>395.0</ele><time>2026-04-11T14:11:26.001Z</time></trkpt><trkpt lat="43.07208870998765" lon="11.679384036815067"><ele>395.0</ele><time>2026-04-11T14:11:33Z</time></trkpt><trkpt lat="43.07206837245943" lon="11.679473705463959"><ele>395.0</ele><time>2026-04-11T14:11:36Z</time></trkpt><trkpt lat="43.07203849759427" lon="11.679560220731577"><ele>395.0</ele><time>2026-04-11T14:11:39Z</time></trkpt><trkpt lat="43.07201582031732" lon="11.679669126269184"><ele>395.0</ele><time>2026-04-11T14:11:42Z</time></trkpt><trkpt lat="43.07199355949172" lon="11.679773396082693"><ele>395.8</ele><time>2026-04-11T14:11:44Z</time></trkpt><trkpt lat="43.07196951010574" lon="11.679886805241006"><ele>396.6</ele><time>2026-04-11T14:11:48Z</time></trkpt><trkpt lat="43.07201156543004" lon="11.680137452142455"><ele>397.4</ele><time>2026-04-11T14:11:54Z</time></trkpt><trkpt lat="43.07206804665662" lon="11.680199529904709"><ele>398.2</ele><time>2026-04-11T14:11:57Z</time></trkpt><trkpt lat="43.072154986693526" lon="11.680251768519575"><ele>399.0</ele><time>2026-04-11T14:11:59Z</time></trkpt><trkpt lat="43.072220370394085" lon="11.680249479636098"><ele>399.0</ele><time>2026-04-11T14:12:01Z</time></trkpt><trkpt lat="43.07228459988254" lon="11.68024922540251"><ele>399.0</ele><time>2026-04-11T14:12:03Z</time></trkpt><trkpt lat="43.072362683781854" lon="11.680182204735322"><ele>399.0</ele><time>2026-04-11T14:12:06Z</time></trkpt><trkpt lat="43.07240460659846" lon="11.680109351666527"><ele>399.0</ele><time>2026-04-11T14:12:08Z</time></trkpt><trkpt lat="43.07245227072325" lon="11.680028149514596"><ele>399.0</ele><time>2026-04-11T14:12:11Z</time></trkpt><trkpt lat="43.07253800226148" lon="11.67983665720027"><ele>399.85714285714283</ele><time>2026-04-11T14:12:15Z</time></trkpt><trkpt lat="43.07258019791986" lon="11.679754891292744"><ele>400.7142857142857</ele><time>2026-04-11T14:12:17Z</time></trkpt><trkpt lat="43.07261664655504" lon="11.679672181819942"><ele>401.57142857142856</ele><time>2026-04-11T14:12:19Z</time></trkpt><trkpt lat="43.07265657513363" lon="11.679586579772248"><ele>402.42857142857144</ele><time>2026-04-11T14:12:21Z</time></trkpt><trkpt lat="43.072694010069156" lon="11.679504812892995"><ele>403.2857142857143</ele><time>2026-04-11T14:12:23Z</time></trkpt><trkpt lat="43.072728748206806" lon="11.679417568091097"><ele>404.1428571428571</ele><time>2026-04-11T14:12:25Z</time></trkpt><trkpt lat="43.07276530733732" lon="11.67933824254004"><ele>405.0</ele><time>2026-04-11T14:12:27Z</time></trkpt><trkpt lat="43.072800443958926" lon="11.679262930525502"><ele>405.0</ele><time>2026-04-11T14:12:29Z</time></trkpt><trkpt lat="43.07285701141078" lon="11.679159682374754"><ele>405.0</ele><time>2026-04-11T14:12:32Z</time></trkpt><trkpt lat="43.07294230290554" lon="11.679025588522034"><ele>405.0</ele><time>2026-04-11T14:12:36Z</time></trkpt><trkpt lat="43.07298762971491" lon="11.67896434079679"><ele>405.0</ele><time>2026-04-11T14:12:38Z</time></trkpt><trkpt lat="43.073031857855504" lon="11.678901712855241"><ele>405.0</ele><time>2026-04-11T14:12:40Z</time></trkpt><trkpt lat="43.07309947583647" lon="11.678826935750285"><ele>405.0</ele><time>2026-04-11T14:12:43Z</time></trkpt><trkpt lat="43.07315327050129" lon="11.678752141999396"><ele>405.0</ele><time>2026-04-11T14:12:46Z</time></trkpt><trkpt lat="43.07321666869882" lon="11.678684178297662"><ele>405.0</ele><time>2026-04-11T14:12:49Z</time></trkpt><trkpt lat="43.07327721070257" lon="11.678621957482383"><ele>405.0</ele><time>2026-04-11T14:12:52Z</time></trkpt><trkpt lat="43.0733356474229" lon="11.6785495604639"><ele>405.0</ele><time>2026-04-11T14:12:55Z</time></trkpt><trkpt lat="43.07343425560181" lon="11.678415997589836"><ele>405.0</ele><time>2026-04-11T14:13:02.001Z</time></trkpt><trkpt lat="43.07345550513609" lon="11.678331647126543"><ele>405.0</ele><time>2026-04-11T14:13:05.001Z</time></trkpt><trkpt lat="43.07351092029087" lon="11.67828724911259"><ele>405.6</ele><time>2026-04-11T14:13:08.001Z</time></trkpt><trkpt lat="43.0735466616793" lon="11.678190248611854"><ele>406.2</ele><time>2026-04-11T14:13:11.001Z</time></trkpt><trkpt lat="43.073581409083275" lon="11.678099977186237"><ele>406.79999999999995</ele><time>2026-04-11T14:13:14.001Z</time></trkpt><trkpt lat="43.073618308163226" lon="11.678015956669809"><ele>407.4</ele><time>2026-04-11T14:13:17.001Z</time></trkpt><trkpt lat="43.07369892694863" lon="11.67785910041773"><ele>408.0</ele><time>2026-04-11T14:13:23.001Z</time></trkpt><trkpt lat="43.07373366949219" lon="11.677746801309006"><ele>408.0</ele><time>2026-04-11T14:13:26.001Z</time></trkpt><trkpt lat="43.07378469523552" lon="11.677637520117262"><ele>408.0</ele><time>2026-04-11T14:13:29.001Z</time></trkpt><trkpt lat="43.07381718928841" lon="11.677551449973764"><ele>408.0</ele><time>2026-04-11T14:13:32.001Z</time></trkpt><trkpt lat="43.073859575394806" lon="11.677456869383798"><ele>408.0</ele><time>2026-04-11T14:13:35.001Z</time></trkpt><trkpt lat="43.073899643925266" lon="11.677360121003273"><ele>408.0</ele><time>2026-04-11T14:13:38Z</time></trkpt><trkpt lat="43.07396445806939" lon="11.677175976327513"><ele>408.0</ele><time>2026-04-11T14:13:44Z</time></trkpt><trkpt lat="43.07399558377706" lon="11.677093732493425"><ele>408.0</ele><time>2026-04-11T14:13:47Z</time></trkpt><trkpt lat="43.07402707307355" lon="11.676999510157913"><ele>408.0</ele><time>2026-04-11T14:13:50Z</time></trkpt><trkpt lat="43.07404881945844" lon="11.676899761989011"><ele>408.0</ele><time>2026-04-11T14:13:53Z</time></trkpt><trkpt lat="43.074070320371455" lon="11.676815318232217"><ele>408.0</ele><time>2026-04-11T14:13:56Z</time></trkpt><trkpt lat="43.074091215812864" lon="11.676733006172256"><ele>408.0</ele><time>2026-04-11T14:13:59Z</time></trkpt><trkpt lat="43.074153304466286" lon="11.676527031194025"><ele>411.3333333333333</ele><time>2026-04-11T14:14:05Z</time></trkpt><trkpt lat="43.074182273671745" lon="11.676423597941556"><ele>414.66666666666663</ele><time>2026-04-11T14:14:08Z</time></trkpt><trkpt lat="43.07421271412438" lon="11.676336829902773"><ele>418.0</ele><time>2026-04-11T14:14:11Z</time></trkpt><trkpt lat="43.07425213250606" lon="11.676250474344917"><ele>421.3333333333333</ele><time>2026-04-11T14:14:14Z</time></trkpt><trkpt lat="43.07429020983013" lon="11.676170928762776"><ele>424.66666666666663</ele><time>2026-04-11T14:14:17Z</time></trkpt><trkpt lat="43.07432927847756" lon="11.676088739369765"><ele>428.0</ele><time>2026-04-11T14:14:20Z</time></trkpt><trkpt lat="43.07440894695166" lon="11.675921266513749"><ele>427.99999999999994</ele><time>2026-04-11T14:14:26Z</time></trkpt><trkpt lat="43.074445407006394" lon="11.675832922876815"><ele>428.0</ele><time>2026-04-11T14:14:29Z</time></trkpt><trkpt lat="43.07449215884073" lon="11.67574646079818"><ele>428.0</ele><time>2026-04-11T14:14:32Z</time></trkpt><trkpt lat="43.07453990121657" lon="11.675647596642527"><ele>428.0</ele><time>2026-04-11T14:14:35Z</time></trkpt><trkpt lat="43.07458123350337" lon="11.675582164585288"><ele>427.99999999999994</ele><time>2026-04-11T14:14:37Z</time></trkpt><trkpt lat="43.07461992357393" lon="11.675493334438231"><ele>428.0</ele><time>2026-04-11T14:14:40Z</time></trkpt><trkpt lat="43.07468424889019" lon="11.67542504471616"><ele>428.0</ele><time>2026-04-11T14:14:43Z</time></trkpt><trkpt lat="43.074806873584976" lon="11.675277627801048"><ele>427.99999999999994</ele><time>2026-04-11T14:14:49Z</time></trkpt><trkpt lat="43.07488707337776" lon="11.67522931098628"><ele>427.99999999999994</ele><time>2026-04-11T14:14:52Z</time></trkpt><trkpt lat="43.074964871096064" lon="11.675183137619024"><ele>428.0</ele><time>2026-04-11T14:14:54.001Z</time></trkpt><trkpt lat="43.07503314180984" lon="11.675158283598108"><ele>428.0</ele><time>2026-04-11T14:14:56.001Z</time></trkpt><trkpt lat="43.07510118762522" lon="11.675122181623697"><ele>429.0</ele><time>2026-04-11T14:14:58.001Z</time></trkpt><trkpt lat="43.075186135332714" lon="11.675068580410208"><ele>429.99999999999994</ele><time>2026-04-11T14:15:01.001Z</time></trkpt><trkpt lat="43.07524340351231" lon="11.675027862526802"><ele>430.99999999999994</ele><time>2026-04-11T14:15:03.001Z</time></trkpt><trkpt lat="43.075301031763445" lon="11.67498673888582"><ele>432.0</ele><time>2026-04-11T14:15:05.001Z</time></trkpt><trkpt lat="43.0754391666739" lon="11.674877736966225"><ele>433.0</ele><time>2026-04-11T14:15:10.001Z</time></trkpt><trkpt lat="43.07551761296208" lon="11.67481243814343"><ele>433.00000000000006</ele><time>2026-04-11T14:15:13.001Z</time></trkpt><trkpt lat="43.07557433141982" lon="11.674770034482938"><ele>433.0</ele><time>2026-04-11T14:15:15.001Z</time></trkpt><trkpt lat="43.07564762036168" lon="11.674703921036345"><ele>433.0</ele><time>2026-04-11T14:15:18.001Z</time></trkpt><trkpt lat="43.0757201694682" lon="11.67464187993287"><ele>433.0</ele><time>2026-04-11T14:15:21.001Z</time></trkpt><trkpt lat="43.075787354769" lon="11.674595742530341"><ele>433.00000000000006</ele><time>2026-04-11T14:15:24.001Z</time></trkpt><trkpt lat="43.07584974963231" lon="11.674544793732858"><ele>433.0</ele><time>2026-04-11T14:15:26.001Z</time></trkpt><trkpt lat="43.075999948936406" lon="11.674411894035316"><ele>433.6666666666667</ele><time>2026-04-11T14:15:32.001Z</time></trkpt><trkpt lat="43.07608280699836" lon="11.674359172584438"><ele>434.33333333333337</ele><time>2026-04-11T14:15:35.001Z</time></trkpt><trkpt lat="43.07615898257072" lon="11.674296882886734"><ele>435.0</ele><time>2026-04-11T14:15:38.001Z</time></trkpt><trkpt lat="43.07623321595688" lon="11.674220052460756"><ele>435.66666666666663</ele><time>2026-04-11T14:15:41.001Z</time></trkpt><trkpt lat="43.07631465807112" lon="11.674127922118794"><ele>436.3333333333333</ele><time>2026-04-11T14:15:45Z</time></trkpt><trkpt lat="43.07635992762009" lon="11.674067454111812"><ele>437.0</ele><time>2026-04-11T14:15:48Z</time></trkpt><trkpt lat="43.07645116505648" lon="11.673908498923888"><ele>436.99999999999994</ele><time>2026-04-11T14:15:53Z</time></trkpt><trkpt lat="43.07649979706441" lon="11.673813907375845"><ele>437.0</ele><time>2026-04-11T14:15:56Z</time></trkpt><trkpt lat="43.076561111215945" lon="11.673697601109403"><ele>437.0</ele><time>2026-04-11T14:15:58Z</time></trkpt><trkpt lat="43.07659968952637" lon="11.673616485156725"><ele>437.0</ele><time>2026-04-11T14:16:00Z</time></trkpt><trkpt lat="43.0766375250593" lon="11.673534154603281"><ele>436.99999999999994</ele><time>2026-04-11T14:16:02Z</time></trkpt><trkpt lat="43.07667706619442" lon="11.673459951620599"><ele>437.0</ele><time>2026-04-11T14:16:04Z</time></trkpt><trkpt lat="43.07671477018088" lon="11.673388001237555"><ele>438.8</ele><time>2026-04-11T14:16:06Z</time></trkpt><trkpt lat="43.07677510809345" lon="11.67329233478836"><ele>440.6</ele><time>2026-04-11T14:16:09Z</time></trkpt><trkpt lat="43.07691900624534" lon="11.673336656365791"><ele>442.40000000000003</ele><time>2026-04-11T14:16:15Z</time></trkpt><trkpt lat="43.07693037125664" lon="11.673428931067049"><ele>444.20000000000005</ele><time>2026-04-11T14:16:17Z</time></trkpt><trkpt lat="43.07692625701326" lon="11.673517295678511"><ele>446.0</ele><time>2026-04-11T14:16:19Z</time></trkpt><trkpt lat="43.076924689799846" lon="11.673627785067445"><ele>447.20000000000005</ele><time>2026-04-11T14:16:22Z</time></trkpt><trkpt lat="43.07692594041035" lon="11.673749603250357"><ele>448.40000000000003</ele><time>2026-04-11T14:16:25Z</time></trkpt><trkpt lat="43.07693027664698" lon="11.673837200442282"><ele>449.6</ele><time>2026-04-11T14:16:27Z</time></trkpt><trkpt lat="43.07693958921691" lon="11.673927185362762"><ele>450.8</ele><time>2026-04-11T14:16:29Z</time></trkpt><trkpt lat="43.07695966522764" lon="11.674039316221926"><ele>452.0</ele><time>2026-04-11T14:16:31Z</time></trkpt><trkpt lat="43.07696798819073" lon="11.674257423812842"><ele>452.0</ele><time>2026-04-11T14:16:36Z</time></trkpt><trkpt lat="43.076947511534485" lon="11.674338979740474"><ele>452.0</ele><time>2026-04-11T14:16:38Z</time></trkpt><trkpt lat="43.07692084882542" lon="11.674418746902894"><ele>452.0</ele><time>2026-04-11T14:16:40Z</time></trkpt><trkpt lat="43.07689456905314" lon="11.674497541567241"><ele>452.0</ele><time>2026-04-11T14:16:42Z</time></trkpt><trkpt lat="43.07686912480098" lon="11.674577147950801"><ele>452.0</ele><time>2026-04-11T14:16:44Z</time></trkpt><trkpt lat="43.0768382110109" lon="11.67465608028579"><ele>452.0</ele><time>2026-04-11T14:16:46Z</time></trkpt><trkpt lat="43.076814522368366" lon="11.674736269571675"><ele>452.0</ele><time>2026-04-11T14:16:48Z</time></trkpt><trkpt lat="43.07678402934723" lon="11.674846109836157"><ele>453.8</ele><time>2026-04-11T14:16:51Z</time></trkpt><trkpt lat="43.076752608265934" lon="11.674935925757755"><ele>455.6</ele><time>2026-04-11T14:16:54.001Z</time></trkpt><trkpt lat="43.07669733278695" lon="11.675150816938128"><ele>457.40000000000003</ele><time>2026-04-11T14:17:00.001Z</time></trkpt><trkpt lat="43.07667748168428" lon="11.675260051506237"><ele>459.20000000000005</ele><time>2026-04-11T14:17:03.001Z</time></trkpt><trkpt lat="43.076646522032625" lon="11.67536399748023"><ele>461.0</ele><time>2026-04-11T14:17:06.001Z</time></trkpt><trkpt lat="43.076623294434334" lon="11.675467055520125"><ele>459.4</ele><time>2026-04-11T14:17:09.001Z</time></trkpt><trkpt lat="43.07658719782084" lon="11.675577112171553"><ele>457.8</ele><time>2026-04-11T14:17:12.001Z</time></trkpt><trkpt lat="43.07656663203187" lon="11.67567377495417"><ele>456.19999999999993</ele><time>2026-04-11T14:17:15.001Z</time></trkpt><trkpt lat="43.07651879706761" lon="11.675873697885848"><ele>454.59999999999997</ele><time>2026-04-11T14:17:21.001Z</time></trkpt><trkpt lat="43.076490785300564" lon="11.675975345342163"><ele>453.0</ele><time>2026-04-11T14:17:24.001Z</time></trkpt><trkpt lat="43.07646035236161" lon="11.676083001453671"><ele>454.79999999999995</ele><time>2026-04-11T14:17:27.001Z</time></trkpt><trkpt lat="43.076429830432104" lon="11.676199651901625"><ele>456.59999999999997</ele><time>2026-04-11T14:17:30.001Z</time></trkpt><trkpt lat="43.076398826371666" lon="11.67630433868571"><ele>458.40000000000003</ele><time>2026-04-11T14:17:32.001Z</time></trkpt><trkpt lat="43.07636899281874" lon="11.676423978367772"><ele>460.20000000000005</ele><time>2026-04-11T14:17:35.001Z</time></trkpt><trkpt lat="43.07633416221164" lon="11.676539267301981"><ele>462.0</ele><time>2026-04-11T14:17:38.001Z</time></trkpt><trkpt lat="43.076259673615986" lon="11.676734195344876"><ele>462.0</ele><time>2026-04-11T14:17:44.001Z</time></trkpt><trkpt lat="43.07622308589968" lon="11.676818427002505"><ele>462.0</ele><time>2026-04-11T14:17:47.001Z</time></trkpt><trkpt lat="43.07618010448264" lon="11.676916363513278"><ele>462.0</ele><time>2026-04-11T14:17:50Z</time></trkpt><trkpt lat="43.07614516043771" lon="11.67700421612088"><ele>462.0</ele><time>2026-04-11T14:17:52Z</time></trkpt><trkpt lat="43.076122508999994" lon="11.67712396137316"><ele>462.0</ele><time>2026-04-11T14:17:55Z</time></trkpt><trkpt lat="43.07610103701884" lon="11.677250961274211"><ele>462.0</ele><time>2026-04-11T14:17:58Z</time></trkpt><trkpt lat="43.07607832989186" lon="11.67736893992257"><ele>463.6</ele><time>2026-04-11T14:18:01Z</time></trkpt><trkpt lat="43.076034196332586" lon="11.677561918052026"><ele>465.20000000000005</ele><time>2026-04-11T14:18:07Z</time></trkpt><trkpt lat="43.07601504210688" lon="11.677673611064554"><ele>466.8</ele><time>2026-04-11T14:18:10Z</time></trkpt><trkpt lat="43.07600109672892" lon="11.677764647973968"><ele>468.4</ele><time>2026-04-11T14:18:13Z</time></trkpt><trkpt lat="43.07599019595903" lon="11.677854527674466"><ele>470.0</ele><time>2026-04-11T14:18:16Z</time></trkpt><trkpt lat="43.07597332725558" lon="11.677974649938983"><ele>471.4</ele><time>2026-04-11T14:18:19Z</time></trkpt><trkpt lat="43.075957552824065" lon="11.678091315287398"><ele>472.8</ele><time>2026-04-11T14:18:22Z</time></trkpt><trkpt lat="43.075926127471654" lon="11.678307542404795"><ele>474.20000000000005</ele><time>2026-04-11T14:18:28Z</time></trkpt><trkpt lat="43.07592232411479" lon="11.678411256007813"><ele>475.6</ele><time>2026-04-11T14:18:31Z</time></trkpt><trkpt lat="43.07590872004667" lon="11.678496268617632"><ele>477.0</ele><time>2026-04-11T14:18:34Z</time></trkpt><trkpt lat="43.07592399495916" lon="11.678599563212144"><ele>477.40000000000003</ele><time>2026-04-11T14:18:37Z</time></trkpt><trkpt lat="43.075916744920825" lon="11.678686785069734"><ele>477.80000000000007</ele><time>2026-04-11T14:18:39Z</time></trkpt><trkpt lat="43.07593686418339" lon="11.678778592038789"><ele>478.2</ele><time>2026-04-11T14:18:42Z</time></trkpt><trkpt lat="43.07594561999717" lon="11.678875229288836"><ele>478.6</ele><time>2026-04-11T14:18:45Z</time></trkpt><trkpt lat="43.07596925697795" lon="11.679125945401484"><ele>479.0</ele><time>2026-04-11T14:18:52Z</time></trkpt><trkpt lat="43.075990134836644" lon="11.679207806635736"><ele>479.0</ele><time>2026-04-11T14:18:55Z</time></trkpt><trkpt lat="43.075994576831995" lon="11.6793267594229"><ele>479.0</ele><time>2026-04-11T14:18:58.001Z</time></trkpt><trkpt lat="43.07600516130179" lon="11.67943736618853"><ele>479.0</ele><time>2026-04-11T14:19:01.001Z</time></trkpt><trkpt lat="43.076027240803484" lon="11.679520329047447"><ele>479.0</ele><time>2026-04-11T14:19:04.001Z</time></trkpt><trkpt lat="43.07603984976167" lon="11.679644901110645"><ele>479.0</ele><time>2026-04-11T14:19:07.001Z</time></trkpt><trkpt lat="43.076012701204284" lon="11.679939186493112"><ele>478.8333333333333</ele><time>2026-04-11T14:19:13.001Z</time></trkpt><trkpt lat="43.07599548173242" lon="11.68006526323901"><ele>478.66666666666663</ele><time>2026-04-11T14:19:16.001Z</time></trkpt><trkpt lat="43.07598976166272" lon="11.680151280163747"><ele>478.5</ele><time>2026-04-11T14:19:18.001Z</time></trkpt><trkpt lat="43.07598957857912" lon="11.68024343868873"><ele>478.33333333333337</ele><time>2026-04-11T14:19:20.001Z</time></trkpt><trkpt lat="43.075978790249835" lon="11.680338517618578"><ele>478.1666666666667</ele><time>2026-04-11T14:19:22.001Z</time></trkpt><trkpt lat="43.07596553673618" lon="11.680448085811909"><ele>478.0</ele><time>2026-04-11T14:19:24.001Z</time></trkpt><trkpt lat="43.075952937816396" lon="11.680622043136518"><ele>478.0</ele><time>2026-04-11T14:19:26.001Z</time></trkpt><trkpt lat="43.07597772379794" lon="11.680760286766157"><ele>478.0</ele><time>2026-04-11T14:19:28.001Z</time></trkpt><trkpt lat="43.07602471024078" lon="11.681020489642657"><ele>478.0</ele><time>2026-04-11T14:19:32.001Z</time></trkpt><trkpt lat="43.07604836224876" lon="11.681134753037348"><ele>478.0</ele><time>2026-04-11T14:19:34.001Z</time></trkpt><trkpt lat="43.07607269894909" lon="11.68124182193603"><ele>477.0</ele><time>2026-04-11T14:19:36.001Z</time></trkpt><trkpt lat="43.076087677858375" lon="11.681345408673135"><ele>475.99999999999994</ele><time>2026-04-11T14:19:38.001Z</time></trkpt><trkpt lat="43.07610533568853" lon="11.68145383684123"><ele>474.99999999999994</ele><time>2026-04-11T14:19:40.001Z</time></trkpt><trkpt lat="43.07613001469564" lon="11.681576348942999"><ele>474.0</ele><time>2026-04-11T14:19:42.001Z</time></trkpt><trkpt lat="43.076190859035655" lon="11.681702112313939"><ele>473.0</ele><time>2026-04-11T14:19:44.001Z</time></trkpt><trkpt lat="43.076276210113505" lon="11.681813056033754"><ele>473.0</ele><time>2026-04-11T14:19:46.001Z</time></trkpt><trkpt lat="43.07639023332848" lon="11.681861287821077"><ele>473.0</ele><time>2026-04-11T14:19:48.001Z</time></trkpt><trkpt lat="43.07649789205399" lon="11.681862761040941"><ele>473.0</ele><time>2026-04-11T14:19:50.001Z</time></trkpt><trkpt lat="43.07668746822209" lon="11.681845268767695"><ele>473.0</ele><time>2026-04-11T14:19:54.001Z</time></trkpt><trkpt lat="43.07677320531659" lon="11.68182553381083"><ele>474.66666666666663</ele><time>2026-04-11T14:19:56Z</time></trkpt><trkpt lat="43.076857390530236" lon="11.681819407378903"><ele>476.3333333333333</ele><time>2026-04-11T14:19:58Z</time></trkpt><trkpt lat="43.07692935677807" lon="11.681808453958789"><ele>478.0</ele><time>2026-04-11T14:20:00Z</time></trkpt><trkpt lat="43.077008857401715" lon="11.681762682475524"><ele>479.66666666666663</ele><time>2026-04-11T14:20:03Z</time></trkpt><trkpt lat="43.07704876372953" lon="11.681695505936716"><ele>481.3333333333333</ele><time>2026-04-11T14:20:05Z</time></trkpt><trkpt lat="43.07706274671549" lon="11.681573433599272"><ele>483.0</ele><time>2026-04-11T14:20:08Z</time></trkpt><trkpt lat="43.07707097997449" lon="11.681485216579244"><ele>483.0</ele><time>2026-04-11T14:20:10Z</time></trkpt><trkpt lat="43.07708594755054" lon="11.68137069903112"><ele>482.99999999999994</ele><time>2026-04-11T14:20:14Z</time></trkpt><trkpt lat="43.077105354992696" lon="11.681185070579511"><ele>482.99999999999994</ele><time>2026-04-11T14:20:19Z</time></trkpt><trkpt lat="43.07712334236084" lon="11.681081421791776"><ele>483.0</ele><time>2026-04-11T14:20:22Z</time></trkpt><trkpt lat="43.077145326232895" lon="11.680970962570822"><ele>483.0</ele><time>2026-04-11T14:20:25Z</time></trkpt><trkpt lat="43.07716864892649" lon="11.680877930849581"><ele>485.0</ele><time>2026-04-11T14:20:28Z</time></trkpt><trkpt lat="43.07719407286517" lon="11.680775792620235"><ele>486.99999999999994</ele><time>2026-04-11T14:20:31Z</time></trkpt><trkpt lat="43.07719905159351" lon="11.680658440938275"><ele>488.99999999999994</ele><time>2026-04-11T14:20:34Z</time></trkpt><trkpt lat="43.07722314767669" lon="11.68057146244258"><ele>491.0</ele><time>2026-04-11T14:20:36Z</time></trkpt><trkpt lat="43.07728736701613" lon="11.680338946419944"><ele>493.0</ele><time>2026-04-11T14:20:39Z</time></trkpt><trkpt lat="43.0773206252003" lon="11.6802046351172"><ele>493.59999999999997</ele><time>2026-04-11T14:20:41Z</time></trkpt><trkpt lat="43.07735111869628" lon="11.680062818577825"><ele>494.19999999999993</ele><time>2026-04-11T14:20:43Z</time></trkpt><trkpt lat="43.07738912923354" lon="11.679922225786466"><ele>494.8</ele><time>2026-04-11T14:20:45Z</time></trkpt><trkpt lat="43.07742183434114" lon="11.679781948806848"><ele>495.4</ele><time>2026-04-11T14:20:47Z</time></trkpt><trkpt lat="43.07745061285717" lon="11.679646049209296"><ele>496.0</ele><time>2026-04-11T14:20:49Z</time></trkpt><trkpt lat="43.07748408751303" lon="11.679518284752518"><ele>494.75</ele><time>2026-04-11T14:20:51Z</time></trkpt><trkpt lat="43.077508916262836" lon="11.679384783690496"><ele>493.5</ele><time>2026-04-11T14:20:53Z</time></trkpt><trkpt lat="43.07752501303761" lon="11.679242240286264"><ele>492.25</ele><time>2026-04-11T14:20:55Z</time></trkpt><trkpt lat="43.07752841315821" lon="11.6790919305596"><ele>491.0</ele><time>2026-04-11T14:20:57Z</time></trkpt><trkpt lat="43.077597293860634" lon="11.678820993992868"><ele>490.99999999999994</ele><time>2026-04-11T14:21:01Z</time></trkpt><trkpt lat="43.07772141670759" lon="11.6788226392179"><ele>491.0</ele><time>2026-04-11T14:21:03.001Z</time></trkpt><trkpt lat="43.07784018847886" lon="11.678792881699502"><ele>491.0</ele><time>2026-04-11T14:21:05.001Z</time></trkpt><trkpt lat="43.07788632735624" lon="11.678726630820751"><ele>491.0</ele><time>2026-04-11T14:21:06.001Z</time></trkpt><trkpt lat="43.07791555953582" lon="11.678641897207992"><ele>490.99999999999994</ele><time>2026-04-11T14:21:07.001Z</time></trkpt><trkpt lat="43.07793639155252" lon="11.67855453622692"><ele>491.0</ele><time>2026-04-11T14:21:08.001Z</time></trkpt><trkpt lat="43.077959697721525" lon="11.678469278248505"><ele>490.99999999999994</ele><time>2026-04-11T14:21:09.001Z</time></trkpt><trkpt lat="43.07798609066108" lon="11.67838228937316"><ele>491.0</ele><time>2026-04-11T14:21:10.001Z</time></trkpt><trkpt lat="43.07801686350408" lon="11.678298458750517"><ele>491.0</ele><time>2026-04-11T14:21:11.001Z</time></trkpt><trkpt lat="43.07804724855019" lon="11.678214062708413"><ele>491.0</ele><time>2026-04-11T14:21:12.001Z</time></trkpt><trkpt lat="43.078097723571254" lon="11.678080197770907"><ele>490.99999999999994</ele><time>2026-04-11T14:21:14.001Z</time></trkpt><trkpt lat="43.07813345040805" lon="11.677991250372905"><ele>491.0</ele><time>2026-04-11T14:21:16.001Z</time></trkpt><trkpt lat="43.078080118460925" lon="11.67788321432245"><ele>490.8</ele><time>2026-04-11T14:21:21.001Z</time></trkpt><trkpt lat="43.077963472896464" lon="11.67771005915951"><ele>490.6</ele><time>2026-04-11T14:21:25.001Z</time></trkpt><trkpt lat="43.07789304131507" lon="11.677652817685026"><ele>490.4</ele><time>2026-04-11T14:21:27.001Z</time></trkpt><trkpt lat="43.077829401216164" lon="11.677591077116652"><ele>490.2</ele><time>2026-04-11T14:21:29.001Z</time></trkpt><trkpt lat="43.07776488258683" lon="11.677532751187575"><ele>490.0</ele><time>2026-04-11T14:21:31.001Z</time></trkpt><trkpt lat="43.07770302593074" lon="11.677468071648178"><ele>490.0</ele><time>2026-04-11T14:21:33.001Z</time></trkpt><trkpt lat="43.077649580377276" lon="11.677385386078468"><ele>490.0</ele><time>2026-04-11T14:21:35.001Z</time></trkpt><trkpt lat="43.077655739509225" lon="11.677268607303485"><ele>490.0</ele><time>2026-04-11T14:21:37.001Z</time></trkpt><trkpt lat="43.07767642621659" lon="11.67716576597273"><ele>490.0</ele><time>2026-04-11T14:21:39.001Z</time></trkpt><trkpt lat="43.07770082942743" lon="11.677068625573614"><ele>490.0</ele><time>2026-04-11T14:21:41.001Z</time></trkpt><trkpt lat="43.07776339778155" lon="11.676829247559002"><ele>489.75</ele><time>2026-04-11T14:21:44.001Z</time></trkpt><trkpt lat="43.07789526644816" lon="11.676617657662614"><ele>489.5</ele><time>2026-04-11T14:21:48.001Z</time></trkpt><trkpt lat="43.077956030377635" lon="11.676525141343458"><ele>489.25</ele><time>2026-04-11T14:21:50.001Z</time></trkpt><trkpt lat="43.07802048493741" lon="11.676422248835449"><ele>489.0</ele><time>2026-04-11T14:21:52.001Z</time></trkpt><trkpt lat="43.07808438304343" lon="11.676313699721398"><ele>489.0</ele><time>2026-04-11T14:21:54.001Z</time></trkpt><trkpt lat="43.07813939433432" lon="11.676180320136528"><ele>489.0</ele><time>2026-04-11T14:21:56.001Z</time></trkpt><trkpt lat="43.07823394594426" lon="11.676087171115986"><ele>489.0</ele><time>2026-04-11T14:21:58.001Z</time></trkpt><trkpt lat="43.07831225491655" lon="11.675970409059305"><ele>489.0</ele><time>2026-04-11T14:22:00.001Z</time></trkpt><trkpt lat="43.078395413327925" lon="11.675846581185121"><ele>489.0</ele><time>2026-04-11T14:22:02Z</time></trkpt><trkpt lat="43.07846420815146" lon="11.675727408918087"><ele>489.0</ele><time>2026-04-11T14:22:04Z</time></trkpt><trkpt lat="43.07854398204125" lon="11.6756009402178"><ele>489.0</ele><time>2026-04-11T14:22:06Z</time></trkpt><trkpt lat="43.078701416480925" lon="11.675359507183714"><ele>488.75</ele><time>2026-04-11T14:22:10Z</time></trkpt><trkpt lat="43.07877943593232" lon="11.675236467283563"><ele>488.5</ele><time>2026-04-11T14:22:12Z</time></trkpt><trkpt lat="43.07884892921339" lon="11.675125480212968"><ele>488.25</ele><time>2026-04-11T14:22:14Z</time></trkpt><trkpt lat="43.078916586364144" lon="11.675005035814875"><ele>488.0</ele><time>2026-04-11T14:22:16Z</time></trkpt><trkpt lat="43.078998548052255" lon="11.674889460913999"><ele>488.0</ele><time>2026-04-11T14:22:18Z</time></trkpt><trkpt lat="43.07908658427771" lon="11.674783510766252"><ele>487.99999999999994</ele><time>2026-04-11T14:22:20Z</time></trkpt><trkpt lat="43.0791525132097" lon="11.674646353130486"><ele>487.99999999999994</ele><time>2026-04-11T14:22:22Z</time></trkpt><trkpt lat="43.079236101790435" lon="11.674516336632212"><ele>488.0</ele><time>2026-04-11T14:22:24Z</time></trkpt><trkpt lat="43.079280281536676" lon="11.674447730725374"><ele>488.0</ele><time>2026-04-11T14:22:25Z</time></trkpt><trkpt lat="43.079325573787116" lon="11.674376334533818"><ele>487.66666666666663</ele><time>2026-04-11T14:22:26Z</time></trkpt><trkpt lat="43.07936362159677" lon="11.6742893776941"><ele>487.3333333333333</ele><time>2026-04-11T14:22:27Z</time></trkpt><trkpt lat="43.0794287601482" lon="11.674112037904958"><ele>487.0</ele><time>2026-04-11T14:22:29Z</time></trkpt><trkpt lat="43.07946951659443" lon="11.674027514044793"><ele>486.66666666666663</ele><time>2026-04-11T14:22:30Z</time></trkpt><trkpt lat="43.07951209641842" lon="11.673942575321608"><ele>486.3333333333333</ele><time>2026-04-11T14:22:31Z</time></trkpt><trkpt lat="43.07954961141543" lon="11.673852941870381"><ele>486.0</ele><time>2026-04-11T14:22:32Z</time></trkpt><trkpt lat="43.07959254821118" lon="11.673763114554244"><ele>486.0</ele><time>2026-04-11T14:22:33Z</time></trkpt><trkpt lat="43.079636756614526" lon="11.673673719548251"><ele>486.0</ele><time>2026-04-11T14:22:34Z</time></trkpt><trkpt lat="43.07968181767724" lon="11.673581811340538"><ele>486.0</ele><time>2026-04-11T14:22:35Z</time></trkpt><trkpt lat="43.07972254200563" lon="11.673493515558802"><ele>486.0</ele><time>2026-04-11T14:22:36Z</time></trkpt><trkpt lat="43.07975941583333" lon="11.673398663252149"><ele>486.0</ele><time>2026-04-11T14:22:37Z</time></trkpt><trkpt lat="43.079809510277805" lon="11.67331950878555"><ele>486.0</ele><time>2026-04-11T14:22:38Z</time></trkpt><trkpt lat="43.07987147025466" lon="11.673259956326048"><ele>486.0</ele><time>2026-04-11T14:22:39Z</time></trkpt><trkpt lat="43.0799235178084" lon="11.673193711820083"><ele>486.0</ele><time>2026-04-11T14:22:40Z</time></trkpt><trkpt lat="43.079970637608525" lon="11.67311532228971"><ele>486.0</ele><time>2026-04-11T14:22:41Z</time></trkpt><trkpt lat="43.08001808600797" lon="11.673033828062884"><ele>486.0</ele><time>2026-04-11T14:22:42Z</time></trkpt><trkpt lat="43.08006833506968" lon="11.672965013386062"><ele>486.0</ele><time>2026-04-11T14:22:43Z</time></trkpt><trkpt lat="43.080118002361345" lon="11.672893273530985"><ele>486.0</ele><time>2026-04-11T14:22:44Z</time></trkpt><trkpt lat="43.08016789963168" lon="11.67282080386951"><ele>486.0</ele><time>2026-04-11T14:22:45Z</time></trkpt><trkpt lat="43.080219953586194" lon="11.67274745317111"><ele>485.4</ele><time>2026-04-11T14:22:46Z</time></trkpt><trkpt lat="43.08027851232548" lon="11.672681679784837"><ele>484.8</ele><time>2026-04-11T14:22:47Z</time></trkpt><trkpt lat="43.08033378813132" lon="11.672614425144726"><ele>484.19999999999993</ele><time>2026-04-11T14:22:48Z</time></trkpt><trkpt lat="43.0804419970794" lon="11.672468881147394"><ele>483.59999999999997</ele><time>2026-04-11T14:22:50Z</time></trkpt><trkpt lat="43.08049703290901" lon="11.672391663665856"><ele>483.0</ele><time>2026-04-11T14:22:51Z</time></trkpt><trkpt lat="43.08055494168416" lon="11.672317861252253"><ele>483.0</ele><time>2026-04-11T14:22:52Z</time></trkpt><trkpt lat="43.080614112974466" lon="11.672249149058384"><ele>483.0</ele><time>2026-04-11T14:22:53Z</time></trkpt><trkpt lat="43.08067388605023" lon="11.672178312925553"><ele>483.0</ele><time>2026-04-11T14:22:54Z</time></trkpt><trkpt lat="43.08073246158409" lon="11.672099892833911"><ele>483.0</ele><time>2026-04-11T14:22:55Z</time></trkpt><trkpt lat="43.08079151940084" lon="11.672024743513667"><ele>483.0</ele><time>2026-04-11T14:22:56Z</time></trkpt><trkpt lat="43.080851722441764" lon="11.671954661342328"><ele>483.0</ele><time>2026-04-11T14:22:57Z</time></trkpt><trkpt lat="43.08091633347001" lon="11.67189005417923"><ele>482.6666666666667</ele><time>2026-04-11T14:22:58Z</time></trkpt><trkpt lat="43.080979633597536" lon="11.67183382846308"><ele>482.33333333333337</ele><time>2026-04-11T14:22:59Z</time></trkpt><trkpt lat="43.081043256368986" lon="11.671777152233778"><ele>482.0</ele><time>2026-04-11T14:23:00Z</time></trkpt><trkpt lat="43.081106959617266" lon="11.67172170644004"><ele>481.6666666666667</ele><time>2026-04-11T14:23:01Z</time></trkpt><trkpt lat="43.081173342041296" lon="11.671670846357742"><ele>481.33333333333337</ele><time>2026-04-11T14:23:02Z</time></trkpt><trkpt lat="43.0812426663107" lon="11.671633974160132"><ele>481.0</ele><time>2026-04-11T14:23:03Z</time></trkpt><trkpt lat="43.08131447001687" lon="11.67161221350503"><ele>481.00000000000006</ele><time>2026-04-11T14:23:04Z</time></trkpt><trkpt lat="43.081390119577904" lon="11.671601007802966"><ele>481.0</ele><time>2026-04-11T14:23:05Z</time></trkpt><trkpt lat="43.081468582271555" lon="11.671587816339597"><ele>481.0</ele><time>2026-04-11T14:23:06Z</time></trkpt><trkpt lat="43.08154366273914" lon="11.671566461615603"><ele>481.0</ele><time>2026-04-11T14:23:07.001Z</time></trkpt><trkpt lat="43.08161618908263" lon="11.671545676640967"><ele>481.00000000000006</ele><time>2026-04-11T14:23:08.001Z</time></trkpt><trkpt lat="43.08169072009835" lon="11.671521113211758"><ele>481.0</ele><time>2026-04-11T14:23:09.001Z</time></trkpt><trkpt lat="43.08182545049038" lon="11.671487067738049"><ele>480.42857142857133</ele><time>2026-04-11T14:23:11.001Z</time></trkpt><trkpt lat="43.08189566973488" lon="11.67146630365718"><ele>479.85714285714283</ele><time>2026-04-11T14:23:12.001Z</time></trkpt><trkpt lat="43.08196502468919" lon="11.671447224645688"><ele>479.2857142857142</ele><time>2026-04-11T14:23:13.001Z</time></trkpt><trkpt lat="43.08203807384749" lon="11.671424472815241"><ele>478.71428571428567</ele><time>2026-04-11T14:23:14.001Z</time></trkpt><trkpt lat="43.08210725238813" lon="11.67140241997914"><ele>478.1428571428571</ele><time>2026-04-11T14:23:15.001Z</time></trkpt><trkpt lat="43.082174271364615" lon="11.671372718253359"><ele>477.57142857142856</ele><time>2026-04-11T14:23:16.001Z</time></trkpt><trkpt lat="43.082239572426325" lon="11.671349037852359"><ele>477.0</ele><time>2026-04-11T14:23:17.001Z</time></trkpt><trkpt lat="43.08230616614706" lon="11.671350666793192"><ele>477.0</ele><time>2026-04-11T14:23:18.001Z</time></trkpt><trkpt lat="43.082369626771126" lon="11.671369701642439"><ele>477.0</ele><time>2026-04-11T14:23:19.001Z</time></trkpt><trkpt lat="43.08243333602496" lon="11.671379167517058"><ele>477.0</ele><time>2026-04-11T14:23:20.001Z</time></trkpt><trkpt lat="43.08254605686507" lon="11.671303319742053"><ele>477.0</ele><time>2026-04-11T14:23:22.001Z</time></trkpt><trkpt lat="43.08257813403873" lon="11.671215983435122"><ele>477.0</ele><time>2026-04-11T14:23:23.001Z</time></trkpt><trkpt lat="43.082596165550164" lon="11.671130925283917"><ele>477.0</ele><time>2026-04-11T14:23:24.001Z</time></trkpt><trkpt lat="43.08259101556481" lon="11.670961203705787"><ele>476.8</ele><time>2026-04-11T14:23:26.001Z</time></trkpt><trkpt lat="43.082638908948304" lon="11.67080016378181"><ele>476.6</ele><time>2026-04-11T14:23:28.001Z</time></trkpt><trkpt lat="43.082672901055595" lon="11.67071915265076"><ele>476.40000000000003</ele><time>2026-04-11T14:23:29.001Z</time></trkpt><trkpt lat="43.082712676674575" lon="11.670634491081973"><ele>476.20000000000005</ele><time>2026-04-11T14:23:30.001Z</time></trkpt><trkpt lat="43.082812500516525" lon="11.670475091841052"><ele>476.0</ele><time>2026-04-11T14:23:32.001Z</time></trkpt><trkpt lat="43.08285464891569" lon="11.670386792434247"><ele>475.99999999999994</ele><time>2026-04-11T14:23:33.001Z</time></trkpt><trkpt lat="43.082889566919725" lon="11.670286110838049"><ele>476.0</ele><time>2026-04-11T14:23:34.001Z</time></trkpt><trkpt lat="43.08292546555132" lon="11.670185122083991"><ele>476.0</ele><time>2026-04-11T14:23:35.001Z</time></trkpt><trkpt lat="43.08296311577499" lon="11.670082250993241"><ele>476.0</ele><time>2026-04-11T14:23:36.001Z</time></trkpt><trkpt lat="43.083000991159295" lon="11.669977859340568"><ele>475.99999999999994</ele><time>2026-04-11T14:23:37.001Z</time></trkpt><trkpt lat="43.0830417707884" lon="11.66987234184671"><ele>476.0</ele><time>2026-04-11T14:23:38.001Z</time></trkpt><trkpt lat="43.08307909360917" lon="11.669765219032778"><ele>475.8333333333333</ele><time>2026-04-11T14:23:39.001Z</time></trkpt><trkpt lat="43.08311535709167" lon="11.669655578345296"><ele>475.66666666666663</ele><time>2026-04-11T14:23:40.001Z</time></trkpt><trkpt lat="43.083149199481426" lon="11.669546370785792"><ele>475.5</ele><time>2026-04-11T14:23:41.001Z</time></trkpt><trkpt lat="43.08318708084587" lon="11.669441299217558"><ele>475.33333333333337</ele><time>2026-04-11T14:23:42.001Z</time></trkpt><trkpt lat="43.083227694368034" lon="11.669338229940164"><ele>475.1666666666667</ele><time>2026-04-11T14:23:43.001Z</time></trkpt><trkpt lat="43.083268651549865" lon="11.669229939726598"><ele>475.0</ele><time>2026-04-11T14:23:44.001Z</time></trkpt><trkpt lat="43.08330528182011" lon="11.669124863224372"><ele>474.00000000000006</ele><time>2026-04-11T14:23:45.001Z</time></trkpt><trkpt lat="43.08334487060221" lon="11.669021469375068"><ele>473.0</ele><time>2026-04-11T14:23:46.001Z</time></trkpt><trkpt lat="43.083384499834864" lon="11.668920097614212"><ele>472.0</ele><time>2026-04-11T14:23:47.001Z</time></trkpt><trkpt lat="43.083428238433484" lon="11.668816187931421"><ele>471.0</ele><time>2026-04-11T14:23:48.001Z</time></trkpt><trkpt lat="43.0834576635984" lon="11.668718783906005"><ele>470.00000000000006</ele><time>2026-04-11T14:23:49.001Z</time></trkpt><trkpt lat="43.083491873931145" lon="11.66861820691817"><ele>469.0</ele><time>2026-04-11T14:23:50.001Z</time></trkpt><trkpt lat="43.083525950687275" lon="11.668527772599699"><ele>468.79999999999995</ele><time>2026-04-11T14:23:51.001Z</time></trkpt><trkpt lat="43.08359134137041" lon="11.668346221529877"><ele>468.59999999999997</ele><time>2026-04-11T14:23:53.001Z</time></trkpt><trkpt lat="43.08362187852461" lon="11.668250709222479"><ele>468.4</ele><time>2026-04-11T14:23:54.001Z</time></trkpt><trkpt lat="43.083647663825566" lon="11.668153688694103"><ele>468.2</ele><time>2026-04-11T14:23:55.001Z</time></trkpt><trkpt lat="43.08367346496934" lon="11.668056144273663"><ele>468.0</ele><time>2026-04-11T14:23:56.001Z</time></trkpt><trkpt lat="43.083699080066864" lon="11.66795879495082"><ele>468.0</ele><time>2026-04-11T14:23:57.001Z</time></trkpt><trkpt lat="43.083730177605815" lon="11.667858725195629"><ele>468.0</ele><time>2026-04-11T14:23:58.001Z</time></trkpt><trkpt lat="43.08375842953499" lon="11.667755630014769"><ele>468.0</ele><time>2026-04-11T14:23:59.001Z</time></trkpt><trkpt lat="43.08378716260152" lon="11.667643577316005"><ele>468.0</ele><time>2026-04-11T14:24:00.001Z</time></trkpt><trkpt lat="43.08381727957548" lon="11.667536374740363"><ele>468.0</ele><time>2026-04-11T14:24:01.001Z</time></trkpt><trkpt lat="43.083853337446435" lon="11.667430800930303"><ele>468.0</ele><time>2026-04-11T14:24:02.001Z</time></trkpt><trkpt lat="43.083885231437804" lon="11.667319799758364"><ele>468.0</ele><time>2026-04-11T14:24:03.001Z</time></trkpt><trkpt lat="43.08391644431043" lon="11.66721048487906"><ele>467.99999999999994</ele><time>2026-04-11T14:24:04.001Z</time></trkpt><trkpt lat="43.08395316221137" lon="11.66710131636797"><ele>467.99999999999994</ele><time>2026-04-11T14:24:05.001Z</time></trkpt><trkpt lat="43.0839920690059" lon="11.6669870193408"><ele>468.0</ele><time>2026-04-11T14:24:06.001Z</time></trkpt><trkpt lat="43.08402708599171" lon="11.666872477477295"><ele>468.0</ele><time>2026-04-11T14:24:07Z</time></trkpt><trkpt lat="43.08406642903379" lon="11.666754356451706"><ele>467.0</ele><time>2026-04-11T14:24:08Z</time></trkpt><trkpt lat="43.0841160907088" lon="11.666634525605291"><ele>465.99999999999994</ele><time>2026-04-11T14:24:09Z</time></trkpt><trkpt lat="43.084171314805666" lon="11.666522554370383"><ele>464.99999999999994</ele><time>2026-04-11T14:24:10Z</time></trkpt><trkpt lat="43.08422904676761" lon="11.666408586023215"><ele>464.0</ele><time>2026-04-11T14:24:11Z</time></trkpt><trkpt lat="43.08428294941497" lon="11.666296846189335"><ele>463.0</ele><time>2026-04-11T14:24:12Z</time></trkpt><trkpt lat="43.08439559753497" lon="11.666071735574048"><ele>462.79999999999995</ele><time>2026-04-11T14:24:14Z</time></trkpt><trkpt lat="43.08445513174465" lon="11.665962114622562"><ele>462.59999999999997</ele><time>2026-04-11T14:24:15Z</time></trkpt><trkpt lat="43.08451160819431" lon="11.665853557900805"><ele>462.40000000000003</ele><time>2026-04-11T14:24:16Z</time></trkpt><trkpt lat="43.08456347367143" lon="11.665747068349614"><ele>462.20000000000005</ele><time>2026-04-11T14:24:17Z</time></trkpt><trkpt lat="43.08461715116065" lon="11.665641600405669"><ele>462.0</ele><time>2026-04-11T14:24:18Z</time></trkpt><trkpt lat="43.08467090951818" lon="11.665536833900735"><ele>462.0</ele><time>2026-04-11T14:24:19Z</time></trkpt><trkpt lat="43.08472326408889" lon="11.66543344662345"><ele>462.00000000000006</ele><time>2026-04-11T14:24:20Z</time></trkpt><trkpt lat="43.08477514422353" lon="11.665330301753265"><ele>462.00000000000006</ele><time>2026-04-11T14:24:21Z</time></trkpt><trkpt lat="43.08482663746523" lon="11.665226896735385"><ele>462.0</ele><time>2026-04-11T14:24:22Z</time></trkpt><trkpt lat="43.08488047845516" lon="11.66512580332262"><ele>462.0</ele><time>2026-04-11T14:24:23Z</time></trkpt><trkpt lat="43.08493096903667" lon="11.665023000709393"><ele>461.1666666666667</ele><time>2026-04-11T14:24:24Z</time></trkpt><trkpt lat="43.08498247365231" lon="11.664920585363463"><ele>460.33333333333337</ele><time>2026-04-11T14:24:25Z</time></trkpt><trkpt lat="43.08502891754161" lon="11.664815780761884"><ele>459.5</ele><time>2026-04-11T14:24:26Z</time></trkpt><trkpt lat="43.0850738164493" lon="11.664719869965747"><ele>458.6666666666667</ele><time>2026-04-11T14:24:27Z</time></trkpt><trkpt lat="43.08511261901369" lon="11.664624292320488"><ele>457.83333333333337</ele><time>2026-04-11T14:24:28Z</time></trkpt><trkpt lat="43.08514854888491" lon="11.664533417169423"><ele>457.0</ele><time>2026-04-11T14:24:29Z</time></trkpt><trkpt lat="43.085201515490425" lon="11.664465632142946"><ele>457.20000000000005</ele><time>2026-04-11T14:24:30Z</time></trkpt><trkpt lat="43.08527248762739" lon="11.664426354045334"><ele>457.40000000000003</ele><time>2026-04-11T14:24:31Z</time></trkpt><trkpt lat="43.08535522309637" lon="11.66441353019134"><ele>457.59999999999997</ele><time>2026-04-11T14:24:32Z</time></trkpt><trkpt lat="43.08543646353978" lon="11.664393297790006"><ele>457.79999999999995</ele><time>2026-04-11T14:24:33Z</time></trkpt><trkpt lat="43.08559507333698" lon="11.664325072008422"><ele>458.0</ele><time>2026-04-11T14:24:35Z</time></trkpt><trkpt lat="43.08567544032196" lon="11.664296466604952"><ele>457.99999999999994</ele><time>2026-04-11T14:24:36Z</time></trkpt><trkpt lat="43.08575757348536" lon="11.66426291188965"><ele>458.0</ele><time>2026-04-11T14:24:37Z</time></trkpt><trkpt lat="43.08583745626954" lon="11.664219176334704"><ele>458.0</ele><time>2026-04-11T14:24:38Z</time></trkpt><trkpt lat="43.085919315039455" lon="11.664172637955037"><ele>458.0</ele><time>2026-04-11T14:24:39Z</time></trkpt><trkpt lat="43.08600006210031" lon="11.66412099732139"><ele>457.99999999999994</ele><time>2026-04-11T14:24:40Z</time></trkpt><trkpt lat="43.08608032703273" lon="11.664063088818677"><ele>458.0</ele><time>2026-04-11T14:24:41Z</time></trkpt><trkpt lat="43.08615412142785" lon="11.663991642583039"><ele>457.0</ele><time>2026-04-11T14:24:42Z</time></trkpt><trkpt lat="43.086227186402766" lon="11.663912622584158"><ele>455.99999999999994</ele><time>2026-04-11T14:24:43Z</time></trkpt><trkpt lat="43.0863006211243" lon="11.66383469107234"><ele>454.99999999999994</ele><time>2026-04-11T14:24:44Z</time></trkpt><trkpt lat="43.08637925346315" lon="11.663762270516392"><ele>454.0</ele><time>2026-04-11T14:24:45Z</time></trkpt><trkpt lat="43.086456026364175" lon="11.663683616888012"><ele>453.0</ele><time>2026-04-11T14:24:46Z</time></trkpt><trkpt lat="43.08652935799778" lon="11.663603348090264"><ele>452.2</ele><time>2026-04-11T14:24:47Z</time></trkpt><trkpt lat="43.08660334387215" lon="11.663521937468134"><ele>451.4</ele><time>2026-04-11T14:24:48Z</time></trkpt><trkpt lat="43.08667691327171" lon="11.663444814212264"><ele>450.59999999999997</ele><time>2026-04-11T14:24:49Z</time></trkpt><trkpt lat="43.08674934784965" lon="11.663363513387909"><ele>449.79999999999995</ele><time>2026-04-11T14:24:50Z</time></trkpt><trkpt lat="43.086815724380045" lon="11.663274046219874"><ele>449.0</ele><time>2026-04-11T14:24:51Z</time></trkpt><trkpt lat="43.086878806024224" lon="11.663177317973858"><ele>449.0</ele><time>2026-04-11T14:24:52Z</time></trkpt><trkpt lat="43.08694343866456" lon="11.663076842813517"><ele>449.0</ele><time>2026-04-11T14:24:53Z</time></trkpt><trkpt lat="43.08701271363711" lon="11.66297633113512"><ele>449.0</ele><time>2026-04-11T14:24:54Z</time></trkpt></trkseg><trkseg><trkpt lat="43.15495973689724" lon="11.696238760344368"><ele>563.0</ele><time>2026-04-11T15:13:51.998Z</time></trkpt><trkpt lat="43.15502997357022" lon="11.696194564677091"><ele>563.0</ele><time>2026-04-11T15:13:53.999Z</time></trkpt><trkpt lat="43.155093198113185" lon="11.696162296530927"><ele>563.0</ele><time>2026-04-11T15:13:55.999Z</time></trkpt><trkpt lat="43.15515747968953" lon="11.69614916168037"><ele>563.0</ele><time>2026-04-11T15:13:56.999Z</time></trkpt><trkpt lat="43.15522136168587" lon="11.696107948557255"><ele>563.0</ele><time>2026-04-11T15:13:58.999Z</time></trkpt><trkpt lat="43.155276079216875" lon="11.696051868675331"><ele>563.0</ele><time>2026-04-11T15:14:00.999Z</time></trkpt><trkpt lat="43.15532737432801" lon="11.69597195796968"><ele>563.0</ele><time>2026-04-11T15:14:02.999Z</time></trkpt><trkpt lat="43.15537638829823" lon="11.695889144056958"><ele>562.4285714285714</ele><time>2026-04-11T15:14:04.999Z</time></trkpt><trkpt lat="43.15541808812781" lon="11.695824017559666"><ele>561.8571428571429</ele><time>2026-04-11T15:14:06.999Z</time></trkpt><trkpt lat="43.15545996481537" lon="11.695747920944562"><ele>561.2857142857143</ele><time>2026-04-11T15:14:08.999Z</time></trkpt><trkpt lat="43.155496936473455" lon="11.69566346535764"><ele>560.7142857142858</ele><time>2026-04-11T15:14:10.999Z</time></trkpt><trkpt lat="43.15552841672956" lon="11.695584125508299"><ele>560.1428571428572</ele><time>2026-04-11T15:14:12.999Z</time></trkpt><trkpt lat="43.15556477238325" lon="11.695511617797546"><ele>559.5714285714286</ele><time>2026-04-11T15:14:14.999Z</time></trkpt><trkpt lat="43.1555867204221" lon="11.695392551028554"><ele>559.0</ele><time>2026-04-11T15:14:17.999Z</time></trkpt><trkpt lat="43.155627555791156" lon="11.695318072566987"><ele>558.1428571428571</ele><time>2026-04-11T15:14:19.999Z</time></trkpt><trkpt lat="43.15566935904145" lon="11.695252206602577"><ele>557.2857142857143</ele><time>2026-04-11T15:14:21.999Z</time></trkpt><trkpt lat="43.15572139232895" lon="11.695190128880794"><ele>556.4285714285714</ele><time>2026-04-11T15:14:23.999Z</time></trkpt><trkpt lat="43.155771370242825" lon="11.695126432188708"><ele>555.5714285714286</ele><time>2026-04-11T15:14:25.999Z</time></trkpt><trkpt lat="43.15581553630774" lon="11.69506105115738"><ele>554.7142857142858</ele><time>2026-04-11T15:14:27.999Z</time></trkpt><trkpt lat="43.155885432857396" lon="11.694984184264724"><ele>553.8571428571429</ele><time>2026-04-11T15:14:30.999Z</time></trkpt><trkpt lat="43.15593753253163" lon="11.694931314573472"><ele>553.0</ele><time>2026-04-11T15:14:32.999Z</time></trkpt><trkpt lat="43.15599875353543" lon="11.694893949748044"><ele>555.0</ele><time>2026-04-11T15:14:34.999Z</time></trkpt><trkpt lat="43.15608861718786" lon="11.694856081535706"><ele>557.0</ele><time>2026-04-11T15:14:37.999Z</time></trkpt><trkpt lat="43.156171190153515" lon="11.694813749735006"><ele>559.0</ele><time>2026-04-11T15:14:40.999Z</time></trkpt><trkpt lat="43.15623351039811" lon="11.694784484009494"><ele>561.0</ele><time>2026-04-11T15:14:42.999Z</time></trkpt><trkpt lat="43.15631972283975" lon="11.694738166755"><ele>563.0</ele><time>2026-04-11T15:14:45.999Z</time></trkpt><trkpt lat="43.15640604318516" lon="11.694689326388152"><ele>565.0</ele><time>2026-04-11T15:14:48.999Z</time></trkpt><trkpt lat="43.156470124018036" lon="11.694660518944444"><ele>565.0</ele><time>2026-04-11T15:14:50.999Z</time></trkpt><trkpt lat="43.15653310782526" lon="11.69461304198895"><ele>565.0</ele><time>2026-04-11T15:14:52.999Z</time></trkpt><trkpt lat="43.156589043730726" lon="11.69455570171184"><ele>565.0</ele><time>2026-04-11T15:14:54.999Z</time></trkpt><trkpt lat="43.15665791529001" lon="11.69449402843685"><ele>565.0</ele><time>2026-04-11T15:14:57.999Z</time></trkpt><trkpt lat="43.156732049320766" lon="11.694421173526003"><ele>565.0</ele><time>2026-04-11T15:15:00.999Z</time></trkpt><trkpt lat="43.15681440980775" lon="11.69435753512483"><ele>565.0</ele><time>2026-04-11T15:15:03.999Z</time></trkpt><trkpt lat="43.156899931128805" lon="11.694323754039084"><ele>565.1428571428571</ele><time>2026-04-11T15:15:06.999Z</time></trkpt><trkpt lat="43.15696517297732" lon="11.694285224822316"><ele>565.2857142857142</ele><time>2026-04-11T15:15:09.999Z</time></trkpt><trkpt lat="43.15704185914881" lon="11.694247142802569"><ele>565.4285714285714</ele><time>2026-04-11T15:15:12.999Z</time></trkpt><trkpt lat="43.15711443905185" lon="11.694221697227174"><ele>565.5714285714286</ele><time>2026-04-11T15:15:14.999Z</time></trkpt><trkpt lat="43.157179019780266" lon="11.694205754843681"><ele>565.7142857142858</ele><time>2026-04-11T15:15:16.999Z</time></trkpt><trkpt lat="43.15724600183045" lon="11.694165967126215"><ele>565.8571428571429</ele><time>2026-04-11T15:15:18.999Z</time></trkpt><trkpt lat="43.15732348359572" lon="11.694137411855435"><ele>566.0</ele><time>2026-04-11T15:15:20.999Z</time></trkpt><trkpt lat="43.15738817014362" lon="11.69411469225046"><ele>567.3333333333333</ele><time>2026-04-11T15:15:22.999Z</time></trkpt><trkpt lat="43.15746603180925" lon="11.69408564839704"><ele>568.6666666666666</ele><time>2026-04-11T15:15:24.999Z</time></trkpt><trkpt lat="43.15754098631654" lon="11.69404895928034"><ele>570.0</ele><time>2026-04-11T15:15:26.999Z</time></trkpt><trkpt lat="43.157630977790674" lon="11.69402976079622"><ele>571.3333333333334</ele><time>2026-04-11T15:15:28.999Z</time></trkpt><trkpt lat="43.15771975134965" lon="11.693983923132027"><ele>572.6666666666667</ele><time>2026-04-11T15:15:30.993Z</time></trkpt><trkpt lat="43.15780239286434" lon="11.693902987862694"><ele>574.0</ele><time>2026-04-11T15:15:32.993Z</time></trkpt><trkpt lat="43.15785762125598" lon="11.69381069519744"><ele>574.0</ele><time>2026-04-11T15:15:34.994Z</time></trkpt><trkpt lat="43.157876886389765" lon="11.693708052652514"><ele>574.0</ele><time>2026-04-11T15:15:36.994Z</time></trkpt><trkpt lat="43.15785988140753" lon="11.693588902068996"><ele>574.0</ele><time>2026-04-11T15:15:38.994Z</time></trkpt><trkpt lat="43.15786246272276" lon="11.693494864572491"><ele>574.0</ele><time>2026-04-11T15:15:40.995Z</time></trkpt><trkpt lat="43.157865632202146" lon="11.693398390287914"><ele>574.0</ele><time>2026-04-11T15:15:42.995Z</time></trkpt><trkpt lat="43.15788158678928" lon="11.69328570003184"><ele>574.0</ele><time>2026-04-11T15:15:45.996Z</time></trkpt><trkpt lat="43.15791991276913" lon="11.69317589332739"><ele>574.0</ele><time>2026-04-11T15:15:48.996Z</time></trkpt><trkpt lat="43.15794922241734" lon="11.693078154567429"><ele>574.0</ele><time>2026-04-11T15:15:51.997Z</time></trkpt><trkpt lat="43.157970237889806" lon="11.69299132671404"><ele>574.0</ele><time>2026-04-11T15:15:54.997Z</time></trkpt><trkpt lat="43.15800150201281" lon="11.692906942300493"><ele>574.0</ele><time>2026-04-11T15:15:57.998Z</time></trkpt><trkpt lat="43.15803146649909" lon="11.692818828618453"><ele>574.0</ele><time>2026-04-11T15:16:00.998Z</time></trkpt><trkpt lat="43.158064863030205" lon="11.692720705593965"><ele>574.0</ele><time>2026-04-11T15:16:03.998Z</time></trkpt><trkpt lat="43.15810303169503" lon="11.692645810388093"><ele>574.0</ele><time>2026-04-11T15:16:06.998Z</time></trkpt><trkpt lat="43.1581536788356" lon="11.692517994299614"><ele>574.6666666666667</ele><time>2026-04-11T15:16:08.998Z</time></trkpt><trkpt lat="43.158229590302874" lon="11.692421791256196"><ele>575.3333333333334</ele><time>2026-04-11T15:16:09.999Z</time></trkpt><trkpt lat="43.158301553835756" lon="11.692357837807023"><ele>576.0</ele><time>2026-04-11T15:16:10.999Z</time></trkpt><trkpt lat="43.15839444130369" lon="11.6923089103955"><ele>576.6666666666666</ele><time>2026-04-11T15:16:11.999Z</time></trkpt><trkpt lat="43.15846355857584" lon="11.69226978698865"><ele>577.3333333333333</ele><time>2026-04-11T15:16:12.999Z</time></trkpt><trkpt lat="43.15853824009698" lon="11.692223002506568"><ele>578.0</ele><time>2026-04-11T15:16:13.999Z</time></trkpt><trkpt lat="43.15861644395354" lon="11.692183392405724"><ele>578.0</ele><time>2026-04-11T15:16:14.999Z</time></trkpt><trkpt lat="43.158701226409015" lon="11.692138557054776"><ele>578.0</ele><time>2026-04-11T15:16:15.999Z</time></trkpt><trkpt lat="43.15878005874169" lon="11.692083595831122"><ele>578.0</ele><time>2026-04-11T15:16:16.999Z</time></trkpt><trkpt lat="43.15885619972245" lon="11.692038421554683"><ele>578.0</ele><time>2026-04-11T15:16:17.999Z</time></trkpt><trkpt lat="43.15893757226894" lon="11.692001167272158"><ele>578.0</ele><time>2026-04-11T15:16:18.999Z</time></trkpt><trkpt lat="43.159020879556586" lon="11.691959566401435"><ele>578.0</ele><time>2026-04-11T15:16:19.999Z</time></trkpt><trkpt lat="43.15910204483467" lon="11.691922442646403"><ele>575.6</ele><time>2026-04-11T15:16:20.999Z</time></trkpt><trkpt lat="43.159179056229945" lon="11.691889365911262"><ele>573.1999999999999</ele><time>2026-04-11T15:16:21.999Z</time></trkpt><trkpt lat="43.159257557496666" lon="11.691856090812964"><ele>570.8</ele><time>2026-04-11T15:16:22.999Z</time></trkpt><trkpt lat="43.15933190169091" lon="11.691809625864956"><ele>568.4</ele><time>2026-04-11T15:16:23.999Z</time></trkpt><trkpt lat="43.15940280335784" lon="11.691721573067364"><ele>566.0</ele><time>2026-04-11T15:16:24.999Z</time></trkpt><trkpt lat="43.15950880971601" lon="11.691615679342203"><ele>566.0</ele><time>2026-04-11T15:16:26.999Z</time></trkpt><trkpt lat="43.159563171221436" lon="11.691564827196629"><ele>566.0</ele><time>2026-04-11T15:16:27.999Z</time></trkpt><trkpt lat="43.1596320410551" lon="11.6914978027374"><ele>566.0</ele><time>2026-04-11T15:16:28.999Z</time></trkpt><trkpt lat="43.159677408385114" lon="11.69143272109324"><ele>566.0</ele><time>2026-04-11T15:16:30Z</time></trkpt><trkpt lat="43.15975489492319" lon="11.691287477689476"><ele>566.0</ele><time>2026-04-11T15:16:32Z</time></trkpt><trkpt lat="43.15978101122112" lon="11.691207374882264"><ele>566.0</ele><time>2026-04-11T15:16:33Z</time></trkpt><trkpt lat="43.159785688468325" lon="11.691110403268757"><ele>564.0</ele><time>2026-04-11T15:16:34Z</time></trkpt><trkpt lat="43.15978718767468" lon="11.691023864046109"><ele>562.0</ele><time>2026-04-11T15:16:35Z</time></trkpt><trkpt lat="43.15977359763296" lon="11.69087218988655"><ele>560.0</ele><time>2026-04-11T15:16:37Z</time></trkpt><trkpt lat="43.159776967606575" lon="11.69073157927048"><ele>558.0</ele><time>2026-04-11T15:16:39Z</time></trkpt><trkpt lat="43.159762159961424" lon="11.690598932559158"><ele>556.0</ele><time>2026-04-11T15:16:41Z</time></trkpt><trkpt lat="43.159775869421445" lon="11.690467768957543"><ele>556.0</ele><time>2026-04-11T15:16:43Z</time></trkpt><trkpt lat="43.15980732683574" lon="11.690359384651288"><ele>556.0</ele><time>2026-04-11T15:16:45Z</time></trkpt><trkpt lat="43.15984351122751" lon="11.690270940801218"><ele>556.0</ele><time>2026-04-11T15:16:47Z</time></trkpt><trkpt lat="43.15989226288104" lon="11.690207718004107"><ele>556.0</ele><time>2026-04-11T15:16:49Z</time></trkpt><trkpt lat="43.159944138481414" lon="11.690156756874789"><ele>556.0</ele><time>2026-04-11T15:16:51Z</time></trkpt><trkpt lat="43.16000624300987" lon="11.690115982071335"><ele>556.0</ele><time>2026-04-11T15:16:53Z</time></trkpt><trkpt lat="43.16009621316721" lon="11.690101246201687"><ele>556.0</ele><time>2026-04-11T15:16:56Z</time></trkpt><trkpt lat="43.16016464252445" lon="11.690128791691375"><ele>558.6</ele><time>2026-04-11T15:16:59.001Z</time></trkpt><trkpt lat="43.160254624653334" lon="11.690175656965737"><ele>561.2</ele><time>2026-04-11T15:17:02.001Z</time></trkpt><trkpt lat="43.16033893486688" lon="11.690206789085913"><ele>563.8</ele><time>2026-04-11T15:17:04.001Z</time></trkpt><trkpt lat="43.160423809314075" lon="11.69026770743934"><ele>566.4</ele><time>2026-04-11T15:17:06.001Z</time></trkpt><trkpt lat="43.16053019585079" lon="11.690315165535923"><ele>569.0</ele><time>2026-04-11T15:17:08.001Z</time></trkpt><trkpt lat="43.16063200920083" lon="11.69035780839176"><ele>573.4</ele><time>2026-04-11T15:17:10.001Z</time></trkpt><trkpt lat="43.16073554322227" lon="11.690392920251258"><ele>577.8</ele><time>2026-04-11T15:17:12.001Z</time></trkpt><trkpt lat="43.16084722674237" lon="11.690419878757764"><ele>582.2</ele><time>2026-04-11T15:17:14.001Z</time></trkpt><trkpt lat="43.16091524457239" lon="11.690423789474497"><ele>586.6</ele><time>2026-04-11T15:17:15.001Z</time></trkpt><trkpt lat="43.16100832528065" lon="11.690462692508572"><ele>591.0</ele><time>2026-04-11T15:17:17.001Z</time></trkpt><trkpt lat="43.16107237486015" lon="11.690472135115874"><ele>591.0</ele><time>2026-04-11T15:17:19.001Z</time></trkpt><trkpt lat="43.161140019520836" lon="11.69049052848733"><ele>591.0</ele><time>2026-04-11T15:17:21.001Z</time></trkpt><trkpt lat="43.16121868345104" lon="11.690503605392587"><ele>591.0</ele><time>2026-04-11T15:17:23.001Z</time></trkpt><trkpt lat="43.161301741065756" lon="11.690496974285645"><ele>591.0</ele><time>2026-04-11T15:17:25.001Z</time></trkpt><trkpt lat="43.161389144038935" lon="11.690468345984163"><ele>591.0</ele><time>2026-04-11T15:17:27.001Z</time></trkpt><trkpt lat="43.16147592529377" lon="11.690433298127838"><ele>591.0</ele><time>2026-04-11T15:17:29.001Z</time></trkpt><trkpt lat="43.16156462617874" lon="11.69035733796616"><ele>588.8</ele><time>2026-04-11T15:17:32.002Z</time></trkpt><trkpt lat="43.1616485137613" lon="11.690214345242458"><ele>586.6</ele><time>2026-04-11T15:17:34.002Z</time></trkpt><trkpt lat="43.161689775716376" lon="11.690108416883398"><ele>584.4</ele><time>2026-04-11T15:17:36.999Z</time></trkpt><trkpt lat="43.161696220603055" lon="11.689980365106182"><ele>582.2</ele><time>2026-04-11T15:17:38.999Z</time></trkpt><trkpt lat="43.16168721272902" lon="11.689880054757973"><ele>580.0</ele><time>2026-04-11T15:17:40.999Z</time></trkpt><trkpt lat="43.16167994538036" lon="11.689754180748853"><ele>580.0</ele><time>2026-04-11T15:17:42.999Z</time></trkpt><trkpt lat="43.161681988009626" lon="11.689662363593369"><ele>580.0</ele><time>2026-04-11T15:17:43.999Z</time></trkpt><trkpt lat="43.16171546844256" lon="11.689585573416874"><ele>580.0</ele><time>2026-04-11T15:17:44.999Z</time></trkpt><trkpt lat="43.16183380219197" lon="11.689517720377273"><ele>580.0</ele><time>2026-04-11T15:17:46.999Z</time></trkpt><trkpt lat="43.16189822334157" lon="11.689512495725976"><ele>580.0</ele><time>2026-04-11T15:17:47.999Z</time></trkpt><trkpt lat="43.16200382157789" lon="11.689533346419106"><ele>580.0</ele><time>2026-04-11T15:17:49.999Z</time></trkpt><trkpt lat="43.162070226455825" lon="11.68953679544599"><ele>580.0</ele><time>2026-04-11T15:17:51Z</time></trkpt><trkpt lat="43.162175501323524" lon="11.689578259649364"><ele>580.0</ele><time>2026-04-11T15:17:53Z</time></trkpt><trkpt lat="43.162243453395654" lon="11.689586373086126"><ele>580.0</ele><time>2026-04-11T15:17:54Z</time></trkpt><trkpt lat="43.16230809480599" lon="11.68959300951606"><ele>580.0</ele><time>2026-04-11T15:17:55Z</time></trkpt><trkpt lat="43.16237936871978" lon="11.68960881081137"><ele>580.0</ele><time>2026-04-11T15:17:56Z</time></trkpt><trkpt lat="43.162498376872634" lon="11.689640171034382"><ele>580.0</ele><time>2026-04-11T15:17:58Z</time></trkpt><trkpt lat="43.16256478432804" lon="11.689644440794295"><ele>581.0</ele><time>2026-04-11T15:17:59Z</time></trkpt><trkpt lat="43.162699172697174" lon="11.68965800300756"><ele>582.0</ele><time>2026-04-11T15:18:01Z</time></trkpt><trkpt lat="43.16276307913106" lon="11.689663586359755"><ele>583.0</ele><time>2026-04-11T15:18:02Z</time></trkpt><trkpt lat="43.162839866099375" lon="11.689653149255694"><ele>584.0</ele><time>2026-04-11T15:18:03Z</time></trkpt><trkpt lat="43.162905469090795" lon="11.689641761889037"><ele>585.0</ele><time>2026-04-11T15:18:04Z</time></trkpt><trkpt lat="43.16297752877919" lon="11.689632382598626"><ele>586.0</ele><time>2026-04-11T15:18:05Z</time></trkpt><trkpt lat="43.16312797397049" lon="11.689608288189154"><ele>585.5</ele><time>2026-04-11T15:18:07Z</time></trkpt><trkpt lat="43.16321302610373" lon="11.689618191989396"><ele>585.0</ele><time>2026-04-11T15:18:08Z</time></trkpt><trkpt lat="43.16331022407846" lon="11.689600735217235"><ele>584.5</ele><time>2026-04-11T15:18:09Z</time></trkpt><trkpt lat="43.16339526641316" lon="11.68958034389888"><ele>584.0</ele><time>2026-04-11T15:18:10Z</time></trkpt><trkpt lat="43.163489658853166" lon="11.689568374232051"><ele>583.5</ele><time>2026-04-11T15:18:11Z</time></trkpt><trkpt lat="43.1635719111615" lon="11.689579071166717"><ele>583.0</ele><time>2026-04-11T15:18:12.001Z</time></trkpt><trkpt lat="43.163661549505754" lon="11.689564292859417"><ele>583.0</ele><time>2026-04-11T15:18:13.001Z</time></trkpt><trkpt lat="43.163755770591585" lon="11.689537676462425"><ele>583.0</ele><time>2026-04-11T15:18:14.001Z</time></trkpt><trkpt lat="43.163836657227414" lon="11.689508695973629"><ele>583.0</ele><time>2026-04-11T15:18:15.001Z</time></trkpt><trkpt lat="43.16391555022193" lon="11.689468791058431"><ele>583.0</ele><time>2026-04-11T15:18:16.001Z</time></trkpt><trkpt lat="43.16399842855929" lon="11.689421788185843"><ele>583.0</ele><time>2026-04-11T15:18:17.001Z</time></trkpt><trkpt lat="43.16404844332649" lon="11.689353624429215"><ele>583.0</ele><time>2026-04-11T15:18:18.001Z</time></trkpt><trkpt lat="43.16407592564935" lon="11.689271184801653"><ele>580.6</ele><time>2026-04-11T15:18:19.001Z</time></trkpt><trkpt lat="43.1640779830982" lon="11.689177864635772"><ele>578.1999999999999</ele><time>2026-04-11T15:18:20.001Z</time></trkpt><trkpt lat="43.164055326251535" lon="11.689014862400635"><ele>575.8</ele><time>2026-04-11T15:18:22.001Z</time></trkpt><trkpt lat="43.16404278682344" lon="11.68884687281493"><ele>573.4</ele><time>2026-04-11T15:18:24.001Z</time></trkpt><trkpt lat="43.1640510351209" lon="11.688686435016606"><ele>571.0</ele><time>2026-04-11T15:18:26.001Z</time></trkpt><trkpt lat="43.1640900241729" lon="11.688603458794772"><ele>569.5</ele><time>2026-04-11T15:18:27.001Z</time></trkpt><trkpt lat="43.16415424467163" lon="11.688537710222901"><ele>568.0</ele><time>2026-04-11T15:18:28.001Z</time></trkpt><trkpt lat="43.16422370963754" lon="11.68849439641832"><ele>566.5</ele><time>2026-04-11T15:18:29.001Z</time></trkpt><trkpt lat="43.164292967443494" lon="11.688455181929152"><ele>565.0</ele><time>2026-04-11T15:18:30.001Z</time></trkpt><trkpt lat="43.16434775823102" lon="11.68838953267001"><ele>563.5</ele><time>2026-04-11T15:18:31.001Z</time></trkpt><trkpt lat="43.164394359278646" lon="11.688310613061015"><ele>562.0</ele><time>2026-04-11T15:18:32.001Z</time></trkpt><trkpt lat="43.16441952958102" lon="11.688117144356278"><ele>562.0</ele><time>2026-04-11T15:18:34.001Z</time></trkpt><trkpt lat="43.16439676103367" lon="11.688010329096013"><ele>562.0</ele><time>2026-04-11T15:18:35.001Z</time></trkpt><trkpt lat="43.16436341120429" lon="11.687912584247213"><ele>562.0</ele><time>2026-04-11T15:18:36.001Z</time></trkpt><trkpt lat="43.16432346650297" lon="11.687811620576054"><ele>562.0</ele><time>2026-04-11T15:18:37.001Z</time></trkpt><trkpt lat="43.1642985585491" lon="11.687685638312727"><ele>562.0</ele><time>2026-04-11T15:18:38.001Z</time></trkpt><trkpt lat="43.164254328061894" lon="11.687571085090502"><ele>562.0</ele><time>2026-04-11T15:18:39.001Z</time></trkpt><trkpt lat="43.164189695969675" lon="11.687471520723165"><ele>560.8000000000001</ele><time>2026-04-11T15:18:40.001Z</time></trkpt><trkpt lat="43.164139000435604" lon="11.687367679064646"><ele>559.6</ele><time>2026-04-11T15:18:41.002Z</time></trkpt><trkpt lat="43.164090267887474" lon="11.68726103393254"><ele>558.4000000000001</ele><time>2026-04-11T15:18:42.002Z</time></trkpt><trkpt lat="43.164028010988524" lon="11.68716294253128"><ele>557.2</ele><time>2026-04-11T15:18:43.002Z</time></trkpt><trkpt lat="43.163951833465056" lon="11.687081978316085"><ele>556.0</ele><time>2026-04-11T15:18:44.002Z</time></trkpt><trkpt lat="43.16388258304326" lon="11.68699076202907"><ele>553.0</ele><time>2026-04-11T15:18:45.002Z</time></trkpt><trkpt lat="43.16383529672" lon="11.686903382497453"><ele>550.0</ele><time>2026-04-11T15:18:46.002Z</time></trkpt><trkpt lat="43.16378142507033" lon="11.68682370564448"><ele>547.0</ele><time>2026-04-11T15:18:47.002Z</time></trkpt><trkpt lat="43.163743976511185" lon="11.686725876463209"><ele>544.0</ele><time>2026-04-11T15:18:48.002Z</time></trkpt><trkpt lat="43.16372035441401" lon="11.68662665626681"><ele>541.0</ele><time>2026-04-11T15:18:49.002Z</time></trkpt><trkpt lat="43.16369646029319" lon="11.686514689487767"><ele>538.0</ele><time>2026-04-11T15:18:50.002Z</time></trkpt><trkpt lat="43.16368882815172" lon="11.686396198946861"><ele>538.0</ele><time>2026-04-11T15:18:51.002Z</time></trkpt><trkpt lat="43.163686103240785" lon="11.68626789139604"><ele>538.0</ele><time>2026-04-11T15:18:52.002Z</time></trkpt><trkpt lat="43.163684230989844" lon="11.68613084943916"><ele>538.0</ele><time>2026-04-11T15:18:53.002Z</time></trkpt><trkpt lat="43.163679253662394" lon="11.685986828459933"><ele>538.0</ele><time>2026-04-11T15:18:54.002Z</time></trkpt><trkpt lat="43.163676115129405" lon="11.685848499996926"><ele>538.0</ele><time>2026-04-11T15:18:55.002Z</time></trkpt><trkpt lat="43.16367225672394" lon="11.685709402224369"><ele>539.1999999999999</ele><time>2026-04-11T15:18:56.002Z</time></trkpt><trkpt lat="43.16367364513694" lon="11.685573909294774"><ele>540.4</ele><time>2026-04-11T15:18:57.002Z</time></trkpt><trkpt lat="43.163678628446476" lon="11.685440244526028"><ele>541.5999999999999</ele><time>2026-04-11T15:18:58.002Z</time></trkpt><trkpt lat="43.16368084815476" lon="11.685312478564127"><ele>542.8</ele><time>2026-04-11T15:18:59.002Z</time></trkpt><trkpt lat="43.16367396860456" lon="11.685186468492809"><ele>544.0</ele><time>2026-04-11T15:19:00.002Z</time></trkpt><trkpt lat="43.163675914152236" lon="11.685053546474917"><ele>544.0</ele><time>2026-04-11T15:19:01.002Z</time></trkpt><trkpt lat="43.16365737026713" lon="11.684929078873655"><ele>544.0</ele><time>2026-04-11T15:19:02.002Z</time></trkpt><trkpt lat="43.163640645075766" lon="11.684806655002681"><ele>544.0</ele><time>2026-04-11T15:19:03.002Z</time></trkpt><trkpt lat="43.1636189374769" lon="11.684688766542969"><ele>544.0</ele><time>2026-04-11T15:19:04.002Z</time></trkpt><trkpt lat="43.16359292463585" lon="11.684567810841433"><ele>544.0</ele><time>2026-04-11T15:19:05.002Z</time></trkpt><trkpt lat="43.16356127005321" lon="11.684458197159934"><ele>542.1666666666667</ele><time>2026-04-11T15:19:06.002Z</time></trkpt><trkpt lat="43.16353253085573" lon="11.684335852539618"><ele>540.3333333333334</ele><time>2026-04-11T15:19:07.002Z</time></trkpt><trkpt lat="43.16351434790414" lon="11.684211882444762"><ele>538.5</ele><time>2026-04-11T15:19:08.002Z</time></trkpt><trkpt lat="43.1634882875048" lon="11.68409208742318"><ele>536.6666666666666</ele><time>2026-04-11T15:19:09.002Z</time></trkpt><trkpt lat="43.163466686835385" lon="11.683983698720333"><ele>534.8333333333333</ele><time>2026-04-11T15:19:10.002Z</time></trkpt><trkpt lat="43.16345055263662" lon="11.683880704592472"><ele>533.0</ele><time>2026-04-11T15:19:11.002Z</time></trkpt><trkpt lat="43.1634314034464" lon="11.683720532481345"><ele>531.5</ele><time>2026-04-11T15:19:13.002Z</time></trkpt><trkpt lat="43.163455202010354" lon="11.683568568182306"><ele>530.0</ele><time>2026-04-11T15:19:15.003Z</time></trkpt><trkpt lat="43.16349951289764" lon="11.683502609917285"><ele>528.5</ele><time>2026-04-11T15:19:16.003Z</time></trkpt><trkpt lat="43.16355600981771" lon="11.683450655627016"><ele>527.0</ele><time>2026-04-11T15:19:17.003Z</time></trkpt><trkpt lat="43.1636168925013" lon="11.683422982001938"><ele>525.5</ele><time>2026-04-11T15:19:18.003Z</time></trkpt><trkpt lat="43.163684334316486" lon="11.683401444777541"><ele>524.0</ele><time>2026-04-11T15:19:19.003Z</time></trkpt><trkpt lat="43.16375899662341" lon="11.683378420524992"><ele>524.0</ele><time>2026-04-11T15:19:20.003Z</time></trkpt><trkpt lat="43.16384695562802" lon="11.683363704906274"><ele>524.0</ele><time>2026-04-11T15:19:21.003Z</time></trkpt><trkpt lat="43.16392926090955" lon="11.68334348099172"><ele>524.0</ele><time>2026-04-11T15:19:22.003Z</time></trkpt><trkpt lat="43.16400537289188" lon="11.683304275758275"><ele>524.0</ele><time>2026-04-11T15:19:23.003Z</time></trkpt><trkpt lat="43.16407605378809" lon="11.683245545113023"><ele>524.0</ele><time>2026-04-11T15:19:24.003Z</time></trkpt><trkpt lat="43.16413665424441" lon="11.683178338912203"><ele>524.0</ele><time>2026-04-11T15:19:25.003Z</time></trkpt><trkpt lat="43.16417196734189" lon="11.683075254043057"><ele>523.3333333333333</ele><time>2026-04-11T15:19:26.003Z</time></trkpt><trkpt lat="43.164194267927954" lon="11.682960055765804"><ele>522.6666666666666</ele><time>2026-04-11T15:19:27.003Z</time></trkpt><trkpt lat="43.164210479518246" lon="11.682841873416367"><ele>522.0</ele><time>2026-04-11T15:19:28.003Z</time></trkpt><trkpt lat="43.16421963104626" lon="11.682723378918238"><ele>521.3333333333334</ele><time>2026-04-11T15:19:29.003Z</time></trkpt><trkpt lat="43.1642355695785" lon="11.68260580895511"><ele>520.6666666666667</ele><time>2026-04-11T15:19:30.003Z</time></trkpt><trkpt lat="43.16424015046894" lon="11.682484053706055"><ele>520.0</ele><time>2026-04-11T15:19:31.003Z</time></trkpt><trkpt lat="43.164245439372586" lon="11.682367984476269"><ele>520.0</ele><time>2026-04-11T15:19:32.003Z</time></trkpt><trkpt lat="43.1642492259018" lon="11.68224447522245"><ele>520.0</ele><time>2026-04-11T15:19:33.003Z</time></trkpt><trkpt lat="43.164235944995035" lon="11.682119138857077"><ele>520.0</ele><time>2026-04-11T15:19:34.003Z</time></trkpt><trkpt lat="43.16421634800923" lon="11.681994005673404"><ele>520.0</ele><time>2026-04-11T15:19:35.003Z</time></trkpt><trkpt lat="43.164181965916626" lon="11.681849421637862"><ele>520.0</ele><time>2026-04-11T15:19:36.003Z</time></trkpt><trkpt lat="43.16418552709276" lon="11.68175112029451"><ele>518.8333333333334</ele><time>2026-04-11T15:19:37.003Z</time></trkpt><trkpt lat="43.164195623625645" lon="11.681641395022492"><ele>517.6666666666667</ele><time>2026-04-11T15:19:38.003Z</time></trkpt><trkpt lat="43.16421899837697" lon="11.68153121193548"><ele>516.5</ele><time>2026-04-11T15:19:39.003Z</time></trkpt><trkpt lat="43.16425102742225" lon="11.681417689755898"><ele>515.3333333333334</ele><time>2026-04-11T15:19:40.003Z</time></trkpt><trkpt lat="43.1642811417436" lon="11.681309492667232"><ele>514.1666666666666</ele><time>2026-04-11T15:19:41.003Z</time></trkpt><trkpt lat="43.164312137371944" lon="11.681205109595327"><ele>513.0</ele><time>2026-04-11T15:19:41.999Z</time></trkpt><trkpt lat="43.16432690922346" lon="11.681094891011666"><ele>512.1666666666666</ele><time>2026-04-11T15:19:42.999Z</time></trkpt><trkpt lat="43.16435811026635" lon="11.6809817593657"><ele>511.33333333333337</ele><time>2026-04-11T15:19:43.999Z</time></trkpt><trkpt lat="43.164354606626894" lon="11.68086418540563"><ele>510.5</ele><time>2026-04-11T15:19:44.999Z</time></trkpt><trkpt lat="43.1643437854825" lon="11.68074912557768"><ele>509.6666666666667</ele><time>2026-04-11T15:19:45.999Z</time></trkpt><trkpt lat="43.16431739657305" lon="11.680638173724953"><ele>508.83333333333337</ele><time>2026-04-11T15:19:46.999Z</time></trkpt><trkpt lat="43.164290571034385" lon="11.680541398458924"><ele>508.0</ele><time>2026-04-11T15:19:47.999Z</time></trkpt><trkpt lat="43.164252034972094" lon="11.680422212257595"><ele>508.0</ele><time>2026-04-11T15:19:48.999Z</time></trkpt><trkpt lat="43.16421602130793" lon="11.68030480964292"><ele>507.99999999999994</ele><time>2026-04-11T15:19:49.999Z</time></trkpt><trkpt lat="43.164167715107844" lon="11.680186828269733"><ele>507.99999999999994</ele><time>2026-04-11T15:19:51Z</time></trkpt><trkpt lat="43.164138104616946" lon="11.680069126319209"><ele>508.0</ele><time>2026-04-11T15:19:52Z</time></trkpt><trkpt lat="43.164116854365176" lon="11.67994997717884"><ele>508.0</ele><time>2026-04-11T15:19:53Z</time></trkpt><trkpt lat="43.164094918925194" lon="11.679833905546351"><ele>507.59999999999997</ele><time>2026-04-11T15:19:54Z</time></trkpt><trkpt lat="43.16408511698274" lon="11.679676571515243"><ele>507.19999999999993</ele><time>2026-04-11T15:19:55Z</time></trkpt><trkpt lat="43.16407579028922" lon="11.679526815631062"><ele>506.8</ele><time>2026-04-11T15:19:56Z</time></trkpt><trkpt lat="43.16404836553312" lon="11.679390002673873"><ele>506.4</ele><time>2026-04-11T15:19:57Z</time></trkpt><trkpt lat="43.1640186209416" lon="11.679254535522906"><ele>506.0</ele><time>2026-04-11T15:19:58Z</time></trkpt><trkpt lat="43.16401182829871" lon="11.679113065723561"><ele>503.0</ele><time>2026-04-11T15:19:59Z</time></trkpt><trkpt lat="43.16399754879649" lon="11.678968298013013"><ele>500.0</ele><time>2026-04-11T15:20:00Z</time></trkpt><trkpt lat="43.16399320260252" lon="11.678819534005418"><ele>497.0</ele><time>2026-04-11T15:20:01Z</time></trkpt><trkpt lat="43.16399668220483" lon="11.678679078656614"><ele>494.0</ele><time>2026-04-11T15:20:02Z</time></trkpt><trkpt lat="43.16399557732273" lon="11.678517544573106"><ele>491.0</ele><time>2026-04-11T15:20:03Z</time></trkpt><trkpt lat="43.163996855569096" lon="11.678367544031817"><ele>491.0</ele><time>2026-04-11T15:20:04Z</time></trkpt><trkpt lat="43.16400992922665" lon="11.678223872023118"><ele>491.0</ele><time>2026-04-11T15:20:05Z</time></trkpt><trkpt lat="43.164021993843384" lon="11.678084689086324"><ele>491.0</ele><time>2026-04-11T15:20:06Z</time></trkpt><trkpt lat="43.16403458436853" lon="11.677970452959293"><ele>491.0</ele><time>2026-04-11T15:20:07Z</time></trkpt><trkpt lat="43.164057843795675" lon="11.677811818429564"><ele>491.0</ele><time>2026-04-11T15:20:08Z</time></trkpt><trkpt lat="43.16408341340664" lon="11.677670714540042"><ele>491.0</ele><time>2026-04-11T15:20:09Z</time></trkpt><trkpt lat="43.16411180936334" lon="11.677545301810397"><ele>491.0</ele><time>2026-04-11T15:20:10Z</time></trkpt><trkpt lat="43.16414814017361" lon="11.677412139137946"><ele>491.0</ele><time>2026-04-11T15:20:11Z</time></trkpt><trkpt lat="43.164177426327925" lon="11.677295481609546"><ele>491.0</ele><time>2026-04-11T15:20:12Z</time></trkpt><trkpt lat="43.164201776573314" lon="11.67717464644145"><ele>491.0</ele><time>2026-04-11T15:20:13Z</time></trkpt><trkpt lat="43.16420309848378" lon="11.677054819670264"><ele>490.99999999999994</ele><time>2026-04-11T15:20:14Z</time></trkpt><trkpt lat="43.16420985099516" lon="11.676937189415511"><ele>491.0</ele><time>2026-04-11T15:20:15Z</time></trkpt><trkpt lat="43.16419244936676" lon="11.676811067303678"><ele>491.0</ele><time>2026-04-11T15:20:16.001Z</time></trkpt><trkpt lat="43.16418416308089" lon="11.676700549116251"><ele>491.0</ele><time>2026-04-11T15:20:17.001Z</time></trkpt><trkpt lat="43.164169000291885" lon="11.676588521276166"><ele>490.99999999999994</ele><time>2026-04-11T15:20:18.001Z</time></trkpt><trkpt lat="43.1641560016587" lon="11.676474709567527"><ele>491.0</ele><time>2026-04-11T15:20:19.001Z</time></trkpt><trkpt lat="43.16414011999003" lon="11.676367735980849"><ele>491.3333333333333</ele><time>2026-04-11T15:20:20.001Z</time></trkpt><trkpt lat="43.164127857198814" lon="11.67625654348599"><ele>491.66666666666663</ele><time>2026-04-11T15:20:21.001Z</time></trkpt><trkpt lat="43.164114649642286" lon="11.676141205916752"><ele>492.0</ele><time>2026-04-11T15:20:22.001Z</time></trkpt><trkpt lat="43.16410747779976" lon="11.676028000566058"><ele>492.33333333333337</ele><time>2026-04-11T15:20:23.001Z</time></trkpt><trkpt lat="43.16407832148695" lon="11.675914193059132"><ele>492.6666666666667</ele><time>2026-04-11T15:20:24.001Z</time></trkpt><trkpt lat="43.16404854544548" lon="11.675796896790217"><ele>493.0</ele><time>2026-04-11T15:20:25.001Z</time></trkpt><trkpt lat="43.16402927160667" lon="11.675655690646291"><ele>493.00000000000006</ele><time>2026-04-11T15:20:26.001Z</time></trkpt><trkpt lat="43.16402984179036" lon="11.675525016841721"><ele>493.0</ele><time>2026-04-11T15:20:27.001Z</time></trkpt><trkpt lat="43.164038989701865" lon="11.675405096428769"><ele>493.0</ele><time>2026-04-11T15:20:28.001Z</time></trkpt><trkpt lat="43.16403824418608" lon="11.675297882459779"><ele>493.0</ele><time>2026-04-11T15:20:29.001Z</time></trkpt><trkpt lat="43.16404194343444" lon="11.675195730903836"><ele>493.00000000000006</ele><time>2026-04-11T15:20:30.001Z</time></trkpt><trkpt lat="43.16405131380816" lon="11.67510841418487"><ele>493.0</ele><time>2026-04-11T15:20:31.001Z</time></trkpt><trkpt lat="43.16407168356056" lon="11.675012326134379"><ele>491.4</ele><time>2026-04-11T15:20:32.001Z</time></trkpt><trkpt lat="43.164109042652875" lon="11.674911944948109"><ele>489.79999999999995</ele><time>2026-04-11T15:20:33.001Z</time></trkpt><trkpt lat="43.16415840727753" lon="11.674793307134834"><ele>488.2</ele><time>2026-04-11T15:20:34.001Z</time></trkpt><trkpt lat="43.164223880347144" lon="11.674716529307789"><ele>486.6</ele><time>2026-04-11T15:20:35.001Z</time></trkpt><trkpt lat="43.16427079095062" lon="11.67459629317141"><ele>485.0</ele><time>2026-04-11T15:20:36.001Z</time></trkpt><trkpt lat="43.164298035791376" lon="11.674467852462161"><ele>483.2</ele><time>2026-04-11T15:20:37.001Z</time></trkpt><trkpt lat="43.164342365126764" lon="11.674342425087398"><ele>481.4</ele><time>2026-04-11T15:20:38.001Z</time></trkpt><trkpt lat="43.16438768731297" lon="11.674226865346913"><ele>479.6</ele><time>2026-04-11T15:20:39.001Z</time></trkpt><trkpt lat="43.16441386055406" lon="11.674091643116824"><ele>477.8</ele><time>2026-04-11T15:20:40.001Z</time></trkpt><trkpt lat="43.16445624319945" lon="11.673971645692971"><ele>476.0</ele><time>2026-04-11T15:20:41.001Z</time></trkpt><trkpt lat="43.164495953575546" lon="11.673848287080046"><ele>476.0</ele><time>2026-04-11T15:20:42.001Z</time></trkpt><trkpt lat="43.164533164843476" lon="11.673720438271419"><ele>476.0</ele><time>2026-04-11T15:20:43.001Z</time></trkpt><trkpt lat="43.16456163217706" lon="11.673581281600345"><ele>476.0</ele><time>2026-04-11T15:20:44.001Z</time></trkpt><trkpt lat="43.16456995194704" lon="11.673439748938375"><ele>476.0</ele><time>2026-04-11T15:20:45.001Z</time></trkpt><trkpt lat="43.16456607374279" lon="11.673296296885217"><ele>476.0</ele><time>2026-04-11T15:20:46.002Z</time></trkpt><trkpt lat="43.16455041922635" lon="11.67315474749547"><ele>474.8</ele><time>2026-04-11T15:20:47.002Z</time></trkpt><trkpt lat="43.16455631017864" lon="11.673019459680688"><ele>473.6</ele><time>2026-04-11T15:20:48.002Z</time></trkpt><trkpt lat="43.16454447855029" lon="11.672885609333257"><ele>472.4</ele><time>2026-04-11T15:20:49.002Z</time></trkpt><trkpt lat="43.16453387147565" lon="11.672760246474327"><ele>471.2</ele><time>2026-04-11T15:20:50.002Z</time></trkpt><trkpt lat="43.16452688542402" lon="11.672619450514139"><ele>470.0</ele><time>2026-04-11T15:20:51.002Z</time></trkpt><trkpt lat="43.164524643044885" lon="11.672521615263157"><ele>469.2</ele><time>2026-04-11T15:20:52.002Z</time></trkpt><trkpt lat="43.16452248832771" lon="11.672386881655136"><ele>468.4</ele><time>2026-04-11T15:20:53.002Z</time></trkpt><trkpt lat="43.16452030198306" lon="11.672250170951097"><ele>467.6</ele><time>2026-04-11T15:20:54.002Z</time></trkpt><trkpt lat="43.16451818449404" lon="11.67211776589155"><ele>466.8</ele><time>2026-04-11T15:20:55.002Z</time></trkpt><trkpt lat="43.164500030365836" lon="11.671997325948643"><ele>466.0</ele><time>2026-04-11T15:20:56.002Z</time></trkpt><trkpt lat="43.16450346080059" lon="11.67188201134308"><ele>465.50000000000006</ele><time>2026-04-11T15:20:57.002Z</time></trkpt><trkpt lat="43.16450597189697" lon="11.671765542446186"><ele>465.0</ele><time>2026-04-11T15:20:58.002Z</time></trkpt><trkpt lat="43.16450760169029" lon="11.671654992622232"><ele>464.5</ele><time>2026-04-11T15:20:59.002Z</time></trkpt><trkpt lat="43.164511568228534" lon="11.671547791019787"><ele>464.0</ele><time>2026-04-11T15:21:00.002Z</time></trkpt><trkpt lat="43.16451697690666" lon="11.671443094611258"><ele>463.50000000000006</ele><time>2026-04-11T15:21:01.002Z</time></trkpt><trkpt lat="43.16452738910184" lon="11.671342910817888"><ele>463.0</ele><time>2026-04-11T15:21:02.002Z</time></trkpt><trkpt lat="43.16453442494916" lon="11.6712520017618"><ele>463.0</ele><time>2026-04-11T15:21:03.002Z</time></trkpt><trkpt lat="43.164541189379584" lon="11.671162545979968"><ele>462.99999999999994</ele><time>2026-04-11T15:21:04.002Z</time></trkpt><trkpt lat="43.16455416979927" lon="11.671075574476907"><ele>463.0</ele><time>2026-04-11T15:21:05.002Z</time></trkpt><trkpt lat="43.16457227325616" lon="11.670907981395759"><ele>463.0</ele><time>2026-04-11T15:21:07.002Z</time></trkpt><trkpt lat="43.16457778530786" lon="11.670821531810908"><ele>462.99999999999994</ele><time>2026-04-11T15:21:08.002Z</time></trkpt><trkpt lat="43.16458588813385" lon="11.670734888624722"><ele>463.0</ele><time>2026-04-11T15:21:09.002Z</time></trkpt><trkpt lat="43.16459325263837" lon="11.670642679898952"><ele>463.0</ele><time>2026-04-11T15:21:10.002Z</time></trkpt><trkpt lat="43.16460521929353" lon="11.6705524251701"><ele>462.4285714285714</ele><time>2026-04-11T15:21:11.002Z</time></trkpt><trkpt lat="43.16461341870271" lon="11.670463736740993"><ele>461.8571428571428</ele><time>2026-04-11T15:21:12.002Z</time></trkpt><trkpt lat="43.1646235819335" lon="11.670369101897693"><ele>461.2857142857143</ele><time>2026-04-11T15:21:13.002Z</time></trkpt><trkpt lat="43.16463864543483" lon="11.67027894791407"><ele>460.71428571428567</ele><time>2026-04-11T15:21:14.002Z</time></trkpt><trkpt lat="43.16464795092558" lon="11.670187067122358"><ele>460.1428571428571</ele><time>2026-04-11T15:21:15.002Z</time></trkpt><trkpt lat="43.16465586097679" lon="11.670100410114078"><ele>459.57142857142856</ele><time>2026-04-11T15:21:16.002Z</time></trkpt><trkpt lat="43.16465954943296" lon="11.670010460097748"><ele>459.0</ele><time>2026-04-11T15:21:17.002Z</time></trkpt><trkpt lat="43.16465776150003" lon="11.669913954850703"><ele>458.7142857142857</ele><time>2026-04-11T15:21:18.002Z</time></trkpt><trkpt lat="43.164634602353885" lon="11.669830161096161"><ele>458.42857142857144</ele><time>2026-04-11T15:21:19.003Z</time></trkpt><trkpt lat="43.16460966600449" lon="11.669742794416823"><ele>458.14285714285717</ele><time>2026-04-11T15:21:20.003Z</time></trkpt><trkpt lat="43.16457792273525" lon="11.669658256562439"><ele>457.8571428571429</ele><time>2026-04-11T15:21:21.003Z</time></trkpt><trkpt lat="43.164542032199044" lon="11.669572268153521"><ele>457.57142857142856</ele><time>2026-04-11T15:21:22.003Z</time></trkpt><trkpt lat="43.16451160301916" lon="11.669485529136017"><ele>457.28571428571433</ele><time>2026-04-11T15:21:23.003Z</time></trkpt><trkpt lat="43.16446920047931" lon="11.669407447376033"><ele>457.00000000000006</ele><time>2026-04-11T15:21:24.003Z</time></trkpt><trkpt lat="43.16442513694087" lon="11.669320282950903"><ele>457.00000000000006</ele><time>2026-04-11T15:21:25.003Z</time></trkpt><trkpt lat="43.164376562064234" lon="11.669250424971441"><ele>457.0</ele><time>2026-04-11T15:21:26.003Z</time></trkpt><trkpt lat="43.16434344087764" lon="11.66916260833829"><ele>457.0</ele><time>2026-04-11T15:21:27.003Z</time></trkpt><trkpt lat="43.16428268406483" lon="11.669100057466103"><ele>457.0</ele><time>2026-04-11T15:21:28.003Z</time></trkpt><trkpt lat="43.16423287260031" lon="11.669001252831823"><ele>457.00000000000006</ele><time>2026-04-11T15:21:29.003Z</time></trkpt><trkpt lat="43.164181613911545" lon="11.668936831949983"><ele>457.0</ele><time>2026-04-11T15:21:30.003Z</time></trkpt><trkpt lat="43.1641209646278" lon="11.668861702211439"><ele>457.00000000000006</ele><time>2026-04-11T15:21:31.003Z</time></trkpt><trkpt lat="43.16406733529571" lon="11.668807674211719"><ele>457.0</ele><time>2026-04-11T15:21:32.003Z</time></trkpt><trkpt lat="43.16400873117866" lon="11.668738023564552"><ele>457.0</ele><time>2026-04-11T15:21:33.003Z</time></trkpt><trkpt lat="43.16396696595089" lon="11.66865462937917"><ele>457.0</ele><time>2026-04-11T15:21:34.003Z</time></trkpt><trkpt lat="43.16388415114179" lon="11.668509488817683"><ele>457.00000000000006</ele><time>2026-04-11T15:21:36.003Z</time></trkpt><trkpt lat="43.163848911746726" lon="11.668430214473574"><ele>457.0</ele><time>2026-04-11T15:21:37.003Z</time></trkpt><trkpt lat="43.163812073602784" lon="11.668338097725998"><ele>454.6666666666667</ele><time>2026-04-11T15:21:38.003Z</time></trkpt><trkpt lat="43.16377733280473" lon="11.668241442032661"><ele>452.33333333333337</ele><time>2026-04-11T15:21:39.003Z</time></trkpt><trkpt lat="43.163741490150876" lon="11.668129974727526"><ele>450.0</ele><time>2026-04-11T15:21:40.003Z</time></trkpt><trkpt lat="43.163712848006604" lon="11.668038274328461"><ele>447.66666666666663</ele><time>2026-04-11T15:21:41.003Z</time></trkpt><trkpt lat="43.16368229611891" lon="11.667942115827357"><ele>445.3333333333333</ele><time>2026-04-11T15:21:42.003Z</time></trkpt><trkpt lat="43.163645150472284" lon="11.667833748773567"><ele>443.0</ele><time>2026-04-11T15:21:43.003Z</time></trkpt><trkpt lat="43.163602241657074" lon="11.667726809596202"><ele>442.4</ele><time>2026-04-11T15:21:44.003Z</time></trkpt><trkpt lat="43.16355087168602" lon="11.667607255313769"><ele>441.79999999999995</ele><time>2026-04-11T15:21:45.003Z</time></trkpt><trkpt lat="43.16350093486816" lon="11.667491036313407"><ele>441.2</ele><time>2026-04-11T15:21:46.003Z</time></trkpt><trkpt lat="43.16344376837839" lon="11.667355148903047"><ele>440.6</ele><time>2026-04-11T15:21:47.003Z</time></trkpt><trkpt lat="43.16338694927312" lon="11.667214766634102"><ele>440.0</ele><time>2026-04-11T15:21:48Z</time></trkpt><trkpt lat="43.16332436880001" lon="11.667102037015713"><ele>439.99999999999994</ele><time>2026-04-11T15:21:49Z</time></trkpt><trkpt lat="43.163287985221714" lon="11.66696453297877"><ele>440.0</ele><time>2026-04-11T15:21:50Z</time></trkpt><trkpt lat="43.16322816932737" lon="11.666852479698726"><ele>440.0</ele><time>2026-04-11T15:21:51Z</time></trkpt><trkpt lat="43.16319118345014" lon="11.666745738979163"><ele>440.0</ele><time>2026-04-11T15:21:51.999Z</time></trkpt><trkpt lat="43.163166538867316" lon="11.666646340675149"><ele>439.99999999999994</ele><time>2026-04-11T15:21:53Z</time></trkpt><trkpt lat="43.16313987546042" lon="11.666553216162399"><ele>440.0</ele><time>2026-04-11T15:21:53.999Z</time></trkpt><trkpt lat="43.16311480122863" lon="11.666428272326051"><ele>438.99999999999994</ele><time>2026-04-11T15:21:54.999Z</time></trkpt><trkpt lat="43.16308875386578" lon="11.666314908633453"><ele>438.0</ele><time>2026-04-11T15:21:55.999Z</time></trkpt><trkpt lat="43.16305396320117" lon="11.666216342944512"><ele>437.0</ele><time>2026-04-11T15:21:56.999Z</time></trkpt><trkpt lat="43.16302706353228" lon="11.666094863701709"><ele>436.0</ele><time>2026-04-11T15:21:57.999Z</time></trkpt><trkpt lat="43.16299977484992" lon="11.665994697675293"><ele>434.99999999999994</ele><time>2026-04-11T15:21:58.999Z</time></trkpt><trkpt lat="43.162947428422875" lon="11.66590332423171"><ele>434.0</ele><time>2026-04-11T15:21:59.999Z</time></trkpt><trkpt lat="43.162897074725194" lon="11.66580458712723"><ele>433.6</ele><time>2026-04-11T15:22:00.999Z</time></trkpt><trkpt lat="43.16282714921875" lon="11.665714885379119"><ele>433.2</ele><time>2026-04-11T15:22:01.999Z</time></trkpt><trkpt lat="43.162760595000385" lon="11.66563189355691"><ele>432.80000000000007</ele><time>2026-04-11T15:22:02.999Z</time></trkpt><trkpt lat="43.162696397268576" lon="11.665543624222746"><ele>432.40000000000003</ele><time>2026-04-11T15:22:03.999Z</time></trkpt><trkpt lat="43.16264269600558" lon="11.665463831731616"><ele>432.0</ele><time>2026-04-11T15:22:05Z</time></trkpt><trkpt lat="43.162572077486615" lon="11.66535865463574"><ele>432.1666666666667</ele><time>2026-04-11T15:22:06Z</time></trkpt><trkpt lat="43.16255226619718" lon="11.665231676218815"><ele>432.33333333333337</ele><time>2026-04-11T15:22:07Z</time></trkpt><trkpt lat="43.162521948239146" lon="11.665127339275076"><ele>432.5</ele><time>2026-04-11T15:22:08Z</time></trkpt><trkpt lat="43.162484387451556" lon="11.665027726131107"><ele>432.6666666666667</ele><time>2026-04-11T15:22:09Z</time></trkpt><trkpt lat="43.1624337806989" lon="11.664938972833722"><ele>432.83333333333337</ele><time>2026-04-11T15:22:10Z</time></trkpt><trkpt lat="43.16238046441183" lon="11.664858462477666"><ele>433.0</ele><time>2026-04-11T15:22:11Z</time></trkpt><trkpt lat="43.16232880620063" lon="11.664770118327025"><ele>433.0</ele><time>2026-04-11T15:22:12Z</time></trkpt><trkpt lat="43.16226858553192" lon="11.664714943582284"><ele>432.99999999999994</ele><time>2026-04-11T15:22:13Z</time></trkpt><trkpt lat="43.16221674908393" lon="11.664652048545658"><ele>432.99999999999994</ele><time>2026-04-11T15:22:14Z</time></trkpt><trkpt lat="43.16216008806508" lon="11.664598164440886"><ele>433.0</ele><time>2026-04-11T15:22:15Z</time></trkpt><trkpt lat="43.16205884870563" lon="11.664494532196771"><ele>433.0</ele><time>2026-04-11T15:22:17Z</time></trkpt><trkpt lat="43.161962320745104" lon="11.664414015400297"><ele>432.2</ele><time>2026-04-11T15:22:19Z</time></trkpt><trkpt lat="43.16186396086394" lon="11.664311502668873"><ele>431.4</ele><time>2026-04-11T15:22:21Z</time></trkpt><trkpt lat="43.161751903205236" lon="11.66423994717092"><ele>430.59999999999997</ele><time>2026-04-11T15:22:23Z</time></trkpt><trkpt lat="43.16165850225681" lon="11.664177489350596"><ele>429.79999999999995</ele><time>2026-04-11T15:22:25Z</time></trkpt><trkpt lat="43.16157287065175" lon="11.664118467566228"><ele>429.0</ele><time>2026-04-11T15:22:27Z</time></trkpt><trkpt lat="43.161484280851006" lon="11.664050192543453"><ele>429.5</ele><time>2026-04-11T15:22:29.001Z</time></trkpt><trkpt lat="43.16138956139407" lon="11.66398301345729"><ele>430.0</ele><time>2026-04-11T15:22:31.001Z</time></trkpt><trkpt lat="43.16130161399197" lon="11.663867638200719"><ele>430.5</ele><time>2026-04-11T15:22:33.001Z</time></trkpt><trkpt lat="43.161244145042076" lon="11.663823136093288"><ele>431.0</ele><time>2026-04-11T15:22:34.001Z</time></trkpt><trkpt lat="43.16119364442637" lon="11.663736071579905"><ele>431.5</ele><time>2026-04-11T15:22:35.001Z</time></trkpt><trkpt lat="43.161148915088845" lon="11.663663983541213"><ele>432.0</ele><time>2026-04-11T15:22:36.001Z</time></trkpt><trkpt lat="43.161097456545825" lon="11.663593697038857"><ele>432.0</ele><time>2026-04-11T15:22:37.001Z</time></trkpt><trkpt lat="43.161072694938014" lon="11.663505250072213"><ele>432.0</ele><time>2026-04-11T15:22:38.001Z</time></trkpt><trkpt lat="43.1610703888355" lon="11.6634106490366"><ele>432.0</ele><time>2026-04-11T15:22:39.001Z</time></trkpt><trkpt lat="43.161046625284264" lon="11.663325545335985"><ele>432.0</ele><time>2026-04-11T15:22:40.001Z</time></trkpt><trkpt lat="43.16104732471717" lon="11.663236647291638"><ele>432.0</ele><time>2026-04-11T15:22:41.001Z</time></trkpt><trkpt lat="43.16104720894579" lon="11.66314314924764"><ele>432.0</ele><time>2026-04-11T15:22:42.001Z</time></trkpt><trkpt lat="43.161038239951594" lon="11.663056055065589"><ele>432.0</ele><time>2026-04-11T15:22:43.001Z</time></trkpt><trkpt lat="43.16101785977723" lon="11.662958632988854"><ele>432.0</ele><time>2026-04-11T15:22:44.001Z</time></trkpt><trkpt lat="43.16100319630364" lon="11.662858256287262"><ele>432.0</ele><time>2026-04-11T15:22:45.001Z</time></trkpt><trkpt lat="43.16098876054519" lon="11.662753284914805"><ele>432.0</ele><time>2026-04-11T15:22:46.001Z</time></trkpt><trkpt lat="43.16096542966623" lon="11.662666837999"><ele>432.0</ele><time>2026-04-11T15:22:47.001Z</time></trkpt><trkpt lat="43.160941166991" lon="11.662579061398265"><ele>432.0</ele><time>2026-04-11T15:22:48.001Z</time></trkpt><trkpt lat="43.160876459711744" lon="11.662432828757263"><ele>432.0</ele><time>2026-04-11T15:22:50.001Z</time></trkpt><trkpt lat="43.160835813584676" lon="11.662343901851331"><ele>430.57142857142856</ele><time>2026-04-11T15:22:51.001Z</time></trkpt><trkpt lat="43.16079380887469" lon="11.662278260219365"><ele>429.1428571428571</ele><time>2026-04-11T15:22:52.001Z</time></trkpt><trkpt lat="43.16075074657181" lon="11.662209479502064"><ele>427.7142857142857</ele><time>2026-04-11T15:22:53.001Z</time></trkpt><trkpt lat="43.1607151910823" lon="11.662136741957207"><ele>426.2857142857143</ele><time>2026-04-11T15:22:54.001Z</time></trkpt><trkpt lat="43.160672086601124" lon="11.662067415853329"><ele>424.8571428571429</ele><time>2026-04-11T15:22:55.001Z</time></trkpt><trkpt lat="43.160631910269665" lon="11.661989086465237"><ele>423.42857142857144</ele><time>2026-04-11T15:22:56.001Z</time></trkpt><trkpt lat="43.16059752027665" lon="11.661905041825431"><ele>422.0</ele><time>2026-04-11T15:22:57.001Z</time></trkpt><trkpt lat="43.160565539666436" lon="11.661816368767443"><ele>419.49999999999994</ele><time>2026-04-11T15:22:58.001Z</time></trkpt><trkpt lat="43.16053506133678" lon="11.661731584794472"><ele>417.0</ele><time>2026-04-11T15:22:59.001Z</time></trkpt><trkpt lat="43.16049823976424" lon="11.661651322954665"><ele>414.5</ele><time>2026-04-11T15:23:00.002Z</time></trkpt><trkpt lat="43.16045698068425" lon="11.661568009899604"><ele>412.0</ele><time>2026-04-11T15:23:01.002Z</time></trkpt><trkpt lat="43.16042345291689" lon="11.661477471099907"><ele>409.49999999999994</ele><time>2026-04-11T15:23:02.002Z</time></trkpt><trkpt lat="43.160391355882325" lon="11.66131325217684"><ele>407.0</ele><time>2026-04-11T15:23:04.002Z</time></trkpt><trkpt lat="43.16041332073518" lon="11.661212567374893"><ele>407.0</ele><time>2026-04-11T15:23:05.002Z</time></trkpt><trkpt lat="43.16049088151547" lon="11.6611264508766"><ele>407.0</ele><time>2026-04-11T15:23:06.002Z</time></trkpt><trkpt lat="43.16053823473028" lon="11.661018173744747"><ele>407.0</ele><time>2026-04-11T15:23:07.002Z</time></trkpt><trkpt lat="43.160595614273994" lon="11.66091246981569"><ele>407.0</ele><time>2026-04-11T15:23:08.002Z</time></trkpt><trkpt lat="43.16062012447078" lon="11.660786074151988"><ele>407.0</ele><time>2026-04-11T15:23:09.002Z</time></trkpt><trkpt lat="43.16062780541165" lon="11.660652577700784"><ele>404.8333333333333</ele><time>2026-04-11T15:23:10.002Z</time></trkpt><trkpt lat="43.160616923639274" lon="11.660516623984469"><ele>402.66666666666663</ele><time>2026-04-11T15:23:11.002Z</time></trkpt><trkpt lat="43.16060528733375" lon="11.660394682482446"><ele>400.5</ele><time>2026-04-11T15:23:12.002Z</time></trkpt><trkpt lat="43.160606703402415" lon="11.660278357024103"><ele>398.33333333333337</ele><time>2026-04-11T15:23:13.002Z</time></trkpt><trkpt lat="43.16061332332455" lon="11.660159452476515"><ele>396.1666666666667</ele><time>2026-04-11T15:23:14.002Z</time></trkpt><trkpt lat="43.16062632448616" lon="11.660044838578557"><ele>394.0</ele><time>2026-04-11T15:23:15.002Z</time></trkpt><trkpt lat="43.16064454912811" lon="11.659934238785757"><ele>392.50000000000006</ele><time>2026-04-11T15:23:16.002Z</time></trkpt><trkpt lat="43.16066134271593" lon="11.659823142499189"><ele>391.0</ele><time>2026-04-11T15:23:17.002Z</time></trkpt><trkpt lat="43.160668630538076" lon="11.659710979838854"><ele>389.5</ele><time>2026-04-11T15:23:18.002Z</time></trkpt><trkpt lat="43.160647127098635" lon="11.65960529365525"><ele>388.0</ele><time>2026-04-11T15:23:19.002Z</time></trkpt><trkpt lat="43.160588750844" lon="11.659490316728737"><ele>386.50000000000006</ele><time>2026-04-11T15:23:20.002Z</time></trkpt><trkpt lat="43.16054083308802" lon="11.659408369783124"><ele>385.0</ele><time>2026-04-11T15:23:21.002Z</time></trkpt><trkpt lat="43.160514885240296" lon="11.659310529917681"><ele>385.0</ele><time>2026-04-11T15:23:22.002Z</time></trkpt><trkpt lat="43.16046603833447" lon="11.659233817561033"><ele>385.0</ele><time>2026-04-11T15:23:23.002Z</time></trkpt><trkpt lat="43.160434051428076" lon="11.659144535295306"><ele>385.0</ele><time>2026-04-11T15:23:24.002Z</time></trkpt><trkpt lat="43.16040632829188" lon="11.659057098306238"><ele>385.0</ele><time>2026-04-11T15:23:25.002Z</time></trkpt><trkpt lat="43.16037709657946" lon="11.658972543278127"><ele>385.0</ele><time>2026-04-11T15:23:26.002Z</time></trkpt><trkpt lat="43.160357235596976" lon="11.658887112605603"><ele>385.0</ele><time>2026-04-11T15:23:27.002Z</time></trkpt><trkpt lat="43.160335665817314" lon="11.65880508515968"><ele>385.0</ele><time>2026-04-11T15:23:28.002Z</time></trkpt><trkpt lat="43.160309373580546" lon="11.658723742205979"><ele>387.8</ele><time>2026-04-11T15:23:29.002Z</time></trkpt><trkpt lat="43.160274579042756" lon="11.658592197479358"><ele>390.6</ele><time>2026-04-11T15:23:31.002Z</time></trkpt><trkpt lat="43.160233958518404" lon="11.658460423920063"><ele>393.4</ele><time>2026-04-11T15:23:33.003Z</time></trkpt><trkpt lat="43.16019928614672" lon="11.658329828473812"><ele>396.2</ele><time>2026-04-11T15:23:35.003Z</time></trkpt><trkpt lat="43.1601564151009" lon="11.658202989203248"><ele>399.0</ele><time>2026-04-11T15:23:37.003Z</time></trkpt><trkpt lat="43.160110871217164" lon="11.65807168097043"><ele>399.0</ele><time>2026-04-11T15:23:39.003Z</time></trkpt><trkpt lat="43.160081102040486" lon="11.657940223155043"><ele>399.0</ele><time>2026-04-11T15:23:41.003Z</time></trkpt><trkpt lat="43.16003228675693" lon="11.657800353081077"><ele>399.0</ele><time>2026-04-11T15:23:43.003Z</time></trkpt><trkpt lat="43.159973405073664" lon="11.657683870098367"><ele>399.0</ele><time>2026-04-11T15:23:45.003Z</time></trkpt><trkpt lat="43.1599326860303" lon="11.657551445538019"><ele>399.0</ele><time>2026-04-11T15:23:47.003Z</time></trkpt><trkpt lat="43.15988483524404" lon="11.657426581532652"><ele>398.3333333333333</ele><time>2026-04-11T15:23:49.003Z</time></trkpt><trkpt lat="43.1598647128442" lon="11.657297129907981"><ele>397.66666666666663</ele><time>2026-04-11T15:23:51.003Z</time></trkpt><trkpt lat="43.15984284096772" lon="11.657173701572543"><ele>397.0</ele><time>2026-04-11T15:23:53.003Z</time></trkpt><trkpt lat="43.15981375852549" lon="11.65706022795368"><ele>396.3333333333333</ele><time>2026-04-11T15:23:54.997Z</time></trkpt><trkpt lat="43.159799712024565" lon="11.656957539556545"><ele>395.66666666666663</ele><time>2026-04-11T15:23:56.997Z</time></trkpt><trkpt lat="43.15977693913737" lon="11.656835670175974"><ele>395.0</ele><time>2026-04-11T15:23:58.998Z</time></trkpt><trkpt lat="43.159765573612894" lon="11.656743718069706"><ele>394.99999999999994</ele><time>2026-04-11T15:24:00.998Z</time></trkpt><trkpt lat="43.159710758621884" lon="11.656642753648898"><ele>395.0</ele><time>2026-04-11T15:24:03.998Z</time></trkpt><trkpt lat="43.15964792088996" lon="11.656582388366957"><ele>395.0</ele><time>2026-04-11T15:24:05.999Z</time></trkpt><trkpt lat="43.159595418577744" lon="11.6565261511725"><ele>395.0</ele><time>2026-04-11T15:24:07.999Z</time></trkpt><trkpt lat="43.15956450416215" lon="11.656443003677312"><ele>394.99999999999994</ele><time>2026-04-11T15:24:09.999Z</time></trkpt><trkpt lat="43.15952409185439" lon="11.6563341909941"><ele>395.0</ele><time>2026-04-11T15:24:12.999Z</time></trkpt><trkpt lat="43.159508039950005" lon="11.65623888291039"><ele>394.99999999999994</ele><time>2026-04-11T15:24:14.999Z</time></trkpt><trkpt lat="43.159472975784404" lon="11.656152085539022"><ele>395.0</ele><time>2026-04-11T15:24:17Z</time></trkpt><trkpt lat="43.15944312391585" lon="11.656044877399916"><ele>395.0</ele><time>2026-04-11T15:24:19Z</time></trkpt><trkpt lat="43.15941165888856" lon="11.655953748897543"><ele>395.0</ele><time>2026-04-11T15:24:21Z</time></trkpt><trkpt lat="43.15937113322558" lon="11.655859112080854"><ele>394.99999999999994</ele><time>2026-04-11T15:24:23Z</time></trkpt><trkpt lat="43.15933508927193" lon="11.655751037984528"><ele>395.0</ele><time>2026-04-11T15:24:25Z</time></trkpt><trkpt lat="43.15929348969297" lon="11.655643093493998"><ele>396.4285714285714</ele><time>2026-04-11T15:24:27Z</time></trkpt><trkpt lat="43.15925507615045" lon="11.655561554137867"><ele>397.8571428571429</ele><time>2026-04-11T15:24:29Z</time></trkpt><trkpt lat="43.15922730255194" lon="11.655480043776853"><ele>399.2857142857143</ele><time>2026-04-11T15:24:31Z</time></trkpt><trkpt lat="43.15919006585655" lon="11.65537771308311"><ele>400.71428571428567</ele><time>2026-04-11T15:24:34.001Z</time></trkpt><trkpt lat="43.15915072043429" lon="11.655293499809778"><ele>402.1428571428571</ele><time>2026-04-11T15:24:38.001Z</time></trkpt><trkpt lat="43.15918893317621" lon="11.655384350014964"><ele>403.57142857142856</ele><time>2026-04-11T15:24:44.001Z</time></trkpt><trkpt lat="43.15924217776581" lon="11.655465872745834"><ele>405.0</ele><time>2026-04-11T15:24:46.001Z</time></trkpt><trkpt lat="43.15927329774029" lon="11.65554907942324"><ele>405.0</ele><time>2026-04-11T15:24:48.001Z</time></trkpt><trkpt lat="43.159323431506316" lon="11.655660400068"><ele>405.0</ele><time>2026-04-11T15:24:50.001Z</time></trkpt><trkpt lat="43.15937022725184" lon="11.655774132030697"><ele>405.0</ele><time>2026-04-11T15:24:52.001Z</time></trkpt><trkpt lat="43.15940531570797" lon="11.655902148615905"><ele>405.0</ele><time>2026-04-11T15:24:54.001Z</time></trkpt><trkpt lat="43.15945126745503" lon="11.656025200168083"><ele>405.0</ele><time>2026-04-11T15:24:56.001Z</time></trkpt><trkpt lat="43.15949197642783" lon="11.656173620666284"><ele>403.0</ele><time>2026-04-11T15:24:58.001Z</time></trkpt><trkpt lat="43.159518562340175" lon="11.656329453789182"><ele>401.0</ele><time>2026-04-11T15:25:00.001Z</time></trkpt><trkpt lat="43.15955048418149" lon="11.656473693005712"><ele>399.0</ele><time>2026-04-11T15:25:02.002Z</time></trkpt><trkpt lat="43.15959526951241" lon="11.65656886770265"><ele>397.0</ele><time>2026-04-11T15:25:04.002Z</time></trkpt><trkpt lat="43.15964391088393" lon="11.65665682937137"><ele>395.0</ele><time>2026-04-11T15:25:06.002Z</time></trkpt><trkpt lat="43.15969812512345" lon="11.656752401700297"><ele>395.0</ele><time>2026-04-11T15:25:08.002Z</time></trkpt><trkpt lat="43.15973452699713" lon="11.656835604473565"><ele>395.0</ele><time>2026-04-11T15:25:10.002Z</time></trkpt><trkpt lat="43.159767653128014" lon="11.656929494060082"><ele>395.0</ele><time>2026-04-11T15:25:12.002Z</time></trkpt><trkpt lat="43.160080685787214" lon="11.65681337861691"><ele>396.0</ele><time>2026-04-11T15:25:14.002Z</time></trkpt><trkpt lat="43.160199121219634" lon="11.656828724541636"><ele>397.0</ele><time>2026-04-11T15:25:16.002Z</time></trkpt><trkpt lat="43.16031572865916" lon="11.65686508647431"><ele>398.0</ele><time>2026-04-11T15:25:18.002Z</time></trkpt><trkpt lat="43.160425908724676" lon="11.656882980231599"><ele>399.0</ele><time>2026-04-11T15:25:20.002Z</time></trkpt><trkpt lat="43.1605403279351" lon="11.656904538168796"><ele>399.0</ele><time>2026-04-11T15:25:22.002Z</time></trkpt><trkpt lat="43.160631682439224" lon="11.656919154698562"><ele>399.0</ele><time>2026-04-11T15:25:24.002Z</time></trkpt><trkpt lat="43.160705778712895" lon="11.656923951764103"><ele>399.0</ele><time>2026-04-11T15:25:26.002Z</time></trkpt><trkpt lat="43.16078136767855" lon="11.656912531581696"><ele>399.0</ele><time>2026-04-11T15:25:28.002Z</time></trkpt><trkpt lat="43.16085818615418" lon="11.656888532638783"><ele>399.0</ele><time>2026-04-11T15:25:31.002Z</time></trkpt><trkpt lat="43.16093455797572" lon="11.656869397098868"><ele>399.0</ele><time>2026-04-11T15:25:34.003Z</time></trkpt><trkpt lat="43.16084678080742" lon="11.656838374312372"><ele>399.0</ele><time>2026-04-11T15:25:41.003Z</time></trkpt><trkpt lat="43.16073439700632" lon="11.65687022380569"><ele>399.0</ele><time>2026-04-11T15:25:43.003Z</time></trkpt><trkpt lat="43.16062300714212" lon="11.656880288134866"><ele>399.0</ele><time>2026-04-11T15:25:45.003Z</time></trkpt><trkpt lat="43.16050084167252" lon="11.656848747132317"><ele>399.0</ele><time>2026-04-11T15:25:47.003Z</time></trkpt><trkpt lat="43.160436647514366" lon="11.656834938218257"><ele>399.0</ele><time>2026-04-11T15:25:48.003Z</time></trkpt><trkpt lat="43.16037195464748" lon="11.65682747831257"><ele>399.0</ele><time>2026-04-11T15:25:49.003Z</time></trkpt><trkpt lat="43.160307261660556" lon="11.656817399756084"><ele>399.0</ele><time>2026-04-11T15:25:50.003Z</time></trkpt><trkpt lat="43.16024270388615" lon="11.65680313631459"><ele>399.0</ele><time>2026-04-11T15:25:51.003Z</time></trkpt><trkpt lat="43.16017676442318" lon="11.656788650948384"><ele>399.0</ele><time>2026-04-11T15:25:52.003Z</time></trkpt><trkpt lat="43.16005270128217" lon="11.656764188750167"><ele>399.0</ele><time>2026-04-11T15:25:54.003Z</time></trkpt><trkpt lat="43.15998502489708" lon="11.656764403362365"><ele>399.0</ele><time>2026-04-11T15:25:55.003Z</time></trkpt><trkpt lat="43.15990031019961" lon="11.656766102953847"><ele>398.3333333333333</ele><time>2026-04-11T15:25:56.003Z</time></trkpt><trkpt lat="43.15980757437056" lon="11.656769444401972"><ele>397.66666666666663</ele><time>2026-04-11T15:25:58.003Z</time></trkpt><trkpt lat="43.159729575333685" lon="11.656808931041144"><ele>397.0</ele><time>2026-04-11T15:25:59.999Z</time></trkpt><trkpt lat="43.1597312052778" lon="11.656942801812413"><ele>396.3333333333333</ele><time>2026-04-11T15:26:01.999Z</time></trkpt><trkpt lat="43.15977806518385" lon="11.657006868718437"><ele>395.66666666666663</ele><time>2026-04-11T15:26:03.999Z</time></trkpt><trkpt lat="43.15976037226343" lon="11.656919931241754"><ele>395.0</ele><time>2026-04-11T15:26:06.999Z</time></trkpt><trkpt lat="43.15979022754083" lon="11.656820850785682"><ele>395.0</ele><time>2026-04-11T15:26:09.999Z</time></trkpt><trkpt lat="43.15976397469765" lon="11.65674004325267"><ele>395.0</ele><time>2026-04-11T15:27:17.002Z</time></trkpt><trkpt lat="43.15982541240791" lon="11.656701764440193"><ele>395.0</ele><time>2026-04-11T15:27:22.002Z</time></trkpt><trkpt lat="43.159887041036704" lon="11.65674374648449"><ele>395.0</ele><time>2026-04-11T15:27:24.002Z</time></trkpt><trkpt lat="43.15995915447402" lon="11.656761998674076"><ele>395.0</ele><time>2026-04-11T15:27:26.002Z</time></trkpt><trkpt lat="43.16005230529611" lon="11.656769797128145"><ele>395.0</ele><time>2026-04-11T15:27:28.002Z</time></trkpt><trkpt lat="43.160125601169014" lon="11.656788817243696"><ele>395.0</ele><time>2026-04-11T15:27:30.002Z</time></trkpt><trkpt lat="43.160216957694274" lon="11.656809487123367"><ele>395.8</ele><time>2026-04-11T15:27:32.002Z</time></trkpt><trkpt lat="43.16030378134018" lon="11.656823336891355"><ele>396.6</ele><time>2026-04-11T15:27:34.002Z</time></trkpt><trkpt lat="43.160405146483086" lon="11.6568494837721"><ele>397.4</ele><time>2026-04-11T15:27:36.002Z</time></trkpt><trkpt lat="43.16050187539599" lon="11.656875624063527"><ele>398.2</ele><time>2026-04-11T15:27:38.003Z</time></trkpt><trkpt lat="43.16058602786809" lon="11.656899528143981"><ele>399.0</ele><time>2026-04-11T15:27:40.003Z</time></trkpt><trkpt lat="43.16068047640033" lon="11.656906236049815"><ele>399.0</ele><time>2026-04-11T15:27:42.003Z</time></trkpt><trkpt lat="43.16077155485895" lon="11.65688256991011"><ele>399.0</ele><time>2026-04-11T15:27:44.003Z</time></trkpt><trkpt lat="43.160870772358976" lon="11.656872626862091"><ele>399.0</ele><time>2026-04-11T15:27:46.003Z</time></trkpt><trkpt lat="43.16096691897817" lon="11.65683697362398"><ele>399.0</ele><time>2026-04-11T15:27:48.003Z</time></trkpt><trkpt lat="43.16106602269487" lon="11.656829544024683"><ele>399.0</ele><time>2026-04-11T15:27:50.003Z</time></trkpt><trkpt lat="43.16118344969209" lon="11.65682288526282"><ele>399.0</ele><time>2026-04-11T15:27:52.003Z</time></trkpt><trkpt lat="43.16127232271169" lon="11.656838373800683"><ele>399.0</ele><time>2026-04-11T15:27:54.003Z</time></trkpt><trkpt lat="43.16137225050872" lon="11.656901637560962"><ele>399.0</ele><time>2026-04-11T15:27:57.003Z</time></trkpt><trkpt lat="43.1614603810449" lon="11.657035352724344"><ele>399.0</ele><time>2026-04-11T15:28:00.003Z</time></trkpt><trkpt lat="43.161588121683174" lon="11.657181562367684"><ele>401.79999999999995</ele><time>2026-04-11T15:28:02.003Z</time></trkpt><trkpt lat="43.16164515744806" lon="11.65728517841856"><ele>404.59999999999997</ele><time>2026-04-11T15:28:04.003Z</time></trkpt><trkpt lat="43.16171664653073" lon="11.657383915339356"><ele>407.4</ele><time>2026-04-11T15:28:06Z</time></trkpt><trkpt lat="43.16176169217975" lon="11.657496207692478"><ele>410.2</ele><time>2026-04-11T15:28:08Z</time></trkpt><trkpt lat="43.16181261116332" lon="11.65759921912239"><ele>413.0</ele><time>2026-04-11T15:28:10Z</time></trkpt><trkpt lat="43.16185341808203" lon="11.657678187646853"><ele>413.0</ele><time>2026-04-11T15:28:12Z</time></trkpt><trkpt lat="43.161896064459604" lon="11.657749595163486"><ele>413.0</ele><time>2026-04-11T15:28:14Z</time></trkpt><trkpt lat="43.16192905632044" lon="11.657847306646746"><ele>413.0</ele><time>2026-04-11T15:28:16Z</time></trkpt><trkpt lat="43.161969162729086" lon="11.657940025392767"><ele>413.0</ele><time>2026-04-11T15:28:18Z</time></trkpt><trkpt lat="43.16200253136115" lon="11.658027704473568"><ele>413.0</ele><time>2026-04-11T15:28:20Z</time></trkpt><trkpt lat="43.16201934585662" lon="11.658111243819485"><ele>413.0</ele><time>2026-04-11T15:28:22Z</time></trkpt><trkpt lat="43.16205303163163" lon="11.658202595850202"><ele>413.0</ele><time>2026-04-11T15:28:24Z</time></trkpt><trkpt lat="43.1620843219669" lon="11.658290495246806"><ele>415.99999999999994</ele><time>2026-04-11T15:28:26Z</time></trkpt><trkpt lat="43.16211390867317" lon="11.658383634388082"><ele>419.0</ele><time>2026-04-11T15:28:28Z</time></trkpt><trkpt lat="43.16214593260779" lon="11.658471682822604"><ele>422.0</ele><time>2026-04-11T15:28:30Z</time></trkpt><trkpt lat="43.16217362776861" lon="11.658563000275253"><ele>425.0</ele><time>2026-04-11T15:28:32Z</time></trkpt><trkpt lat="43.16222311192844" lon="11.658659716518393"><ele>427.99999999999994</ele><time>2026-04-11T15:28:35Z</time></trkpt><trkpt lat="43.16226699832568" lon="11.658772368960827"><ele>431.0</ele><time>2026-04-11T15:28:38.001Z</time></trkpt><trkpt lat="43.16233024022871" lon="11.658867328973344"><ele>431.2857142857143</ele><time>2026-04-11T15:28:41.001Z</time></trkpt><trkpt lat="43.16239988865213" lon="11.658902349517538"><ele>431.57142857142856</ele><time>2026-04-11T15:28:43.001Z</time></trkpt><trkpt lat="43.16246655734718" lon="11.658920529667952"><ele>431.85714285714283</ele><time>2026-04-11T15:28:45.001Z</time></trkpt><trkpt lat="43.1625357652275" lon="11.658924839764861"><ele>432.1428571428571</ele><time>2026-04-11T15:28:47.001Z</time></trkpt><trkpt lat="43.16259724751407" lon="11.658891971077448"><ele>432.42857142857144</ele><time>2026-04-11T15:28:49.001Z</time></trkpt><trkpt lat="43.16265460315052" lon="11.658844015378818"><ele>432.71428571428567</ele><time>2026-04-11T15:28:51.001Z</time></trkpt><trkpt lat="43.16270806954325" lon="11.658780624531088"><ele>433.0</ele><time>2026-04-11T15:28:53.001Z</time></trkpt><trkpt lat="43.16275873426289" lon="11.658723196456716"><ele>433.00000000000006</ele><time>2026-04-11T15:28:55.001Z</time></trkpt><trkpt lat="43.16280863473501" lon="11.658639329074544"><ele>433.0</ele><time>2026-04-11T15:28:57.001Z</time></trkpt><trkpt lat="43.162857596551" lon="11.658542765413493"><ele>433.0</ele><time>2026-04-11T15:28:59.001Z</time></trkpt><trkpt lat="43.162915906480116" lon="11.658484031183164"><ele>433.0</ele><time>2026-04-11T15:29:01.001Z</time></trkpt><trkpt lat="43.16297656388785" lon="11.65841798458092"><ele>433.00000000000006</ele><time>2026-04-11T15:29:03.001Z</time></trkpt><trkpt lat="43.16304067164499" lon="11.658372171477094"><ele>433.0</ele><time>2026-04-11T15:29:05.001Z</time></trkpt><trkpt lat="43.16311901474453" lon="11.658307166599236"><ele>431.6666666666667</ele><time>2026-04-11T15:29:07.001Z</time></trkpt><trkpt lat="43.16317754782355" lon="11.658267614873324"><ele>430.33333333333337</ele><time>2026-04-11T15:29:09.002Z</time></trkpt><trkpt lat="43.16325764120477" lon="11.658223019999408"><ele>429.0</ele><time>2026-04-11T15:29:11.002Z</time></trkpt><trkpt lat="43.163327504727505" lon="11.658190201689184"><ele>427.66666666666663</ele><time>2026-04-11T15:29:13.002Z</time></trkpt><trkpt lat="43.163410307487645" lon="11.658163381145489"><ele>426.3333333333333</ele><time>2026-04-11T15:29:15.002Z</time></trkpt><trkpt lat="43.16349924729154" lon="11.658156732272806"><ele>425.0</ele><time>2026-04-11T15:29:17.002Z</time></trkpt><trkpt lat="43.16359388154317" lon="11.658171273860575"><ele>424.99999999999994</ele><time>2026-04-11T15:29:19.002Z</time></trkpt><trkpt lat="43.163689425006496" lon="11.658160950262175"><ele>425.0</ele><time>2026-04-11T15:29:21.002Z</time></trkpt><trkpt lat="43.163775313251456" lon="11.658170394816448"><ele>425.0</ele><time>2026-04-11T15:29:23.002Z</time></trkpt><trkpt lat="43.16385898198547" lon="11.658168108653705"><ele>425.0</ele><time>2026-04-11T15:29:25.002Z</time></trkpt><trkpt lat="43.16394579518574" lon="11.658164766993737"><ele>424.99999999999994</ele><time>2026-04-11T15:29:27.002Z</time></trkpt><trkpt lat="43.16403695469842" lon="11.658179847434102"><ele>425.0</ele><time>2026-04-11T15:29:29.002Z</time></trkpt><trkpt lat="43.164130792430576" lon="11.658184254349917"><ele>425.6</ele><time>2026-04-11T15:29:31.002Z</time></trkpt><trkpt lat="43.16422073768422" lon="11.658176346810224"><ele>426.2</ele><time>2026-04-11T15:29:33.002Z</time></trkpt><trkpt lat="43.16431704834072" lon="11.658190497487386"><ele>426.79999999999995</ele><time>2026-04-11T15:29:35.002Z</time></trkpt><trkpt lat="43.164415490069544" lon="11.658198393988856"><ele>427.4</ele><time>2026-04-11T15:29:37.002Z</time></trkpt><trkpt lat="43.16450149056375" lon="11.65820001893054"><ele>428.0</ele><time>2026-04-11T15:29:39.002Z</time></trkpt><trkpt lat="43.164614926099986" lon="11.658207392338044"><ele>428.0</ele><time>2026-04-11T15:29:41.002Z</time></trkpt><trkpt lat="43.164715746824946" lon="11.658217908615088"><ele>427.99999999999994</ele><time>2026-04-11T15:29:43.003Z</time></trkpt><trkpt lat="43.16483380646909" lon="11.658214380365706"><ele>427.99999999999994</ele><time>2026-04-11T15:29:45.003Z</time></trkpt><trkpt lat="43.16493922385737" lon="11.65822293314828"><ele>428.0</ele><time>2026-04-11T15:29:47.003Z</time></trkpt><trkpt lat="43.165043157302925" lon="11.65823607591542"><ele>428.0</ele><time>2026-04-11T15:29:49.003Z</time></trkpt><trkpt lat="43.165150656736174" lon="11.658246626916004"><ele>427.2</ele><time>2026-04-11T15:29:51.003Z</time></trkpt><trkpt lat="43.16526941985728" lon="11.658270322566468"><ele>426.4</ele><time>2026-04-11T15:29:53.003Z</time></trkpt><trkpt lat="43.16538522684408" lon="11.658319168394506"><ele>425.59999999999997</ele><time>2026-04-11T15:29:55.003Z</time></trkpt><trkpt lat="43.16550099716465" lon="11.658383306070874"><ele>424.79999999999995</ele><time>2026-04-11T15:29:57.003Z</time></trkpt><trkpt lat="43.16555212280327" lon="11.658438181823714"><ele>424.0</ele><time>2026-04-11T15:29:58.003Z</time></trkpt><trkpt lat="43.1656027506492" lon="11.658493803210318"><ele>424.0</ele><time>2026-04-11T15:29:59.003Z</time></trkpt><trkpt lat="43.16565858166596" lon="11.65854711659737"><ele>424.0</ele><time>2026-04-11T15:30:00.003Z</time></trkpt><trkpt lat="43.165712812100466" lon="11.658596813769082"><ele>424.0</ele><time>2026-04-11T15:30:01.003Z</time></trkpt><trkpt lat="43.16576603127343" lon="11.658653836768899"><ele>424.0</ele><time>2026-04-11T15:30:02.003Z</time></trkpt><trkpt lat="43.16581907757324" lon="11.65870946229672"><ele>424.0</ele><time>2026-04-11T15:30:03.003Z</time></trkpt><trkpt lat="43.16587529890634" lon="11.65875879456049"><ele>424.0</ele><time>2026-04-11T15:30:04.003Z</time></trkpt><trkpt lat="43.16593136474894" lon="11.658807554272594"><ele>424.0</ele><time>2026-04-11T15:30:05.003Z</time></trkpt><trkpt lat="43.16598187253877" lon="11.658863677490332"><ele>424.7142857142857</ele><time>2026-04-11T15:30:06.003Z</time></trkpt><trkpt lat="43.16603321600008" lon="11.658921199308706"><ele>425.4285714285714</ele><time>2026-04-11T15:30:07.003Z</time></trkpt><trkpt lat="43.16608256472329" lon="11.65898371338715"><ele>426.1428571428571</ele><time>2026-04-11T15:30:08.003Z</time></trkpt><trkpt lat="43.16612081336601" lon="11.659055020686194"><ele>426.8571428571429</ele><time>2026-04-11T15:30:09.003Z</time></trkpt><trkpt lat="43.166157085001466" lon="11.659127696568843"><ele>427.57142857142856</ele><time>2026-04-11T15:30:10.003Z</time></trkpt><trkpt lat="43.16618920022049" lon="11.659202597086889"><ele>428.2857142857143</ele><time>2026-04-11T15:30:11.003Z</time></trkpt><trkpt lat="43.16625562320551" lon="11.65934176657734"><ele>429.0</ele><time>2026-04-11T15:30:12.999Z</time></trkpt><trkpt lat="43.16632056045297" lon="11.659469919808668"><ele>430.6</ele><time>2026-04-11T15:30:14.999Z</time></trkpt><trkpt lat="43.16636910855686" lon="11.659599962664725"><ele>432.2</ele><time>2026-04-11T15:30:16.999Z</time></trkpt><trkpt lat="43.16642312092424" lon="11.659722484173102"><ele>433.80000000000007</ele><time>2026-04-11T15:30:18.999Z</time></trkpt><trkpt lat="43.16647654139048" lon="11.659832440894025"><ele>435.40000000000003</ele><time>2026-04-11T15:30:20.999Z</time></trkpt><trkpt lat="43.16652937241744" lon="11.659941493439925"><ele>437.0</ele><time>2026-04-11T15:30:23Z</time></trkpt><trkpt lat="43.16657985847163" lon="11.660044131059044"><ele>436.3333333333333</ele><time>2026-04-11T15:30:25Z</time></trkpt><trkpt lat="43.16662176305706" lon="11.660144862335475"><ele>435.66666666666663</ele><time>2026-04-11T15:30:27Z</time></trkpt><trkpt lat="43.16666643415321" lon="11.66024596702835"><ele>435.0</ele><time>2026-04-11T15:30:29Z</time></trkpt><trkpt lat="43.16671895304041" lon="11.66034616440904"><ele>434.33333333333337</ele><time>2026-04-11T15:30:31Z</time></trkpt><trkpt lat="43.16676351611547" lon="11.660452275373348"><ele>433.6666666666667</ele><time>2026-04-11T15:30:33Z</time></trkpt><trkpt lat="43.16680846758838" lon="11.660557332424261"><ele>433.0</ele><time>2026-04-11T15:30:35Z</time></trkpt><trkpt lat="43.16685172477922" lon="11.660671031415665"><ele>433.0</ele><time>2026-04-11T15:30:37Z</time></trkpt><trkpt lat="43.166871216758985" lon="11.660791823682779"><ele>432.99999999999994</ele><time>2026-04-11T15:30:39Z</time></trkpt><trkpt lat="43.166880088555764" lon="11.66091800806955"><ele>432.99999999999994</ele><time>2026-04-11T15:30:41Z</time></trkpt><trkpt lat="43.166865817555504" lon="11.661045461592384"><ele>433.0</ele><time>2026-04-11T15:30:43Z</time></trkpt><trkpt lat="43.166852069871865" lon="11.66117245220911"><ele>433.0</ele><time>2026-04-11T15:30:45Z</time></trkpt><trkpt lat="43.16683951976777" lon="11.661302657570445"><ele>433.0</ele><time>2026-04-11T15:30:47.001Z</time></trkpt><trkpt lat="43.16682053919726" lon="11.661437911874714"><ele>433.0</ele><time>2026-04-11T15:30:49.001Z</time></trkpt><trkpt lat="43.166811559156784" lon="11.661579878622991"><ele>433.0</ele><time>2026-04-11T15:30:51.001Z</time></trkpt><trkpt lat="43.16678682391115" lon="11.661826351186257"><ele>433.0</ele><time>2026-04-11T15:30:54.001Z</time></trkpt><trkpt lat="43.16678038290405" lon="11.66197459222849"><ele>433.00000000000006</ele><time>2026-04-11T15:30:56.001Z</time></trkpt><trkpt lat="43.16679302740389" lon="11.662129986972138"><ele>433.0</ele><time>2026-04-11T15:30:58.001Z</time></trkpt><trkpt lat="43.166798933464655" lon="11.662292952304531"><ele>433.0</ele><time>2026-04-11T15:31:00.001Z</time></trkpt><trkpt lat="43.16684203946666" lon="11.66236810988393"><ele>433.0</ele><time>2026-04-11T15:31:01.001Z</time></trkpt><trkpt lat="43.16686409614916" lon="11.662456731433165"><ele>433.00000000000006</ele><time>2026-04-11T15:31:02.001Z</time></trkpt><trkpt lat="43.1668980290449" lon="11.662531029797256"><ele>433.0</ele><time>2026-04-11T15:31:03.001Z</time></trkpt><trkpt lat="43.16694153825635" lon="11.662598819405474"><ele>432.99999999999994</ele><time>2026-04-11T15:31:04.001Z</time></trkpt><trkpt lat="43.1669810326904" lon="11.662677545748204"><ele>433.0</ele><time>2026-04-11T15:31:05.001Z</time></trkpt><trkpt lat="43.16702667320541" lon="11.66275100118753"><ele>433.0</ele><time>2026-04-11T15:31:06.001Z</time></trkpt><trkpt lat="43.1670683269532" lon="11.662823233428968"><ele>433.0</ele><time>2026-04-11T15:31:07.001Z</time></trkpt><trkpt lat="43.16711317012563" lon="11.662900598433097"><ele>433.0</ele><time>2026-04-11T15:31:08.001Z</time></trkpt><trkpt lat="43.16715167498926" lon="11.662986701651384"><ele>432.99999999999994</ele><time>2026-04-11T15:31:09.001Z</time></trkpt><trkpt lat="43.16720716240652" lon="11.663065870015906"><ele>433.0</ele><time>2026-04-11T15:31:10.001Z</time></trkpt><trkpt lat="43.16724679953616" lon="11.663154017019748"><ele>432.79999999999995</ele><time>2026-04-11T15:31:11.001Z</time></trkpt><trkpt lat="43.16733437801433" lon="11.663307101275064"><ele>432.59999999999997</ele><time>2026-04-11T15:31:13.001Z</time></trkpt><trkpt lat="43.167383545515996" lon="11.663392850477205"><ele>432.40000000000003</ele><time>2026-04-11T15:31:14.001Z</time></trkpt><trkpt lat="43.16743546976317" lon="11.663481920145191"><ele>432.20000000000005</ele><time>2026-04-11T15:31:15.001Z</time></trkpt><trkpt lat="43.16748551609144" lon="11.663575173790605"><ele>432.0</ele><time>2026-04-11T15:31:16.001Z</time></trkpt><trkpt lat="43.16753650418713" lon="11.663668001567757"><ele>432.0</ele><time>2026-04-11T15:31:17.001Z</time></trkpt><trkpt lat="43.16758884969699" lon="11.66375712306893"><ele>432.0</ele><time>2026-04-11T15:31:18.002Z</time></trkpt><trkpt lat="43.16763916548841" lon="11.663849011779822"><ele>432.0</ele><time>2026-04-11T15:31:19.002Z</time></trkpt><trkpt lat="43.167692439994944" lon="11.66394112977181"><ele>432.0</ele><time>2026-04-11T15:31:20.002Z</time></trkpt><trkpt lat="43.167745829992356" lon="11.664040932138787"><ele>432.0</ele><time>2026-04-11T15:31:21.002Z</time></trkpt><trkpt lat="43.16779681889664" lon="11.66414481547495"><ele>432.0</ele><time>2026-04-11T15:31:22.002Z</time></trkpt><trkpt lat="43.167854813674076" lon="11.66424632889778"><ele>432.0</ele><time>2026-04-11T15:31:23.002Z</time></trkpt><trkpt lat="43.16791122682533" lon="11.664350952016001"><ele>432.00000000000006</ele><time>2026-04-11T15:31:24.002Z</time></trkpt><trkpt lat="43.167966076600756" lon="11.664462371460903"><ele>432.00000000000006</ele><time>2026-04-11T15:31:25.002Z</time></trkpt><trkpt lat="43.16801841613283" lon="11.664580601755919"><ele>432.0</ele><time>2026-04-11T15:31:26.002Z</time></trkpt><trkpt lat="43.168061763346614" lon="11.664705703597997"><ele>432.0</ele><time>2026-04-11T15:31:27.002Z</time></trkpt><trkpt lat="43.1681087080994" lon="11.664833474628361"><ele>432.6</ele><time>2026-04-11T15:31:28.002Z</time></trkpt><trkpt lat="43.168154813864135" lon="11.664965372320516"><ele>433.20000000000005</ele><time>2026-04-11T15:31:29.002Z</time></trkpt><trkpt lat="43.168200495399326" lon="11.665101550216518"><ele>433.8</ele><time>2026-04-11T15:31:30.002Z</time></trkpt><trkpt lat="43.16826174649036" lon="11.665236760636793"><ele>434.4</ele><time>2026-04-11T15:31:31.002Z</time></trkpt><trkpt lat="43.168315784014055" lon="11.665374242652016"><ele>435.0</ele><time>2026-04-11T15:31:32.002Z</time></trkpt><trkpt lat="43.16836174070592" lon="11.665506641172778"><ele>431.25</ele><time>2026-04-11T15:31:33.002Z</time></trkpt><trkpt lat="43.16842822740515" lon="11.665666746622135"><ele>427.5</ele><time>2026-04-11T15:31:34.002Z</time></trkpt><trkpt lat="43.16853224346573" lon="11.665735634420365"><ele>423.75</ele><time>2026-04-11T15:31:35.002Z</time></trkpt><trkpt lat="43.16862529462795" lon="11.665834485287592"><ele>420.0</ele><time>2026-04-11T15:31:36.002Z</time></trkpt><trkpt lat="43.16872996771955" lon="11.66587449143513"><ele>420.0</ele><time>2026-04-11T15:31:37.002Z</time></trkpt><trkpt lat="43.16884523559472" lon="11.66591532903703"><ele>420.0</ele><time>2026-04-11T15:31:38.002Z</time></trkpt><trkpt lat="43.16894979031163" lon="11.665964210343157"><ele>420.0</ele><time>2026-04-11T15:31:39.002Z</time></trkpt><trkpt lat="43.169066382763525" lon="11.666018099371332"><ele>420.0</ele><time>2026-04-11T15:31:40.002Z</time></trkpt><trkpt lat="43.169181322718565" lon="11.666072768537104"><ele>420.0</ele><time>2026-04-11T15:31:41.002Z</time></trkpt><trkpt lat="43.16929561285567" lon="11.666124622366034"><ele>420.0</ele><time>2026-04-11T15:31:42.002Z</time></trkpt><trkpt lat="43.16940943122865" lon="11.666164459416018"><ele>420.0</ele><time>2026-04-11T15:31:43.002Z</time></trkpt><trkpt lat="43.16950900937343" lon="11.666221331144525"><ele>420.0</ele><time>2026-04-11T15:31:44.002Z</time></trkpt><trkpt lat="43.16963140828523" lon="11.66627508142302"><ele>420.0</ele><time>2026-04-11T15:31:45.002Z</time></trkpt><trkpt lat="43.16974590378425" lon="11.66632798097029"><ele>420.0</ele><time>2026-04-11T15:31:46.002Z</time></trkpt><trkpt lat="43.16986047253247" lon="11.66639497092842"><ele>420.0</ele><time>2026-04-11T15:31:47.002Z</time></trkpt><trkpt lat="43.16997817464121" lon="11.666442049022423"><ele>420.0</ele><time>2026-04-11T15:31:48.002Z</time></trkpt><trkpt lat="43.17008919370119" lon="11.666493336825612"><ele>418.25</ele><time>2026-04-11T15:31:49.002Z</time></trkpt><trkpt lat="43.17020574266903" lon="11.66654961381627"><ele>416.5</ele><time>2026-04-11T15:31:50.002Z</time></trkpt><trkpt lat="43.17033413708037" lon="11.666596467396598"><ele>414.75</ele><time>2026-04-11T15:31:51.003Z</time></trkpt><trkpt lat="43.17044694634436" lon="11.666637022748754"><ele>413.0</ele><time>2026-04-11T15:31:52.003Z</time></trkpt><trkpt lat="43.17056713496156" lon="11.666656110921576"><ele>410.5</ele><time>2026-04-11T15:31:53.003Z</time></trkpt><trkpt lat="43.17069344352363" lon="11.66666206969695"><ele>408.0</ele><time>2026-04-11T15:31:54.003Z</time></trkpt><trkpt lat="43.17082396601633" lon="11.6666635033009"><ele>405.5</ele><time>2026-04-11T15:31:55.003Z</time></trkpt><trkpt lat="43.17094441401629" lon="11.666674524325964"><ele>403.0</ele><time>2026-04-11T15:31:56.003Z</time></trkpt><trkpt lat="43.1710565371811" lon="11.666686167651653"><ele>403.0</ele><time>2026-04-11T15:31:57.003Z</time></trkpt><trkpt lat="43.171165017649315" lon="11.666699279621106"><ele>403.0</ele><time>2026-04-11T15:31:58.003Z</time></trkpt><trkpt lat="43.17126691648829" lon="11.666709366118793"><ele>403.0</ele><time>2026-04-11T15:31:59.003Z</time></trkpt><trkpt lat="43.17135650127078" lon="11.666714082949948"><ele>403.0</ele><time>2026-04-11T15:32:00.003Z</time></trkpt><trkpt lat="43.17143580492771" lon="11.666741308096018"><ele>403.0</ele><time>2026-04-11T15:32:01.003Z</time></trkpt><trkpt lat="43.171514929742486" lon="11.666715423399012"><ele>403.6666666666667</ele><time>2026-04-11T15:32:02.003Z</time></trkpt><trkpt lat="43.171585702040446" lon="11.666670655554466"><ele>404.33333333333337</ele><time>2026-04-11T15:32:03.003Z</time></trkpt><trkpt lat="43.171643282528606" lon="11.666617753337489"><ele>405.0</ele><time>2026-04-11T15:32:04.003Z</time></trkpt><trkpt lat="43.17169193972331" lon="11.6665557316727"><ele>405.66666666666663</ele><time>2026-04-11T15:32:05.003Z</time></trkpt><trkpt lat="43.17173106177302" lon="11.666480757876275"><ele>406.3333333333333</ele><time>2026-04-11T15:32:06.003Z</time></trkpt><trkpt lat="43.17181298709089" lon="11.666383210453914"><ele>407.0</ele><time>2026-04-11T15:32:08.003Z</time></trkpt><trkpt lat="43.171879045357045" lon="11.666282155722564"><ele>406.99999999999994</ele><time>2026-04-11T15:32:10.003Z</time></trkpt><trkpt lat="43.171940844049345" lon="11.666200084597104"><ele>407.0</ele><time>2026-04-11T15:32:12.003Z</time></trkpt><trkpt lat="43.171991784799296" lon="11.666111381248957"><ele>407.0</ele><time>2026-04-11T15:32:14.003Z</time></trkpt><trkpt lat="43.17205145971115" lon="11.666062337005624"><ele>407.0</ele><time>2026-04-11T15:32:16.003Z</time></trkpt><trkpt lat="43.17210902680781" lon="11.666019260481583"><ele>406.99999999999994</ele><time>2026-04-11T15:32:18Z</time></trkpt><trkpt lat="43.17219923847731" lon="11.665995788119648"><ele>407.0</ele><time>2026-04-11T15:32:21Z</time></trkpt><trkpt lat="43.17228612938018" lon="11.665974447562832"><ele>407.3333333333333</ele><time>2026-04-11T15:32:24Z</time></trkpt><trkpt lat="43.17237014054153" lon="11.665969662830944"><ele>407.66666666666663</ele><time>2026-04-11T15:32:27Z</time></trkpt><trkpt lat="43.172453355428736" lon="11.66595592236927"><ele>408.0</ele><time>2026-04-11T15:32:30Z</time></trkpt><trkpt lat="43.172536693694596" lon="11.665948646112769"><ele>408.33333333333337</ele><time>2026-04-11T15:32:34Z</time></trkpt><trkpt lat="43.172612517397496" lon="11.665944292178647"><ele>408.6666666666667</ele><time>2026-04-11T15:32:37Z</time></trkpt><trkpt lat="43.172693403087266" lon="11.665934883271786"><ele>409.0</ele><time>2026-04-11T15:32:40Z</time></trkpt><trkpt lat="43.172768528668364" lon="11.665925527127051"><ele>409.00000000000006</ele><time>2026-04-11T15:32:44Z</time></trkpt><trkpt lat="43.1728351262821" lon="11.665915221031172"><ele>409.0</ele><time>2026-04-11T15:32:47Z</time></trkpt><trkpt lat="43.17290950964346" lon="11.665908543218789"><ele>409.0</ele><time>2026-04-11T15:32:50.001Z</time></trkpt><trkpt lat="43.17298576501225" lon="11.665903541023457"><ele>409.0</ele><time>2026-04-11T15:32:54.001Z</time></trkpt><trkpt lat="43.17305573727792" lon="11.66590959275999"><ele>409.00000000000006</ele><time>2026-04-11T15:32:57.001Z</time></trkpt><trkpt lat="43.173142862987596" lon="11.66592366785694"><ele>409.0</ele><time>2026-04-11T15:33:00.001Z</time></trkpt><trkpt lat="43.173216130957364" lon="11.665946946689237"><ele>409.7142857142857</ele><time>2026-04-11T15:33:04.001Z</time></trkpt><trkpt lat="43.17330871092613" lon="11.665975424549272"><ele>410.42857142857144</ele><time>2026-04-11T15:33:07.001Z</time></trkpt><trkpt lat="43.17338051802346" lon="11.666011307309718"><ele>411.14285714285717</ele><time>2026-04-11T15:33:11.001Z</time></trkpt><trkpt lat="43.17345464699124" lon="11.666045227894854"><ele>411.8571428571429</ele><time>2026-04-11T15:33:14.001Z</time></trkpt><trkpt lat="43.173515060588386" lon="11.666071164102684"><ele>412.57142857142856</ele><time>2026-04-11T15:33:17.001Z</time></trkpt><trkpt lat="43.17357550341705" lon="11.666098525272458"><ele>413.28571428571433</ele><time>2026-04-11T15:33:20.001Z</time></trkpt><trkpt lat="43.17363955291723" lon="11.666136477850365"><ele>414.0</ele><time>2026-04-11T15:33:23.002Z</time></trkpt><trkpt lat="43.17370582878964" lon="11.666174904760402"><ele>415.7142857142857</ele><time>2026-04-11T15:33:26.002Z</time></trkpt><trkpt lat="43.17377218415143" lon="11.666206171626442"><ele>417.42857142857144</ele><time>2026-04-11T15:33:29.002Z</time></trkpt><trkpt lat="43.17384244632523" lon="11.666250321634868"><ele>419.1428571428571</ele><time>2026-04-11T15:33:32.002Z</time></trkpt><trkpt lat="43.17390753446724" lon="11.666287320072033"><ele>420.8571428571429</ele><time>2026-04-11T15:33:35.002Z</time></trkpt><trkpt lat="43.17396906947083" lon="11.666354920084931"><ele>422.57142857142856</ele><time>2026-04-11T15:33:38.002Z</time></trkpt><trkpt lat="43.17403923790189" lon="11.66641732817231"><ele>424.2857142857143</ele><time>2026-04-11T15:33:42.002Z</time></trkpt><trkpt lat="43.17409146186321" lon="11.666475963820467"><ele>426.0</ele><time>2026-04-11T15:33:45.002Z</time></trkpt><trkpt lat="43.17414782529911" lon="11.666535832404044"><ele>427.0</ele><time>2026-04-11T15:33:48.002Z</time></trkpt><trkpt lat="43.17421019971132" lon="11.666600655033822"><ele>428.0</ele><time>2026-04-11T15:33:51.002Z</time></trkpt><trkpt lat="43.17429542101903" lon="11.666651151627313"><ele>429.0</ele><time>2026-04-11T15:33:55.003Z</time></trkpt><trkpt lat="43.17438438892454" lon="11.666656264084603"><ele>430.0</ele><time>2026-04-11T15:33:59.003Z</time></trkpt><trkpt lat="43.17445371393018" lon="11.666642186177247"><ele>431.0</ele><time>2026-04-11T15:34:02.003Z</time></trkpt><trkpt lat="43.17451591127514" lon="11.666615066754272"><ele>432.0</ele><time>2026-04-11T15:34:05.003Z</time></trkpt><trkpt lat="43.1745733963839" lon="11.666571479222288"><ele>432.0</ele><time>2026-04-11T15:34:08.003Z</time></trkpt><trkpt lat="43.174627329821206" lon="11.666501720634935"><ele>432.0</ele><time>2026-04-11T15:34:11.003Z</time></trkpt><trkpt lat="43.17466755882621" lon="11.666425661314449"><ele>432.0</ele><time>2026-04-11T15:34:14.003Z</time></trkpt><trkpt lat="43.1747031737739" lon="11.666324585610308"><ele>432.0</ele><time>2026-04-11T15:34:17.003Z</time></trkpt><trkpt lat="43.174731372798135" lon="11.666228059017829"><ele>432.0</ele><time>2026-04-11T15:34:21.003Z</time></trkpt><trkpt lat="43.17475896165909" lon="11.666144279780855"><ele>432.0</ele><time>2026-04-11T15:34:24Z</time></trkpt><trkpt lat="43.17478537181381" lon="11.666051798651317"><ele>432.0</ele><time>2026-04-11T15:34:27Z</time></trkpt><trkpt lat="43.17481152960994" lon="11.66595129628409"><ele>432.6666666666667</ele><time>2026-04-11T15:34:30Z</time></trkpt><trkpt lat="43.17483157073601" lon="11.665866158520632"><ele>433.33333333333337</ele><time>2026-04-11T15:34:33Z</time></trkpt><trkpt lat="43.17486468494401" lon="11.665768431142235"><ele>434.0</ele><time>2026-04-11T15:34:37Z</time></trkpt><trkpt lat="43.174906259775064" lon="11.665678925978565"><ele>434.6666666666667</ele><time>2026-04-11T15:34:40Z</time></trkpt><trkpt lat="43.174958705213946" lon="11.665598083740768"><ele>435.33333333333337</ele><time>2026-04-11T15:34:43Z</time></trkpt><trkpt lat="43.1750252754067" lon="11.665535132114126"><ele>436.0</ele><time>2026-04-11T15:34:47Z</time></trkpt><trkpt lat="43.17509188282776" lon="11.665498292354973"><ele>436.0</ele><time>2026-04-11T15:34:50Z</time></trkpt><trkpt lat="43.17517678062776" lon="11.665478850024808"><ele>436.0</ele><time>2026-04-11T15:34:54.001Z</time></trkpt><trkpt lat="43.17525301189082" lon="11.665489520374882"><ele>436.0</ele><time>2026-04-11T15:34:57.001Z</time></trkpt><trkpt lat="43.17531914668698" lon="11.665517113086464"><ele>436.0</ele><time>2026-04-11T15:35:00.001Z</time></trkpt><trkpt lat="43.17537998235545" lon="11.665559735530799"><ele>436.0</ele><time>2026-04-11T15:35:03.001Z</time></trkpt><trkpt lat="43.175434930468356" lon="11.66561669333165"><ele>436.0</ele><time>2026-04-11T15:35:06.001Z</time></trkpt><trkpt lat="43.17548904196367" lon="11.66569678404795"><ele>436.0</ele><time>2026-04-11T15:35:10.001Z</time></trkpt><trkpt lat="43.17553165730019" lon="11.665760604742077"><ele>436.00000000000006</ele><time>2026-04-11T15:35:13.001Z</time></trkpt><trkpt lat="43.175578850205106" lon="11.665830028104027"><ele>436.0</ele><time>2026-04-11T15:35:16.001Z</time></trkpt><trkpt lat="43.17562811335852" lon="11.665900337945095"><ele>436.0</ele><time>2026-04-11T15:35:19.001Z</time></trkpt><trkpt lat="43.175684992598434" lon="11.665987638379404"><ele>436.0</ele><time>2026-04-11T15:35:22.001Z</time></trkpt><trkpt lat="43.175746315174045" lon="11.666073878784413"><ele>436.00000000000006</ele><time>2026-04-11T15:35:26.001Z</time></trkpt><trkpt lat="43.17579388675463" lon="11.66614667851383"><ele>436.0</ele><time>2026-04-11T15:35:29.001Z</time></trkpt><trkpt lat="43.17583715221372" lon="11.666219176913916"><ele>438.2857142857143</ele><time>2026-04-11T15:35:32.002Z</time></trkpt><trkpt lat="43.17589192147201" lon="11.666293131976204"><ele>440.57142857142856</ele><time>2026-04-11T15:35:35.002Z</time></trkpt><trkpt lat="43.17594347211437" lon="11.666361697659228"><ele>442.8571428571429</ele><time>2026-04-11T15:35:39.002Z</time></trkpt><trkpt lat="43.17599035754322" lon="11.666433098922754"><ele>445.1428571428571</ele><time>2026-04-11T15:35:42.002Z</time></trkpt><trkpt lat="43.176044925612" lon="11.666516090762087"><ele>447.4285714285714</ele><time>2026-04-11T15:35:45.002Z</time></trkpt><trkpt lat="43.176086639146504" lon="11.666582497373222"><ele>449.7142857142857</ele><time>2026-04-11T15:35:48.002Z</time></trkpt><trkpt lat="43.17613095239265" lon="11.66665148838583"><ele>452.0</ele><time>2026-04-11T15:35:51.002Z</time></trkpt><trkpt lat="43.17616973053681" lon="11.666731205100522"><ele>452.0</ele><time>2026-04-11T15:35:54.002Z</time></trkpt><trkpt lat="43.176210085162275" lon="11.666810764397832"><ele>452.0</ele><time>2026-04-11T15:35:57.002Z</time></trkpt><trkpt lat="43.17624104098191" lon="11.666887082295654"><ele>452.0</ele><time>2026-04-11T15:36:00.002Z</time></trkpt><trkpt lat="43.17627570769532" lon="11.666966876320592"><ele>452.0</ele><time>2026-04-11T15:36:03.002Z</time></trkpt><trkpt lat="43.17631487997207" lon="11.667047425051281"><ele>452.0</ele><time>2026-04-11T15:36:06.002Z</time></trkpt><trkpt lat="43.1763478393002" lon="11.667138370946095"><ele>452.0</ele><time>2026-04-11T15:36:09.003Z</time></trkpt><trkpt lat="43.176381999874465" lon="11.667222012133223"><ele>452.0</ele><time>2026-04-11T15:36:12.003Z</time></trkpt><trkpt lat="43.176417926998944" lon="11.6673100281743"><ele>453.14285714285717</ele><time>2026-04-11T15:36:15.003Z</time></trkpt><trkpt lat="43.17645512559679" lon="11.667396338766535"><ele>454.2857142857142</ele><time>2026-04-11T15:36:18.003Z</time></trkpt><trkpt lat="43.17649258433183" lon="11.667476720259817"><ele>455.4285714285714</ele><time>2026-04-11T15:36:21.003Z</time></trkpt><trkpt lat="43.17652749804472" lon="11.66755795006295"><ele>456.57142857142856</ele><time>2026-04-11T15:36:24.003Z</time></trkpt><trkpt lat="43.17656113815988" lon="11.66764096159912"><ele>457.71428571428567</ele><time>2026-04-11T15:36:27.003Z</time></trkpt><trkpt lat="43.17659429493219" lon="11.667728462429368"><ele>458.8571428571428</ele><time>2026-04-11T15:36:30Z</time></trkpt><trkpt lat="43.17663031343966" lon="11.667806932677106"><ele>459.99999999999994</ele><time>2026-04-11T15:36:33Z</time></trkpt><trkpt lat="43.17666692875375" lon="11.667886834685373"><ele>461.83333333333337</ele><time>2026-04-11T15:36:36Z</time></trkpt><trkpt lat="43.17671038118295" lon="11.667965002019395"><ele>463.6666666666667</ele><time>2026-04-11T15:36:39Z</time></trkpt><trkpt lat="43.17674658947719" lon="11.668051353776173"><ele>465.5</ele><time>2026-04-11T15:36:42Z</time></trkpt><trkpt lat="43.17678436346418" lon="11.668134796109166"><ele>467.33333333333337</ele><time>2026-04-11T15:36:45Z</time></trkpt><trkpt lat="43.17683092404486" lon="11.668243439403842"><ele>469.1666666666667</ele><time>2026-04-11T15:36:48Z</time></trkpt><trkpt lat="43.17685070057573" lon="11.668336271518442"><ele>471.0</ele><time>2026-04-11T15:36:51Z</time></trkpt><trkpt lat="43.17686600218688" lon="11.668445662042643"><ele>471.0</ele><time>2026-04-11T15:36:54Z</time></trkpt><trkpt lat="43.17687298167209" lon="11.668548101369433"><ele>471.0</ele><time>2026-04-11T15:36:57Z</time></trkpt><trkpt lat="43.176868854639636" lon="11.66865396423905"><ele>471.0</ele><time>2026-04-11T15:37:00Z</time></trkpt><trkpt lat="43.17686940210643" lon="11.668759415153689"><ele>471.0</ele><time>2026-04-11T15:37:03Z</time></trkpt><trkpt lat="43.17687060456248" lon="11.668862214095286"><ele>471.0</ele><time>2026-04-11T15:37:06.001Z</time></trkpt><trkpt lat="43.17687152208769" lon="11.668966849819812"><ele>471.0</ele><time>2026-04-11T15:37:09.001Z</time></trkpt><trkpt lat="43.176876248407" lon="11.669072684300925"><ele>471.6666666666667</ele><time>2026-04-11T15:37:12.001Z</time></trkpt><trkpt lat="43.17687281491158" lon="11.669180629794882"><ele>472.33333333333337</ele><time>2026-04-11T15:37:15.001Z</time></trkpt><trkpt lat="43.17688849874244" lon="11.669289152507686"><ele>473.0</ele><time>2026-04-11T15:37:18.001Z</time></trkpt><trkpt lat="43.17689609101552" lon="11.669399531333093"><ele>473.6666666666667</ele><time>2026-04-11T15:37:21.001Z</time></trkpt><trkpt lat="43.1769375885384" lon="11.669499244327262"><ele>474.33333333333337</ele><time>2026-04-11T15:37:24.001Z</time></trkpt><trkpt lat="43.17695195216047" lon="11.669586465780364"><ele>475.0</ele><time>2026-04-11T15:37:26.001Z</time></trkpt><trkpt lat="43.1769824395787" lon="11.669666853802255"><ele>475.8571428571429</ele><time>2026-04-11T15:37:28.001Z</time></trkpt><trkpt lat="43.17703087241109" lon="11.66977992025934"><ele>476.7142857142858</ele><time>2026-04-11T15:37:31.001Z</time></trkpt><trkpt lat="43.177069394255405" lon="11.6698489383622"><ele>477.57142857142856</ele><time>2026-04-11T15:37:33.001Z</time></trkpt><trkpt lat="43.17710715868335" lon="11.669920126220873"><ele>478.42857142857144</ele><time>2026-04-11T15:37:35.001Z</time></trkpt><trkpt lat="43.17715541669088" lon="11.669984494533102"><ele>479.2857142857143</ele><time>2026-04-11T15:37:37.001Z</time></trkpt><trkpt lat="43.177198528506615" lon="11.670054692947819"><ele>480.1428571428571</ele><time>2026-04-11T15:37:39.002Z</time></trkpt><trkpt lat="43.17723761193409" lon="11.670128380768066"><ele>480.99999999999994</ele><time>2026-04-11T15:37:41.002Z</time></trkpt><trkpt lat="43.1772848809136" lon="11.670198532396135"><ele>480.99999999999994</ele><time>2026-04-11T15:37:43.002Z</time></trkpt><trkpt lat="43.17732938420341" lon="11.670273314994166"><ele>481.0</ele><time>2026-04-11T15:37:45.002Z</time></trkpt><trkpt lat="43.17737164737064" lon="11.670348784708233"><ele>480.99999999999994</ele><time>2026-04-11T15:37:47.002Z</time></trkpt><trkpt lat="43.17741325339731" lon="11.67042674520695"><ele>480.99999999999994</ele><time>2026-04-11T15:37:49.002Z</time></trkpt><trkpt lat="43.1774612788341" lon="11.670513557254695"><ele>481.0</ele><time>2026-04-11T15:37:51.002Z</time></trkpt><trkpt lat="43.17750338604911" lon="11.67060029827532"><ele>480.99999999999994</ele><time>2026-04-11T15:37:53.002Z</time></trkpt><trkpt lat="43.17754065712587" lon="11.670697301410325"><ele>480.99999999999994</ele><time>2026-04-11T15:37:55.002Z</time></trkpt><trkpt lat="43.17756738076614" lon="11.670803811698859"><ele>480.8</ele><time>2026-04-11T15:37:57.002Z</time></trkpt><trkpt lat="43.17761945397295" lon="11.670911738844254"><ele>480.6</ele><time>2026-04-11T15:37:59.002Z</time></trkpt><trkpt lat="43.17765195825332" lon="11.671022604094514"><ele>480.4</ele><time>2026-04-11T15:38:01.002Z</time></trkpt><trkpt lat="43.17770044607641" lon="11.671127201246433"><ele>480.2</ele><time>2026-04-11T15:38:03.002Z</time></trkpt><trkpt lat="43.177749836959784" lon="11.671238785089383"><ele>480.0</ele><time>2026-04-11T15:38:05.002Z</time></trkpt><trkpt lat="43.17780122820969" lon="11.671341692937283"><ele>480.0</ele><time>2026-04-11T15:38:07.002Z</time></trkpt><trkpt lat="43.17786006469468" lon="11.671444544501925"><ele>480.0</ele><time>2026-04-11T15:38:09.002Z</time></trkpt><trkpt lat="43.17793730375182" lon="11.671525813980542"><ele>480.0</ele><time>2026-04-11T15:38:11.002Z</time></trkpt><trkpt lat="43.178019532265616" lon="11.671612526996826"><ele>480.0</ele><time>2026-04-11T15:38:13.002Z</time></trkpt><trkpt lat="43.178094296943655" lon="11.671703636035204"><ele>480.0</ele><time>2026-04-11T15:38:15.003Z</time></trkpt><trkpt lat="43.178179988616044" lon="11.671785070291973"><ele>480.2</ele><time>2026-04-11T15:38:17.003Z</time></trkpt><trkpt lat="43.17827203936359" lon="11.671858954650562"><ele>480.4</ele><time>2026-04-11T15:38:19.003Z</time></trkpt><trkpt lat="43.17835768327374" lon="11.671952838458258"><ele>480.6</ele><time>2026-04-11T15:38:21.003Z</time></trkpt><trkpt lat="43.178440084394644" lon="11.67206666282868"><ele>480.8</ele><time>2026-04-11T15:38:23.003Z</time></trkpt><trkpt lat="43.17852683754199" lon="11.672160532586446"><ele>481.0</ele><time>2026-04-11T15:38:25.003Z</time></trkpt><trkpt lat="43.17861904768284" lon="11.672254144860599"><ele>481.0</ele><time>2026-04-11T15:38:27.003Z</time></trkpt><trkpt lat="43.17871021961531" lon="11.67235497156659"><ele>481.0</ele><time>2026-04-11T15:38:29.003Z</time></trkpt><trkpt lat="43.17880735719431" lon="11.672457618659749"><ele>481.0</ele><time>2026-04-11T15:38:31.003Z</time></trkpt><trkpt lat="43.17889242252068" lon="11.672585815320028"><ele>481.0</ele><time>2026-04-11T15:38:33.003Z</time></trkpt><trkpt lat="43.17893527243758" lon="11.672658262048358"><ele>481.0</ele><time>2026-04-11T15:38:34.003Z</time></trkpt><trkpt lat="43.17897798406567" lon="11.67273239705321"><ele>481.71428571428567</ele><time>2026-04-11T15:38:35.003Z</time></trkpt><trkpt lat="43.17901484650289" lon="11.672810927450966"><ele>482.42857142857144</ele><time>2026-04-11T15:38:36Z</time></trkpt><trkpt lat="43.179048812570535" lon="11.672891728085029"><ele>483.1428571428571</ele><time>2026-04-11T15:38:37Z</time></trkpt><trkpt lat="43.17907950109509" lon="11.672977130447007"><ele>483.85714285714283</ele><time>2026-04-11T15:38:38Z</time></trkpt><trkpt lat="43.17910235628581" lon="11.673068736708618"><ele>484.57142857142856</ele><time>2026-04-11T15:38:39Z</time></trkpt><trkpt lat="43.17912437763358" lon="11.67316081427948"><ele>485.2857142857143</ele><time>2026-04-11T15:38:40Z</time></trkpt><trkpt lat="43.17914675426993" lon="11.673254668172904"><ele>486.0</ele><time>2026-04-11T15:38:41Z</time></trkpt><trkpt lat="43.179168578856384" lon="11.673348343193688"><ele>484.1666666666667</ele><time>2026-04-11T15:38:42Z</time></trkpt><trkpt lat="43.17918255186649" lon="11.67344240787813"><ele>482.33333333333337</ele><time>2026-04-11T15:38:43Z</time></trkpt><trkpt lat="43.179203279986766" lon="11.67354097524223"><ele>480.5</ele><time>2026-04-11T15:38:44Z</time></trkpt><trkpt lat="43.17922298178087" lon="11.673638024389277"><ele>478.6666666666667</ele><time>2026-04-11T15:38:45Z</time></trkpt><trkpt lat="43.179247833865574" lon="11.673736195800657"><ele>476.83333333333337</ele><time>2026-04-11T15:38:46Z</time></trkpt><trkpt lat="43.1792739278428" lon="11.673836040806798"><ele>475.0</ele><time>2026-04-11T15:38:47Z</time></trkpt><trkpt lat="43.17927735330272" lon="11.673945253003819"><ele>475.00000000000006</ele><time>2026-04-11T15:38:48Z</time></trkpt><trkpt lat="43.17930971071077" lon="11.674053461938698"><ele>475.0</ele><time>2026-04-11T15:38:49Z</time></trkpt><trkpt lat="43.17933333118931" lon="11.674163794509331"><ele>475.0</ele><time>2026-04-11T15:38:50Z</time></trkpt><trkpt lat="43.179353470793494" lon="11.67428208166427"><ele>475.0</ele><time>2026-04-11T15:38:51Z</time></trkpt><trkpt lat="43.179385683691386" lon="11.674405294942787"><ele>475.00000000000006</ele><time>2026-04-11T15:38:52Z</time></trkpt><trkpt lat="43.1794231682988" lon="11.674526008478136"><ele>475.0</ele><time>2026-04-11T15:38:53Z</time></trkpt><trkpt lat="43.17946832993364" lon="11.674648697977664"><ele>475.6</ele><time>2026-04-11T15:38:54Z</time></trkpt><trkpt lat="43.1795261213715" lon="11.674769889748658"><ele>476.2</ele><time>2026-04-11T15:38:55Z</time></trkpt><trkpt lat="43.179595245075184" lon="11.674888147184383"><ele>476.79999999999995</ele><time>2026-04-11T15:38:56Z</time></trkpt><trkpt lat="43.17966936895161" lon="11.675004165372627"><ele>477.4</ele><time>2026-04-11T15:38:57Z</time></trkpt><trkpt lat="43.17974850199707" lon="11.675118545160212"><ele>478.0</ele><time>2026-04-11T15:38:58Z</time></trkpt><trkpt lat="43.17983054154752" lon="11.675237377845923"><ele>474.0</ele><time>2026-04-11T15:38:59Z</time></trkpt><trkpt lat="43.179915607589336" lon="11.675357167824119"><ele>470.0</ele><time>2026-04-11T15:39:00Z</time></trkpt><trkpt lat="43.18000306091643" lon="11.675466204760752"><ele>466.0</ele><time>2026-04-11T15:39:01Z</time></trkpt><trkpt lat="43.180085013900865" lon="11.6755593419474"><ele>462.0</ele><time>2026-04-11T15:39:02Z</time></trkpt><trkpt lat="43.18018696710553" lon="11.675629865658872"><ele>462.0</ele><time>2026-04-11T15:39:03Z</time></trkpt><trkpt lat="43.180291084624734" lon="11.675673672992238"><ele>462.00000000000006</ele><time>2026-04-11T15:39:04Z</time></trkpt><trkpt lat="43.18040091553089" lon="11.67569261656988"><ele>462.00000000000006</ele><time>2026-04-11T15:39:05.001Z</time></trkpt><trkpt lat="43.18051011892012" lon="11.675685171875896"><ele>462.0</ele><time>2026-04-11T15:39:06.001Z</time></trkpt><trkpt lat="43.18061655664608" lon="11.675646905449652"><ele>462.0</ele><time>2026-04-11T15:39:07.001Z</time></trkpt><trkpt lat="43.18072169973424" lon="11.675594627645891"><ele>458.5</ele><time>2026-04-11T15:39:08.001Z</time></trkpt><trkpt lat="43.18082764053379" lon="11.675539412566419"><ele>455.0</ele><time>2026-04-11T15:39:09.001Z</time></trkpt><trkpt lat="43.18093706075616" lon="11.67548611415734"><ele>451.5</ele><time>2026-04-11T15:39:10.001Z</time></trkpt><trkpt lat="43.181050718555134" lon="11.675437464902686"><ele>448.0</ele><time>2026-04-11T15:39:11.001Z</time></trkpt><trkpt lat="43.18115862539973" lon="11.675395255954324"><ele>448.0</ele><time>2026-04-11T15:39:12.001Z</time></trkpt><trkpt lat="43.1812716683236" lon="11.675344534809314"><ele>447.99999999999994</ele><time>2026-04-11T15:39:13.001Z</time></trkpt><trkpt lat="43.18136760012025" lon="11.675295405040044"><ele>447.99999999999994</ele><time>2026-04-11T15:39:14.001Z</time></trkpt><trkpt lat="43.18146579074132" lon="11.675243480230868"><ele>448.0</ele><time>2026-04-11T15:39:15.001Z</time></trkpt><trkpt lat="43.18156412701692" lon="11.675184634924124"><ele>448.0</ele><time>2026-04-11T15:39:16.001Z</time></trkpt><trkpt lat="43.1816574314068" lon="11.675147448129792"><ele>447.83333333333337</ele><time>2026-04-11T15:39:17.001Z</time></trkpt><trkpt lat="43.18174177715002" lon="11.675117381093408"><ele>447.6666666666667</ele><time>2026-04-11T15:39:18.001Z</time></trkpt><trkpt lat="43.18183080400279" lon="11.67507367303554"><ele>447.5</ele><time>2026-04-11T15:39:19.001Z</time></trkpt><trkpt lat="43.181915730635474" lon="11.675028130147547"><ele>447.33333333333337</ele><time>2026-04-11T15:39:20.001Z</time></trkpt><trkpt lat="43.18199585623685" lon="11.674987626456414"><ele>447.1666666666667</ele><time>2026-04-11T15:39:21.001Z</time></trkpt><trkpt lat="43.182076490228674" lon="11.674939669592195"><ele>447.0</ele><time>2026-04-11T15:39:22.001Z</time></trkpt><trkpt lat="43.18215188365284" lon="11.674904921577642"><ele>447.0</ele><time>2026-04-11T15:39:23.001Z</time></trkpt><trkpt lat="43.18222531593825" lon="11.674855494068513"><ele>447.0</ele><time>2026-04-11T15:39:24.001Z</time></trkpt><trkpt lat="43.18229681325797" lon="11.674807425003907"><ele>447.0</ele><time>2026-04-11T15:39:25.001Z</time></trkpt><trkpt lat="43.18236463416975" lon="11.674766391343718"><ele>447.0</ele><time>2026-04-11T15:39:26.001Z</time></trkpt><trkpt lat="43.18243275871647" lon="11.674719753647677"><ele>447.0</ele><time>2026-04-11T15:39:27.001Z</time></trkpt><trkpt lat="43.18249664010758" lon="11.674670512191666"><ele>447.0</ele><time>2026-04-11T15:39:28.001Z</time></trkpt><trkpt lat="43.18256026950702" lon="11.674628348751225"><ele>447.4285714285714</ele><time>2026-04-11T15:39:29.001Z</time></trkpt><trkpt lat="43.18261809372578" lon="11.674587218356413"><ele>447.8571428571429</ele><time>2026-04-11T15:39:30.001Z</time></trkpt><trkpt lat="43.18268654293251" lon="11.67453237200221"><ele>448.28571428571433</ele><time>2026-04-11T15:39:31.001Z</time></trkpt><trkpt lat="43.18275150658341" lon="11.674483862087264"><ele>448.7142857142857</ele><time>2026-04-11T15:39:32.001Z</time></trkpt><trkpt lat="43.182808020897724" lon="11.67443915436058"><ele>449.14285714285717</ele><time>2026-04-11T15:39:33.001Z</time></trkpt><trkpt lat="43.18286764099304" lon="11.674391596886222"><ele>449.5714285714286</ele><time>2026-04-11T15:39:34.001Z</time></trkpt><trkpt lat="43.182924920769835" lon="11.67434315890733"><ele>450.00000000000006</ele><time>2026-04-11T15:39:35.001Z</time></trkpt><trkpt lat="43.18298301293711" lon="11.674294932180134"><ele>450.8333333333333</ele><time>2026-04-11T15:39:36.001Z</time></trkpt><trkpt lat="43.18303897885242" lon="11.67424449439171"><ele>451.66666666666663</ele><time>2026-04-11T15:39:37.001Z</time></trkpt><trkpt lat="43.18309603239549" lon="11.674198095159271"><ele>452.5</ele><time>2026-04-11T15:39:38.001Z</time></trkpt><trkpt lat="43.183151862707895" lon="11.674152288754986"><ele>453.3333333333333</ele><time>2026-04-11T15:39:39.001Z</time></trkpt><trkpt lat="43.18320460724358" lon="11.674103589014532"><ele>454.16666666666663</ele><time>2026-04-11T15:39:40.001Z</time></trkpt><trkpt lat="43.18331060211459" lon="11.674001556418572"><ele>455.0</ele><time>2026-04-11T15:39:42.002Z</time></trkpt><trkpt lat="43.183392876253386" lon="11.673877136479522"><ele>454.99999999999994</ele><time>2026-04-11T15:39:44.002Z</time></trkpt><trkpt lat="43.1834306275258" lon="11.673803090728251"><ele>455.0</ele><time>2026-04-11T15:39:45.002Z</time></trkpt><trkpt lat="43.18349790197023" lon="11.673658297267515"><ele>455.0</ele><time>2026-04-11T15:39:47.002Z</time></trkpt><trkpt lat="43.183554295015874" lon="11.673510207853678"><ele>455.0</ele><time>2026-04-11T15:39:49.002Z</time></trkpt><trkpt lat="43.18358169811137" lon="11.673431517757711"><ele>454.99999999999994</ele><time>2026-04-11T15:39:50.002Z</time></trkpt><trkpt lat="43.183615333181315" lon="11.673356215616815"><ele>455.0</ele><time>2026-04-11T15:39:51.002Z</time></trkpt><trkpt lat="43.183645285508206" lon="11.67327740342976"><ele>454.57142857142856</ele><time>2026-04-11T15:39:52.002Z</time></trkpt><trkpt lat="43.18367716494564" lon="11.673201191166463"><ele>454.1428571428571</ele><time>2026-04-11T15:39:53.002Z</time></trkpt><trkpt lat="43.18370456840809" lon="11.673115792160072"><ele>453.7142857142857</ele><time>2026-04-11T15:39:54.002Z</time></trkpt><trkpt lat="43.18372950119352" lon="11.67303279402581"><ele>453.2857142857143</ele><time>2026-04-11T15:39:55.002Z</time></trkpt><trkpt lat="43.183738014947515" lon="11.672940688126237"><ele>452.85714285714283</ele><time>2026-04-11T15:39:56.002Z</time></trkpt><trkpt lat="43.183759312544595" lon="11.672855989205999"><ele>452.42857142857144</ele><time>2026-04-11T15:39:57.002Z</time></trkpt><trkpt lat="43.18377009415026" lon="11.672764273435753"><ele>452.0</ele><time>2026-04-11T15:39:58.002Z</time></trkpt><trkpt lat="43.18378361190374" lon="11.672662692829595"><ele>450.8571428571429</ele><time>2026-04-11T15:39:59.002Z</time></trkpt><trkpt lat="43.18379287381445" lon="11.672566853363255"><ele>449.71428571428567</ele><time>2026-04-11T15:40:00.002Z</time></trkpt><trkpt lat="43.183805244669884" lon="11.672468718730455"><ele>448.57142857142856</ele><time>2026-04-11T15:40:01.002Z</time></trkpt><trkpt lat="43.18381897552668" lon="11.672369806982731"><ele>447.42857142857144</ele><time>2026-04-11T15:40:02.002Z</time></trkpt><trkpt lat="43.18383163154402" lon="11.672266389307895"><ele>446.28571428571433</ele><time>2026-04-11T15:40:03.002Z</time></trkpt><trkpt lat="43.18384111649574" lon="11.672159780052183"><ele>445.1428571428571</ele><time>2026-04-11T15:40:04.002Z</time></trkpt><trkpt lat="43.18385652920044" lon="11.67206228181615"><ele>444.0</ele><time>2026-04-11T15:40:05.002Z</time></trkpt><trkpt lat="43.18388037243077" lon="11.671959118289973"><ele>444.8333333333333</ele><time>2026-04-11T15:40:06.002Z</time></trkpt><trkpt lat="43.18391276450882" lon="11.671857651220748"><ele>445.66666666666663</ele><time>2026-04-11T15:40:07.002Z</time></trkpt><trkpt lat="43.18394819538916" lon="11.671759729827262"><ele>446.5</ele><time>2026-04-11T15:40:08.002Z</time></trkpt><trkpt lat="43.18399161990213" lon="11.671664530491336"><ele>447.3333333333333</ele><time>2026-04-11T15:40:09.002Z</time></trkpt><trkpt lat="43.18404274773701" lon="11.671572772116074"><ele>448.16666666666663</ele><time>2026-04-11T15:40:10.002Z</time></trkpt><trkpt lat="43.184093836843196" lon="11.671482317544626"><ele>449.0</ele><time>2026-04-11T15:40:11.002Z</time></trkpt><trkpt lat="43.18414572805081" lon="11.671388628437722"><ele>448.99999999999994</ele><time>2026-04-11T15:40:12.002Z</time></trkpt><trkpt lat="43.18420311514439" lon="11.671293590087656"><ele>449.0</ele><time>2026-04-11T15:40:13.002Z</time></trkpt><trkpt lat="43.18425611863501" lon="11.671203686837046"><ele>449.0</ele><time>2026-04-11T15:40:14.002Z</time></trkpt><trkpt lat="43.18431024431519" lon="11.671109137909616"><ele>449.0</ele><time>2026-04-11T15:40:15.002Z</time></trkpt><trkpt lat="43.18436454998503" lon="11.671010960699782"><ele>448.99999999999994</ele><time>2026-04-11T15:40:16.003Z</time></trkpt><trkpt lat="43.18442748475141" lon="11.670913612047581"><ele>449.0</ele><time>2026-04-11T15:40:17.003Z</time></trkpt><trkpt lat="43.184494867286226" lon="11.67082247111089"><ele>449.4</ele><time>2026-04-11T15:40:18.003Z</time></trkpt><trkpt lat="43.1845734534162" lon="11.67074345216354"><ele>449.79999999999995</ele><time>2026-04-11T15:40:19.003Z</time></trkpt><trkpt lat="43.18466388260547" lon="11.670691088899174"><ele>450.20000000000005</ele><time>2026-04-11T15:40:20.003Z</time></trkpt><trkpt lat="43.18475889098908" lon="11.670643284272078"><ele>450.6</ele><time>2026-04-11T15:40:21.003Z</time></trkpt><trkpt lat="43.184847687844304" lon="11.670584190359234"><ele>451.0</ele><time>2026-04-11T15:40:22.003Z</time></trkpt><trkpt lat="43.18494210822679" lon="11.670519618512492"><ele>451.0</ele><time>2026-04-11T15:40:23.003Z</time></trkpt><trkpt lat="43.18503653833524" lon="11.670453701903599"><ele>451.0</ele><time>2026-04-11T15:40:24.003Z</time></trkpt><trkpt lat="43.18513566101974" lon="11.670395068079106"><ele>451.0</ele><time>2026-04-11T15:40:25.003Z</time></trkpt><trkpt lat="43.18523144896967" lon="11.670338071147805"><ele>451.0</ele><time>2026-04-11T15:40:26.003Z</time></trkpt><trkpt lat="43.185328015891955" lon="11.670264928987953"><ele>451.0</ele><time>2026-04-11T15:40:27.003Z</time></trkpt><trkpt lat="43.18542701507745" lon="11.670193022091382"><ele>447.5</ele><time>2026-04-11T15:40:28.003Z</time></trkpt><trkpt lat="43.18552602396705" lon="11.670121263451472"><ele>444.0</ele><time>2026-04-11T15:40:29.003Z</time></trkpt><trkpt lat="43.18563071292188" lon="11.670056187342103"><ele>440.5</ele><time>2026-04-11T15:40:30.003Z</time></trkpt><trkpt lat="43.185730346387" lon="11.669983196266802"><ele>437.0</ele><time>2026-04-11T15:40:31.003Z</time></trkpt><trkpt lat="43.18582737685496" lon="11.669908868347758"><ele>437.0</ele><time>2026-04-11T15:40:32.003Z</time></trkpt><trkpt lat="43.185923639934266" lon="11.669833856290243"><ele>437.00000000000006</ele><time>2026-04-11T15:40:33.003Z</time></trkpt><trkpt lat="43.186023267483094" lon="11.669758352796293"><ele>437.00000000000006</ele><time>2026-04-11T15:40:34.003Z</time></trkpt><trkpt lat="43.18612385577951" lon="11.669686981492584"><ele>437.0</ele><time>2026-04-11T15:40:35.003Z</time></trkpt><trkpt lat="43.1862242446674" lon="11.669624383126745"><ele>437.0</ele><time>2026-04-11T15:40:36.003Z</time></trkpt><trkpt lat="43.18632078996575" lon="11.669555398072205"><ele>437.0</ele><time>2026-04-11T15:40:37.003Z</time></trkpt><trkpt lat="43.18641438008818" lon="11.669488411389452"><ele>437.00000000000006</ele><time>2026-04-11T15:40:38.003Z</time></trkpt><trkpt lat="43.18651115866714" lon="11.669429472403296"><ele>437.00000000000006</ele><time>2026-04-11T15:40:39.003Z</time></trkpt><trkpt lat="43.18660364349493" lon="11.669387285010103"><ele>437.0</ele><time>2026-04-11T15:40:40.003Z</time></trkpt><trkpt lat="43.186704284835265" lon="11.669359907460551"><ele>437.0</ele><time>2026-04-11T15:40:41.003Z</time></trkpt><trkpt lat="43.186794859586016" lon="11.669346150122294"><ele>436.3333333333333</ele><time>2026-04-11T15:40:42Z</time></trkpt><trkpt lat="43.18689071549307" lon="11.669332062054798"><ele>435.66666666666663</ele><time>2026-04-11T15:40:43Z</time></trkpt><trkpt lat="43.18696664301949" lon="11.669326983912985"><ele>435.0</ele><time>2026-04-11T15:40:44Z</time></trkpt><trkpt lat="43.187048997548956" lon="11.669300994156812"><ele>434.33333333333337</ele><time>2026-04-11T15:40:45Z</time></trkpt><trkpt lat="43.187124365650135" lon="11.669251802342531"><ele>433.6666666666667</ele><time>2026-04-11T15:40:46Z</time></trkpt><trkpt lat="43.18716974495546" lon="11.66915786769134"><ele>433.0</ele><time>2026-04-11T15:40:47Z</time></trkpt><trkpt lat="43.187207463328086" lon="11.66906300845615"><ele>433.0</ele><time>2026-04-11T15:40:48Z</time></trkpt><trkpt lat="43.18723032221095" lon="11.668952429255322"><ele>432.99999999999994</ele><time>2026-04-11T15:40:49Z</time></trkpt><trkpt lat="43.18725770317482" lon="11.668863175518293"><ele>432.99999999999994</ele><time>2026-04-11T15:40:50Z</time></trkpt><trkpt lat="43.18727661330895" lon="11.668772279335961"><ele>433.0</ele><time>2026-04-11T15:40:51Z</time></trkpt><trkpt lat="43.18733455260475" lon="11.66863212673744"><ele>433.0</ele><time>2026-04-11T15:40:53Z</time></trkpt><trkpt lat="43.18739397954169" lon="11.668493910822146"><ele>433.1666666666667</ele><time>2026-04-11T15:40:55Z</time></trkpt><trkpt lat="43.18748208957923" lon="11.668381388571701"><ele>433.33333333333337</ele><time>2026-04-11T15:40:57Z</time></trkpt><trkpt lat="43.187532360273636" lon="11.668327020864714"><ele>433.5</ele><time>2026-04-11T15:40:58Z</time></trkpt><trkpt lat="43.18758845191525" lon="11.668277809308982"><ele>433.66666666666663</ele><time>2026-04-11T15:40:59Z</time></trkpt><trkpt lat="43.18768356889135" lon="11.668206342969969"><ele>433.8333333333333</ele><time>2026-04-11T15:41:01Z</time></trkpt><trkpt lat="43.18775605375509" lon="11.668167140313205"><ele>434.0</ele><time>2026-04-11T15:41:03Z</time></trkpt><trkpt lat="43.187771070636" lon="11.668005696132006"><ele>433.99999999999994</ele><time>2026-04-11T15:41:05Z</time></trkpt><trkpt lat="43.18778406437563" lon="11.667910341816102"><ele>434.0</ele><time>2026-04-11T15:41:06Z</time></trkpt><trkpt lat="43.18780664004974" lon="11.667821709887335"><ele>434.0</ele><time>2026-04-11T15:41:07Z</time></trkpt><trkpt lat="43.18782590645904" lon="11.667719521113403"><ele>434.0</ele><time>2026-04-11T15:41:08Z</time></trkpt><trkpt lat="43.187842550741" lon="11.66761319888303"><ele>433.99999999999994</ele><time>2026-04-11T15:41:09Z</time></trkpt><trkpt lat="43.18785642118346" lon="11.667505501384118"><ele>434.0</ele><time>2026-04-11T15:41:10Z</time></trkpt><trkpt lat="43.18787517722679" lon="11.667403444226425"><ele>432.66666666666663</ele><time>2026-04-11T15:41:11Z</time></trkpt><trkpt lat="43.18789377463424" lon="11.667313840374488"><ele>431.3333333333333</ele><time>2026-04-11T15:41:12.001Z</time></trkpt><trkpt lat="43.187900233242516" lon="11.667216809742179"><ele>430.0</ele><time>2026-04-11T15:41:13.001Z</time></trkpt><trkpt lat="43.18787470838962" lon="11.667124819435537"><ele>428.66666666666663</ele><time>2026-04-11T15:41:14.001Z</time></trkpt><trkpt lat="43.18785695212243" lon="11.66702314528518"><ele>427.3333333333333</ele><time>2026-04-11T15:41:15.001Z</time></trkpt><trkpt lat="43.187846708745454" lon="11.666908663458427"><ele>426.0</ele><time>2026-04-11T15:41:16.001Z</time></trkpt><trkpt lat="43.187847425119394" lon="11.666796232432182"><ele>424.0</ele><time>2026-04-11T15:41:17.001Z</time></trkpt><trkpt lat="43.18784463514423" lon="11.666669518210155"><ele>422.0</ele><time>2026-04-11T15:41:18.001Z</time></trkpt><trkpt lat="43.18783964384589" lon="11.66653406001225"><ele>420.0</ele><time>2026-04-11T15:41:19.001Z</time></trkpt><trkpt lat="43.187826476715074" lon="11.666397406984867"><ele>418.0</ele><time>2026-04-11T15:41:20.001Z</time></trkpt><trkpt lat="43.18782241027319" lon="11.666283161444085"><ele>416.0</ele><time>2026-04-11T15:41:21.001Z</time></trkpt><trkpt lat="43.18781769758017" lon="11.666117855926538"><ele>414.6</ele><time>2026-04-11T15:41:22.001Z</time></trkpt><trkpt lat="43.18780618908482" lon="11.665969677102188"><ele>413.20000000000005</ele><time>2026-04-11T15:41:23.001Z</time></trkpt><trkpt lat="43.18778104533808" lon="11.6658061373533"><ele>411.79999999999995</ele><time>2026-04-11T15:41:24.001Z</time></trkpt><trkpt lat="43.187774074715534" lon="11.665674030492303"><ele>410.4</ele><time>2026-04-11T15:41:25.001Z</time></trkpt><trkpt lat="43.18776307542198" lon="11.665541426318894"><ele>409.0</ele><time>2026-04-11T15:41:26.001Z</time></trkpt><trkpt lat="43.18775664152549" lon="11.665408211227778"><ele>408.0</ele><time>2026-04-11T15:41:27.001Z</time></trkpt><trkpt lat="43.187760316383965" lon="11.665266842141778"><ele>407.0</ele><time>2026-04-11T15:41:28.001Z</time></trkpt><trkpt lat="43.18777028759521" lon="11.665132700785854"><ele>406.0</ele><time>2026-04-11T15:41:29.001Z</time></trkpt><trkpt lat="43.187771298208176" lon="11.664997263348056"><ele>405.0</ele><time>2026-04-11T15:41:30.001Z</time></trkpt><trkpt lat="43.18776098942167" lon="11.664860276288023"><ele>404.0</ele><time>2026-04-11T15:41:31.001Z</time></trkpt><trkpt lat="43.18775511712236" lon="11.664716613489839"><ele>404.0</ele><time>2026-04-11T15:41:32.001Z</time></trkpt><trkpt lat="43.18774921642574" lon="11.664565392098881"><ele>404.0</ele><time>2026-04-11T15:41:33.001Z</time></trkpt><trkpt lat="43.18774454938588" lon="11.664412106625006"><ele>404.0</ele><time>2026-04-11T15:41:34.001Z</time></trkpt><trkpt lat="43.187743002219534" lon="11.664249388547091"><ele>404.0</ele><time>2026-04-11T15:41:35.001Z</time></trkpt><trkpt lat="43.187747488819404" lon="11.664082201496866"><ele>402.25</ele><time>2026-04-11T15:41:36.001Z</time></trkpt><trkpt lat="43.18777660529613" lon="11.663919927925743"><ele>400.5</ele><time>2026-04-11T15:41:37.001Z</time></trkpt><trkpt lat="43.18781186220812" lon="11.663768213775636"><ele>398.75</ele><time>2026-04-11T15:41:38.001Z</time></trkpt><trkpt lat="43.18784782388417" lon="11.663619215877553"><ele>397.0</ele><time>2026-04-11T15:41:39.001Z</time></trkpt><trkpt lat="43.187885360220776" lon="11.663465334968926"><ele>395.75</ele><time>2026-04-11T15:41:40.001Z</time></trkpt><trkpt lat="43.1879209524191" lon="11.663314917205351"><ele>394.5</ele><time>2026-04-11T15:41:41.001Z</time></trkpt><trkpt lat="43.18795160600462" lon="11.663161459210775"><ele>393.25</ele><time>2026-04-11T15:41:42.001Z</time></trkpt><trkpt lat="43.1879760198989" lon="11.663002915525016"><ele>392.0</ele><time>2026-04-11T15:41:43.001Z</time></trkpt><trkpt lat="43.18798620899011" lon="11.662841806571894"><ele>390.0</ele><time>2026-04-11T15:41:44.001Z</time></trkpt><trkpt lat="43.18799442109228" lon="11.66268153338577"><ele>388.0</ele><time>2026-04-11T15:41:45.001Z</time></trkpt><trkpt lat="43.18799694302598" lon="11.662523385617613"><ele>386.0</ele><time>2026-04-11T15:41:46.001Z</time></trkpt><trkpt lat="43.18799626839796" lon="11.662363315373122"><ele>384.0</ele><time>2026-04-11T15:41:47.001Z</time></trkpt><trkpt lat="43.187981228957796" lon="11.662205748789026"><ele>384.0</ele><time>2026-04-11T15:41:48.002Z</time></trkpt><trkpt lat="43.18795422018828" lon="11.662051265659198"><ele>384.0</ele><time>2026-04-11T15:41:49.002Z</time></trkpt><trkpt lat="43.18792803855568" lon="11.661889084259435"><ele>384.0</ele><time>2026-04-11T15:41:50.002Z</time></trkpt><trkpt lat="43.18790300986493" lon="11.661733384278197"><ele>384.0</ele><time>2026-04-11T15:41:51.002Z</time></trkpt><trkpt lat="43.187887581290425" lon="11.661564732519512"><ele>382.5</ele><time>2026-04-11T15:41:52.002Z</time></trkpt><trkpt lat="43.18789125070325" lon="11.661394202058462"><ele>381.0</ele><time>2026-04-11T15:41:53.002Z</time></trkpt><trkpt lat="43.187897606739355" lon="11.661226822650422"><ele>379.5</ele><time>2026-04-11T15:41:54.002Z</time></trkpt><trkpt lat="43.187899439996485" lon="11.661064732162078"><ele>378.0</ele><time>2026-04-11T15:41:55.002Z</time></trkpt><trkpt lat="43.18790359575565" lon="11.660898899847115"><ele>376.59999999999997</ele><time>2026-04-11T15:41:56.002Z</time></trkpt><trkpt lat="43.18790902750302" lon="11.660741193979218"><ele>375.2</ele><time>2026-04-11T15:41:57.002Z</time></trkpt><trkpt lat="43.18790607688181" lon="11.660591182249137"><ele>373.8</ele><time>2026-04-11T15:41:58.002Z</time></trkpt><trkpt lat="43.187912082419516" lon="11.660436659357202"><ele>372.4</ele><time>2026-04-11T15:41:59.002Z</time></trkpt><trkpt lat="43.18792615869337" lon="11.660285047185463"><ele>371.0</ele><time>2026-04-11T15:42:00.002Z</time></trkpt><trkpt lat="43.187952824735675" lon="11.66013661986954"><ele>369.5</ele><time>2026-04-11T15:42:01.002Z</time></trkpt><trkpt lat="43.18798181408911" lon="11.659991052841534"><ele>368.0</ele><time>2026-04-11T15:42:02.002Z</time></trkpt><trkpt lat="43.18801577230788" lon="11.659839117614567"><ele>366.5</ele><time>2026-04-11T15:42:03.002Z</time></trkpt><trkpt lat="43.18805261787977" lon="11.659690461879558"><ele>365.0</ele><time>2026-04-11T15:42:04.002Z</time></trkpt><trkpt lat="43.18808397107614" lon="11.65953198757416"><ele>363.0</ele><time>2026-04-11T15:42:05.002Z</time></trkpt><trkpt lat="43.18810591067821" lon="11.659372252183472"><ele>361.0</ele><time>2026-04-11T15:42:06.002Z</time></trkpt><trkpt lat="43.188111422949014" lon="11.659219572132093"><ele>359.0</ele><time>2026-04-11T15:42:07.002Z</time></trkpt><trkpt lat="43.188085167221466" lon="11.659056643219389"><ele>357.0</ele><time>2026-04-11T15:42:08.002Z</time></trkpt><trkpt lat="43.18806209947608" lon="11.658883253363625"><ele>357.0</ele><time>2026-04-11T15:42:09.002Z</time></trkpt><trkpt lat="43.18804498877983" lon="11.658705327911472"><ele>357.0</ele><time>2026-04-11T15:42:10.002Z</time></trkpt><trkpt lat="43.18802568861158" lon="11.658528640672541"><ele>357.0</ele><time>2026-04-11T15:42:11.002Z</time></trkpt><trkpt lat="43.18799127668965" lon="11.658371471952215"><ele>357.0</ele><time>2026-04-11T15:42:12.002Z</time></trkpt><trkpt lat="43.18794595810225" lon="11.658222819379345"><ele>356.0</ele><time>2026-04-11T15:42:13.002Z</time></trkpt><trkpt lat="43.18789803891844" lon="11.658082039450695"><ele>355.0</ele><time>2026-04-11T15:42:14.002Z</time></trkpt><trkpt lat="43.18784194200652" lon="11.657939368996928"><ele>354.0</ele><time>2026-04-11T15:42:15.002Z</time></trkpt><trkpt lat="43.18780344292897" lon="11.657785245975779"><ele>353.0</ele><time>2026-04-11T15:42:16.002Z</time></trkpt><trkpt lat="43.18778811212324" lon="11.65763263963029"><ele>353.0</ele><time>2026-04-11T15:42:17.002Z</time></trkpt><trkpt lat="43.1877845506938" lon="11.657482240287267"><ele>353.0</ele><time>2026-04-11T15:42:18.002Z</time></trkpt><trkpt lat="43.18779322963673" lon="11.65734342245615"><ele>353.0</ele><time>2026-04-11T15:42:19.002Z</time></trkpt><trkpt lat="43.18780321481884" lon="11.65720792262261"><ele>353.0</ele><time>2026-04-11T15:42:20.002Z</time></trkpt><trkpt lat="43.187813705198884" lon="11.657078434268888"><ele>353.0</ele><time>2026-04-11T15:42:21.002Z</time></trkpt><trkpt lat="43.187827393544374" lon="11.656953338523268"><ele>352.59999999999997</ele><time>2026-04-11T15:42:22.002Z</time></trkpt><trkpt lat="43.18784542545666" lon="11.656830119313826"><ele>352.2</ele><time>2026-04-11T15:42:23.002Z</time></trkpt><trkpt lat="43.187868675761" lon="11.656706050404333"><ele>351.8</ele><time>2026-04-11T15:42:24.003Z</time></trkpt><trkpt lat="43.18788611544103" lon="11.656578788385302"><ele>351.4</ele><time>2026-04-11T15:42:25.003Z</time></trkpt><trkpt lat="43.18789951361436" lon="11.656446861712535"><ele>351.0</ele><time>2026-04-11T15:42:26.003Z</time></trkpt><trkpt lat="43.18791853149685" lon="11.656317063536669"><ele>351.0</ele><time>2026-04-11T15:42:27.003Z</time></trkpt><trkpt lat="43.18793636376009" lon="11.656189949085523"><ele>351.0</ele><time>2026-04-11T15:42:28.003Z</time></trkpt><trkpt lat="43.187946637070546" lon="11.656066705440399"><ele>351.0</ele><time>2026-04-11T15:42:29.003Z</time></trkpt><trkpt lat="43.18794880077547" lon="11.655957834317926"><ele>351.0</ele><time>2026-04-11T15:42:30.003Z</time></trkpt><trkpt lat="43.187927420378294" lon="11.655860589200325"><ele>351.0</ele><time>2026-04-11T15:42:31.003Z</time></trkpt><trkpt lat="43.18790853637003" lon="11.655775617450393"><ele>351.0</ele><time>2026-04-11T15:42:32.003Z</time></trkpt><trkpt lat="43.18785682979907" lon="11.655643394433293"><ele>352.0</ele><time>2026-04-11T15:42:34.003Z</time></trkpt><trkpt lat="43.18780458674719" lon="11.65554798879454"><ele>353.0</ele><time>2026-04-11T15:42:36.003Z</time></trkpt><trkpt lat="43.187739234983574" lon="11.655430312002926"><ele>354.0</ele><time>2026-04-11T15:42:38.003Z</time></trkpt><trkpt lat="43.187678183176146" lon="11.655314526238804"><ele>355.0</ele><time>2026-04-11T15:42:40.003Z</time></trkpt><trkpt lat="43.18764012391549" lon="11.65517453150805"><ele>356.0</ele><time>2026-04-11T15:42:42.003Z</time></trkpt><trkpt lat="43.18763584769795" lon="11.65501389484099"><ele>356.0</ele><time>2026-04-11T15:42:44.003Z</time></trkpt><trkpt lat="43.18764692165804" lon="11.654928602762414"><ele>356.0</ele><time>2026-04-11T15:42:45.003Z</time></trkpt><trkpt lat="43.18771438982115" lon="11.654789589347837"><ele>356.0</ele><time>2026-04-11T15:42:47.003Z</time></trkpt><trkpt lat="43.18774266308446" lon="11.654707975916873"><ele>356.0</ele><time>2026-04-11T15:42:48Z</time></trkpt><trkpt lat="43.1877889253778" lon="11.654647758212707"><ele>356.0</ele><time>2026-04-11T15:42:49Z</time></trkpt><trkpt lat="43.18784412598106" lon="11.654587575197494"><ele>356.0</ele><time>2026-04-11T15:42:50Z</time></trkpt><trkpt lat="43.187921517163865" lon="11.654478266839757"><ele>357.20000000000005</ele><time>2026-04-11T15:42:52Z</time></trkpt><trkpt lat="43.18798907254243" lon="11.654368171991829"><ele>358.40000000000003</ele><time>2026-04-11T15:42:54Z</time></trkpt><trkpt lat="43.188039570384426" lon="11.654253452359605"><ele>359.6</ele><time>2026-04-11T15:42:56Z</time></trkpt><trkpt lat="43.18806532313101" lon="11.654124628145551"><ele>360.8</ele><time>2026-04-11T15:42:58Z</time></trkpt><trkpt lat="43.1880680518572" lon="11.653997466956605"><ele>362.0</ele><time>2026-04-11T15:43:00Z</time></trkpt><trkpt lat="43.18806504163577" lon="11.653867844463164"><ele>362.0</ele><time>2026-04-11T15:43:02Z</time></trkpt><trkpt lat="43.188049823006615" lon="11.65375914141765"><ele>362.0</ele><time>2026-04-11T15:43:04Z</time></trkpt><trkpt lat="43.188026849219334" lon="11.653650206156724"><ele>362.0</ele><time>2026-04-11T15:43:06Z</time></trkpt><trkpt lat="43.18802327966617" lon="11.653557651125416"><ele>362.0</ele><time>2026-04-11T15:43:08Z</time></trkpt><trkpt lat="43.18799113613058" lon="11.653454388487157"><ele>362.0</ele><time>2026-04-11T15:43:11Z</time></trkpt><trkpt lat="43.187989043926606" lon="11.653364551503996"><ele>362.0</ele><time>2026-04-11T15:43:13Z</time></trkpt><trkpt lat="43.1879874682105" lon="11.653246720058794"><ele>363.6666666666667</ele><time>2026-04-11T15:43:16Z</time></trkpt><trkpt lat="43.18797933700823" lon="11.653134911703452"><ele>365.33333333333337</ele><time>2026-04-11T15:43:19Z</time></trkpt><trkpt lat="43.18798295581026" lon="11.653024291643431"><ele>367.0</ele><time>2026-04-11T15:43:22.001Z</time></trkpt><trkpt lat="43.18799878304282" lon="11.652910910061312"><ele>368.6666666666667</ele><time>2026-04-11T15:43:25.001Z</time></trkpt><trkpt lat="43.188040227608404" lon="11.652805890742547"><ele>370.3333333333333</ele><time>2026-04-11T15:43:28.001Z</time></trkpt><trkpt lat="43.18809623529499" lon="11.652711425521481"><ele>372.0</ele><time>2026-04-11T15:43:31.001Z</time></trkpt><trkpt lat="43.18814904334507" lon="11.652611449145871"><ele>368.0</ele><time>2026-04-11T15:43:34.001Z</time></trkpt><trkpt lat="43.18818935855843" lon="11.652523113442614"><ele>364.0</ele><time>2026-04-11T15:43:36.001Z</time></trkpt><trkpt lat="43.18823950891639" lon="11.652407058646869"><ele>360.0</ele><time>2026-04-11T15:43:38.001Z</time></trkpt><trkpt lat="43.18830706083303" lon="11.652262632991473"><ele>356.0</ele><time>2026-04-11T15:43:40.001Z</time></trkpt><trkpt lat="43.18834701574662" lon="11.652179444646345"><ele>352.0</ele><time>2026-04-11T15:43:41.001Z</time></trkpt><trkpt lat="43.18838349336519" lon="11.652077106652584"><ele>352.40000000000003</ele><time>2026-04-11T15:43:42.001Z</time></trkpt><trkpt lat="43.188394755305886" lon="11.651954128581094"><ele>352.8</ele><time>2026-04-11T15:43:43.001Z</time></trkpt><trkpt lat="43.188386547256165" lon="11.651823994112016"><ele>353.2</ele><time>2026-04-11T15:43:44.001Z</time></trkpt><trkpt lat="43.1883475690177" lon="11.65169140597797"><ele>353.6</ele><time>2026-04-11T15:43:45.001Z</time></trkpt><trkpt lat="43.18828979103246" lon="11.651571099447425"><ele>354.0</ele><time>2026-04-11T15:43:46.001Z</time></trkpt><trkpt lat="43.18822754399535" lon="11.65145888653241"><ele>354.2</ele><time>2026-04-11T15:43:47.001Z</time></trkpt><trkpt lat="43.18816934791235" lon="11.651346026336965"><ele>354.4</ele><time>2026-04-11T15:43:48.001Z</time></trkpt><trkpt lat="43.1881543658179" lon="11.651227571233713"><ele>354.6</ele><time>2026-04-11T15:43:49.001Z</time></trkpt><trkpt lat="43.188141355528956" lon="11.651090933620338"><ele>354.8</ele><time>2026-04-11T15:43:50.001Z</time></trkpt><trkpt lat="43.18817670608266" lon="11.650974761456327"><ele>355.0</ele><time>2026-04-11T15:43:51.001Z</time></trkpt><trkpt lat="43.188236928444226" lon="11.650882167176073"><ele>355.0</ele><time>2026-04-11T15:43:52.001Z</time></trkpt><trkpt lat="43.188303196555516" lon="11.65082541180391"><ele>355.0</ele><time>2026-04-11T15:43:53.001Z</time></trkpt><trkpt lat="43.18839954691855" lon="11.650731680031859"><ele>355.0</ele><time>2026-04-11T15:43:55.001Z</time></trkpt><trkpt lat="43.18846264902896" lon="11.650657885151997"><ele>355.0</ele><time>2026-04-11T15:43:57.002Z</time></trkpt><trkpt lat="43.188507290135114" lon="11.650574306454207"><ele>355.0</ele><time>2026-04-11T15:43:59.002Z</time></trkpt><trkpt lat="43.18854270135711" lon="11.650464874033272"><ele>355.0</ele><time>2026-04-11T15:44:02.002Z</time></trkpt><trkpt lat="43.18856954733472" lon="11.650344548950901"><ele>356.1428571428571</ele><time>2026-04-11T15:44:05.002Z</time></trkpt><trkpt lat="43.18858311020384" lon="11.650245789296896"><ele>357.2857142857143</ele><time>2026-04-11T15:44:07.002Z</time></trkpt><trkpt lat="43.188586200886576" lon="11.650144920382992"><ele>358.42857142857144</ele><time>2026-04-11T15:44:10.002Z</time></trkpt><trkpt lat="43.188587605271245" lon="11.650037506139968"><ele>359.57142857142856</ele><time>2026-04-11T15:44:13.002Z</time></trkpt><trkpt lat="43.18859608931297" lon="11.64992708448733"><ele>360.7142857142857</ele><time>2026-04-11T15:44:16.002Z</time></trkpt><trkpt lat="43.18859761244428" lon="11.64982776086935"><ele>361.85714285714283</ele><time>2026-04-11T15:44:19.002Z</time></trkpt><trkpt lat="43.18859407655082" lon="11.649739795185557"><ele>363.0</ele><time>2026-04-11T15:44:22.002Z</time></trkpt><trkpt lat="43.188603949327884" lon="11.649649691781859"><ele>362.99999999999994</ele><time>2026-04-11T15:44:25.002Z</time></trkpt><trkpt lat="43.18860117634544" lon="11.649541590316447"><ele>363.0</ele><time>2026-04-11T15:44:29.002Z</time></trkpt><trkpt lat="43.188600109843" lon="11.649429927931225"><ele>363.0</ele><time>2026-04-11T15:44:33.003Z</time></trkpt><trkpt lat="43.18858884330916" lon="11.64932280865254"><ele>363.0</ele><time>2026-04-11T15:44:37.003Z</time></trkpt><trkpt lat="43.18857377772408" lon="11.649229928240787"><ele>363.0</ele><time>2026-04-11T15:44:40.003Z</time></trkpt><trkpt lat="43.18855347649725" lon="11.649136626456249"><ele>362.99999999999994</ele><time>2026-04-11T15:44:43.003Z</time></trkpt><trkpt lat="43.188524409939824" lon="11.649049428770413"><ele>363.0</ele><time>2026-04-11T15:44:46.003Z</time></trkpt><trkpt lat="43.18848288626756" lon="11.648922170074673"><ele>364.0</ele><time>2026-04-11T15:44:49.003Z</time></trkpt><trkpt lat="43.18850419429351" lon="11.648807319328233"><ele>365.0</ele><time>2026-04-11T15:44:52.003Z</time></trkpt><trkpt lat="43.18851281928589" lon="11.648719643996719"><ele>366.0</ele><time>2026-04-11T15:44:54Z</time></trkpt><trkpt lat="43.188510366900715" lon="11.64860575862346"><ele>367.0</ele><time>2026-04-11T15:44:56Z</time></trkpt><trkpt lat="43.1885219410928" lon="11.648503288483404"><ele>368.0</ele><time>2026-04-11T15:44:58Z</time></trkpt><trkpt lat="43.188505595979585" lon="11.648373614298848"><ele>369.0</ele><time>2026-04-11T15:45:00Z</time></trkpt><trkpt lat="43.18847971548674" lon="11.648244010822225"><ele>369.6</ele><time>2026-04-11T15:45:02Z</time></trkpt><trkpt lat="43.18842934200266" lon="11.648125481782836"><ele>370.2</ele><time>2026-04-11T15:45:04Z</time></trkpt><trkpt lat="43.18837889463672" lon="11.648005597131698"><ele>370.8</ele><time>2026-04-11T15:45:06Z</time></trkpt><trkpt lat="43.18831940731337" lon="11.647903788962918"><ele>371.40000000000003</ele><time>2026-04-11T15:45:08Z</time></trkpt><trkpt lat="43.18824966824785" lon="11.647808912774856"><ele>372.0</ele><time>2026-04-11T15:45:10Z</time></trkpt><trkpt lat="43.188184884740316" lon="11.647737215469368"><ele>373.8333333333333</ele><time>2026-04-11T15:45:12Z</time></trkpt><trkpt lat="43.188140812003105" lon="11.64766056940702"><ele>375.6666666666667</ele><time>2026-04-11T15:45:14Z</time></trkpt><trkpt lat="43.18808519961663" lon="11.647609873275396"><ele>377.5</ele><time>2026-04-11T15:45:16Z</time></trkpt><trkpt lat="43.18802792287386" lon="11.64753449556597"><ele>379.33333333333337</ele><time>2026-04-11T15:45:19Z</time></trkpt><trkpt lat="43.18796616390108" lon="11.647462975844558"><ele>381.1666666666667</ele><time>2026-04-11T15:45:22.001Z</time></trkpt><trkpt lat="43.18790467417236" lon="11.647402278483321"><ele>383.0</ele><time>2026-04-11T15:45:25.001Z</time></trkpt><trkpt lat="43.187836848024936" lon="11.647335061366618"><ele>383.0</ele><time>2026-04-11T15:45:28.001Z</time></trkpt><trkpt lat="43.18777664038945" lon="11.64727637875984"><ele>383.0</ele><time>2026-04-11T15:45:31.001Z</time></trkpt><trkpt lat="43.18770879044671" lon="11.647226248785959"><ele>383.0</ele><time>2026-04-11T15:45:34.001Z</time></trkpt><trkpt lat="43.18764567418926" lon="11.647170346907677"><ele>383.0</ele><time>2026-04-11T15:45:37.001Z</time></trkpt><trkpt lat="43.18757854539517" lon="11.64711070042448"><ele>383.0</ele><time>2026-04-11T15:45:40.001Z</time></trkpt><trkpt lat="43.187510754379375" lon="11.64706516412747"><ele>383.0</ele><time>2026-04-11T15:45:43.001Z</time></trkpt><trkpt lat="43.18744499108924" lon="11.646989812099221"><ele>382.0</ele><time>2026-04-11T15:45:46.001Z</time></trkpt><trkpt lat="43.18740053658414" lon="11.646913643850004"><ele>381.0</ele><time>2026-04-11T15:45:48.001Z</time></trkpt><trkpt lat="43.18737206848627" lon="11.646831302323463"><ele>380.0</ele><time>2026-04-11T15:45:50.001Z</time></trkpt><trkpt lat="43.18734357403294" lon="11.646729418440563"><ele>379.0</ele><time>2026-04-11T15:45:52.001Z</time></trkpt><trkpt lat="43.18734420680186" lon="11.64659925763772"><ele>378.0</ele><time>2026-04-11T15:45:54.001Z</time></trkpt><trkpt lat="43.18737534035088" lon="11.64645301619654"><ele>377.0</ele><time>2026-04-11T15:45:56.001Z</time></trkpt><trkpt lat="43.18744607408057" lon="11.646288549573207"><ele>377.0</ele><time>2026-04-11T15:45:58.002Z</time></trkpt><trkpt lat="43.18749281923413" lon="11.646206222525297"><ele>377.0</ele><time>2026-04-11T15:45:59.002Z</time></trkpt><trkpt lat="43.187550740361665" lon="11.64613390677617"><ele>377.0</ele><time>2026-04-11T15:46:00.002Z</time></trkpt><trkpt lat="43.18761563160384" lon="11.646082746924497"><ele>377.0</ele><time>2026-04-11T15:46:01.002Z</time></trkpt><trkpt lat="43.18767953957946" lon="11.646021407319953"><ele>377.0</ele><time>2026-04-11T15:46:02.002Z</time></trkpt><trkpt lat="43.18773913993836" lon="11.645938425679837"><ele>377.0</ele><time>2026-04-11T15:46:03.002Z</time></trkpt><trkpt lat="43.18779656396094" lon="11.645860223751308"><ele>377.5</ele><time>2026-04-11T15:46:04.002Z</time></trkpt><trkpt lat="43.18785150053575" lon="11.645789536239905"><ele>378.0</ele><time>2026-04-11T15:46:05.002Z</time></trkpt><trkpt lat="43.187883753341055" lon="11.645707842061983"><ele>378.5</ele><time>2026-04-11T15:46:06.002Z</time></trkpt><trkpt lat="43.187906671814936" lon="11.645624932922917"><ele>379.0</ele><time>2026-04-11T15:46:07.002Z</time></trkpt><trkpt lat="43.18793338241077" lon="11.645471621154485"><ele>379.5</ele><time>2026-04-11T15:46:09.002Z</time></trkpt><trkpt lat="43.18794359003256" lon="11.645312307955633"><ele>380.0</ele><time>2026-04-11T15:46:11.002Z</time></trkpt><trkpt lat="43.18792209756986" lon="11.645183106787359"><ele>380.5</ele><time>2026-04-11T15:46:13.002Z</time></trkpt><trkpt lat="43.187894925057414" lon="11.64504562585993"><ele>381.0</ele><time>2026-04-11T15:46:15.002Z</time></trkpt><trkpt lat="43.18787360001022" lon="11.644924402281408"><ele>381.5</ele><time>2026-04-11T15:46:17.002Z</time></trkpt><trkpt lat="43.18784851323051" lon="11.644819056681078"><ele>382.0</ele><time>2026-04-11T15:46:19.002Z</time></trkpt><trkpt lat="43.18782285360628" lon="11.644708054582397"><ele>382.5</ele><time>2026-04-11T15:46:21.002Z</time></trkpt><trkpt lat="43.18780815679705" lon="11.64461410063685"><ele>383.0</ele><time>2026-04-11T15:46:23.002Z</time></trkpt><trkpt lat="43.18779088712311" lon="11.644508630193982"><ele>382.7142857142857</ele><time>2026-04-11T15:46:25.002Z</time></trkpt><trkpt lat="43.18777918894187" lon="11.644406747604773"><ele>382.42857142857144</ele><time>2026-04-11T15:46:27.002Z</time></trkpt><trkpt lat="43.187762815640625" lon="11.644311107159654"><ele>382.1428571428571</ele><time>2026-04-11T15:46:29.002Z</time></trkpt><trkpt lat="43.18774411074346" lon="11.644221928273165"><ele>381.8571428571429</ele><time>2026-04-11T15:46:31.002Z</time></trkpt><trkpt lat="43.18772927408395" lon="11.644137729059848"><ele>381.5714285714286</ele><time>2026-04-11T15:46:33.002Z</time></trkpt><trkpt lat="43.18771391371868" lon="11.644052750779126"><ele>381.2857142857143</ele><time>2026-04-11T15:46:35.003Z</time></trkpt><trkpt lat="43.18768589749301" lon="11.643966592644059"><ele>381.0</ele><time>2026-04-11T15:46:37.003Z</time></trkpt><trkpt lat="43.18766591037145" lon="11.643850209930815"><ele>381.0</ele><time>2026-04-11T15:46:40.003Z</time></trkpt><trkpt lat="43.187645777252634" lon="11.64374052760709"><ele>381.0</ele><time>2026-04-11T15:46:43.003Z</time></trkpt><trkpt lat="43.18763231932554" lon="11.643631707909657"><ele>381.0</ele><time>2026-04-11T15:46:46.003Z</time></trkpt><trkpt lat="43.187667120602626" lon="11.643511167550166"><ele>381.0</ele><time>2026-04-11T15:46:49.003Z</time></trkpt><trkpt lat="43.18768843561582" lon="11.64342889097047"><ele>381.0</ele><time>2026-04-11T15:46:51.003Z</time></trkpt><trkpt lat="43.187720138369414" lon="11.64335004353369"><ele>381.0</ele><time>2026-04-11T15:46:53.003Z</time></trkpt><trkpt lat="43.187748096143196" lon="11.643264959040145"><ele>380.2857142857143</ele><time>2026-04-11T15:46:55.003Z</time></trkpt><trkpt lat="43.187778024813205" lon="11.643186003967916"><ele>379.5714285714286</ele><time>2026-04-11T15:46:57.003Z</time></trkpt><trkpt lat="43.187805893802775" lon="11.643104190784802"><ele>378.8571428571429</ele><time>2026-04-11T15:46:59.003Z</time></trkpt><trkpt lat="43.187835389707324" lon="11.643020941113972"><ele>378.1428571428571</ele><time>2026-04-11T15:47:01Z</time></trkpt><trkpt lat="43.187865189946336" lon="11.642941799765246"><ele>377.42857142857144</ele><time>2026-04-11T15:47:03Z</time></trkpt><trkpt lat="43.18790172711558" lon="11.642852758482185"><ele>376.7142857142857</ele><time>2026-04-11T15:47:05Z</time></trkpt><trkpt lat="43.18793758752547" lon="11.642768749613003"><ele>376.0</ele><time>2026-04-11T15:47:07Z</time></trkpt><trkpt lat="43.18798453358633" lon="11.642702148554488"><ele>375.5</ele><time>2026-04-11T15:47:09Z</time></trkpt><trkpt lat="43.188041078805725" lon="11.642641168834217"><ele>375.0</ele><time>2026-04-11T15:47:11Z</time></trkpt><trkpt lat="43.18812615556148" lon="11.642595666191765"><ele>374.5</ele><time>2026-04-11T15:47:14Z</time></trkpt><trkpt lat="43.18818970335937" lon="11.6425884954527"><ele>374.0</ele><time>2026-04-11T15:47:16Z</time></trkpt><trkpt lat="43.18827413615671" lon="11.642614926230133"><ele>373.5</ele><time>2026-04-11T15:47:19Z</time></trkpt><trkpt lat="43.18833161728013" lon="11.642671272583547"><ele>373.0</ele><time>2026-04-11T15:47:21Z</time></trkpt><trkpt lat="43.18841144640683" lon="11.642744780878727"><ele>373.16666666666663</ele><time>2026-04-11T15:47:24Z</time></trkpt><trkpt lat="43.18846265173265" lon="11.642802611799356"><ele>373.3333333333333</ele><time>2026-04-11T15:47:26Z</time></trkpt><trkpt lat="43.1885462688182" lon="11.642870330083237"><ele>373.5</ele><time>2026-04-11T15:47:29Z</time></trkpt><trkpt lat="43.18861726668369" lon="11.64289461227571"><ele>373.6666666666667</ele><time>2026-04-11T15:47:31.001Z</time></trkpt><trkpt lat="43.18869654682362" lon="11.642913415459336"><ele>373.83333333333337</ele><time>2026-04-11T15:47:34.001Z</time></trkpt><trkpt lat="43.18878646709936" lon="11.642890432931049"><ele>374.0</ele><time>2026-04-11T15:47:37.001Z</time></trkpt><trkpt lat="43.1888530969211" lon="11.642872785910555"><ele>374.0</ele><time>2026-04-11T15:47:39.001Z</time></trkpt><trkpt lat="43.188940417431034" lon="11.642835983220877"><ele>374.0</ele><time>2026-04-11T15:47:42.001Z</time></trkpt><trkpt lat="43.18900113359876" lon="11.642795497936469"><ele>374.0</ele><time>2026-04-11T15:47:44.001Z</time></trkpt><trkpt lat="43.18906804206557" lon="11.642752442790085"><ele>374.0</ele><time>2026-04-11T15:47:46.001Z</time></trkpt><trkpt lat="43.1891275762169" lon="11.642709523093977"><ele>374.0</ele><time>2026-04-11T15:47:48.001Z</time></trkpt><trkpt lat="43.189195663997396" lon="11.642663654854202"><ele>374.0</ele><time>2026-04-11T15:47:50.001Z</time></trkpt><trkpt lat="43.189271020645485" lon="11.642588516674554"><ele>376.6666666666667</ele><time>2026-04-11T15:47:52.001Z</time></trkpt><trkpt lat="43.189343499870496" lon="11.642554834808672"><ele>379.33333333333337</ele><time>2026-04-11T15:47:54.001Z</time></trkpt><trkpt lat="43.18941020888184" lon="11.642497113027556"><ele>382.0</ele><time>2026-04-11T15:47:56.001Z</time></trkpt><trkpt lat="43.189509347133985" lon="11.642503032677078"><ele>384.6666666666667</ele><time>2026-04-11T15:47:58.001Z</time></trkpt><trkpt lat="43.18959159406957" lon="11.642506105521328"><ele>387.3333333333333</ele><time>2026-04-11T15:48:00.001Z</time></trkpt><trkpt lat="43.18968131267561" lon="11.642518029466938"><ele>390.0</ele><time>2026-04-11T15:48:02.001Z</time></trkpt><trkpt lat="43.189791265136066" lon="11.642560773530708"><ele>389.6</ele><time>2026-04-11T15:48:05.001Z</time></trkpt><trkpt lat="43.189890275015294" lon="11.642537522772415"><ele>389.2</ele><time>2026-04-11T15:48:07.001Z</time></trkpt><trkpt lat="43.1899731298833" lon="11.642507939502023"><ele>388.79999999999995</ele><time>2026-04-11T15:48:09.002Z</time></trkpt><trkpt lat="43.190054265136446" lon="11.642459219934254"><ele>388.4</ele><time>2026-04-11T15:48:11.002Z</time></trkpt><trkpt lat="43.19014287491667" lon="11.642378177038891"><ele>388.0</ele><time>2026-04-11T15:48:13.002Z</time></trkpt><trkpt lat="43.19021765294324" lon="11.642283889136365"><ele>388.0</ele><time>2026-04-11T15:48:15.002Z</time></trkpt><trkpt lat="43.190257850079185" lon="11.642216443258501"><ele>388.0</ele><time>2026-04-11T15:48:16.002Z</time></trkpt><trkpt lat="43.19033023939604" lon="11.64208632949047"><ele>388.0</ele><time>2026-04-11T15:48:18.002Z</time></trkpt><trkpt lat="43.19041241405373" lon="11.641966263346927"><ele>388.0</ele><time>2026-04-11T15:48:20.002Z</time></trkpt><trkpt lat="43.190493714472346" lon="11.641840070461999"><ele>388.0</ele><time>2026-04-11T15:48:22.002Z</time></trkpt><trkpt lat="43.19053432893884" lon="11.641765599708108"><ele>387.6666666666667</ele><time>2026-04-11T15:48:23.002Z</time></trkpt><trkpt lat="43.190604656884965" lon="11.641617726337214"><ele>387.33333333333337</ele><time>2026-04-11T15:48:25.002Z</time></trkpt><trkpt lat="43.19065519728362" lon="11.641561145460969"><ele>387.0</ele><time>2026-04-11T15:48:26.002Z</time></trkpt><trkpt lat="43.19069744861582" lon="11.64148630413725"><ele>386.66666666666663</ele><time>2026-04-11T15:48:27.002Z</time></trkpt><trkpt lat="43.19073599546533" lon="11.641414678484894"><ele>386.3333333333333</ele><time>2026-04-11T15:48:28.002Z</time></trkpt><trkpt lat="43.19077776891363" lon="11.641347892063795"><ele>386.0</ele><time>2026-04-11T15:48:29.002Z</time></trkpt><trkpt lat="43.190820457627545" lon="11.641186269244901"><ele>386.4</ele><time>2026-04-11T15:48:31.002Z</time></trkpt><trkpt lat="43.19084257264013" lon="11.641017423883836"><ele>386.8</ele><time>2026-04-11T15:48:33.002Z</time></trkpt><trkpt lat="43.19085275724487" lon="11.640904650186558"><ele>387.2</ele><time>2026-04-11T15:48:34.002Z</time></trkpt><trkpt lat="43.19082534617007" lon="11.640744252213532"><ele>387.59999999999997</ele><time>2026-04-11T15:48:36.002Z</time></trkpt><trkpt lat="43.19081991100906" lon="11.640649273801667"><ele>388.0</ele><time>2026-04-11T15:48:37.002Z</time></trkpt><trkpt lat="43.190817012053" lon="11.64055532917444"><ele>388.00000000000006</ele><time>2026-04-11T15:48:38.002Z</time></trkpt><trkpt lat="43.190815447556325" lon="11.64045321653013"><ele>388.0</ele><time>2026-04-11T15:48:39.002Z</time></trkpt><trkpt lat="43.19081046994165" lon="11.640273922827"><ele>388.0</ele><time>2026-04-11T15:48:41.002Z</time></trkpt><trkpt lat="43.19081310646435" lon="11.640179782210149"><ele>388.0</ele><time>2026-04-11T15:48:42.002Z</time></trkpt><trkpt lat="43.190801460167556" lon="11.640085359913897"><ele>388.00000000000006</ele><time>2026-04-11T15:48:43.002Z</time></trkpt><trkpt lat="43.190807507397" lon="11.63998813402733"><ele>388.0</ele><time>2026-04-11T15:48:44.003Z</time></trkpt><trkpt lat="43.19083478589934" lon="11.639806554023183"><ele>387.85714285714283</ele><time>2026-04-11T15:48:46.003Z</time></trkpt><trkpt lat="43.190844122025666" lon="11.639710436013313"><ele>387.7142857142857</ele><time>2026-04-11T15:48:47.003Z</time></trkpt><trkpt lat="43.19085996991512" lon="11.639621123926387"><ele>387.57142857142856</ele><time>2026-04-11T15:48:48.003Z</time></trkpt><trkpt lat="43.190888682643205" lon="11.639530184820451"><ele>387.42857142857144</ele><time>2026-04-11T15:48:49.003Z</time></trkpt><trkpt lat="43.19091786206215" lon="11.639438633710778"><ele>387.28571428571433</ele><time>2026-04-11T15:48:50.003Z</time></trkpt><trkpt lat="43.1909516847438" lon="11.639352836907467"><ele>387.14285714285717</ele><time>2026-04-11T15:48:51.003Z</time></trkpt><trkpt lat="43.190983942450565" lon="11.639261763348383"><ele>387.0</ele><time>2026-04-11T15:48:52.003Z</time></trkpt><trkpt lat="43.191023089506125" lon="11.639179562107214"><ele>387.0</ele><time>2026-04-11T15:48:53.003Z</time></trkpt><trkpt lat="43.191060743350384" lon="11.639099222505608"><ele>387.0</ele><time>2026-04-11T15:48:54.003Z</time></trkpt><trkpt lat="43.191099977678405" lon="11.639022943621464"><ele>387.0</ele><time>2026-04-11T15:48:55.003Z</time></trkpt><trkpt lat="43.19113160504795" lon="11.63894532559202"><ele>387.0</ele><time>2026-04-11T15:48:56.003Z</time></trkpt><trkpt lat="43.19115878634474" lon="11.638865185124324"><ele>387.0</ele><time>2026-04-11T15:48:57.003Z</time></trkpt><trkpt lat="43.19120977725716" lon="11.638713318525184"><ele>387.0</ele><time>2026-04-11T15:48:59.003Z</time></trkpt><trkpt lat="43.19125897678052" lon="11.638563064791166"><ele>387.6</ele><time>2026-04-11T15:49:01.003Z</time></trkpt><trkpt lat="43.191313635787154" lon="11.638430150201655"><ele>388.20000000000005</ele><time>2026-04-11T15:49:03.003Z</time></trkpt><trkpt lat="43.191359382317415" lon="11.638295384178578"><ele>388.8</ele><time>2026-04-11T15:49:05.003Z</time></trkpt><trkpt lat="43.19139774371583" lon="11.638168701602176"><ele>389.4</ele><time>2026-04-11T15:49:07Z</time></trkpt><trkpt lat="43.19143622629" lon="11.63805023696753"><ele>390.0</ele><time>2026-04-11T15:49:09Z</time></trkpt><trkpt lat="43.19146864755094" lon="11.637934199379474"><ele>390.0</ele><time>2026-04-11T15:49:11Z</time></trkpt><trkpt lat="43.191473759109066" lon="11.637828762771772"><ele>390.0</ele><time>2026-04-11T15:49:13Z</time></trkpt><trkpt lat="43.191468910064096" lon="11.637720849668193"><ele>390.0</ele><time>2026-04-11T15:49:15Z</time></trkpt><trkpt lat="43.19143592465861" lon="11.637602260201211"><ele>390.0</ele><time>2026-04-11T15:49:17Z</time></trkpt><trkpt lat="43.1914032122546" lon="11.637489431822761"><ele>390.0</ele><time>2026-04-11T15:49:19Z</time></trkpt><trkpt lat="43.191356094046164" lon="11.637377842879673"><ele>390.0</ele><time>2026-04-11T15:49:21Z</time></trkpt><trkpt lat="43.19131228072327" lon="11.637265812565218"><ele>389.8</ele><time>2026-04-11T15:49:23Z</time></trkpt><trkpt lat="43.19127176742285" lon="11.637147535667234"><ele>389.6</ele><time>2026-04-11T15:49:25Z</time></trkpt><trkpt lat="43.19121467683154" lon="11.637010836396403"><ele>389.4</ele><time>2026-04-11T15:49:27Z</time></trkpt><trkpt lat="43.1911584316967" lon="11.636867116336301"><ele>389.2</ele><time>2026-04-11T15:49:29Z</time></trkpt><trkpt lat="43.19113116802991" lon="11.636786943881035"><ele>389.0</ele><time>2026-04-11T15:49:30Z</time></trkpt><trkpt lat="43.191101983348354" lon="11.636709892369032"><ele>388.8571428571429</ele><time>2026-04-11T15:49:31Z</time></trkpt><trkpt lat="43.19106945752957" lon="11.636630282369712"><ele>388.71428571428567</ele><time>2026-04-11T15:49:32Z</time></trkpt><trkpt lat="43.191040416073456" lon="11.636543681295723"><ele>388.57142857142856</ele><time>2026-04-11T15:49:33Z</time></trkpt><trkpt lat="43.191000992883374" lon="11.636454934343694"><ele>388.42857142857144</ele><time>2026-04-11T15:49:34Z</time></trkpt><trkpt lat="43.190971118827854" lon="11.636373400365141"><ele>388.28571428571433</ele><time>2026-04-11T15:49:35Z</time></trkpt><trkpt lat="43.19093651467465" lon="11.636282062974868"><ele>388.1428571428571</ele><time>2026-04-11T15:49:36Z</time></trkpt><trkpt lat="43.19090019962958" lon="11.63619128080096"><ele>388.0</ele><time>2026-04-11T15:49:37Z</time></trkpt><trkpt lat="43.19086550197806" lon="11.636105709813588"><ele>387.85714285714283</ele><time>2026-04-11T15:49:38.001Z</time></trkpt><trkpt lat="43.19082840850593" lon="11.636011595926785"><ele>387.7142857142857</ele><time>2026-04-11T15:49:39.001Z</time></trkpt><trkpt lat="43.19079508958605" lon="11.635920666796215"><ele>387.57142857142856</ele><time>2026-04-11T15:49:40.001Z</time></trkpt><trkpt lat="43.1907595449532" lon="11.63583019486008"><ele>387.42857142857144</ele><time>2026-04-11T15:49:41.001Z</time></trkpt><trkpt lat="43.19072608562013" lon="11.635744664950922"><ele>387.28571428571433</ele><time>2026-04-11T15:49:42.001Z</time></trkpt><trkpt lat="43.19069404403294" lon="11.635653313336817"><ele>387.14285714285717</ele><time>2026-04-11T15:49:43.001Z</time></trkpt><trkpt lat="43.19065852890483" lon="11.635564982829733"><ele>387.0</ele><time>2026-04-11T15:49:44.001Z</time></trkpt><trkpt lat="43.19062462482447" lon="11.635474664536646"><ele>386.5</ele><time>2026-04-11T15:49:45.001Z</time></trkpt><trkpt lat="43.19059537537329" lon="11.635378281213553"><ele>386.0</ele><time>2026-04-11T15:49:46.001Z</time></trkpt><trkpt lat="43.19056175969868" lon="11.635278807635087"><ele>385.5</ele><time>2026-04-11T15:49:47.001Z</time></trkpt><trkpt lat="43.19052739410781" lon="11.635184003061593"><ele>385.0</ele><time>2026-04-11T15:49:48.001Z</time></trkpt><trkpt lat="43.190488420060554" lon="11.635088205558198"><ele>384.5</ele><time>2026-04-11T15:49:49.001Z</time></trkpt><trkpt lat="43.19045240839203" lon="11.634989937016744"><ele>384.0</ele><time>2026-04-11T15:49:50.001Z</time></trkpt><trkpt lat="43.19041332371454" lon="11.63489154111945"><ele>384.0</ele><time>2026-04-11T15:49:51.001Z</time></trkpt><trkpt lat="43.19037291352939" lon="11.634792687738775"><ele>384.0</ele><time>2026-04-11T15:49:52.001Z</time></trkpt><trkpt lat="43.19033538317701" lon="11.634699130282963"><ele>384.0</ele><time>2026-04-11T15:49:53.001Z</time></trkpt><trkpt lat="43.19029899561784" lon="11.634593642523596"><ele>384.0</ele><time>2026-04-11T15:49:54.001Z</time></trkpt><trkpt lat="43.19026419346947" lon="11.634492140807959"><ele>384.0</ele><time>2026-04-11T15:49:55.001Z</time></trkpt><trkpt lat="43.19022327771286" lon="11.634395418616963"><ele>384.0</ele><time>2026-04-11T15:49:56.001Z</time></trkpt><trkpt lat="43.19018273425001" lon="11.634301801449343"><ele>383.6666666666667</ele><time>2026-04-11T15:49:57.001Z</time></trkpt><trkpt lat="43.190142029797585" lon="11.634194382578968"><ele>383.3333333333333</ele><time>2026-04-11T15:49:58.001Z</time></trkpt><trkpt lat="43.19009717934577" lon="11.634098120082278"><ele>383.0</ele><time>2026-04-11T15:49:59.001Z</time></trkpt><trkpt lat="43.19005659158062" lon="11.633993735794906"><ele>382.66666666666663</ele><time>2026-04-11T15:50:00.001Z</time></trkpt><trkpt lat="43.190023548746844" lon="11.633882485983134"><ele>382.3333333333333</ele><time>2026-04-11T15:50:01.001Z</time></trkpt><trkpt lat="43.18998150433989" lon="11.633774039341448"><ele>382.0</ele><time>2026-04-11T15:50:02.001Z</time></trkpt><trkpt lat="43.18994537480977" lon="11.633658261168614"><ele>381.6</ele><time>2026-04-11T15:50:03.001Z</time></trkpt><trkpt lat="43.18989734028313" lon="11.63355107359111"><ele>381.20000000000005</ele><time>2026-04-11T15:50:04.001Z</time></trkpt><trkpt lat="43.18984276392352" lon="11.633444198969185"><ele>380.8</ele><time>2026-04-11T15:50:05.001Z</time></trkpt><trkpt lat="43.189777345675886" lon="11.633343180730424"><ele>380.4</ele><time>2026-04-11T15:50:06.001Z</time></trkpt><trkpt lat="43.18971190254209" lon="11.633247952298074"><ele>380.0</ele><time>2026-04-11T15:50:07.001Z</time></trkpt><trkpt lat="43.18964703809664" lon="11.633151842172847"><ele>379.4</ele><time>2026-04-11T15:50:08.001Z</time></trkpt><trkpt lat="43.18957351567429" lon="11.633062207481965"><ele>378.8</ele><time>2026-04-11T15:50:09.001Z</time></trkpt><trkpt lat="43.18950314007817" lon="11.632968744428034"><ele>378.20000000000005</ele><time>2026-04-11T15:50:10.001Z</time></trkpt><trkpt lat="43.189439269300685" lon="11.6328646020025"><ele>377.6</ele><time>2026-04-11T15:50:11.001Z</time></trkpt><trkpt lat="43.189391119867324" lon="11.63274638259487"><ele>377.0</ele><time>2026-04-11T15:50:12.001Z</time></trkpt><trkpt lat="43.18934645090091" lon="11.63261803806873"><ele>376.0</ele><time>2026-04-11T15:50:13.001Z</time></trkpt><trkpt lat="43.18930618236075" lon="11.63248460509901"><ele>375.0</ele><time>2026-04-11T15:50:14.001Z</time></trkpt><trkpt lat="43.1892610641814" lon="11.632346860885374"><ele>374.0</ele><time>2026-04-11T15:50:15.002Z</time></trkpt><trkpt lat="43.18920758029476" lon="11.632218355446943"><ele>373.0</ele><time>2026-04-11T15:50:16.002Z</time></trkpt><trkpt lat="43.18914299153211" lon="11.632092558048734"><ele>372.0</ele><time>2026-04-11T15:50:17.002Z</time></trkpt><trkpt lat="43.18907533673812" lon="11.631970939849479"><ele>370.20000000000005</ele><time>2026-04-11T15:50:18.002Z</time></trkpt><trkpt lat="43.18900171907726" lon="11.631853331936796"><ele>368.4</ele><time>2026-04-11T15:50:19.002Z</time></trkpt><trkpt lat="43.18893082298899" lon="11.631741398349337"><ele>366.6</ele><time>2026-04-11T15:50:20.002Z</time></trkpt><trkpt lat="43.18886442365984" lon="11.631619593868077"><ele>364.79999999999995</ele><time>2026-04-11T15:50:21.002Z</time></trkpt><trkpt lat="43.18880594897602" lon="11.631496499610202"><ele>363.0</ele><time>2026-04-11T15:50:22.002Z</time></trkpt><trkpt lat="43.18875823921742" lon="11.63136764724973"><ele>363.0</ele><time>2026-04-11T15:50:23.002Z</time></trkpt><trkpt lat="43.188713504349174" lon="11.631239051949272"><ele>363.0</ele><time>2026-04-11T15:50:24.002Z</time></trkpt><trkpt lat="43.18867449571294" lon="11.631111073255605"><ele>363.0</ele><time>2026-04-11T15:50:25.002Z</time></trkpt><trkpt lat="43.18863993055906" lon="11.630988151217577"><ele>363.0</ele><time>2026-04-11T15:50:26.002Z</time></trkpt><trkpt lat="43.18860413191734" lon="11.630873571509339"><ele>363.0</ele><time>2026-04-11T15:50:27.002Z</time></trkpt><trkpt lat="43.18856557171758" lon="11.630766157728523"><ele>363.0</ele><time>2026-04-11T15:50:28.002Z</time></trkpt><trkpt lat="43.18852820702577" lon="11.630666849486348"><ele>363.0</ele><time>2026-04-11T15:50:29.002Z</time></trkpt><trkpt lat="43.188484739213465" lon="11.630571588379864"><ele>363.0</ele><time>2026-04-11T15:50:30.002Z</time></trkpt><trkpt lat="43.18844267225626" lon="11.630478844107008"><ele>363.0</ele><time>2026-04-11T15:50:31.002Z</time></trkpt><trkpt lat="43.18839968419806" lon="11.63038925106509"><ele>363.0</ele><time>2026-04-11T15:50:32.002Z</time></trkpt><trkpt lat="43.18835976309776" lon="11.630306683716912"><ele>363.0</ele><time>2026-04-11T15:50:33.002Z</time></trkpt><trkpt lat="43.18832041617439" lon="11.630222973852653"><ele>362.85714285714283</ele><time>2026-04-11T15:50:34.002Z</time></trkpt><trkpt lat="43.18828152076681" lon="11.630141806968835"><ele>362.7142857142857</ele><time>2026-04-11T15:50:35.002Z</time></trkpt><trkpt lat="43.188241479541496" lon="11.630065358541449"><ele>362.57142857142856</ele><time>2026-04-11T15:50:36.002Z</time></trkpt><trkpt lat="43.18819959297326" lon="11.629989037484833"><ele>362.42857142857144</ele><time>2026-04-11T15:50:37.002Z</time></trkpt><trkpt lat="43.1881544066859" lon="11.62991715294151"><ele>362.2857142857143</ele><time>2026-04-11T15:50:38.002Z</time></trkpt><trkpt lat="43.18810585599569" lon="11.629849941714271"><ele>362.1428571428571</ele><time>2026-04-11T15:50:39.002Z</time></trkpt><trkpt lat="43.18805522928421" lon="11.629794217302534"><ele>362.0</ele><time>2026-04-11T15:50:40.002Z</time></trkpt><trkpt lat="43.18800384615792" lon="11.629741783740345"><ele>362.0</ele><time>2026-04-11T15:50:41.002Z</time></trkpt><trkpt lat="43.18790902113535" lon="11.629638992653923"><ele>362.0</ele><time>2026-04-11T15:50:43.002Z</time></trkpt><trkpt lat="43.187816205630014" lon="11.629534006121231"><ele>362.0</ele><time>2026-04-11T15:50:45.002Z</time></trkpt><trkpt lat="43.18773892615638" lon="11.629415898051484"><ele>362.0</ele><time>2026-04-11T15:50:47.002Z</time></trkpt><trkpt lat="43.18765719763399" lon="11.629291149842633"><ele>362.1666666666667</ele><time>2026-04-11T15:50:49.002Z</time></trkpt><trkpt lat="43.18756567446937" lon="11.62917350691032"><ele>362.33333333333337</ele><time>2026-04-11T15:50:51.002Z</time></trkpt><trkpt lat="43.187520365089384" lon="11.629112865498593"><ele>362.5</ele><time>2026-04-11T15:50:52.003Z</time></trkpt><trkpt lat="43.187470827852934" lon="11.629046026691707"><ele>362.6666666666667</ele><time>2026-04-11T15:50:53.003Z</time></trkpt><trkpt lat="43.18742283472877" lon="11.628985667161139"><ele>362.8333333333333</ele><time>2026-04-11T15:50:54.003Z</time></trkpt><trkpt lat="43.18737710787512" lon="11.628918669305287"><ele>363.0</ele><time>2026-04-11T15:50:55.003Z</time></trkpt><trkpt lat="43.187333111081244" lon="11.628849759751391"><ele>363.0</ele><time>2026-04-11T15:50:56.003Z</time></trkpt><trkpt lat="43.18729209438032" lon="11.628778692419049"><ele>363.0</ele><time>2026-04-11T15:50:57.003Z</time></trkpt><trkpt lat="43.18725794897635" lon="11.628700066314464"><ele>363.0</ele><time>2026-04-11T15:50:58.003Z</time></trkpt><trkpt lat="43.18722447925505" lon="11.628624628512076"><ele>363.0</ele><time>2026-04-11T15:50:59.003Z</time></trkpt><trkpt lat="43.18718837396381" lon="11.628548216018295"><ele>363.0</ele><time>2026-04-11T15:51:00.003Z</time></trkpt><trkpt lat="43.187160189919084" lon="11.628469771509398"><ele>363.0</ele><time>2026-04-11T15:51:01.003Z</time></trkpt><trkpt lat="43.18710793144589" lon="11.628317876199342"><ele>363.0</ele><time>2026-04-11T15:51:03.003Z</time></trkpt><trkpt lat="43.187058382831" lon="11.628162300991345"><ele>363.0</ele><time>2026-04-11T15:51:05.003Z</time></trkpt><trkpt lat="43.18703139256732" lon="11.628081581468743"><ele>363.0</ele><time>2026-04-11T15:51:06.003Z</time></trkpt><trkpt lat="43.18700968026034" lon="11.627997502886668"><ele>363.0</ele><time>2026-04-11T15:51:07.003Z</time></trkpt><trkpt lat="43.1869890466476" lon="11.627911109206902"><ele>363.0</ele><time>2026-04-11T15:51:08.003Z</time></trkpt><trkpt lat="43.18696814359048" lon="11.627823787088243"><ele>363.0</ele><time>2026-04-11T15:51:09.003Z</time></trkpt><trkpt lat="43.186938916307795" lon="11.627740688831018"><ele>362.99999999999994</ele><time>2026-04-11T15:51:10.003Z</time></trkpt><trkpt lat="43.18689922411433" lon="11.62765970180533"><ele>363.0</ele><time>2026-04-11T15:51:11.003Z</time></trkpt><trkpt lat="43.18685554737931" lon="11.627587393314638"><ele>363.0</ele><time>2026-04-11T15:51:12Z</time></trkpt><trkpt lat="43.186804933640865" lon="11.627517031408567"><ele>363.0</ele><time>2026-04-11T15:51:13Z</time></trkpt><trkpt lat="43.186752048065294" lon="11.627449607868673"><ele>363.0</ele><time>2026-04-11T15:51:14Z</time></trkpt><trkpt lat="43.186698364560236" lon="11.627378772570584"><ele>362.99999999999994</ele><time>2026-04-11T15:51:15Z</time></trkpt><trkpt lat="43.18664458706285" lon="11.627297435886097"><ele>363.0</ele><time>2026-04-11T15:51:16Z</time></trkpt><trkpt lat="43.186600840114366" lon="11.627203751260481"><ele>363.0</ele><time>2026-04-11T15:51:17Z</time></trkpt><trkpt lat="43.18656459769438" lon="11.627099802379398"><ele>363.0</ele><time>2026-04-11T15:51:18Z</time></trkpt><trkpt lat="43.186536225031915" lon="11.626989731827766"><ele>363.0</ele><time>2026-04-11T15:51:19Z</time></trkpt><trkpt lat="43.18650629934233" lon="11.626877439081088"><ele>363.0</ele><time>2026-04-11T15:51:20Z</time></trkpt><trkpt lat="43.18647900711946" lon="11.626760776068641"><ele>363.0</ele><time>2026-04-11T15:51:21Z</time></trkpt><trkpt lat="43.18645372276562" lon="11.626642765231997"><ele>363.0</ele><time>2026-04-11T15:51:22Z</time></trkpt><trkpt lat="43.1864327637147" lon="11.626521029856086"><ele>362.2</ele><time>2026-04-11T15:51:23Z</time></trkpt><trkpt lat="43.1864047278741" lon="11.6263972911738"><ele>361.4</ele><time>2026-04-11T15:51:24Z</time></trkpt><trkpt lat="43.186374411313786" lon="11.626274372651"><ele>360.59999999999997</ele><time>2026-04-11T15:51:25Z</time></trkpt><trkpt lat="43.18635357742214" lon="11.626143451886067"><ele>359.79999999999995</ele><time>2026-04-11T15:51:26Z</time></trkpt><trkpt lat="43.18634056200388" lon="11.626004491425112"><ele>359.0</ele><time>2026-04-11T15:51:27Z</time></trkpt><trkpt lat="43.18633857797724" lon="11.62586528880594"><ele>359.0</ele><time>2026-04-11T15:51:28Z</time></trkpt><trkpt lat="43.18635095982283" lon="11.625726782948883"><ele>359.0</ele><time>2026-04-11T15:51:29Z</time></trkpt><trkpt lat="43.18637701438482" lon="11.62559473243597"><ele>359.0</ele><time>2026-04-11T15:51:30Z</time></trkpt><trkpt lat="43.18641460003837" lon="11.6254630656458"><ele>359.0</ele><time>2026-04-11T15:51:31Z</time></trkpt><trkpt lat="43.18644671711191" lon="11.625341483102655"><ele>359.0</ele><time>2026-04-11T15:51:32Z</time></trkpt><trkpt lat="43.18647769200296" lon="11.625210559348524"><ele>357.79999999999995</ele><time>2026-04-11T15:51:33Z</time></trkpt><trkpt lat="43.18650573454779" lon="11.62507835509931"><ele>356.59999999999997</ele><time>2026-04-11T15:51:34Z</time></trkpt><trkpt lat="43.18652978905273" lon="11.6249410482217"><ele>355.4</ele><time>2026-04-11T15:51:35Z</time></trkpt><trkpt lat="43.18655081260685" lon="11.624801573072792"><ele>354.2</ele><time>2026-04-11T15:51:36Z</time></trkpt><trkpt lat="43.18657156493171" lon="11.624663989443414"><ele>353.0</ele><time>2026-04-11T15:51:37Z</time></trkpt><trkpt lat="43.186588316395834" lon="11.624524652986493"><ele>353.0</ele><time>2026-04-11T15:51:38Z</time></trkpt><trkpt lat="43.186607177461944" lon="11.624383239136398"><ele>353.0</ele><time>2026-04-11T15:51:39Z</time></trkpt><trkpt lat="43.18664248944424" lon="11.624251682164044"><ele>353.0</ele><time>2026-04-11T15:51:40Z</time></trkpt><trkpt lat="43.18667526786798" lon="11.624121623369408"><ele>353.0</ele><time>2026-04-11T15:51:41Z</time></trkpt><trkpt lat="43.18671030569479" lon="11.623991522243482"><ele>353.0</ele><time>2026-04-11T15:51:42Z</time></trkpt><trkpt lat="43.18675103903021" lon="11.623867227556453"><ele>353.0</ele><time>2026-04-11T15:51:43Z</time></trkpt><trkpt lat="43.186794912697934" lon="11.623748646084655"><ele>353.0</ele><time>2026-04-11T15:51:44Z</time></trkpt><trkpt lat="43.18682910983235" lon="11.623624607197815"><ele>353.0</ele><time>2026-04-11T15:51:45Z</time></trkpt><trkpt lat="43.186866330678725" lon="11.623502646680208"><ele>353.0</ele><time>2026-04-11T15:51:46Z</time></trkpt><trkpt lat="43.18691175823757" lon="11.623384909565715"><ele>353.0</ele><time>2026-04-11T15:51:47.001Z</time></trkpt><trkpt lat="43.186966422109364" lon="11.623274175909634"><ele>353.2</ele><time>2026-04-11T15:51:48.001Z</time></trkpt><trkpt lat="43.18703577364155" lon="11.623187855047595"><ele>353.4</ele><time>2026-04-11T15:51:49.001Z</time></trkpt><trkpt lat="43.187112570412744" lon="11.623120601316574"><ele>353.59999999999997</ele><time>2026-04-11T15:51:50.001Z</time></trkpt><trkpt lat="43.18718809106012" lon="11.62305159821677"><ele>353.79999999999995</ele><time>2026-04-11T15:51:51.001Z</time></trkpt><trkpt lat="43.18726782358412" lon="11.622980903680004"><ele>354.0</ele><time>2026-04-11T15:51:52.001Z</time></trkpt><trkpt lat="43.187344493318776" lon="11.622900072138686"><ele>354.4</ele><time>2026-04-11T15:51:53.001Z</time></trkpt><trkpt lat="43.18742393978194" lon="11.622825523437307"><ele>354.79999999999995</ele><time>2026-04-11T15:51:54.001Z</time></trkpt><trkpt lat="43.18750394432492" lon="11.62275230218773"><ele>355.20000000000005</ele><time>2026-04-11T15:51:55.001Z</time></trkpt><trkpt lat="43.187582773973034" lon="11.622680827754321"><ele>355.6</ele><time>2026-04-11T15:51:56.001Z</time></trkpt><trkpt lat="43.18766074009821" lon="11.622610702571713"><ele>356.0</ele><time>2026-04-11T15:51:57.001Z</time></trkpt><trkpt lat="43.18773446994857" lon="11.62254374591152"><ele>356.0</ele><time>2026-04-11T15:51:58.001Z</time></trkpt><trkpt lat="43.187809002422334" lon="11.62247907841205"><ele>356.0</ele><time>2026-04-11T15:51:59.001Z</time></trkpt><trkpt lat="43.1878768663401" lon="11.622416113915122"><ele>356.0</ele><time>2026-04-11T15:52:00.001Z</time></trkpt><trkpt lat="43.18793245797915" lon="11.622343403275014"><ele>356.0</ele><time>2026-04-11T15:52:01.001Z</time></trkpt><trkpt lat="43.187975682427684" lon="11.622263365576542"><ele>356.0</ele><time>2026-04-11T15:52:02.001Z</time></trkpt><trkpt lat="43.18801450318548" lon="11.622181734664853"><ele>356.0</ele><time>2026-04-11T15:52:03.001Z</time></trkpt><trkpt lat="43.188053935127144" lon="11.62210127300704"><ele>355.99999999999994</ele><time>2026-04-11T15:52:04.001Z</time></trkpt><trkpt lat="43.18809609664244" lon="11.622020212050579"><ele>356.0</ele><time>2026-04-11T15:52:05.001Z</time></trkpt><trkpt lat="43.18814173098693" lon="11.621944723903404"><ele>356.0</ele><time>2026-04-11T15:52:06.001Z</time></trkpt><trkpt lat="43.18818918982431" lon="11.621862826593967"><ele>356.0</ele><time>2026-04-11T15:52:07.001Z</time></trkpt><trkpt lat="43.18823436046357" lon="11.621778271535746"><ele>356.0</ele><time>2026-04-11T15:52:08.001Z</time></trkpt><trkpt lat="43.18827285988102" lon="11.621690123188653"><ele>355.99999999999994</ele><time>2026-04-11T15:52:09.001Z</time></trkpt><trkpt lat="43.18830842071051" lon="11.621604762521875"><ele>356.0</ele><time>2026-04-11T15:52:10.001Z</time></trkpt><trkpt lat="43.18834496418069" lon="11.621523777273907"><ele>356.57142857142856</ele><time>2026-04-11T15:52:11.001Z</time></trkpt><trkpt lat="43.18838435483851" lon="11.621444850388635"><ele>357.1428571428571</ele><time>2026-04-11T15:52:12.001Z</time></trkpt><trkpt lat="43.18842204134498" lon="11.62136885024118"><ele>357.71428571428567</ele><time>2026-04-11T15:52:13.001Z</time></trkpt><trkpt lat="43.1884634801333" lon="11.621278598839707"><ele>358.2857142857143</ele><time>2026-04-11T15:52:14.001Z</time></trkpt><trkpt lat="43.188501683915995" lon="11.621197687574659"><ele>358.8571428571429</ele><time>2026-04-11T15:52:15.001Z</time></trkpt><trkpt lat="43.18853453289943" lon="11.621106018593483"><ele>359.4285714285714</ele><time>2026-04-11T15:52:16.001Z</time></trkpt><trkpt lat="43.18857518861177" lon="11.621012752001272"><ele>360.0</ele><time>2026-04-11T15:52:17.001Z</time></trkpt><trkpt lat="43.18861345253218" lon="11.620916739081174"><ele>360.0</ele><time>2026-04-11T15:52:18.001Z</time></trkpt><trkpt lat="43.188650020701935" lon="11.620822299826264"><ele>360.0</ele><time>2026-04-11T15:52:19.001Z</time></trkpt><trkpt lat="43.18868978976925" lon="11.620727605033935"><ele>360.0</ele><time>2026-04-11T15:52:20.001Z</time></trkpt><trkpt lat="43.188733868060204" lon="11.6206413767521"><ele>360.0</ele><time>2026-04-11T15:52:21.001Z</time></trkpt><trkpt lat="43.1887900982141" lon="11.620568105995186"><ele>360.0</ele><time>2026-04-11T15:52:22.001Z</time></trkpt><trkpt lat="43.18884639949192" lon="11.62049791497767"><ele>360.0</ele><time>2026-04-11T15:52:23.002Z</time></trkpt><trkpt lat="43.188911054130486" lon="11.620447067799113"><ele>360.0</ele><time>2026-04-11T15:52:24.002Z</time></trkpt><trkpt lat="43.1889726457792" lon="11.620393094288367"><ele>360.0</ele><time>2026-04-11T15:52:25.002Z</time></trkpt><trkpt lat="43.18903620130836" lon="11.620357887557919"><ele>360.0</ele><time>2026-04-11T15:52:26.002Z</time></trkpt><trkpt lat="43.18909893565168" lon="11.62031771258369"><ele>360.0</ele><time>2026-04-11T15:52:27.002Z</time></trkpt><trkpt lat="43.18921412080839" lon="11.62023228878972"><ele>360.0</ele><time>2026-04-11T15:52:29.002Z</time></trkpt><trkpt lat="43.18926490158597" lon="11.620171271286965"><ele>360.0</ele><time>2026-04-11T15:52:30.002Z</time></trkpt><trkpt lat="43.18935800483147" lon="11.620050601728837"><ele>360.1666666666667</ele><time>2026-04-11T15:52:32.002Z</time></trkpt><trkpt lat="43.189398783355905" lon="11.619984129976134"><ele>360.3333333333333</ele><time>2026-04-11T15:52:33.002Z</time></trkpt><trkpt lat="43.18943635718643" lon="11.619914610871614"><ele>360.5</ele><time>2026-04-11T15:52:34.002Z</time></trkpt><trkpt lat="43.189482289155414" lon="11.619855479762082"><ele>360.66666666666663</ele><time>2026-04-11T15:52:35.002Z</time></trkpt><trkpt lat="43.18955895782083" lon="11.619723886096844"><ele>360.8333333333333</ele><time>2026-04-11T15:52:37.002Z</time></trkpt><trkpt lat="43.18963822113011" lon="11.619599510007657"><ele>361.0</ele><time>2026-04-11T15:52:39.002Z</time></trkpt><trkpt lat="43.18971318380039" lon="11.619476317169863"><ele>360.8</ele><time>2026-04-11T15:52:41.002Z</time></trkpt><trkpt lat="43.18978590833244" lon="11.619346955391354"><ele>360.6</ele><time>2026-04-11T15:52:43.002Z</time></trkpt><trkpt lat="43.189866816644496" lon="11.619220873212624"><ele>360.4</ele><time>2026-04-11T15:52:45.002Z</time></trkpt><trkpt lat="43.18994472330072" lon="11.619087146627972"><ele>360.2</ele><time>2026-04-11T15:52:47.002Z</time></trkpt><trkpt lat="43.18998556218865" lon="11.619010120429701"><ele>360.0</ele><time>2026-04-11T15:52:48.002Z</time></trkpt><trkpt lat="43.190022309364" lon="11.618936200676849"><ele>360.0</ele><time>2026-04-11T15:52:49.002Z</time></trkpt><trkpt lat="43.190055610796755" lon="11.618857096500284"><ele>360.0</ele><time>2026-04-11T15:52:50.002Z</time></trkpt><trkpt lat="43.19008521818563" lon="11.618771941677078"><ele>360.0</ele><time>2026-04-11T15:52:51.002Z</time></trkpt><trkpt lat="43.190110924962454" lon="11.618687075980224"><ele>360.0</ele><time>2026-04-11T15:52:52.002Z</time></trkpt><trkpt lat="43.19014202311768" lon="11.61860937507412"><ele>360.0</ele><time>2026-04-11T15:52:53.002Z</time></trkpt><trkpt lat="43.19018191642147" lon="11.618453247176674"><ele>360.0</ele><time>2026-04-11T15:52:55.002Z</time></trkpt><trkpt lat="43.19020818201749" lon="11.618288788701799"><ele>359.5</ele><time>2026-04-11T15:52:57.002Z</time></trkpt><trkpt lat="43.19019063564749" lon="11.618117983875099"><ele>359.0</ele><time>2026-04-11T15:52:59.003Z</time></trkpt><trkpt lat="43.190175739982536" lon="11.618027847980823"><ele>358.5</ele><time>2026-04-11T15:53:00.003Z</time></trkpt><trkpt lat="43.19017033740233" lon="11.617928265124782"><ele>358.0</ele><time>2026-04-11T15:53:01.003Z</time></trkpt><trkpt lat="43.19016219368458" lon="11.617831612535358"><ele>357.5</ele><time>2026-04-11T15:53:02.003Z</time></trkpt><trkpt lat="43.19013641645815" lon="11.617734549661835"><ele>357.0</ele><time>2026-04-11T15:53:03.003Z</time></trkpt><trkpt lat="43.19011038250849" lon="11.617640111865452"><ele>356.8333333333333</ele><time>2026-04-11T15:53:04.003Z</time></trkpt><trkpt lat="43.19008773649282" lon="11.617538081849979"><ele>356.6666666666667</ele><time>2026-04-11T15:53:05.003Z</time></trkpt><trkpt lat="43.19005934670163" lon="11.617433303175492"><ele>356.5</ele><time>2026-04-11T15:53:06.003Z</time></trkpt><trkpt lat="43.19003275651272" lon="11.617336930769358"><ele>356.33333333333337</ele><time>2026-04-11T15:53:07.003Z</time></trkpt><trkpt lat="43.19000077380764" lon="11.61722070975801"><ele>356.1666666666667</ele><time>2026-04-11T15:53:08.003Z</time></trkpt><trkpt lat="43.1899698051887" lon="11.617104973828472"><ele>356.0</ele><time>2026-04-11T15:53:09.003Z</time></trkpt><trkpt lat="43.18992275567347" lon="11.616991786717277"><ele>355.6</ele><time>2026-04-11T15:53:10.003Z</time></trkpt><trkpt lat="43.18989119890189" lon="11.616863287058015"><ele>355.20000000000005</ele><time>2026-04-11T15:53:11.003Z</time></trkpt><trkpt lat="43.18985378112146" lon="11.616752751471665"><ele>354.79999999999995</ele><time>2026-04-11T15:53:12.003Z</time></trkpt><trkpt lat="43.18981846595392" lon="11.616638672759132"><ele>354.4</ele><time>2026-04-11T15:53:13.003Z</time></trkpt><trkpt lat="43.18977739903399" lon="11.616514595956632"><ele>354.0</ele><time>2026-04-11T15:53:14.003Z</time></trkpt><trkpt lat="43.18973761327918" lon="11.616387177051982"><ele>351.0</ele><time>2026-04-11T15:53:15.003Z</time></trkpt><trkpt lat="43.18970127939874" lon="11.616261363581211"><ele>348.0</ele><time>2026-04-11T15:53:16.003Z</time></trkpt><trkpt lat="43.18966599861894" lon="11.616134994392667"><ele>345.0</ele><time>2026-04-11T15:53:17.003Z</time></trkpt><trkpt lat="43.18962918197451" lon="11.616018627293952"><ele>342.0</ele><time>2026-04-11T15:53:18Z</time></trkpt><trkpt lat="43.18958902429372" lon="11.61588633789801"><ele>339.0</ele><time>2026-04-11T15:53:19Z</time></trkpt><trkpt lat="43.18955286636673" lon="11.615762853069034"><ele>339.2</ele><time>2026-04-11T15:53:20Z</time></trkpt><trkpt lat="43.1895101159591" lon="11.615634487202474"><ele>339.4</ele><time>2026-04-11T15:53:21Z</time></trkpt><trkpt lat="43.18948055624909" lon="11.615500833471573"><ele>339.6</ele><time>2026-04-11T15:53:22Z</time></trkpt><trkpt lat="43.189440876245556" lon="11.615385880363732"><ele>339.8</ele><time>2026-04-11T15:53:23Z</time></trkpt><trkpt lat="43.18940901227876" lon="11.615252780803338"><ele>340.0</ele><time>2026-04-11T15:53:24Z</time></trkpt><trkpt lat="43.18937182691728" lon="11.61512234721649"><ele>340.0</ele><time>2026-04-11T15:53:25Z</time></trkpt><trkpt lat="43.18933246823383" lon="11.614995553660897"><ele>340.0</ele><time>2026-04-11T15:53:26Z</time></trkpt><trkpt lat="43.18929383949977" lon="11.61487467838048"><ele>340.0</ele><time>2026-04-11T15:53:27Z</time></trkpt><trkpt lat="43.189264347154115" lon="11.614758636672807"><ele>340.0</ele><time>2026-04-11T15:53:28Z</time></trkpt><trkpt lat="43.18923188195567" lon="11.614634834735632"><ele>340.0</ele><time>2026-04-11T15:53:29Z</time></trkpt><trkpt lat="43.18921669651546" lon="11.614513378766953"><ele>340.4</ele><time>2026-04-11T15:53:30Z</time></trkpt><trkpt lat="43.18921579670186" lon="11.614380770993822"><ele>340.8</ele><time>2026-04-11T15:53:31Z</time></trkpt><trkpt lat="43.18921821672917" lon="11.614264593566922"><ele>341.20000000000005</ele><time>2026-04-11T15:53:32Z</time></trkpt><trkpt lat="43.18922580282967" lon="11.614142403675539"><ele>341.6</ele><time>2026-04-11T15:53:33Z</time></trkpt><trkpt lat="43.18923698118406" lon="11.61401197358542"><ele>342.0</ele><time>2026-04-11T15:53:34Z</time></trkpt><trkpt lat="43.18925907298906" lon="11.613881859363817"><ele>342.0</ele><time>2026-04-11T15:53:35Z</time></trkpt><trkpt lat="43.1892736003254" lon="11.613759238256051"><ele>342.0</ele><time>2026-04-11T15:53:36Z</time></trkpt><trkpt lat="43.18929462990204" lon="11.613635497174132"><ele>342.0</ele><time>2026-04-11T15:53:37Z</time></trkpt><trkpt lat="43.18932248637492" lon="11.613515031907317"><ele>342.0</ele><time>2026-04-11T15:53:38Z</time></trkpt><trkpt lat="43.18934636351883" lon="11.613393099508865"><ele>342.0</ele><time>2026-04-11T15:53:39Z</time></trkpt><trkpt lat="43.18937202571049" lon="11.613263638858784"><ele>341.6</ele><time>2026-04-11T15:53:40Z</time></trkpt><trkpt lat="43.18939547655699" lon="11.613140364381872"><ele>341.20000000000005</ele><time>2026-04-11T15:53:41Z</time></trkpt><trkpt lat="43.18942139316142" lon="11.613020651374567"><ele>340.8</ele><time>2026-04-11T15:53:42Z</time></trkpt><trkpt lat="43.189446717954816" lon="11.612899124586496"><ele>340.4</ele><time>2026-04-11T15:53:43Z</time></trkpt><trkpt lat="43.189477443939005" lon="11.61278483693962"><ele>340.0</ele><time>2026-04-11T15:53:44Z</time></trkpt><trkpt lat="43.18950399762054" lon="11.61266199229237"><ele>340.0</ele><time>2026-04-11T15:53:45Z</time></trkpt><trkpt lat="43.18952659366796" lon="11.612535850865532"><ele>340.0</ele><time>2026-04-11T15:53:46Z</time></trkpt><trkpt lat="43.18955146958725" lon="11.61241721361803"><ele>340.0</ele><time>2026-04-11T15:53:47Z</time></trkpt><trkpt lat="43.18957424983581" lon="11.612295471370656"><ele>340.0</ele><time>2026-04-11T15:53:48Z</time></trkpt><trkpt lat="43.189603186462335" lon="11.612172185849415"><ele>340.0</ele><time>2026-04-11T15:53:49Z</time></trkpt><trkpt lat="43.18962903933712" lon="11.612055373740498"><ele>339.4</ele><time>2026-04-11T15:53:50Z</time></trkpt><trkpt lat="43.18965536081391" lon="11.611937273565239"><ele>338.8</ele><time>2026-04-11T15:53:51Z</time></trkpt><trkpt lat="43.189681827599536" lon="11.611819974501499"><ele>338.20000000000005</ele><time>2026-04-11T15:53:52Z</time></trkpt><trkpt lat="43.1897083205208" lon="11.611704893699295"><ele>337.6</ele><time>2026-04-11T15:53:53Z</time></trkpt><trkpt lat="43.18975551525305" lon="11.611595440003386"><ele>337.0</ele><time>2026-04-11T15:53:54Z</time></trkpt><trkpt lat="43.18979412564424" lon="11.61148295760326"><ele>336.8333333333333</ele><time>2026-04-11T15:53:55.001Z</time></trkpt><trkpt lat="43.18984209573623" lon="11.611389056961634"><ele>336.66666666666663</ele><time>2026-04-11T15:53:56.001Z</time></trkpt><trkpt lat="43.18988258349333" lon="11.61129076900472"><ele>336.5</ele><time>2026-04-11T15:53:57.001Z</time></trkpt><trkpt lat="43.18992940528174" lon="11.611203192500334"><ele>336.3333333333333</ele><time>2026-04-11T15:53:58.001Z</time></trkpt><trkpt lat="43.189974064868856" lon="11.611123491799145"><ele>336.1666666666667</ele><time>2026-04-11T15:53:59.001Z</time></trkpt><trkpt lat="43.19001347090794" lon="11.611038122612957"><ele>336.0</ele><time>2026-04-11T15:54:00.001Z</time></trkpt><trkpt lat="43.19005096017169" lon="11.610953411460448"><ele>336.57142857142856</ele><time>2026-04-11T15:54:01.001Z</time></trkpt><trkpt lat="43.19009193518509" lon="11.610873655513927"><ele>337.1428571428571</ele><time>2026-04-11T15:54:02.001Z</time></trkpt><trkpt lat="43.19013141779891" lon="11.610795507023063"><ele>337.7142857142857</ele><time>2026-04-11T15:54:03.001Z</time></trkpt><trkpt lat="43.19017743246287" lon="11.610729207487152"><ele>338.2857142857143</ele><time>2026-04-11T15:54:04.001Z</time></trkpt><trkpt lat="43.19021960789624" lon="11.61065634506037"><ele>338.85714285714283</ele><time>2026-04-11T15:54:05.001Z</time></trkpt><trkpt lat="43.190261987433274" lon="11.610586055152098"><ele>339.42857142857144</ele><time>2026-04-11T15:54:06.001Z</time></trkpt><trkpt lat="43.19030631239834" lon="11.610523238646783"><ele>340.0</ele><time>2026-04-11T15:54:07.001Z</time></trkpt><trkpt lat="43.19039471947671" lon="11.610402472408431"><ele>340.0</ele><time>2026-04-11T15:54:09.001Z</time></trkpt><trkpt lat="43.19044061128392" lon="11.610337592578022"><ele>340.0</ele><time>2026-04-11T15:54:10.001Z</time></trkpt><trkpt lat="43.190531919906626" lon="11.61020997563339"><ele>340.0</ele><time>2026-04-11T15:54:12.001Z</time></trkpt><trkpt lat="43.190572169001086" lon="11.610139309860818"><ele>340.0</ele><time>2026-04-11T15:54:13.001Z</time></trkpt><trkpt lat="43.19060906176006" lon="11.610062532455897"><ele>340.0</ele><time>2026-04-11T15:54:14.001Z</time></trkpt><trkpt lat="43.19064322560535" lon="11.609981057671883"><ele>340.0</ele><time>2026-04-11T15:54:15.001Z</time></trkpt><trkpt lat="43.19066520808676" lon="11.60989594185888"><ele>339.8333333333333</ele><time>2026-04-11T15:54:16.001Z</time></trkpt><trkpt lat="43.1906879921393" lon="11.609804959337117"><ele>339.66666666666663</ele><time>2026-04-11T15:54:17.001Z</time></trkpt><trkpt lat="43.19071205865527" lon="11.60970652976319"><ele>339.5</ele><time>2026-04-11T15:54:18.001Z</time></trkpt><trkpt lat="43.190725451281914" lon="11.609609596274577"><ele>339.3333333333333</ele><time>2026-04-11T15:54:19.001Z</time></trkpt><trkpt lat="43.19072453611126" lon="11.60950681281726"><ele>339.1666666666667</ele><time>2026-04-11T15:54:20.001Z</time></trkpt><trkpt lat="43.19072167900808" lon="11.609401966410747"><ele>339.0</ele><time>2026-04-11T15:54:21.001Z</time></trkpt><trkpt lat="43.190713568682426" lon="11.609291862649355"><ele>338.8333333333333</ele><time>2026-04-11T15:54:22.001Z</time></trkpt><trkpt lat="43.19070991801803" lon="11.609178409921954"><ele>338.6666666666667</ele><time>2026-04-11T15:54:23.001Z</time></trkpt><trkpt lat="43.19070558671003" lon="11.609066376023607"><ele>338.5</ele><time>2026-04-11T15:54:24.001Z</time></trkpt><trkpt lat="43.190709595702835" lon="11.608945456383767"><ele>338.33333333333337</ele><time>2026-04-11T15:54:25.001Z</time></trkpt><trkpt lat="43.19072584992555" lon="11.608820760293886"><ele>338.1666666666667</ele><time>2026-04-11T15:54:26.001Z</time></trkpt><trkpt lat="43.1907668918103" lon="11.608707869691063"><ele>338.0</ele><time>2026-04-11T15:54:27.001Z</time></trkpt><trkpt lat="43.19080357531125" lon="11.608587082247217"><ele>337.2</ele><time>2026-04-11T15:54:28.001Z</time></trkpt><trkpt lat="43.190844458288076" lon="11.608464413965665"><ele>336.4</ele><time>2026-04-11T15:54:29.001Z</time></trkpt><trkpt lat="43.19088629732081" lon="11.608339356432591"><ele>335.59999999999997</ele><time>2026-04-11T15:54:30.002Z</time></trkpt><trkpt lat="43.19092825580486" lon="11.608215551430414"><ele>334.79999999999995</ele><time>2026-04-11T15:54:31.002Z</time></trkpt><trkpt lat="43.190972393216676" lon="11.608089678342978"><ele>334.0</ele><time>2026-04-11T15:54:32.002Z</time></trkpt><trkpt lat="43.191013967748" lon="11.607960010360191"><ele>334.0</ele><time>2026-04-11T15:54:33.002Z</time></trkpt><trkpt lat="43.19105353795552" lon="11.60782746468237"><ele>334.0</ele><time>2026-04-11T15:54:34.002Z</time></trkpt><trkpt lat="43.19109582176589" lon="11.607694861277992"><ele>334.0</ele><time>2026-04-11T15:54:35.002Z</time></trkpt><trkpt lat="43.191143914972386" lon="11.60757084829967"><ele>334.0</ele><time>2026-04-11T15:54:36.002Z</time></trkpt><trkpt lat="43.19119348537395" lon="11.607441050040116"><ele>334.0</ele><time>2026-04-11T15:54:37.002Z</time></trkpt><trkpt lat="43.191240008136774" lon="11.607303766712588"><ele>333.0</ele><time>2026-04-11T15:54:38.002Z</time></trkpt><trkpt lat="43.19128024193974" lon="11.60716312287031"><ele>332.0</ele><time>2026-04-11T15:54:39.002Z</time></trkpt><trkpt lat="43.19132996001463" lon="11.607028196527352"><ele>331.0</ele><time>2026-04-11T15:54:40.002Z</time></trkpt><trkpt lat="43.191389616056895" lon="11.606898181534582"><ele>330.0</ele><time>2026-04-11T15:54:41.002Z</time></trkpt><trkpt lat="43.19147019525683" lon="11.606790362531545"><ele>329.0</ele><time>2026-04-11T15:54:42.002Z</time></trkpt><trkpt lat="43.19155808082403" lon="11.6067061081921"><ele>328.0</ele><time>2026-04-11T15:54:43.002Z</time></trkpt><trkpt lat="43.191666470372674" lon="11.606643212002869"><ele>327.0</ele><time>2026-04-11T15:54:44.002Z</time></trkpt><trkpt lat="43.19178029965742" lon="11.606614214693238"><ele>326.0</ele><time>2026-04-11T15:54:45.002Z</time></trkpt><trkpt lat="43.19189982461494" lon="11.606614160292676"><ele>325.0</ele><time>2026-04-11T15:54:46.002Z</time></trkpt><trkpt lat="43.19201711047945" lon="11.60661629883501"><ele>325.0</ele><time>2026-04-11T15:54:47.002Z</time></trkpt><trkpt lat="43.19213208130809" lon="11.606608208213194"><ele>325.0</ele><time>2026-04-11T15:54:48.002Z</time></trkpt><trkpt lat="43.19224960045717" lon="11.606587629198843"><ele>325.0</ele><time>2026-04-11T15:54:49.002Z</time></trkpt><trkpt lat="43.19237179645475" lon="11.606568616157405"><ele>325.0</ele><time>2026-04-11T15:54:50.002Z</time></trkpt><trkpt lat="43.192494525443955" lon="11.606562319048681"><ele>323.5</ele><time>2026-04-11T15:54:51.002Z</time></trkpt><trkpt lat="43.19261837874649" lon="11.606564896926875"><ele>322.0</ele><time>2026-04-11T15:54:52.002Z</time></trkpt><trkpt lat="43.19274060377747" lon="11.60658169347439"><ele>320.5</ele><time>2026-04-11T15:54:53.002Z</time></trkpt><trkpt lat="43.19285617005479" lon="11.606620931835304"><ele>319.0</ele><time>2026-04-11T15:54:54.002Z</time></trkpt><trkpt lat="43.192972000111155" lon="11.606672422826021"><ele>319.0</ele><time>2026-04-11T15:54:55.002Z</time></trkpt><trkpt lat="43.19308327029836" lon="11.606728676806704"><ele>319.0</ele><time>2026-04-11T15:54:56.002Z</time></trkpt><trkpt lat="43.1931892243951" lon="11.606797955725334"><ele>319.0</ele><time>2026-04-11T15:54:57.002Z</time></trkpt><trkpt lat="43.19329127476961" lon="11.606875607473377"><ele>319.0</ele><time>2026-04-11T15:54:58.002Z</time></trkpt><trkpt lat="43.19338374610872" lon="11.60696568430311"><ele>318.59999999999997</ele><time>2026-04-11T15:54:59.002Z</time></trkpt><trkpt lat="43.19347014771824" lon="11.607057796538063"><ele>318.2</ele><time>2026-04-11T15:55:00.002Z</time></trkpt><trkpt lat="43.193550727272154" lon="11.607139830592377"><ele>317.79999999999995</ele><time>2026-04-11T15:55:01.002Z</time></trkpt><trkpt lat="43.19362666987129" lon="11.607211921460403"><ele>317.4</ele><time>2026-04-11T15:55:02.002Z</time></trkpt><trkpt lat="43.19370250091292" lon="11.60726905614174"><ele>317.0</ele><time>2026-04-11T15:55:03.002Z</time></trkpt><trkpt lat="43.19377671396683" lon="11.607295780980252"><ele>317.0</ele><time>2026-04-11T15:55:04.002Z</time></trkpt><trkpt lat="43.1938531523254" lon="11.607277770403758"><ele>317.0</ele><time>2026-04-11T15:55:05.002Z</time></trkpt><trkpt lat="43.193920132436325" lon="11.607197807184749"><ele>317.0</ele><time>2026-04-11T15:55:06.003Z</time></trkpt><trkpt lat="43.193960691051565" lon="11.607086174799292"><ele>317.0</ele><time>2026-04-11T15:55:07.003Z</time></trkpt><trkpt lat="43.193998900340276" lon="11.60696652134833"><ele>317.0</ele><time>2026-04-11T15:55:08.003Z</time></trkpt><trkpt lat="43.194036815074895" lon="11.606854717596741"><ele>317.0</ele><time>2026-04-11T15:55:09.003Z</time></trkpt><trkpt lat="43.19407673190431" lon="11.606742597494863"><ele>314.0</ele><time>2026-04-11T15:55:10.003Z</time></trkpt><trkpt lat="43.19412045627445" lon="11.606629044246672"><ele>311.0</ele><time>2026-04-11T15:55:11.003Z</time></trkpt><trkpt lat="43.1941661175826" lon="11.606510648299619"><ele>308.0</ele><time>2026-04-11T15:55:12.003Z</time></trkpt><trkpt lat="43.194214871295166" lon="11.606391338376342"><ele>305.0</ele><time>2026-04-11T15:55:13.003Z</time></trkpt><trkpt lat="43.194263689193335" lon="11.606264061167856"><ele>302.0</ele><time>2026-04-11T15:55:14.003Z</time></trkpt><trkpt lat="43.19430910778603" lon="11.606136055004816"><ele>301.4</ele><time>2026-04-11T15:55:15.003Z</time></trkpt><trkpt lat="43.194352343448045" lon="11.606006949351153"><ele>300.79999999999995</ele><time>2026-04-11T15:55:16.003Z</time></trkpt><trkpt lat="43.19437725239822" lon="11.605866000854032"><ele>300.2</ele><time>2026-04-11T15:55:17.003Z</time></trkpt><trkpt lat="43.19438745461738" lon="11.605719242578122"><ele>299.59999999999997</ele><time>2026-04-11T15:55:18.003Z</time></trkpt><trkpt lat="43.194402966417506" lon="11.605568415430499"><ele>299.0</ele><time>2026-04-11T15:55:19.003Z</time></trkpt><trkpt lat="43.194409437800495" lon="11.60542484858312"><ele>298.2</ele><time>2026-04-11T15:55:20.003Z</time></trkpt><trkpt lat="43.1944181422349" lon="11.605274372366813"><ele>297.4</ele><time>2026-04-11T15:55:21.003Z</time></trkpt><trkpt lat="43.19442706339929" lon="11.605126326913126"><ele>296.6</ele><time>2026-04-11T15:55:22.003Z</time></trkpt><trkpt lat="43.19443684747332" lon="11.60497398118688"><ele>295.8</ele><time>2026-04-11T15:55:23.003Z</time></trkpt><trkpt lat="43.19444847059689" lon="11.604827913134223"><ele>295.0</ele><time>2026-04-11T15:55:23.999Z</time></trkpt><trkpt lat="43.19445498143449" lon="11.604686408971437"><ele>295.0</ele><time>2026-04-11T15:55:24.999Z</time></trkpt><trkpt lat="43.19445119977718" lon="11.604554778870186"><ele>295.0</ele><time>2026-04-11T15:55:25.999Z</time></trkpt><trkpt lat="43.19443307942053" lon="11.604439527377526"><ele>295.0</ele><time>2026-04-11T15:55:26.999Z</time></trkpt><trkpt lat="43.194396638862784" lon="11.604324750029194"><ele>295.0</ele><time>2026-04-11T15:55:27.999Z</time></trkpt><trkpt lat="43.19433832498055" lon="11.604220875424453"><ele>295.0</ele><time>2026-04-11T15:55:28.999Z</time></trkpt><trkpt lat="43.19427768480718" lon="11.604125114638075"><ele>294.2</ele><time>2026-04-11T15:55:29.999Z</time></trkpt><trkpt lat="43.19422495276688" lon="11.604016136170404"><ele>293.4</ele><time>2026-04-11T15:55:30.999Z</time></trkpt><trkpt lat="43.19417053667573" lon="11.603905761274241"><ele>292.6</ele><time>2026-04-11T15:55:31.999Z</time></trkpt><trkpt lat="43.194108629055194" lon="11.603800913697725"><ele>291.8</ele><time>2026-04-11T15:55:32.999Z</time></trkpt><trkpt lat="43.19405063048203" lon="11.603696856729899"><ele>291.0</ele><time>2026-04-11T15:55:33.999Z</time></trkpt><trkpt lat="43.19399780958399" lon="11.603592165703075"><ele>290.42857142857144</ele><time>2026-04-11T15:55:34.999Z</time></trkpt><trkpt lat="43.19395077143822" lon="11.603492414606205"><ele>289.85714285714283</ele><time>2026-04-11T15:55:35.999Z</time></trkpt><trkpt lat="43.19391014243608" lon="11.603397556119608"><ele>289.2857142857143</ele><time>2026-04-11T15:55:36.999Z</time></trkpt><trkpt lat="43.19387883624031" lon="11.603317734688897"><ele>288.7142857142857</ele><time>2026-04-11T15:55:37.999Z</time></trkpt><trkpt lat="43.19386518901026" lon="11.603232676691729"><ele>288.1428571428571</ele><time>2026-04-11T15:55:38.999Z</time></trkpt><trkpt lat="43.19387105529701" lon="11.603137550367368"><ele>287.57142857142856</ele><time>2026-04-11T15:55:40Z</time></trkpt><trkpt lat="43.19390438709314" lon="11.603048576600779"><ele>287.0</ele><time>2026-04-11T15:55:41Z</time></trkpt><trkpt lat="43.19395980923309" lon="11.602971184256342"><ele>286.8</ele><time>2026-04-11T15:55:42Z</time></trkpt><trkpt lat="43.194016078953545" lon="11.602925091398877"><ele>286.6</ele><time>2026-04-11T15:55:43Z</time></trkpt><trkpt lat="43.19407037488341" lon="11.602877393927537"><ele>286.40000000000003</ele><time>2026-04-11T15:55:44Z</time></trkpt><trkpt lat="43.19416821046278" lon="11.602793863245806"><ele>286.2</ele><time>2026-04-11T15:55:46Z</time></trkpt><trkpt lat="43.19425858749281" lon="11.602727501099222"><ele>286.0</ele><time>2026-04-11T15:55:48Z</time></trkpt><trkpt lat="43.194368636256925" lon="11.60270478167971"><ele>286.0</ele><time>2026-04-11T15:55:50Z</time></trkpt><trkpt lat="43.194431328714685" lon="11.602679827563078"><ele>286.0</ele><time>2026-04-11T15:55:51Z</time></trkpt><trkpt lat="43.19454619363437" lon="11.60264471061818"><ele>286.0</ele><time>2026-04-11T15:55:53Z</time></trkpt><trkpt lat="43.19465784129814" lon="11.602615333130506"><ele>286.0</ele><time>2026-04-11T15:55:55Z</time></trkpt><trkpt lat="43.19474906872923" lon="11.602598280586458"><ele>286.0</ele><time>2026-04-11T15:55:57Z</time></trkpt><trkpt lat="43.19484393717081" lon="11.602575064912608"><ele>286.8333333333333</ele><time>2026-04-11T15:55:59Z</time></trkpt><trkpt lat="43.194917596279474" lon="11.602565292695994"><ele>287.66666666666663</ele><time>2026-04-11T15:56:01Z</time></trkpt><trkpt lat="43.19499325616088" lon="11.602546203713802"><ele>288.5</ele><time>2026-04-11T15:56:03Z</time></trkpt><trkpt lat="43.195058325305446" lon="11.60252216232229"><ele>289.3333333333333</ele><time>2026-04-11T15:56:05Z</time></trkpt><trkpt lat="43.19514714925306" lon="11.602509264081865"><ele>290.1666666666667</ele><time>2026-04-11T15:56:08.001Z</time></trkpt><trkpt lat="43.195229518552985" lon="11.602488649373774"><ele>291.0</ele><time>2026-04-11T15:56:11.001Z</time></trkpt><trkpt lat="43.1953160062648" lon="11.602485471538948"><ele>291.0</ele><time>2026-04-11T15:56:14.001Z</time></trkpt><trkpt lat="43.1954045359508" lon="11.60245854163487"><ele>291.0</ele><time>2026-04-11T15:56:17.001Z</time></trkpt><trkpt lat="43.19546666886622" lon="11.60243639501449"><ele>291.0</ele><time>2026-04-11T15:56:19.001Z</time></trkpt><trkpt lat="43.19555256352239" lon="11.602425362437812"><ele>291.0</ele><time>2026-04-11T15:56:22.001Z</time></trkpt><trkpt lat="43.195641019914504" lon="11.60240038665844"><ele>291.0</ele><time>2026-04-11T15:56:25.001Z</time></trkpt><trkpt lat="43.195714635504" lon="11.602380941249194"><ele>291.0</ele><time>2026-04-11T15:56:27.001Z</time></trkpt><trkpt lat="43.1957980657426" lon="11.602360413748377"><ele>291.7142857142857</ele><time>2026-04-11T15:56:30.001Z</time></trkpt><trkpt lat="43.195862574884124" lon="11.602341458243275"><ele>292.4285714285714</ele><time>2026-04-11T15:56:32.001Z</time></trkpt><trkpt lat="43.19593104265466" lon="11.602326309344074"><ele>293.1428571428571</ele><time>2026-04-11T15:56:34.001Z</time></trkpt><trkpt lat="43.1959990976984" lon="11.602307829770963"><ele>293.85714285714283</ele><time>2026-04-11T15:56:36.001Z</time></trkpt><trkpt lat="43.19606209316515" lon="11.602297267466293"><ele>294.57142857142856</ele><time>2026-04-11T15:56:38.002Z</time></trkpt><trkpt lat="43.19612418410806" lon="11.602279328775325"><ele>295.2857142857143</ele><time>2026-04-11T15:56:40.002Z</time></trkpt><trkpt lat="43.19619162469659" lon="11.602265382359533"><ele>296.0</ele><time>2026-04-11T15:56:42.002Z</time></trkpt><trkpt lat="43.196283896184184" lon="11.602249154379958"><ele>296.0</ele><time>2026-04-11T15:56:45.002Z</time></trkpt><trkpt lat="43.19637808562855" lon="11.602249514889976"><ele>296.0</ele><time>2026-04-11T15:56:48.002Z</time></trkpt><trkpt lat="43.19646527754397" lon="11.602244814961573"><ele>296.0</ele><time>2026-04-11T15:56:51.002Z</time></trkpt><trkpt lat="43.19654649882026" lon="11.602252883087171"><ele>296.0</ele><time>2026-04-11T15:56:54.002Z</time></trkpt><trkpt lat="43.196626589481966" lon="11.602246869880926"><ele>296.0</ele><time>2026-04-11T15:56:57.002Z</time></trkpt><trkpt lat="43.196699335592484" lon="11.602250124388535"><ele>296.0</ele><time>2026-04-11T15:57:00.002Z</time></trkpt><trkpt lat="43.19676916898946" lon="11.602256399890917"><ele>296.0</ele><time>2026-04-11T15:57:03.002Z</time></trkpt><trkpt lat="43.196843098755494" lon="11.602257304534366"><ele>296.0</ele><time>2026-04-11T15:57:06.002Z</time></trkpt><trkpt lat="43.19691066021268" lon="11.602269016175805"><ele>296.0</ele><time>2026-04-11T15:57:09.002Z</time></trkpt><trkpt lat="43.19697466330755" lon="11.602290880019098"><ele>296.0</ele><time>2026-04-11T15:57:12.003Z</time></trkpt><trkpt lat="43.19704323071371" lon="11.602319945854132"><ele>296.0</ele><time>2026-04-11T15:57:15.003Z</time></trkpt><trkpt lat="43.19710635671192" lon="11.60234165847357"><ele>296.0</ele><time>2026-04-11T15:57:18.003Z</time></trkpt><trkpt lat="43.19716971640061" lon="11.602362216395681"><ele>296.0</ele><time>2026-04-11T15:57:21.003Z</time></trkpt><trkpt lat="43.19723215601351" lon="11.602392024962517"><ele>296.0</ele><time>2026-04-11T15:57:24.003Z</time></trkpt><trkpt lat="43.197290365472284" lon="11.602447090214309"><ele>296.0</ele><time>2026-04-11T15:57:27.003Z</time></trkpt><trkpt lat="43.19736150932677" lon="11.602441433889302"><ele>296.0</ele><time>2026-04-11T15:57:30Z</time></trkpt><trkpt lat="43.19742045308814" lon="11.602492761855006"><ele>296.0</ele><time>2026-04-11T15:57:33Z</time></trkpt><trkpt lat="43.19748573384619" lon="11.602527899899771"><ele>296.0</ele><time>2026-04-11T15:57:36Z</time></trkpt><trkpt lat="43.19754590129408" lon="11.602572383441716"><ele>296.0</ele><time>2026-04-11T15:57:39Z</time></trkpt><trkpt lat="43.19760411922586" lon="11.602623938162578"><ele>296.0</ele><time>2026-04-11T15:57:42Z</time></trkpt><trkpt lat="43.197664254866886" lon="11.602669658287152"><ele>296.14285714285717</ele><time>2026-04-11T15:57:45Z</time></trkpt><trkpt lat="43.19771932429971" lon="11.602720850031437"><ele>296.2857142857143</ele><time>2026-04-11T15:57:48Z</time></trkpt><trkpt lat="43.197784724047544" lon="11.60277186878607"><ele>296.42857142857144</ele><time>2026-04-11T15:57:51Z</time></trkpt><trkpt lat="43.19784245761306" lon="11.60282134519241"><ele>296.57142857142856</ele><time>2026-04-11T15:57:54Z</time></trkpt><trkpt lat="43.19789893503868" lon="11.602879265140839"><ele>296.7142857142857</ele><time>2026-04-11T15:57:57Z</time></trkpt><trkpt lat="43.197962615492635" lon="11.602922250375187"><ele>296.8571428571429</ele><time>2026-04-11T15:58:00Z</time></trkpt><trkpt lat="43.19801906966041" lon="11.602979315002708"><ele>297.0</ele><time>2026-04-11T15:58:03.001Z</time></trkpt><trkpt lat="43.198080415720355" lon="11.603027731715049"><ele>297.0</ele><time>2026-04-11T15:58:06.001Z</time></trkpt><trkpt lat="43.19814308871569" lon="11.603069125883655"><ele>297.0</ele><time>2026-04-11T15:58:09.001Z</time></trkpt><trkpt lat="43.198209761836274" lon="11.603111025917244"><ele>297.0</ele><time>2026-04-11T15:58:12.001Z</time></trkpt><trkpt lat="43.19827931558933" lon="11.603140694325145"><ele>297.0</ele><time>2026-04-11T15:58:15.001Z</time></trkpt><trkpt lat="43.198349124132996" lon="11.603182289819452"><ele>297.0</ele><time>2026-04-11T15:58:18.001Z</time></trkpt><trkpt lat="43.19841377206313" lon="11.603219088701797"><ele>297.0</ele><time>2026-04-11T15:58:21.001Z</time></trkpt><trkpt lat="43.19847554519429" lon="11.603252116486045"><ele>297.0</ele><time>2026-04-11T15:58:24.001Z</time></trkpt><trkpt lat="43.19853609012078" lon="11.603286764189951"><ele>298.7142857142857</ele><time>2026-04-11T15:58:27.001Z</time></trkpt><trkpt lat="43.19859663326243" lon="11.603319481937122"><ele>300.42857142857144</ele><time>2026-04-11T15:58:30.001Z</time></trkpt><trkpt lat="43.198657630386045" lon="11.603354577827304"><ele>302.14285714285717</ele><time>2026-04-11T15:58:33.002Z</time></trkpt><trkpt lat="43.19871845397721" lon="11.603385601599081"><ele>303.8571428571429</ele><time>2026-04-11T15:58:36.002Z</time></trkpt><trkpt lat="43.19878602318924" lon="11.60340901053637"><ele>305.57142857142856</ele><time>2026-04-11T15:58:39.002Z</time></trkpt><trkpt lat="43.198853340534875" lon="11.603445478778337"><ele>307.28571428571433</ele><time>2026-04-11T15:58:42.002Z</time></trkpt><trkpt lat="43.19891093522751" lon="11.603485464419103"><ele>309.0</ele><time>2026-04-11T15:58:45.002Z</time></trkpt><trkpt lat="43.19896770349004" lon="11.603538278093525"><ele>309.5714285714286</ele><time>2026-04-11T15:58:48.002Z</time></trkpt><trkpt lat="43.1990284423124" lon="11.603574699930288"><ele>310.14285714285717</ele><time>2026-04-11T15:58:51.002Z</time></trkpt><trkpt lat="43.19909470018404" lon="11.603636141314052"><ele>310.7142857142857</ele><time>2026-04-11T15:58:54.002Z</time></trkpt><trkpt lat="43.19914209234322" lon="11.603695276660156"><ele>311.28571428571433</ele><time>2026-04-11T15:58:57.002Z</time></trkpt><trkpt lat="43.199198120911156" lon="11.603767114273632"><ele>311.8571428571429</ele><time>2026-04-11T15:59:00.002Z</time></trkpt><trkpt lat="43.1992450629372" lon="11.603837043360773"><ele>312.42857142857144</ele><time>2026-04-11T15:59:03.002Z</time></trkpt><trkpt lat="43.19928889805796" lon="11.603904541956723"><ele>313.0</ele><time>2026-04-11T15:59:06.003Z</time></trkpt><trkpt lat="43.19932525765534" lon="11.603982035620549"><ele>313.0</ele><time>2026-04-11T15:59:09.003Z</time></trkpt><trkpt lat="43.19936372397746" lon="11.604057280858157"><ele>313.0</ele><time>2026-04-11T15:59:12.003Z</time></trkpt><trkpt lat="43.19940257430406" lon="11.604136111050186"><ele>313.0</ele><time>2026-04-11T15:59:15.003Z</time></trkpt><trkpt lat="43.19944054119213" lon="11.604215170826432"><ele>313.0</ele><time>2026-04-11T15:59:18.003Z</time></trkpt><trkpt lat="43.19948858657364" lon="11.604287844628976"><ele>313.0</ele><time>2026-04-11T15:59:21.003Z</time></trkpt><trkpt lat="43.19954245850218" lon="11.604358632978792"><ele>313.0</ele><time>2026-04-11T15:59:24.003Z</time></trkpt><trkpt lat="43.19960273497726" lon="11.604417343606231"><ele>313.0</ele><time>2026-04-11T15:59:27.003Z</time></trkpt><trkpt lat="43.199668984155316" lon="11.604473612044272"><ele>314.0</ele><time>2026-04-11T15:59:30.003Z</time></trkpt><trkpt lat="43.199739182264764" lon="11.60451059310896"><ele>315.0</ele><time>2026-04-11T15:59:33.003Z</time></trkpt><trkpt lat="43.19980852606267" lon="11.604550522735314"><ele>316.0</ele><time>2026-04-11T15:59:36Z</time></trkpt><trkpt lat="43.199895229291855" lon="11.604584683855158"><ele>317.0</ele><time>2026-04-11T15:59:39Z</time></trkpt><trkpt lat="43.199978698233316" lon="11.604603765163185"><ele>318.0</ele><time>2026-04-11T15:59:42Z</time></trkpt><trkpt lat="43.20006746185665" lon="11.604608682391357"><ele>319.0</ele><time>2026-04-11T15:59:45Z</time></trkpt><trkpt lat="43.20015981881144" lon="11.60459944783422"><ele>319.0</ele><time>2026-04-11T15:59:48Z</time></trkpt><trkpt lat="43.20022544333814" lon="11.604574661085616"><ele>319.0</ele><time>2026-04-11T15:59:50Z</time></trkpt><trkpt lat="43.20031242791004" lon="11.604530971947923"><ele>319.0</ele><time>2026-04-11T15:59:53Z</time></trkpt><trkpt lat="43.20036550022282" lon="11.604483261509614"><ele>319.0</ele><time>2026-04-11T15:59:55Z</time></trkpt><trkpt lat="43.200406877141596" lon="11.604399870936426"><ele>319.0</ele><time>2026-04-11T15:59:57Z</time></trkpt><trkpt lat="43.20045529328822" lon="11.604299415326128"><ele>319.0</ele><time>2026-04-11T15:59:59Z</time></trkpt><trkpt lat="43.20046574404889" lon="11.60416388287223"><ele>319.16666666666663</ele><time>2026-04-11T16:00:01Z</time></trkpt><trkpt lat="43.20042107030008" lon="11.604013108105738"><ele>319.3333333333333</ele><time>2026-04-11T16:00:03Z</time></trkpt><trkpt lat="43.20037689609345" lon="11.603946631664996"><ele>319.5</ele><time>2026-04-11T16:00:04Z</time></trkpt><trkpt lat="43.20032807410288" lon="11.603883002068475"><ele>319.6666666666667</ele><time>2026-04-11T16:00:05Z</time></trkpt><trkpt lat="43.20028122023475" lon="11.60381685733212"><ele>319.83333333333337</ele><time>2026-04-11T16:00:06Z</time></trkpt><trkpt lat="43.20023573203361" lon="11.603740623640729"><ele>320.0</ele><time>2026-04-11T16:00:07Z</time></trkpt><trkpt lat="43.20020312651451" lon="11.603643544635517"><ele>319.0</ele><time>2026-04-11T16:00:08.001Z</time></trkpt><trkpt lat="43.2001854147252" lon="11.603536176728436"><ele>318.0</ele><time>2026-04-11T16:00:09.001Z</time></trkpt><trkpt lat="43.20017428293145" lon="11.603422550942957"><ele>317.0</ele><time>2026-04-11T16:00:10.001Z</time></trkpt><trkpt lat="43.20015924812594" lon="11.60330505730417"><ele>316.0</ele><time>2026-04-11T16:00:11.001Z</time></trkpt><trkpt lat="43.2001394040077" lon="11.603188425342058"><ele>315.0</ele><time>2026-04-11T16:00:12.001Z</time></trkpt><trkpt lat="43.200118826737416" lon="11.60307202026524"><ele>314.0</ele><time>2026-04-11T16:00:13.001Z</time></trkpt><trkpt lat="43.20010254749752" lon="11.602952887643278"><ele>312.8</ele><time>2026-04-11T16:00:14.001Z</time></trkpt><trkpt lat="43.2001043228317" lon="11.602823784012077"><ele>311.59999999999997</ele><time>2026-04-11T16:00:15.001Z</time></trkpt><trkpt lat="43.20011470416775" lon="11.602691434101184"><ele>310.4</ele><time>2026-04-11T16:00:16.001Z</time></trkpt><trkpt lat="43.20013007892917" lon="11.602548337147937"><ele>309.2</ele><time>2026-04-11T16:00:17.001Z</time></trkpt><trkpt lat="43.20014160621914" lon="11.602407612096696"><ele>308.0</ele><time>2026-04-11T16:00:18.001Z</time></trkpt><trkpt lat="43.20016228922336" lon="11.602275411722395"><ele>308.0</ele><time>2026-04-11T16:00:19.001Z</time></trkpt><trkpt lat="43.200209468366644" lon="11.602159126372955"><ele>308.0</ele><time>2026-04-11T16:00:20.001Z</time></trkpt><trkpt lat="43.20028563346211" lon="11.602057768875566"><ele>308.0</ele><time>2026-04-11T16:00:21.001Z</time></trkpt><trkpt lat="43.20037225207092" lon="11.601973698964585"><ele>308.0</ele><time>2026-04-11T16:00:22.001Z</time></trkpt><trkpt lat="43.20046419299504" lon="11.601899547538194"><ele>308.0</ele><time>2026-04-11T16:00:23.001Z</time></trkpt><trkpt lat="43.20055935591049" lon="11.601820683203552"><ele>308.2</ele><time>2026-04-11T16:00:24.001Z</time></trkpt><trkpt lat="43.20064638512534" lon="11.601720197168202"><ele>308.4</ele><time>2026-04-11T16:00:25.001Z</time></trkpt><trkpt lat="43.200732584624916" lon="11.601604553133468"><ele>308.59999999999997</ele><time>2026-04-11T16:00:26.001Z</time></trkpt><trkpt lat="43.200819471013524" lon="11.601544157199656"><ele>308.8</ele><time>2026-04-11T16:00:27.001Z</time></trkpt><trkpt lat="43.200928088723316" lon="11.601486214109023"><ele>309.0</ele><time>2026-04-11T16:00:28.001Z</time></trkpt><trkpt lat="43.201035924038244" lon="11.6014334531362"><ele>309.0</ele><time>2026-04-11T16:00:29.001Z</time></trkpt><trkpt lat="43.201142249025075" lon="11.601389761244734"><ele>309.0</ele><time>2026-04-11T16:00:30.001Z</time></trkpt><trkpt lat="43.201254027962364" lon="11.60134295739367"><ele>309.0</ele><time>2026-04-11T16:00:31.001Z</time></trkpt><trkpt lat="43.201356293197186" lon="11.60127007127695"><ele>309.0</ele><time>2026-04-11T16:00:32.001Z</time></trkpt><trkpt lat="43.20144585943811" lon="11.601187082783863"><ele>308.2</ele><time>2026-04-11T16:00:33.001Z</time></trkpt><trkpt lat="43.201535328468935" lon="11.60111942377803"><ele>307.4</ele><time>2026-04-11T16:00:34.001Z</time></trkpt><trkpt lat="43.20162213491211" lon="11.601064248770696"><ele>306.6</ele><time>2026-04-11T16:00:35.001Z</time></trkpt><trkpt lat="43.20170849535719" lon="11.60101900875723"><ele>305.8</ele><time>2026-04-11T16:00:36.001Z</time></trkpt><trkpt lat="43.201790863346254" lon="11.600983707280372"><ele>305.0</ele><time>2026-04-11T16:00:37.001Z</time></trkpt><trkpt lat="43.20187075788576" lon="11.600957160817341"><ele>305.0</ele><time>2026-04-11T16:00:38.002Z</time></trkpt><trkpt lat="43.201948639811164" lon="11.600929884472402"><ele>305.0</ele><time>2026-04-11T16:00:39.002Z</time></trkpt><trkpt lat="43.20202107875645" lon="11.600913919678147"><ele>305.0</ele><time>2026-04-11T16:00:40.002Z</time></trkpt><trkpt lat="43.20209150796704" lon="11.600889107234057"><ele>305.0</ele><time>2026-04-11T16:00:41.002Z</time></trkpt><trkpt lat="43.202161158054686" lon="11.600862955560562"><ele>305.0</ele><time>2026-04-11T16:00:42.002Z</time></trkpt><trkpt lat="43.202224481210074" lon="11.600837779142754"><ele>305.0</ele><time>2026-04-11T16:00:43.002Z</time></trkpt><trkpt lat="43.20234713366027" lon="11.600833881193806"><ele>306.4</ele><time>2026-04-11T16:00:45.002Z</time></trkpt><trkpt lat="43.20246104049879" lon="11.60083074551866"><ele>307.8</ele><time>2026-04-11T16:00:47.002Z</time></trkpt><trkpt lat="43.20255765047358" lon="11.600826358906728"><ele>309.2</ele><time>2026-04-11T16:00:49.002Z</time></trkpt><trkpt lat="43.202651217562845" lon="11.600810337893222"><ele>310.6</ele><time>2026-04-11T16:00:51.002Z</time></trkpt><trkpt lat="43.20272553449172" lon="11.600757728586922"><ele>312.0</ele><time>2026-04-11T16:00:53.002Z</time></trkpt><trkpt lat="43.20280538123185" lon="11.600733219073723"><ele>312.0</ele><time>2026-04-11T16:00:55.002Z</time></trkpt><trkpt lat="43.20288777262852" lon="11.600767325376294"><ele>312.0</ele><time>2026-04-11T16:00:57.002Z</time></trkpt><trkpt lat="43.20296015526455" lon="11.60083098546265"><ele>312.0</ele><time>2026-04-11T16:00:59.002Z</time></trkpt><trkpt lat="43.20303208288139" lon="11.600883498090647"><ele>312.0</ele><time>2026-04-11T16:01:01.002Z</time></trkpt><trkpt lat="43.20310258739181" lon="11.600933427168952"><ele>312.0</ele><time>2026-04-11T16:01:03.002Z</time></trkpt><trkpt lat="43.2031885277554" lon="11.600931683219493"><ele>312.0</ele><time>2026-04-11T16:01:06.002Z</time></trkpt><trkpt lat="43.20327265995672" lon="11.600927424948889"><ele>313.0</ele><time>2026-04-11T16:01:09.002Z</time></trkpt><trkpt lat="43.203337422863555" lon="11.600944251754346"><ele>314.0</ele><time>2026-04-11T16:01:11.003Z</time></trkpt><trkpt lat="43.203422956636075" lon="11.600934384483358"><ele>315.0</ele><time>2026-04-11T16:01:14.003Z</time></trkpt><trkpt lat="43.20351240819448" lon="11.600934981340194"><ele>316.0</ele><time>2026-04-11T16:01:17.003Z</time></trkpt><trkpt lat="43.203600457851195" lon="11.600923907405805"><ele>317.0</ele><time>2026-04-11T16:01:20.003Z</time></trkpt><trkpt lat="43.20366770265177" lon="11.600912170995384"><ele>318.0</ele><time>2026-04-11T16:01:22.003Z</time></trkpt><trkpt lat="43.203722214658164" lon="11.600868600998275"><ele>318.0</ele><time>2026-04-11T16:01:24.003Z</time></trkpt><trkpt lat="43.20378446388878" lon="11.600828921478376"><ele>318.0</ele><time>2026-04-11T16:01:26.003Z</time></trkpt><trkpt lat="43.20383512432191" lon="11.600746070266672"><ele>318.0</ele><time>2026-04-11T16:01:28.003Z</time></trkpt><trkpt lat="43.20386652632715" lon="11.600655457128097"><ele>318.0</ele><time>2026-04-11T16:01:30.003Z</time></trkpt><trkpt lat="43.203862811972556" lon="11.600547736370025"><ele>318.0</ele><time>2026-04-11T16:01:32.003Z</time></trkpt><trkpt lat="43.20381839240245" lon="11.600441694240919"><ele>318.0</ele><time>2026-04-11T16:01:34.003Z</time></trkpt><trkpt lat="43.20377749452161" lon="11.600328184426852"><ele>317.2</ele><time>2026-04-11T16:01:36.003Z</time></trkpt><trkpt lat="43.20371769154314" lon="11.600209837870192"><ele>316.4</ele><time>2026-04-11T16:01:38.003Z</time></trkpt><trkpt lat="43.203655892547566" lon="11.600088586139037"><ele>315.59999999999997</ele><time>2026-04-11T16:01:40.003Z</time></trkpt><trkpt lat="43.20360674738981" lon="11.599958685236926"><ele>314.8</ele><time>2026-04-11T16:01:42Z</time></trkpt><trkpt lat="43.203551618059194" lon="11.599821418218255"><ele>314.0</ele><time>2026-04-11T16:01:44Z</time></trkpt><trkpt lat="43.20349885835498" lon="11.599690667451604"><ele>314.0</ele><time>2026-04-11T16:01:46Z</time></trkpt><trkpt lat="43.203465241495515" lon="11.59955084597229"><ele>314.0</ele><time>2026-04-11T16:01:48Z</time></trkpt><trkpt lat="43.2034412575596" lon="11.599390818827944"><ele>314.0</ele><time>2026-04-11T16:01:50Z</time></trkpt><trkpt lat="43.20341871583855" lon="11.599301507752664"><ele>314.0</ele><time>2026-04-11T16:01:51Z</time></trkpt><trkpt lat="43.203366836356835" lon="11.599138663563743"><ele>314.0</ele><time>2026-04-11T16:01:53Z</time></trkpt><trkpt lat="43.203325468679154" lon="11.599064588560093"><ele>313.99999999999994</ele><time>2026-04-11T16:01:54Z</time></trkpt><trkpt lat="43.20328711913954" lon="11.598986833934196"><ele>314.0</ele><time>2026-04-11T16:01:55Z</time></trkpt><trkpt lat="43.20323138121432" lon="11.598917072257048"><ele>314.0</ele><time>2026-04-11T16:01:56Z</time></trkpt><trkpt lat="43.20316752634693" lon="11.598869338018499"><ele>314.0</ele><time>2026-04-11T16:01:57Z</time></trkpt><trkpt lat="43.20309778651031" lon="11.598824731435394"><ele>314.0</ele><time>2026-04-11T16:01:58Z</time></trkpt><trkpt lat="43.20302483988293" lon="11.59879351599129"><ele>313.99999999999994</ele><time>2026-04-11T16:01:59Z</time></trkpt><trkpt lat="43.20295097940586" lon="11.598774011088038"><ele>314.0</ele><time>2026-04-11T16:02:00Z</time></trkpt><trkpt lat="43.20287627171585" lon="11.598759051763361"><ele>314.0</ele><time>2026-04-11T16:02:01Z</time></trkpt><trkpt lat="43.20280641379987" lon="11.598724410916573"><ele>314.0</ele><time>2026-04-11T16:02:02Z</time></trkpt><trkpt lat="43.20275084377017" lon="11.59867377211177"><ele>314.0</ele><time>2026-04-11T16:02:03Z</time></trkpt><trkpt lat="43.2027163905782" lon="11.59859391843235"><ele>314.0</ele><time>2026-04-11T16:02:04Z</time></trkpt><trkpt lat="43.20269433350796" lon="11.598507528751524"><ele>314.0</ele><time>2026-04-11T16:02:05Z</time></trkpt><trkpt lat="43.202641818319904" lon="11.598346099822708"><ele>314.0</ele><time>2026-04-11T16:02:07Z</time></trkpt><trkpt lat="43.20260748733159" lon="11.598267876507686"><ele>314.0</ele><time>2026-04-11T16:02:08Z</time></trkpt><trkpt lat="43.202518797589136" lon="11.59814024120057"><ele>314.0</ele><time>2026-04-11T16:02:10Z</time></trkpt><trkpt lat="43.202467837457874" lon="11.598075461886884"><ele>314.0</ele><time>2026-04-11T16:02:11Z</time></trkpt><trkpt lat="43.202421266675714" lon="11.598002559893521"><ele>314.0</ele><time>2026-04-11T16:02:12Z</time></trkpt><trkpt lat="43.20237702124608" lon="11.597933362069552"><ele>314.0</ele><time>2026-04-11T16:02:13.001Z</time></trkpt><trkpt lat="43.20233519423268" lon="11.597861999565742"><ele>314.0</ele><time>2026-04-11T16:02:14.001Z</time></trkpt><trkpt lat="43.20229530434709" lon="11.597787263027412"><ele>315.5</ele><time>2026-04-11T16:02:15.001Z</time></trkpt><trkpt lat="43.202260594690586" lon="11.597709915004527"><ele>317.0</ele><time>2026-04-11T16:02:16.001Z</time></trkpt><trkpt lat="43.202240176375064" lon="11.597624294697919"><ele>318.5</ele><time>2026-04-11T16:02:17.001Z</time></trkpt><trkpt lat="43.20217709961453" lon="11.597472835530986"><ele>320.0</ele><time>2026-04-11T16:02:19.001Z</time></trkpt><trkpt lat="43.20215053604785" lon="11.59739294148609"><ele>321.5</ele><time>2026-04-11T16:02:20.001Z</time></trkpt><trkpt lat="43.20212117350961" lon="11.597313011250458"><ele>323.0</ele><time>2026-04-11T16:02:21.001Z</time></trkpt><trkpt lat="43.2020953957614" lon="11.597229606199976"><ele>323.0</ele><time>2026-04-11T16:02:22.001Z</time></trkpt><trkpt lat="43.20206826905365" lon="11.597147265668015"><ele>323.0</ele><time>2026-04-11T16:02:23.001Z</time></trkpt><trkpt lat="43.20200874613733" lon="11.59699458300749"><ele>323.0</ele><time>2026-04-11T16:02:25.001Z</time></trkpt><trkpt lat="43.20194461632739" lon="11.596846298572428"><ele>323.0</ele><time>2026-04-11T16:02:27.001Z</time></trkpt><trkpt lat="43.20187434453006" lon="11.59671376242461"><ele>323.0</ele><time>2026-04-11T16:02:29.001Z</time></trkpt><trkpt lat="43.201838260006106" lon="11.596639012754077"><ele>322.5</ele><time>2026-04-11T16:02:30.001Z</time></trkpt><trkpt lat="43.20180370048951" lon="11.596555859486386"><ele>322.0</ele><time>2026-04-11T16:02:31.001Z</time></trkpt><trkpt lat="43.20178023787061" lon="11.596469785976721"><ele>321.5</ele><time>2026-04-11T16:02:32.001Z</time></trkpt><trkpt lat="43.20176150638411" lon="11.5963844208077"><ele>321.0</ele><time>2026-04-11T16:02:33.001Z</time></trkpt><trkpt lat="43.201745394574914" lon="11.596299685753651"><ele>320.5</ele><time>2026-04-11T16:02:34.001Z</time></trkpt><trkpt lat="43.2017249480713" lon="11.596135295361732"><ele>320.0</ele><time>2026-04-11T16:02:36.001Z</time></trkpt><trkpt lat="43.20170633412034" lon="11.595972116336736"><ele>318.75</ele><time>2026-04-11T16:02:38.001Z</time></trkpt><trkpt lat="43.20167662537912" lon="11.595809739374557"><ele>317.5</ele><time>2026-04-11T16:02:40.001Z</time></trkpt><trkpt lat="43.20163173210415" lon="11.595659518092285"><ele>316.25</ele><time>2026-04-11T16:02:42.001Z</time></trkpt><trkpt lat="43.201581573692586" lon="11.595507560521343"><ele>315.0</ele><time>2026-04-11T16:02:44.001Z</time></trkpt><trkpt lat="43.20151652128434" lon="11.595371447801611"><ele>317.4</ele><time>2026-04-11T16:02:46.002Z</time></trkpt><trkpt lat="43.20147503109236" lon="11.595234770586995"><ele>319.8</ele><time>2026-04-11T16:02:48.002Z</time></trkpt><trkpt lat="43.20145128824042" lon="11.595134033163859"><ele>322.20000000000005</ele><time>2026-04-11T16:02:49.002Z</time></trkpt><trkpt lat="43.20139523433339" lon="11.595002059482551"><ele>324.6</ele><time>2026-04-11T16:02:51.002Z</time></trkpt><trkpt lat="43.20135626331428" lon="11.594852911764784"><ele>327.0</ele><time>2026-04-11T16:02:53.002Z</time></trkpt><trkpt lat="43.20134531580647" lon="11.594765194644447"><ele>327.0</ele><time>2026-04-11T16:02:54.002Z</time></trkpt><trkpt lat="43.201307570184646" lon="11.594602446365741"><ele>327.0</ele><time>2026-04-11T16:02:56.002Z</time></trkpt><trkpt lat="43.20127504011546" lon="11.594436756204354"><ele>327.0</ele><time>2026-04-11T16:02:58.002Z</time></trkpt><trkpt lat="43.20124128814833" lon="11.594281050373834"><ele>327.0</ele><time>2026-04-11T16:03:00.002Z</time></trkpt><trkpt lat="43.20122591284436" lon="11.594189317679767"><ele>327.0</ele><time>2026-04-11T16:03:01.002Z</time></trkpt><trkpt lat="43.201197762283904" lon="11.594031946231915"><ele>325.5</ele><time>2026-04-11T16:03:03.002Z</time></trkpt><trkpt lat="43.20117330091788" lon="11.593874854841214"><ele>324.0</ele><time>2026-04-11T16:03:05.002Z</time></trkpt><trkpt lat="43.2011445745144" lon="11.593720966908187"><ele>322.5</ele><time>2026-04-11T16:03:07.002Z</time></trkpt><trkpt lat="43.20111930753562" lon="11.593577209476123"><ele>321.0</ele><time>2026-04-11T16:03:09.002Z</time></trkpt><trkpt lat="43.20107137438718" lon="11.593437558795573"><ele>319.75</ele><time>2026-04-11T16:03:11.002Z</time></trkpt><trkpt lat="43.20100786008893" lon="11.5933012316742"><ele>318.5</ele><time>2026-04-11T16:03:13.002Z</time></trkpt><trkpt lat="43.200936889599284" lon="11.593166153335511"><ele>317.25</ele><time>2026-04-11T16:03:15.002Z</time></trkpt><trkpt lat="43.200873525494686" lon="11.593027792658262"><ele>316.0</ele><time>2026-04-11T16:03:17.002Z</time></trkpt><trkpt lat="43.20081991883862" lon="11.592879628429811"><ele>315.5</ele><time>2026-04-11T16:03:19.003Z</time></trkpt><trkpt lat="43.200776274313704" lon="11.592734586431058"><ele>315.0</ele><time>2026-04-11T16:03:21.003Z</time></trkpt><trkpt lat="43.20073714828074" lon="11.592589018551694"><ele>314.5</ele><time>2026-04-11T16:03:23.003Z</time></trkpt><trkpt lat="43.20069980440455" lon="11.592440598147485"><ele>314.0</ele><time>2026-04-11T16:03:25.003Z</time></trkpt><trkpt lat="43.200667255962095" lon="11.592282530275387"><ele>314.4</ele><time>2026-04-11T16:03:27.003Z</time></trkpt><trkpt lat="43.20064129128334" lon="11.59212296023622"><ele>314.79999999999995</ele><time>2026-04-11T16:03:29.003Z</time></trkpt><trkpt lat="43.20061588271587" lon="11.591958965036705"><ele>315.20000000000005</ele><time>2026-04-11T16:03:31.003Z</time></trkpt><trkpt lat="43.20059769541669" lon="11.591789928225493"><ele>315.6</ele><time>2026-04-11T16:03:33.003Z</time></trkpt><trkpt lat="43.200585014934504" lon="11.591700540141021"><ele>316.0</ele><time>2026-04-11T16:03:34.003Z</time></trkpt><trkpt lat="43.20057453511303" lon="11.591612868506665"><ele>316.0</ele><time>2026-04-11T16:03:35.003Z</time></trkpt><trkpt lat="43.20057062989268" lon="11.591436544685907"><ele>316.0</ele><time>2026-04-11T16:03:37.003Z</time></trkpt><trkpt lat="43.20057584711403" lon="11.591269975626927"><ele>316.0</ele><time>2026-04-11T16:03:39.003Z</time></trkpt><trkpt lat="43.20058599869133" lon="11.591105233887786"><ele>316.0</ele><time>2026-04-11T16:03:41.003Z</time></trkpt><trkpt lat="43.20059381493697" lon="11.590944325308199"><ele>317.0</ele><time>2026-04-11T16:03:43.003Z</time></trkpt><trkpt lat="43.20058298670492" lon="11.59081511573265"><ele>318.0</ele><time>2026-04-11T16:03:45.003Z</time></trkpt><trkpt lat="43.2005591433731" lon="11.590693837497394"><ele>319.0</ele><time>2026-04-11T16:03:47.003Z</time></trkpt><trkpt lat="43.20051822155842" lon="11.590594675544082"><ele>320.0</ele><time>2026-04-11T16:03:49Z</time></trkpt><trkpt lat="43.200457307292915" lon="11.590511087173887"><ele>321.0</ele><time>2026-04-11T16:03:51Z</time></trkpt><trkpt lat="43.2003913152174" lon="11.59043745594504"><ele>322.0</ele><time>2026-04-11T16:03:53Z</time></trkpt><trkpt lat="43.200319874386494" lon="11.590376763846336"><ele>322.14285714285717</ele><time>2026-04-11T16:03:55Z</time></trkpt><trkpt lat="43.20025060592306" lon="11.590332666272221"><ele>322.2857142857143</ele><time>2026-04-11T16:03:57Z</time></trkpt><trkpt lat="43.20018094242346" lon="11.590287668452717"><ele>322.42857142857144</ele><time>2026-04-11T16:03:59Z</time></trkpt><trkpt lat="43.20011168776735" lon="11.590247944047436"><ele>322.57142857142856</ele><time>2026-04-11T16:04:01Z</time></trkpt><trkpt lat="43.20004373409916" lon="11.59021445306985"><ele>322.7142857142857</ele><time>2026-04-11T16:04:03Z</time></trkpt><trkpt lat="43.199977846926856" lon="11.59017786787195"><ele>322.8571428571429</ele><time>2026-04-11T16:04:05Z</time></trkpt><trkpt lat="43.1999080523356" lon="11.590145843469495"><ele>323.0</ele><time>2026-04-11T16:04:07Z</time></trkpt><trkpt lat="43.19984575744672" lon="11.5901064875253"><ele>324.28571428571433</ele><time>2026-04-11T16:04:09Z</time></trkpt><trkpt lat="43.19978348673708" lon="11.590068907590618"><ele>325.57142857142856</ele><time>2026-04-11T16:04:11Z</time></trkpt><trkpt lat="43.19972230627836" lon="11.590022352324898"><ele>326.8571428571429</ele><time>2026-04-11T16:04:13Z</time></trkpt><trkpt lat="43.19966316339819" lon="11.589965678977286"><ele>328.14285714285717</ele><time>2026-04-11T16:04:15Z</time></trkpt><trkpt lat="43.19961062530959" lon="11.589904369874835"><ele>329.42857142857144</ele><time>2026-04-11T16:04:17Z</time></trkpt><trkpt lat="43.19955859531417" lon="11.589855000532665"><ele>330.7142857142857</ele><time>2026-04-11T16:04:19.001Z</time></trkpt><trkpt lat="43.19951137554055" lon="11.589761781246764"><ele>332.0</ele><time>2026-04-11T16:04:21.001Z</time></trkpt><trkpt lat="43.19946818282133" lon="11.58968200224596"><ele>332.0</ele><time>2026-04-11T16:04:23.001Z</time></trkpt><trkpt lat="43.19942490246385" lon="11.589596283525426"><ele>332.0</ele><time>2026-04-11T16:04:25.001Z</time></trkpt><trkpt lat="43.199385298109405" lon="11.589512732987592"><ele>332.0</ele><time>2026-04-11T16:04:27.001Z</time></trkpt><trkpt lat="43.199338825934674" lon="11.589425858381777"><ele>332.0</ele><time>2026-04-11T16:04:29.001Z</time></trkpt><trkpt lat="43.199295607745796" lon="11.58935091028523"><ele>332.0</ele><time>2026-04-11T16:04:31.001Z</time></trkpt><trkpt lat="43.19925089804812" lon="11.589275494615174"><ele>332.0</ele><time>2026-04-11T16:04:33.001Z</time></trkpt><trkpt lat="43.19920439897446" lon="11.58919918496073"><ele>332.0</ele><time>2026-04-11T16:04:35.001Z</time></trkpt><trkpt lat="43.19916181407034" lon="11.589124294581788"><ele>331.85714285714283</ele><time>2026-04-11T16:04:37.001Z</time></trkpt><trkpt lat="43.19911284823564" lon="11.589051610869705"><ele>331.7142857142857</ele><time>2026-04-11T16:04:39.001Z</time></trkpt><trkpt lat="43.19907600802261" lon="11.588967467680613"><ele>331.57142857142856</ele><time>2026-04-11T16:04:41.001Z</time></trkpt><trkpt lat="43.199034313834304" lon="11.588879784010325"><ele>331.42857142857144</ele><time>2026-04-11T16:04:43.001Z</time></trkpt><trkpt lat="43.198982325037335" lon="11.588806587339043"><ele>331.2857142857143</ele><time>2026-04-11T16:04:45.001Z</time></trkpt><trkpt lat="43.19893640348208" lon="11.588719367140929"><ele>331.14285714285717</ele><time>2026-04-11T16:04:47.001Z</time></trkpt><trkpt lat="43.19889168112577" lon="11.58865138355334"><ele>331.0</ele><time>2026-04-11T16:04:49.001Z</time></trkpt><trkpt lat="43.19884207874587" lon="11.58857172233932"><ele>331.66666666666663</ele><time>2026-04-11T16:04:51.001Z</time></trkpt><trkpt lat="43.198794325137754" lon="11.588494659227347"><ele>332.3333333333333</ele><time>2026-04-11T16:04:53.002Z</time></trkpt><trkpt lat="43.19874403661437" lon="11.588412852665257"><ele>333.0</ele><time>2026-04-11T16:04:55.002Z</time></trkpt><trkpt lat="43.19869576665213" lon="11.588341376446845"><ele>333.6666666666667</ele><time>2026-04-11T16:04:57.002Z</time></trkpt><trkpt lat="43.19864258495928" lon="11.58825888271496"><ele>334.33333333333337</ele><time>2026-04-11T16:04:59.002Z</time></trkpt><trkpt lat="43.19859142404301" lon="11.588184518927982"><ele>335.0</ele><time>2026-04-11T16:05:01.002Z</time></trkpt><trkpt lat="43.198534072690144" lon="11.588116886643022"><ele>335.0</ele><time>2026-04-11T16:05:03.002Z</time></trkpt><trkpt lat="43.198475045718624" lon="11.588043727403491"><ele>335.0</ele><time>2026-04-11T16:05:05.002Z</time></trkpt><trkpt lat="43.19841863692347" lon="11.587960750943125"><ele>335.0</ele><time>2026-04-11T16:05:07.002Z</time></trkpt><trkpt lat="43.19835615369825" lon="11.587857919563167"><ele>335.0</ele><time>2026-04-11T16:05:09.002Z</time></trkpt><trkpt lat="43.19829472555166" lon="11.587791691651974"><ele>335.0</ele><time>2026-04-11T16:05:11.002Z</time></trkpt><trkpt lat="43.19822703173321" lon="11.587716596804098"><ele>335.0</ele><time>2026-04-11T16:05:13.002Z</time></trkpt><trkpt lat="43.19816184474749" lon="11.587642120276577"><ele>334.2</ele><time>2026-04-11T16:05:15.002Z</time></trkpt><trkpt lat="43.19809791681861" lon="11.587555412159718"><ele>333.4</ele><time>2026-04-11T16:05:17.002Z</time></trkpt><trkpt lat="43.19802929236101" lon="11.587472099251723"><ele>332.6</ele><time>2026-04-11T16:05:19.002Z</time></trkpt><trkpt lat="43.197958364274115" lon="11.587373511155329"><ele>331.8</ele><time>2026-04-11T16:05:21.002Z</time></trkpt><trkpt lat="43.19788334856678" lon="11.587286698561067"><ele>331.0</ele><time>2026-04-11T16:05:23.002Z</time></trkpt><trkpt lat="43.197806692722445" lon="11.587181792782442"><ele>331.0</ele><time>2026-04-11T16:05:25.002Z</time></trkpt><trkpt lat="43.19772611797296" lon="11.587079910924484"><ele>331.0</ele><time>2026-04-11T16:05:27.003Z</time></trkpt><trkpt lat="43.19764582237033" lon="11.586978511760632"><ele>331.0</ele><time>2026-04-11T16:05:29.003Z</time></trkpt><trkpt lat="43.19756079217881" lon="11.586871625296409"><ele>331.0</ele><time>2026-04-11T16:05:31.003Z</time></trkpt><trkpt lat="43.19748118277512" lon="11.586767284809103"><ele>331.0</ele><time>2026-04-11T16:05:33.003Z</time></trkpt><trkpt lat="43.19740114152289" lon="11.586662450454778"><ele>330.0</ele><time>2026-04-11T16:05:35.003Z</time></trkpt><trkpt lat="43.197314261598" lon="11.586553193760672"><ele>329.0</ele><time>2026-04-11T16:05:37.003Z</time></trkpt><trkpt lat="43.19723034416213" lon="11.58644715891721"><ele>328.0</ele><time>2026-04-11T16:05:39.003Z</time></trkpt><trkpt lat="43.19714625335809" lon="11.586339448341546"><ele>327.0</ele><time>2026-04-11T16:05:41.003Z</time></trkpt><trkpt lat="43.19706017871427" lon="11.586225587435308"><ele>327.75</ele><time>2026-04-11T16:05:43.003Z</time></trkpt><trkpt lat="43.196975479241324" lon="11.586122062502724"><ele>328.5</ele><time>2026-04-11T16:05:45.003Z</time></trkpt><trkpt lat="43.196887695317955" lon="11.586009015010758"><ele>329.25</ele><time>2026-04-11T16:05:47.003Z</time></trkpt><trkpt lat="43.196803994825494" lon="11.585902013518968"><ele>330.0</ele><time>2026-04-11T16:05:49.003Z</time></trkpt><trkpt lat="43.19671554793337" lon="11.585788185144061"><ele>330.0</ele><time>2026-04-11T16:05:51.003Z</time></trkpt><trkpt lat="43.196625893076245" lon="11.585670297053023"><ele>330.0</ele><time>2026-04-11T16:05:53.003Z</time></trkpt><trkpt lat="43.19653648879735" lon="11.585559011003948"><ele>330.0</ele><time>2026-04-11T16:05:55Z</time></trkpt><trkpt lat="43.19645888131205" lon="11.585450924361028"><ele>330.0</ele><time>2026-04-11T16:05:57Z</time></trkpt><trkpt lat="43.19637715254506" lon="11.585345645287438"><ele>329.4</ele><time>2026-04-11T16:05:59Z</time></trkpt><trkpt lat="43.19629114071297" lon="11.5852374269086"><ele>328.8</ele><time>2026-04-11T16:06:01Z</time></trkpt><trkpt lat="43.19621125633663" lon="11.585122325024093"><ele>328.20000000000005</ele><time>2026-04-11T16:06:03Z</time></trkpt><trkpt lat="43.19616954682256" lon="11.585057244167551"><ele>327.6</ele><time>2026-04-11T16:06:04Z</time></trkpt><trkpt lat="43.196085305061956" lon="11.584931975806393"><ele>327.0</ele><time>2026-04-11T16:06:06Z</time></trkpt><trkpt lat="43.19600470736704" lon="11.584800312204326"><ele>327.0</ele><time>2026-04-11T16:06:08Z</time></trkpt><trkpt lat="43.19595776898619" lon="11.584734738447855"><ele>327.0</ele><time>2026-04-11T16:06:09Z</time></trkpt><trkpt lat="43.195869442221316" lon="11.584605197298057"><ele>327.0</ele><time>2026-04-11T16:06:11Z</time></trkpt><trkpt lat="43.1958269080809" lon="11.584536235905224"><ele>327.0</ele><time>2026-04-11T16:06:12Z</time></trkpt><trkpt lat="43.195781944260254" lon="11.584464814475577"><ele>327.0</ele><time>2026-04-11T16:06:13Z</time></trkpt><trkpt lat="43.1957351352358" lon="11.58439802715087"><ele>327.0</ele><time>2026-04-11T16:06:14Z</time></trkpt><trkpt lat="43.195687651362384" lon="11.58432603029237"><ele>327.1428571428571</ele><time>2026-04-11T16:06:15Z</time></trkpt><trkpt lat="43.195642459236176" lon="11.584254929885315"><ele>327.2857142857143</ele><time>2026-04-11T16:06:16Z</time></trkpt><trkpt lat="43.195598076525584" lon="11.584185767726165"><ele>327.42857142857144</ele><time>2026-04-11T16:06:17Z</time></trkpt><trkpt lat="43.195551094093865" lon="11.584115501805101"><ele>327.57142857142856</ele><time>2026-04-11T16:06:18Z</time></trkpt><trkpt lat="43.19550532057247" lon="11.584045099508765"><ele>327.7142857142857</ele><time>2026-04-11T16:06:19Z</time></trkpt><trkpt lat="43.1954634700759" lon="11.583976132139433"><ele>327.85714285714283</ele><time>2026-04-11T16:06:20Z</time></trkpt><trkpt lat="43.195418436276576" lon="11.583907654583856"><ele>328.0</ele><time>2026-04-11T16:06:21Z</time></trkpt><trkpt lat="43.19537556284084" lon="11.58384175269453"><ele>327.99999999999994</ele><time>2026-04-11T16:06:22Z</time></trkpt><trkpt lat="43.195330467590196" lon="11.583779623305624"><ele>328.0</ele><time>2026-04-11T16:06:23Z</time></trkpt><trkpt lat="43.19528524014204" lon="11.583715594586225"><ele>328.0</ele><time>2026-04-11T16:06:24Z</time></trkpt><trkpt lat="43.19524126564294" lon="11.583648604959375"><ele>328.0</ele><time>2026-04-11T16:06:25.001Z</time></trkpt><trkpt lat="43.195199412881124" lon="11.583581385082278"><ele>328.0</ele><time>2026-04-11T16:06:26.001Z</time></trkpt><trkpt lat="43.195156223987595" lon="11.583513226487735"><ele>327.99999999999994</ele><time>2026-04-11T16:06:27.001Z</time></trkpt><trkpt lat="43.19511245726949" lon="11.583449380311523"><ele>328.0</ele><time>2026-04-11T16:06:28.001Z</time></trkpt><trkpt lat="43.19503505419137" lon="11.583314354207143"><ele>328.79999999999995</ele><time>2026-04-11T16:06:30.001Z</time></trkpt><trkpt lat="43.194950096787856" lon="11.583185581634355"><ele>329.6</ele><time>2026-04-11T16:06:32.001Z</time></trkpt><trkpt lat="43.19490991435005" lon="11.583118979327955"><ele>330.4</ele><time>2026-04-11T16:06:33.001Z</time></trkpt><trkpt lat="43.194824098035966" lon="11.58298990081639"><ele>331.20000000000005</ele><time>2026-04-11T16:06:35.001Z</time></trkpt><trkpt lat="43.19473294483019" lon="11.582868686331274"><ele>332.0</ele><time>2026-04-11T16:06:37.001Z</time></trkpt><trkpt lat="43.19468317773795" lon="11.582811688796795"><ele>332.33333333333337</ele><time>2026-04-11T16:06:38.001Z</time></trkpt><trkpt lat="43.19457244736189" lon="11.582727551114434"><ele>332.6666666666667</ele><time>2026-04-11T16:06:40.001Z</time></trkpt><trkpt lat="43.194508754057374" lon="11.582710531220277"><ele>333.0</ele><time>2026-04-11T16:06:41.001Z</time></trkpt><trkpt lat="43.19438489021339" lon="11.582711700673265"><ele>333.3333333333333</ele><time>2026-04-11T16:06:43.001Z</time></trkpt><trkpt lat="43.19432139828075" lon="11.582723213379772"><ele>333.66666666666663</ele><time>2026-04-11T16:06:44.001Z</time></trkpt><trkpt lat="43.19425864498985" lon="11.582749769714207"><ele>334.0</ele><time>2026-04-11T16:06:45.001Z</time></trkpt><trkpt lat="43.19419983584692" lon="11.58279121463204"><ele>334.0</ele><time>2026-04-11T16:06:46.001Z</time></trkpt><trkpt lat="43.19414135731936" lon="11.582834938599486"><ele>334.0</ele><time>2026-04-11T16:06:47.001Z</time></trkpt><trkpt lat="43.19408740150051" lon="11.582888198222816"><ele>334.0</ele><time>2026-04-11T16:06:48.001Z</time></trkpt><trkpt lat="43.193993878480285" lon="11.582994283926716"><ele>334.0</ele><time>2026-04-11T16:06:50.001Z</time></trkpt><trkpt lat="43.19395338973624" lon="11.583064987835279"><ele>334.0</ele><time>2026-04-11T16:06:51.001Z</time></trkpt><trkpt lat="43.19391241753848" lon="11.583131236593836"><ele>334.0</ele><time>2026-04-11T16:06:52.001Z</time></trkpt><trkpt lat="43.1938362727253" lon="11.583261044105353"><ele>333.5</ele><time>2026-04-11T16:06:54.001Z</time></trkpt><trkpt lat="43.193762746305154" lon="11.58339027525202"><ele>333.0</ele><time>2026-04-11T16:06:56.001Z</time></trkpt><trkpt lat="43.1937013302696" lon="11.583526320042683"><ele>332.5</ele><time>2026-04-11T16:06:58.001Z</time></trkpt><trkpt lat="43.193629296995574" lon="11.583648435715245"><ele>332.0</ele><time>2026-04-11T16:07:00.002Z</time></trkpt><trkpt lat="43.19356004879447" lon="11.583772172760527"><ele>332.0</ele><time>2026-04-11T16:07:02.002Z</time></trkpt><trkpt lat="43.19350042952757" lon="11.583895217504507"><ele>332.0</ele><time>2026-04-11T16:07:04.002Z</time></trkpt><trkpt lat="43.19343724160455" lon="11.584020984029454"><ele>332.0</ele><time>2026-04-11T16:07:06.002Z</time></trkpt><trkpt lat="43.1933668352503" lon="11.584130859956772"><ele>332.0</ele><time>2026-04-11T16:07:08.002Z</time></trkpt><trkpt lat="43.193292464445584" lon="11.584240279555353"><ele>332.0</ele><time>2026-04-11T16:07:10.002Z</time></trkpt><trkpt lat="43.19323117884519" lon="11.584363326394156"><ele>332.0</ele><time>2026-04-11T16:07:12.002Z</time></trkpt><trkpt lat="43.193171034904246" lon="11.584474249715797"><ele>332.0</ele><time>2026-04-11T16:07:14.002Z</time></trkpt><trkpt lat="43.19310525897011" lon="11.584584120591035"><ele>332.0</ele><time>2026-04-11T16:07:16.002Z</time></trkpt><trkpt lat="43.19304087788574" lon="11.584695671038427"><ele>332.0</ele><time>2026-04-11T16:07:18.002Z</time></trkpt><trkpt lat="43.19298284549643" lon="11.584814313641951"><ele>332.0</ele><time>2026-04-11T16:07:20.002Z</time></trkpt><trkpt lat="43.19291775710748" lon="11.58492768764986"><ele>332.0</ele><time>2026-04-11T16:07:22.002Z</time></trkpt><trkpt lat="43.19284137908244" lon="11.585065306756059"><ele>332.0</ele><time>2026-04-11T16:07:24.002Z</time></trkpt><trkpt lat="43.19276891047253" lon="11.585181772705775"><ele>332.0</ele><time>2026-04-11T16:07:26.002Z</time></trkpt><trkpt lat="43.19269588965708" lon="11.585301857132"><ele>332.0</ele><time>2026-04-11T16:07:28.002Z</time></trkpt><trkpt lat="43.192630407697074" lon="11.585432406177334"><ele>333.5</ele><time>2026-04-11T16:07:30.002Z</time></trkpt><trkpt lat="43.19255773158947" lon="11.585557259842993"><ele>335.0</ele><time>2026-04-11T16:07:32.003Z</time></trkpt><trkpt lat="43.19249084905314" lon="11.585681037566811"><ele>336.5</ele><time>2026-04-11T16:07:34.003Z</time></trkpt><trkpt lat="43.192421744408186" lon="11.585809259628459"><ele>338.0</ele><time>2026-04-11T16:07:36.003Z</time></trkpt><trkpt lat="43.19235373033556" lon="11.585926733766229"><ele>338.4</ele><time>2026-04-11T16:07:38.003Z</time></trkpt><trkpt lat="43.192282936800886" lon="11.586053235970413"><ele>338.79999999999995</ele><time>2026-04-11T16:07:40.003Z</time></trkpt><trkpt lat="43.192216381347116" lon="11.586175141429896"><ele>339.2</ele><time>2026-04-11T16:07:42.003Z</time></trkpt><trkpt lat="43.192176954425875" lon="11.586244771376476"><ele>339.6</ele><time>2026-04-11T16:07:43.003Z</time></trkpt><trkpt lat="43.19209892602568" lon="11.586348596386362"><ele>340.0</ele><time>2026-04-11T16:07:45.003Z</time></trkpt><trkpt lat="43.192009724588836" lon="11.586447144714173"><ele>340.0</ele><time>2026-04-11T16:07:47.003Z</time></trkpt><trkpt lat="43.19191112245921" lon="11.586529522460884"><ele>340.0</ele><time>2026-04-11T16:07:49.003Z</time></trkpt><trkpt lat="43.19180770736919" lon="11.586577239677021"><ele>340.0</ele><time>2026-04-11T16:07:51.003Z</time></trkpt><trkpt lat="43.19169838846452" lon="11.586612407146886"><ele>340.0</ele><time>2026-04-11T16:07:53.003Z</time></trkpt><trkpt lat="43.19159464724341" lon="11.586645738825718"><ele>340.0</ele><time>2026-04-11T16:07:55.003Z</time></trkpt><trkpt lat="43.191482222826544" lon="11.58666134527902"><ele>340.0</ele><time>2026-04-11T16:07:57.003Z</time></trkpt><trkpt lat="43.19136941476945" lon="11.586664435286359"><ele>340.0</ele><time>2026-04-11T16:07:59.003Z</time></trkpt><trkpt lat="43.19125399142991" lon="11.586658716988433"><ele>340.0</ele><time>2026-04-11T16:08:01Z</time></trkpt><trkpt lat="43.191140166350706" lon="11.58663501159147"><ele>340.0</ele><time>2026-04-11T16:08:03Z</time></trkpt><trkpt lat="43.19102912959862" lon="11.58660699125793"><ele>340.0</ele><time>2026-04-11T16:08:05Z</time></trkpt><trkpt lat="43.19091591828352" lon="11.586561844486743"><ele>340.0</ele><time>2026-04-11T16:08:07Z</time></trkpt><trkpt lat="43.19080471327918" lon="11.586514260132754"><ele>340.0</ele><time>2026-04-11T16:08:09Z</time></trkpt><trkpt lat="43.19069850167884" lon="11.586443015589246"><ele>340.0</ele><time>2026-04-11T16:08:11Z</time></trkpt><trkpt lat="43.19059805410838" lon="11.586362161334193"><ele>339.5</ele><time>2026-04-11T16:08:13Z</time></trkpt><trkpt lat="43.19050775353894" lon="11.5862645906108"><ele>339.0</ele><time>2026-04-11T16:08:15Z</time></trkpt><trkpt lat="43.19042845977325" lon="11.586153413633237"><ele>338.5</ele><time>2026-04-11T16:08:17Z</time></trkpt><trkpt lat="43.19034397951984" lon="11.586045072536928"><ele>338.0</ele><time>2026-04-11T16:08:19Z</time></trkpt><trkpt lat="43.19025437013649" lon="11.585935674536774"><ele>338.0</ele><time>2026-04-11T16:08:21Z</time></trkpt><trkpt lat="43.19016566984237" lon="11.58581740443884"><ele>338.0</ele><time>2026-04-11T16:08:23Z</time></trkpt><trkpt lat="43.19007850479755" lon="11.58570697297432"><ele>338.0</ele><time>2026-04-11T16:08:25Z</time></trkpt><trkpt lat="43.189988012276594" lon="11.585596086591726"><ele>338.0</ele><time>2026-04-11T16:08:27Z</time></trkpt><trkpt lat="43.189901796702" lon="11.585482917987509"><ele>337.25</ele><time>2026-04-11T16:08:29Z</time></trkpt><trkpt lat="43.189813588061085" lon="11.585365533175162"><ele>336.5</ele><time>2026-04-11T16:08:31.001Z</time></trkpt><trkpt lat="43.18972241092137" lon="11.585254542474248"><ele>335.75</ele><time>2026-04-11T16:08:33.001Z</time></trkpt><trkpt lat="43.1896366652471" lon="11.585144582763743"><ele>335.0</ele><time>2026-04-11T16:08:35.001Z</time></trkpt><trkpt lat="43.18954472430559" lon="11.58503261763088"><ele>335.0</ele><time>2026-04-11T16:08:37.001Z</time></trkpt><trkpt lat="43.189497673134646" lon="11.58497453141983"><ele>335.0</ele><time>2026-04-11T16:08:38.001Z</time></trkpt><trkpt lat="43.18940299545848" lon="11.584861850516804"><ele>335.0</ele><time>2026-04-11T16:08:40.001Z</time></trkpt><trkpt lat="43.189304783130595" lon="11.584752055497061"><ele>335.0</ele><time>2026-04-11T16:08:42.001Z</time></trkpt><trkpt lat="43.18925642076807" lon="11.584694569794028"><ele>335.0</ele><time>2026-04-11T16:08:43.001Z</time></trkpt><trkpt lat="43.189161959213784" lon="11.58458550787666"><ele>335.0</ele><time>2026-04-11T16:08:45.001Z</time></trkpt><trkpt lat="43.189112094382025" lon="11.584524964410273"><ele>335.0</ele><time>2026-04-11T16:08:46.001Z</time></trkpt><trkpt lat="43.189015544689866" lon="11.584418270850032"><ele>335.0</ele><time>2026-04-11T16:08:48.001Z</time></trkpt><trkpt lat="43.188922983036356" lon="11.584318651634424"><ele>335.0</ele><time>2026-04-11T16:08:50.001Z</time></trkpt><trkpt lat="43.18887226023168" lon="11.584260674176306"><ele>335.0</ele><time>2026-04-11T16:08:51.001Z</time></trkpt><trkpt lat="43.1887782796722" lon="11.584153888691272"><ele>335.75</ele><time>2026-04-11T16:08:53.001Z</time></trkpt><trkpt lat="43.18868732022195" lon="11.584047888686898"><ele>336.5</ele><time>2026-04-11T16:08:55.001Z</time></trkpt><trkpt lat="43.18859693309668" lon="11.583946072761572"><ele>337.25</ele><time>2026-04-11T16:08:57.001Z</time></trkpt><trkpt lat="43.188504543039365" lon="11.583844799138637"><ele>338.0</ele><time>2026-04-11T16:08:59.001Z</time></trkpt><trkpt lat="43.188413841850846" lon="11.583749850667958"><ele>338.0</ele><time>2026-04-11T16:09:01.001Z</time></trkpt><trkpt lat="43.188323483379534" lon="11.583663845907056"><ele>338.0</ele><time>2026-04-11T16:09:03.001Z</time></trkpt><trkpt lat="43.18822623922977" lon="11.583589926926729"><ele>338.0</ele><time>2026-04-11T16:09:05.002Z</time></trkpt><trkpt lat="43.18811698938828" lon="11.583527422612196"><ele>338.0</ele><time>2026-04-11T16:09:07.002Z</time></trkpt><trkpt lat="43.18800139716539" lon="11.583492589370264"><ele>338.0</ele><time>2026-04-11T16:09:09.002Z</time></trkpt><trkpt lat="43.18788457259584" lon="11.583463835797222"><ele>338.0</ele><time>2026-04-11T16:09:11.002Z</time></trkpt><trkpt lat="43.18776739719165" lon="11.58344969791447"><ele>338.0</ele><time>2026-04-11T16:09:13.002Z</time></trkpt><trkpt lat="43.18765268624117" lon="11.583453186882146"><ele>338.0</ele><time>2026-04-11T16:09:15.002Z</time></trkpt><trkpt lat="43.18753504790046" lon="11.583454126454056"><ele>338.0</ele><time>2026-04-11T16:09:17.002Z</time></trkpt><trkpt lat="43.187418624562426" lon="11.583449410770854"><ele>338.0</ele><time>2026-04-11T16:09:19.002Z</time></trkpt><trkpt lat="43.187298580195105" lon="11.583438318763205"><ele>338.0</ele><time>2026-04-11T16:09:21.002Z</time></trkpt><trkpt lat="43.187184552389766" lon="11.583402259370496"><ele>338.0</ele><time>2026-04-11T16:09:23.002Z</time></trkpt><trkpt lat="43.18708607844975" lon="11.583331178811317"><ele>339.59999999999997</ele><time>2026-04-11T16:09:25.002Z</time></trkpt><trkpt lat="43.187002795837444" lon="11.583246791794398"><ele>341.2</ele><time>2026-04-11T16:09:27.002Z</time></trkpt><trkpt lat="43.1869343548558" lon="11.583147736033844"><ele>342.8</ele><time>2026-04-11T16:09:29.002Z</time></trkpt><trkpt lat="43.1868775457068" lon="11.58303746864439"><ele>344.4</ele><time>2026-04-11T16:09:31.002Z</time></trkpt><trkpt lat="43.186827691725924" lon="11.582920396811659"><ele>346.0</ele><time>2026-04-11T16:09:33.002Z</time></trkpt><trkpt lat="43.18679458749329" lon="11.582798065772364"><ele>346.3333333333333</ele><time>2026-04-11T16:09:35.002Z</time></trkpt><trkpt lat="43.18676857130215" lon="11.58268501463458"><ele>346.66666666666663</ele><time>2026-04-11T16:09:37.002Z</time></trkpt><trkpt lat="43.186746521353435" lon="11.5825706373984"><ele>347.0</ele><time>2026-04-11T16:09:39.003Z</time></trkpt><trkpt lat="43.18673330301322" lon="11.582464862144716"><ele>347.3333333333333</ele><time>2026-04-11T16:09:41.003Z</time></trkpt><trkpt lat="43.186713307774866" lon="11.582350067730747"><ele>347.6666666666667</ele><time>2026-04-11T16:09:43.003Z</time></trkpt><trkpt lat="43.186701282639824" lon="11.582232394786953"><ele>348.0</ele><time>2026-04-11T16:09:45.003Z</time></trkpt><trkpt lat="43.18667373586291" lon="11.582120605944045"><ele>347.6666666666667</ele><time>2026-04-11T16:09:47.003Z</time></trkpt><trkpt lat="43.18664390277126" lon="11.582008457123429"><ele>347.3333333333333</ele><time>2026-04-11T16:09:49.003Z</time></trkpt><trkpt lat="43.18659995389761" lon="11.581920993435999"><ele>347.0</ele><time>2026-04-11T16:09:51.003Z</time></trkpt><trkpt lat="43.18655121936169" lon="11.581841176414944"><ele>346.66666666666663</ele><time>2026-04-11T16:09:53.003Z</time></trkpt><trkpt lat="43.18647557949124" lon="11.581792950868119"><ele>346.3333333333333</ele><time>2026-04-11T16:09:55.003Z</time></trkpt><trkpt lat="43.186401270578884" lon="11.58175548396887"><ele>346.0</ele><time>2026-04-11T16:09:57.003Z</time></trkpt><trkpt lat="43.18632693206782" lon="11.581708647508878"><ele>347.4285714285714</ele><time>2026-04-11T16:09:59.003Z</time></trkpt><trkpt lat="43.186254989789234" lon="11.581684684473611"><ele>348.8571428571429</ele><time>2026-04-11T16:10:01.003Z</time></trkpt><trkpt lat="43.186183109189884" lon="11.581642375947556"><ele>350.2857142857143</ele><time>2026-04-11T16:10:03.003Z</time></trkpt><trkpt lat="43.186119762607895" lon="11.58160980760196"><ele>351.71428571428567</ele><time>2026-04-11T16:10:05.003Z</time></trkpt><trkpt lat="43.186062138216904" lon="11.581559782535708"><ele>353.1428571428571</ele><time>2026-04-11T16:10:07Z</time></trkpt><trkpt lat="43.1859942689459" lon="11.581522681488845"><ele>354.57142857142856</ele><time>2026-04-11T16:10:09Z</time></trkpt><trkpt lat="43.18593220937525" lon="11.581484214737339"><ele>356.0</ele><time>2026-04-11T16:10:11Z</time></trkpt><trkpt lat="43.18587000491124" lon="11.581430892849973"><ele>355.99999999999994</ele><time>2026-04-11T16:10:13Z</time></trkpt><trkpt lat="43.18580749722715" lon="11.581371371005785"><ele>356.0</ele><time>2026-04-11T16:10:15Z</time></trkpt><trkpt lat="43.18575086907847" lon="11.581326097822952"><ele>356.0</ele><time>2026-04-11T16:10:17Z</time></trkpt><trkpt lat="43.18569809392934" lon="11.581257913801146"><ele>356.0</ele><time>2026-04-11T16:10:19Z</time></trkpt><trkpt lat="43.18564458486633" lon="11.5811953512883"><ele>356.0</ele><time>2026-04-11T16:10:21Z</time></trkpt><trkpt lat="43.185591380404944" lon="11.581139558582445"><ele>355.99999999999994</ele><time>2026-04-11T16:10:24Z</time></trkpt><trkpt lat="43.18552344006905" lon="11.581051394578624"><ele>356.0</ele><time>2026-04-11T16:10:27Z</time></trkpt><trkpt lat="43.18544517488924" lon="11.5809544823082"><ele>357.0</ele><time>2026-04-11T16:10:30Z</time></trkpt><trkpt lat="43.185390520635735" lon="11.580880487103407"><ele>358.0</ele><time>2026-04-11T16:10:33Z</time></trkpt><trkpt lat="43.185313957646116" lon="11.58081605488433"><ele>359.0</ele><time>2026-04-11T16:10:36Z</time></trkpt><trkpt lat="43.18525044813707" lon="11.580766677771347"><ele>360.0</ele><time>2026-04-11T16:10:38.001Z</time></trkpt><trkpt lat="43.18518070818796" lon="11.580719056929318"><ele>361.0</ele><time>2026-04-11T16:10:41.001Z</time></trkpt><trkpt lat="43.18511462230773" lon="11.580679190523288"><ele>362.0</ele><time>2026-04-11T16:10:43.001Z</time></trkpt><trkpt lat="43.18504192885781" lon="11.5806308829016"><ele>362.0</ele><time>2026-04-11T16:10:46.001Z</time></trkpt><trkpt lat="43.18496121791145" lon="11.580583316638341"><ele>362.0</ele><time>2026-04-11T16:10:49.001Z</time></trkpt><trkpt lat="43.184896150604295" lon="11.580537627483272"><ele>362.0</ele><time>2026-04-11T16:10:52.001Z</time></trkpt><trkpt lat="43.18483898067022" lon="11.580477926752364"><ele>362.0</ele><time>2026-04-11T16:10:54.001Z</time></trkpt><trkpt lat="43.1847879126427" lon="11.580401196996874"><ele>362.0</ele><time>2026-04-11T16:10:57.001Z</time></trkpt><trkpt lat="43.18473420962856" lon="11.5803146022716"><ele>362.0</ele><time>2026-04-11T16:11:00.001Z</time></trkpt><trkpt lat="43.184689680192896" lon="11.580231583173186"><ele>363.42857142857144</ele><time>2026-04-11T16:11:02.001Z</time></trkpt><trkpt lat="43.184642862757045" lon="11.580144717292555"><ele>364.85714285714283</ele><time>2026-04-11T16:11:05.001Z</time></trkpt><trkpt lat="43.18458833286987" lon="11.58005202065465"><ele>366.28571428571433</ele><time>2026-04-11T16:11:08.001Z</time></trkpt><trkpt lat="43.18455174325544" lon="11.57998131036878"><ele>367.7142857142857</ele><time>2026-04-11T16:11:09.001Z</time></trkpt><trkpt lat="43.1845245799613" lon="11.579895432838157"><ele>369.14285714285717</ele><time>2026-04-11T16:11:11.001Z</time></trkpt><trkpt lat="43.184487973558184" lon="11.579813947155499"><ele>370.5714285714286</ele><time>2026-04-11T16:11:13.002Z</time></trkpt><trkpt lat="43.184457770387375" lon="11.579732648035263"><ele>372.0</ele><time>2026-04-11T16:11:15.002Z</time></trkpt><trkpt lat="43.18443218219249" lon="11.579642606443661"><ele>372.0</ele><time>2026-04-11T16:11:17.002Z</time></trkpt><trkpt lat="43.184418258584934" lon="11.57953728806786"><ele>372.0</ele><time>2026-04-11T16:11:19.002Z</time></trkpt><trkpt lat="43.184419097026556" lon="11.579387685365855"><ele>372.0</ele><time>2026-04-11T16:11:22.002Z</time></trkpt><trkpt lat="43.18443058520325" lon="11.57927601843936"><ele>372.0</ele><time>2026-04-11T16:11:24.002Z</time></trkpt><trkpt lat="43.184445805082" lon="11.579158028225859"><ele>372.0</ele><time>2026-04-11T16:11:26.002Z</time></trkpt><trkpt lat="43.18446284586935" lon="11.579062738059939"><ele>372.0</ele><time>2026-04-11T16:11:28.002Z</time></trkpt><trkpt lat="43.18447373774119" lon="11.57895342236978"><ele>370.6</ele><time>2026-04-11T16:11:30.002Z</time></trkpt><trkpt lat="43.18448704188457" lon="11.578831342880358"><ele>369.20000000000005</ele><time>2026-04-11T16:11:32.002Z</time></trkpt><trkpt lat="43.18447504832721" lon="11.578690772524746"><ele>367.8</ele><time>2026-04-11T16:11:34.002Z</time></trkpt><trkpt lat="43.18445818709842" lon="11.578605395022409"><ele>366.4</ele><time>2026-04-11T16:11:35.002Z</time></trkpt><trkpt lat="43.18440789184598" lon="11.578471360443128"><ele>365.0</ele><time>2026-04-11T16:11:37.002Z</time></trkpt><trkpt lat="43.18432351762958" lon="11.578352745606457"><ele>364.5</ele><time>2026-04-11T16:11:39.002Z</time></trkpt><trkpt lat="43.18420486638571" lon="11.578288371544952"><ele>364.0</ele><time>2026-04-11T16:11:41.002Z</time></trkpt><trkpt lat="43.184141957161934" lon="11.578257645583443"><ele>363.5</ele><time>2026-04-11T16:11:42.002Z</time></trkpt><trkpt lat="43.184074775622605" lon="11.578227460748087"><ele>363.0</ele><time>2026-04-11T16:11:43.002Z</time></trkpt><trkpt lat="43.18400765939746" lon="11.578204184185948"><ele>362.5</ele><time>2026-04-11T16:11:44.002Z</time></trkpt><trkpt lat="43.1839414695213" lon="11.578174148003253"><ele>362.0</ele><time>2026-04-11T16:11:45.002Z</time></trkpt><trkpt lat="43.183872560504774" lon="11.578138042595011"><ele>362.0</ele><time>2026-04-11T16:11:46.002Z</time></trkpt><trkpt lat="43.183801369928794" lon="11.578106786846208"><ele>362.0</ele><time>2026-04-11T16:11:47.002Z</time></trkpt><trkpt lat="43.18372646767819" lon="11.578075528726512"><ele>362.0</ele><time>2026-04-11T16:11:48.002Z</time></trkpt><trkpt lat="43.18365510893167" lon="11.578053280027206"><ele>362.0</ele><time>2026-04-11T16:11:49.003Z</time></trkpt><trkpt lat="43.183578220815136" lon="11.578018283313835"><ele>362.0</ele><time>2026-04-11T16:11:50.003Z</time></trkpt><trkpt lat="43.183507139609" lon="11.577976812609485"><ele>362.0</ele><time>2026-04-11T16:11:51.003Z</time></trkpt><trkpt lat="43.18343507841471" lon="11.577937258697732"><ele>362.0</ele><time>2026-04-11T16:11:52.003Z</time></trkpt><trkpt lat="43.18336585500212" lon="11.577907106261476"><ele>362.0</ele><time>2026-04-11T16:11:53.003Z</time></trkpt><trkpt lat="43.183293551180306" lon="11.577889352166778"><ele>362.0</ele><time>2026-04-11T16:11:54.003Z</time></trkpt><trkpt lat="43.183223664748525" lon="11.577882874549656"><ele>362.0</ele><time>2026-04-11T16:11:55.003Z</time></trkpt><trkpt lat="43.183158320989364" lon="11.577896479133827"><ele>362.0</ele><time>2026-04-11T16:11:56.003Z</time></trkpt><trkpt lat="43.18309444302962" lon="11.577927957311282"><ele>362.0</ele><time>2026-04-11T16:11:57.003Z</time></trkpt><trkpt lat="43.18300905522788" lon="11.578030543523239"><ele>360.6666666666667</ele><time>2026-04-11T16:11:59.003Z</time></trkpt><trkpt lat="43.182935782486744" lon="11.578135116983061"><ele>359.33333333333337</ele><time>2026-04-11T16:12:01.003Z</time></trkpt><trkpt lat="43.182877235091944" lon="11.578219260181532"><ele>358.0</ele><time>2026-04-11T16:12:03.003Z</time></trkpt><trkpt lat="43.18281865558967" lon="11.57830667112354"><ele>356.6666666666667</ele><time>2026-04-11T16:12:05.003Z</time></trkpt><trkpt lat="43.18275775454751" lon="11.57839231128526"><ele>355.3333333333333</ele><time>2026-04-11T16:12:07.003Z</time></trkpt><trkpt lat="43.182709796731366" lon="11.578486871260727"><ele>354.0</ele><time>2026-04-11T16:12:09.003Z</time></trkpt><trkpt lat="43.18265869191919" lon="11.578561361416826"><ele>354.0</ele><time>2026-04-11T16:12:11.003Z</time></trkpt><trkpt lat="43.182602265166985" lon="11.5786361910658"><ele>354.0</ele><time>2026-04-11T16:12:13Z</time></trkpt><trkpt lat="43.18255728949513" lon="11.578720835853648"><ele>354.0</ele><time>2026-04-11T16:12:15Z</time></trkpt><trkpt lat="43.18252225861231" lon="11.57883002535777"><ele>354.0</ele><time>2026-04-11T16:12:18Z</time></trkpt><trkpt lat="43.18250199778996" lon="11.57892365739271"><ele>354.0</ele><time>2026-04-11T16:12:20Z</time></trkpt><trkpt lat="43.18249502343938" lon="11.579015466696339"><ele>354.0</ele><time>2026-04-11T16:12:23Z</time></trkpt><trkpt lat="43.18249272943239" lon="11.579106061041939"><ele>354.0</ele><time>2026-04-11T16:12:25Z</time></trkpt><trkpt lat="43.182500308916026" lon="11.579237714110425"><ele>355.1666666666667</ele><time>2026-04-11T16:12:28Z</time></trkpt><trkpt lat="43.182506060352424" lon="11.579350310310467"><ele>356.3333333333333</ele><time>2026-04-11T16:12:30Z</time></trkpt><trkpt lat="43.18251889556262" lon="11.579478419778342"><ele>357.5</ele><time>2026-04-11T16:12:33Z</time></trkpt><trkpt lat="43.18253567379837" lon="11.5795793207138"><ele>358.66666666666663</ele><time>2026-04-11T16:12:36Z</time></trkpt><trkpt lat="43.182558718540804" lon="11.579696144649418"><ele>359.8333333333333</ele><time>2026-04-11T16:12:39Z</time></trkpt><trkpt lat="43.18258683823522" lon="11.579793776864074"><ele>361.0</ele><time>2026-04-11T16:12:42Z</time></trkpt><trkpt lat="43.182630320379296" lon="11.579881665210328"><ele>361.16666666666663</ele><time>2026-04-11T16:12:45.001Z</time></trkpt><trkpt lat="43.182677325693604" lon="11.579975458201567"><ele>361.3333333333333</ele><time>2026-04-11T16:12:48.001Z</time></trkpt><trkpt lat="43.18272229422401" lon="11.580063396103782"><ele>361.5</ele><time>2026-04-11T16:12:51.001Z</time></trkpt><trkpt lat="43.18277332580902" lon="11.58014832809623"><ele>361.6666666666667</ele><time>2026-04-11T16:12:54.001Z</time></trkpt><trkpt lat="43.18281833629473" lon="11.58023372748334"><ele>361.83333333333337</ele><time>2026-04-11T16:12:57.001Z</time></trkpt><trkpt lat="43.182855948058624" lon="11.580334597692499"><ele>362.0</ele><time>2026-04-11T16:13:00.001Z</time></trkpt><trkpt lat="43.18288151339479" lon="11.580434018930653"><ele>362.1666666666667</ele><time>2026-04-11T16:13:03.001Z</time></trkpt><trkpt lat="43.18290277677379" lon="11.580528761948253"><ele>362.33333333333337</ele><time>2026-04-11T16:13:06.001Z</time></trkpt><trkpt lat="43.18291497543399" lon="11.580631528453896"><ele>362.5</ele><time>2026-04-11T16:13:09.001Z</time></trkpt><trkpt lat="43.182928656936795" lon="11.580749587838238"><ele>362.6666666666667</ele><time>2026-04-11T16:13:12.001Z</time></trkpt><trkpt lat="43.18294064959699" lon="11.580863695283812"><ele>362.8333333333333</ele><time>2026-04-11T16:13:15.001Z</time></trkpt><trkpt lat="43.18295075155987" lon="11.580984185265246"><ele>363.0</ele><time>2026-04-11T16:13:18.001Z</time></trkpt><trkpt lat="43.182963471293135" lon="11.581099222359173"><ele>364.1666666666667</ele><time>2026-04-11T16:13:21.002Z</time></trkpt><trkpt lat="43.18296768616962" lon="11.581221974553477"><ele>365.3333333333333</ele><time>2026-04-11T16:13:24.002Z</time></trkpt><trkpt lat="43.18296873583825" lon="11.581345877116672"><ele>366.5</ele><time>2026-04-11T16:13:27.002Z</time></trkpt><trkpt lat="43.18295599936725" lon="11.581430682656968"><ele>367.66666666666663</ele><time>2026-04-11T16:13:29.002Z</time></trkpt><trkpt lat="43.182941240944885" lon="11.581515118461633"><ele>368.8333333333333</ele><time>2026-04-11T16:13:31.002Z</time></trkpt><trkpt lat="43.18291190486682" lon="11.581632482036103"><ele>370.0</ele><time>2026-04-11T16:13:34.002Z</time></trkpt><trkpt lat="43.1828637864158" lon="11.581745427083742"><ele>370.0</ele><time>2026-04-11T16:13:37.002Z</time></trkpt><trkpt lat="43.18282600128229" lon="11.581820369275901"><ele>370.0</ele><time>2026-04-11T16:13:39.002Z</time></trkpt><trkpt lat="43.18278520103811" lon="11.581902701061358"><ele>370.0</ele><time>2026-04-11T16:13:41.002Z</time></trkpt><trkpt lat="43.18272474031439" lon="11.581970157279734"><ele>370.0</ele><time>2026-04-11T16:13:43.002Z</time></trkpt><trkpt lat="43.182655473205266" lon="11.582047474955738"><ele>370.0</ele><time>2026-04-11T16:13:45.002Z</time></trkpt><trkpt lat="43.182556883454986" lon="11.582124353487343"><ele>370.0</ele><time>2026-04-11T16:13:47.002Z</time></trkpt><trkpt lat="43.18249861491728" lon="11.582163934814115"><ele>369.8333333333333</ele><time>2026-04-11T16:13:48.002Z</time></trkpt><trkpt lat="43.18243479171696" lon="11.582209068464612"><ele>369.66666666666663</ele><time>2026-04-11T16:13:49.002Z</time></trkpt><trkpt lat="43.18236229793535" lon="11.582259224764417"><ele>369.5</ele><time>2026-04-11T16:13:50.002Z</time></trkpt><trkpt lat="43.18229035369441" lon="11.582304442738694"><ele>369.3333333333333</ele><time>2026-04-11T16:13:51.002Z</time></trkpt><trkpt lat="43.182208474607435" lon="11.582347346942207"><ele>369.1666666666667</ele><time>2026-04-11T16:13:52.002Z</time></trkpt><trkpt lat="43.18212770471338" lon="11.582398435267459"><ele>369.0</ele><time>2026-04-11T16:13:53.002Z</time></trkpt><trkpt lat="43.18204728246172" lon="11.582448624372587"><ele>368.5</ele><time>2026-04-11T16:13:54.002Z</time></trkpt><trkpt lat="43.18196702740696" lon="11.582498007000193"><ele>368.0</ele><time>2026-04-11T16:13:55.003Z</time></trkpt><trkpt lat="43.18188659988735" lon="11.58255186225135"><ele>367.5</ele><time>2026-04-11T16:13:56.003Z</time></trkpt><trkpt lat="43.1818064601599" lon="11.582605218978648"><ele>367.0</ele><time>2026-04-11T16:13:57.003Z</time></trkpt><trkpt lat="43.18172781099908" lon="11.582663313849343"><ele>366.5</ele><time>2026-04-11T16:13:58.003Z</time></trkpt><trkpt lat="43.181647268759356" lon="11.58271221264194"><ele>366.0</ele><time>2026-04-11T16:13:59.003Z</time></trkpt><trkpt lat="43.18156681546751" lon="11.582760301557732"><ele>366.1666666666667</ele><time>2026-04-11T16:14:00.003Z</time></trkpt><trkpt lat="43.18148600412807" lon="11.582811524389383"><ele>366.3333333333333</ele><time>2026-04-11T16:14:01.003Z</time></trkpt><trkpt lat="43.181407271671" lon="11.582858573495953"><ele>366.5</ele><time>2026-04-11T16:14:02.003Z</time></trkpt><trkpt lat="43.18132919200894" lon="11.582906785071188"><ele>366.66666666666663</ele><time>2026-04-11T16:14:03.003Z</time></trkpt><trkpt lat="43.181258063620646" lon="11.582954378121746"><ele>366.8333333333333</ele><time>2026-04-11T16:14:04.003Z</time></trkpt><trkpt lat="43.18118389116081" lon="11.583004117528075"><ele>367.0</ele><time>2026-04-11T16:14:05.003Z</time></trkpt><trkpt lat="43.181108802683994" lon="11.583047137340436"><ele>367.0</ele><time>2026-04-11T16:14:06.003Z</time></trkpt><trkpt lat="43.18103486618022" lon="11.583080613910273"><ele>367.0</ele><time>2026-04-11T16:14:07.003Z</time></trkpt><trkpt lat="43.180960271186066" lon="11.583114070102692"><ele>367.0</ele><time>2026-04-11T16:14:08.003Z</time></trkpt><trkpt lat="43.1808885474686" lon="11.58314763946132"><ele>367.0</ele><time>2026-04-11T16:14:09.003Z</time></trkpt><trkpt lat="43.180818148881386" lon="11.583183775805994"><ele>367.0</ele><time>2026-04-11T16:14:10.003Z</time></trkpt><trkpt lat="43.18074454433457" lon="11.583217469514619"><ele>367.0</ele><time>2026-04-11T16:14:11.003Z</time></trkpt><trkpt lat="43.18067662402016" lon="11.583262468772006"><ele>368.0</ele><time>2026-04-11T16:14:12.003Z</time></trkpt><trkpt lat="43.180607567981546" lon="11.583298630757342"><ele>369.0</ele><time>2026-04-11T16:14:13.003Z</time></trkpt><trkpt lat="43.18054251741316" lon="11.583330838817993"><ele>370.0</ele><time>2026-04-11T16:14:14.003Z</time></trkpt><trkpt lat="43.18046930191858" lon="11.58337272778662"><ele>371.0</ele><time>2026-04-11T16:14:15.003Z</time></trkpt><trkpt lat="43.180396919828134" lon="11.583413477076324"><ele>372.0</ele><time>2026-04-11T16:14:16.003Z</time></trkpt><trkpt lat="43.18032342919965" lon="11.583450548118511"><ele>373.0</ele><time>2026-04-11T16:14:17.003Z</time></trkpt><trkpt lat="43.180251328808495" lon="11.583488331605752"><ele>373.0</ele><time>2026-04-11T16:14:18Z</time></trkpt><trkpt lat="43.18018021781561" lon="11.583522945072136"><ele>373.0</ele><time>2026-04-11T16:14:19Z</time></trkpt><trkpt lat="43.18011183929641" lon="11.583558338049917"><ele>373.0</ele><time>2026-04-11T16:14:20Z</time></trkpt><trkpt lat="43.180039475901296" lon="11.583587342911995"><ele>373.0</ele><time>2026-04-11T16:14:21Z</time></trkpt><trkpt lat="43.179967300820095" lon="11.58361468851404"><ele>373.0</ele><time>2026-04-11T16:14:22Z</time></trkpt><trkpt lat="43.1799004685097" lon="11.583631310789881"><ele>373.0</ele><time>2026-04-11T16:14:23Z</time></trkpt><trkpt lat="43.17982839503787" lon="11.583656218701332"><ele>373.0</ele><time>2026-04-11T16:14:24Z</time></trkpt><trkpt lat="43.179757786428624" lon="11.58368752882626"><ele>372.0</ele><time>2026-04-11T16:14:25Z</time></trkpt><trkpt lat="43.179688463844535" lon="11.583712136602884"><ele>371.0</ele><time>2026-04-11T16:14:26Z</time></trkpt><trkpt lat="43.179622169747006" lon="11.583735126425028"><ele>370.0</ele><time>2026-04-11T16:14:27Z</time></trkpt><trkpt lat="43.179502665325145" lon="11.583792087147518"><ele>369.0</ele><time>2026-04-11T16:14:29Z</time></trkpt><trkpt lat="43.17943129938339" lon="11.583769956113944"><ele>368.0</ele><time>2026-04-11T16:14:30Z</time></trkpt><trkpt lat="43.17936473500786" lon="11.583771523109299"><ele>367.0</ele><time>2026-04-11T16:14:31Z</time></trkpt><trkpt lat="43.17924625935558" lon="11.58375740604006"><ele>367.0</ele><time>2026-04-11T16:14:33Z</time></trkpt><trkpt lat="43.17913242591729" lon="11.58373428277272"><ele>367.0</ele><time>2026-04-11T16:14:35Z</time></trkpt><trkpt lat="43.179022625030775" lon="11.583710059085194"><ele>367.0</ele><time>2026-04-11T16:14:37Z</time></trkpt><trkpt lat="43.17891305167129" lon="11.583685291520839"><ele>367.0</ele><time>2026-04-11T16:14:39Z</time></trkpt><trkpt lat="43.17880188643379" lon="11.583658060754084"><ele>367.40000000000003</ele><time>2026-04-11T16:14:41Z</time></trkpt><trkpt lat="43.17868751479615" lon="11.583636343339332"><ele>367.8</ele><time>2026-04-11T16:14:43Z</time></trkpt><trkpt lat="43.178568870521325" lon="11.583616399318839"><ele>368.2</ele><time>2026-04-11T16:14:45Z</time></trkpt><trkpt lat="43.178448220344485" lon="11.583588553465676"><ele>368.6</ele><time>2026-04-11T16:14:47Z</time></trkpt><trkpt lat="43.17838140943504" lon="11.583582469368851"><ele>369.0</ele><time>2026-04-11T16:14:48Z</time></trkpt><trkpt lat="43.17831822782723" lon="11.583574926138759"><ele>369.0</ele><time>2026-04-11T16:14:49Z</time></trkpt><trkpt lat="43.17819184046217" lon="11.583544353167968"><ele>369.0</ele><time>2026-04-11T16:14:51Z</time></trkpt><trkpt lat="43.178064812962795" lon="11.583507686149794"><ele>369.0</ele><time>2026-04-11T16:14:53.001Z</time></trkpt><trkpt lat="43.17799762705602" lon="11.583488444644114"><ele>369.0</ele><time>2026-04-11T16:14:54.001Z</time></trkpt><trkpt lat="43.1779285899521" lon="11.583464549368907"><ele>369.0</ele><time>2026-04-11T16:14:55.001Z</time></trkpt><trkpt lat="43.17785604558509" lon="11.583449309438528"><ele>368.5</ele><time>2026-04-11T16:14:56.001Z</time></trkpt><trkpt lat="43.17778903697143" lon="11.583419427580369"><ele>368.0</ele><time>2026-04-11T16:14:57.001Z</time></trkpt><trkpt lat="43.17771211536846" lon="11.583379694617893"><ele>367.5</ele><time>2026-04-11T16:14:58.001Z</time></trkpt><trkpt lat="43.17763892136043" lon="11.583352670608203"><ele>367.0</ele><time>2026-04-11T16:14:59.001Z</time></trkpt><trkpt lat="43.177562925731046" lon="11.583327078297714"><ele>366.5</ele><time>2026-04-11T16:15:00.001Z</time></trkpt><trkpt lat="43.177484546658086" lon="11.583298499394234"><ele>366.0</ele><time>2026-04-11T16:15:01.001Z</time></trkpt><trkpt lat="43.17740448124563" lon="11.583271044903393"><ele>365.3333333333333</ele><time>2026-04-11T16:15:02.001Z</time></trkpt><trkpt lat="43.17732528585231" lon="11.583240664399181"><ele>364.6666666666667</ele><time>2026-04-11T16:15:03.001Z</time></trkpt><trkpt lat="43.17724698146778" lon="11.583208849407255"><ele>364.0</ele><time>2026-04-11T16:15:04.001Z</time></trkpt><trkpt lat="43.177168392492234" lon="11.583178652821184"><ele>363.33333333333337</ele><time>2026-04-11T16:15:05.001Z</time></trkpt><trkpt lat="43.17709364121391" lon="11.583148825693776"><ele>362.6666666666667</ele><time>2026-04-11T16:15:06.001Z</time></trkpt><trkpt lat="43.17701875292571" lon="11.583124572785087"><ele>362.0</ele><time>2026-04-11T16:15:07.001Z</time></trkpt><trkpt lat="43.17694682791186" lon="11.583105594988366"><ele>362.0</ele><time>2026-04-11T16:15:08.001Z</time></trkpt><trkpt lat="43.17687441435117" lon="11.583088465940481"><ele>362.0</ele><time>2026-04-11T16:15:09.001Z</time></trkpt><trkpt lat="43.1768074199719" lon="11.583070629696016"><ele>362.0</ele><time>2026-04-11T16:15:10.001Z</time></trkpt><trkpt lat="43.17674041335989" lon="11.583057756250057"><ele>362.0</ele><time>2026-04-11T16:15:11.001Z</time></trkpt><trkpt lat="43.17667457737372" lon="11.583043383179112"><ele>362.0</ele><time>2026-04-11T16:15:12.001Z</time></trkpt><trkpt lat="43.17660910965855" lon="11.583027050026917"><ele>362.0</ele><time>2026-04-11T16:15:13.001Z</time></trkpt><trkpt lat="43.17654393701922" lon="11.583014077119625"><ele>362.0</ele><time>2026-04-11T16:15:14.001Z</time></trkpt><trkpt lat="43.17647927366908" lon="11.583004873813541"><ele>361.6666666666667</ele><time>2026-04-11T16:15:15.001Z</time></trkpt><trkpt lat="43.17641490131307" lon="11.582998593927824"><ele>361.33333333333337</ele><time>2026-04-11T16:15:16.001Z</time></trkpt><trkpt lat="43.17635023928937" lon="11.582990124862292"><ele>361.0</ele><time>2026-04-11T16:15:17.001Z</time></trkpt><trkpt lat="43.17628556110241" lon="11.582976997064492"><ele>360.6666666666667</ele><time>2026-04-11T16:15:18.001Z</time></trkpt><trkpt lat="43.17616202426109" lon="11.582955232748578"><ele>360.3333333333333</ele><time>2026-04-11T16:15:20.001Z</time></trkpt><trkpt lat="43.17609718931132" lon="11.582946609242324"><ele>360.0</ele><time>2026-04-11T16:15:21.001Z</time></trkpt><trkpt lat="43.176032268766875" lon="11.582937167836265"><ele>360.0</ele><time>2026-04-11T16:15:22.001Z</time></trkpt><trkpt lat="43.17596858443231" lon="11.582926912612916"><ele>360.0</ele><time>2026-04-11T16:15:23.001Z</time></trkpt><trkpt lat="43.17590333065399" lon="11.582920305195993"><ele>360.0</ele><time>2026-04-11T16:15:24.001Z</time></trkpt><trkpt lat="43.17583614869246" lon="11.582913602749075"><ele>360.0</ele><time>2026-04-11T16:15:25.001Z</time></trkpt><trkpt lat="43.17570406870687" lon="11.58291236108743"><ele>360.0</ele><time>2026-04-11T16:15:27.002Z</time></trkpt><trkpt lat="43.175633680647024" lon="11.582917398800317"><ele>360.0</ele><time>2026-04-11T16:15:28.002Z</time></trkpt><trkpt lat="43.175563431408506" lon="11.582927502029108"><ele>360.0</ele><time>2026-04-11T16:15:29.002Z</time></trkpt><trkpt lat="43.17549210887321" lon="11.582941735592872"><ele>360.0</ele><time>2026-04-11T16:15:30.002Z</time></trkpt><trkpt lat="43.175418360109134" lon="11.58296771365891"><ele>360.0</ele><time>2026-04-11T16:15:31.002Z</time></trkpt><trkpt lat="43.17534729341196" lon="11.582994263461332"><ele>360.0</ele><time>2026-04-11T16:15:32.002Z</time></trkpt><trkpt lat="43.17527559031193" lon="11.583025258540058"><ele>360.0</ele><time>2026-04-11T16:15:33.002Z</time></trkpt><trkpt lat="43.1752025950219" lon="11.58305508046879"><ele>360.0</ele><time>2026-04-11T16:15:34.002Z</time></trkpt><trkpt lat="43.17512894003958" lon="11.583083463056683"><ele>360.0</ele><time>2026-04-11T16:15:35.002Z</time></trkpt><trkpt lat="43.17505553417369" lon="11.583111429647602"><ele>360.0</ele><time>2026-04-11T16:15:36.002Z</time></trkpt><trkpt lat="43.174980879543185" lon="11.583142807345487"><ele>360.0</ele><time>2026-04-11T16:15:37.002Z</time></trkpt><trkpt lat="43.17491039439075" lon="11.583174633953302"><ele>360.0</ele><time>2026-04-11T16:15:38.002Z</time></trkpt><trkpt lat="43.17484269396955" lon="11.583204329762621"><ele>360.0</ele><time>2026-04-11T16:15:39.002Z</time></trkpt><trkpt lat="43.1747712097473" lon="11.583235842834313"><ele>360.0</ele><time>2026-04-11T16:15:40.002Z</time></trkpt><trkpt lat="43.17469959129678" lon="11.583257245580599"><ele>360.0</ele><time>2026-04-11T16:15:41.002Z</time></trkpt><trkpt lat="43.17463045941429" lon="11.583286987295924"><ele>360.5</ele><time>2026-04-11T16:15:42.002Z</time></trkpt><trkpt lat="43.17456077015076" lon="11.583325101992044"><ele>361.0</ele><time>2026-04-11T16:15:43.002Z</time></trkpt><trkpt lat="43.1744912313802" lon="11.583365935273019"><ele>361.5</ele><time>2026-04-11T16:15:44.002Z</time></trkpt><trkpt lat="43.174420680266245" lon="11.583420007832435"><ele>362.0</ele><time>2026-04-11T16:15:45.002Z</time></trkpt><trkpt lat="43.17435129798427" lon="11.583481391109393"><ele>362.5</ele><time>2026-04-11T16:15:46.002Z</time></trkpt><trkpt lat="43.174283325993784" lon="11.583546042250836"><ele>363.0</ele><time>2026-04-11T16:15:47.002Z</time></trkpt><trkpt lat="43.174217119218596" lon="11.583617141788531"><ele>362.3333333333333</ele><time>2026-04-11T16:15:48.002Z</time></trkpt><trkpt lat="43.17414179344555" lon="11.583687791922316"><ele>361.6666666666667</ele><time>2026-04-11T16:15:49.002Z</time></trkpt><trkpt lat="43.17406561575592" lon="11.583748930434433"><ele>361.0</ele><time>2026-04-11T16:15:50.002Z</time></trkpt><trkpt lat="43.173994943130324" lon="11.583824052453458"><ele>360.33333333333337</ele><time>2026-04-11T16:15:51.002Z</time></trkpt><trkpt lat="43.17392370805579" lon="11.583901006260929"><ele>359.6666666666667</ele><time>2026-04-11T16:15:52.002Z</time></trkpt><trkpt lat="43.173853701409975" lon="11.583975071995416"><ele>359.0</ele><time>2026-04-11T16:15:53.002Z</time></trkpt><trkpt lat="43.17378343923156" lon="11.584049885511156"><ele>358.83333333333337</ele><time>2026-04-11T16:15:54.002Z</time></trkpt><trkpt lat="43.173712594187975" lon="11.584125850475814"><ele>358.6666666666667</ele><time>2026-04-11T16:15:55.002Z</time></trkpt><trkpt lat="43.1736438710107" lon="11.584197118435606"><ele>358.5</ele><time>2026-04-11T16:15:56.002Z</time></trkpt><trkpt lat="43.17356974651887" lon="11.584270215954444"><ele>358.3333333333333</ele><time>2026-04-11T16:15:57.002Z</time></trkpt><trkpt lat="43.17349723566234" lon="11.584344714130006"><ele>358.16666666666663</ele><time>2026-04-11T16:15:58.002Z</time></trkpt><trkpt lat="43.173429300039736" lon="11.584420857471493"><ele>358.0</ele><time>2026-04-11T16:15:59.002Z</time></trkpt><trkpt lat="43.173362368145305" lon="11.584502676578813"><ele>357.66666666666663</ele><time>2026-04-11T16:16:00.003Z</time></trkpt><trkpt lat="43.17329329714657" lon="11.58457871006539"><ele>357.3333333333333</ele><time>2026-04-11T16:16:01.003Z</time></trkpt><trkpt lat="43.17322217167373" lon="11.584655150205123"><ele>357.0</ele><time>2026-04-11T16:16:02.003Z</time></trkpt><trkpt lat="43.17315421183157" lon="11.584725624179173"><ele>356.6666666666667</ele><time>2026-04-11T16:16:03.003Z</time></trkpt><trkpt lat="43.17308560689861" lon="11.584790970022324"><ele>356.33333333333337</ele><time>2026-04-11T16:16:04.003Z</time></trkpt><trkpt lat="43.173014242951076" lon="11.584860183578435"><ele>356.0</ele><time>2026-04-11T16:16:05.003Z</time></trkpt><trkpt lat="43.17294895989904" lon="11.58492952842484"><ele>355.83333333333337</ele><time>2026-04-11T16:16:06.003Z</time></trkpt><trkpt lat="43.1728834019728" lon="11.58500117121719"><ele>355.6666666666667</ele><time>2026-04-11T16:16:07.003Z</time></trkpt><trkpt lat="43.17281610323727" lon="11.58507474220187"><ele>355.5</ele><time>2026-04-11T16:16:08.003Z</time></trkpt><trkpt lat="43.17275100255886" lon="11.585145739723371"><ele>355.3333333333333</ele><time>2026-04-11T16:16:09.003Z</time></trkpt><trkpt lat="43.17268235819872" lon="11.5852120598064"><ele>355.16666666666663</ele><time>2026-04-11T16:16:10.003Z</time></trkpt><trkpt lat="43.1726172508034" lon="11.58527710453692"><ele>355.0</ele><time>2026-04-11T16:16:11.003Z</time></trkpt><trkpt lat="43.17255560521275" lon="11.585350401258735"><ele>355.0</ele><time>2026-04-11T16:16:12.003Z</time></trkpt><trkpt lat="43.17249374254099" lon="11.58541417569249"><ele>355.0</ele><time>2026-04-11T16:16:13.003Z</time></trkpt><trkpt lat="43.17242734959212" lon="11.585471193458408"><ele>355.0</ele><time>2026-04-11T16:16:14.003Z</time></trkpt><trkpt lat="43.17235777120998" lon="11.585522297191625"><ele>355.0</ele><time>2026-04-11T16:16:15.003Z</time></trkpt><trkpt lat="43.17229132310745" lon="11.585566539960258"><ele>355.0</ele><time>2026-04-11T16:16:16.003Z</time></trkpt><trkpt lat="43.17222099821725" lon="11.5855971345784"><ele>355.0</ele><time>2026-04-11T16:16:17.003Z</time></trkpt><trkpt lat="43.17215074858887" lon="11.585609815674369"><ele>355.66666666666663</ele><time>2026-04-11T16:16:18.003Z</time></trkpt><trkpt lat="43.17208494109263" lon="11.585626259205256"><ele>356.3333333333333</ele><time>2026-04-11T16:16:19.003Z</time></trkpt><trkpt lat="43.17201883690472" lon="11.585639987312634"><ele>357.0</ele><time>2026-04-11T16:16:20.003Z</time></trkpt><trkpt lat="43.17195442207973" lon="11.585647692377067"><ele>357.6666666666667</ele><time>2026-04-11T16:16:21.003Z</time></trkpt><trkpt lat="43.171831006650876" lon="11.585655394721417"><ele>358.33333333333337</ele><time>2026-04-11T16:16:23.003Z</time></trkpt><trkpt lat="43.17176869678773" lon="11.58567002447065"><ele>359.0</ele><time>2026-04-11T16:16:24Z</time></trkpt><trkpt lat="43.17164691804945" lon="11.585680336889707"><ele>359.0</ele><time>2026-04-11T16:16:26Z</time></trkpt><trkpt lat="43.171529710005494" lon="11.585687618608963"><ele>359.0</ele><time>2026-04-11T16:16:28Z</time></trkpt><trkpt lat="43.17141816561211" lon="11.58569273318624"><ele>359.0</ele><time>2026-04-11T16:16:30Z</time></trkpt><trkpt lat="43.171308233482755" lon="11.58569853694489"><ele>359.0</ele><time>2026-04-11T16:16:32Z</time></trkpt><trkpt lat="43.171197219155104" lon="11.585710050865465"><ele>359.2</ele><time>2026-04-11T16:16:34Z</time></trkpt><trkpt lat="43.17108440318076" lon="11.585725637817138"><ele>359.4</ele><time>2026-04-11T16:16:36Z</time></trkpt><trkpt lat="43.17096589160817" lon="11.5857689560187"><ele>359.6</ele><time>2026-04-11T16:16:38Z</time></trkpt><trkpt lat="43.17084302674769" lon="11.585810785854132"><ele>359.8</ele><time>2026-04-11T16:16:40Z</time></trkpt><trkpt lat="43.17077680788791" lon="11.58583011560257"><ele>360.0</ele><time>2026-04-11T16:16:41Z</time></trkpt><trkpt lat="43.17070803612703" lon="11.585846373870284"><ele>359.0</ele><time>2026-04-11T16:16:42Z</time></trkpt><trkpt lat="43.17063696164101" lon="11.585861979956368"><ele>358.0</ele><time>2026-04-11T16:16:43Z</time></trkpt><trkpt lat="43.170561730721914" lon="11.585869934160062"><ele>357.0</ele><time>2026-04-11T16:16:44Z</time></trkpt><trkpt lat="43.1704825312818" lon="11.585858153209927"><ele>356.0</ele><time>2026-04-11T16:16:45Z</time></trkpt><trkpt lat="43.170407145672485" lon="11.585837668094952"><ele>355.0</ele><time>2026-04-11T16:16:46Z</time></trkpt><trkpt lat="43.17032815969211" lon="11.585815755967749"><ele>354.0</ele><time>2026-04-11T16:16:47Z</time></trkpt><trkpt lat="43.1702538434377" lon="11.58579314894024"><ele>354.0</ele><time>2026-04-11T16:16:48Z</time></trkpt><trkpt lat="43.17016877501717" lon="11.585776008895996"><ele>354.0</ele><time>2026-04-11T16:16:49Z</time></trkpt><trkpt lat="43.17008514660226" lon="11.585755907436813"><ele>354.0</ele><time>2026-04-11T16:16:50Z</time></trkpt><trkpt lat="43.16999985413502" lon="11.585744533536847"><ele>354.0</ele><time>2026-04-11T16:16:51Z</time></trkpt><trkpt lat="43.16991267424625" lon="11.58573766752473"><ele>354.0</ele><time>2026-04-11T16:16:52Z</time></trkpt><trkpt lat="43.1698296996128" lon="11.585732510050125"><ele>354.0</ele><time>2026-04-11T16:16:53Z</time></trkpt><trkpt lat="43.169742802052504" lon="11.585726266513582"><ele>353.6666666666667</ele><time>2026-04-11T16:16:54.001Z</time></trkpt><trkpt lat="43.169657574289914" lon="11.585728890759132"><ele>353.3333333333333</ele><time>2026-04-11T16:16:55.001Z</time></trkpt><trkpt lat="43.169571266591625" lon="11.585739187939181"><ele>353.0</ele><time>2026-04-11T16:16:56.001Z</time></trkpt><trkpt lat="43.1694836857091" lon="11.585750638540096"><ele>352.66666666666663</ele><time>2026-04-11T16:16:57.001Z</time></trkpt><trkpt lat="43.16939613637024" lon="11.585763362087205"><ele>352.3333333333333</ele><time>2026-04-11T16:16:58.001Z</time></trkpt><trkpt lat="43.16930961780162" lon="11.585769527537433"><ele>352.0</ele><time>2026-04-11T16:16:59.001Z</time></trkpt><trkpt lat="43.16922707551927" lon="11.585776173868796"><ele>352.0</ele><time>2026-04-11T16:17:00.001Z</time></trkpt><trkpt lat="43.16914631482444" lon="11.58578423052599"><ele>352.0</ele><time>2026-04-11T16:17:01.001Z</time></trkpt><trkpt lat="43.169070130459545" lon="11.585796378736129"><ele>352.0</ele><time>2026-04-11T16:17:02.001Z</time></trkpt><trkpt lat="43.16899155375716" lon="11.585809504851476"><ele>352.0</ele><time>2026-04-11T16:17:03.001Z</time></trkpt><trkpt lat="43.16891451719994" lon="11.585823083698749"><ele>352.0</ele><time>2026-04-11T16:17:04.001Z</time></trkpt><trkpt lat="43.168841747684006" lon="11.58583905345427"><ele>352.0</ele><time>2026-04-11T16:17:05.001Z</time></trkpt><trkpt lat="43.16876959553529" lon="11.585862850362384"><ele>352.42857142857144</ele><time>2026-04-11T16:17:06.001Z</time></trkpt><trkpt lat="43.168697943027986" lon="11.585881388134466"><ele>352.85714285714283</ele><time>2026-04-11T16:17:07.001Z</time></trkpt><trkpt lat="43.168627723363144" lon="11.585897430930865"><ele>353.2857142857143</ele><time>2026-04-11T16:17:08.001Z</time></trkpt><trkpt lat="43.16855811388644" lon="11.58591224818194"><ele>353.7142857142857</ele><time>2026-04-11T16:17:09.001Z</time></trkpt><trkpt lat="43.16848616552302" lon="11.58593095347765"><ele>354.14285714285717</ele><time>2026-04-11T16:17:10.001Z</time></trkpt><trkpt lat="43.16841360477434" lon="11.585953554247956"><ele>354.57142857142856</ele><time>2026-04-11T16:17:11.001Z</time></trkpt><trkpt lat="43.16834137161675" lon="11.585967511349166"><ele>355.0</ele><time>2026-04-11T16:17:12.001Z</time></trkpt><trkpt lat="43.16826915649502" lon="11.58598018405101"><ele>355.0</ele><time>2026-04-11T16:17:13.001Z</time></trkpt><trkpt lat="43.168196316440714" lon="11.585993699030002"><ele>355.0</ele><time>2026-04-11T16:17:14.001Z</time></trkpt><trkpt lat="43.16811997541984" lon="11.585984702303831"><ele>355.0</ele><time>2026-04-11T16:17:15.001Z</time></trkpt><trkpt lat="43.16804570886116" lon="11.585973013304569"><ele>355.0</ele><time>2026-04-11T16:17:16.001Z</time></trkpt><trkpt lat="43.16797704938608" lon="11.585937787747573"><ele>355.0</ele><time>2026-04-11T16:17:17.001Z</time></trkpt><trkpt lat="43.167909854955965" lon="11.585883283904256"><ele>355.0</ele><time>2026-04-11T16:17:18.001Z</time></trkpt><trkpt lat="43.167847713532055" lon="11.585817045976427"><ele>353.5</ele><time>2026-04-11T16:17:19.001Z</time></trkpt><trkpt lat="43.16777865384825" lon="11.585757374019769"><ele>352.0</ele><time>2026-04-11T16:17:20.001Z</time></trkpt><trkpt lat="43.167715700582704" lon="11.585683549783175"><ele>350.5</ele><time>2026-04-11T16:17:21.001Z</time></trkpt><trkpt lat="43.16765640070025" lon="11.585601318668118"><ele>349.0</ele><time>2026-04-11T16:17:22.001Z</time></trkpt><trkpt lat="43.167591249534894" lon="11.585519245915892"><ele>347.5</ele><time>2026-04-11T16:17:23.001Z</time></trkpt><trkpt lat="43.16753160360009" lon="11.585441386017308"><ele>346.0</ele><time>2026-04-11T16:17:24.001Z</time></trkpt><trkpt lat="43.16746555648774" lon="11.585363485724521"><ele>346.3333333333333</ele><time>2026-04-11T16:17:25.001Z</time></trkpt><trkpt lat="43.16739856111614" lon="11.585283898432316"><ele>346.66666666666663</ele><time>2026-04-11T16:17:26.001Z</time></trkpt><trkpt lat="43.167319614486196" lon="11.58521900125207"><ele>347.0</ele><time>2026-04-11T16:17:27.002Z</time></trkpt><trkpt lat="43.167244271094056" lon="11.58515763089845"><ele>347.3333333333333</ele><time>2026-04-11T16:17:28.002Z</time></trkpt><trkpt lat="43.16716490450004" lon="11.585107163174959"><ele>347.6666666666667</ele><time>2026-04-11T16:17:29.002Z</time></trkpt><trkpt lat="43.167088339682515" lon="11.585056075464193"><ele>348.0</ele><time>2026-04-11T16:17:30.002Z</time></trkpt><trkpt lat="43.16700680066153" lon="11.585022788577225"><ele>348.0</ele><time>2026-04-11T16:17:31.002Z</time></trkpt><trkpt lat="43.16692487150961" lon="11.585000566792788"><ele>348.0</ele><time>2026-04-11T16:17:32.002Z</time></trkpt><trkpt lat="43.16684326717024" lon="11.58499106351861"><ele>348.0</ele><time>2026-04-11T16:17:33.002Z</time></trkpt><trkpt lat="43.1667611608759" lon="11.58499239647668"><ele>348.0</ele><time>2026-04-11T16:17:34.002Z</time></trkpt><trkpt lat="43.16668097806613" lon="11.585009630673161"><ele>348.0</ele><time>2026-04-11T16:17:35.002Z</time></trkpt><trkpt lat="43.166604889367186" lon="11.585037549168282"><ele>348.0</ele><time>2026-04-11T16:17:36.002Z</time></trkpt><trkpt lat="43.166527964588354" lon="11.585055810264038"><ele>348.1666666666667</ele><time>2026-04-11T16:17:37.002Z</time></trkpt><trkpt lat="43.166449535420625" lon="11.585072655996013"><ele>348.3333333333333</ele><time>2026-04-11T16:17:38.002Z</time></trkpt><trkpt lat="43.166375924754746" lon="11.585079778277825"><ele>348.5</ele><time>2026-04-11T16:17:39.002Z</time></trkpt><trkpt lat="43.166298116942826" lon="11.585092652172188"><ele>348.66666666666663</ele><time>2026-04-11T16:17:40.002Z</time></trkpt><trkpt lat="43.16622017749512" lon="11.585100617696659"><ele>348.8333333333333</ele><time>2026-04-11T16:17:41.002Z</time></trkpt><trkpt lat="43.16614478842186" lon="11.585107094887979"><ele>349.0</ele><time>2026-04-11T16:17:42.002Z</time></trkpt><trkpt lat="43.166067982941" lon="11.58511451222285"><ele>348.99999999999994</ele><time>2026-04-11T16:17:43.002Z</time></trkpt><trkpt lat="43.165991810853384" lon="11.585126838110927"><ele>349.0</ele><time>2026-04-11T16:17:44.002Z</time></trkpt><trkpt lat="43.1659166477858" lon="11.585138360102384"><ele>349.0</ele><time>2026-04-11T16:17:45.002Z</time></trkpt><trkpt lat="43.165843001080844" lon="11.58515360228273"><ele>349.0</ele><time>2026-04-11T16:17:46.002Z</time></trkpt><trkpt lat="43.165770621872724" lon="11.585162621552891"><ele>349.0</ele><time>2026-04-11T16:17:47.002Z</time></trkpt><trkpt lat="43.16569602647554" lon="11.585170597729734"><ele>348.99999999999994</ele><time>2026-04-11T16:17:48.002Z</time></trkpt><trkpt lat="43.16562475015283" lon="11.585171144167061"><ele>349.0</ele><time>2026-04-11T16:17:49.002Z</time></trkpt><trkpt lat="43.16555350310355" lon="11.585175848027797"><ele>348.4285714285714</ele><time>2026-04-11T16:17:50.002Z</time></trkpt><trkpt lat="43.165480223847986" lon="11.585177016794129"><ele>347.85714285714283</ele><time>2026-04-11T16:17:51.002Z</time></trkpt><trkpt lat="43.16540620358339" lon="11.585167190798243"><ele>347.2857142857143</ele><time>2026-04-11T16:17:52.002Z</time></trkpt><trkpt lat="43.165340060152786" lon="11.58513743174793"><ele>346.71428571428567</ele><time>2026-04-11T16:17:53.002Z</time></trkpt><trkpt lat="43.165276964802885" lon="11.58509640939564"><ele>346.1428571428571</ele><time>2026-04-11T16:17:54.002Z</time></trkpt><trkpt lat="43.165215712889584" lon="11.58504652769602"><ele>345.57142857142856</ele><time>2026-04-11T16:17:55.002Z</time></trkpt><trkpt lat="43.16515147427752" lon="11.585000373807466"><ele>345.0</ele><time>2026-04-11T16:17:56.002Z</time></trkpt><trkpt lat="43.16508790283465" lon="11.584958450701896"><ele>345.0</ele><time>2026-04-11T16:17:57.002Z</time></trkpt><trkpt lat="43.1650261009405" lon="11.58490773767574"><ele>345.0</ele><time>2026-04-11T16:17:58.002Z</time></trkpt><trkpt lat="43.16496494573339" lon="11.584857094653643"><ele>345.0</ele><time>2026-04-11T16:17:59.002Z</time></trkpt><trkpt lat="43.16490398542831" lon="11.58481769108985"><ele>345.0</ele><time>2026-04-11T16:18:00.002Z</time></trkpt><trkpt lat="43.16484104529593" lon="11.584781696050817"><ele>345.0</ele><time>2026-04-11T16:18:01.003Z</time></trkpt><trkpt lat="43.16477671067612" lon="11.584755922077992"><ele>345.0</ele><time>2026-04-11T16:18:02.003Z</time></trkpt><trkpt lat="43.1647059546807" lon="11.58474052690952"><ele>345.0</ele><time>2026-04-11T16:18:03.003Z</time></trkpt><trkpt lat="43.1646399597326" lon="11.584766151801505"><ele>345.57142857142856</ele><time>2026-04-11T16:18:04.003Z</time></trkpt><trkpt lat="43.16457413630544" lon="11.584801456797479"><ele>346.1428571428571</ele><time>2026-04-11T16:18:05.003Z</time></trkpt><trkpt lat="43.16451446065614" lon="11.584832123694335"><ele>346.71428571428567</ele><time>2026-04-11T16:18:06.003Z</time></trkpt><trkpt lat="43.16444375512048" lon="11.584852194948558"><ele>347.2857142857143</ele><time>2026-04-11T16:18:07.003Z</time></trkpt><trkpt lat="43.1643840029776" lon="11.584886120277465"><ele>347.85714285714283</ele><time>2026-04-11T16:18:08.003Z</time></trkpt><trkpt lat="43.16431547013308" lon="11.584917556024863"><ele>348.4285714285714</ele><time>2026-04-11T16:18:09.003Z</time></trkpt><trkpt lat="43.164247164303426" lon="11.584941732374629"><ele>349.0</ele><time>2026-04-11T16:18:10.003Z</time></trkpt><trkpt lat="43.16417620030864" lon="11.584957143308504"><ele>348.99999999999994</ele><time>2026-04-11T16:18:11.003Z</time></trkpt><trkpt lat="43.16410372789843" lon="11.584972235844285"><ele>349.0</ele><time>2026-04-11T16:18:12.003Z</time></trkpt><trkpt lat="43.164031735708235" lon="11.584978501392051"><ele>349.0</ele><time>2026-04-11T16:18:13.003Z</time></trkpt><trkpt lat="43.16396205480138" lon="11.584990702777812"><ele>349.0</ele><time>2026-04-11T16:18:14.003Z</time></trkpt><trkpt lat="43.16389417323364" lon="11.584988986939798"><ele>349.0</ele><time>2026-04-11T16:18:15.003Z</time></trkpt><trkpt lat="43.16382221551043" lon="11.584985896073626"><ele>348.99999999999994</ele><time>2026-04-11T16:18:16.003Z</time></trkpt><trkpt lat="43.16375010569267" lon="11.584982354079711"><ele>349.0</ele><time>2026-04-11T16:18:17.003Z</time></trkpt><trkpt lat="43.163677377868545" lon="11.584981499414587"><ele>348.8333333333333</ele><time>2026-04-11T16:18:18.003Z</time></trkpt><trkpt lat="43.16360304580778" lon="11.584993344260406"><ele>348.66666666666663</ele><time>2026-04-11T16:18:19.003Z</time></trkpt><trkpt lat="43.16352341274844" lon="11.58500918194804"><ele>348.5</ele><time>2026-04-11T16:18:20.003Z</time></trkpt><trkpt lat="43.16344722071537" lon="11.585002348637145"><ele>348.3333333333333</ele><time>2026-04-11T16:18:21.003Z</time></trkpt><trkpt lat="43.16337058618626" lon="11.585002487416217"><ele>348.1666666666667</ele><time>2026-04-11T16:18:22.003Z</time></trkpt><trkpt lat="43.16328897516844" lon="11.5849957143819"><ele>348.0</ele><time>2026-04-11T16:18:23.003Z</time></trkpt><trkpt lat="43.16320760624084" lon="11.584981725830115"><ele>347.3333333333333</ele><time>2026-04-11T16:18:24.003Z</time></trkpt><trkpt lat="43.16312995401119" lon="11.584986124839158"><ele>346.6666666666667</ele><time>2026-04-11T16:18:25.003Z</time></trkpt><trkpt lat="43.16304572887922" lon="11.584985166063916"><ele>346.0</ele><time>2026-04-11T16:18:26.003Z</time></trkpt><trkpt lat="43.162959932805165" lon="11.584989109067584"><ele>345.33333333333337</ele><time>2026-04-11T16:18:27.003Z</time></trkpt><trkpt lat="43.16287334024329" lon="11.58499172981109"><ele>344.6666666666667</ele><time>2026-04-11T16:18:28.003Z</time></trkpt><trkpt lat="43.162788466977794" lon="11.585001764461389"><ele>344.0</ele><time>2026-04-11T16:18:29.003Z</time></trkpt><trkpt lat="43.162703018497815" lon="11.585014268831287"><ele>344.0</ele><time>2026-04-11T16:18:30Z</time></trkpt><trkpt lat="43.16261783782745" lon="11.585031148290877"><ele>344.0</ele><time>2026-04-11T16:18:31Z</time></trkpt><trkpt lat="43.16253355134595" lon="11.58505682214396"><ele>344.0</ele><time>2026-04-11T16:18:32Z</time></trkpt><trkpt lat="43.16244730127071" lon="11.585087453018398"><ele>344.0</ele><time>2026-04-11T16:18:33Z</time></trkpt><trkpt lat="43.16235986238589" lon="11.585111010338224"><ele>344.0</ele><time>2026-04-11T16:18:34Z</time></trkpt><trkpt lat="43.16227214184926" lon="11.585140112769109"><ele>344.0</ele><time>2026-04-11T16:18:35Z</time></trkpt><trkpt lat="43.16218256164324" lon="11.585175673842041"><ele>343.0</ele><time>2026-04-11T16:18:36Z</time></trkpt><trkpt lat="43.16208865178922" lon="11.585205548387837"><ele>342.0</ele><time>2026-04-11T16:18:37Z</time></trkpt><trkpt lat="43.16200551837211" lon="11.585237555973862"><ele>341.0</ele><time>2026-04-11T16:18:38Z</time></trkpt><trkpt lat="43.161906199975164" lon="11.585296622668006"><ele>340.0</ele><time>2026-04-11T16:18:39Z</time></trkpt><trkpt lat="43.16181767487653" lon="11.585368784994554"><ele>339.0</ele><time>2026-04-11T16:18:40Z</time></trkpt><trkpt lat="43.16173491701858" lon="11.58544597702282"><ele>339.0</ele><time>2026-04-11T16:18:41Z</time></trkpt><trkpt lat="43.16165256275406" lon="11.585521571552128"><ele>339.0</ele><time>2026-04-11T16:18:42Z</time></trkpt><trkpt lat="43.161581474119394" lon="11.585591399552298"><ele>339.0</ele><time>2026-04-11T16:18:43Z</time></trkpt><trkpt lat="43.16148346177506" lon="11.585644682873232"><ele>339.0</ele><time>2026-04-11T16:18:44Z</time></trkpt><trkpt lat="43.16138057870333" lon="11.585684569224435"><ele>339.0</ele><time>2026-04-11T16:18:45Z</time></trkpt><trkpt lat="43.16126702741388" lon="11.585683220108272"><ele>336.25</ele><time>2026-04-11T16:18:46Z</time></trkpt><trkpt lat="43.16115176206026" lon="11.585682908015162"><ele>333.5</ele><time>2026-04-11T16:18:47Z</time></trkpt><trkpt lat="43.16103045405953" lon="11.585688504061341"><ele>330.75</ele><time>2026-04-11T16:18:48Z</time></trkpt><trkpt lat="43.16090156136759" lon="11.585708314407455"><ele>328.0</ele><time>2026-04-11T16:18:49Z</time></trkpt><trkpt lat="43.160774088239194" lon="11.585732395275885"><ele>326.5</ele><time>2026-04-11T16:18:50Z</time></trkpt><trkpt lat="43.160642443340336" lon="11.585760388916368"><ele>325.0</ele><time>2026-04-11T16:18:51Z</time></trkpt><trkpt lat="43.16050905165261" lon="11.585792148156223"><ele>323.5</ele><time>2026-04-11T16:18:52Z</time></trkpt><trkpt lat="43.160377277359984" lon="11.585839701324907"><ele>322.0</ele><time>2026-04-11T16:18:53Z</time></trkpt><trkpt lat="43.16024775069908" lon="11.585891615287503"><ele>322.0</ele><time>2026-04-11T16:18:54Z</time></trkpt><trkpt lat="43.160123290096465" lon="11.58594464951775"><ele>322.0</ele><time>2026-04-11T16:18:55Z</time></trkpt><trkpt lat="43.1600048989083" lon="11.586007245537058"><ele>322.0</ele><time>2026-04-11T16:18:56.001Z</time></trkpt><trkpt lat="43.15989117642513" lon="11.58607033725459"><ele>322.0</ele><time>2026-04-11T16:18:57.001Z</time></trkpt><trkpt lat="43.15977783087815" lon="11.586132414287212"><ele>321.0</ele><time>2026-04-11T16:18:58.001Z</time></trkpt><trkpt lat="43.159666257000694" lon="11.586191295337253"><ele>320.0</ele><time>2026-04-11T16:18:59.001Z</time></trkpt><trkpt lat="43.159558635321254" lon="11.58624799220942"><ele>319.0</ele><time>2026-04-11T16:19:00.001Z</time></trkpt><trkpt lat="43.15945262778252" lon="11.586306641217316"><ele>318.0</ele><time>2026-04-11T16:19:01.001Z</time></trkpt><trkpt lat="43.15934934739795" lon="11.586371402973201"><ele>318.0</ele><time>2026-04-11T16:19:02.001Z</time></trkpt><trkpt lat="43.15925518263371" lon="11.586452967435653"><ele>318.0</ele><time>2026-04-11T16:19:03.001Z</time></trkpt><trkpt lat="43.159161353775595" lon="11.586544189961339"><ele>318.0</ele><time>2026-04-11T16:19:04.001Z</time></trkpt><trkpt lat="43.15907132124281" lon="11.586639182217827"><ele>318.0</ele><time>2026-04-11T16:19:05.001Z</time></trkpt><trkpt lat="43.15899177506808" lon="11.58674444676536"><ele>318.4</ele><time>2026-04-11T16:19:06.001Z</time></trkpt><trkpt lat="43.15891940590541" lon="11.58685683809985"><ele>318.8</ele><time>2026-04-11T16:19:07.001Z</time></trkpt><trkpt lat="43.15884373249374" lon="11.586977602407963"><ele>319.2</ele><time>2026-04-11T16:19:08.001Z</time></trkpt><trkpt lat="43.158781234547746" lon="11.587102885761977"><ele>319.6</ele><time>2026-04-11T16:19:09.001Z</time></trkpt><trkpt lat="43.15872085648041" lon="11.587234185330487"><ele>320.0</ele><time>2026-04-11T16:19:10.001Z</time></trkpt><trkpt lat="43.15866329359013" lon="11.587358649779668"><ele>320.0</ele><time>2026-04-11T16:19:11.001Z</time></trkpt><trkpt lat="43.15860968407981" lon="11.587483620208502"><ele>320.0</ele><time>2026-04-11T16:19:12.001Z</time></trkpt><trkpt lat="43.158553770500774" lon="11.587600993035249"><ele>320.0</ele><time>2026-04-11T16:19:13.001Z</time></trkpt><trkpt lat="43.158498079204215" lon="11.587715355481958"><ele>320.0</ele><time>2026-04-11T16:19:14.001Z</time></trkpt><trkpt lat="43.158426985021364" lon="11.587816029110863"><ele>320.0</ele><time>2026-04-11T16:19:15.001Z</time></trkpt><trkpt lat="43.15835268959846" lon="11.587876722702394"><ele>320.8</ele><time>2026-04-11T16:19:16.001Z</time></trkpt><trkpt lat="43.15826458878693" lon="11.587936949037294"><ele>321.6</ele><time>2026-04-11T16:19:17.001Z</time></trkpt><trkpt lat="43.15817648678952" lon="11.587995005772251"><ele>322.4</ele><time>2026-04-11T16:19:18.001Z</time></trkpt><trkpt lat="43.158094687631284" lon="11.588027081855225"><ele>323.2</ele><time>2026-04-11T16:19:19.001Z</time></trkpt><trkpt lat="43.15801274048912" lon="11.58806300339474"><ele>324.0</ele><time>2026-04-11T16:19:20.001Z</time></trkpt><trkpt lat="43.157929411080126" lon="11.588098334026238"><ele>324.1666666666667</ele><time>2026-04-11T16:19:21.001Z</time></trkpt><trkpt lat="43.1578377299588" lon="11.588097509578645"><ele>324.3333333333333</ele><time>2026-04-11T16:19:22.001Z</time></trkpt><trkpt lat="43.15775996776128" lon="11.588099863453182"><ele>324.5</ele><time>2026-04-11T16:19:23.001Z</time></trkpt><trkpt lat="43.157683665480505" lon="11.588094659544115"><ele>324.66666666666663</ele><time>2026-04-11T16:19:24.001Z</time></trkpt><trkpt lat="43.15761206436332" lon="11.588059620882897"><ele>324.8333333333333</ele><time>2026-04-11T16:19:25.001Z</time></trkpt><trkpt lat="43.157537396249694" lon="11.588046552092639"><ele>325.0</ele><time>2026-04-11T16:19:26.001Z</time></trkpt><trkpt lat="43.15747069111999" lon="11.58801500050547"><ele>325.0</ele><time>2026-04-11T16:19:27.001Z</time></trkpt><trkpt lat="43.15740846784308" lon="11.587996472005688"><ele>325.0</ele><time>2026-04-11T16:19:28.001Z</time></trkpt><trkpt lat="43.15729278475295" lon="11.587942448814022"><ele>325.0</ele><time>2026-04-11T16:19:30.001Z</time></trkpt><trkpt lat="43.157194788740384" lon="11.587865403896329"><ele>325.0</ele><time>2026-04-11T16:19:32.002Z</time></trkpt><trkpt lat="43.15709774389116" lon="11.587827266360165"><ele>325.0</ele><time>2026-04-11T16:19:34.002Z</time></trkpt><trkpt lat="43.15700378708854" lon="11.587812546019997"><ele>324.0</ele><time>2026-04-11T16:19:36.002Z</time></trkpt><trkpt lat="43.156919444531134" lon="11.587768842239909"><ele>323.0</ele><time>2026-04-11T16:19:38.002Z</time></trkpt><trkpt lat="43.15683534000677" lon="11.587714467388562"><ele>322.0</ele><time>2026-04-11T16:19:40.002Z</time></trkpt><trkpt lat="43.15673896856879" lon="11.587685836327745"><ele>321.0</ele><time>2026-04-11T16:19:42.002Z</time></trkpt><trkpt lat="43.15663551420363" lon="11.587654929474018"><ele>320.0</ele><time>2026-04-11T16:19:44.002Z</time></trkpt><trkpt lat="43.15653292182611" lon="11.587629552780694"><ele>319.5</ele><time>2026-04-11T16:19:46.002Z</time></trkpt><trkpt lat="43.15647081480294" lon="11.587601081341964"><ele>319.0</ele><time>2026-04-11T16:19:47.002Z</time></trkpt><trkpt lat="43.15640436401016" lon="11.587597009010747"><ele>318.5</ele><time>2026-04-11T16:19:48.002Z</time></trkpt><trkpt lat="43.156342428364816" lon="11.58758125493684"><ele>318.0</ele><time>2026-04-11T16:19:49.002Z</time></trkpt><trkpt lat="43.15622274433946" lon="11.587587872244352"><ele>317.5</ele><time>2026-04-11T16:19:51.002Z</time></trkpt><trkpt lat="43.15610828795195" lon="11.58761789184077"><ele>317.0</ele><time>2026-04-11T16:19:53.002Z</time></trkpt><trkpt lat="43.1559996417124" lon="11.587649594810632"><ele>317.0</ele><time>2026-04-11T16:19:55.002Z</time></trkpt><trkpt lat="43.15588539801695" lon="11.587674006442702"><ele>317.0</ele><time>2026-04-11T16:19:57.002Z</time></trkpt><trkpt lat="43.1557724125257" lon="11.587702209427968"><ele>317.0</ele><time>2026-04-11T16:19:59.002Z</time></trkpt><trkpt lat="43.15566459196058" lon="11.587737880557365"><ele>317.0</ele><time>2026-04-11T16:20:01.002Z</time></trkpt><trkpt lat="43.155572873016695" lon="11.587816522322907"><ele>317.4</ele><time>2026-04-11T16:20:03.002Z</time></trkpt><trkpt lat="43.155515289854456" lon="11.587930982492335"><ele>317.79999999999995</ele><time>2026-04-11T16:20:05.002Z</time></trkpt><trkpt lat="43.155440634792164" lon="11.588050334156721"><ele>318.2</ele><time>2026-04-11T16:20:07.003Z</time></trkpt><trkpt lat="43.155374832305895" lon="11.588169063565726"><ele>318.59999999999997</ele><time>2026-04-11T16:20:09.003Z</time></trkpt><trkpt lat="43.15528576728115" lon="11.588280127901086"><ele>319.0</ele><time>2026-04-11T16:20:11.003Z</time></trkpt><trkpt lat="43.155223834449274" lon="11.588395872695697"><ele>319.0</ele><time>2026-04-11T16:20:13.003Z</time></trkpt><trkpt lat="43.15515775566858" lon="11.588513849908631"><ele>319.0</ele><time>2026-04-11T16:20:15.003Z</time></trkpt><trkpt lat="43.15511202413446" lon="11.588577712398312"><ele>319.0</ele><time>2026-04-11T16:20:16.003Z</time></trkpt><trkpt lat="43.155066649233156" lon="11.58864507249488"><ele>319.0</ele><time>2026-04-11T16:20:17.003Z</time></trkpt><trkpt lat="43.154987546938536" lon="11.588768542221581"><ele>319.0</ele><time>2026-04-11T16:20:19.003Z</time></trkpt><trkpt lat="43.154945860049615" lon="11.588834172491666"><ele>319.0</ele><time>2026-04-11T16:20:20.003Z</time></trkpt><trkpt lat="43.15489286471727" lon="11.588889299929965"><ele>318.8333333333333</ele><time>2026-04-11T16:20:21.003Z</time></trkpt><trkpt lat="43.15483556484143" lon="11.588933428241315"><ele>318.66666666666663</ele><time>2026-04-11T16:20:22.003Z</time></trkpt><trkpt lat="43.15477799927285" lon="11.588971804854083"><ele>318.5</ele><time>2026-04-11T16:20:23.003Z</time></trkpt><trkpt lat="43.15471816879877" lon="11.58901077261029"><ele>318.3333333333333</ele><time>2026-04-11T16:20:24.003Z</time></trkpt><trkpt lat="43.15465667954285" lon="11.589033667978867"><ele>318.1666666666667</ele><time>2026-04-11T16:20:25.003Z</time></trkpt><trkpt lat="43.15453841005672" lon="11.58907614796187"><ele>318.0</ele><time>2026-04-11T16:20:27.003Z</time></trkpt><trkpt lat="43.15441697467578" lon="11.589122099229634"><ele>318.0</ele><time>2026-04-11T16:20:29.003Z</time></trkpt><trkpt lat="43.15434972426533" lon="11.58914943303665"><ele>318.0</ele><time>2026-04-11T16:20:30.003Z</time></trkpt><trkpt lat="43.15428424019616" lon="11.589172039718079"><ele>318.0</ele><time>2026-04-11T16:20:31.003Z</time></trkpt><trkpt lat="43.15421915912622" lon="11.589197152420507"><ele>318.0</ele><time>2026-04-11T16:20:32.003Z</time></trkpt><trkpt lat="43.15416249447744" lon="11.589251763967612"><ele>318.0</ele><time>2026-04-11T16:20:33.003Z</time></trkpt><trkpt lat="43.15410252184646" lon="11.589291178498247"><ele>318.0</ele><time>2026-04-11T16:20:34.003Z</time></trkpt><trkpt lat="43.154039575575325" lon="11.589326874881014"><ele>318.0</ele><time>2026-04-11T16:20:35.003Z</time></trkpt><trkpt lat="43.153972813104005" lon="11.589369801448075"><ele>317.8333333333333</ele><time>2026-04-11T16:20:36Z</time></trkpt><trkpt lat="43.153901617137564" lon="11.589415088695192"><ele>317.6666666666667</ele><time>2026-04-11T16:20:37Z</time></trkpt><trkpt lat="43.15382940597909" lon="11.589430058505021"><ele>317.5</ele><time>2026-04-11T16:20:38Z</time></trkpt><trkpt lat="43.153749297123774" lon="11.589455072208326"><ele>317.33333333333337</ele><time>2026-04-11T16:20:39Z</time></trkpt><trkpt lat="43.153663888669826" lon="11.589477505497968"><ele>317.1666666666667</ele><time>2026-04-11T16:20:40Z</time></trkpt><trkpt lat="43.15358676139086" lon="11.58951602955357"><ele>317.0</ele><time>2026-04-11T16:20:41Z</time></trkpt><trkpt lat="43.1535255205341" lon="11.589546424957758"><ele>317.0</ele><time>2026-04-11T16:20:42Z</time></trkpt><trkpt lat="43.153468712245896" lon="11.589595242281925"><ele>317.0</ele><time>2026-04-11T16:20:43Z</time></trkpt><trkpt lat="43.15342265758657" lon="11.589668215255008"><ele>317.0</ele><time>2026-04-11T16:20:44Z</time></trkpt><trkpt lat="43.1533845277798" lon="11.589839027410514"><ele>317.0</ele><time>2026-04-11T16:20:46Z</time></trkpt><trkpt lat="43.153399388745505" lon="11.589923250040119"><ele>317.0</ele><time>2026-04-11T16:20:47Z</time></trkpt><trkpt lat="43.15342698993866" lon="11.59000188595761"><ele>317.0</ele><time>2026-04-11T16:20:48Z</time></trkpt><trkpt lat="43.1534697304112" lon="11.590073309327767"><ele>317.0</ele><time>2026-04-11T16:20:49Z</time></trkpt><trkpt lat="43.15352535763104" lon="11.590128941947182"><ele>317.0</ele><time>2026-04-11T16:20:50Z</time></trkpt><trkpt lat="43.15357727544247" lon="11.590197053230485"><ele>317.0</ele><time>2026-04-11T16:20:51Z</time></trkpt><trkpt lat="43.15363066447505" lon="11.590269445704056"><ele>317.0</ele><time>2026-04-11T16:20:52Z</time></trkpt><trkpt lat="43.15368577227109" lon="11.590353059067908"><ele>317.0</ele><time>2026-04-11T16:20:53Z</time></trkpt><trkpt lat="43.15374107772172" lon="11.590436123519952"><ele>317.0</ele><time>2026-04-11T16:20:54Z</time></trkpt><trkpt lat="43.153781853236765" lon="11.590533651235072"><ele>315.33333333333337</ele><time>2026-04-11T16:20:55Z</time></trkpt><trkpt lat="43.15380932915976" lon="11.590638039955655"><ele>313.6666666666667</ele><time>2026-04-11T16:20:56Z</time></trkpt><trkpt lat="43.153815962426606" lon="11.590755493552821"><ele>312.0</ele><time>2026-04-11T16:20:57Z</time></trkpt><trkpt lat="43.15381543243005" lon="11.590877705984717"><ele>310.3333333333333</ele><time>2026-04-11T16:20:58Z</time></trkpt><trkpt lat="43.15380987169695" lon="11.590987048284715"><ele>308.66666666666663</ele><time>2026-04-11T16:20:59Z</time></trkpt><trkpt lat="43.153793350838974" lon="11.591082520408573"><ele>307.0</ele><time>2026-04-11T16:21:00.001Z</time></trkpt><trkpt lat="43.15375299283266" lon="11.591156482019958"><ele>307.0</ele><time>2026-04-11T16:21:01.001Z</time></trkpt><trkpt lat="43.153691027242516" lon="11.591182066924535"><ele>307.0</ele><time>2026-04-11T16:21:02.001Z</time></trkpt><trkpt lat="43.15360099676079" lon="11.591162050761485"><ele>307.0</ele><time>2026-04-11T16:21:03.001Z</time></trkpt><trkpt lat="43.15352191968323" lon="11.59113509404483"><ele>307.0</ele><time>2026-04-11T16:21:04.001Z</time></trkpt><trkpt lat="43.15343812173095" lon="11.591122296355408"><ele>307.0</ele><time>2026-04-11T16:21:05.001Z</time></trkpt><trkpt lat="43.153351340633634" lon="11.591105283695438"><ele>307.0</ele><time>2026-04-11T16:21:06.001Z</time></trkpt><trkpt lat="43.153257662133775" lon="11.591089127672332"><ele>305.8</ele><time>2026-04-11T16:21:07.001Z</time></trkpt><trkpt lat="43.153162928084384" lon="11.59107185717254"><ele>304.6</ele><time>2026-04-11T16:21:08.001Z</time></trkpt><trkpt lat="43.153061417039346" lon="11.591064025900554"><ele>303.40000000000003</ele><time>2026-04-11T16:21:09.001Z</time></trkpt><trkpt lat="43.15295702461147" lon="11.591049232114521"><ele>302.2</ele><time>2026-04-11T16:21:10.001Z</time></trkpt><trkpt lat="43.152853041240306" lon="11.591037450187995"><ele>301.0</ele><time>2026-04-11T16:21:11.001Z</time></trkpt><trkpt lat="43.15274675143992" lon="11.591016435919702"><ele>301.0</ele><time>2026-04-11T16:21:12.001Z</time></trkpt><trkpt lat="43.15263833093664" lon="11.59099305066796"><ele>301.0</ele><time>2026-04-11T16:21:13.001Z</time></trkpt><trkpt lat="43.152522986586035" lon="11.590969371451685"><ele>301.0</ele><time>2026-04-11T16:21:14.001Z</time></trkpt><trkpt lat="43.152407872886556" lon="11.59094314765058"><ele>301.0</ele><time>2026-04-11T16:21:15.001Z</time></trkpt><trkpt lat="43.15229583338352" lon="11.590914213411388"><ele>296.6</ele><time>2026-04-11T16:21:16.001Z</time></trkpt><trkpt lat="43.15219850785861" lon="11.590875833036016"><ele>292.20000000000005</ele><time>2026-04-11T16:21:17.001Z</time></trkpt><trkpt lat="43.15210503027882" lon="11.590835350975015"><ele>287.79999999999995</ele><time>2026-04-11T16:21:18.001Z</time></trkpt><trkpt lat="43.15202193653801" lon="11.590767966551994"><ele>283.4</ele><time>2026-04-11T16:21:19.001Z</time></trkpt><trkpt lat="43.151951153590616" lon="11.590670235204257"><ele>279.0</ele><time>2026-04-11T16:21:20.001Z</time></trkpt><trkpt lat="43.15189983642421" lon="11.590548330242486"><ele>279.0</ele><time>2026-04-11T16:21:21.001Z</time></trkpt><trkpt lat="43.15186938723962" lon="11.590411956331893"><ele>279.0</ele><time>2026-04-11T16:21:22.001Z</time></trkpt><trkpt lat="43.151846897489705" lon="11.590273849926945"><ele>279.0</ele><time>2026-04-11T16:21:23.001Z</time></trkpt><trkpt lat="43.151838913624495" lon="11.590133729736534"><ele>279.0</ele><time>2026-04-11T16:21:24.001Z</time></trkpt><trkpt lat="43.15184507455061" lon="11.5899974337864"><ele>279.0</ele><time>2026-04-11T16:21:25.001Z</time></trkpt><trkpt lat="43.151861286097855" lon="11.589864757041799"><ele>278.59999999999997</ele><time>2026-04-11T16:21:26.001Z</time></trkpt><trkpt lat="43.15189037837437" lon="11.589731785417333"><ele>278.2</ele><time>2026-04-11T16:21:27.001Z</time></trkpt><trkpt lat="43.15192019003196" lon="11.589592487223513"><ele>277.79999999999995</ele><time>2026-04-11T16:21:28.001Z</time></trkpt><trkpt lat="43.151944795088816" lon="11.589457608548337"><ele>277.4</ele><time>2026-04-11T16:21:29.001Z</time></trkpt><trkpt lat="43.15194573913017" lon="11.589315205062139"><ele>277.0</ele><time>2026-04-11T16:21:30.001Z</time></trkpt><trkpt lat="43.15192697146731" lon="11.589182875803447"><ele>277.0</ele><time>2026-04-11T16:21:31.001Z</time></trkpt><trkpt lat="43.15189728877035" lon="11.58906306222688"><ele>277.0</ele><time>2026-04-11T16:21:32.001Z</time></trkpt><trkpt lat="43.151853006527766" lon="11.588950617658744"><ele>277.0</ele><time>2026-04-11T16:21:33.001Z</time></trkpt><trkpt lat="43.15180895441615" lon="11.588831373405393"><ele>277.0</ele><time>2026-04-11T16:21:34.001Z</time></trkpt><trkpt lat="43.15176135484963" lon="11.588712980842772"><ele>277.0</ele><time>2026-04-11T16:21:35.001Z</time></trkpt><trkpt lat="43.151713720473666" lon="11.588592796773202"><ele>276.8</ele><time>2026-04-11T16:21:36.001Z</time></trkpt><trkpt lat="43.15166674498771" lon="11.58847800326155"><ele>276.6</ele><time>2026-04-11T16:21:37.001Z</time></trkpt><trkpt lat="43.15161551836807" lon="11.588366165958488"><ele>276.40000000000003</ele><time>2026-04-11T16:21:38.002Z</time></trkpt><trkpt lat="43.15156397560569" lon="11.588251603004691"><ele>276.2</ele><time>2026-04-11T16:21:39.002Z</time></trkpt><trkpt lat="43.15151275976023" lon="11.588142777855273"><ele>276.0</ele><time>2026-04-11T16:21:40.002Z</time></trkpt><trkpt lat="43.151463162711764" lon="11.588026359730545"><ele>275.2</ele><time>2026-04-11T16:21:41.002Z</time></trkpt><trkpt lat="43.151422161024925" lon="11.587908538484038"><ele>274.40000000000003</ele><time>2026-04-11T16:21:42.002Z</time></trkpt><trkpt lat="43.1513765998915" lon="11.587797642357136"><ele>273.6</ele><time>2026-04-11T16:21:43.002Z</time></trkpt><trkpt lat="43.151326889152855" lon="11.587687620138166"><ele>272.8</ele><time>2026-04-11T16:21:44.002Z</time></trkpt><trkpt lat="43.15128333280227" lon="11.587574352477754"><ele>272.0</ele><time>2026-04-11T16:21:45.002Z</time></trkpt><trkpt lat="43.1512404221204" lon="11.587465342424565"><ele>271.83333333333337</ele><time>2026-04-11T16:21:46.002Z</time></trkpt><trkpt lat="43.15119463708756" lon="11.587356887053415"><ele>271.6666666666667</ele><time>2026-04-11T16:21:47.002Z</time></trkpt><trkpt lat="43.151147841195055" lon="11.58724486825612"><ele>271.5</ele><time>2026-04-11T16:21:48.002Z</time></trkpt><trkpt lat="43.151103913306066" lon="11.58713889531613"><ele>271.3333333333333</ele><time>2026-04-11T16:21:49.002Z</time></trkpt><trkpt lat="43.15106341659158" lon="11.587033994315634"><ele>271.16666666666663</ele><time>2026-04-11T16:21:50.002Z</time></trkpt><trkpt lat="43.151022443578405" lon="11.586928274153026"><ele>271.0</ele><time>2026-04-11T16:21:51.002Z</time></trkpt><trkpt lat="43.150975976569605" lon="11.586827977777292"><ele>271.0</ele><time>2026-04-11T16:21:52.002Z</time></trkpt><trkpt lat="43.15092951706702" lon="11.586728443848514"><ele>271.0</ele><time>2026-04-11T16:21:53.002Z</time></trkpt><trkpt lat="43.15089287799352" lon="11.586625785456869"><ele>271.0</ele><time>2026-04-11T16:21:54.002Z</time></trkpt><trkpt lat="43.1508523600535" lon="11.586527036814585"><ele>271.0</ele><time>2026-04-11T16:21:55.002Z</time></trkpt><trkpt lat="43.150808269147284" lon="11.586432051665243"><ele>271.0</ele><time>2026-04-11T16:21:56.002Z</time></trkpt><trkpt lat="43.15076531305515" lon="11.586335080118381"><ele>271.0</ele><time>2026-04-11T16:21:57.002Z</time></trkpt><trkpt lat="43.15072904373563" lon="11.586235121911326"><ele>270.8333333333333</ele><time>2026-04-11T16:21:58.002Z</time></trkpt><trkpt lat="43.1506917061155" lon="11.586134109724439"><ele>270.66666666666663</ele><time>2026-04-11T16:21:59.002Z</time></trkpt><trkpt lat="43.15065436322219" lon="11.586037591654714"><ele>270.5</ele><time>2026-04-11T16:22:00.002Z</time></trkpt><trkpt lat="43.15061677168542" lon="11.58594100044938"><ele>270.3333333333333</ele><time>2026-04-11T16:22:01.002Z</time></trkpt><trkpt lat="43.15058020511395" lon="11.58584308606531"><ele>270.1666666666667</ele><time>2026-04-11T16:22:02.002Z</time></trkpt><trkpt lat="43.15054339378254" lon="11.585744142989654"><ele>270.0</ele><time>2026-04-11T16:22:03.002Z</time></trkpt><trkpt lat="43.15050777746226" lon="11.585647745677798"><ele>270.0</ele><time>2026-04-11T16:22:04.002Z</time></trkpt><trkpt lat="43.15047389567896" lon="11.585547219741901"><ele>270.0</ele><time>2026-04-11T16:22:05.002Z</time></trkpt><trkpt lat="43.150439824253496" lon="11.58544618766791"><ele>270.0</ele><time>2026-04-11T16:22:06.002Z</time></trkpt><trkpt lat="43.15040440012476" lon="11.585344236913595"><ele>270.0</ele><time>2026-04-11T16:22:07.002Z</time></trkpt><trkpt lat="43.1503689084396" lon="11.585241014881953"><ele>270.0</ele><time>2026-04-11T16:22:08.002Z</time></trkpt><trkpt lat="43.150332539784905" lon="11.58513836818461"><ele>270.0</ele><time>2026-04-11T16:22:09.002Z</time></trkpt><trkpt lat="43.15029803365641" lon="11.585032671690774"><ele>270.0</ele><time>2026-04-11T16:22:10.002Z</time></trkpt><trkpt lat="43.15026302083169" lon="11.584927130823168"><ele>270.0</ele><time>2026-04-11T16:22:11.002Z</time></trkpt><trkpt lat="43.15022601503429" lon="11.584820044464964"><ele>270.0</ele><time>2026-04-11T16:22:12.002Z</time></trkpt><trkpt lat="43.150193997917164" lon="11.584712115695096"><ele>270.0</ele><time>2026-04-11T16:22:13.002Z</time></trkpt><trkpt lat="43.15015624431982" lon="11.584600202359825"><ele>270.0</ele><time>2026-04-11T16:22:14.003Z</time></trkpt><trkpt lat="43.15012072287639" lon="11.584493228592022"><ele>270.0</ele><time>2026-04-11T16:22:15.003Z</time></trkpt><trkpt lat="43.15008741534683" lon="11.584377885761828"><ele>270.0</ele><time>2026-04-11T16:22:16.003Z</time></trkpt><trkpt lat="43.15004561636557" lon="11.584268612343106"><ele>270.0</ele><time>2026-04-11T16:22:17.003Z</time></trkpt><trkpt lat="43.14999633042985" lon="11.584164728032654"><ele>270.0</ele><time>2026-04-11T16:22:18.003Z</time></trkpt><trkpt lat="43.14993180694746" lon="11.584066718050986"><ele>270.0</ele><time>2026-04-11T16:22:19.003Z</time></trkpt><trkpt lat="43.14985921496944" lon="11.583978085820185"><ele>270.0</ele><time>2026-04-11T16:22:20.003Z</time></trkpt><trkpt lat="43.149780144950604" lon="11.583895320877337"><ele>270.2</ele><time>2026-04-11T16:22:21.003Z</time></trkpt><trkpt lat="43.14971403691467" lon="11.583804996441334"><ele>270.4</ele><time>2026-04-11T16:22:22.003Z</time></trkpt><trkpt lat="43.14964004381483" lon="11.583722407009185"><ele>270.6</ele><time>2026-04-11T16:22:23.003Z</time></trkpt><trkpt lat="43.14956932380945" lon="11.583647929248471"><ele>270.8</ele><time>2026-04-11T16:22:24.003Z</time></trkpt><trkpt lat="43.14949907835931" lon="11.58358024032557"><ele>271.0</ele><time>2026-04-11T16:22:25.003Z</time></trkpt><trkpt lat="43.149431891517516" lon="11.583505081648832"><ele>271.0</ele><time>2026-04-11T16:22:26.003Z</time></trkpt><trkpt lat="43.14936704522262" lon="11.583434473151012"><ele>271.0</ele><time>2026-04-11T16:22:27.003Z</time></trkpt><trkpt lat="43.149296355400004" lon="11.583395284534085"><ele>271.0</ele><time>2026-04-11T16:22:28.003Z</time></trkpt><trkpt lat="43.14922621088384" lon="11.583378685931535"><ele>271.0</ele><time>2026-04-11T16:22:29.003Z</time></trkpt><trkpt lat="43.14915574277092" lon="11.583374695129685"><ele>271.0</ele><time>2026-04-11T16:22:30.003Z</time></trkpt><trkpt lat="43.1490883566716" lon="11.583385295197102"><ele>271.0</ele><time>2026-04-11T16:22:31.003Z</time></trkpt><trkpt lat="43.149024634581316" lon="11.58340340821922"><ele>271.0</ele><time>2026-04-11T16:22:32.003Z</time></trkpt><trkpt lat="43.14896685094412" lon="11.58343834616298"><ele>271.0</ele><time>2026-04-11T16:22:33.003Z</time></trkpt><trkpt lat="43.14885161114797" lon="11.58349058028279"><ele>271.0</ele><time>2026-04-11T16:22:35.003Z</time></trkpt><trkpt lat="43.14874619923214" lon="11.583540069771164"><ele>271.0</ele><time>2026-04-11T16:22:37.003Z</time></trkpt><trkpt lat="43.14863743157956" lon="11.583583912986972"><ele>271.0</ele><time>2026-04-11T16:22:39.003Z</time></trkpt><trkpt lat="43.148538412022816" lon="11.583628964953077"><ele>271.0</ele><time>2026-04-11T16:22:41.003Z</time></trkpt><trkpt lat="43.14844777516131" lon="11.58366204779705"><ele>271.0</ele><time>2026-04-11T16:22:43Z</time></trkpt><trkpt lat="43.14835431076267" lon="11.583681318432768"><ele>271.0</ele><time>2026-04-11T16:22:45Z</time></trkpt><trkpt lat="43.14825903655797" lon="11.583693745533273"><ele>271.0</ele><time>2026-04-11T16:22:47Z</time></trkpt><trkpt lat="43.14816210705018" lon="11.583694160270005"><ele>271.0</ele><time>2026-04-11T16:22:49Z</time></trkpt><trkpt lat="43.148067555539335" lon="11.583681639708082"><ele>271.0</ele><time>2026-04-11T16:22:51Z</time></trkpt><trkpt lat="43.14797070009437" lon="11.58367514145816"><ele>271.0</ele><time>2026-04-11T16:22:53Z</time></trkpt><trkpt lat="43.147871282769096" lon="11.583655374519545"><ele>271.0</ele><time>2026-04-11T16:22:55Z</time></trkpt><trkpt lat="43.147767591813874" lon="11.58363930650314"><ele>271.0</ele><time>2026-04-11T16:22:57Z</time></trkpt><trkpt lat="43.14766336259447" lon="11.583620474185457"><ele>271.0</ele><time>2026-04-11T16:22:59Z</time></trkpt><trkpt lat="43.14755649070426" lon="11.58360855469552"><ele>271.0</ele><time>2026-04-11T16:23:01Z</time></trkpt><trkpt lat="43.14745043279752" lon="11.58358822613446"><ele>271.0</ele><time>2026-04-11T16:23:03.001Z</time></trkpt><trkpt lat="43.14734785473337" lon="11.583569212861303"><ele>271.0</ele><time>2026-04-11T16:23:05.001Z</time></trkpt><trkpt lat="43.14724201638571" lon="11.583554389486551"><ele>271.0</ele><time>2026-04-11T16:23:07.001Z</time></trkpt><trkpt lat="43.147133131337796" lon="11.583529951302866"><ele>271.0</ele><time>2026-04-11T16:23:09.001Z</time></trkpt><trkpt lat="43.14702245932064" lon="11.583508715738212"><ele>271.0</ele><time>2026-04-11T16:23:11.001Z</time></trkpt><trkpt lat="43.14690858538763" lon="11.583492828476398"><ele>271.0</ele><time>2026-04-11T16:23:13.001Z</time></trkpt><trkpt lat="43.14679363705901" lon="11.583474648983774"><ele>271.0</ele><time>2026-04-11T16:23:15.001Z</time></trkpt><trkpt lat="43.146689518700356" lon="11.58346144848446"><ele>271.0</ele><time>2026-04-11T16:23:17.001Z</time></trkpt><trkpt lat="43.14659149184624" lon="11.583444758915594"><ele>271.0</ele><time>2026-04-11T16:23:19.001Z</time></trkpt><trkpt lat="43.14649701376631" lon="11.5834363094489"><ele>271.0</ele><time>2026-04-11T16:23:21.001Z</time></trkpt><trkpt lat="43.14639861528263" lon="11.583413981459193"><ele>271.0</ele><time>2026-04-11T16:23:23.001Z</time></trkpt><trkpt lat="43.14629223815351" lon="11.583393279820843"><ele>271.0</ele><time>2026-04-11T16:23:25.001Z</time></trkpt><trkpt lat="43.14618313545073" lon="11.583374925307222"><ele>271.0</ele><time>2026-04-11T16:23:27.001Z</time></trkpt><trkpt lat="43.14606687926354" lon="11.58335508169253"><ele>271.0</ele><time>2026-04-11T16:23:29.001Z</time></trkpt><trkpt lat="43.14594982517923" lon="11.583333943430064"><ele>271.0</ele><time>2026-04-11T16:23:31.001Z</time></trkpt><trkpt lat="43.145829115765586" lon="11.583313219493801"><ele>271.0</ele><time>2026-04-11T16:23:33.001Z</time></trkpt><trkpt lat="43.14570673264605" lon="11.583282250002437"><ele>271.0</ele><time>2026-04-11T16:23:35.001Z</time></trkpt><trkpt lat="43.145643762021415" lon="11.583266421337724"><ele>271.0</ele><time>2026-04-11T16:23:36.001Z</time></trkpt><trkpt lat="43.14558019467264" lon="11.583250576579783"><ele>271.0</ele><time>2026-04-11T16:23:37.001Z</time></trkpt><trkpt lat="43.14551621111173" lon="11.583233782812869"><ele>271.0</ele><time>2026-04-11T16:23:38.001Z</time></trkpt><trkpt lat="43.145452905137745" lon="11.583216960297941"><ele>270.40000000000003</ele><time>2026-04-11T16:23:39.001Z</time></trkpt><trkpt lat="43.14538856927598" lon="11.58319901237255"><ele>269.8</ele><time>2026-04-11T16:23:40.001Z</time></trkpt><trkpt lat="43.145272093743074" lon="11.583153991469176"><ele>269.20000000000005</ele><time>2026-04-11T16:23:42.001Z</time></trkpt><trkpt lat="43.14515964288095" lon="11.583100784610163"><ele>268.6</ele><time>2026-04-11T16:23:44.002Z</time></trkpt><trkpt lat="43.14504986673733" lon="11.583034859455406"><ele>268.0</ele><time>2026-04-11T16:23:46.002Z</time></trkpt><trkpt lat="43.144940721707584" lon="11.582967972450668"><ele>268.25</ele><time>2026-04-11T16:23:48.002Z</time></trkpt><trkpt lat="43.14482832164975" lon="11.582909097472767"><ele>268.5</ele><time>2026-04-11T16:23:50.002Z</time></trkpt><trkpt lat="43.14472313540866" lon="11.582847669606611"><ele>268.75</ele><time>2026-04-11T16:23:52.002Z</time></trkpt><trkpt lat="43.14461891363737" lon="11.582788323291616"><ele>269.0</ele><time>2026-04-11T16:23:54.002Z</time></trkpt><trkpt lat="43.14451405729361" lon="11.582726712471583"><ele>269.2</ele><time>2026-04-11T16:23:56.002Z</time></trkpt><trkpt lat="43.14441353712443" lon="11.582666056282706"><ele>269.4</ele><time>2026-04-11T16:23:58.002Z</time></trkpt><trkpt lat="43.144311337047135" lon="11.582607634471492"><ele>269.6</ele><time>2026-04-11T16:24:00.002Z</time></trkpt><trkpt lat="43.144207749738136" lon="11.58254499086098"><ele>269.8</ele><time>2026-04-11T16:24:02.002Z</time></trkpt><trkpt lat="43.144103206619214" lon="11.582484797864405"><ele>270.0</ele><time>2026-04-11T16:24:04.002Z</time></trkpt><trkpt lat="43.14399740822555" lon="11.582426931334378"><ele>270.0</ele><time>2026-04-11T16:24:06.002Z</time></trkpt><trkpt lat="43.143891934523744" lon="11.582360423434507"><ele>270.0</ele><time>2026-04-11T16:24:08.002Z</time></trkpt><trkpt lat="43.14379145731366" lon="11.582294493645588"><ele>270.0</ele><time>2026-04-11T16:24:10.002Z</time></trkpt><trkpt lat="43.14369477061836" lon="11.58223841437509"><ele>270.0</ele><time>2026-04-11T16:24:12.002Z</time></trkpt><trkpt lat="43.143590103014766" lon="11.582190656251171"><ele>270.0</ele><time>2026-04-11T16:24:14.002Z</time></trkpt><trkpt lat="43.14348953938974" lon="11.582150258474973"><ele>270.0</ele><time>2026-04-11T16:24:16.002Z</time></trkpt><trkpt lat="43.14338592225566" lon="11.582074932646773"><ele>270.0</ele><time>2026-04-11T16:24:18.002Z</time></trkpt><trkpt lat="43.14327707377015" lon="11.582019655833195"><ele>270.0</ele><time>2026-04-11T16:24:20.002Z</time></trkpt><trkpt lat="43.1431650238771" lon="11.581972659916543"><ele>270.0</ele><time>2026-04-11T16:24:22.003Z</time></trkpt><trkpt lat="43.143051140751176" lon="11.58192738594037"><ele>272.25</ele><time>2026-04-11T16:24:24.003Z</time></trkpt><trkpt lat="43.142936886073656" lon="11.581882279064482"><ele>274.5</ele><time>2026-04-11T16:24:26.003Z</time></trkpt><trkpt lat="43.142821172724936" lon="11.581847434103418"><ele>276.75</ele><time>2026-04-11T16:24:28.003Z</time></trkpt><trkpt lat="43.142701929268334" lon="11.581819603019648"><ele>279.0</ele><time>2026-04-11T16:24:30.003Z</time></trkpt><trkpt lat="43.142583580759876" lon="11.581790426250176"><ele>279.0</ele><time>2026-04-11T16:24:32.003Z</time></trkpt><trkpt lat="43.142464548687954" lon="11.581757101342586"><ele>279.0</ele><time>2026-04-11T16:24:34.003Z</time></trkpt><trkpt lat="43.142343369492735" lon="11.58172235682568"><ele>279.0</ele><time>2026-04-11T16:24:36.003Z</time></trkpt><trkpt lat="43.14221900832526" lon="11.581690209121524"><ele>279.0</ele><time>2026-04-11T16:24:38.003Z</time></trkpt><trkpt lat="43.14215481416084" lon="11.581675452330336"><ele>279.0</ele><time>2026-04-11T16:24:39.003Z</time></trkpt><trkpt lat="43.14209179403027" lon="11.581658825117364"><ele>277.99999999999994</ele><time>2026-04-11T16:24:40.003Z</time></trkpt><trkpt lat="43.1420285624932" lon="11.581640221277256"><ele>277.0</ele><time>2026-04-11T16:24:41.003Z</time></trkpt><trkpt lat="43.141960818956555" lon="11.581623766101199"><ele>276.0</ele><time>2026-04-11T16:24:42.003Z</time></trkpt><trkpt lat="43.14189676379477" lon="11.581601598659647"><ele>275.0</ele><time>2026-04-11T16:24:43.003Z</time></trkpt><trkpt lat="43.141835297929845" lon="11.581570538424764"><ele>274.0</ele><time>2026-04-11T16:24:44.003Z</time></trkpt><trkpt lat="43.141768954624816" lon="11.5815412234754"><ele>272.99999999999994</ele><time>2026-04-11T16:24:45.003Z</time></trkpt><trkpt lat="43.1417038965625" lon="11.581506209302923"><ele>272.0</ele><time>2026-04-11T16:24:46.003Z</time></trkpt><trkpt lat="43.14163894242598" lon="11.581468918945768"><ele>271.99999999999994</ele><time>2026-04-11T16:24:47.003Z</time></trkpt><trkpt lat="43.14157423639749" lon="11.581431681103723"><ele>272.0</ele><time>2026-04-11T16:24:48.001Z</time></trkpt><trkpt lat="43.1415110535366" lon="11.581393902796995"><ele>272.0</ele><time>2026-04-11T16:24:49.001Z</time></trkpt><trkpt lat="43.141448946523646" lon="11.581354270921741"><ele>272.0</ele><time>2026-04-11T16:24:50.001Z</time></trkpt><trkpt lat="43.14138645104273" lon="11.581315785410192"><ele>272.0</ele><time>2026-04-11T16:24:51.001Z</time></trkpt><trkpt lat="43.14132293300506" lon="11.581277062263656"><ele>271.99999999999994</ele><time>2026-04-11T16:24:52.001Z</time></trkpt><trkpt lat="43.14126300458698" lon="11.581239656877814"><ele>272.0</ele><time>2026-04-11T16:24:53.001Z</time></trkpt><trkpt lat="43.141200903426224" lon="11.581201759415716"><ele>271.71428571428567</ele><time>2026-04-11T16:24:54.001Z</time></trkpt><trkpt lat="43.141136055407515" lon="11.58116700755851"><ele>271.42857142857144</ele><time>2026-04-11T16:24:55.001Z</time></trkpt><trkpt lat="43.14107339194487" lon="11.58112796096433"><ele>271.1428571428571</ele><time>2026-04-11T16:24:56.001Z</time></trkpt><trkpt lat="43.141012517576534" lon="11.581087410927637"><ele>270.85714285714283</ele><time>2026-04-11T16:24:57.001Z</time></trkpt><trkpt lat="43.14094927050312" lon="11.581049625253193"><ele>270.57142857142856</ele><time>2026-04-11T16:24:58.001Z</time></trkpt><trkpt lat="43.140886706997414" lon="11.581016734333204"><ele>270.2857142857143</ele><time>2026-04-11T16:24:59.001Z</time></trkpt><trkpt lat="43.140825667916076" lon="11.580979791977281"><ele>270.0</ele><time>2026-04-11T16:25:00.001Z</time></trkpt><trkpt lat="43.14076349903124" lon="11.5809429130777"><ele>269.57142857142856</ele><time>2026-04-11T16:25:01.001Z</time></trkpt><trkpt lat="43.14070223060789" lon="11.580902919541552"><ele>269.1428571428571</ele><time>2026-04-11T16:25:02.001Z</time></trkpt><trkpt lat="43.140637972688104" lon="11.580865063832242"><ele>268.7142857142857</ele><time>2026-04-11T16:25:03.001Z</time></trkpt><trkpt lat="43.140576259086" lon="11.58082891296431"><ele>268.2857142857143</ele><time>2026-04-11T16:25:04.001Z</time></trkpt><trkpt lat="43.14051476368266" lon="11.580791858805624"><ele>267.8571428571429</ele><time>2026-04-11T16:25:05.001Z</time></trkpt><trkpt lat="43.14045227121534" lon="11.580756954553124"><ele>267.42857142857144</ele><time>2026-04-11T16:25:06.001Z</time></trkpt><trkpt lat="43.14039179552377" lon="11.580722078574215"><ele>267.0</ele><time>2026-04-11T16:25:07.001Z</time></trkpt><trkpt lat="43.140332057761825" lon="11.580685216330355"><ele>267.0</ele><time>2026-04-11T16:25:08.001Z</time></trkpt><trkpt lat="43.140273062295904" lon="11.580650588511906"><ele>267.0</ele><time>2026-04-11T16:25:09.001Z</time></trkpt><trkpt lat="43.140157792062645" lon="11.580584023346512"><ele>267.0</ele><time>2026-04-11T16:25:11.001Z</time></trkpt><trkpt lat="43.140046904154474" lon="11.580511482989081"><ele>267.0</ele><time>2026-04-11T16:25:13.001Z</time></trkpt><trkpt lat="43.13993509722674" lon="11.58044454105216"><ele>267.0</ele><time>2026-04-11T16:25:15.001Z</time></trkpt><trkpt lat="43.139828814823325" lon="11.580381037553382"><ele>267.0</ele><time>2026-04-11T16:25:17.001Z</time></trkpt><trkpt lat="43.13972410508788" lon="11.58031206699166"><ele>267.0</ele><time>2026-04-11T16:25:19.001Z</time></trkpt><trkpt lat="43.139618286075006" lon="11.580248719993126"><ele>267.0</ele><time>2026-04-11T16:25:21.001Z</time></trkpt><trkpt lat="43.13950910685952" lon="11.580184668722646"><ele>267.0</ele><time>2026-04-11T16:25:23.001Z</time></trkpt><trkpt lat="43.13939627031716" lon="11.580121547060827"><ele>267.0</ele><time>2026-04-11T16:25:25.001Z</time></trkpt><trkpt lat="43.13928441248765" lon="11.580054253660789"><ele>267.0</ele><time>2026-04-11T16:25:27.001Z</time></trkpt><trkpt lat="43.13922656990405" lon="11.580018270239732"><ele>267.0</ele><time>2026-04-11T16:25:28.001Z</time></trkpt><trkpt lat="43.1391122207791" lon="11.579949657452726"><ele>267.0</ele><time>2026-04-11T16:25:30.001Z</time></trkpt><trkpt lat="43.13899887920166" lon="11.579885200077953"><ele>267.0</ele><time>2026-04-11T16:25:32.001Z</time></trkpt><trkpt lat="43.13888913108039" lon="11.57982397741219"><ele>267.00000000000006</ele><time>2026-04-11T16:25:34.001Z</time></trkpt><trkpt lat="43.1387775522279" lon="11.579750944078473"><ele>267.0</ele><time>2026-04-11T16:25:36.001Z</time></trkpt><trkpt lat="43.13871962563615" lon="11.579715879900062"><ele>267.0</ele><time>2026-04-11T16:25:37.001Z</time></trkpt><trkpt lat="43.13866257211756" lon="11.579678242802826"><ele>267.0</ele><time>2026-04-11T16:25:38.001Z</time></trkpt><trkpt lat="43.13860489375946" lon="11.579640767211115"><ele>267.0</ele><time>2026-04-11T16:25:39.001Z</time></trkpt><trkpt lat="43.138545744215854" lon="11.579604283098407"><ele>267.00000000000006</ele><time>2026-04-11T16:25:40.001Z</time></trkpt><trkpt lat="43.13848770289608" lon="11.579560324662108"><ele>267.0</ele><time>2026-04-11T16:25:41.001Z</time></trkpt><trkpt lat="43.13843018484274" lon="11.579508010987247"><ele>267.4</ele><time>2026-04-11T16:25:42.001Z</time></trkpt><trkpt lat="43.13837298788655" lon="11.579462191696535"><ele>267.79999999999995</ele><time>2026-04-11T16:25:43.001Z</time></trkpt><trkpt lat="43.1383198509629" lon="11.579415292478242"><ele>268.2</ele><time>2026-04-11T16:25:44.002Z</time></trkpt><trkpt lat="43.138216884646596" lon="11.57931387073806"><ele>268.59999999999997</ele><time>2026-04-11T16:25:46.002Z</time></trkpt><trkpt lat="43.13811347624973" lon="11.579221086673018"><ele>269.0</ele><time>2026-04-11T16:25:48.002Z</time></trkpt><trkpt lat="43.13801128222132" lon="11.579133539165664"><ele>268.0</ele><time>2026-04-11T16:25:50.002Z</time></trkpt><trkpt lat="43.13790683590696" lon="11.579045370697742"><ele>267.0</ele><time>2026-04-11T16:25:52.002Z</time></trkpt><trkpt lat="43.13780690779174" lon="11.578949241947548"><ele>266.0</ele><time>2026-04-11T16:25:54.002Z</time></trkpt><trkpt lat="43.13770449231386" lon="11.578858868823856"><ele>265.0</ele><time>2026-04-11T16:25:56.002Z</time></trkpt><trkpt lat="43.13763637737421" lon="11.578734849885722"><ele>265.5</ele><time>2026-04-11T16:25:58.002Z</time></trkpt><trkpt lat="43.13766734884454" lon="11.578605652133653"><ele>266.0</ele><time>2026-04-11T16:26:00.002Z</time></trkpt><trkpt lat="43.13772029215253" lon="11.578521853474749"><ele>266.5</ele><time>2026-04-11T16:26:02.002Z</time></trkpt><trkpt lat="43.13777077261698" lon="11.578457996623698"><ele>267.0</ele><time>2026-04-11T16:26:04.002Z</time></trkpt><trkpt lat="43.13780775959827" lon="11.5783855308617"><ele>267.5</ele><time>2026-04-11T16:26:06.002Z</time></trkpt><trkpt lat="43.13784945806104" lon="11.578288480984112"><ele>268.0</ele><time>2026-04-11T16:26:09.002Z</time></trkpt><trkpt lat="43.1379001956353" lon="11.578201348225623"><ele>268.0</ele><time>2026-04-11T16:26:12.002Z</time></trkpt><trkpt lat="43.13795340798957" lon="11.578131001537756"><ele>268.0</ele><time>2026-04-11T16:26:15.002Z</time></trkpt><trkpt lat="43.13799585734139" lon="11.578055790584985"><ele>268.0</ele><time>2026-04-11T16:26:18.002Z</time></trkpt><trkpt lat="43.13804027881154" lon="11.577983100548124"><ele>268.0</ele><time>2026-04-11T16:26:21.002Z</time></trkpt><trkpt lat="43.13807794052486" lon="11.577900084295841"><ele>268.0</ele><time>2026-04-11T16:26:24.002Z</time></trkpt><trkpt lat="43.138119556160795" lon="11.577830460767"><ele>268.0</ele><time>2026-04-11T16:26:27.003Z</time></trkpt><trkpt lat="43.138165118483" lon="11.577760045472475"><ele>268.0</ele><time>2026-04-11T16:26:30.003Z</time></trkpt><trkpt lat="43.13820731506652" lon="11.5776905522304"><ele>269.0</ele><time>2026-04-11T16:26:33.003Z</time></trkpt><trkpt lat="43.138254316198996" lon="11.577629555625292"><ele>270.0</ele><time>2026-04-11T16:26:36.003Z</time></trkpt><trkpt lat="43.138303759249446" lon="11.577545738435536"><ele>271.0</ele><time>2026-04-11T16:26:40.003Z</time></trkpt><trkpt lat="43.13834603218665" lon="11.577461876576598"><ele>272.0</ele><time>2026-04-11T16:26:44.003Z</time></trkpt><trkpt lat="43.13839948948392" lon="11.577391067006287"><ele>273.0</ele><time>2026-04-11T16:26:48.003Z</time></trkpt><trkpt lat="43.13844386870182" lon="11.577315516236455"><ele>274.0</ele><time>2026-04-11T16:26:52.003Z</time></trkpt><trkpt lat="43.138488262673874" lon="11.577237481471261"><ele>275.0</ele><time>2026-04-11T16:26:56.001Z</time></trkpt><trkpt lat="43.13853276335864" lon="11.577150683202616"><ele>275.0</ele><time>2026-04-11T16:27:00.001Z</time></trkpt><trkpt lat="43.13857511125419" lon="11.577065763157751"><ele>275.0</ele><time>2026-04-11T16:27:04.001Z</time></trkpt><trkpt lat="43.13862460949419" lon="11.576992396631429"><ele>275.0</ele><time>2026-04-11T16:27:08.001Z</time></trkpt><trkpt lat="43.138665571760356" lon="11.576913534202996"><ele>275.0</ele><time>2026-04-11T16:27:12.001Z</time></trkpt><trkpt lat="43.13869834713087" lon="11.576830942141324"><ele>275.0</ele><time>2026-04-11T16:27:16.001Z</time></trkpt><trkpt lat="43.13872723155528" lon="11.57673054768434"><ele>275.0</ele><time>2026-04-11T16:27:20.001Z</time></trkpt><trkpt lat="43.13874895778518" lon="11.576632807980992"><ele>275.0</ele><time>2026-04-11T16:27:24.001Z</time></trkpt><trkpt lat="43.138761115159646" lon="11.576534961848592"><ele>275.42857142857144</ele><time>2026-04-11T16:27:28.001Z</time></trkpt><trkpt lat="43.13876892178451" lon="11.576430888700644"><ele>275.85714285714283</ele><time>2026-04-11T16:27:32.001Z</time></trkpt><trkpt lat="43.13877444620041" lon="11.576335451315067"><ele>276.2857142857143</ele><time>2026-04-11T16:27:36.001Z</time></trkpt><trkpt lat="43.13877761476864" lon="11.576233157153535"><ele>276.7142857142857</ele><time>2026-04-11T16:27:40.001Z</time></trkpt><trkpt lat="43.1387704722525" lon="11.576132446414972"><ele>277.14285714285717</ele><time>2026-04-11T16:27:44.001Z</time></trkpt><trkpt lat="43.13877134860471" lon="11.576035073423506"><ele>277.57142857142856</ele><time>2026-04-11T16:27:48.002Z</time></trkpt><trkpt lat="43.13876734690107" lon="11.575927958427851"><ele>278.0</ele><time>2026-04-11T16:27:52.002Z</time></trkpt><trkpt lat="43.13876011731166" lon="11.57582382029912"><ele>279.0</ele><time>2026-04-11T16:27:56.002Z</time></trkpt><trkpt lat="43.13874994713821" lon="11.575724955000517"><ele>280.0</ele><time>2026-04-11T16:28:00.002Z</time></trkpt><trkpt lat="43.138729653029735" lon="11.5756273423012"><ele>281.0</ele><time>2026-04-11T16:28:04.002Z</time></trkpt><trkpt lat="43.13870647976329" lon="11.575530503122877"><ele>282.0</ele><time>2026-04-11T16:28:08.002Z</time></trkpt><trkpt lat="43.13867664228933" lon="11.575445868198281"><ele>283.0</ele><time>2026-04-11T16:28:12.002Z</time></trkpt><trkpt lat="43.13864337880207" lon="11.57534814640433"><ele>284.0</ele><time>2026-04-11T16:28:16.002Z</time></trkpt><trkpt lat="43.138602149876945" lon="11.575268367259124"><ele>285.0</ele><time>2026-04-11T16:28:20.002Z</time></trkpt><trkpt lat="43.13853843028319" lon="11.575228514985232"><ele>287.1666666666667</ele><time>2026-04-11T16:28:31.002Z</time></trkpt><trkpt lat="43.138494972914245" lon="11.57514575408424"><ele>289.3333333333333</ele><time>2026-04-11T16:28:35.002Z</time></trkpt><trkpt lat="43.13842917411421" lon="11.575085358330952"><ele>291.5</ele><time>2026-04-11T16:28:39.003Z</time></trkpt><trkpt lat="43.13837546914211" lon="11.575020827168743"><ele>293.66666666666663</ele><time>2026-04-11T16:28:43.003Z</time></trkpt><trkpt lat="43.13831890698584" lon="11.574949323735432"><ele>295.8333333333333</ele><time>2026-04-11T16:28:47.003Z</time></trkpt><trkpt lat="43.13825307190858" lon="11.57489236200216"><ele>298.0</ele><time>2026-04-11T16:28:51.003Z</time></trkpt><trkpt lat="43.138196909537015" lon="11.574818277128966"><ele>298.5</ele><time>2026-04-11T16:28:55.003Z</time></trkpt><trkpt lat="43.13813617423907" lon="11.57474745732417"><ele>299.0</ele><time>2026-04-11T16:28:59.003Z</time></trkpt><trkpt lat="43.138079142785564" lon="11.574663964980362"><ele>299.5</ele><time>2026-04-11T16:29:03.001Z</time></trkpt><trkpt lat="43.13803757309203" lon="11.574573412520884"><ele>300.0</ele><time>2026-04-11T16:29:07.001Z</time></trkpt><trkpt lat="43.138000629379384" lon="11.574486186968645"><ele>300.5</ele><time>2026-04-11T16:29:11.001Z</time></trkpt><trkpt lat="43.13798485900256" lon="11.574380502257126"><ele>301.0</ele><time>2026-04-11T16:29:15.001Z</time></trkpt><trkpt lat="43.13798493212883" lon="11.574270490009997"><ele>301.0</ele><time>2026-04-11T16:29:19.001Z</time></trkpt><trkpt lat="43.137980978221435" lon="11.57416224625245"><ele>301.0</ele><time>2026-04-11T16:29:23.001Z</time></trkpt><trkpt lat="43.13797934507812" lon="11.574060056478311"><ele>301.0</ele><time>2026-04-11T16:29:27.001Z</time></trkpt><trkpt lat="43.13797400564912" lon="11.57397404092765"><ele>301.0</ele><time>2026-04-11T16:29:30.001Z</time></trkpt><trkpt lat="43.137972651035184" lon="11.573884663547215"><ele>301.0</ele><time>2026-04-11T16:29:33.001Z</time></trkpt><trkpt lat="43.137974498280016" lon="11.573771886094221"><ele>301.0</ele><time>2026-04-11T16:29:37.001Z</time></trkpt><trkpt lat="43.13796840470868" lon="11.573673349048697"><ele>301.0</ele><time>2026-04-11T16:29:40.001Z</time></trkpt><trkpt lat="43.13796469338099" lon="11.573579268579435"><ele>300.5</ele><time>2026-04-11T16:29:43.001Z</time></trkpt><trkpt lat="43.13796590744514" lon="11.573483199258604"><ele>300.0</ele><time>2026-04-11T16:29:47.001Z</time></trkpt><trkpt lat="43.137960721545234" lon="11.573376342742144"><ele>299.5</ele><time>2026-04-11T16:29:49.001Z</time></trkpt><trkpt lat="43.137955050160336" lon="11.573256253553293"><ele>299.0</ele><time>2026-04-11T16:29:52.001Z</time></trkpt><trkpt lat="43.13795316781492" lon="11.573128215342669"><ele>298.5</ele><time>2026-04-11T16:29:55.001Z</time></trkpt><trkpt lat="43.13794681992569" lon="11.572997358315591"><ele>298.0</ele><time>2026-04-11T16:29:58.001Z</time></trkpt><trkpt lat="43.13793969903535" lon="11.572894156988639"><ele>297.3333333333333</ele><time>2026-04-11T16:30:00.001Z</time></trkpt><trkpt lat="43.1379361218864" lon="11.572756252057095"><ele>296.66666666666663</ele><time>2026-04-11T16:30:03.001Z</time></trkpt><trkpt lat="43.137930307861815" lon="11.572654082305124"><ele>296.0</ele><time>2026-04-11T16:30:05.001Z</time></trkpt><trkpt lat="43.1379266868697" lon="11.572552551352453"><ele>295.3333333333333</ele><time>2026-04-11T16:30:07.001Z</time></trkpt><trkpt lat="43.13791992741313" lon="11.572452191793488"><ele>294.6666666666667</ele><time>2026-04-11T16:30:09.001Z</time></trkpt><trkpt lat="43.13792518584379" lon="11.572351450521593"><ele>294.0</ele><time>2026-04-11T16:30:11.001Z</time></trkpt><trkpt lat="43.137931950419286" lon="11.572260720407318"><ele>294.0</ele><time>2026-04-11T16:30:13.002Z</time></trkpt><trkpt lat="43.13795008779003" lon="11.572173943532269"><ele>294.0</ele><time>2026-04-11T16:30:15.002Z</time></trkpt><trkpt lat="43.137980610570175" lon="11.57208179537377"><ele>294.0</ele><time>2026-04-11T16:30:17.002Z</time></trkpt><trkpt lat="43.13803683590984" lon="11.572009959090833"><ele>294.0</ele><time>2026-04-11T16:30:19.002Z</time></trkpt><trkpt lat="43.13810921927145" lon="11.571948442628669"><ele>294.0</ele><time>2026-04-11T16:30:21.002Z</time></trkpt><trkpt lat="43.13819344178663" lon="11.571919075549616"><ele>294.0</ele><time>2026-04-11T16:30:23.002Z</time></trkpt><trkpt lat="43.13826935436542" lon="11.571886055987482"><ele>295.59999999999997</ele><time>2026-04-11T16:30:25.002Z</time></trkpt><trkpt lat="43.13835079815555" lon="11.571830693963896"><ele>297.2</ele><time>2026-04-11T16:30:27.002Z</time></trkpt><trkpt lat="43.13843659592704" lon="11.571778488549205"><ele>298.79999999999995</ele><time>2026-04-11T16:30:29.002Z</time></trkpt><trkpt lat="43.138508358217464" lon="11.571710535427076"><ele>300.4</ele><time>2026-04-11T16:30:31.002Z</time></trkpt><trkpt lat="43.13857333735209" lon="11.571624385709294"><ele>302.0</ele><time>2026-04-11T16:30:33.002Z</time></trkpt><trkpt lat="43.13863886524189" lon="11.571537727180413"><ele>302.0</ele><time>2026-04-11T16:30:35.002Z</time></trkpt><trkpt lat="43.13868285228731" lon="11.571423043714125"><ele>302.0</ele><time>2026-04-11T16:30:37.002Z</time></trkpt><trkpt lat="43.13870871919846" lon="11.57129790072168"><ele>302.0</ele><time>2026-04-11T16:30:39.002Z</time></trkpt><trkpt lat="43.13871508230113" lon="11.571170868283325"><ele>302.0</ele><time>2026-04-11T16:30:41.002Z</time></trkpt><trkpt lat="43.13870096375919" lon="11.57104984254566"><ele>302.0</ele><time>2026-04-11T16:30:43.002Z</time></trkpt><trkpt lat="43.1386784436545" lon="11.570942746217828"><ele>301.6666666666667</ele><time>2026-04-11T16:30:45.002Z</time></trkpt><trkpt lat="43.13863680401384" lon="11.570838817266203"><ele>301.33333333333337</ele><time>2026-04-11T16:30:47.002Z</time></trkpt><trkpt lat="43.13858274639666" lon="11.570733360498721"><ele>301.0</ele><time>2026-04-11T16:30:49.002Z</time></trkpt><trkpt lat="43.138525966949345" lon="11.57064081843922"><ele>300.6666666666667</ele><time>2026-04-11T16:30:51.002Z</time></trkpt><trkpt lat="43.13847135979694" lon="11.570538078177611"><ele>300.3333333333333</ele><time>2026-04-11T16:30:53.002Z</time></trkpt><trkpt lat="43.13844685840253" lon="11.570422466210923"><ele>300.0</ele><time>2026-04-11T16:30:55.002Z</time></trkpt><trkpt lat="43.138442976023555" lon="11.570302378034011"><ele>300.71428571428567</ele><time>2026-04-11T16:30:57.002Z</time></trkpt><trkpt lat="43.1384391228282" lon="11.570201163535863"><ele>301.42857142857144</ele><time>2026-04-11T16:30:59.002Z</time></trkpt><trkpt lat="43.13845996046692" lon="11.570106001756228"><ele>302.1428571428571</ele><time>2026-04-11T16:31:01.002Z</time></trkpt><trkpt lat="43.138485200197195" lon="11.570012753112357"><ele>302.85714285714283</ele><time>2026-04-11T16:31:03.002Z</time></trkpt><trkpt lat="43.13851089107546" lon="11.569928560361022"><ele>303.57142857142856</ele><time>2026-04-11T16:31:05.002Z</time></trkpt><trkpt lat="43.13852777273287" lon="11.569842550354462"><ele>304.2857142857143</ele><time>2026-04-11T16:31:07.001Z</time></trkpt><trkpt lat="43.13853370100693" lon="11.5697517060636"><ele>305.0</ele><time>2026-04-11T16:31:09.001Z</time></trkpt><trkpt lat="43.13853732557649" lon="11.569662731604447"><ele>305.0</ele><time>2026-04-11T16:31:11.001Z</time></trkpt><trkpt lat="43.13853085234977" lon="11.56957190054334"><ele>305.0</ele><time>2026-04-11T16:31:13.001Z</time></trkpt><trkpt lat="43.1385240641325" lon="11.56948087912287"><ele>305.0</ele><time>2026-04-11T16:31:15.001Z</time></trkpt><trkpt lat="43.138523021415494" lon="11.569394215423042"><ele>305.0</ele><time>2026-04-11T16:31:17.001Z</time></trkpt><trkpt lat="43.13850490641255" lon="11.56927510647919"><ele>305.0</ele><time>2026-04-11T16:31:20.001Z</time></trkpt><trkpt lat="43.1384973089022" lon="11.569146466671212"><ele>305.0</ele><time>2026-04-11T16:31:23.001Z</time></trkpt><trkpt lat="43.13847846053514" lon="11.56902166264819"><ele>305.1666666666667</ele><time>2026-04-11T16:31:26.001Z</time></trkpt><trkpt lat="43.13845952450411" lon="11.568930655419805"><ele>305.33333333333337</ele><time>2026-04-11T16:31:28.001Z</time></trkpt><trkpt lat="43.13843524617271" lon="11.56884373620875"><ele>305.5</ele><time>2026-04-11T16:31:30.001Z</time></trkpt><trkpt lat="43.13839194063491" lon="11.568752122012068"><ele>305.6666666666667</ele><time>2026-04-11T16:31:32.001Z</time></trkpt><trkpt lat="43.13835593329093" lon="11.568658373388715"><ele>305.8333333333333</ele><time>2026-04-11T16:31:34.001Z</time></trkpt><trkpt lat="43.138302756301115" lon="11.56858017566322"><ele>306.0</ele><time>2026-04-11T16:31:36.001Z</time></trkpt><trkpt lat="43.13823645568357" lon="11.568498921963998"><ele>300.0</ele><time>2026-04-11T16:31:38.001Z</time></trkpt><trkpt lat="43.13816969925946" lon="11.568405357363076"><ele>294.0</ele><time>2026-04-11T16:31:40.001Z</time></trkpt><trkpt lat="43.13809855835359" lon="11.568274223465568"><ele>288.0</ele><time>2026-04-11T16:31:42.001Z</time></trkpt><trkpt lat="43.13800910689832" lon="11.56815501356243"><ele>282.0</ele><time>2026-04-11T16:31:44.001Z</time></trkpt><trkpt lat="43.13793395862376" lon="11.56801955741224"><ele>282.0</ele><time>2026-04-11T16:31:46.001Z</time></trkpt><trkpt lat="43.13790051535166" lon="11.567940800067145"><ele>282.0</ele><time>2026-04-11T16:31:47.001Z</time></trkpt><trkpt lat="43.13787939104186" lon="11.567856712672537"><ele>282.0</ele><time>2026-04-11T16:31:48.001Z</time></trkpt><trkpt lat="43.13787313502599" lon="11.567764413484506"><ele>282.0</ele><time>2026-04-11T16:31:49.001Z</time></trkpt><trkpt lat="43.13787997102638" lon="11.567671887761305"><ele>282.0</ele><time>2026-04-11T16:31:50.001Z</time></trkpt><trkpt lat="43.137889273640674" lon="11.567574754430941"><ele>282.0</ele><time>2026-04-11T16:31:51.001Z</time></trkpt><trkpt lat="43.13789967818413" lon="11.567473816216635"><ele>282.0</ele><time>2026-04-11T16:31:52.001Z</time></trkpt><trkpt lat="43.13791479720366" lon="11.567365087957256"><ele>283.0</ele><time>2026-04-11T16:31:53.001Z</time></trkpt><trkpt lat="43.13792815247209" lon="11.567256310227574"><ele>284.0</ele><time>2026-04-11T16:31:54.001Z</time></trkpt><trkpt lat="43.13792104523657" lon="11.567138246844733"><ele>285.0</ele><time>2026-04-11T16:31:55.001Z</time></trkpt><trkpt lat="43.13794308092432" lon="11.567023366642813"><ele>286.0</ele><time>2026-04-11T16:31:56.001Z</time></trkpt><trkpt lat="43.13794449726637" lon="11.56690389027489"><ele>287.0</ele><time>2026-04-11T16:31:57.001Z</time></trkpt><trkpt lat="43.1379415692316" lon="11.566778936467509"><ele>288.0</ele><time>2026-04-11T16:31:58.001Z</time></trkpt><trkpt lat="43.13793423622137" lon="11.566662614845601"><ele>288.0</ele><time>2026-04-11T16:31:59.001Z</time></trkpt><trkpt lat="43.137925091854875" lon="11.566550318590208"><ele>288.0</ele><time>2026-04-11T16:32:00.001Z</time></trkpt><trkpt lat="43.13791467074559" lon="11.56643060131099"><ele>288.0</ele><time>2026-04-11T16:32:01.001Z</time></trkpt><trkpt lat="43.13790529222679" lon="11.56631603926136"><ele>288.0</ele><time>2026-04-11T16:32:02.001Z</time></trkpt><trkpt lat="43.13788265071224" lon="11.566191946191804"><ele>288.0</ele><time>2026-04-11T16:32:03.001Z</time></trkpt><trkpt lat="43.13787395277574" lon="11.566077504885417"><ele>288.0</ele><time>2026-04-11T16:32:04.001Z</time></trkpt><trkpt lat="43.13788327393791" lon="11.565955277437837"><ele>288.0</ele><time>2026-04-11T16:32:05.001Z</time></trkpt><trkpt lat="43.13787851729372" lon="11.565840206983912"><ele>288.0</ele><time>2026-04-11T16:32:06.001Z</time></trkpt><trkpt lat="43.1378748484339" lon="11.5657207069161"><ele>288.0</ele><time>2026-04-11T16:32:07.001Z</time></trkpt><trkpt lat="43.13787096555212" lon="11.565594235846039"><ele>288.0</ele><time>2026-04-11T16:32:08.001Z</time></trkpt><trkpt lat="43.13786397532326" lon="11.565466130659017"><ele>288.0</ele><time>2026-04-11T16:32:09.001Z</time></trkpt><trkpt lat="43.13784188638305" lon="11.565345500908416"><ele>288.0</ele><time>2026-04-11T16:32:10.001Z</time></trkpt><trkpt lat="43.137829131715" lon="11.565235830488756"><ele>288.0</ele><time>2026-04-11T16:32:11.001Z</time></trkpt><trkpt lat="43.13780537542602" lon="11.565120574970598"><ele>288.0</ele><time>2026-04-11T16:32:12.001Z</time></trkpt><trkpt lat="43.1377621920278" lon="11.565017347704837"><ele>288.0</ele><time>2026-04-11T16:32:13.001Z</time></trkpt><trkpt lat="43.137717503665264" lon="11.564930145634024"><ele>288.0</ele><time>2026-04-11T16:32:14.001Z</time></trkpt><trkpt lat="43.137672262724394" lon="11.56484799721522"><ele>288.0</ele><time>2026-04-11T16:32:15.001Z</time></trkpt><trkpt lat="43.137642692808065" lon="11.564749253710719"><ele>288.0</ele><time>2026-04-11T16:32:16.001Z</time></trkpt><trkpt lat="43.1375979082038" lon="11.564659342727476"><ele>288.0</ele><time>2026-04-11T16:32:17.001Z</time></trkpt><trkpt lat="43.137551274774914" lon="11.564570605420545"><ele>288.0</ele><time>2026-04-11T16:32:18.001Z</time></trkpt><trkpt lat="43.13749865987882" lon="11.564499019688062"><ele>288.0</ele><time>2026-04-11T16:32:19.001Z</time></trkpt><trkpt lat="43.13745862264665" lon="11.564420603233355"><ele>288.0</ele><time>2026-04-11T16:32:20.001Z</time></trkpt><trkpt lat="43.13736669954162" lon="11.564304476860556"><ele>288.0</ele><time>2026-04-11T16:32:22.001Z</time></trkpt><trkpt lat="43.13729468329179" lon="11.564287368002065"><ele>288.0</ele><time>2026-04-11T16:32:23.001Z</time></trkpt><trkpt lat="43.137216211703866" lon="11.564302615878438"><ele>284.8333333333333</ele><time>2026-04-11T16:32:24.001Z</time></trkpt><trkpt lat="43.137139080107254" lon="11.564338248943288"><ele>281.6666666666667</ele><time>2026-04-11T16:32:25.001Z</time></trkpt><trkpt lat="43.13706444168048" lon="11.564393317995686"><ele>278.5</ele><time>2026-04-11T16:32:26.001Z</time></trkpt><trkpt lat="43.13701191528774" lon="11.564492696053415"><ele>275.33333333333337</ele><time>2026-04-11T16:32:27.001Z</time></trkpt><trkpt lat="43.136965559867335" lon="11.564570798589472"><ele>272.1666666666667</ele><time>2026-04-11T16:32:28.001Z</time></trkpt><trkpt lat="43.13693560655805" lon="11.564658972122684"><ele>269.0</ele><time>2026-04-11T16:32:29.001Z</time></trkpt><trkpt lat="43.13692495040165" lon="11.564760826226319"><ele>269.0</ele><time>2026-04-11T16:32:30.001Z</time></trkpt><trkpt lat="43.136930471265046" lon="11.56486124433758"><ele>269.0</ele><time>2026-04-11T16:32:31.001Z</time></trkpt><trkpt lat="43.136953680693196" lon="11.56495767868587"><ele>269.0</ele><time>2026-04-11T16:32:32.001Z</time></trkpt><trkpt lat="43.13698273457194" lon="11.565052280789459"><ele>269.0</ele><time>2026-04-11T16:32:33.001Z</time></trkpt><trkpt lat="43.13702119981839" lon="11.56514214713371"><ele>269.0</ele><time>2026-04-11T16:32:34.001Z</time></trkpt><trkpt lat="43.13706372699317" lon="11.56522854536263"><ele>269.0</ele><time>2026-04-11T16:32:35.001Z</time></trkpt><trkpt lat="43.13711218221925" lon="11.56531752013585"><ele>268.6666666666667</ele><time>2026-04-11T16:32:36.001Z</time></trkpt><trkpt lat="43.13715872015671" lon="11.565406305326592"><ele>268.33333333333337</ele><time>2026-04-11T16:32:37.002Z</time></trkpt><trkpt lat="43.1372051026138" lon="11.565494529882006"><ele>268.0</ele><time>2026-04-11T16:32:38.002Z</time></trkpt><trkpt lat="43.13723909674919" lon="11.565579481436144"><ele>267.6666666666667</ele><time>2026-04-11T16:32:39.002Z</time></trkpt><trkpt lat="43.13723872502525" lon="11.565698147989014"><ele>267.3333333333333</ele><time>2026-04-11T16:32:40.002Z</time></trkpt><trkpt lat="43.137223616810225" lon="11.565812432899552"><ele>267.0</ele><time>2026-04-11T16:32:41.002Z</time></trkpt><trkpt lat="43.13719914385836" lon="11.56593121808778"><ele>267.0</ele><time>2026-04-11T16:32:42.002Z</time></trkpt><trkpt lat="43.13716472971737" lon="11.566035940047545"><ele>267.0</ele><time>2026-04-11T16:32:43.002Z</time></trkpt><trkpt lat="43.13712257177069" lon="11.566132571210652"><ele>267.0</ele><time>2026-04-11T16:32:44.002Z</time></trkpt><trkpt lat="43.13706213359714" lon="11.566208766542255"><ele>267.0</ele><time>2026-04-11T16:32:45.002Z</time></trkpt><trkpt lat="43.136986193253655" lon="11.566268421581286"><ele>267.0</ele><time>2026-04-11T16:32:46.002Z</time></trkpt><trkpt lat="43.13690068778291" lon="11.566324763555722"><ele>267.0</ele><time>2026-04-11T16:32:47.002Z</time></trkpt><trkpt lat="43.13681208734663" lon="11.566370902291755"><ele>267.8</ele><time>2026-04-11T16:32:48.002Z</time></trkpt><trkpt lat="43.136730867160836" lon="11.566388678949478"><ele>268.6</ele><time>2026-04-11T16:32:49.002Z</time></trkpt><trkpt lat="43.136632697614814" lon="11.566428582839677"><ele>269.40000000000003</ele><time>2026-04-11T16:32:50.002Z</time></trkpt><trkpt lat="43.13653479073221" lon="11.566467355820452"><ele>270.2</ele><time>2026-04-11T16:32:51.002Z</time></trkpt><trkpt lat="43.13644507383615" lon="11.566517696114177"><ele>271.0</ele><time>2026-04-11T16:32:52.002Z</time></trkpt><trkpt lat="43.13635550034819" lon="11.566558527834745"><ele>266.40000000000003</ele><time>2026-04-11T16:32:53.002Z</time></trkpt><trkpt lat="43.1362862538262" lon="11.566561415450334"><ele>261.8</ele><time>2026-04-11T16:32:54.002Z</time></trkpt><trkpt lat="43.136162472738114" lon="11.566550872842736"><ele>257.20000000000005</ele><time>2026-04-11T16:32:56.002Z</time></trkpt><trkpt lat="43.13608648482957" lon="11.56643499063777"><ele>252.60000000000002</ele><time>2026-04-11T16:32:58.002Z</time></trkpt><trkpt lat="43.136094605578414" lon="11.566329544551603"><ele>248.0</ele><time>2026-04-11T16:32:59.002Z</time></trkpt><trkpt lat="43.136143943439905" lon="11.566247659457874"><ele>248.00000000000003</ele><time>2026-04-11T16:33:00.002Z</time></trkpt><trkpt lat="43.13618715445902" lon="11.566163356376295"><ele>248.0</ele><time>2026-04-11T16:33:01.002Z</time></trkpt><trkpt lat="43.13624037026528" lon="11.566089254505444"><ele>248.0</ele><time>2026-04-11T16:33:02.002Z</time></trkpt><trkpt lat="43.136288124515005" lon="11.56599169635668"><ele>248.0</ele><time>2026-04-11T16:33:03.002Z</time></trkpt><trkpt lat="43.13635439563011" lon="11.565905584026053"><ele>248.00000000000003</ele><time>2026-04-11T16:33:04.002Z</time></trkpt><trkpt lat="43.136397245351" lon="11.565799000888482"><ele>248.0</ele><time>2026-04-11T16:33:05.002Z</time></trkpt><trkpt lat="43.13640769426939" lon="11.565663515395421"><ele>248.0</ele><time>2026-04-11T16:33:06.002Z</time></trkpt><trkpt lat="43.13638575830131" lon="11.56553630012091"><ele>248.0</ele><time>2026-04-11T16:33:07.002Z</time></trkpt><trkpt lat="43.13631987920162" lon="11.565428702712161"><ele>248.0</ele><time>2026-04-11T16:33:08.002Z</time></trkpt><trkpt lat="43.13625757529196" lon="11.565344168144994"><ele>248.0</ele><time>2026-04-11T16:33:09.002Z</time></trkpt><trkpt lat="43.136188849709754" lon="11.565272491467898"><ele>248.0</ele><time>2026-04-11T16:33:10.002Z</time></trkpt><trkpt lat="43.136122554428354" lon="11.565210487849619"><ele>247.50000000000003</ele><time>2026-04-11T16:33:11.002Z</time></trkpt><trkpt lat="43.13607204651667" lon="11.565129310189269"><ele>247.0</ele><time>2026-04-11T16:33:12Z</time></trkpt><trkpt lat="43.136038204919934" lon="11.565030395565005"><ele>246.5</ele><time>2026-04-11T16:33:13Z</time></trkpt><trkpt lat="43.13602596728629" lon="11.564918051492603"><ele>246.0</ele><time>2026-04-11T16:33:14Z</time></trkpt><trkpt lat="43.13602857424071" lon="11.564805428199474"><ele>245.50000000000003</ele><time>2026-04-11T16:33:15Z</time></trkpt><trkpt lat="43.13605019519023" lon="11.564689071925098"><ele>245.0</ele><time>2026-04-11T16:33:16Z</time></trkpt><trkpt lat="43.13608093304632" lon="11.564577943652512"><ele>244.16666666666669</ele><time>2026-04-11T16:33:17Z</time></trkpt><trkpt lat="43.13614032718519" lon="11.56448109539667"><ele>243.33333333333334</ele><time>2026-04-11T16:33:18Z</time></trkpt><trkpt lat="43.13619090950821" lon="11.56437928235828"><ele>242.5</ele><time>2026-04-11T16:33:19Z</time></trkpt><trkpt lat="43.13622632204712" lon="11.564265475304534"><ele>241.66666666666669</ele><time>2026-04-11T16:33:20Z</time></trkpt><trkpt lat="43.13627620355631" lon="11.564169145323705"><ele>240.83333333333334</ele><time>2026-04-11T16:33:21Z</time></trkpt><trkpt lat="43.13632207070939" lon="11.56407433231391"><ele>240.0</ele><time>2026-04-11T16:33:22Z</time></trkpt><trkpt lat="43.136350911050386" lon="11.563969421391006"><ele>240.0</ele><time>2026-04-11T16:33:23Z</time></trkpt><trkpt lat="43.136365576025945" lon="11.563853470247063"><ele>240.0</ele><time>2026-04-11T16:33:24Z</time></trkpt><trkpt lat="43.13636945816635" lon="11.563738694727295"><ele>240.0</ele><time>2026-04-11T16:33:25Z</time></trkpt><trkpt lat="43.136380624185314" lon="11.563616432563597"><ele>240.0</ele><time>2026-04-11T16:33:26Z</time></trkpt><trkpt lat="43.1363636573078" lon="11.563494332231182"><ele>240.0</ele><time>2026-04-11T16:33:27Z</time></trkpt><trkpt lat="43.13631766040674" lon="11.56338187964516"><ele>240.0</ele><time>2026-04-11T16:33:28Z</time></trkpt><trkpt lat="43.13626945630317" lon="11.563277928054804"><ele>240.2</ele><time>2026-04-11T16:33:29Z</time></trkpt><trkpt lat="43.136207735103405" lon="11.563185662274629"><ele>240.4</ele><time>2026-04-11T16:33:30Z</time></trkpt><trkpt lat="43.13615018398044" lon="11.563085913501888"><ele>240.60000000000002</ele><time>2026-04-11T16:33:31Z</time></trkpt><trkpt lat="43.13607788908415" lon="11.563000915602386"><ele>240.8</ele><time>2026-04-11T16:33:32Z</time></trkpt><trkpt lat="43.135993937478574" lon="11.562935255155384"><ele>241.0</ele><time>2026-04-11T16:33:33Z</time></trkpt><trkpt lat="43.13592415258867" lon="11.562833188944449"><ele>242.60000000000002</ele><time>2026-04-11T16:33:34Z</time></trkpt><trkpt lat="43.1358441212226" lon="11.562751259213302"><ele>244.20000000000002</ele><time>2026-04-11T16:33:35Z</time></trkpt><trkpt lat="43.13577472715075" lon="11.562660757784052"><ele>245.79999999999998</ele><time>2026-04-11T16:33:36Z</time></trkpt><trkpt lat="43.1357022974293" lon="11.562574427640913"><ele>247.39999999999998</ele><time>2026-04-11T16:33:37Z</time></trkpt><trkpt lat="43.1356342500754" lon="11.562494057494627"><ele>249.0</ele><time>2026-04-11T16:33:38Z</time></trkpt><trkpt lat="43.135569234916574" lon="11.562409732762267"><ele>245.79999999999998</ele><time>2026-04-11T16:33:39Z</time></trkpt><trkpt lat="43.13550897847385" lon="11.562324357182925"><ele>242.59999999999997</ele><time>2026-04-11T16:33:40Z</time></trkpt><trkpt lat="43.13544654014629" lon="11.562229622168546"><ele>239.4</ele><time>2026-04-11T16:33:41Z</time></trkpt><trkpt lat="43.13538613499358" lon="11.562129882276981"><ele>236.2</ele><time>2026-04-11T16:33:42Z</time></trkpt><trkpt lat="43.13532720390958" lon="11.562025684687265"><ele>233.0</ele><time>2026-04-11T16:33:43Z</time></trkpt><trkpt lat="43.13526383459243" lon="11.56191890489893"><ele>233.0</ele><time>2026-04-11T16:33:44Z</time></trkpt><trkpt lat="43.13520455340832" lon="11.561812265331268"><ele>233.0</ele><time>2026-04-11T16:33:45Z</time></trkpt><trkpt lat="43.13514486634504" lon="11.561706302865382"><ele>233.0</ele><time>2026-04-11T16:33:46Z</time></trkpt><trkpt lat="43.13508511656428" lon="11.561593691480136"><ele>233.0</ele><time>2026-04-11T16:33:47Z</time></trkpt><trkpt lat="43.13502771398913" lon="11.561478996576488"><ele>233.0</ele><time>2026-04-11T16:33:48.001Z</time></trkpt><trkpt lat="43.13496830079085" lon="11.56136289425084"><ele>233.0</ele><time>2026-04-11T16:33:49.001Z</time></trkpt><trkpt lat="43.13490812276185" lon="11.561251795484502"><ele>233.0</ele><time>2026-04-11T16:33:50.001Z</time></trkpt><trkpt lat="43.134865084793894" lon="11.561125591478701"><ele>233.0</ele><time>2026-04-11T16:33:51.001Z</time></trkpt><trkpt lat="43.13480614842213" lon="11.56100941290513"><ele>233.0</ele><time>2026-04-11T16:33:52.001Z</time></trkpt><trkpt lat="43.13474907064994" lon="11.560899129466236"><ele>233.0</ele><time>2026-04-11T16:33:53.001Z</time></trkpt><trkpt lat="43.13469251685011" lon="11.560790192268795"><ele>229.60000000000002</ele><time>2026-04-11T16:33:54.001Z</time></trkpt><trkpt lat="43.13462232590036" lon="11.56069565632334"><ele>226.20000000000002</ele><time>2026-04-11T16:33:55.001Z</time></trkpt><trkpt lat="43.134578358822374" lon="11.560573102471391"><ele>222.8</ele><time>2026-04-11T16:33:56.001Z</time></trkpt><trkpt lat="43.13452045841205" lon="11.56046395434374"><ele>219.4</ele><time>2026-04-11T16:33:57.001Z</time></trkpt><trkpt lat="43.13446283675762" lon="11.56035647634757"><ele>216.0</ele><time>2026-04-11T16:33:58.001Z</time></trkpt><trkpt lat="43.13440338163495" lon="11.560246315927168"><ele>216.0</ele><time>2026-04-11T16:33:59.001Z</time></trkpt><trkpt lat="43.13434399708913" lon="11.560137182544764"><ele>216.00000000000003</ele><time>2026-04-11T16:34:00.001Z</time></trkpt><trkpt lat="43.134284423926324" lon="11.560027702532752"><ele>216.00000000000003</ele><time>2026-04-11T16:34:01.001Z</time></trkpt><trkpt lat="43.13422777947354" lon="11.559927959425833"><ele>216.0</ele><time>2026-04-11T16:34:02.001Z</time></trkpt><trkpt lat="43.134158894650525" lon="11.559841149536862"><ele>216.0</ele><time>2026-04-11T16:34:03.001Z</time></trkpt><trkpt lat="43.13410949545968" lon="11.559742769450168"><ele>216.0</ele><time>2026-04-11T16:34:04.001Z</time></trkpt><trkpt lat="43.13406233857573" lon="11.559638604322876"><ele>216.00000000000003</ele><time>2026-04-11T16:34:05.001Z</time></trkpt><trkpt lat="43.13402703310472" lon="11.559531273055626"><ele>216.00000000000003</ele><time>2026-04-11T16:34:06.001Z</time></trkpt><trkpt lat="43.134000001067605" lon="11.559407330354865"><ele>216.0</ele><time>2026-04-11T16:34:07.001Z</time></trkpt><trkpt lat="43.13400468321506" lon="11.559277878902403"><ele>216.0</ele><time>2026-04-11T16:34:08.001Z</time></trkpt><trkpt lat="43.133983630017326" lon="11.55915812261223"><ele>212.8</ele><time>2026-04-11T16:34:09.001Z</time></trkpt><trkpt lat="43.13398847988977" lon="11.559040923002382"><ele>209.60000000000002</ele><time>2026-04-11T16:34:10.001Z</time></trkpt><trkpt lat="43.13399734021733" lon="11.55891569611525"><ele>206.4</ele><time>2026-04-11T16:34:11.001Z</time></trkpt><trkpt lat="43.13400117747118" lon="11.558787663792671"><ele>203.2</ele><time>2026-04-11T16:34:12.001Z</time></trkpt><trkpt lat="43.13400790809743" lon="11.558658165773439"><ele>200.0</ele><time>2026-04-11T16:34:13.001Z</time></trkpt><trkpt lat="43.13400756229922" lon="11.558522511591207"><ele>200.0</ele><time>2026-04-11T16:34:14.001Z</time></trkpt><trkpt lat="43.13400823813383" lon="11.55839017210796"><ele>200.0</ele><time>2026-04-11T16:34:15.001Z</time></trkpt><trkpt lat="43.134024285826705" lon="11.558262303961575"><ele>200.0</ele><time>2026-04-11T16:34:16.001Z</time></trkpt><trkpt lat="43.134014558897654" lon="11.558122631557808"><ele>200.0</ele><time>2026-04-11T16:34:17.001Z</time></trkpt><trkpt lat="43.134012739538775" lon="11.557992336416717"><ele>200.0</ele><time>2026-04-11T16:34:18.001Z</time></trkpt><trkpt lat="43.13399646550737" lon="11.557859179028615"><ele>200.0</ele><time>2026-04-11T16:34:19.001Z</time></trkpt><trkpt lat="43.1339826717824" lon="11.557721659583255"><ele>200.0</ele><time>2026-04-11T16:34:20.001Z</time></trkpt><trkpt lat="43.133964414524506" lon="11.557585583837454"><ele>200.0</ele><time>2026-04-11T16:34:21.001Z</time></trkpt><trkpt lat="43.13396169768852" lon="11.557440258433033"><ele>200.0</ele><time>2026-04-11T16:34:22.001Z</time></trkpt><trkpt lat="43.13392681859485" lon="11.557299482606574"><ele>200.0</ele><time>2026-04-11T16:34:23.001Z</time></trkpt><trkpt lat="43.13390742522719" lon="11.557154886531208"><ele>201.0</ele><time>2026-04-11T16:34:24.001Z</time></trkpt><trkpt lat="43.133887217073244" lon="11.557007322347117"><ele>202.0</ele><time>2026-04-11T16:34:25.001Z</time></trkpt><trkpt lat="43.13387729629964" lon="11.556861353267289"><ele>203.0</ele><time>2026-04-11T16:34:26.001Z</time></trkpt><trkpt lat="43.133858099617925" lon="11.556721442733156"><ele>204.0</ele><time>2026-04-11T16:34:27.001Z</time></trkpt><trkpt lat="43.133836405177696" lon="11.55657964941835"><ele>205.0</ele><time>2026-04-11T16:34:28.001Z</time></trkpt><trkpt lat="43.13381018398158" lon="11.556445985315108"><ele>204.99999999999997</ele><time>2026-04-11T16:34:29.001Z</time></trkpt><trkpt lat="43.133765638077605" lon="11.556330964799354"><ele>205.0</ele><time>2026-04-11T16:34:30.001Z</time></trkpt><trkpt lat="43.133753223105295" lon="11.556222050037439"><ele>205.0</ele><time>2026-04-11T16:34:31.001Z</time></trkpt><trkpt lat="43.13372554940773" lon="11.55613925318122"><ele>205.0</ele><time>2026-04-11T16:34:32.001Z</time></trkpt><trkpt lat="43.13364607956213" lon="11.556028909697009"><ele>204.99999999999997</ele><time>2026-04-11T16:34:34.001Z</time></trkpt><trkpt lat="43.133588668075575" lon="11.555963826371547"><ele>205.0</ele><time>2026-04-11T16:34:36.001Z</time></trkpt><trkpt lat="43.1335294883419" lon="11.555893775707366"><ele>206.66666666666666</ele><time>2026-04-11T16:34:38.001Z</time></trkpt><trkpt lat="43.13346317473545" lon="11.555870033688626"><ele>208.33333333333331</ele><time>2026-04-11T16:34:40.001Z</time></trkpt><trkpt lat="43.13340106136727" lon="11.555845448405064"><ele>210.0</ele><time>2026-04-11T16:34:42.001Z</time></trkpt><trkpt lat="43.13330758031968" lon="11.555839215241333"><ele>211.66666666666669</ele><time>2026-04-11T16:34:45.001Z</time></trkpt><trkpt lat="43.13321558954914" lon="11.555845845732263"><ele>213.33333333333334</ele><time>2026-04-11T16:34:48.001Z</time></trkpt><trkpt lat="43.133155129825184" lon="11.555881293687447"><ele>215.0</ele><time>2026-04-11T16:34:50.001Z</time></trkpt><trkpt lat="43.13309279357179" lon="11.555913157734837"><ele>215.50000000000003</ele><time>2026-04-11T16:34:52.001Z</time></trkpt><trkpt lat="43.13303761081393" lon="11.555957928559927"><ele>216.0</ele><time>2026-04-11T16:34:54.001Z</time></trkpt><trkpt lat="43.13298486742643" lon="11.556009136320178"><ele>216.5</ele><time>2026-04-11T16:34:56.001Z</time></trkpt><trkpt lat="43.132907358157546" lon="11.556074452713489"><ele>217.0</ele><time>2026-04-11T16:34:59.001Z</time></trkpt><trkpt lat="43.13284110474101" lon="11.556162753402992"><ele>217.50000000000003</ele><time>2026-04-11T16:35:02.002Z</time></trkpt><trkpt lat="43.13277561003459" lon="11.5562490311603"><ele>218.0</ele><time>2026-04-11T16:35:05.002Z</time></trkpt><trkpt lat="43.132716479270094" lon="11.556322525066092"><ele>218.00000000000003</ele><time>2026-04-11T16:35:08.002Z</time></trkpt><trkpt lat="43.13266318654313" lon="11.556409287349913"><ele>218.0</ele><time>2026-04-11T16:35:11.002Z</time></trkpt><trkpt lat="43.13260102179109" lon="11.556493894717747"><ele>218.0</ele><time>2026-04-11T16:35:14.002Z</time></trkpt><trkpt lat="43.13254925109327" lon="11.55656290963201"><ele>218.0</ele><time>2026-04-11T16:35:17.002Z</time></trkpt><trkpt lat="43.13248691080459" lon="11.556644804523835"><ele>218.00000000000003</ele><time>2026-04-11T16:35:20Z</time></trkpt><trkpt lat="43.13243767705168" lon="11.556710998243762"><ele>218.0</ele><time>2026-04-11T16:35:23Z</time></trkpt><trkpt lat="43.13238479697755" lon="11.556787029665337"><ele>217.33333333333334</ele><time>2026-04-11T16:35:26Z</time></trkpt><trkpt lat="43.13232991192909" lon="11.55686674993921"><ele>216.66666666666669</ele><time>2026-04-11T16:35:29Z</time></trkpt><trkpt lat="43.13226402787667" lon="11.556963303318778"><ele>216.0</ele><time>2026-04-11T16:35:32Z</time></trkpt><trkpt lat="43.13219720712412" lon="11.557003971455735"><ele>215.33333333333331</ele><time>2026-04-11T16:35:36Z</time></trkpt><trkpt lat="43.13213746100365" lon="11.557041219048292"><ele>214.66666666666666</ele><time>2026-04-11T16:35:39Z</time></trkpt><trkpt lat="43.132068018663475" lon="11.557078480899095"><ele>214.0</ele><time>2026-04-11T16:35:42Z</time></trkpt><trkpt lat="43.13200198102574" lon="11.557113441997288"><ele>214.00000000000003</ele><time>2026-04-11T16:35:45Z</time></trkpt><trkpt lat="43.1319363985599" lon="11.557146084388703"><ele>214.0</ele><time>2026-04-11T16:35:48Z</time></trkpt><trkpt lat="43.131870696986255" lon="11.5571744739204"><ele>214.0</ele><time>2026-04-11T16:35:51Z</time></trkpt><trkpt lat="43.13180735821186" lon="11.557195294717646"><ele>214.0</ele><time>2026-04-11T16:35:54Z</time></trkpt><trkpt lat="43.131741339234836" lon="11.557224238385183"><ele>214.0</ele><time>2026-04-11T16:35:57Z</time></trkpt><trkpt lat="43.13166890150804" lon="11.557256684418343"><ele>214.00000000000003</ele><time>2026-04-11T16:36:00Z</time></trkpt><trkpt lat="43.131607898486195" lon="11.557286863419918"><ele>214.0</ele><time>2026-04-11T16:36:03.001Z</time></trkpt><trkpt lat="43.13154721317374" lon="11.55732388080946"><ele>213.71428571428572</ele><time>2026-04-11T16:36:06.001Z</time></trkpt><trkpt lat="43.131479536615316" lon="11.557342937071835"><ele>213.42857142857144</ele><time>2026-04-11T16:36:09.001Z</time></trkpt><trkpt lat="43.13140998319282" lon="11.557357372098453"><ele>213.14285714285717</ele><time>2026-04-11T16:36:12.001Z</time></trkpt><trkpt lat="43.1313403831988" lon="11.557367208407781"><ele>212.85714285714286</ele><time>2026-04-11T16:36:15.001Z</time></trkpt><trkpt lat="43.13128073428854" lon="11.557339463502135"><ele>212.57142857142856</ele><time>2026-04-11T16:36:18.001Z</time></trkpt><trkpt lat="43.131212453615476" lon="11.55729011857809"><ele>212.2857142857143</ele><time>2026-04-11T16:36:22.001Z</time></trkpt><trkpt lat="43.13115707235368" lon="11.557227893172348"><ele>212.0</ele><time>2026-04-11T16:36:26.001Z</time></trkpt><trkpt lat="43.131112591893896" lon="11.557154997743206"><ele>212.0</ele><time>2026-04-11T16:36:31.001Z</time></trkpt><trkpt lat="43.13107794821494" lon="11.557074014631578"><ele>212.0</ele><time>2026-04-11T16:36:35.001Z</time></trkpt><trkpt lat="43.13106017420632" lon="11.55698279802287"><ele>212.0</ele><time>2026-04-11T16:36:39.001Z</time></trkpt><trkpt lat="43.13105301704287" lon="11.55688999797832"><ele>212.0</ele><time>2026-04-11T16:36:43.001Z</time></trkpt><trkpt lat="43.13106411955416" lon="11.556803931746629"><ele>212.0</ele><time>2026-04-11T16:36:47.001Z</time></trkpt><trkpt lat="43.131097460017166" lon="11.556700367188554"><ele>212.0</ele><time>2026-04-11T16:36:52.001Z</time></trkpt><trkpt lat="43.13114645270532" lon="11.556643403108723"><ele>212.0</ele><time>2026-04-11T16:36:56.001Z</time></trkpt><trkpt lat="43.13120946959027" lon="11.5565823505532"><ele>214.57142857142858</ele><time>2026-04-11T16:37:00.001Z</time></trkpt><trkpt lat="43.131266908962054" lon="11.556535965487853"><ele>217.1428571428571</ele><time>2026-04-11T16:37:03.001Z</time></trkpt><trkpt lat="43.131335733435115" lon="11.55649086155413"><ele>219.7142857142857</ele><time>2026-04-11T16:37:07.001Z</time></trkpt><trkpt lat="43.13139813180278" lon="11.556454856900002"><ele>222.28571428571428</ele><time>2026-04-11T16:37:10.001Z</time></trkpt><trkpt lat="43.13145681436769" lon="11.55640101576249"><ele>224.85714285714283</ele><time>2026-04-11T16:37:13.001Z</time></trkpt><trkpt lat="43.13151660311366" lon="11.556360704740356"><ele>227.4285714285714</ele><time>2026-04-11T16:37:16.001Z</time></trkpt><trkpt lat="43.131576286459506" lon="11.556301855178749"><ele>229.99999999999997</ele><time>2026-04-11T16:37:19.002Z</time></trkpt><trkpt lat="43.13164088304131" lon="11.556268057601558"><ele>230.33333333333334</ele><time>2026-04-11T16:37:22.002Z</time></trkpt><trkpt lat="43.13171105510457" lon="11.556215088284597"><ele>230.66666666666669</ele><time>2026-04-11T16:37:25Z</time></trkpt><trkpt lat="43.13176335709161" lon="11.556150776214812"><ele>231.0</ele><time>2026-04-11T16:37:28Z</time></trkpt><trkpt lat="43.131825526561244" lon="11.556093359641663"><ele>231.33333333333331</ele><time>2026-04-11T16:37:31Z</time></trkpt><trkpt lat="43.13189342350673" lon="11.556049139421518"><ele>231.66666666666666</ele><time>2026-04-11T16:37:34Z</time></trkpt><trkpt lat="43.131961133566946" lon="11.555988578923603"><ele>232.0</ele><time>2026-04-11T16:37:37Z</time></trkpt><trkpt lat="43.13201923667243" lon="11.55592206589711"><ele>232.49999999999997</ele><time>2026-04-11T16:37:40Z</time></trkpt><trkpt lat="43.132084127411616" lon="11.55585294705313"><ele>233.0</ele><time>2026-04-11T16:37:43Z</time></trkpt><trkpt lat="43.132156486829004" lon="11.555785888300166"><ele>233.5</ele><time>2026-04-11T16:37:46Z</time></trkpt><trkpt lat="43.13221957998413" lon="11.555705707835667"><ele>234.0</ele><time>2026-04-11T16:37:49Z</time></trkpt><trkpt lat="43.132287843032806" lon="11.555633611600433"><ele>234.49999999999997</ele><time>2026-04-11T16:37:52Z</time></trkpt><trkpt lat="43.13235412025792" lon="11.55555413050906"><ele>235.0</ele><time>2026-04-11T16:37:55Z</time></trkpt><trkpt lat="43.132423256203666" lon="11.555489911554794"><ele>234.99999999999997</ele><time>2026-04-11T16:37:58Z</time></trkpt><trkpt lat="43.13249085204423" lon="11.555425289094327"><ele>235.0</ele><time>2026-04-11T16:38:01Z</time></trkpt><trkpt lat="43.1325528705366" lon="11.555359586669555"><ele>235.0</ele><time>2026-04-11T16:38:04Z</time></trkpt><trkpt lat="43.13261944007954" lon="11.555307925073436"><ele>235.0</ele><time>2026-04-11T16:38:07.001Z</time></trkpt><trkpt lat="43.13267172770789" lon="11.555247374196858"><ele>234.99999999999997</ele><time>2026-04-11T16:38:10.001Z</time></trkpt><trkpt lat="43.132730164327256" lon="11.55517525735345"><ele>235.0</ele><time>2026-04-11T16:38:13.001Z</time></trkpt><trkpt lat="43.13278045178801" lon="11.555104410304827"><ele>236.83333333333331</ele><time>2026-04-11T16:38:16.001Z</time></trkpt><trkpt lat="43.132831186798974" lon="11.555015073847935"><ele>238.66666666666666</ele><time>2026-04-11T16:38:19.001Z</time></trkpt><trkpt lat="43.1328687996124" lon="11.554909916978014"><ele>240.5</ele><time>2026-04-11T16:38:23.001Z</time></trkpt><trkpt lat="43.13288748196054" lon="11.554807385983658"><ele>242.33333333333331</ele><time>2026-04-11T16:38:26.001Z</time></trkpt><trkpt lat="43.132889177183756" lon="11.554692238470963"><ele>244.16666666666666</ele><time>2026-04-11T16:38:30.001Z</time></trkpt><trkpt lat="43.1328651527045" lon="11.554585150972216"><ele>246.0</ele><time>2026-04-11T16:38:33.001Z</time></trkpt><trkpt lat="43.13283087365684" lon="11.554497168638797"><ele>246.66666666666666</ele><time>2026-04-11T16:38:36.001Z</time></trkpt><trkpt lat="43.132790463108606" lon="11.554411695937393"><ele>247.33333333333331</ele><time>2026-04-11T16:38:39.001Z</time></trkpt><trkpt lat="43.132718493901166" lon="11.55435718057536"><ele>248.0</ele><time>2026-04-11T16:38:41.001Z</time></trkpt><trkpt lat="43.13266447765083" lon="11.554284957631085"><ele>248.66666666666666</ele><time>2026-04-11T16:38:44.001Z</time></trkpt><trkpt lat="43.132605020865" lon="11.554208604879955"><ele>249.33333333333331</ele><time>2026-04-11T16:38:47.001Z</time></trkpt><trkpt lat="43.13254914429156" lon="11.554148124909654"><ele>250.0</ele><time>2026-04-11T16:38:50.001Z</time></trkpt><trkpt lat="43.13249272957955" lon="11.554096503617767"><ele>249.99999999999997</ele><time>2026-04-11T16:38:53.001Z</time></trkpt><trkpt lat="43.13242827011939" lon="11.554063963482593"><ele>250.0</ele><time>2026-04-11T16:38:56.001Z</time></trkpt><trkpt lat="43.13235751536385" lon="11.554052029546856"><ele>250.0</ele><time>2026-04-11T16:38:59.001Z</time></trkpt><trkpt lat="43.13227725084665" lon="11.554060746293198"><ele>250.0</ele><time>2026-04-11T16:39:02.001Z</time></trkpt><trkpt lat="43.13219944063664" lon="11.554100884829612"><ele>249.99999999999997</ele><time>2026-04-11T16:39:05.001Z</time></trkpt><trkpt lat="43.132122754308455" lon="11.554141941098013"><ele>250.0</ele><time>2026-04-11T16:39:08.001Z</time></trkpt><trkpt lat="43.132073443375845" lon="11.554204375648215"><ele>250.99999999999997</ele><time>2026-04-11T16:39:10.001Z</time></trkpt><trkpt lat="43.13200916063682" lon="11.554289567550038"><ele>252.0</ele><time>2026-04-11T16:39:13.001Z</time></trkpt><trkpt lat="43.13196331455651" lon="11.554350609965507"><ele>253.0</ele><time>2026-04-11T16:39:15.001Z</time></trkpt><trkpt lat="43.13191981457223" lon="11.5544280323197"><ele>254.0</ele><time>2026-04-11T16:39:17.001Z</time></trkpt><trkpt lat="43.13185888840233" lon="11.554524092249371"><ele>254.99999999999997</ele><time>2026-04-11T16:39:20.001Z</time></trkpt><trkpt lat="43.13179394351666" lon="11.554621644912336"><ele>256.0</ele><time>2026-04-11T16:39:23.001Z</time></trkpt><trkpt lat="43.13173167321383" lon="11.554710707738696"><ele>256.0</ele><time>2026-04-11T16:39:26.002Z</time></trkpt><trkpt lat="43.1316840644806" lon="11.554777470794404"><ele>255.99999999999997</ele><time>2026-04-11T16:39:28.002Z</time></trkpt><trkpt lat="43.131637001412955" lon="11.554845490908212"><ele>256.0</ele><time>2026-04-11T16:39:30Z</time></trkpt><trkpt lat="43.13158457686311" lon="11.554901778698449"><ele>256.0</ele><time>2026-04-11T16:39:32Z</time></trkpt><trkpt lat="43.131535019435944" lon="11.55495770815623"><ele>255.99999999999997</ele><time>2026-04-11T16:39:34Z</time></trkpt><trkpt lat="43.131483405255054" lon="11.555011811251273"><ele>256.0</ele><time>2026-04-11T16:39:36Z</time></trkpt><trkpt lat="43.1314068087398" lon="11.555080261603118"><ele>256.0</ele><time>2026-04-11T16:39:39Z</time></trkpt><trkpt lat="43.131324573318146" lon="11.555126417555098"><ele>257.0</ele><time>2026-04-11T16:39:42Z</time></trkpt><trkpt lat="43.13123579603872" lon="11.555155913664024"><ele>258.0</ele><time>2026-04-11T16:39:45Z</time></trkpt><trkpt lat="43.13114912687745" lon="11.555159319195852"><ele>259.0</ele><time>2026-04-11T16:39:48Z</time></trkpt><trkpt lat="43.131085967244324" lon="11.555149975741529"><ele>260.0</ele><time>2026-04-11T16:39:50Z</time></trkpt><trkpt lat="43.13102543338651" lon="11.555122750696501"><ele>261.0</ele><time>2026-04-11T16:39:52Z</time></trkpt><trkpt lat="43.13094078975106" lon="11.555081757147653"><ele>262.0</ele><time>2026-04-11T16:39:55Z</time></trkpt><trkpt lat="43.13089893616876" lon="11.555002864354947"><ele>262.0</ele><time>2026-04-11T16:39:57Z</time></trkpt><trkpt lat="43.1308442479587" lon="11.554955352096536"><ele>262.0</ele><time>2026-04-11T16:39:59Z</time></trkpt><trkpt lat="43.13080571308018" lon="11.554880674896893"><ele>262.0</ele><time>2026-04-11T16:40:01Z</time></trkpt><trkpt lat="43.13076134724148" lon="11.55480882418093"><ele>262.0</ele><time>2026-04-11T16:40:03Z</time></trkpt><trkpt lat="43.13069940068338" lon="11.554710998861884"><ele>262.0</ele><time>2026-04-11T16:40:06Z</time></trkpt><trkpt lat="43.13063067484939" lon="11.554625695852051"><ele>262.0</ele><time>2026-04-11T16:40:09Z</time></trkpt><trkpt lat="43.13058069835316" lon="11.554571506567305"><ele>262.66666666666663</ele><time>2026-04-11T16:40:11Z</time></trkpt><trkpt lat="43.13050329160282" lon="11.554509197397172"><ele>263.3333333333333</ele><time>2026-04-11T16:40:14Z</time></trkpt><trkpt lat="43.13042366605042" lon="11.554456910623417"><ele>264.0</ele><time>2026-04-11T16:40:17Z</time></trkpt><trkpt lat="43.13035246451105" lon="11.554391293992392"><ele>264.6666666666667</ele><time>2026-04-11T16:40:20Z</time></trkpt><trkpt lat="43.130289055836776" lon="11.554319805516077"><ele>265.33333333333337</ele><time>2026-04-11T16:40:23Z</time></trkpt><trkpt lat="43.13023093966192" lon="11.554236071559641"><ele>266.0</ele><time>2026-04-11T16:40:26Z</time></trkpt><trkpt lat="43.13016564336724" lon="11.554158140012897"><ele>266.0</ele><time>2026-04-11T16:40:29Z</time></trkpt><trkpt lat="43.130097886335335" lon="11.554071370308845"><ele>266.0</ele><time>2026-04-11T16:40:32.001Z</time></trkpt><trkpt lat="43.130024218450764" lon="11.553994578415542"><ele>266.0</ele><time>2026-04-11T16:40:35.001Z</time></trkpt><trkpt lat="43.12996611046548" lon="11.553943375092153"><ele>266.0</ele><time>2026-04-11T16:40:37.001Z</time></trkpt><trkpt lat="43.129905263167004" lon="11.553905325040882"><ele>266.0</ele><time>2026-04-11T16:40:39.001Z</time></trkpt><trkpt lat="43.129842138054734" lon="11.553873006481174"><ele>266.0</ele><time>2026-04-11T16:40:41.001Z</time></trkpt><trkpt lat="43.12975526111988" lon="11.553835189646732"><ele>266.1666666666667</ele><time>2026-04-11T16:40:44.001Z</time></trkpt><trkpt lat="43.12966668009312" lon="11.553819020446113"><ele>266.33333333333337</ele><time>2026-04-11T16:40:47.001Z</time></trkpt><trkpt lat="43.12960200143843" lon="11.553805068404401"><ele>266.5</ele><time>2026-04-11T16:40:49.001Z</time></trkpt><trkpt lat="43.12953840728379" lon="11.55380160299637"><ele>266.6666666666667</ele><time>2026-04-11T16:40:51.001Z</time></trkpt><trkpt lat="43.12945142182659" lon="11.55377458350584"><ele>266.8333333333333</ele><time>2026-04-11T16:40:54.001Z</time></trkpt><trkpt lat="43.12937830953227" lon="11.553714313301034"><ele>267.0</ele><time>2026-04-11T16:40:57.001Z</time></trkpt><trkpt lat="43.12932672087091" lon="11.55360646057097"><ele>268.8333333333333</ele><time>2026-04-11T16:41:00.001Z</time></trkpt><trkpt lat="43.12930814302302" lon="11.553492158954835"><ele>270.6666666666667</ele><time>2026-04-11T16:41:03.001Z</time></trkpt><trkpt lat="43.12932349142339" lon="11.55338128710265"><ele>272.5</ele><time>2026-04-11T16:41:06.001Z</time></trkpt><trkpt lat="43.12935693224414" lon="11.55328338289076"><ele>274.33333333333337</ele><time>2026-04-11T16:41:09.001Z</time></trkpt><trkpt lat="43.129416915279485" lon="11.553200812009367"><ele>276.1666666666667</ele><time>2026-04-11T16:41:12.001Z</time></trkpt><trkpt lat="43.129499314027306" lon="11.553156532282713"><ele>278.0</ele><time>2026-04-11T16:41:15.001Z</time></trkpt><trkpt lat="43.129562430955986" lon="11.553138337115797"><ele>278.0</ele><time>2026-04-11T16:41:17.001Z</time></trkpt><trkpt lat="43.129659147623016" lon="11.5531413154881"><ele>278.0</ele><time>2026-04-11T16:41:20.001Z</time></trkpt><trkpt lat="43.12972253512378" lon="11.553157624939603"><ele>278.0</ele><time>2026-04-11T16:41:22.001Z</time></trkpt><trkpt lat="43.129808552113715" lon="11.55318966392095"><ele>278.0</ele><time>2026-04-11T16:41:25.001Z</time></trkpt><trkpt lat="43.129873542357004" lon="11.553208727504305"><ele>278.0</ele><time>2026-04-11T16:41:27.001Z</time></trkpt><trkpt lat="43.129956879256675" lon="11.553228489538899"><ele>278.0</ele><time>2026-04-11T16:41:30.001Z</time></trkpt><trkpt lat="43.13004202777815" lon="11.55326426964156"><ele>278.0</ele><time>2026-04-11T16:41:33.001Z</time></trkpt><trkpt lat="43.13012314622608" lon="11.553292606821762"><ele>278.0</ele><time>2026-04-11T16:41:35.997Z</time></trkpt><trkpt lat="43.1302104321876" lon="11.553320085562271"><ele>278.0</ele><time>2026-04-11T16:41:38.997Z</time></trkpt><trkpt lat="43.13029454584456" lon="11.55335328833456"><ele>278.0</ele><time>2026-04-11T16:41:41.997Z</time></trkpt><trkpt lat="43.13038026770825" lon="11.55338764573042"><ele>278.0</ele><time>2026-04-11T16:41:44.997Z</time></trkpt><trkpt lat="43.13044337552198" lon="11.553412304509017"><ele>278.0</ele><time>2026-04-11T16:41:46.997Z</time></trkpt><trkpt lat="43.13053383013854" lon="11.55342747216939"><ele>278.0</ele><time>2026-04-11T16:41:49.997Z</time></trkpt><trkpt lat="43.130627350125" lon="11.553439087931688"><ele>278.0</ele><time>2026-04-11T16:41:52.998Z</time></trkpt><trkpt lat="43.130718448516106" lon="11.553427026736275"><ele>278.0</ele><time>2026-04-11T16:41:55.998Z</time></trkpt><trkpt lat="43.13077855766418" lon="11.553399063765587"><ele>278.0</ele><time>2026-04-11T16:41:57.998Z</time></trkpt><trkpt lat="43.13083935483104" lon="11.55336799890492"><ele>278.0</ele><time>2026-04-11T16:41:59.998Z</time></trkpt><trkpt lat="43.13089714553666" lon="11.55333020670973"><ele>278.0</ele><time>2026-04-11T16:42:01.998Z</time></trkpt><trkpt lat="43.130948271621044" lon="11.553275984428652"><ele>278.0</ele><time>2026-04-11T16:42:03.998Z</time></trkpt><trkpt lat="43.13101405794491" lon="11.553187948360465"><ele>278.83333333333337</ele><time>2026-04-11T16:42:06.999Z</time></trkpt><trkpt lat="43.131048740426124" lon="11.553112860696073"><ele>279.6666666666667</ele><time>2026-04-11T16:42:08.999Z</time></trkpt><trkpt lat="43.13108858852221" lon="11.553000955932756"><ele>280.5</ele><time>2026-04-11T16:42:11.999Z</time></trkpt><trkpt lat="43.131105479136465" lon="11.552911904182302"><ele>281.3333333333333</ele><time>2026-04-11T16:42:13.999Z</time></trkpt><trkpt lat="43.13111142376759" lon="11.55279066915284"><ele>282.16666666666663</ele><time>2026-04-11T16:42:16.999Z</time></trkpt><trkpt lat="43.131108943238786" lon="11.552666670061"><ele>283.0</ele><time>2026-04-11T16:42:19.999Z</time></trkpt><trkpt lat="43.13109773742139" lon="11.552544361321257"><ele>284.5</ele><time>2026-04-11T16:42:22.999Z</time></trkpt><trkpt lat="43.13108081185084" lon="11.55243087355171"><ele>286.0</ele><time>2026-04-11T16:42:25.999Z</time></trkpt><trkpt lat="43.13107892446691" lon="11.552330155734545"><ele>287.5</ele><time>2026-04-11T16:42:28.999Z</time></trkpt><trkpt lat="43.13107116290977" lon="11.55222691199545"><ele>289.0</ele><time>2026-04-11T16:42:31.999Z</time></trkpt><trkpt lat="43.13107909147341" lon="11.552118285346387"><ele>290.5</ele><time>2026-04-11T16:42:35Z</time></trkpt><trkpt lat="43.13108851482014" lon="11.552019691283968"><ele>292.0</ele><time>2026-04-11T16:42:38Z</time></trkpt><trkpt lat="43.13111067930271" lon="11.55191176748436"><ele>293.5</ele><time>2026-04-11T16:42:41Z</time></trkpt><trkpt lat="43.13113455866801" lon="11.551813367434026"><ele>295.0</ele><time>2026-04-11T16:42:44Z</time></trkpt><trkpt lat="43.13116514221092" lon="11.551704514223909"><ele>296.5</ele><time>2026-04-11T16:42:47Z</time></trkpt><trkpt lat="43.13120680993923" lon="11.551610832446475"><ele>298.0</ele><time>2026-04-11T16:42:50Z</time></trkpt><trkpt lat="43.131257058869494" lon="11.551519125353282"><ele>299.5</ele><time>2026-04-11T16:42:53Z</time></trkpt><trkpt lat="43.13131476884123" lon="11.55143801711718"><ele>301.0</ele><time>2026-04-11T16:42:56Z</time></trkpt><trkpt lat="43.131365336858195" lon="11.551353490313534"><ele>301.0</ele><time>2026-04-11T16:42:59Z</time></trkpt><trkpt lat="43.13141458972242" lon="11.551266063946263"><ele>301.0</ele><time>2026-04-11T16:43:02Z</time></trkpt><trkpt lat="43.13146352381493" lon="11.551176861290182"><ele>301.0</ele><time>2026-04-11T16:43:05Z</time></trkpt><trkpt lat="43.13151061933674" lon="11.551067078381305"><ele>301.0</ele><time>2026-04-11T16:43:08Z</time></trkpt><trkpt lat="43.13156322482152" lon="11.550967785055212"><ele>301.0</ele><time>2026-04-11T16:43:11Z</time></trkpt><trkpt lat="43.13160499045926" lon="11.550898513228066"><ele>301.0</ele><time>2026-04-11T16:43:13Z</time></trkpt><trkpt lat="43.13164545535631" lon="11.550831122299929"><ele>300.57142857142856</ele><time>2026-04-11T16:43:15Z</time></trkpt><trkpt lat="43.13168274590002" lon="11.550757869696577"><ele>300.1428571428571</ele><time>2026-04-11T16:43:17Z</time></trkpt><trkpt lat="43.131722516573696" lon="11.550689563593437"><ele>299.7142857142857</ele><time>2026-04-11T16:43:19.001Z</time></trkpt><trkpt lat="43.131760641616644" lon="11.55061676020071"><ele>299.2857142857143</ele><time>2026-04-11T16:43:21.001Z</time></trkpt><trkpt lat="43.13180146363814" lon="11.550541646191677"><ele>298.85714285714283</ele><time>2026-04-11T16:43:23.001Z</time></trkpt><trkpt lat="43.13184229595195" lon="11.550474766473156"><ele>298.42857142857144</ele><time>2026-04-11T16:43:25.001Z</time></trkpt><trkpt lat="43.13188061767366" lon="11.550395145731969"><ele>298.0</ele><time>2026-04-11T16:43:27.001Z</time></trkpt><trkpt lat="43.131921242362196" lon="11.550322584812115"><ele>299.2857142857143</ele><time>2026-04-11T16:43:29.001Z</time></trkpt><trkpt lat="43.13195815597034" lon="11.550248751543688"><ele>300.57142857142856</ele><time>2026-04-11T16:43:31.001Z</time></trkpt><trkpt lat="43.131996619366966" lon="11.550180328760934"><ele>301.85714285714283</ele><time>2026-04-11T16:43:33.001Z</time></trkpt><trkpt lat="43.132045803692606" lon="11.550102199938664"><ele>303.1428571428571</ele><time>2026-04-11T16:43:35.001Z</time></trkpt><trkpt lat="43.132097351501386" lon="11.549995086517205"><ele>304.42857142857144</ele><time>2026-04-11T16:43:38.001Z</time></trkpt><trkpt lat="43.132132326756384" lon="11.549919691516468"><ele>305.71428571428567</ele><time>2026-04-11T16:43:40.001Z</time></trkpt><trkpt lat="43.13217159697954" lon="11.549852160190829"><ele>307.0</ele><time>2026-04-11T16:43:41.997Z</time></trkpt><trkpt lat="43.13220780341378" lon="11.549779550261444"><ele>307.0</ele><time>2026-04-11T16:43:43.997Z</time></trkpt><trkpt lat="43.13226612095641" lon="11.549685046132604"><ele>307.0</ele><time>2026-04-11T16:43:46.997Z</time></trkpt><trkpt lat="43.13230388635373" lon="11.54961097301107"><ele>307.0</ele><time>2026-04-11T16:43:48.997Z</time></trkpt><trkpt lat="43.1323566942262" lon="11.549501521404984"><ele>307.0</ele><time>2026-04-11T16:43:51.997Z</time></trkpt><trkpt lat="43.13240416611093" lon="11.549438735043282"><ele>307.0</ele><time>2026-04-11T16:43:53.997Z</time></trkpt><trkpt lat="43.13244950424974" lon="11.549368224385033"><ele>307.0</ele><time>2026-04-11T16:43:55.998Z</time></trkpt><trkpt lat="43.132524085159616" lon="11.549270110096629"><ele>307.2857142857143</ele><time>2026-04-11T16:43:58.998Z</time></trkpt><trkpt lat="43.13257456893507" lon="11.54921564869957"><ele>307.57142857142856</ele><time>2026-04-11T16:44:00.998Z</time></trkpt><trkpt lat="43.132630009739394" lon="11.549172771259855"><ele>307.8571428571429</ele><time>2026-04-11T16:44:02.998Z</time></trkpt><trkpt lat="43.13269155274812" lon="11.549134245389869"><ele>308.1428571428571</ele><time>2026-04-11T16:44:04.998Z</time></trkpt><trkpt lat="43.132753199317364" lon="11.549090909930031"><ele>308.42857142857144</ele><time>2026-04-11T16:44:06.999Z</time></trkpt><trkpt lat="43.1328153048853" lon="11.549052939910785"><ele>308.7142857142857</ele><time>2026-04-11T16:44:08.999Z</time></trkpt><trkpt lat="43.132883390207965" lon="11.549010407071606"><ele>309.0</ele><time>2026-04-11T16:44:10.999Z</time></trkpt><trkpt lat="43.13294843589657" lon="11.548964764268087"><ele>309.0</ele><time>2026-04-11T16:44:12.999Z</time></trkpt><trkpt lat="43.13300976570886" lon="11.548917888856574"><ele>309.0</ele><time>2026-04-11T16:44:14.999Z</time></trkpt><trkpt lat="43.13307255552971" lon="11.548884272428873"><ele>309.0</ele><time>2026-04-11T16:44:16.999Z</time></trkpt><trkpt lat="43.13313159531252" lon="11.548840676560875"><ele>309.0</ele><time>2026-04-11T16:44:18.999Z</time></trkpt><trkpt lat="43.133188302973615" lon="11.548798073409944"><ele>309.0</ele><time>2026-04-11T16:44:20.999Z</time></trkpt><trkpt lat="43.133261651470896" lon="11.54871158129638"><ele>309.0</ele><time>2026-04-11T16:44:24Z</time></trkpt><trkpt lat="43.13332909636532" lon="11.548620327517606"><ele>309.3333333333333</ele><time>2026-04-11T16:44:27Z</time></trkpt><trkpt lat="43.133385056419456" lon="11.5485077934875"><ele>309.6666666666667</ele><time>2026-04-11T16:44:30Z</time></trkpt><trkpt lat="43.13341607299454" lon="11.548418236527317"><ele>310.0</ele><time>2026-04-11T16:44:32Z</time></trkpt><trkpt lat="43.133447424463704" lon="11.548322068705009"><ele>310.33333333333337</ele><time>2026-04-11T16:44:34Z</time></trkpt><trkpt lat="43.13346673388054" lon="11.548205776115793"><ele>310.6666666666667</ele><time>2026-04-11T16:44:36Z</time></trkpt><trkpt lat="43.13347601010167" lon="11.548086450233425"><ele>311.0</ele><time>2026-04-11T16:44:38Z</time></trkpt><trkpt lat="43.13345913793" lon="11.547959455307902"><ele>311.0</ele><time>2026-04-11T16:44:40Z</time></trkpt><trkpt lat="43.13344430731886" lon="11.547832803345546"><ele>311.0</ele><time>2026-04-11T16:44:42Z</time></trkpt><trkpt lat="43.13341443875787" lon="11.54770274906878"><ele>311.0</ele><time>2026-04-11T16:44:44Z</time></trkpt><trkpt lat="43.13337145735768" lon="11.547557913412309"><ele>311.0</ele><time>2026-04-11T16:44:46Z</time></trkpt><trkpt lat="43.133336799732625" lon="11.54741109436437"><ele>311.0</ele><time>2026-04-11T16:44:48Z</time></trkpt><trkpt lat="43.13329607569043" lon="11.547256177071391"><ele>311.0</ele><time>2026-04-11T16:44:50Z</time></trkpt><trkpt lat="43.13327763727511" lon="11.547167289180377"><ele>311.0</ele><time>2026-04-11T16:44:51Z</time></trkpt><trkpt lat="43.133258464858606" lon="11.54708330371608"><ele>311.0</ele><time>2026-04-11T16:44:52.001Z</time></trkpt><trkpt lat="43.13323380339181" lon="11.547000032334669"><ele>311.0</ele><time>2026-04-11T16:44:53.001Z</time></trkpt><trkpt lat="43.13321206675982" lon="11.546908626198388"><ele>311.0</ele><time>2026-04-11T16:44:54.001Z</time></trkpt><trkpt lat="43.13319235312347" lon="11.546820052536594"><ele>311.0</ele><time>2026-04-11T16:44:55.001Z</time></trkpt><trkpt lat="43.13317548231852" lon="11.546729096036557"><ele>311.0</ele><time>2026-04-11T16:44:56.001Z</time></trkpt><trkpt lat="43.133153205156546" lon="11.546635123865157"><ele>308.7142857142857</ele><time>2026-04-11T16:44:57.001Z</time></trkpt><trkpt lat="43.13313028536717" lon="11.546545215637524"><ele>306.42857142857144</ele><time>2026-04-11T16:44:58.001Z</time></trkpt><trkpt lat="43.133111670901954" lon="11.546445250933186"><ele>304.14285714285717</ele><time>2026-04-11T16:44:59.001Z</time></trkpt><trkpt lat="43.133088156843044" lon="11.546352491210968"><ele>301.8571428571429</ele><time>2026-04-11T16:45:00.001Z</time></trkpt><trkpt lat="43.13306816628546" lon="11.546255573445432"><ele>299.57142857142856</ele><time>2026-04-11T16:45:01.001Z</time></trkpt><trkpt lat="43.13304576671246" lon="11.54615461985093"><ele>297.28571428571433</ele><time>2026-04-11T16:45:02.001Z</time></trkpt><trkpt lat="43.13302495439393" lon="11.546062788282955"><ele>295.0</ele><time>2026-04-11T16:45:03.001Z</time></trkpt><trkpt lat="43.13300372248149" lon="11.545969595205161"><ele>295.00000000000006</ele><time>2026-04-11T16:45:04.001Z</time></trkpt><trkpt lat="43.13298408694036" lon="11.545875811568216"><ele>295.0</ele><time>2026-04-11T16:45:05.001Z</time></trkpt><trkpt lat="43.132965820236" lon="11.545786349080444"><ele>295.0</ele><time>2026-04-11T16:45:06.001Z</time></trkpt><trkpt lat="43.13294304350554" lon="11.545698444726801"><ele>295.0</ele><time>2026-04-11T16:45:07.001Z</time></trkpt><trkpt lat="43.13292081379992" lon="11.54561273464514"><ele>295.0</ele><time>2026-04-11T16:45:08.001Z</time></trkpt><trkpt lat="43.13289950588917" lon="11.545522836654445"><ele>295.00000000000006</ele><time>2026-04-11T16:45:09.001Z</time></trkpt><trkpt lat="43.132874573639896" lon="11.545428390769931"><ele>295.0</ele><time>2026-04-11T16:45:10.001Z</time></trkpt><trkpt lat="43.132847020238174" lon="11.545339132482543"><ele>295.42857142857144</ele><time>2026-04-11T16:45:11.001Z</time></trkpt><trkpt lat="43.132831346992646" lon="11.54524680293294"><ele>295.8571428571429</ele><time>2026-04-11T16:45:12.001Z</time></trkpt><trkpt lat="43.13281469334257" lon="11.545156510608912"><ele>296.2857142857143</ele><time>2026-04-11T16:45:13.001Z</time></trkpt><trkpt lat="43.13279745025009" lon="11.545062132772426"><ele>296.7142857142857</ele><time>2026-04-11T16:45:14.001Z</time></trkpt><trkpt lat="43.13277739816332" lon="11.54496733406781"><ele>297.1428571428571</ele><time>2026-04-11T16:45:15.001Z</time></trkpt><trkpt lat="43.13275106245404" lon="11.54487044970826"><ele>297.57142857142856</ele><time>2026-04-11T16:45:16.001Z</time></trkpt><trkpt lat="43.13272432448863" lon="11.544770266294677"><ele>298.0</ele><time>2026-04-11T16:45:17.001Z</time></trkpt><trkpt lat="43.132699740223394" lon="11.544680380392768"><ele>298.0</ele><time>2026-04-11T16:45:18.001Z</time></trkpt><trkpt lat="43.13267299163415" lon="11.54458083430678"><ele>298.0</ele><time>2026-04-11T16:45:19.001Z</time></trkpt><trkpt lat="43.13265226969424" lon="11.544482980753921"><ele>298.0</ele><time>2026-04-11T16:45:20.001Z</time></trkpt><trkpt lat="43.132634387984545" lon="11.544381768520457"><ele>298.0</ele><time>2026-04-11T16:45:21.001Z</time></trkpt><trkpt lat="43.13260530520396" lon="11.544284769961473"><ele>298.0</ele><time>2026-04-11T16:45:22.001Z</time></trkpt><trkpt lat="43.1325827255834" lon="11.544190169034026"><ele>298.0</ele><time>2026-04-11T16:45:23.001Z</time></trkpt><trkpt lat="43.132554406681336" lon="11.544095528972301"><ele>298.66666666666663</ele><time>2026-04-11T16:45:24.002Z</time></trkpt><trkpt lat="43.13252627873137" lon="11.544001365002218"><ele>299.3333333333333</ele><time>2026-04-11T16:45:25.002Z</time></trkpt><trkpt lat="43.132498231820946" lon="11.543903802817852"><ele>300.0</ele><time>2026-04-11T16:45:26.002Z</time></trkpt><trkpt lat="43.13246694738498" lon="11.543806965523057"><ele>300.6666666666667</ele><time>2026-04-11T16:45:27.002Z</time></trkpt><trkpt lat="43.13243485935493" lon="11.543711975345465"><ele>301.33333333333337</ele><time>2026-04-11T16:45:28.002Z</time></trkpt><trkpt lat="43.1324041192084" lon="11.543619832162799"><ele>302.0</ele><time>2026-04-11T16:45:29.002Z</time></trkpt><trkpt lat="43.13236319854457" lon="11.54353911409162"><ele>302.0</ele><time>2026-04-11T16:45:30.002Z</time></trkpt><trkpt lat="43.132322248509396" lon="11.543451157742826"><ele>302.0</ele><time>2026-04-11T16:45:31.002Z</time></trkpt><trkpt lat="43.13228503236852" lon="11.543364654840522"><ele>302.0</ele><time>2026-04-11T16:45:32.002Z</time></trkpt><trkpt lat="43.132246322238394" lon="11.543273520950292"><ele>302.0</ele><time>2026-04-11T16:45:33.002Z</time></trkpt><trkpt lat="43.13220327208416" lon="11.543185574668337"><ele>302.0</ele><time>2026-04-11T16:45:34.002Z</time></trkpt><trkpt lat="43.13216680045112" lon="11.543089667052744"><ele>302.0</ele><time>2026-04-11T16:45:35.002Z</time></trkpt><trkpt lat="43.13213231064339" lon="11.542990043006908"><ele>302.0</ele><time>2026-04-11T16:45:36.002Z</time></trkpt><trkpt lat="43.13209283370669" lon="11.542892867302747"><ele>302.0</ele><time>2026-04-11T16:45:37.002Z</time></trkpt><trkpt lat="43.13205222009049" lon="11.542793742538626"><ele>302.0</ele><time>2026-04-11T16:45:38.002Z</time></trkpt><trkpt lat="43.132014232273235" lon="11.5426915269228"><ele>302.0</ele><time>2026-04-11T16:45:39.002Z</time></trkpt><trkpt lat="43.13198121949219" lon="11.542584546619608"><ele>302.0</ele><time>2026-04-11T16:45:40.002Z</time></trkpt><trkpt lat="43.13193724438148" lon="11.542481635549473"><ele>302.0</ele><time>2026-04-11T16:45:41.002Z</time></trkpt><trkpt lat="43.13189830414607" lon="11.542377954181028"><ele>302.4</ele><time>2026-04-11T16:45:42.002Z</time></trkpt><trkpt lat="43.131855201188536" lon="11.542274599396745"><ele>302.79999999999995</ele><time>2026-04-11T16:45:43.002Z</time></trkpt><trkpt lat="43.13182373613079" lon="11.542157876702973"><ele>303.2</ele><time>2026-04-11T16:45:44.002Z</time></trkpt><trkpt lat="43.13180473017948" lon="11.542037722195236"><ele>303.59999999999997</ele><time>2026-04-11T16:45:45.002Z</time></trkpt><trkpt lat="43.13180071126904" lon="11.541910272516004"><ele>304.0</ele><time>2026-04-11T16:45:46.002Z</time></trkpt><trkpt lat="43.13181187574324" lon="11.541784534384641"><ele>304.2</ele><time>2026-04-11T16:45:47.002Z</time></trkpt><trkpt lat="43.13182945306572" lon="11.541659062737956"><ele>304.4</ele><time>2026-04-11T16:45:47.998Z</time></trkpt><trkpt lat="43.13186641046978" lon="11.541544549482154"><ele>304.6</ele><time>2026-04-11T16:45:48.998Z</time></trkpt><trkpt lat="43.13187866406505" lon="11.54141448658067"><ele>304.8</ele><time>2026-04-11T16:45:49.998Z</time></trkpt><trkpt lat="43.13190126340597" lon="11.541285305676878"><ele>305.0</ele><time>2026-04-11T16:45:50.998Z</time></trkpt><trkpt lat="43.131918913132004" lon="11.541152233948772"><ele>305.2</ele><time>2026-04-11T16:45:51.998Z</time></trkpt><trkpt lat="43.13193686757237" lon="11.541017042970008"><ele>305.4</ele><time>2026-04-11T16:45:52.998Z</time></trkpt><trkpt lat="43.13195049654173" lon="11.540877499283095"><ele>305.6</ele><time>2026-04-11T16:45:53.998Z</time></trkpt><trkpt lat="43.131972417068546" lon="11.54074010384838"><ele>305.8</ele><time>2026-04-11T16:45:54.998Z</time></trkpt><trkpt lat="43.13199542593351" lon="11.540596260231405"><ele>306.0</ele><time>2026-04-11T16:45:55.998Z</time></trkpt><trkpt lat="43.13202866553408" lon="11.540452510957191"><ele>306.0</ele><time>2026-04-11T16:45:56.998Z</time></trkpt><trkpt lat="43.132069347820135" lon="11.54031675445475"><ele>306.0</ele><time>2026-04-11T16:45:57.998Z</time></trkpt><trkpt lat="43.13210981199145" lon="11.540178485744995"><ele>306.0</ele><time>2026-04-11T16:45:58.998Z</time></trkpt><trkpt lat="43.132142742359676" lon="11.540045285322769"><ele>306.0</ele><time>2026-04-11T16:45:59.998Z</time></trkpt><trkpt lat="43.13216744462444" lon="11.539902724514638"><ele>306.0</ele><time>2026-04-11T16:46:00.998Z</time></trkpt><trkpt lat="43.13218236880108" lon="11.539760605911624"><ele>306.0</ele><time>2026-04-11T16:46:01.998Z</time></trkpt><trkpt lat="43.13218635766373" lon="11.539616487599393"><ele>306.0</ele><time>2026-04-11T16:46:02.998Z</time></trkpt><trkpt lat="43.13218349956723" lon="11.539472868765262"><ele>306.0</ele><time>2026-04-11T16:46:03.998Z</time></trkpt><trkpt lat="43.13217670323965" lon="11.539328037461724"><ele>306.0</ele><time>2026-04-11T16:46:04.998Z</time></trkpt><trkpt lat="43.132178635272865" lon="11.539173075144868"><ele>306.0</ele><time>2026-04-11T16:46:05.999Z</time></trkpt><trkpt lat="43.13218582847403" lon="11.539026230780783"><ele>305.0</ele><time>2026-04-11T16:46:06.999Z</time></trkpt><trkpt lat="43.13219875611201" lon="11.538884221637783"><ele>304.0</ele><time>2026-04-11T16:46:07.999Z</time></trkpt><trkpt lat="43.13221739407012" lon="11.538736798918451"><ele>303.0</ele><time>2026-04-11T16:46:08.999Z</time></trkpt><trkpt lat="43.132240019940426" lon="11.538579325524308"><ele>302.0</ele><time>2026-04-11T16:46:09.999Z</time></trkpt><trkpt lat="43.132263305787575" lon="11.538431701947943"><ele>301.0</ele><time>2026-04-11T16:46:10.999Z</time></trkpt><trkpt lat="43.13229680124662" lon="11.538283082594567"><ele>299.0</ele><time>2026-04-11T16:46:11.999Z</time></trkpt><trkpt lat="43.132336121270626" lon="11.538136928968552"><ele>297.0</ele><time>2026-04-11T16:46:12.999Z</time></trkpt><trkpt lat="43.13238554901111" lon="11.53798877461592"><ele>295.0</ele><time>2026-04-11T16:46:13.999Z</time></trkpt><trkpt lat="43.13243062280248" lon="11.537847915850787"><ele>293.0</ele><time>2026-04-11T16:46:14.999Z</time></trkpt><trkpt lat="43.13247052310807" lon="11.537714029584704"><ele>291.0</ele><time>2026-04-11T16:46:15.999Z</time></trkpt><trkpt lat="43.13251541373134" lon="11.537581227591467"><ele>289.0</ele><time>2026-04-11T16:46:16.999Z</time></trkpt><trkpt lat="43.1325611990856" lon="11.537446319241367"><ele>287.0</ele><time>2026-04-11T16:46:17.999Z</time></trkpt><trkpt lat="43.13261019065429" lon="11.537314735407374"><ele>285.0</ele><time>2026-04-11T16:46:18.999Z</time></trkpt><trkpt lat="43.13266653797116" lon="11.537184757817872"><ele>283.0</ele><time>2026-04-11T16:46:19.999Z</time></trkpt><trkpt lat="43.13272810865346" lon="11.537062137106904"><ele>281.4</ele><time>2026-04-11T16:46:20.999Z</time></trkpt><trkpt lat="43.132798004337765" lon="11.536943515577219"><ele>279.8</ele><time>2026-04-11T16:46:22Z</time></trkpt><trkpt lat="43.132870948767895" lon="11.53683330840506"><ele>278.2</ele><time>2026-04-11T16:46:23Z</time></trkpt><trkpt lat="43.132951941526024" lon="11.536730445728795"><ele>276.6</ele><time>2026-04-11T16:46:24Z</time></trkpt><trkpt lat="43.13304181689934" lon="11.536629976231703"><ele>275.0</ele><time>2026-04-11T16:46:25Z</time></trkpt><trkpt lat="43.13312299471461" lon="11.536521091185975"><ele>275.0</ele><time>2026-04-11T16:46:26Z</time></trkpt><trkpt lat="43.13320150009142" lon="11.53641554806573"><ele>275.0</ele><time>2026-04-11T16:46:27Z</time></trkpt><trkpt lat="43.13328680187327" lon="11.536296841184697"><ele>275.0</ele><time>2026-04-11T16:46:28Z</time></trkpt><trkpt lat="43.13336728180173" lon="11.536188262060321"><ele>275.0</ele><time>2026-04-11T16:46:29Z</time></trkpt><trkpt lat="43.1334365715208" lon="11.536071106011699"><ele>274.5</ele><time>2026-04-11T16:46:30Z</time></trkpt><trkpt lat="43.13350518939637" lon="11.535947105659126"><ele>274.0</ele><time>2026-04-11T16:46:31Z</time></trkpt><trkpt lat="43.13356853964072" lon="11.535817671543443"><ele>273.5</ele><time>2026-04-11T16:46:32Z</time></trkpt><trkpt lat="43.133630653689934" lon="11.5356856898502"><ele>273.0</ele><time>2026-04-11T16:46:33Z</time></trkpt><trkpt lat="43.1336900156806" lon="11.535548404661446"><ele>273.0</ele><time>2026-04-11T16:46:34Z</time></trkpt><trkpt lat="43.13374888254177" lon="11.535414276060642"><ele>273.0</ele><time>2026-04-11T16:46:35Z</time></trkpt><trkpt lat="43.13380430696273" lon="11.535274930990195"><ele>273.0</ele><time>2026-04-11T16:46:36Z</time></trkpt><trkpt lat="43.13385826008256" lon="11.535148565288358"><ele>273.0</ele><time>2026-04-11T16:46:37Z</time></trkpt><trkpt lat="43.1339211898746" lon="11.535009124172669"><ele>272.0</ele><time>2026-04-11T16:46:38Z</time></trkpt><trkpt lat="43.13397066687553" lon="11.534878393873344"><ele>271.0</ele><time>2026-04-11T16:46:39Z</time></trkpt><trkpt lat="43.13402079338334" lon="11.53475179181306"><ele>270.0</ele><time>2026-04-11T16:46:40Z</time></trkpt><trkpt lat="43.13407279011407" lon="11.534631191590533"><ele>269.0</ele><time>2026-04-11T16:46:41Z</time></trkpt><trkpt lat="43.1341280632683" lon="11.534512018091773"><ele>268.0</ele><time>2026-04-11T16:46:42Z</time></trkpt><trkpt lat="43.13418274277817" lon="11.5343959780322"><ele>268.0</ele><time>2026-04-11T16:46:43Z</time></trkpt><trkpt lat="43.13423424797377" lon="11.534283914193562"><ele>268.0</ele><time>2026-04-11T16:46:44Z</time></trkpt><trkpt lat="43.13428071633972" lon="11.534168470467437"><ele>268.0</ele><time>2026-04-11T16:46:45Z</time></trkpt><trkpt lat="43.134329602254496" lon="11.534058812556903"><ele>268.0</ele><time>2026-04-11T16:46:46Z</time></trkpt><trkpt lat="43.13437307611915" lon="11.533951974157096"><ele>268.0</ele><time>2026-04-11T16:46:47Z</time></trkpt><trkpt lat="43.13441489426371" lon="11.533840225186617"><ele>268.0</ele><time>2026-04-11T16:46:48.001Z</time></trkpt><trkpt lat="43.13445048369856" lon="11.533732440189796"><ele>268.0</ele><time>2026-04-11T16:46:49.001Z</time></trkpt><trkpt lat="43.134477614077525" lon="11.533621197550527"><ele>268.0</ele><time>2026-04-11T16:46:50.001Z</time></trkpt><trkpt lat="43.1345068162414" lon="11.533510905842569"><ele>268.0</ele><time>2026-04-11T16:46:51.001Z</time></trkpt><trkpt lat="43.134536114415745" lon="11.533408714253365"><ele>268.0</ele><time>2026-04-11T16:46:52.001Z</time></trkpt><trkpt lat="43.13456575091391" lon="11.533306434217735"><ele>268.0</ele><time>2026-04-11T16:46:53.001Z</time></trkpt><trkpt lat="43.134595773148845" lon="11.533209434636522"><ele>267.3333333333333</ele><time>2026-04-11T16:46:54.001Z</time></trkpt><trkpt lat="43.134626603752984" lon="11.533114372810623"><ele>266.66666666666663</ele><time>2026-04-11T16:46:55.001Z</time></trkpt><trkpt lat="43.1346547060022" lon="11.533019977657206"><ele>266.0</ele><time>2026-04-11T16:46:56.001Z</time></trkpt><trkpt lat="43.1346848089737" lon="11.532925917231358"><ele>265.3333333333333</ele><time>2026-04-11T16:46:57.001Z</time></trkpt><trkpt lat="43.13471279607887" lon="11.532829194919666"><ele>264.6666666666667</ele><time>2026-04-11T16:46:58.001Z</time></trkpt><trkpt lat="43.13473838255315" lon="11.532728001076118"><ele>264.0</ele><time>2026-04-11T16:46:59.001Z</time></trkpt><trkpt lat="43.134760383975035" lon="11.532629565570497"><ele>263.8333333333333</ele><time>2026-04-11T16:47:00.001Z</time></trkpt><trkpt lat="43.13478472049385" lon="11.53253060720045"><ele>263.6666666666667</ele><time>2026-04-11T16:47:01.001Z</time></trkpt><trkpt lat="43.13480473281206" lon="11.532436042684267"><ele>263.5</ele><time>2026-04-11T16:47:02.001Z</time></trkpt><trkpt lat="43.13482714195486" lon="11.532335254364826"><ele>263.33333333333337</ele><time>2026-04-11T16:47:03.001Z</time></trkpt><trkpt lat="43.1348443092695" lon="11.53223294982545"><ele>263.1666666666667</ele><time>2026-04-11T16:47:04.001Z</time></trkpt><trkpt lat="43.134866873489976" lon="11.532130935479493"><ele>263.0</ele><time>2026-04-11T16:47:05.001Z</time></trkpt><trkpt lat="43.134885947801784" lon="11.532029452286318"><ele>264.1428571428571</ele><time>2026-04-11T16:47:06.001Z</time></trkpt><trkpt lat="43.134903194449485" lon="11.53192962088721"><ele>265.2857142857143</ele><time>2026-04-11T16:47:07.001Z</time></trkpt><trkpt lat="43.13492114869388" lon="11.531832895025348"><ele>266.42857142857144</ele><time>2026-04-11T16:47:08.001Z</time></trkpt><trkpt lat="43.134944401479004" lon="11.531732433651063"><ele>267.57142857142856</ele><time>2026-04-11T16:47:09.001Z</time></trkpt><trkpt lat="43.1349528981444" lon="11.531642602980812"><ele>268.7142857142857</ele><time>2026-04-11T16:47:10.001Z</time></trkpt><trkpt lat="43.13496751683269" lon="11.531552344894893"><ele>269.85714285714283</ele><time>2026-04-11T16:47:11.001Z</time></trkpt><trkpt lat="43.134979445119974" lon="11.531463309011334"><ele>271.0</ele><time>2026-04-11T16:47:12.001Z</time></trkpt><trkpt lat="43.13499172707466" lon="11.531372658188785"><ele>271.8</ele><time>2026-04-11T16:47:13.001Z</time></trkpt><trkpt lat="43.135010616041036" lon="11.531205312962406"><ele>272.6</ele><time>2026-04-11T16:47:15.001Z</time></trkpt><trkpt lat="43.13502722301482" lon="11.531118556643492"><ele>273.4</ele><time>2026-04-11T16:47:16.001Z</time></trkpt><trkpt lat="43.135038599831816" lon="11.530957615986923"><ele>274.2</ele><time>2026-04-11T16:47:18.001Z</time></trkpt><trkpt lat="43.13504821796466" lon="11.530801187481146"><ele>275.0</ele><time>2026-04-11T16:47:20.002Z</time></trkpt><trkpt lat="43.13505101671624" lon="11.530648859028997"><ele>275.0</ele><time>2026-04-11T16:47:22.002Z</time></trkpt><trkpt lat="43.135012530040726" lon="11.530507970039777"><ele>275.0</ele><time>2026-04-11T16:47:24.002Z</time></trkpt><trkpt lat="43.13496884784919" lon="11.530360572293828"><ele>275.0</ele><time>2026-04-11T16:47:26.002Z</time></trkpt><trkpt lat="43.13491613411947" lon="11.530197664253155"><ele>275.0</ele><time>2026-04-11T16:47:28.002Z</time></trkpt><trkpt lat="43.13488242718975" lon="11.530114734343954"><ele>275.0</ele><time>2026-04-11T16:47:29.002Z</time></trkpt><trkpt lat="43.13484945914386" lon="11.5300229058371"><ele>272.83333333333337</ele><time>2026-04-11T16:47:30.002Z</time></trkpt><trkpt lat="43.134817672304166" lon="11.529924954931937"><ele>270.6666666666667</ele><time>2026-04-11T16:47:31.002Z</time></trkpt><trkpt lat="43.13478832174228" lon="11.529823739090284"><ele>268.5</ele><time>2026-04-11T16:47:32.002Z</time></trkpt><trkpt lat="43.13475763081269" lon="11.529717409086098"><ele>266.3333333333333</ele><time>2026-04-11T16:47:33.002Z</time></trkpt><trkpt lat="43.134719486696255" lon="11.52961662056548"><ele>264.16666666666663</ele><time>2026-04-11T16:47:34.002Z</time></trkpt><trkpt lat="43.134682334808815" lon="11.52951408502252"><ele>262.0</ele><time>2026-04-11T16:47:35.002Z</time></trkpt><trkpt lat="43.134645343264445" lon="11.529409694115904"><ele>262.0</ele><time>2026-04-11T16:47:36.002Z</time></trkpt><trkpt lat="43.13460867070577" lon="11.52930379460721"><ele>262.0</ele><time>2026-04-11T16:47:37.002Z</time></trkpt><trkpt lat="43.134568772824714" lon="11.529197489233212"><ele>262.0</ele><time>2026-04-11T16:47:38.002Z</time></trkpt><trkpt lat="43.134525261637535" lon="11.529090235521009"><ele>262.0</ele><time>2026-04-11T16:47:39.002Z</time></trkpt><trkpt lat="43.134484712282195" lon="11.528981119219255"><ele>262.0</ele><time>2026-04-11T16:47:40.002Z</time></trkpt><trkpt lat="43.134451526780325" lon="11.528863167039164"><ele>262.0</ele><time>2026-04-11T16:47:41.002Z</time></trkpt><trkpt lat="43.13441570693491" lon="11.528744380403255"><ele>262.2</ele><time>2026-04-11T16:47:42.002Z</time></trkpt><trkpt lat="43.13438501836352" lon="11.528615544561575"><ele>262.4</ele><time>2026-04-11T16:47:43.002Z</time></trkpt><trkpt lat="43.13435735814556" lon="11.528481254961473"><ele>262.6</ele><time>2026-04-11T16:47:44.002Z</time></trkpt><trkpt lat="43.13433801582887" lon="11.528344152420607"><ele>262.8</ele><time>2026-04-11T16:47:45.002Z</time></trkpt><trkpt lat="43.134347692953675" lon="11.52819772558107"><ele>263.0</ele><time>2026-04-11T16:47:46.002Z</time></trkpt><trkpt lat="43.1343683944489" lon="11.528051299290476"><ele>263.0</ele><time>2026-04-11T16:47:47.002Z</time></trkpt><trkpt lat="43.134379604143895" lon="11.52790282675911"><ele>263.0</ele><time>2026-04-11T16:47:48.002Z</time></trkpt><trkpt lat="43.134386930255545" lon="11.527741922370033"><ele>263.0</ele><time>2026-04-11T16:47:49.002Z</time></trkpt><trkpt lat="43.13439834001242" lon="11.527584275298514"><ele>263.0</ele><time>2026-04-11T16:47:50.002Z</time></trkpt><trkpt lat="43.134412973976296" lon="11.527426861246955"><ele>262.25</ele><time>2026-04-11T16:47:51.002Z</time></trkpt><trkpt lat="43.13442924381322" lon="11.527269698095617"><ele>261.5</ele><time>2026-04-11T16:47:52.002Z</time></trkpt><trkpt lat="43.13444231446009" lon="11.527113997575334"><ele>260.75</ele><time>2026-04-11T16:47:53.003Z</time></trkpt><trkpt lat="43.13445346022301" lon="11.526960590102105"><ele>260.0</ele><time>2026-04-11T16:47:53.998Z</time></trkpt><trkpt lat="43.13446607527915" lon="11.526805101595613"><ele>258.5</ele><time>2026-04-11T16:47:54.998Z</time></trkpt><trkpt lat="43.134484090414084" lon="11.526649729881218"><ele>257.0</ele><time>2026-04-11T16:47:55.999Z</time></trkpt><trkpt lat="43.13450027761253" lon="11.526493657435141"><ele>255.5</ele><time>2026-04-11T16:47:56.999Z</time></trkpt><trkpt lat="43.13451273369846" lon="11.526341006944255"><ele>254.0</ele><time>2026-04-11T16:47:57.999Z</time></trkpt><trkpt lat="43.134527728586214" lon="11.526187926270424"><ele>253.2</ele><time>2026-04-11T16:47:58.999Z</time></trkpt><trkpt lat="43.134546216606545" lon="11.52603849406409"><ele>252.39999999999998</ele><time>2026-04-11T16:47:59.999Z</time></trkpt><trkpt lat="43.13458268945354" lon="11.525892496747701"><ele>251.6</ele><time>2026-04-11T16:48:00.999Z</time></trkpt><trkpt lat="43.13462606895742" lon="11.5257584105676"><ele>250.8</ele><time>2026-04-11T16:48:01.999Z</time></trkpt><trkpt lat="43.134671788258444" lon="11.525629184286332"><ele>250.0</ele><time>2026-04-11T16:48:02.999Z</time></trkpt><trkpt lat="43.13472399717249" lon="11.525506855855463"><ele>249.8</ele><time>2026-04-11T16:48:03.999Z</time></trkpt><trkpt lat="43.134773838437766" lon="11.525379887383824"><ele>249.6</ele><time>2026-04-11T16:48:04.999Z</time></trkpt><trkpt lat="43.13481560894426" lon="11.52524380200035"><ele>249.39999999999998</ele><time>2026-04-11T16:48:05.999Z</time></trkpt><trkpt lat="43.13485640114055" lon="11.525110403984623"><ele>249.2</ele><time>2026-04-11T16:48:06.999Z</time></trkpt><trkpt lat="43.13489993132522" lon="11.524986064493019"><ele>249.0</ele><time>2026-04-11T16:48:07.999Z</time></trkpt><trkpt lat="43.13493702898811" lon="11.524861958467788"><ele>249.6</ele><time>2026-04-11T16:48:08.999Z</time></trkpt><trkpt lat="43.13497177977961" lon="11.524735970423745"><ele>250.2</ele><time>2026-04-11T16:48:10Z</time></trkpt><trkpt lat="43.13500272991547" lon="11.524613988276197"><ele>250.79999999999998</ele><time>2026-04-11T16:48:11Z</time></trkpt><trkpt lat="43.13502638829846" lon="11.52449395088039"><ele>251.39999999999998</ele><time>2026-04-11T16:48:12Z</time></trkpt><trkpt lat="43.13504588488859" lon="11.524372052143038"><ele>252.0</ele><time>2026-04-11T16:48:13Z</time></trkpt><trkpt lat="43.135050220270536" lon="11.524244816721469"><ele>252.0</ele><time>2026-04-11T16:48:14Z</time></trkpt><trkpt lat="43.13504914810813" lon="11.524114834971018"><ele>252.0</ele><time>2026-04-11T16:48:15Z</time></trkpt><trkpt lat="43.135045213265926" lon="11.523976633710296"><ele>252.0</ele><time>2026-04-11T16:48:16Z</time></trkpt><trkpt lat="43.13503319196069" lon="11.523833726813105"><ele>252.0</ele><time>2026-04-11T16:48:17Z</time></trkpt><trkpt lat="43.13502765123371" lon="11.523680900106969"><ele>252.0</ele><time>2026-04-11T16:48:18Z</time></trkpt><trkpt lat="43.13501912358235" lon="11.523519863189653"><ele>250.75</ele><time>2026-04-11T16:48:19Z</time></trkpt><trkpt lat="43.13500602977699" lon="11.523354191215525"><ele>249.5</ele><time>2026-04-11T16:48:20Z</time></trkpt><trkpt lat="43.13499738848172" lon="11.523183493683542"><ele>248.25</ele><time>2026-04-11T16:48:21Z</time></trkpt><trkpt lat="43.13498702925995" lon="11.523015302041411"><ele>247.0</ele><time>2026-04-11T16:48:22Z</time></trkpt><trkpt lat="43.13497657183202" lon="11.522846189633402"><ele>245.5</ele><time>2026-04-11T16:48:23Z</time></trkpt><trkpt lat="43.1349658431491" lon="11.522678589352568"><ele>244.0</ele><time>2026-04-11T16:48:24Z</time></trkpt><trkpt lat="43.13495960274612" lon="11.522517087166257"><ele>242.5</ele><time>2026-04-11T16:48:25Z</time></trkpt><trkpt lat="43.134963153648535" lon="11.5223590957336"><ele>241.0</ele><time>2026-04-11T16:48:26Z</time></trkpt><trkpt lat="43.134973686182384" lon="11.522204153254421"><ele>240.20000000000002</ele><time>2026-04-11T16:48:27Z</time></trkpt><trkpt lat="43.1349837845359" lon="11.522049544813722"><ele>239.40000000000003</ele><time>2026-04-11T16:48:28.001Z</time></trkpt><trkpt lat="43.13499017841622" lon="11.521898025822567"><ele>238.6</ele><time>2026-04-11T16:48:29.001Z</time></trkpt><trkpt lat="43.134992771207074" lon="11.521749109654925"><ele>237.8</ele><time>2026-04-11T16:48:30.001Z</time></trkpt><trkpt lat="43.134993696506086" lon="11.521600017113869"><ele>237.0</ele><time>2026-04-11T16:48:31.001Z</time></trkpt><trkpt lat="43.134995566099" lon="11.521455379025285"><ele>237.0</ele><time>2026-04-11T16:48:32.001Z</time></trkpt><trkpt lat="43.13499578459719" lon="11.521312052875706"><ele>237.0</ele><time>2026-04-11T16:48:33.001Z</time></trkpt><trkpt lat="43.134994787713744" lon="11.521170291102683"><ele>237.0</ele><time>2026-04-11T16:48:34.001Z</time></trkpt><trkpt lat="43.13499332906776" lon="11.521027803682577"><ele>237.0</ele><time>2026-04-11T16:48:35.001Z</time></trkpt><trkpt lat="43.13499110672111" lon="11.520889265540413"><ele>237.0</ele><time>2026-04-11T16:48:36.001Z</time></trkpt><trkpt lat="43.13498669114727" lon="11.520748836496775"><ele>236.8</ele><time>2026-04-11T16:48:37.001Z</time></trkpt><trkpt lat="43.13497665311034" lon="11.520611542737122"><ele>236.6</ele><time>2026-04-11T16:48:38.001Z</time></trkpt><trkpt lat="43.134965311751685" lon="11.520488228987627"><ele>236.40000000000003</ele><time>2026-04-11T16:48:39.001Z</time></trkpt><trkpt lat="43.134945976342564" lon="11.520370147809459"><ele>236.20000000000002</ele><time>2026-04-11T16:48:40.001Z</time></trkpt><trkpt lat="43.13492168871202" lon="11.52025192449929"><ele>236.0</ele><time>2026-04-11T16:48:41.001Z</time></trkpt><trkpt lat="43.13489848988303" lon="11.520129730161292"><ele>235.00000000000003</ele><time>2026-04-11T16:48:42.001Z</time></trkpt><trkpt lat="43.13487045234824" lon="11.520016470430079"><ele>234.0</ele><time>2026-04-11T16:48:43.001Z</time></trkpt><trkpt lat="43.13484302003716" lon="11.519901933181483"><ele>233.0</ele><time>2026-04-11T16:48:44.001Z</time></trkpt><trkpt lat="43.13481869601138" lon="11.519789586800485"><ele>232.0</ele><time>2026-04-11T16:48:45.001Z</time></trkpt><trkpt lat="43.134785756335425" lon="11.519682338983733"><ele>231.00000000000003</ele><time>2026-04-11T16:48:46.001Z</time></trkpt><trkpt lat="43.13475543536549" lon="11.519576765856574"><ele>230.0</ele><time>2026-04-11T16:48:47.001Z</time></trkpt><trkpt lat="43.13473053560899" lon="11.519471204078497"><ele>230.00000000000003</ele><time>2026-04-11T16:48:48.001Z</time></trkpt><trkpt lat="43.13471075252249" lon="11.519363251255141"><ele>230.0</ele><time>2026-04-11T16:48:49.001Z</time></trkpt><trkpt lat="43.13469385172959" lon="11.519251198180852"><ele>230.0</ele><time>2026-04-11T16:48:50.001Z</time></trkpt><trkpt lat="43.13468292896504" lon="11.519132480210462"><ele>230.0</ele><time>2026-04-11T16:48:51.001Z</time></trkpt><trkpt lat="43.134669417230974" lon="11.519013934241334"><ele>230.00000000000003</ele><time>2026-04-11T16:48:52.001Z</time></trkpt><trkpt lat="43.13466118421473" lon="11.518890792181466"><ele>230.0</ele><time>2026-04-11T16:48:53.001Z</time></trkpt><trkpt lat="43.13465508465772" lon="11.518767982632545"><ele>232.16666666666669</ele><time>2026-04-11T16:48:54.001Z</time></trkpt><trkpt lat="43.134640730104856" lon="11.51864915571962"><ele>234.33333333333334</ele><time>2026-04-11T16:48:55.002Z</time></trkpt><trkpt lat="43.13462394638315" lon="11.518530255632466"><ele>236.5</ele><time>2026-04-11T16:48:56.002Z</time></trkpt><trkpt lat="43.13461771598215" lon="11.518405898120637"><ele>238.66666666666669</ele><time>2026-04-11T16:48:57.002Z</time></trkpt><trkpt lat="43.13462598926377" lon="11.518288505288202"><ele>240.83333333333334</ele><time>2026-04-11T16:48:58.002Z</time></trkpt><trkpt lat="43.134634875192916" lon="11.518163847337906"><ele>243.0</ele><time>2026-04-11T16:48:59.002Z</time></trkpt><trkpt lat="43.134652508944605" lon="11.518042807812163"><ele>243.0</ele><time>2026-04-11T16:49:00.002Z</time></trkpt><trkpt lat="43.13467789421322" lon="11.517915677446098"><ele>243.0</ele><time>2026-04-11T16:49:01.002Z</time></trkpt><trkpt lat="43.13471719288953" lon="11.517794251280018"><ele>243.0</ele><time>2026-04-11T16:49:02.002Z</time></trkpt><trkpt lat="43.13476821472612" lon="11.51768906711896"><ele>243.0</ele><time>2026-04-11T16:49:03.002Z</time></trkpt><trkpt lat="43.134829625146104" lon="11.51759011503184"><ele>243.0</ele><time>2026-04-11T16:49:04.002Z</time></trkpt><trkpt lat="43.13489269763219" lon="11.517507499970689"><ele>242.5</ele><time>2026-04-11T16:49:05.002Z</time></trkpt><trkpt lat="43.134954291765006" lon="11.517419816006216"><ele>242.0</ele><time>2026-04-11T16:49:06.002Z</time></trkpt><trkpt lat="43.135021990983276" lon="11.5173515987176"><ele>241.5</ele><time>2026-04-11T16:49:07.002Z</time></trkpt><trkpt lat="43.135083912395075" lon="11.517272792488166"><ele>241.0</ele><time>2026-04-11T16:49:08.002Z</time></trkpt><trkpt lat="43.135139213130536" lon="11.517181681468905"><ele>240.5</ele><time>2026-04-11T16:49:09.002Z</time></trkpt><trkpt lat="43.13520837564326" lon="11.51711291200292"><ele>240.0</ele><time>2026-04-11T16:49:10.002Z</time></trkpt><trkpt lat="43.135272998032654" lon="11.517045882683192"><ele>240.0</ele><time>2026-04-11T16:49:11.002Z</time></trkpt><trkpt lat="43.13533712671279" lon="11.516985206069156"><ele>240.0</ele><time>2026-04-11T16:49:12.002Z</time></trkpt><trkpt lat="43.1354051009437" lon="11.516932057965116"><ele>240.0</ele><time>2026-04-11T16:49:13.002Z</time></trkpt><trkpt lat="43.13540658187557" lon="11.516693278873468"><ele>240.0</ele><time>2026-04-11T16:49:14.002Z</time></trkpt><trkpt lat="43.13544850768574" lon="11.516596417031195"><ele>240.0</ele><time>2026-04-11T16:49:15.002Z</time></trkpt><trkpt lat="43.13549396570431" lon="11.51650015803083"><ele>240.0</ele><time>2026-04-11T16:49:16.002Z</time></trkpt><trkpt lat="43.13554327196669" lon="11.516412400112785"><ele>240.0</ele><time>2026-04-11T16:49:17.002Z</time></trkpt><trkpt lat="43.13559537595884" lon="11.516335442000365"><ele>240.0</ele><time>2026-04-11T16:49:18.002Z</time></trkpt><trkpt lat="43.13564756093335" lon="11.51625156666752"><ele>240.0</ele><time>2026-04-11T16:49:19.002Z</time></trkpt><trkpt lat="43.135701061863095" lon="11.5161643142851"><ele>240.0</ele><time>2026-04-11T16:49:20.002Z</time></trkpt><trkpt lat="43.13575509499405" lon="11.516081227699132"><ele>240.0</ele><time>2026-04-11T16:49:21.002Z</time></trkpt><trkpt lat="43.135818532816664" lon="11.516009308960259"><ele>238.16666666666666</ele><time>2026-04-11T16:49:22.002Z</time></trkpt><trkpt lat="43.135886131601985" lon="11.51594007250291"><ele>236.33333333333331</ele><time>2026-04-11T16:49:23.002Z</time></trkpt><trkpt lat="43.1359565311936" lon="11.51587867680759"><ele>234.5</ele><time>2026-04-11T16:49:24.002Z</time></trkpt><trkpt lat="43.136028366599064" lon="11.515821042673416"><ele>232.66666666666666</ele><time>2026-04-11T16:49:25.002Z</time></trkpt><trkpt lat="43.13609831278982" lon="11.515756237407775"><ele>230.83333333333331</ele><time>2026-04-11T16:49:26.002Z</time></trkpt><trkpt lat="43.13616204825876" lon="11.51568137664634"><ele>229.0</ele><time>2026-04-11T16:49:27.003Z</time></trkpt><trkpt lat="43.13621565250751" lon="11.515589087840748"><ele>228.99999999999997</ele><time>2026-04-11T16:49:28.003Z</time></trkpt><trkpt lat="43.1362602315802" lon="11.515492259104267"><ele>229.0</ele><time>2026-04-11T16:49:29.003Z</time></trkpt><trkpt lat="43.136287341072894" lon="11.515385289368412"><ele>229.0</ele><time>2026-04-11T16:49:30.003Z</time></trkpt><trkpt lat="43.13630439603832" lon="11.515282278741331"><ele>229.0</ele><time>2026-04-11T16:49:31.003Z</time></trkpt><trkpt lat="43.13631448543438" lon="11.515183177543147"><ele>228.99999999999997</ele><time>2026-04-11T16:49:32.003Z</time></trkpt><trkpt lat="43.136322042400536" lon="11.515089340332679"><ele>229.0</ele><time>2026-04-11T16:49:33.003Z</time></trkpt><trkpt lat="43.13632570004398" lon="11.514993947468295"><ele>229.0</ele><time>2026-04-11T16:49:34.003Z</time></trkpt><trkpt lat="43.136326227411864" lon="11.514900001981921"><ele>229.0</ele><time>2026-04-11T16:49:35.003Z</time></trkpt><trkpt lat="43.136320563755696" lon="11.514806342978122"><ele>229.0</ele><time>2026-04-11T16:49:36.003Z</time></trkpt><trkpt lat="43.13630628996846" lon="11.514716147038413"><ele>229.0</ele><time>2026-04-11T16:49:37.003Z</time></trkpt><trkpt lat="43.13628828888432" lon="11.514629543997877"><ele>229.0</ele><time>2026-04-11T16:49:38.003Z</time></trkpt><trkpt lat="43.13625870288517" lon="11.514550101336361"><ele>229.0</ele><time>2026-04-11T16:49:39.003Z</time></trkpt><trkpt lat="43.13623367288666" lon="11.514464238663138"><ele>229.0</ele><time>2026-04-11T16:49:40.003Z</time></trkpt><trkpt lat="43.136201011004545" lon="11.514385268576454"><ele>229.0</ele><time>2026-04-11T16:49:41.003Z</time></trkpt><trkpt lat="43.13616639137145" lon="11.514305980604181"><ele>228.99999999999997</ele><time>2026-04-11T16:49:42.003Z</time></trkpt><trkpt lat="43.13613271661577" lon="11.514230500308127"><ele>228.99999999999997</ele><time>2026-04-11T16:49:43.003Z</time></trkpt><trkpt lat="43.13605995785287" lon="11.514097783650788"><ele>229.0</ele><time>2026-04-11T16:49:45.003Z</time></trkpt><trkpt lat="43.13598708913388" lon="11.51398262302709"><ele>229.0</ele><time>2026-04-11T16:49:47.003Z</time></trkpt><trkpt lat="43.135930732737116" lon="11.5138593534042"><ele>229.0</ele><time>2026-04-11T16:49:49.003Z</time></trkpt><trkpt lat="43.135870543232485" lon="11.51374804572854"><ele>228.99999999999997</ele><time>2026-04-11T16:49:51.003Z</time></trkpt><trkpt lat="43.13581351757916" lon="11.513629291583674"><ele>228.99999999999997</ele><time>2026-04-11T16:49:53.003Z</time></trkpt><trkpt lat="43.135757413062024" lon="11.51350743605761"><ele>229.0</ele><time>2026-04-11T16:49:55.003Z</time></trkpt><trkpt lat="43.1356981953868" lon="11.513384229951722"><ele>229.0</ele><time>2026-04-11T16:49:57.003Z</time></trkpt><trkpt lat="43.13563785317163" lon="11.513248824991704"><ele>228.66666666666666</ele><time>2026-04-11T16:49:59.003Z</time></trkpt><trkpt lat="43.13558442351581" lon="11.51309550118682"><ele>228.33333333333331</ele><time>2026-04-11T16:50:01.001Z</time></trkpt><trkpt lat="43.135555758601825" lon="11.513007001059695"><ele>228.0</ele><time>2026-04-11T16:50:02.001Z</time></trkpt><trkpt lat="43.135526645145234" lon="11.512920883884458"><ele>227.66666666666669</ele><time>2026-04-11T16:50:03.001Z</time></trkpt><trkpt lat="43.135505109988905" lon="11.512831479806128"><ele>227.33333333333334</ele><time>2026-04-11T16:50:04.001Z</time></trkpt><trkpt lat="43.13547919581118" lon="11.51274302120943"><ele>227.0</ele><time>2026-04-11T16:50:05.001Z</time></trkpt><trkpt lat="43.13545371909179" lon="11.51265587702519"><ele>227.0</ele><time>2026-04-11T16:50:06.001Z</time></trkpt><trkpt lat="43.13542587738966" lon="11.512567033359845"><ele>227.00000000000003</ele><time>2026-04-11T16:50:07.001Z</time></trkpt><trkpt lat="43.13539770504369" lon="11.512481078387475"><ele>227.0</ele><time>2026-04-11T16:50:08.001Z</time></trkpt><trkpt lat="43.1353691257369" lon="11.512389878105493"><ele>227.0</ele><time>2026-04-11T16:50:09.001Z</time></trkpt><trkpt lat="43.13533704619058" lon="11.51230742025499"><ele>227.00000000000003</ele><time>2026-04-11T16:50:10.001Z</time></trkpt><trkpt lat="43.13529552643669" lon="11.512226823581278"><ele>227.0</ele><time>2026-04-11T16:50:11.001Z</time></trkpt><trkpt lat="43.135256474992964" lon="11.512145984211118"><ele>227.0</ele><time>2026-04-11T16:50:12.001Z</time></trkpt><trkpt lat="43.13521179271489" lon="11.512074009367439"><ele>229.0</ele><time>2026-04-11T16:50:13Z</time></trkpt><trkpt lat="43.135131336255704" lon="11.511943294279225"><ele>231.0</ele><time>2026-04-11T16:50:15Z</time></trkpt><trkpt lat="43.13506961798893" lon="11.51182523665581"><ele>233.0</ele><time>2026-04-11T16:50:17Z</time></trkpt><trkpt lat="43.1350140384032" lon="11.511725849006325"><ele>235.0</ele><time>2026-04-11T16:50:19Z</time></trkpt><trkpt lat="43.134961072106385" lon="11.511627350499216"><ele>237.0</ele><time>2026-04-11T16:50:21Z</time></trkpt><trkpt lat="43.13491353686305" lon="11.511540240681468"><ele>237.28571428571425</ele><time>2026-04-11T16:50:23Z</time></trkpt><trkpt lat="43.13487316086039" lon="11.511453392706443"><ele>237.57142857142856</ele><time>2026-04-11T16:50:25Z</time></trkpt><trkpt lat="43.13483274046269" lon="11.511363428193569"><ele>237.85714285714286</ele><time>2026-04-11T16:50:27.001Z</time></trkpt><trkpt lat="43.13479126870547" lon="11.511272349868273"><ele>238.14285714285714</ele><time>2026-04-11T16:50:29.001Z</time></trkpt><trkpt lat="43.134748707195335" lon="11.511192481968797"><ele>238.42857142857144</ele><time>2026-04-11T16:50:31.001Z</time></trkpt><trkpt lat="43.134716955426136" lon="11.511100430641948"><ele>238.71428571428575</ele><time>2026-04-11T16:50:33.001Z</time></trkpt><trkpt lat="43.13467495902721" lon="11.511025345579199"><ele>239.00000000000003</ele><time>2026-04-11T16:50:35.001Z</time></trkpt><trkpt lat="43.134631940135186" lon="11.510931520965242"><ele>239.0</ele><time>2026-04-11T16:50:37.001Z</time></trkpt><trkpt lat="43.13458477721593" lon="11.510829118296115"><ele>238.99999999999997</ele><time>2026-04-11T16:50:39.001Z</time></trkpt><trkpt lat="43.134530891263694" lon="11.510697868333967"><ele>238.99999999999997</ele><time>2026-04-11T16:50:41.001Z</time></trkpt><trkpt lat="43.13446223385473" lon="11.510566647607254"><ele>239.0</ele><time>2026-04-11T16:50:43.001Z</time></trkpt><trkpt lat="43.13442492857418" lon="11.510475257866128"><ele>239.0</ele><time>2026-04-11T16:50:44.001Z</time></trkpt><trkpt lat="43.13438973821408" lon="11.510397577917354"><ele>238.00000000000003</ele><time>2026-04-11T16:50:45.001Z</time></trkpt><trkpt lat="43.134346303867936" lon="11.510301677752919"><ele>237.0</ele><time>2026-04-11T16:50:46.001Z</time></trkpt><trkpt lat="43.13429534943809" lon="11.510214417565638"><ele>236.0</ele><time>2026-04-11T16:50:47.001Z</time></trkpt><trkpt lat="43.134253676938826" lon="11.510102948275087"><ele>235.0</ele><time>2026-04-11T16:50:48.001Z</time></trkpt><trkpt lat="43.134209322960984" lon="11.509993022245693"><ele>234.00000000000003</ele><time>2026-04-11T16:50:49.001Z</time></trkpt><trkpt lat="43.134154506259" lon="11.509880357157948"><ele>233.0</ele><time>2026-04-11T16:50:50.001Z</time></trkpt><trkpt lat="43.134096600766675" lon="11.509764511582823"><ele>233.2</ele><time>2026-04-11T16:50:51.001Z</time></trkpt><trkpt lat="43.13403618282251" lon="11.509650775203289"><ele>233.4</ele><time>2026-04-11T16:50:52.001Z</time></trkpt><trkpt lat="43.13397756443889" lon="11.509523838547114"><ele>233.59999999999997</ele><time>2026-04-11T16:50:53.001Z</time></trkpt><trkpt lat="43.133924532320734" lon="11.50938940018585"><ele>233.79999999999998</ele><time>2026-04-11T16:50:54.001Z</time></trkpt><trkpt lat="43.13387375827778" lon="11.509252300447573"><ele>234.0</ele><time>2026-04-11T16:50:55.001Z</time></trkpt><trkpt lat="43.13382148644787" lon="11.509104810185265"><ele>232.0</ele><time>2026-04-11T16:50:56.001Z</time></trkpt><trkpt lat="43.1337783918081" lon="11.508956872110353"><ele>230.0</ele><time>2026-04-11T16:50:57.001Z</time></trkpt><trkpt lat="43.13373894460331" lon="11.508801157335025"><ele>228.0</ele><time>2026-04-11T16:50:58.001Z</time></trkpt><trkpt lat="43.13369226232991" lon="11.508645968596941"><ele>226.0</ele><time>2026-04-11T16:50:59.001Z</time></trkpt><trkpt lat="43.13365977581288" lon="11.508480014171596"><ele>224.5</ele><time>2026-04-11T16:51:00.001Z</time></trkpt><trkpt lat="43.133624844592674" lon="11.508311799719934"><ele>223.0</ele><time>2026-04-11T16:51:01.001Z</time></trkpt><trkpt lat="43.13358945755929" lon="11.508140792980006"><ele>221.5</ele><time>2026-04-11T16:51:02.001Z</time></trkpt><trkpt lat="43.133561824733846" lon="11.507972304995146"><ele>220.0</ele><time>2026-04-11T16:51:03.001Z</time></trkpt><trkpt lat="43.13354772976421" lon="11.507807140994197"><ele>218.8</ele><time>2026-04-11T16:51:04.001Z</time></trkpt><trkpt lat="43.13354271715203" lon="11.507641784275073"><ele>217.6</ele><time>2026-04-11T16:51:05.001Z</time></trkpt><trkpt lat="43.13354973324638" lon="11.507488359701775"><ele>216.39999999999998</ele><time>2026-04-11T16:51:06.001Z</time></trkpt><trkpt lat="43.13356093520859" lon="11.507342987691226"><ele>215.2</ele><time>2026-04-11T16:51:07.001Z</time></trkpt><trkpt lat="43.13357809097125" lon="11.507199764703175"><ele>214.0</ele><time>2026-04-11T16:51:08.001Z</time></trkpt><trkpt lat="43.13359529347869" lon="11.507067353952964"><ele>213.66666666666666</ele><time>2026-04-11T16:51:09.001Z</time></trkpt><trkpt lat="43.13361095531314" lon="11.506943478511024"><ele>213.33333333333331</ele><time>2026-04-11T16:51:10.001Z</time></trkpt><trkpt lat="43.13362591856753" lon="11.506823627042316"><ele>213.0</ele><time>2026-04-11T16:51:11.001Z</time></trkpt><trkpt lat="43.13364519447922" lon="11.506706917664212"><ele>212.66666666666669</ele><time>2026-04-11T16:51:12.001Z</time></trkpt><trkpt lat="43.13365824304859" lon="11.50659248649018"><ele>212.33333333333334</ele><time>2026-04-11T16:51:13.001Z</time></trkpt><trkpt lat="43.13367510732104" lon="11.506483753525721"><ele>212.0</ele><time>2026-04-11T16:51:14.001Z</time></trkpt><trkpt lat="43.13368791532289" lon="11.506378601115884"><ele>212.00000000000003</ele><time>2026-04-11T16:51:15.001Z</time></trkpt><trkpt lat="43.133699647191875" lon="11.506271960371166"><ele>212.0</ele><time>2026-04-11T16:51:16.001Z</time></trkpt><trkpt lat="43.13370588430113" lon="11.50616343763982"><ele>212.0</ele><time>2026-04-11T16:51:17.001Z</time></trkpt><trkpt lat="43.133718903369356" lon="11.506058169273295"><ele>212.0</ele><time>2026-04-11T16:51:18.002Z</time></trkpt><trkpt lat="43.13373580278247" lon="11.505949956421876"><ele>212.00000000000003</ele><time>2026-04-11T16:51:19.002Z</time></trkpt><trkpt lat="43.13374931119854" lon="11.505843957905736"><ele>212.0</ele><time>2026-04-11T16:51:20.002Z</time></trkpt><trkpt lat="43.133760779256626" lon="11.505735441699969"><ele>211.83333333333334</ele><time>2026-04-11T16:51:21.002Z</time></trkpt><trkpt lat="43.133769175695406" lon="11.505631278458413"><ele>211.66666666666669</ele><time>2026-04-11T16:51:22.002Z</time></trkpt><trkpt lat="43.13377883506007" lon="11.505526483432892"><ele>211.5</ele><time>2026-04-11T16:51:23.002Z</time></trkpt><trkpt lat="43.13379203939958" lon="11.505424158615783"><ele>211.33333333333331</ele><time>2026-04-11T16:51:24.002Z</time></trkpt><trkpt lat="43.13380690615453" lon="11.505320202437458"><ele>211.16666666666666</ele><time>2026-04-11T16:51:25.002Z</time></trkpt><trkpt lat="43.13381953008897" lon="11.50521266587443"><ele>211.0</ele><time>2026-04-11T16:51:26.002Z</time></trkpt><trkpt lat="43.13382758005527" lon="11.505110243300154"><ele>210.99999999999997</ele><time>2026-04-11T16:51:27.002Z</time></trkpt><trkpt lat="43.13384295031533" lon="11.50499834557044"><ele>211.0</ele><time>2026-04-11T16:51:28.002Z</time></trkpt><trkpt lat="43.13385568646927" lon="11.504887199185013"><ele>211.0</ele><time>2026-04-11T16:51:29.002Z</time></trkpt><trkpt lat="43.1338722924349" lon="11.504771657098551"><ele>211.0</ele><time>2026-04-11T16:51:30.002Z</time></trkpt><trkpt lat="43.13388376397923" lon="11.504651339129163"><ele>210.99999999999997</ele><time>2026-04-11T16:51:31.002Z</time></trkpt><trkpt lat="43.13389506819578" lon="11.504530130968"><ele>211.0</ele><time>2026-04-11T16:51:32.002Z</time></trkpt><trkpt lat="43.13392176816747" lon="11.504408938902493"><ele>211.4</ele><time>2026-04-11T16:51:33.002Z</time></trkpt><trkpt lat="43.13394318653459" lon="11.504282214631772"><ele>211.8</ele><time>2026-04-11T16:51:34.002Z</time></trkpt><trkpt lat="43.13396259908796" lon="11.504149480146593"><ele>212.20000000000002</ele><time>2026-04-11T16:51:35.002Z</time></trkpt><trkpt lat="43.133980018416985" lon="11.504010159018197"><ele>212.60000000000002</ele><time>2026-04-11T16:51:36.002Z</time></trkpt><trkpt lat="43.1340019474484" lon="11.503867123454677"><ele>213.0</ele><time>2026-04-11T16:51:37.002Z</time></trkpt><trkpt lat="43.13402767178637" lon="11.50372680467448"><ele>212.0</ele><time>2026-04-11T16:51:38.002Z</time></trkpt><trkpt lat="43.13405801816973" lon="11.503579707108432"><ele>211.0</ele><time>2026-04-11T16:51:39.002Z</time></trkpt><trkpt lat="43.134088895291775" lon="11.50342978559216"><ele>210.0</ele><time>2026-04-11T16:51:40.002Z</time></trkpt><trkpt lat="43.13412088297287" lon="11.503276002162472"><ele>209.0</ele><time>2026-04-11T16:51:41.002Z</time></trkpt><trkpt lat="43.13415061934741" lon="11.503120304485956"><ele>209.0</ele><time>2026-04-11T16:51:42.002Z</time></trkpt><trkpt lat="43.13417900291249" lon="11.502971795760812"><ele>209.0</ele><time>2026-04-11T16:51:43.002Z</time></trkpt><trkpt lat="43.13420861586173" lon="11.502820013396903"><ele>209.0</ele><time>2026-04-11T16:51:44.002Z</time></trkpt><trkpt lat="43.13424003863565" lon="11.502667823026753"><ele>209.0</ele><time>2026-04-11T16:51:45.002Z</time></trkpt><trkpt lat="43.1342673632802" lon="11.502515041554558"><ele>207.25</ele><time>2026-04-11T16:51:46.002Z</time></trkpt><trkpt lat="43.13429699494749" lon="11.50236165944477"><ele>205.5</ele><time>2026-04-11T16:51:47.002Z</time></trkpt><trkpt lat="43.13432078273246" lon="11.502210129974623"><ele>203.75</ele><time>2026-04-11T16:51:48.002Z</time></trkpt><trkpt lat="43.13435373573271" lon="11.502061505358766"><ele>202.0</ele><time>2026-04-11T16:51:49.002Z</time></trkpt><trkpt lat="43.13438635553388" lon="11.501909575302557"><ele>200.0</ele><time>2026-04-11T16:51:50.002Z</time></trkpt><trkpt lat="43.13441570906448" lon="11.501752314803841"><ele>198.0</ele><time>2026-04-11T16:51:51.002Z</time></trkpt><trkpt lat="43.134444183377795" lon="11.501592755149405"><ele>196.0</ele><time>2026-04-11T16:51:52.002Z</time></trkpt><trkpt lat="43.134469849731644" lon="11.501438158046799"><ele>194.0</ele><time>2026-04-11T16:51:53.002Z</time></trkpt><trkpt lat="43.13449987480747" lon="11.501288993822204"><ele>191.75</ele><time>2026-04-11T16:51:54.002Z</time></trkpt><trkpt lat="43.13453017490753" lon="11.501140982797626"><ele>189.5</ele><time>2026-04-11T16:51:55.002Z</time></trkpt><trkpt lat="43.13456196865889" lon="11.500986647111395"><ele>187.25</ele><time>2026-04-11T16:51:56.002Z</time></trkpt><trkpt lat="43.1345907177486" lon="11.500827592965411"><ele>185.0</ele><time>2026-04-11T16:51:57.002Z</time></trkpt><trkpt lat="43.13461956806843" lon="11.500666034780695"><ele>185.0</ele><time>2026-04-11T16:51:58.002Z</time></trkpt><trkpt lat="43.13465020723534" lon="11.500504675728582"><ele>185.0</ele><time>2026-04-11T16:51:59.002Z</time></trkpt><trkpt lat="43.1346823790561" lon="11.500340839453976"><ele>185.0</ele><time>2026-04-11T16:52:00.002Z</time></trkpt><trkpt lat="43.13471683718314" lon="11.500169620929608"><ele>185.0</ele><time>2026-04-11T16:52:01.002Z</time></trkpt><trkpt lat="43.13475630378976" lon="11.49999165389092"><ele>182.75</ele><time>2026-04-11T16:52:02.003Z</time></trkpt><trkpt lat="43.13479947071875" lon="11.499813863901275"><ele>180.5</ele><time>2026-04-11T16:52:03.003Z</time></trkpt><trkpt lat="43.13484640641782" lon="11.499633135985814"><ele>178.25</ele><time>2026-04-11T16:52:04.003Z</time></trkpt><trkpt lat="43.134900102914756" lon="11.499445435489525"><ele>176.0</ele><time>2026-04-11T16:52:05.003Z</time></trkpt><trkpt lat="43.13495557664853" lon="11.499250138724321"><ele>173.66666666666666</ele><time>2026-04-11T16:52:06.001Z</time></trkpt><trkpt lat="43.135016818668085" lon="11.499049492589878"><ele>171.33333333333334</ele><time>2026-04-11T16:52:07.001Z</time></trkpt><trkpt lat="43.135078188697904" lon="11.498847383544224"><ele>169.0</ele><time>2026-04-11T16:52:08.001Z</time></trkpt><trkpt lat="43.13513906310965" lon="11.498646424618604"><ele>166.66666666666669</ele><time>2026-04-11T16:52:09.001Z</time></trkpt><trkpt lat="43.135201812732866" lon="11.498445564876038"><ele>164.33333333333334</ele><time>2026-04-11T16:52:10.001Z</time></trkpt><trkpt lat="43.135262358545575" lon="11.498251018115893"><ele>162.0</ele><time>2026-04-11T16:52:11.001Z</time></trkpt><trkpt lat="43.135319599061724" lon="11.498058590811572"><ele>161.75</ele><time>2026-04-11T16:52:12.001Z</time></trkpt><trkpt lat="43.13537864912696" lon="11.497870280663824"><ele>161.5</ele><time>2026-04-11T16:52:13.001Z</time></trkpt><trkpt lat="43.13543810722402" lon="11.49768514324247"><ele>161.25</ele><time>2026-04-11T16:52:14.001Z</time></trkpt><trkpt lat="43.13550463475676" lon="11.497505885624319"><ele>161.0</ele><time>2026-04-11T16:52:15.001Z</time></trkpt><trkpt lat="43.13557316329937" lon="11.49733554713601"><ele>161.0</ele><time>2026-04-11T16:52:16.001Z</time></trkpt><trkpt lat="43.135643291994974" lon="11.49717425510936"><ele>161.0</ele><time>2026-04-11T16:52:17.001Z</time></trkpt><trkpt lat="43.13572369353441" lon="11.497031766786169"><ele>161.0</ele><time>2026-04-11T16:52:18.001Z</time></trkpt><trkpt lat="43.135803522978605" lon="11.496892925138273"><ele>161.0</ele><time>2026-04-11T16:52:19.001Z</time></trkpt><trkpt lat="43.135883581209484" lon="11.49676545219988"><ele>161.20000000000002</ele><time>2026-04-11T16:52:20.001Z</time></trkpt><trkpt lat="43.13596238547422" lon="11.496647884151455"><ele>161.4</ele><time>2026-04-11T16:52:21.001Z</time></trkpt><trkpt lat="43.13603694691067" lon="11.496529682490609"><ele>161.6</ele><time>2026-04-11T16:52:22.001Z</time></trkpt><trkpt lat="43.1361061006317" lon="11.496413654678022"><ele>161.8</ele><time>2026-04-11T16:52:23.001Z</time></trkpt><trkpt lat="43.13617584413705" lon="11.49630374079236"><ele>162.0</ele><time>2026-04-11T16:52:24.001Z</time></trkpt><trkpt lat="43.13624144105242" lon="11.496193924862535"><ele>162.2</ele><time>2026-04-11T16:52:25.001Z</time></trkpt><trkpt lat="43.13629970054662" lon="11.496083061836185"><ele>162.39999999999998</ele><time>2026-04-11T16:52:26.001Z</time></trkpt><trkpt lat="43.13635704304446" lon="11.495975813053171"><ele>162.60000000000002</ele><time>2026-04-11T16:52:27.001Z</time></trkpt><trkpt lat="43.13641294066938" lon="11.495870553977422"><ele>162.8</ele><time>2026-04-11T16:52:28.001Z</time></trkpt><trkpt lat="43.13647370137451" lon="11.495770948032883"><ele>163.0</ele><time>2026-04-11T16:52:29.001Z</time></trkpt><trkpt lat="43.13653090706036" lon="11.49567385354977"><ele>162.66666666666669</ele><time>2026-04-11T16:52:30.001Z</time></trkpt><trkpt lat="43.13658768678541" lon="11.49557858207213"><ele>162.33333333333334</ele><time>2026-04-11T16:52:31.001Z</time></trkpt><trkpt lat="43.13664619982882" lon="11.495482024690968"><ele>162.0</ele><time>2026-04-11T16:52:32.001Z</time></trkpt><trkpt lat="43.13669782569082" lon="11.495386278168692"><ele>161.66666666666666</ele><time>2026-04-11T16:52:33.001Z</time></trkpt><trkpt lat="43.136754079568846" lon="11.495291796223702"><ele>161.33333333333331</ele><time>2026-04-11T16:52:34.001Z</time></trkpt><trkpt lat="43.13680832171253" lon="11.495199399609646"><ele>161.0</ele><time>2026-04-11T16:52:35.001Z</time></trkpt><trkpt lat="43.13686034213919" lon="11.49510387802254"><ele>162.0</ele><time>2026-04-11T16:52:36.001Z</time></trkpt><trkpt lat="43.13690960216343" lon="11.495011731256394"><ele>163.0</ele><time>2026-04-11T16:52:37.001Z</time></trkpt><trkpt lat="43.13696040307026" lon="11.49492683661083"><ele>164.0</ele><time>2026-04-11T16:52:38.001Z</time></trkpt><trkpt lat="43.13701121368462" lon="11.494844734401395"><ele>165.0</ele><time>2026-04-11T16:52:39.001Z</time></trkpt><trkpt lat="43.13706466394953" lon="11.494761475197304"><ele>166.0</ele><time>2026-04-11T16:52:40.001Z</time></trkpt><trkpt lat="43.137116051852324" lon="11.49467664062349"><ele>167.0</ele><time>2026-04-11T16:52:41.001Z</time></trkpt><trkpt lat="43.137164638603764" lon="11.49459020387491"><ele>166.71428571428572</ele><time>2026-04-11T16:52:42.001Z</time></trkpt><trkpt lat="43.137206388119964" lon="11.494505045845846"><ele>166.42857142857144</ele><time>2026-04-11T16:52:43.001Z</time></trkpt><trkpt lat="43.13725168751596" lon="11.49442373577162"><ele>166.14285714285717</ele><time>2026-04-11T16:52:44.001Z</time></trkpt><trkpt lat="43.13729992942456" lon="11.494342541131239"><ele>165.85714285714286</ele><time>2026-04-11T16:52:45.001Z</time></trkpt><trkpt lat="43.137339862477994" lon="11.494262889193815"><ele>165.57142857142858</ele><time>2026-04-11T16:52:46.001Z</time></trkpt><trkpt lat="43.13737422403115" lon="11.49418148726485"><ele>165.2857142857143</ele><time>2026-04-11T16:52:47.001Z</time></trkpt><trkpt lat="43.137401941585615" lon="11.494094152967325"><ele>165.0</ele><time>2026-04-11T16:52:48.001Z</time></trkpt><trkpt lat="43.13742472697448" lon="11.494007876259879"><ele>165.0</ele><time>2026-04-11T16:52:49.001Z</time></trkpt><trkpt lat="43.137439650513706" lon="11.493918393689782"><ele>165.0</ele><time>2026-04-11T16:52:50.001Z</time></trkpt><trkpt lat="43.13745024507113" lon="11.493831826483795"><ele>165.0</ele><time>2026-04-11T16:52:51.001Z</time></trkpt><trkpt lat="43.13745623410212" lon="11.493741941501252"><ele>165.0</ele><time>2026-04-11T16:52:52.001Z</time></trkpt><trkpt lat="43.13746305481778" lon="11.493654020146419"><ele>165.0</ele><time>2026-04-11T16:52:53.001Z</time></trkpt><trkpt lat="43.137480952706525" lon="11.49348504866189"><ele>165.0</ele><time>2026-04-11T16:52:55.001Z</time></trkpt><trkpt lat="43.13749597849605" lon="11.493325511946226"><ele>165.8</ele><time>2026-04-11T16:52:57.001Z</time></trkpt><trkpt lat="43.13751686475122" lon="11.493166952777703"><ele>166.6</ele><time>2026-04-11T16:52:59.001Z</time></trkpt><trkpt lat="43.137526273886365" lon="11.493028750367662"><ele>167.39999999999998</ele><time>2026-04-11T16:53:01.001Z</time></trkpt><trkpt lat="43.13754335196403" lon="11.492891734671101"><ele>168.2</ele><time>2026-04-11T16:53:03.001Z</time></trkpt><trkpt lat="43.13756080253909" lon="11.492762696590619"><ele>169.0</ele><time>2026-04-11T16:53:05.001Z</time></trkpt><trkpt lat="43.13756736410702" lon="11.492643142089312"><ele>169.33333333333334</ele><time>2026-04-11T16:53:07.001Z</time></trkpt><trkpt lat="43.137578916081054" lon="11.492531183904921"><ele>169.66666666666669</ele><time>2026-04-11T16:53:09.001Z</time></trkpt><trkpt lat="43.13759138874087" lon="11.492422687445146"><ele>170.0</ele><time>2026-04-11T16:53:11.001Z</time></trkpt><trkpt lat="43.137605865087764" lon="11.49231894161247"><ele>170.33333333333334</ele><time>2026-04-11T16:53:13.001Z</time></trkpt><trkpt lat="43.13761949440267" lon="11.492226357723155"><ele>170.66666666666666</ele><time>2026-04-11T16:53:15.001Z</time></trkpt><trkpt lat="43.13763179248664" lon="11.492131350659394"><ele>171.0</ele><time>2026-04-11T16:53:17.001Z</time></trkpt><trkpt lat="43.137644466308004" lon="11.492007413077644"><ele>171.99999999999997</ele><time>2026-04-11T16:53:20.001Z</time></trkpt><trkpt lat="43.13766158761131" lon="11.49191784621481"><ele>173.0</ele><time>2026-04-11T16:53:22.001Z</time></trkpt><trkpt lat="43.13767674420133" lon="11.491829407963106"><ele>174.0</ele><time>2026-04-11T16:53:24.001Z</time></trkpt><trkpt lat="43.137683960883784" lon="11.491734369019028"><ele>175.0</ele><time>2026-04-11T16:53:26.001Z</time></trkpt><trkpt lat="43.13769671832372" lon="11.49164376746102"><ele>176.0</ele><time>2026-04-11T16:53:28.001Z</time></trkpt><trkpt lat="43.13771429975296" lon="11.491550814733417"><ele>176.99999999999997</ele><time>2026-04-11T16:53:30.002Z</time></trkpt><trkpt lat="43.13771559398232" lon="11.491460184789206"><ele>178.0</ele><time>2026-04-11T16:53:32.002Z</time></trkpt><trkpt lat="43.137733108241484" lon="11.49137635934481"><ele>178.0</ele><time>2026-04-11T16:53:34.002Z</time></trkpt><trkpt lat="43.13774034705768" lon="11.491260317873616"><ele>178.0</ele><time>2026-04-11T16:53:37.002Z</time></trkpt><trkpt lat="43.13776101369624" lon="11.49116966380051"><ele>178.0</ele><time>2026-04-11T16:53:40.002Z</time></trkpt><trkpt lat="43.13776781836358" lon="11.491064983606574"><ele>178.0</ele><time>2026-04-11T16:53:43.002Z</time></trkpt><trkpt lat="43.137773473405204" lon="11.490962749216974"><ele>178.0</ele><time>2026-04-11T16:53:46.002Z</time></trkpt><trkpt lat="43.13779489510551" lon="11.490860804680713"><ele>178.0</ele><time>2026-04-11T16:53:49.002Z</time></trkpt><trkpt lat="43.13779134247867" lon="11.490747022282845"><ele>177.8</ele><time>2026-04-11T16:53:52.002Z</time></trkpt><trkpt lat="43.13778813277644" lon="11.49065559433314"><ele>177.60000000000002</ele><time>2026-04-11T16:53:54.002Z</time></trkpt><trkpt lat="43.13776847737528" lon="11.490520467645034"><ele>177.39999999999998</ele><time>2026-04-11T16:53:56.002Z</time></trkpt><trkpt lat="43.13775599301994" lon="11.490348595449433"><ele>177.2</ele><time>2026-04-11T16:53:58.002Z</time></trkpt><trkpt lat="43.13774983911881" lon="11.490245567010554"><ele>177.0</ele><time>2026-04-11T16:53:59.002Z</time></trkpt><trkpt lat="43.137740552063015" lon="11.49013114369072"><ele>177.0</ele><time>2026-04-11T16:54:00.002Z</time></trkpt><trkpt lat="43.137735095786645" lon="11.490005055942117"><ele>177.0</ele><time>2026-04-11T16:54:01.002Z</time></trkpt><trkpt lat="43.13772430400961" lon="11.489882815851226"><ele>177.0</ele><time>2026-04-11T16:54:02.002Z</time></trkpt><trkpt lat="43.137712830267795" lon="11.489733444756432"><ele>177.0</ele><time>2026-04-11T16:54:03.002Z</time></trkpt><trkpt lat="43.13770699984421" lon="11.489586043624326"><ele>177.0</ele><time>2026-04-11T16:54:04.002Z</time></trkpt><trkpt lat="43.13769874486352" lon="11.489435346149305"><ele>174.6</ele><time>2026-04-11T16:54:05.002Z</time></trkpt><trkpt lat="43.13769582508637" lon="11.489283633235367"><ele>172.2</ele><time>2026-04-11T16:54:06.002Z</time></trkpt><trkpt lat="43.13769659730455" lon="11.489131017311209"><ele>169.8</ele><time>2026-04-11T16:54:07.002Z</time></trkpt><trkpt lat="43.137689980973214" lon="11.488982392868769"><ele>167.4</ele><time>2026-04-11T16:54:08.002Z</time></trkpt><trkpt lat="43.137685290032756" lon="11.488841232361308"><ele>165.0</ele><time>2026-04-11T16:54:09.002Z</time></trkpt><trkpt lat="43.13768473060046" lon="11.488714939123936"><ele>163.0</ele><time>2026-04-11T16:54:10.002Z</time></trkpt><trkpt lat="43.13768335460613" lon="11.488590338687489"><ele>161.0</ele><time>2026-04-11T16:54:11.002Z</time></trkpt><trkpt lat="43.1376813891905" lon="11.488467089526376"><ele>159.0</ele><time>2026-04-11T16:54:12.001Z</time></trkpt><trkpt lat="43.13767997413966" lon="11.488339604228955"><ele>157.0</ele><time>2026-04-11T16:54:13.001Z</time></trkpt><trkpt lat="43.13767074853798" lon="11.4882055356557"><ele>155.0</ele><time>2026-04-11T16:54:14.001Z</time></trkpt><trkpt lat="43.13766646642944" lon="11.48806281656925"><ele>154.2</ele><time>2026-04-11T16:54:15.001Z</time></trkpt><trkpt lat="43.137670699674" lon="11.487917188948973"><ele>153.4</ele><time>2026-04-11T16:54:16.001Z</time></trkpt><trkpt lat="43.13767785207315" lon="11.487789380353782"><ele>152.6</ele><time>2026-04-11T16:54:17.001Z</time></trkpt><trkpt lat="43.137667050980276" lon="11.487658328939123"><ele>151.8</ele><time>2026-04-11T16:54:18.001Z</time></trkpt><trkpt lat="43.137671273382516" lon="11.48753092704972"><ele>151.0</ele><time>2026-04-11T16:54:19.001Z</time></trkpt><trkpt lat="43.13767026986063" lon="11.487401812684043"><ele>151.0</ele><time>2026-04-11T16:54:20.001Z</time></trkpt><trkpt lat="43.137667949461395" lon="11.487271370627715"><ele>151.0</ele><time>2026-04-11T16:54:21.001Z</time></trkpt><trkpt lat="43.13766515661814" lon="11.48713877551345"><ele>151.0</ele><time>2026-04-11T16:54:22.001Z</time></trkpt><trkpt lat="43.137660797601924" lon="11.487018447912932"><ele>151.0</ele><time>2026-04-11T16:54:23.001Z</time></trkpt><trkpt lat="43.13765766359346" lon="11.486894750814116"><ele>151.0</ele><time>2026-04-11T16:54:24.001Z</time></trkpt><trkpt lat="43.137659061980905" lon="11.486770635587582"><ele>150.5</ele><time>2026-04-11T16:54:25.001Z</time></trkpt><trkpt lat="43.137660973052974" lon="11.486650213453848"><ele>150.0</ele><time>2026-04-11T16:54:26.001Z</time></trkpt><trkpt lat="43.13765955920811" lon="11.486530703162277"><ele>149.5</ele><time>2026-04-11T16:54:27.001Z</time></trkpt><trkpt lat="43.1376585588547" lon="11.486413467582574"><ele>149.0</ele><time>2026-04-11T16:54:28.001Z</time></trkpt><trkpt lat="43.13766604639612" lon="11.48630362033031"><ele>148.5</ele><time>2026-04-11T16:54:29.001Z</time></trkpt><trkpt lat="43.13767199338013" lon="11.486193494573842"><ele>148.0</ele><time>2026-04-11T16:54:30.001Z</time></trkpt><trkpt lat="43.13767844601922" lon="11.48608715376057"><ele>148.0</ele><time>2026-04-11T16:54:31.001Z</time></trkpt><trkpt lat="43.13767577248194" lon="11.485985344857145"><ele>148.0</ele><time>2026-04-11T16:54:32.001Z</time></trkpt><trkpt lat="43.137667174750945" lon="11.485893473249233"><ele>148.0</ele><time>2026-04-11T16:54:33.001Z</time></trkpt><trkpt lat="43.13764495331543" lon="11.485810085949561"><ele>148.0</ele><time>2026-04-11T16:54:34.001Z</time></trkpt><trkpt lat="43.13758474678996" lon="11.485755442957279"><ele>148.0</ele><time>2026-04-11T16:54:35.001Z</time></trkpt><trkpt lat="43.13751024493368" lon="11.485764601006977"><ele>148.0</ele><time>2026-04-11T16:54:36.001Z</time></trkpt><trkpt lat="43.13744189801209" lon="11.48579824347753"><ele>148.0</ele><time>2026-04-11T16:54:37.001Z</time></trkpt><trkpt lat="43.13737063433574" lon="11.485810362806811"><ele>147.71428571428572</ele><time>2026-04-11T16:54:38.001Z</time></trkpt><trkpt lat="43.13729984678693" lon="11.485803978136722"><ele>147.42857142857142</ele><time>2026-04-11T16:54:39.001Z</time></trkpt><trkpt lat="43.13723667383914" lon="11.485801960825167"><ele>147.14285714285714</ele><time>2026-04-11T16:54:40.001Z</time></trkpt><trkpt lat="43.137163158143046" lon="11.485802936148888"><ele>146.85714285714286</ele><time>2026-04-11T16:54:41.001Z</time></trkpt><trkpt lat="43.13709341602669" lon="11.485793494871361"><ele>146.57142857142858</ele><time>2026-04-11T16:54:42.001Z</time></trkpt><trkpt lat="43.13701958559711" lon="11.485792773898222"><ele>146.28571428571428</ele><time>2026-04-11T16:54:43.001Z</time></trkpt><trkpt lat="43.13694406019847" lon="11.485795058412435"><ele>146.0</ele><time>2026-04-11T16:54:44.001Z</time></trkpt><trkpt lat="43.13687317635736" lon="11.485796766260613"><ele>146.0</ele><time>2026-04-11T16:54:45.001Z</time></trkpt><trkpt lat="43.1368029987895" lon="11.485797090189923"><ele>146.0</ele><time>2026-04-11T16:54:46.001Z</time></trkpt><trkpt lat="43.13673405074632" lon="11.485791331575937"><ele>146.0</ele><time>2026-04-11T16:54:47.001Z</time></trkpt><trkpt lat="43.13665978809864" lon="11.485793935928386"><ele>146.0</ele><time>2026-04-11T16:54:48.001Z</time></trkpt><trkpt lat="43.136591202139705" lon="11.485792123725597"><ele>146.0</ele><time>2026-04-11T16:54:49.001Z</time></trkpt><trkpt lat="43.136520973650164" lon="11.485783640675729"><ele>146.0</ele><time>2026-04-11T16:54:50.001Z</time></trkpt><trkpt lat="43.13645009901831" lon="11.485778309627038"><ele>146.0</ele><time>2026-04-11T16:54:51.001Z</time></trkpt><trkpt lat="43.13637790900643" lon="11.485772798022888"><ele>146.14285714285714</ele><time>2026-04-11T16:54:52.001Z</time></trkpt><trkpt lat="43.13630722916736" lon="11.485772368884405"><ele>146.28571428571428</ele><time>2026-04-11T16:54:53.001Z</time></trkpt><trkpt lat="43.13623674949881" lon="11.485779730385998"><ele>146.42857142857144</ele><time>2026-04-11T16:54:54.001Z</time></trkpt><trkpt lat="43.13616345056451" lon="11.485786532672204"><ele>146.57142857142856</ele><time>2026-04-11T16:54:55.001Z</time></trkpt><trkpt lat="43.13609550764582" lon="11.485786706916333"><ele>146.71428571428572</ele><time>2026-04-11T16:54:56.001Z</time></trkpt><trkpt lat="43.13602814770182" lon="11.485780571574969"><ele>146.85714285714286</ele><time>2026-04-11T16:54:57.001Z</time></trkpt><trkpt lat="43.13595904370024" lon="11.485773479087221"><ele>147.0</ele><time>2026-04-11T16:54:58.001Z</time></trkpt><trkpt lat="43.13589081945212" lon="11.485769549881848"><ele>147.0</ele><time>2026-04-11T16:54:59.001Z</time></trkpt><trkpt lat="43.13582160000585" lon="11.485764322808595"><ele>147.0</ele><time>2026-04-11T16:55:00.001Z</time></trkpt><trkpt lat="43.13575030680383" lon="11.485756784925044"><ele>147.0</ele><time>2026-04-11T16:55:01.001Z</time></trkpt><trkpt lat="43.13568393846129" lon="11.485745114240263"><ele>147.0</ele><time>2026-04-11T16:55:02.001Z</time></trkpt><trkpt lat="43.135613793151855" lon="11.485743060913233"><ele>147.0</ele><time>2026-04-11T16:55:03.001Z</time></trkpt><trkpt lat="43.1355451968804" lon="11.485747519608426"><ele>147.0</ele><time>2026-04-11T16:55:04.001Z</time></trkpt><trkpt lat="43.1354734776154" lon="11.485748885560625"><ele>147.0</ele><time>2026-04-11T16:55:05.001Z</time></trkpt><trkpt lat="43.13540536541325" lon="11.485753453798944"><ele>147.0</ele><time>2026-04-11T16:55:06.001Z</time></trkpt><trkpt lat="43.13533948631406" lon="11.485746478901925"><ele>147.0</ele><time>2026-04-11T16:55:07.001Z</time></trkpt><trkpt lat="43.135266422736684" lon="11.485746044321878"><ele>147.0</ele><time>2026-04-11T16:55:08.001Z</time></trkpt><trkpt lat="43.13519932880544" lon="11.485750068150907"><ele>147.0</ele><time>2026-04-11T16:55:09.001Z</time></trkpt><trkpt lat="43.13513129197461" lon="11.48575015100969"><ele>147.0</ele><time>2026-04-11T16:55:10.001Z</time></trkpt><trkpt lat="43.1350619053723" lon="11.485749243953423"><ele>147.0</ele><time>2026-04-11T16:55:11.001Z</time></trkpt><trkpt lat="43.134993538913335" lon="11.485741214183586"><ele>147.0</ele><time>2026-04-11T16:55:12.001Z</time></trkpt><trkpt lat="43.13493131511537" lon="11.48572385399143"><ele>147.14285714285714</ele><time>2026-04-11T16:55:13.001Z</time></trkpt><trkpt lat="43.13486711744997" lon="11.48567836399088"><ele>147.28571428571428</ele><time>2026-04-11T16:55:14.001Z</time></trkpt><trkpt lat="43.1348112660217" lon="11.485631147434534"><ele>147.42857142857144</ele><time>2026-04-11T16:55:15.001Z</time></trkpt><trkpt lat="43.134759608534026" lon="11.485575286177555"><ele>147.57142857142856</ele><time>2026-04-11T16:55:16.001Z</time></trkpt><trkpt lat="43.13471584016768" lon="11.485506695199552"><ele>147.71428571428572</ele><time>2026-04-11T16:55:17.001Z</time></trkpt><trkpt lat="43.13468002910272" lon="11.485429309590943"><ele>147.85714285714286</ele><time>2026-04-11T16:55:18.001Z</time></trkpt><trkpt lat="43.13464633514912" lon="11.485349051678554"><ele>148.0</ele><time>2026-04-11T16:55:19.001Z</time></trkpt><trkpt lat="43.134626066260445" lon="11.485261580061792"><ele>147.71428571428572</ele><time>2026-04-11T16:55:20.001Z</time></trkpt><trkpt lat="43.134599598303446" lon="11.485176745290484"><ele>147.42857142857142</ele><time>2026-04-11T16:55:21.001Z</time></trkpt><trkpt lat="43.13457293241343" lon="11.485095357773563"><ele>147.14285714285714</ele><time>2026-04-11T16:55:22.001Z</time></trkpt><trkpt lat="43.134550661768884" lon="11.485005654308123"><ele>146.85714285714286</ele><time>2026-04-11T16:55:23.001Z</time></trkpt><trkpt lat="43.13452982244671" lon="11.48491780896734"><ele>146.57142857142858</ele><time>2026-04-11T16:55:24.001Z</time></trkpt><trkpt lat="43.1345067116823" lon="11.484827844688049"><ele>146.28571428571428</ele><time>2026-04-11T16:55:25.001Z</time></trkpt><trkpt lat="43.13447932694877" lon="11.484739358577677"><ele>146.0</ele><time>2026-04-11T16:55:26.001Z</time></trkpt><trkpt lat="43.13446170863934" lon="11.48464928039883"><ele>145.85714285714286</ele><time>2026-04-11T16:55:27.001Z</time></trkpt><trkpt lat="43.134438719271984" lon="11.484562735845522"><ele>145.71428571428572</ele><time>2026-04-11T16:55:28.001Z</time></trkpt><trkpt lat="43.134414089047894" lon="11.484473820981988"><ele>145.57142857142858</ele><time>2026-04-11T16:55:29.001Z</time></trkpt><trkpt lat="43.13438862473106" lon="11.484382135625982"><ele>145.42857142857144</ele><time>2026-04-11T16:55:30.001Z</time></trkpt><trkpt lat="43.13436742133129" lon="11.484291337177687"><ele>145.2857142857143</ele><time>2026-04-11T16:55:31.001Z</time></trkpt><trkpt lat="43.134341620857896" lon="11.484200910461878"><ele>145.14285714285714</ele><time>2026-04-11T16:55:32.001Z</time></trkpt><trkpt lat="43.134317849251865" lon="11.4841092840866"><ele>145.0</ele><time>2026-04-11T16:55:33.001Z</time></trkpt><trkpt lat="43.134297823734286" lon="11.484019427150905"><ele>145.0</ele><time>2026-04-11T16:55:34.001Z</time></trkpt><trkpt lat="43.13426236184334" lon="11.483847007427567"><ele>145.0</ele><time>2026-04-11T16:55:36.001Z</time></trkpt><trkpt lat="43.134244638809335" lon="11.483761370400275"><ele>145.0</ele><time>2026-04-11T16:55:37.001Z</time></trkpt><trkpt lat="43.13421057269302" lon="11.483616158349173"><ele>145.0</ele><time>2026-04-11T16:55:39.002Z</time></trkpt><trkpt lat="43.13415774355265" lon="11.483491016125269"><ele>145.0</ele><time>2026-04-11T16:55:41.002Z</time></trkpt><trkpt lat="43.13413201259999" lon="11.483407152890624"><ele>145.0</ele><time>2026-04-11T16:55:42.002Z</time></trkpt><trkpt lat="43.134090433782085" lon="11.483256548069923"><ele>145.0</ele><time>2026-04-11T16:55:44.002Z</time></trkpt><trkpt lat="43.13405383323932" lon="11.483135950059852"><ele>145.0</ele><time>2026-04-11T16:55:46.002Z</time></trkpt><trkpt lat="43.1339729431128" lon="11.48306658604999"><ele>145.0</ele><time>2026-04-11T16:55:48.002Z</time></trkpt><trkpt lat="43.13391117959164" lon="11.483037601210814"><ele>145.0</ele><time>2026-04-11T16:55:49.002Z</time></trkpt><trkpt lat="43.13384539650937" lon="11.483021690904339"><ele>145.0</ele><time>2026-04-11T16:55:50.002Z</time></trkpt><trkpt lat="43.13378033820969" lon="11.483013156133058"><ele>145.0</ele><time>2026-04-11T16:55:51.002Z</time></trkpt><trkpt lat="43.13371612612287" lon="11.482995848640403"><ele>145.0</ele><time>2026-04-11T16:55:52.002Z</time></trkpt><trkpt lat="43.13365043292912" lon="11.482979554689232"><ele>145.0</ele><time>2026-04-11T16:55:53.002Z</time></trkpt><trkpt lat="43.13358667803585" lon="11.482952818821403"><ele>145.0</ele><time>2026-04-11T16:55:54.002Z</time></trkpt><trkpt lat="43.13352032796519" lon="11.482924716405353"><ele>145.0</ele><time>2026-04-11T16:55:55.002Z</time></trkpt><trkpt lat="43.13345308747885" lon="11.482905089698818"><ele>145.0</ele><time>2026-04-11T16:55:56.002Z</time></trkpt><trkpt lat="43.133387987199626" lon="11.482884546989553"><ele>145.0</ele><time>2026-04-11T16:55:57.002Z</time></trkpt><trkpt lat="43.13332342965117" lon="11.482862492282603"><ele>145.0</ele><time>2026-04-11T16:55:58.002Z</time></trkpt><trkpt lat="43.133258210864426" lon="11.482835576452523"><ele>145.0</ele><time>2026-04-11T16:55:59.002Z</time></trkpt><trkpt lat="43.13319426518345" lon="11.482807010793616"><ele>145.0</ele><time>2026-04-11T16:56:00.002Z</time></trkpt><trkpt lat="43.133131332309354" lon="11.482777049166454"><ele>145.0</ele><time>2026-04-11T16:56:01.002Z</time></trkpt><trkpt lat="43.13306820236849" lon="11.482750783555936"><ele>145.0</ele><time>2026-04-11T16:56:02.002Z</time></trkpt><trkpt lat="43.13300343507209" lon="11.482727575045203"><ele>145.0</ele><time>2026-04-11T16:56:03.002Z</time></trkpt><trkpt lat="43.13293846222767" lon="11.482707889589898"><ele>145.0</ele><time>2026-04-11T16:56:04.002Z</time></trkpt><trkpt lat="43.13287405720145" lon="11.482681385270013"><ele>144.71428571428572</ele><time>2026-04-11T16:56:05.002Z</time></trkpt><trkpt lat="43.13281033110445" lon="11.482653327363142"><ele>144.42857142857144</ele><time>2026-04-11T16:56:06.002Z</time></trkpt><trkpt lat="43.13274586525272" lon="11.48262536695315"><ele>144.14285714285714</ele><time>2026-04-11T16:56:07.002Z</time></trkpt><trkpt lat="43.13268077388963" lon="11.482605940646101"><ele>143.85714285714286</ele><time>2026-04-11T16:56:08.002Z</time></trkpt><trkpt lat="43.13261899841648" lon="11.482579750797992"><ele>143.57142857142856</ele><time>2026-04-11T16:56:09.002Z</time></trkpt><trkpt lat="43.132554070290034" lon="11.482555359140296"><ele>143.28571428571428</ele><time>2026-04-11T16:56:10.002Z</time></trkpt><trkpt lat="43.13248925554141" lon="11.48253405067747"><ele>143.0</ele><time>2026-04-11T16:56:11.002Z</time></trkpt><trkpt lat="43.13242570184672" lon="11.482508046117104"><ele>143.0</ele><time>2026-04-11T16:56:12.002Z</time></trkpt><trkpt lat="43.13230756661651" lon="11.482460879146805"><ele>143.0</ele><time>2026-04-11T16:56:14.002Z</time></trkpt><trkpt lat="43.132218144671654" lon="11.48239081519311"><ele>143.0</ele><time>2026-04-11T16:56:16.002Z</time></trkpt><trkpt lat="43.13227907473322" lon="11.482289551499877"><ele>143.0</ele><time>2026-04-11T16:56:18.001Z</time></trkpt><trkpt lat="43.13239064701458" lon="11.482311753763572"><ele>143.0</ele><time>2026-04-11T16:56:20.001Z</time></trkpt><trkpt lat="43.132505649301045" lon="11.482307905293956"><ele>143.0</ele><time>2026-04-11T16:56:22.001Z</time></trkpt><trkpt lat="43.132567575606444" lon="11.482289974523693"><ele>143.0</ele><time>2026-04-11T16:56:23.001Z</time></trkpt><trkpt lat="43.132690979522586" lon="11.482258353438231"><ele>143.0</ele><time>2026-04-11T16:56:25.001Z</time></trkpt><trkpt lat="43.13275487411588" lon="11.482246675102932"><ele>143.0</ele><time>2026-04-11T16:56:26.001Z</time></trkpt><trkpt lat="43.13282238692587" lon="11.48224512925633"><ele>143.0</ele><time>2026-04-11T16:56:27.001Z</time></trkpt><trkpt lat="43.13289126553206" lon="11.482248643132605"><ele>143.0</ele><time>2026-04-11T16:56:28.001Z</time></trkpt><trkpt lat="43.132957680629424" lon="11.482247108243588"><ele>143.0</ele><time>2026-04-11T16:56:29.001Z</time></trkpt><trkpt lat="43.13303405830809" lon="11.482241435814002"><ele>143.0</ele><time>2026-04-11T16:56:30.001Z</time></trkpt><trkpt lat="43.13310151677533" lon="11.482236003640997"><ele>143.0</ele><time>2026-04-11T16:56:31.001Z</time></trkpt><trkpt lat="43.133171019310495" lon="11.482227042954998"><ele>143.0</ele><time>2026-04-11T16:56:32.001Z</time></trkpt><trkpt lat="43.13329857255256" lon="11.482216592312875"><ele>143.0</ele><time>2026-04-11T16:56:34.001Z</time></trkpt><trkpt lat="43.13336584365661" lon="11.482208112318236"><ele>143.0</ele><time>2026-04-11T16:56:35.001Z</time></trkpt><trkpt lat="43.13343442743787" lon="11.4822007853591"><ele>143.28571428571428</ele><time>2026-04-11T16:56:36.001Z</time></trkpt><trkpt lat="43.13350028181569" lon="11.482199322393225"><ele>143.57142857142856</ele><time>2026-04-11T16:56:37.001Z</time></trkpt><trkpt lat="43.13357462572177" lon="11.4821924684253"><ele>143.85714285714286</ele><time>2026-04-11T16:56:38.001Z</time></trkpt><trkpt lat="43.13364716846139" lon="11.482173175892623"><ele>144.14285714285714</ele><time>2026-04-11T16:56:39.001Z</time></trkpt><trkpt lat="43.13371634199826" lon="11.482170314962163"><ele>144.42857142857144</ele><time>2026-04-11T16:56:40.001Z</time></trkpt><trkpt lat="43.13378226011017" lon="11.482169435627045"><ele>144.71428571428572</ele><time>2026-04-11T16:56:41.001Z</time></trkpt><trkpt lat="43.13385414193468" lon="11.482159948872132"><ele>145.0</ele><time>2026-04-11T16:56:42.001Z</time></trkpt><trkpt lat="43.13392385021288" lon="11.482155329536683"><ele>145.0</ele><time>2026-04-11T16:56:43.001Z</time></trkpt><trkpt lat="43.13399561646072" lon="11.482150067098585"><ele>145.0</ele><time>2026-04-11T16:56:44.001Z</time></trkpt><trkpt lat="43.134064459806986" lon="11.482147699897657"><ele>145.0</ele><time>2026-04-11T16:56:45.001Z</time></trkpt><trkpt lat="43.13414004512917" lon="11.482143626263206"><ele>145.0</ele><time>2026-04-11T16:56:46.001Z</time></trkpt><trkpt lat="43.13420986983453" lon="11.482137517032369"><ele>145.0</ele><time>2026-04-11T16:56:47.001Z</time></trkpt><trkpt lat="43.13427750864144" lon="11.482128267296622"><ele>145.0</ele><time>2026-04-11T16:56:48.001Z</time></trkpt><trkpt lat="43.134350638340365" lon="11.482126694437593"><ele>145.0</ele><time>2026-04-11T16:56:49.001Z</time></trkpt><trkpt lat="43.13443072841894" lon="11.482122433615878"><ele>145.0</ele><time>2026-04-11T16:56:50.001Z</time></trkpt><trkpt lat="43.13456335844485" lon="11.48210795218571"><ele>145.0</ele><time>2026-04-11T16:56:52.001Z</time></trkpt><trkpt lat="43.13463535906332" lon="11.482102124897203"><ele>145.0</ele><time>2026-04-11T16:56:53.001Z</time></trkpt><trkpt lat="43.134708807037555" lon="11.482094563314453"><ele>145.0</ele><time>2026-04-11T16:56:54.001Z</time></trkpt><trkpt lat="43.13477848606594" lon="11.482078285536321"><ele>145.0</ele><time>2026-04-11T16:56:55.001Z</time></trkpt><trkpt lat="43.1348470058903" lon="11.482057784772902"><ele>145.0</ele><time>2026-04-11T16:56:56.001Z</time></trkpt><trkpt lat="43.1349212138621" lon="11.48206055359657"><ele>145.0</ele><time>2026-04-11T16:56:57.001Z</time></trkpt><trkpt lat="43.135052347788076" lon="11.482062634698826"><ele>145.0</ele><time>2026-04-11T16:56:59.001Z</time></trkpt><trkpt lat="43.13518056977739" lon="11.482038618969087"><ele>145.0</ele><time>2026-04-11T16:57:01.001Z</time></trkpt><trkpt lat="43.1352450868705" lon="11.48202234208983"><ele>145.0</ele><time>2026-04-11T16:57:02.001Z</time></trkpt><trkpt lat="43.13535931054247" lon="11.482024730258688"><ele>145.0</ele><time>2026-04-11T16:57:04.001Z</time></trkpt><trkpt lat="43.13542523080535" lon="11.482035922425096"><ele>145.0</ele><time>2026-04-11T16:57:05.001Z</time></trkpt><trkpt lat="43.135490159858286" lon="11.482029343508783"><ele>145.0</ele><time>2026-04-11T16:57:06.001Z</time></trkpt><trkpt lat="43.13555404439329" lon="11.48200643195011"><ele>145.0</ele><time>2026-04-11T16:57:07.001Z</time></trkpt><trkpt lat="43.135628395743076" lon="11.481998739099774"><ele>145.0</ele><time>2026-04-11T16:57:08.001Z</time></trkpt><trkpt lat="43.13570087944306" lon="11.48199167725528"><ele>145.0</ele><time>2026-04-11T16:57:09.001Z</time></trkpt><trkpt lat="43.13577052199311" lon="11.481985409573168"><ele>145.0</ele><time>2026-04-11T16:57:10.001Z</time></trkpt><trkpt lat="43.13583948297587" lon="11.481973067029543"><ele>145.0</ele><time>2026-04-11T16:57:11.001Z</time></trkpt><trkpt lat="43.13591207098023" lon="11.481964323420337"><ele>145.2</ele><time>2026-04-11T16:57:12.001Z</time></trkpt><trkpt lat="43.13598133207958" lon="11.481957162946243"><ele>145.4</ele><time>2026-04-11T16:57:13.001Z</time></trkpt><trkpt lat="43.13605297473465" lon="11.48194992380253"><ele>145.6</ele><time>2026-04-11T16:57:14.001Z</time></trkpt><trkpt lat="43.136132635494675" lon="11.481956590853157"><ele>145.8</ele><time>2026-04-11T16:57:15.001Z</time></trkpt><trkpt lat="43.13622253326296" lon="11.481984391771057"><ele>146.0</ele><time>2026-04-11T16:57:16.001Z</time></trkpt><trkpt lat="43.13635932550828" lon="11.48195640341175"><ele>146.0</ele><time>2026-04-11T16:57:18.001Z</time></trkpt><trkpt lat="43.13643019232093" lon="11.481941543482186"><ele>146.0</ele><time>2026-04-11T16:57:19.001Z</time></trkpt><trkpt lat="43.13649636460996" lon="11.48194024595392"><ele>146.0</ele><time>2026-04-11T16:57:20.001Z</time></trkpt><trkpt lat="43.13661429655344" lon="11.48197652494117"><ele>146.0</ele><time>2026-04-11T16:57:22.001Z</time></trkpt><trkpt lat="43.13670376851714" lon="11.48195266416137"><ele>146.0</ele><time>2026-04-11T16:57:24.001Z</time></trkpt><trkpt lat="43.13677515758693" lon="11.48192930518588"><ele>146.0</ele><time>2026-04-11T16:57:27.001Z</time></trkpt><trkpt lat="43.1369365082606" lon="11.481930361048805"><ele>147.0</ele><time>2026-04-11T16:57:31.001Z</time></trkpt><trkpt lat="43.136885266383075" lon="11.481873948143349"><ele>147.0</ele><time>2026-04-11T16:58:56Z</time></trkpt><trkpt lat="43.1368144958538" lon="11.48190126823179"><ele>147.0</ele><time>2026-04-11T16:59:02.001Z</time></trkpt><trkpt lat="43.13688343309862" lon="11.48188770974948"><ele>147.0</ele><time>2026-04-11T17:01:44.001Z</time></trkpt><trkpt lat="43.1369473500941" lon="11.481870163670258"><ele>147.0</ele><time>2026-04-11T17:01:53.001Z</time></trkpt></trkseg></trk></gpx>